<?xml version='1.0' encoding='UTF-8'?><gpx version="1.1" creator="JPX - https://github.com/jenetics/jpx" xmlns="http://www.topografix.com/GPX/1/1"><trk><trkseg><trkpt lat="45.60055164794316" lon="8.926189028130675"><ele>207.0</ele><time>2026-04-25T07:44:36.999Z</time></trkpt><trkpt lat="45.60051378418377" lon="8.926070212822411"><ele>207.0</ele><time>2026-04-25T07:44:37.999Z</time></trkpt><trkpt lat="45.60046949945874" lon="8.9259290974836"><ele>207.0</ele><time>2026-04-25T07:44:38.999Z</time></trkpt><trkpt lat="45.60044425769299" lon="8.925785584187185"><ele>207.0</ele><time>2026-04-25T07:44:39.999Z</time></trkpt><trkpt lat="45.60040184878587" lon="8.925670945920837"><ele>207.0</ele><time>2026-04-25T07:44:40.999Z</time></trkpt><trkpt lat="45.60036046304881" lon="8.925559073432108"><ele>207.0</ele><time>2026-04-25T07:44:41.999Z</time></trkpt><trkpt lat="45.60031966801531" lon="8.9254474415447"><ele>207.0</ele><time>2026-04-25T07:44:42.999Z</time></trkpt><trkpt lat="45.60027576181083" lon="8.925327666678145"><ele>207.0</ele><time>2026-04-25T07:44:43.999Z</time></trkpt><trkpt lat="45.60022910414534" lon="8.925200385908896"><ele>207.0</ele><time>2026-04-25T07:44:44.999Z</time></trkpt><trkpt lat="45.60018159583435" lon="8.925070784594288"><ele>207.0</ele><time>2026-04-25T07:44:45.999Z</time></trkpt><trkpt lat="45.600136497717756" lon="8.92494905266854"><ele>207.0</ele><time>2026-04-25T07:44:46.999Z</time></trkpt><trkpt lat="45.60009867588069" lon="8.92484702399673"><ele>207.0</ele><time>2026-04-25T07:44:47.999Z</time></trkpt><trkpt lat="45.60006899772922" lon="8.92476696383834"><ele>207.0</ele><time>2026-04-25T07:44:48.999Z</time></trkpt><trkpt lat="45.60001113993006" lon="8.924610885906255"><ele>207.0</ele><time>2026-04-25T07:44:50.999Z</time></trkpt><trkpt lat="45.59996243041058" lon="8.924509620073518"><ele>207.0</ele><time>2026-04-25T07:44:52.999Z</time></trkpt><trkpt lat="45.60008775179577" lon="8.924381630678122"><ele>207.0</ele><time>2026-04-25T07:44:55.999Z</time></trkpt><trkpt lat="45.60016740858937" lon="8.924334686621789"><ele>207.0</ele><time>2026-04-25T07:44:56.999Z</time></trkpt><trkpt lat="45.60024223149556" lon="8.924272499788062"><ele>207.0</ele><time>2026-04-25T07:44:57.999Z</time></trkpt><trkpt lat="45.600332353202965" lon="8.924195863496298"><ele>207.0</ele><time>2026-04-25T07:44:58.999Z</time></trkpt><trkpt lat="45.60042693832025" lon="8.92413586791005"><ele>207.0</ele><time>2026-04-25T07:44:59.999Z</time></trkpt><trkpt lat="45.60048727907374" lon="8.924086443091825"><ele>207.6</ele><time>2026-04-25T07:45:00.999Z</time></trkpt><trkpt lat="45.60060614406007" lon="8.923985825671698"><ele>208.2</ele><time>2026-04-25T07:45:02.999Z</time></trkpt><trkpt lat="45.600712565678755" lon="8.923893842862036"><ele>208.8</ele><time>2026-04-25T07:45:04.999Z</time></trkpt><trkpt lat="45.6007603906951" lon="8.923832985991874"><ele>209.4</ele><time>2026-04-25T07:45:05.999Z</time></trkpt><trkpt lat="45.60078752966594" lon="8.923730452650931"><ele>210.0</ele><time>2026-04-25T07:45:06.999Z</time></trkpt><trkpt lat="45.60080660756682" lon="8.923639114737696"><ele>210.0</ele><time>2026-04-25T07:45:07.999Z</time></trkpt><trkpt lat="45.60086816860871" lon="8.92359608802458"><ele>210.0</ele><time>2026-04-25T07:45:08.999Z</time></trkpt><trkpt lat="45.60094890511456" lon="8.923520748792921"><ele>210.0</ele><time>2026-04-25T07:45:09.999Z</time></trkpt><trkpt lat="45.60105703385477" lon="8.923401671485133"><ele>210.0</ele><time>2026-04-25T07:45:10.999Z</time></trkpt><trkpt lat="45.60119703144495" lon="8.923281573317915"><ele>209.8</ele><time>2026-04-25T07:45:11.999Z</time></trkpt><trkpt lat="45.60131642697872" lon="8.923178084714644"><ele>209.6</ele><time>2026-04-25T07:45:12.999Z</time></trkpt><trkpt lat="45.60141166472005" lon="8.923089139241752"><ele>209.39999999999998</ele><time>2026-04-25T07:45:13.999Z</time></trkpt><trkpt lat="45.60148780855247" lon="8.923017108471832"><ele>209.2</ele><time>2026-04-25T07:45:14.999Z</time></trkpt><trkpt lat="45.601543602995775" lon="8.922965024549464"><ele>209.0</ele><time>2026-04-25T07:45:15.999Z</time></trkpt><trkpt lat="45.60161510600122" lon="8.922898029366957"><ele>209.0</ele><time>2026-04-25T07:45:18.999Z</time></trkpt><trkpt lat="45.60169366883442" lon="8.922843123096413"><ele>209.0</ele><time>2026-04-25T07:45:42.999Z</time></trkpt><trkpt lat="45.60164208046197" lon="8.92269188229826"><ele>209.0</ele><time>2026-04-25T07:45:43.999Z</time></trkpt><trkpt lat="45.60159050815024" lon="8.92258346968995"><ele>209.0</ele><time>2026-04-25T07:45:44.999Z</time></trkpt><trkpt lat="45.60152754302429" lon="8.922431491215812"><ele>209.0</ele><time>2026-04-25T07:45:45.999Z</time></trkpt><trkpt lat="45.60145212663976" lon="8.922238017991974"><ele>209.25</ele><time>2026-04-25T07:45:46.999Z</time></trkpt><trkpt lat="45.60138775301397" lon="8.922074171367953"><ele>209.5</ele><time>2026-04-25T07:45:47.999Z</time></trkpt><trkpt lat="45.601320780414014" lon="8.9219025931569"><ele>209.75</ele><time>2026-04-25T07:45:48.999Z</time></trkpt><trkpt lat="45.601258955078244" lon="8.921739118170656"><ele>210.0</ele><time>2026-04-25T07:45:49.999Z</time></trkpt><trkpt lat="45.601202353177136" lon="8.921578966525953"><ele>209.5</ele><time>2026-04-25T07:45:50.999Z</time></trkpt><trkpt lat="45.60114442702298" lon="8.921421285269647"><ele>209.0</ele><time>2026-04-25T07:45:51.999Z</time></trkpt><trkpt lat="45.60108855609947" lon="8.921266997050678"><ele>208.5</ele><time>2026-04-25T07:45:52.999Z</time></trkpt><trkpt lat="45.601030008246134" lon="8.92111410217091"><ele>208.0</ele><time>2026-04-25T07:45:53.999Z</time></trkpt><trkpt lat="45.60097157829187" lon="8.920961968022333"><ele>208.0</ele><time>2026-04-25T07:45:54.999Z</time></trkpt><trkpt lat="45.60091846051613" lon="8.920814639891082"><ele>208.0</ele><time>2026-04-25T07:45:55.999Z</time></trkpt><trkpt lat="45.600872595357274" lon="8.920694617465822"><ele>208.0</ele><time>2026-04-25T07:45:56.999Z</time></trkpt><trkpt lat="45.60083630748074" lon="8.920586365234652"><ele>208.0</ele><time>2026-04-25T07:45:57.999Z</time></trkpt><trkpt lat="45.60080124377855" lon="8.920493454462651"><ele>208.0</ele><time>2026-04-25T07:45:58.999Z</time></trkpt><trkpt lat="45.60074998890877" lon="8.92038065216043"><ele>207.99999999999997</ele><time>2026-04-25T07:45:59.999Z</time></trkpt><trkpt lat="45.60070007058629" lon="8.920251301262905"><ele>208.0</ele><time>2026-04-25T07:46:00.999Z</time></trkpt><trkpt lat="45.60065104757261" lon="8.920125492189262"><ele>208.0</ele><time>2026-04-25T07:46:01.999Z</time></trkpt><trkpt lat="45.600612457576965" lon="8.920025399788498"><ele>208.0</ele><time>2026-04-25T07:46:02.999Z</time></trkpt><trkpt lat="45.60057584640859" lon="8.919936076438493"><ele>207.99999999999997</ele><time>2026-04-25T07:46:03.999Z</time></trkpt><trkpt lat="45.60053738111429" lon="8.919837787012316"><ele>208.0</ele><time>2026-04-25T07:46:04.999Z</time></trkpt><trkpt lat="45.60049464478281" lon="8.919730801655362"><ele>207.8</ele><time>2026-04-25T07:46:05.999Z</time></trkpt><trkpt lat="45.60045154833091" lon="8.919618252777228"><ele>207.60000000000002</ele><time>2026-04-25T07:46:06.999Z</time></trkpt><trkpt lat="45.600406581830356" lon="8.919502887524992"><ele>207.39999999999998</ele><time>2026-04-25T07:46:07.999Z</time></trkpt><trkpt lat="45.60036075227688" lon="8.919384386755127"><ele>207.2</ele><time>2026-04-25T07:46:08.999Z</time></trkpt><trkpt lat="45.60031528025637" lon="8.919260205646843"><ele>207.0</ele><time>2026-04-25T07:46:09.999Z</time></trkpt><trkpt lat="45.60026841728245" lon="8.91913536698119"><ele>206.33333333333334</ele><time>2026-04-25T07:46:10.999Z</time></trkpt><trkpt lat="45.6002249812867" lon="8.919030221193555"><ele>205.66666666666669</ele><time>2026-04-25T07:46:11.999Z</time></trkpt><trkpt lat="45.60018747794769" lon="8.918947637042109"><ele>205.0</ele><time>2026-04-25T07:46:12.999Z</time></trkpt><trkpt lat="45.60015522674532" lon="8.918861839994397"><ele>204.33333333333334</ele><time>2026-04-25T07:46:13.999Z</time></trkpt><trkpt lat="45.60010438236128" lon="8.91872250602606"><ele>203.66666666666669</ele><time>2026-04-25T07:46:15.999Z</time></trkpt><trkpt lat="45.600062835967584" lon="8.9186260179428"><ele>203.0</ele><time>2026-04-25T07:46:17.999Z</time></trkpt><trkpt lat="45.6000249747334" lon="8.918517605405471"><ele>203.2</ele><time>2026-04-25T07:46:20.999Z</time></trkpt><trkpt lat="45.60002886600395" lon="8.918359568005965"><ele>203.4</ele><time>2026-04-25T07:46:22.999Z</time></trkpt><trkpt lat="45.60008885425018" lon="8.918294710716813"><ele>203.6</ele><time>2026-04-25T07:46:25.999Z</time></trkpt><trkpt lat="45.60015207998151" lon="8.918315392058778"><ele>203.79999999999998</ele><time>2026-04-25T07:46:29.999Z</time></trkpt><trkpt lat="45.600231543852665" lon="8.918272306304472"><ele>204.0</ele><time>2026-04-25T07:46:43.999Z</time></trkpt><trkpt lat="45.600129623250055" lon="8.918384358943563"><ele>204.0</ele><time>2026-04-25T07:49:52Z</time></trkpt><trkpt lat="45.600373670132775" lon="8.918151317850997"><ele>204.0</ele><time>2026-04-25T07:50:16.999Z</time></trkpt><trkpt lat="45.60033031906892" lon="8.917822238263087"><ele>204.0</ele><time>2026-04-25T07:50:17.999Z</time></trkpt><trkpt lat="45.600391817479434" lon="8.917756671789041"><ele>204.0</ele><time>2026-04-25T07:50:18.999Z</time></trkpt><trkpt lat="45.60044765695687" lon="8.91768959049583"><ele>204.0</ele><time>2026-04-25T07:50:19.999Z</time></trkpt><trkpt lat="45.60050886831873" lon="8.917613634152264"><ele>204.0</ele><time>2026-04-25T07:50:20.999Z</time></trkpt><trkpt lat="45.60056399194398" lon="8.917542661344726"><ele>204.0</ele><time>2026-04-25T07:50:21.999Z</time></trkpt><trkpt lat="45.600656246240426" lon="8.917443928491256"><ele>204.0</ele><time>2026-04-25T07:50:23.999Z</time></trkpt><trkpt lat="45.600743644696756" lon="8.917340834172268"><ele>204.0</ele><time>2026-04-25T07:50:25.999Z</time></trkpt><trkpt lat="45.60081982714841" lon="8.917251825371812"><ele>204.0</ele><time>2026-04-25T07:50:27.999Z</time></trkpt><trkpt lat="45.600923931852584" lon="8.917143932142853"><ele>204.0</ele><time>2026-04-25T07:50:29.999Z</time></trkpt><trkpt lat="45.600987874277315" lon="8.91702773584189"><ele>204.0</ele><time>2026-04-25T07:50:30.999Z</time></trkpt><trkpt lat="45.601050163476" lon="8.91690217348726"><ele>204.0</ele><time>2026-04-25T07:50:31.999Z</time></trkpt><trkpt lat="45.60113586430234" lon="8.916804842155404"><ele>204.66666666666669</ele><time>2026-04-25T07:50:32.999Z</time></trkpt><trkpt lat="45.6012553511781" lon="8.916719074940525"><ele>205.33333333333334</ele><time>2026-04-25T07:50:33.999Z</time></trkpt><trkpt lat="45.601395249158784" lon="8.91660588503174"><ele>206.0</ele><time>2026-04-25T07:50:34.999Z</time></trkpt><trkpt lat="45.601542583696336" lon="8.916482008680038"><ele>206.0</ele><time>2026-04-25T07:50:35.999Z</time></trkpt><trkpt lat="45.60167412618874" lon="8.916375849967531"><ele>206.0</ele><time>2026-04-25T07:50:36.999Z</time></trkpt><trkpt lat="45.60173803261322" lon="8.916282168990826"><ele>206.0</ele><time>2026-04-25T07:50:37.999Z</time></trkpt><trkpt lat="45.60181828110425" lon="8.916195259116732"><ele>206.0</ele><time>2026-04-25T07:50:38.999Z</time></trkpt><trkpt lat="45.6019023801982" lon="8.916114611093858"><ele>206.0</ele><time>2026-04-25T07:50:39.999Z</time></trkpt><trkpt lat="45.6019938369584" lon="8.91603289372367"><ele>206.0</ele><time>2026-04-25T07:50:40.999Z</time></trkpt><trkpt lat="45.60209896018131" lon="8.915945771255426"><ele>206.0</ele><time>2026-04-25T07:50:41.999Z</time></trkpt><trkpt lat="45.60221008038049" lon="8.915857714063645"><ele>206.0</ele><time>2026-04-25T07:50:42.999Z</time></trkpt><trkpt lat="45.60232402623277" lon="8.915751941173937"><ele>206.0</ele><time>2026-04-25T07:50:43.999Z</time></trkpt><trkpt lat="45.602483100897544" lon="8.915648896981205"><ele>206.0</ele><time>2026-04-25T07:50:44.999Z</time></trkpt><trkpt lat="45.60263495843854" lon="8.915550408401423"><ele>206.0</ele><time>2026-04-25T07:50:45.999Z</time></trkpt><trkpt lat="45.60278759393384" lon="8.91544003430776"><ele>206.0</ele><time>2026-04-25T07:50:46.999Z</time></trkpt><trkpt lat="45.602941906440066" lon="8.915326642461752"><ele>206.0</ele><time>2026-04-25T07:50:47.999Z</time></trkpt><trkpt lat="45.60308927665625" lon="8.915222947589033"><ele>206.0</ele><time>2026-04-25T07:50:48.999Z</time></trkpt><trkpt lat="45.603246169250056" lon="8.915122270643714"><ele>206.0</ele><time>2026-04-25T07:50:49.999Z</time></trkpt><trkpt lat="45.603398002125516" lon="8.915006543754776"><ele>206.0</ele><time>2026-04-25T07:50:50.999Z</time></trkpt><trkpt lat="45.603525924157346" lon="8.914915483248427"><ele>206.0</ele><time>2026-04-25T07:50:51.999Z</time></trkpt><trkpt lat="45.60364780201726" lon="8.914827854361684"><ele>206.0</ele><time>2026-04-25T07:50:52.999Z</time></trkpt><trkpt lat="45.60378841649365" lon="8.914726932588549"><ele>206.0</ele><time>2026-04-25T07:50:53.999Z</time></trkpt><trkpt lat="45.60393198132471" lon="8.914626922075817"><ele>206.66666666666669</ele><time>2026-04-25T07:50:54.999Z</time></trkpt><trkpt lat="45.604083085268414" lon="8.914517170014411"><ele>207.33333333333331</ele><time>2026-04-25T07:50:55.999Z</time></trkpt><trkpt lat="45.604234236359694" lon="8.914425262863013"><ele>208.0</ele><time>2026-04-25T07:50:56.999Z</time></trkpt><trkpt lat="45.60437716142606" lon="8.914303509894816"><ele>207.75</ele><time>2026-04-25T07:50:57.999Z</time></trkpt><trkpt lat="45.6045082513537" lon="8.914201200159988"><ele>207.5</ele><time>2026-04-25T07:50:58.999Z</time></trkpt><trkpt lat="45.60462462458909" lon="8.91409241440777"><ele>207.25</ele><time>2026-04-25T07:50:59.999Z</time></trkpt><trkpt lat="45.60472385729067" lon="8.913985211302423"><ele>207.0</ele><time>2026-04-25T07:51:00.999Z</time></trkpt><trkpt lat="45.60482353202418" lon="8.91385975188272"><ele>207.0</ele><time>2026-04-25T07:51:01.999Z</time></trkpt><trkpt lat="45.604918050175684" lon="8.913731784452844"><ele>207.0</ele><time>2026-04-25T07:51:02.999Z</time></trkpt><trkpt lat="45.605003144832615" lon="8.91361012563556"><ele>207.0</ele><time>2026-04-25T07:51:03.999Z</time></trkpt><trkpt lat="45.60508051451786" lon="8.913497793764606"><ele>207.0</ele><time>2026-04-25T07:51:04.999Z</time></trkpt><trkpt lat="45.60514468880554" lon="8.913395686004856"><ele>207.0</ele><time>2026-04-25T07:51:05.999Z</time></trkpt><trkpt lat="45.605210652147775" lon="8.913303825616957"><ele>207.0</ele><time>2026-04-25T07:51:06.999Z</time></trkpt><trkpt lat="45.605269074465234" lon="8.913219217724864"><ele>207.0</ele><time>2026-04-25T07:51:07.999Z</time></trkpt><trkpt lat="45.605326119106834" lon="8.913140091753009"><ele>207.0</ele><time>2026-04-25T07:51:08.999Z</time></trkpt><trkpt lat="45.605381066880554" lon="8.913067717922036"><ele>207.0</ele><time>2026-04-25T07:51:09.999Z</time></trkpt><trkpt lat="45.605427243578525" lon="8.913006103313684"><ele>207.0</ele><time>2026-04-25T07:51:10.999Z</time></trkpt><trkpt lat="45.60550531359448" lon="8.912900473581793"><ele>207.0</ele><time>2026-04-25T07:51:12.999Z</time></trkpt><trkpt lat="45.60557800352239" lon="8.912807587872969"><ele>207.0</ele><time>2026-04-25T07:51:14.999Z</time></trkpt><trkpt lat="45.60565673824148" lon="8.91269801700013"><ele>207.0</ele><time>2026-04-25T07:51:16.999Z</time></trkpt><trkpt lat="45.605707926916885" lon="8.912622131441191"><ele>207.0</ele><time>2026-04-25T07:51:18.999Z</time></trkpt><trkpt lat="45.60576100243665" lon="8.912545753273134"><ele>207.0</ele><time>2026-04-25T07:51:29.999Z</time></trkpt><trkpt lat="45.605866124592396" lon="8.912470717016964"><ele>207.0</ele><time>2026-04-25T07:51:31.999Z</time></trkpt><trkpt lat="45.605967198258526" lon="8.912560114915134"><ele>207.0</ele><time>2026-04-25T07:51:33.999Z</time></trkpt><trkpt lat="45.606058139620416" lon="8.912638705707568"><ele>207.0</ele><time>2026-04-25T07:51:34.999Z</time></trkpt><trkpt lat="45.606154656489814" lon="8.912756960005868"><ele>207.0</ele><time>2026-04-25T07:51:35.999Z</time></trkpt><trkpt lat="45.606263492259814" lon="8.912888711881537"><ele>208.0</ele><time>2026-04-25T07:51:36.999Z</time></trkpt><trkpt lat="45.60637400714999" lon="8.91301436804207"><ele>209.0</ele><time>2026-04-25T07:51:37.999Z</time></trkpt><trkpt lat="45.606489733277975" lon="8.913154539997883"><ele>210.0</ele><time>2026-04-25T07:51:38.999Z</time></trkpt><trkpt lat="45.60664566582195" lon="8.913321090389186"><ele>210.33333333333331</ele><time>2026-04-25T07:51:39.999Z</time></trkpt><trkpt lat="45.606807266251295" lon="8.913518852985778"><ele>210.66666666666666</ele><time>2026-04-25T07:51:40.999Z</time></trkpt><trkpt lat="45.60695435843268" lon="8.913698512150358"><ele>211.0</ele><time>2026-04-25T07:51:41.999Z</time></trkpt><trkpt lat="45.60708801590994" lon="8.913841339567458"><ele>211.0</ele><time>2026-04-25T07:51:42.999Z</time></trkpt><trkpt lat="45.607203087355124" lon="8.913970407448168"><ele>211.0</ele><time>2026-04-25T07:51:43.999Z</time></trkpt><trkpt lat="45.60730587583826" lon="8.914100100683099"><ele>211.0</ele><time>2026-04-25T07:51:44.999Z</time></trkpt><trkpt lat="45.607404462842695" lon="8.914204491778595"><ele>211.0</ele><time>2026-04-25T07:51:45.999Z</time></trkpt><trkpt lat="45.6074934090951" lon="8.91430565797173"><ele>210.99999999999997</ele><time>2026-04-25T07:51:46.999Z</time></trkpt><trkpt lat="45.60757105321207" lon="8.91439211198265"><ele>211.0</ele><time>2026-04-25T07:51:47.999Z</time></trkpt><trkpt lat="45.60764554489894" lon="8.914477894252386"><ele>211.0</ele><time>2026-04-25T07:51:48.999Z</time></trkpt><trkpt lat="45.60771474310943" lon="8.914550229168844"><ele>211.0</ele><time>2026-04-25T07:51:50Z</time></trkpt><trkpt lat="45.607771524368715" lon="8.914616963825237"><ele>210.99999999999997</ele><time>2026-04-25T07:51:51Z</time></trkpt><trkpt lat="45.607834863579434" lon="8.914718994360877"><ele>211.0</ele><time>2026-04-25T07:51:53Z</time></trkpt><trkpt lat="45.607878741900855" lon="8.914792953264666"><ele>211.20000000000002</ele><time>2026-04-25T07:51:56Z</time></trkpt><trkpt lat="45.60797863092926" lon="8.914907283182536"><ele>211.4</ele><time>2026-04-25T07:52:12Z</time></trkpt><trkpt lat="45.608040047932356" lon="8.914972983549903"><ele>211.6</ele><time>2026-04-25T07:52:13Z</time></trkpt><trkpt lat="45.60809979031338" lon="8.915037399762417"><ele>211.8</ele><time>2026-04-25T07:52:14Z</time></trkpt><trkpt lat="45.60816793280506" lon="8.915051096427026"><ele>212.0</ele><time>2026-04-25T07:52:15Z</time></trkpt><trkpt lat="45.60823387170993" lon="8.91525210636789"><ele>212.00000000000003</ele><time>2026-04-25T07:52:16.999Z</time></trkpt><trkpt lat="45.60824986122642" lon="8.91534163014822"><ele>212.0</ele><time>2026-04-25T07:52:17.999Z</time></trkpt><trkpt lat="45.60825995547591" lon="8.91543723051322"><ele>212.0</ele><time>2026-04-25T07:52:18.999Z</time></trkpt><trkpt lat="45.608273480555596" lon="8.915552425473944"><ele>212.0</ele><time>2026-04-25T07:52:19.999Z</time></trkpt><trkpt lat="45.608287529589454" lon="8.9156665228298"><ele>212.00000000000003</ele><time>2026-04-25T07:52:20.999Z</time></trkpt><trkpt lat="45.608302284804815" lon="8.915764171262815"><ele>212.0</ele><time>2026-04-25T07:52:21.999Z</time></trkpt><trkpt lat="45.608309013246455" lon="8.915920793415422"><ele>212.0</ele><time>2026-04-25T07:52:23.999Z</time></trkpt><trkpt lat="45.60832478239837" lon="8.91609881414726"><ele>212.0</ele><time>2026-04-25T07:52:25.999Z</time></trkpt><trkpt lat="45.608333996135165" lon="8.916197464699035"><ele>212.0</ele><time>2026-04-25T07:52:26.999Z</time></trkpt><trkpt lat="45.608386115737346" lon="8.91634654777024"><ele>212.0</ele><time>2026-04-25T07:52:28.999Z</time></trkpt><trkpt lat="45.608398858040005" lon="8.916435529728233"><ele>212.0</ele><time>2026-04-25T07:52:29.999Z</time></trkpt><trkpt lat="45.60842861605894" lon="8.916631690271506"><ele>212.00000000000003</ele><time>2026-04-25T07:52:31.999Z</time></trkpt><trkpt lat="45.60844490074898" lon="8.916728134006872"><ele>212.0</ele><time>2026-04-25T07:52:32.999Z</time></trkpt><trkpt lat="45.60845901424767" lon="8.916819234295914"><ele>212.0</ele><time>2026-04-25T07:52:33.999Z</time></trkpt><trkpt lat="45.60847367246415" lon="8.916983804187113"><ele>212.0</ele><time>2026-04-25T07:52:35.999Z</time></trkpt><trkpt lat="45.60848331047691" lon="8.917102613771814"><ele>212.00000000000003</ele><time>2026-04-25T07:52:37.999Z</time></trkpt><trkpt lat="45.60849617613032" lon="8.917221425706485"><ele>212.0</ele><time>2026-04-25T07:52:39.999Z</time></trkpt><trkpt lat="45.60852061462844" lon="8.917372880352888"><ele>211.83333333333334</ele><time>2026-04-25T07:52:41.999Z</time></trkpt><trkpt lat="45.608537888080605" lon="8.917487076517387"><ele>211.66666666666669</ele><time>2026-04-25T07:52:42.999Z</time></trkpt><trkpt lat="45.60853700255755" lon="8.917623903652888"><ele>211.5</ele><time>2026-04-25T07:52:43.999Z</time></trkpt><trkpt lat="45.60856887948781" lon="8.917732985725738"><ele>211.33333333333331</ele><time>2026-04-25T07:52:44.999Z</time></trkpt><trkpt lat="45.60858028859724" lon="8.917835440310704"><ele>211.16666666666666</ele><time>2026-04-25T07:52:45.999Z</time></trkpt><trkpt lat="45.60859091445623" lon="8.917933816246057"><ele>211.0</ele><time>2026-04-25T07:52:46.999Z</time></trkpt><trkpt lat="45.608600920369014" lon="8.918050783245915"><ele>211.0</ele><time>2026-04-25T07:52:47.999Z</time></trkpt><trkpt lat="45.60861450728118" lon="8.918207993242756"><ele>211.0</ele><time>2026-04-25T07:52:48.999Z</time></trkpt><trkpt lat="45.608634048122276" lon="8.91837283763384"><ele>211.0</ele><time>2026-04-25T07:52:49.999Z</time></trkpt><trkpt lat="45.60865166835424" lon="8.918508207974284"><ele>211.0</ele><time>2026-04-25T07:52:50.999Z</time></trkpt><trkpt lat="45.60867017059817" lon="8.918626481983818"><ele>211.0</ele><time>2026-04-25T07:52:51.999Z</time></trkpt><trkpt lat="45.60868434394852" lon="8.918736009426775"><ele>210.99999999999997</ele><time>2026-04-25T07:52:52.999Z</time></trkpt><trkpt lat="45.60869217368462" lon="8.918848691034537"><ele>211.0</ele><time>2026-04-25T07:52:53.999Z</time></trkpt><trkpt lat="45.60869881429461" lon="8.919011250393684"><ele>211.0</ele><time>2026-04-25T07:52:55.999Z</time></trkpt><trkpt lat="45.60871324354562" lon="8.919150706667146"><ele>211.0</ele><time>2026-04-25T07:52:57.999Z</time></trkpt><trkpt lat="45.60872531379921" lon="8.91927579954146"><ele>210.99999999999997</ele><time>2026-04-25T07:52:59.999Z</time></trkpt><trkpt lat="45.60871945606596" lon="8.9193660947164"><ele>211.0</ele><time>2026-04-25T07:53:02.999Z</time></trkpt><trkpt lat="45.60870016140422" lon="8.919461542411415"><ele>210.8</ele><time>2026-04-25T07:53:04.999Z</time></trkpt><trkpt lat="45.60866321252891" lon="8.91957353243568"><ele>210.60000000000002</ele><time>2026-04-25T07:53:06.999Z</time></trkpt><trkpt lat="45.60871479812421" lon="8.919639298248546"><ele>210.4</ele><time>2026-04-25T07:53:07.999Z</time></trkpt><trkpt lat="45.6087825387449" lon="8.919803987367755"><ele>210.2</ele><time>2026-04-25T07:53:09.999Z</time></trkpt><trkpt lat="45.60881072760555" lon="8.91992367825437"><ele>210.0</ele><time>2026-04-25T07:53:10.999Z</time></trkpt><trkpt lat="45.608807866706556" lon="8.920057632115663"><ele>210.25</ele><time>2026-04-25T07:53:11.999Z</time></trkpt><trkpt lat="45.60882499876947" lon="8.920201500836242"><ele>210.5</ele><time>2026-04-25T07:53:12.999Z</time></trkpt><trkpt lat="45.60884514247022" lon="8.920370660242591"><ele>210.75</ele><time>2026-04-25T07:53:13.999Z</time></trkpt><trkpt lat="45.60886478443057" lon="8.920531204933726"><ele>211.0</ele><time>2026-04-25T07:53:14.999Z</time></trkpt><trkpt lat="45.60888400560015" lon="8.920696401279498"><ele>211.0</ele><time>2026-04-25T07:53:15.999Z</time></trkpt><trkpt lat="45.60890444786797" lon="8.92087172453695"><ele>211.0</ele><time>2026-04-25T07:53:16.999Z</time></trkpt><trkpt lat="45.60892446431632" lon="8.921038021640452"><ele>211.0</ele><time>2026-04-25T07:53:17.999Z</time></trkpt><trkpt lat="45.60894102616396" lon="8.921178665546552"><ele>211.0</ele><time>2026-04-25T07:53:18.999Z</time></trkpt><trkpt lat="45.60896068710451" lon="8.92134501028645"><ele>210.75</ele><time>2026-04-25T07:53:19.999Z</time></trkpt><trkpt lat="45.608983318418396" lon="8.921536241133747"><ele>210.5</ele><time>2026-04-25T07:53:20.999Z</time></trkpt><trkpt lat="45.609026645347846" lon="8.92175185782986"><ele>210.25</ele><time>2026-04-25T07:53:21.999Z</time></trkpt><trkpt lat="45.60905150572693" lon="8.92196234324891"><ele>210.0</ele><time>2026-04-25T07:53:22.999Z</time></trkpt><trkpt lat="45.60907565789588" lon="8.922174562923212"><ele>210.0</ele><time>2026-04-25T07:53:23.999Z</time></trkpt><trkpt lat="45.609101480614555" lon="8.922387445019904"><ele>210.0</ele><time>2026-04-25T07:53:24.999Z</time></trkpt><trkpt lat="45.609124512392675" lon="8.922582635408228"><ele>210.0</ele><time>2026-04-25T07:53:25.999Z</time></trkpt><trkpt lat="45.609146863077115" lon="8.92277572447971"><ele>210.0</ele><time>2026-04-25T07:53:26.999Z</time></trkpt><trkpt lat="45.60916963251229" lon="8.922975999495042"><ele>209.75</ele><time>2026-04-25T07:53:27.999Z</time></trkpt><trkpt lat="45.60919227769412" lon="8.923164349239732"><ele>209.5</ele><time>2026-04-25T07:53:28.999Z</time></trkpt><trkpt lat="45.60921348830232" lon="8.923341644295537"><ele>209.25</ele><time>2026-04-25T07:53:29.999Z</time></trkpt><trkpt lat="45.60922963848524" lon="8.923507211593398"><ele>209.0</ele><time>2026-04-25T07:53:30.999Z</time></trkpt><trkpt lat="45.60924338210762" lon="8.923672071600278"><ele>208.75</ele><time>2026-04-25T07:53:31.999Z</time></trkpt><trkpt lat="45.60926011966865" lon="8.923849051305968"><ele>208.5</ele><time>2026-04-25T07:53:32.999Z</time></trkpt><trkpt lat="45.60928839689057" lon="8.924054309167426"><ele>208.25</ele><time>2026-04-25T07:53:33.999Z</time></trkpt><trkpt lat="45.609320599250104" lon="8.924295330302575"><ele>208.0</ele><time>2026-04-25T07:53:34.999Z</time></trkpt><trkpt lat="45.60935522291448" lon="8.924569623117343"><ele>208.0</ele><time>2026-04-25T07:53:35.999Z</time></trkpt><trkpt lat="45.60938522975958" lon="8.92483436062017"><ele>208.0</ele><time>2026-04-25T07:53:36.999Z</time></trkpt><trkpt lat="45.609413173106574" lon="8.925078366137866"><ele>208.0</ele><time>2026-04-25T07:53:37.999Z</time></trkpt><trkpt lat="45.60943538156873" lon="8.925284887710658"><ele>207.99999999999997</ele><time>2026-04-25T07:53:38.999Z</time></trkpt><trkpt lat="45.609446789699504" lon="8.925441469904309"><ele>208.0</ele><time>2026-04-25T07:53:39.999Z</time></trkpt><trkpt lat="45.609443850585" lon="8.925549170224732"><ele>208.0</ele><time>2026-04-25T07:53:40.999Z</time></trkpt><trkpt lat="45.60941784264881" lon="8.925648689158205"><ele>208.0</ele><time>2026-04-25T07:53:42.999Z</time></trkpt><trkpt lat="45.60940052167508" lon="8.925745328077209"><ele>207.99999999999997</ele><time>2026-04-25T07:53:47.999Z</time></trkpt><trkpt lat="45.60936817196688" lon="8.925852771382026"><ele>208.0</ele><time>2026-04-25T07:53:51.999Z</time></trkpt><trkpt lat="45.60931517296574" lon="8.925942738978577"><ele>208.0</ele><time>2026-04-25T07:53:52.999Z</time></trkpt><trkpt lat="45.609302564044484" lon="8.926079964906595"><ele>208.0</ele><time>2026-04-25T07:53:53.999Z</time></trkpt><trkpt lat="45.609302595203104" lon="8.926198056432217"><ele>208.0</ele><time>2026-04-25T07:53:54.999Z</time></trkpt><trkpt lat="45.60935935781794" lon="8.926334269222567"><ele>208.0</ele><time>2026-04-25T07:53:56Z</time></trkpt><trkpt lat="45.60944374463919" lon="8.926420834838039"><ele>208.0</ele><time>2026-04-25T07:53:57Z</time></trkpt><trkpt lat="45.60952894293314" lon="8.926522771172285"><ele>208.0</ele><time>2026-04-25T07:53:58Z</time></trkpt><trkpt lat="45.60960095897411" lon="8.926668967270965"><ele>208.0</ele><time>2026-04-25T07:53:59Z</time></trkpt><trkpt lat="45.609643788727624" lon="8.92683755128176"><ele>208.0</ele><time>2026-04-25T07:54:00Z</time></trkpt><trkpt lat="45.60964266473445" lon="8.927053551073344"><ele>208.0</ele><time>2026-04-25T07:54:01Z</time></trkpt><trkpt lat="45.609687540918245" lon="8.927334686970298"><ele>208.5</ele><time>2026-04-25T07:54:02Z</time></trkpt><trkpt lat="45.60970423355587" lon="8.927684199802698"><ele>209.0</ele><time>2026-04-25T07:54:03Z</time></trkpt><trkpt lat="45.60972234392066" lon="8.928024871940247"><ele>209.0</ele><time>2026-04-25T07:54:04Z</time></trkpt><trkpt lat="45.60974290526223" lon="8.928313131601318"><ele>209.0</ele><time>2026-04-25T07:54:05Z</time></trkpt><trkpt lat="45.60976902297062" lon="8.928554489653218"><ele>209.0</ele><time>2026-04-25T07:54:06Z</time></trkpt><trkpt lat="45.609795138549714" lon="8.928777941261286"><ele>209.0</ele><time>2026-04-25T07:54:07Z</time></trkpt><trkpt lat="45.609820748269364" lon="8.929023666425698"><ele>209.0</ele><time>2026-04-25T07:54:08Z</time></trkpt><trkpt lat="45.60985263806769" lon="8.929279862620408"><ele>209.0</ele><time>2026-04-25T07:54:09Z</time></trkpt><trkpt lat="45.60988936215062" lon="8.929543048693946"><ele>209.0</ele><time>2026-04-25T07:54:10Z</time></trkpt><trkpt lat="45.609923927015544" lon="8.929797352782572"><ele>209.0</ele><time>2026-04-25T07:54:11Z</time></trkpt><trkpt lat="45.609958700570516" lon="8.930038155249347"><ele>209.0</ele><time>2026-04-25T07:54:12Z</time></trkpt><trkpt lat="45.609992267309366" lon="8.930264289767996"><ele>210.0</ele><time>2026-04-25T07:54:13Z</time></trkpt><trkpt lat="45.61002667254925" lon="8.930494612755918"><ele>211.0</ele><time>2026-04-25T07:54:14Z</time></trkpt><trkpt lat="45.61006303076045" lon="8.930739562534272"><ele>212.0</ele><time>2026-04-25T07:54:15Z</time></trkpt><trkpt lat="45.610096215123974" lon="8.930986473651673"><ele>212.75</ele><time>2026-04-25T07:54:16Z</time></trkpt><trkpt lat="45.61012503457539" lon="8.931208032048847"><ele>213.5</ele><time>2026-04-25T07:54:17Z</time></trkpt><trkpt lat="45.61014881611616" lon="8.931397849826537"><ele>214.25</ele><time>2026-04-25T07:54:18Z</time></trkpt><trkpt lat="45.61016962872029" lon="8.931572103155897"><ele>215.0</ele><time>2026-04-25T07:54:19Z</time></trkpt><trkpt lat="45.6101888995593" lon="8.931729881052908"><ele>215.4</ele><time>2026-04-25T07:54:20Z</time></trkpt><trkpt lat="45.61020669655799" lon="8.931886836670607"><ele>215.8</ele><time>2026-04-25T07:54:21Z</time></trkpt><trkpt lat="45.61022429809828" lon="8.932057596591363"><ele>216.2</ele><time>2026-04-25T07:54:22Z</time></trkpt><trkpt lat="45.610239897636" lon="8.932215579501554"><ele>216.6</ele><time>2026-04-25T07:54:23Z</time></trkpt><trkpt lat="45.610249588144605" lon="8.932339318217315"><ele>217.0</ele><time>2026-04-25T07:54:24Z</time></trkpt><trkpt lat="45.610248246751055" lon="8.932430529378802"><ele>217.6</ele><time>2026-04-25T07:54:25Z</time></trkpt><trkpt lat="45.610198871624334" lon="8.932617895953413"><ele>218.2</ele><time>2026-04-25T07:54:27Z</time></trkpt><trkpt lat="45.61016554641045" lon="8.93274060973669"><ele>218.8</ele><time>2026-04-25T07:54:28Z</time></trkpt><trkpt lat="45.61016153843615" lon="8.932872961897111"><ele>219.4</ele><time>2026-04-25T07:54:29Z</time></trkpt><trkpt lat="45.61019637619336" lon="8.932996801123215"><ele>220.0</ele><time>2026-04-25T07:54:30Z</time></trkpt><trkpt lat="45.61027188196204" lon="8.93312868091677"><ele>221.0</ele><time>2026-04-25T07:54:30.999Z</time></trkpt><trkpt lat="45.610373987127836" lon="8.933286669951574"><ele>222.0</ele><time>2026-04-25T07:54:31.999Z</time></trkpt><trkpt lat="45.61042243646989" lon="8.933526429758368"><ele>223.0</ele><time>2026-04-25T07:54:32.999Z</time></trkpt><trkpt lat="45.610441295700156" lon="8.933798463599034"><ele>223.33333333333331</ele><time>2026-04-25T07:54:33.999Z</time></trkpt><trkpt lat="45.610489738054994" lon="8.93408080806341"><ele>223.66666666666669</ele><time>2026-04-25T07:54:34.999Z</time></trkpt><trkpt lat="45.61051491403955" lon="8.934317830157223"><ele>224.0</ele><time>2026-04-25T07:54:35.999Z</time></trkpt><trkpt lat="45.61054172313897" lon="8.934523978320467"><ele>224.0</ele><time>2026-04-25T07:54:36.999Z</time></trkpt><trkpt lat="45.61056595118372" lon="8.9347166140395"><ele>224.0</ele><time>2026-04-25T07:54:37.999Z</time></trkpt><trkpt lat="45.61059012914464" lon="8.934915807280124"><ele>224.0</ele><time>2026-04-25T07:54:38.999Z</time></trkpt><trkpt lat="45.61061256111714" lon="8.935110844724615"><ele>224.0</ele><time>2026-04-25T07:54:39.999Z</time></trkpt><trkpt lat="45.61063348249104" lon="8.935297299667214"><ele>223.75</ele><time>2026-04-25T07:54:40.999Z</time></trkpt><trkpt lat="45.61065228330982" lon="8.935473933192911"><ele>223.5</ele><time>2026-04-25T07:54:41.999Z</time></trkpt><trkpt lat="45.61067228378141" lon="8.935642226858828"><ele>223.25</ele><time>2026-04-25T07:54:42.999Z</time></trkpt><trkpt lat="45.61069355294552" lon="8.935820103483806"><ele>223.0</ele><time>2026-04-25T07:54:43.999Z</time></trkpt><trkpt lat="45.61071272684759" lon="8.93599383206826"><ele>222.83333333333331</ele><time>2026-04-25T07:54:44.999Z</time></trkpt><trkpt lat="45.61073000612161" lon="8.936143437200744"><ele>222.66666666666666</ele><time>2026-04-25T07:54:45.999Z</time></trkpt><trkpt lat="45.610744981547136" lon="8.93626772507098"><ele>222.5</ele><time>2026-04-25T07:54:46.999Z</time></trkpt><trkpt lat="45.61075773470508" lon="8.936378293362386"><ele>222.33333333333331</ele><time>2026-04-25T07:54:47.999Z</time></trkpt><trkpt lat="45.61076921225418" lon="8.936480742357508"><ele>222.16666666666666</ele><time>2026-04-25T07:54:48.999Z</time></trkpt><trkpt lat="45.61077944694439" lon="8.936579850869935"><ele>222.0</ele><time>2026-04-25T07:54:49.999Z</time></trkpt><trkpt lat="45.61078905695065" lon="8.936676473817219"><ele>221.8</ele><time>2026-04-25T07:54:50.999Z</time></trkpt><trkpt lat="45.61080166365842" lon="8.936789994048695"><ele>221.6</ele><time>2026-04-25T07:54:51.999Z</time></trkpt><trkpt lat="45.61081532810516" lon="8.936919079971426"><ele>221.40000000000003</ele><time>2026-04-25T07:54:52.999Z</time></trkpt><trkpt lat="45.6108296619395" lon="8.937054966788875"><ele>221.20000000000002</ele><time>2026-04-25T07:54:53.999Z</time></trkpt><trkpt lat="45.610840928494724" lon="8.937192090726304"><ele>221.0</ele><time>2026-04-25T07:54:54.999Z</time></trkpt><trkpt lat="45.61084654402731" lon="8.937316515838122"><ele>221.0</ele><time>2026-04-25T07:54:55.999Z</time></trkpt><trkpt lat="45.61084796915642" lon="8.93741643093437"><ele>221.00000000000003</ele><time>2026-04-25T07:54:56.999Z</time></trkpt><trkpt lat="45.61084310211579" lon="8.9375524115206"><ele>221.00000000000003</ele><time>2026-04-25T07:54:58.999Z</time></trkpt><trkpt lat="45.610834943202576" lon="8.937756789405087"><ele>221.0</ele><time>2026-04-25T07:55:00.999Z</time></trkpt><trkpt lat="45.61084736258439" lon="8.937875587590492"><ele>221.0</ele><time>2026-04-25T07:55:01.999Z</time></trkpt><trkpt lat="45.61087688135499" lon="8.937966728027238"><ele>221.0</ele><time>2026-04-25T07:55:02.999Z</time></trkpt><trkpt lat="45.6109150732433" lon="8.938072514759622"><ele>221.00000000000003</ele><time>2026-04-25T07:55:03.999Z</time></trkpt><trkpt lat="45.610950656602895" lon="8.93818733878921"><ele>221.00000000000003</ele><time>2026-04-25T07:55:04.999Z</time></trkpt><trkpt lat="45.61098043588368" lon="8.938320331488338"><ele>221.0</ele><time>2026-04-25T07:55:05.999Z</time></trkpt><trkpt lat="45.6110030025849" lon="8.938471262512488"><ele>221.0</ele><time>2026-04-25T07:55:06.999Z</time></trkpt><trkpt lat="45.61102404641813" lon="8.938645348965172"><ele>221.0</ele><time>2026-04-25T07:55:07.999Z</time></trkpt><trkpt lat="45.61104358815076" lon="8.938820444644378"><ele>221.00000000000003</ele><time>2026-04-25T07:55:08.999Z</time></trkpt><trkpt lat="45.611058971045" lon="8.938977135362958"><ele>221.00000000000003</ele><time>2026-04-25T07:55:09.999Z</time></trkpt><trkpt lat="45.61107420610598" lon="8.939122799737126"><ele>221.0</ele><time>2026-04-25T07:55:10.999Z</time></trkpt><trkpt lat="45.61109194865406" lon="8.93925853453344"><ele>221.0</ele><time>2026-04-25T07:55:11.999Z</time></trkpt><trkpt lat="45.611101875633025" lon="8.939372487843121"><ele>221.0</ele><time>2026-04-25T07:55:12.999Z</time></trkpt><trkpt lat="45.61110421694852" lon="8.939480407887617"><ele>221.00000000000003</ele><time>2026-04-25T07:55:13.999Z</time></trkpt><trkpt lat="45.61109082698233" lon="8.939568368398847"><ele>221.00000000000003</ele><time>2026-04-25T07:55:14.999Z</time></trkpt><trkpt lat="45.611023519897905" lon="8.939707022609545"><ele>221.0</ele><time>2026-04-25T07:55:16.999Z</time></trkpt><trkpt lat="45.61095724452258" lon="8.939829112732616"><ele>221.0</ele><time>2026-04-25T07:55:18.999Z</time></trkpt><trkpt lat="45.610954281299655" lon="8.939965286756484"><ele>221.5</ele><time>2026-04-25T07:55:20.999Z</time></trkpt><trkpt lat="45.610920312217786" lon="8.940079505128665"><ele>222.0</ele><time>2026-04-25T07:55:23.999Z</time></trkpt><trkpt lat="45.61154990284644" lon="8.937665349940202"><ele>222.0</ele><time>2026-04-25T08:01:56.999Z</time></trkpt><trkpt lat="45.61165126744234" lon="8.937630256593184"><ele>222.0</ele><time>2026-04-25T08:01:57.999Z</time></trkpt><trkpt lat="45.61175135477855" lon="8.937621363751669"><ele>222.0</ele><time>2026-04-25T08:01:58.999Z</time></trkpt><trkpt lat="45.61186435060178" lon="8.937593000433605"><ele>222.0</ele><time>2026-04-25T08:01:59.999Z</time></trkpt><trkpt lat="45.611987582763746" lon="8.937568024384396"><ele>222.0</ele><time>2026-04-25T08:02:00.999Z</time></trkpt><trkpt lat="45.61211263214094" lon="8.937538169023592"><ele>222.0</ele><time>2026-04-25T08:02:01.999Z</time></trkpt><trkpt lat="45.61226102209753" lon="8.937496584844675"><ele>222.0</ele><time>2026-04-25T08:02:02.999Z</time></trkpt><trkpt lat="45.61243562014814" lon="8.937447917601023"><ele>222.0</ele><time>2026-04-25T08:02:03.999Z</time></trkpt><trkpt lat="45.61264599923557" lon="8.937386494076929"><ele>222.5</ele><time>2026-04-25T08:02:04.999Z</time></trkpt><trkpt lat="45.61288154024975" lon="8.937309090630885"><ele>223.0</ele><time>2026-04-25T08:02:05.999Z</time></trkpt><trkpt lat="45.61312093739958" lon="8.937227912427925"><ele>223.0</ele><time>2026-04-25T08:02:06.999Z</time></trkpt><trkpt lat="45.61333957021026" lon="8.937166591020393"><ele>223.0</ele><time>2026-04-25T08:02:07.999Z</time></trkpt><trkpt lat="45.613527753966366" lon="8.93710656692798"><ele>223.0</ele><time>2026-04-25T08:02:08.999Z</time></trkpt><trkpt lat="45.613696914884116" lon="8.937045984352498"><ele>224.66666666666666</ele><time>2026-04-25T08:02:09.999Z</time></trkpt><trkpt lat="45.61384743394621" lon="8.936993363239594"><ele>226.33333333333331</ele><time>2026-04-25T08:02:10.999Z</time></trkpt><trkpt lat="45.613989176958626" lon="8.936935146008516"><ele>228.0</ele><time>2026-04-25T08:02:11.999Z</time></trkpt><trkpt lat="45.614142540201684" lon="8.936836320140518"><ele>227.33333333333331</ele><time>2026-04-25T08:02:12.999Z</time></trkpt><trkpt lat="45.61429258647036" lon="8.93668327637405"><ele>226.66666666666666</ele><time>2026-04-25T08:02:13.999Z</time></trkpt><trkpt lat="45.61445428686101" lon="8.936538213529724"><ele>226.0</ele><time>2026-04-25T08:02:14.999Z</time></trkpt><trkpt lat="45.614619438002265" lon="8.936396199511975"><ele>225.66666666666666</ele><time>2026-04-25T08:02:15.999Z</time></trkpt><trkpt lat="45.614784195799565" lon="8.93625789625023"><ele>225.33333333333331</ele><time>2026-04-25T08:02:16.999Z</time></trkpt><trkpt lat="45.614934301000694" lon="8.936129297158597"><ele>225.0</ele><time>2026-04-25T08:02:17.999Z</time></trkpt><trkpt lat="45.615065849441805" lon="8.936017723942626"><ele>225.0</ele><time>2026-04-25T08:02:18.999Z</time></trkpt><trkpt lat="45.61516904675209" lon="8.935926360549534"><ele>225.0</ele><time>2026-04-25T08:02:20Z</time></trkpt><trkpt lat="45.61524649303249" lon="8.935862730067187"><ele>225.0</ele><time>2026-04-25T08:02:21Z</time></trkpt><trkpt lat="45.615307673217615" lon="8.935832461323173"><ele>225.0</ele><time>2026-04-25T08:02:22Z</time></trkpt><trkpt lat="45.61537409473922" lon="8.93581152426421"><ele>225.0</ele><time>2026-04-25T08:02:23Z</time></trkpt><trkpt lat="45.61545677716521" lon="8.935756313032334"><ele>225.0</ele><time>2026-04-25T08:02:24Z</time></trkpt><trkpt lat="45.61552210419771" lon="8.935631127759304"><ele>224.33333333333331</ele><time>2026-04-25T08:02:25Z</time></trkpt><trkpt lat="45.61559558465488" lon="8.935459798450763"><ele>223.66666666666666</ele><time>2026-04-25T08:02:26Z</time></trkpt><trkpt lat="45.6157087569875" lon="8.935287827949258"><ele>223.0</ele><time>2026-04-25T08:02:27Z</time></trkpt><trkpt lat="45.61585309789428" lon="8.93509755181737"><ele>223.33333333333331</ele><time>2026-04-25T08:02:28Z</time></trkpt><trkpt lat="45.61600937790732" lon="8.934881733971643"><ele>223.66666666666669</ele><time>2026-04-25T08:02:29Z</time></trkpt><trkpt lat="45.616159484270526" lon="8.93467210371768"><ele>224.0</ele><time>2026-04-25T08:02:30Z</time></trkpt><trkpt lat="45.61630841859531" lon="8.934464173507262"><ele>224.33333333333334</ele><time>2026-04-25T08:02:31Z</time></trkpt><trkpt lat="45.616448284876064" lon="8.934272849095981"><ele>224.66666666666669</ele><time>2026-04-25T08:02:32Z</time></trkpt><trkpt lat="45.6165600315943" lon="8.934118765888783"><ele>225.0</ele><time>2026-04-25T08:02:33Z</time></trkpt><trkpt lat="45.616637161362235" lon="8.93401774951107"><ele>225.0</ele><time>2026-04-25T08:02:34Z</time></trkpt><trkpt lat="45.61670437214462" lon="8.933960475670556"><ele>225.0</ele><time>2026-04-25T08:02:35Z</time></trkpt><trkpt lat="45.616788702898866" lon="8.933938480358531"><ele>225.0</ele><time>2026-04-25T08:02:36Z</time></trkpt><trkpt lat="45.61688912421829" lon="8.933955058459986"><ele>225.0</ele><time>2026-04-25T08:02:37Z</time></trkpt><trkpt lat="45.61698590177759" lon="8.933950454719126"><ele>225.0</ele><time>2026-04-25T08:02:38Z</time></trkpt><trkpt lat="45.617059675174566" lon="8.933863977654562"><ele>225.75</ele><time>2026-04-25T08:02:39Z</time></trkpt><trkpt lat="45.61710180000002" lon="8.933711947176656"><ele>226.5</ele><time>2026-04-25T08:02:40Z</time></trkpt><trkpt lat="45.617144405047526" lon="8.933519678611125"><ele>227.25</ele><time>2026-04-25T08:02:41Z</time></trkpt><trkpt lat="45.617243234408754" lon="8.93333330241876"><ele>228.0</ele><time>2026-04-25T08:02:42Z</time></trkpt><trkpt lat="45.617413741199464" lon="8.933167267517042"><ele>230.0</ele><time>2026-04-25T08:02:43Z</time></trkpt><trkpt lat="45.61759651711621" lon="8.932946196988729"><ele>232.0</ele><time>2026-04-25T08:02:44Z</time></trkpt><trkpt lat="45.617806160977075" lon="8.932724214787005"><ele>234.66666666666666</ele><time>2026-04-25T08:02:45Z</time></trkpt><trkpt lat="45.617997753621964" lon="8.9325166188346"><ele>237.33333333333331</ele><time>2026-04-25T08:02:46Z</time></trkpt><trkpt lat="45.61815201199602" lon="8.93231724048621"><ele>240.0</ele><time>2026-04-25T08:02:47Z</time></trkpt><trkpt lat="45.61829163237305" lon="8.932097601462942"><ele>240.0</ele><time>2026-04-25T08:02:48Z</time></trkpt><trkpt lat="45.618421227676535" lon="8.931847625229953"><ele>240.0</ele><time>2026-04-25T08:02:49Z</time></trkpt><trkpt lat="45.618541752672705" lon="8.931585399722598"><ele>240.0</ele><time>2026-04-25T08:02:50Z</time></trkpt><trkpt lat="45.61864602620935" lon="8.93130637003362"><ele>237.5</ele><time>2026-04-25T08:02:51Z</time></trkpt><trkpt lat="45.61873711972439" lon="8.931003449412998"><ele>235.0</ele><time>2026-04-25T08:02:52Z</time></trkpt><trkpt lat="45.61883105394207" lon="8.930665884880037"><ele>234.5</ele><time>2026-04-25T08:02:53Z</time></trkpt><trkpt lat="45.61892796020985" lon="8.930313914314405"><ele>234.0</ele><time>2026-04-25T08:02:54Z</time></trkpt><trkpt lat="45.61901899891541" lon="8.92998976353157"><ele>234.0</ele><time>2026-04-25T08:02:55Z</time></trkpt><trkpt lat="45.61910552371145" lon="8.929705087076174"><ele>234.0</ele><time>2026-04-25T08:02:56Z</time></trkpt><trkpt lat="45.61920021148511" lon="8.929444102417651"><ele>234.0</ele><time>2026-04-25T08:02:57Z</time></trkpt><trkpt lat="45.6193082087562" lon="8.929219097133121"><ele>234.66666666666669</ele><time>2026-04-25T08:02:58Z</time></trkpt><trkpt lat="45.61944150630548" lon="8.92903413245387"><ele>235.33333333333334</ele><time>2026-04-25T08:02:59Z</time></trkpt><trkpt lat="45.619575964820484" lon="8.928849295866893"><ele>236.0</ele><time>2026-04-25T08:03:00Z</time></trkpt><trkpt lat="45.619764274203916" lon="8.928639039382476"><ele>235.0</ele><time>2026-04-25T08:03:01Z</time></trkpt><trkpt lat="45.619932664413255" lon="8.928497323203041"><ele>234.0</ele><time>2026-04-25T08:03:02Z</time></trkpt><trkpt lat="45.620163273573475" lon="8.928332869080252"><ele>233.66666666666669</ele><time>2026-04-25T08:03:03Z</time></trkpt><trkpt lat="45.62038551876056" lon="8.928198160273087"><ele>233.33333333333334</ele><time>2026-04-25T08:03:04Z</time></trkpt><trkpt lat="45.620577098979254" lon="8.928084198946062"><ele>233.0</ele><time>2026-04-25T08:03:05Z</time></trkpt><trkpt lat="45.62076932767273" lon="8.927977582948028"><ele>233.0</ele><time>2026-04-25T08:03:06Z</time></trkpt><trkpt lat="45.62093004802296" lon="8.927864766584634"><ele>233.0</ele><time>2026-04-25T08:03:07Z</time></trkpt><trkpt lat="45.621103114390195" lon="8.927792953453565"><ele>233.0</ele><time>2026-04-25T08:03:08Z</time></trkpt><trkpt lat="45.62124922035147" lon="8.927650878722954"><ele>232.66666666666669</ele><time>2026-04-25T08:03:09Z</time></trkpt><trkpt lat="45.62141123606743" lon="8.927523608583822"><ele>232.33333333333331</ele><time>2026-04-25T08:03:10Z</time></trkpt><trkpt lat="45.621487219690714" lon="8.927292155608962"><ele>232.0</ele><time>2026-04-25T08:03:11Z</time></trkpt><trkpt lat="45.62159000409071" lon="8.927119807636497"><ele>232.0</ele><time>2026-04-25T08:03:12Z</time></trkpt><trkpt lat="45.62165140899018" lon="8.926942847024277"><ele>232.0</ele><time>2026-04-25T08:03:13Z</time></trkpt><trkpt lat="45.621709154193056" lon="8.926790478028458"><ele>232.0</ele><time>2026-04-25T08:03:14Z</time></trkpt><trkpt lat="45.62177486431768" lon="8.92660010427416"><ele>232.0</ele><time>2026-04-25T08:03:15Z</time></trkpt><trkpt lat="45.621811979891845" lon="8.926383330626079"><ele>231.0</ele><time>2026-04-25T08:03:16Z</time></trkpt><trkpt lat="45.621838604550256" lon="8.92616959984278"><ele>230.0</ele><time>2026-04-25T08:03:17Z</time></trkpt><trkpt lat="45.62187469142396" lon="8.925947494259622"><ele>229.0</ele><time>2026-04-25T08:03:18Z</time></trkpt><trkpt lat="45.62186447393431" lon="8.925716539938715"><ele>230.25</ele><time>2026-04-25T08:03:19Z</time></trkpt><trkpt lat="45.62185251954102" lon="8.925499055610157"><ele>231.5</ele><time>2026-04-25T08:03:20Z</time></trkpt><trkpt lat="45.6218139683305" lon="8.925287868102755"><ele>232.75</ele><time>2026-04-25T08:03:21Z</time></trkpt><trkpt lat="45.62177633806249" lon="8.92509295006502"><ele>234.0</ele><time>2026-04-25T08:03:22Z</time></trkpt><trkpt lat="45.62172226445944" lon="8.924908579386349"><ele>234.0</ele><time>2026-04-25T08:03:23Z</time></trkpt><trkpt lat="45.621656820737705" lon="8.924733864169989"><ele>234.0</ele><time>2026-04-25T08:03:24Z</time></trkpt><trkpt lat="45.62158148412876" lon="8.92457684800966"><ele>234.0</ele><time>2026-04-25T08:03:24.999Z</time></trkpt><trkpt lat="45.62151174961025" lon="8.924424896242748"><ele>234.0</ele><time>2026-04-25T08:03:25.999Z</time></trkpt><trkpt lat="45.62145581299052" lon="8.92431405682299"><ele>233.2</ele><time>2026-04-25T08:03:26.999Z</time></trkpt><trkpt lat="45.621417201891276" lon="8.924215484360587"><ele>232.39999999999998</ele><time>2026-04-25T08:03:27.999Z</time></trkpt><trkpt lat="45.62135612509866" lon="8.924114502202201"><ele>231.6</ele><time>2026-04-25T08:03:28.999Z</time></trkpt><trkpt lat="45.621306860025435" lon="8.923994791345923"><ele>230.8</ele><time>2026-04-25T08:03:29.999Z</time></trkpt><trkpt lat="45.621263626343435" lon="8.923836665948846"><ele>230.0</ele><time>2026-04-25T08:03:30.999Z</time></trkpt><trkpt lat="45.62116571128702" lon="8.923716249496799"><ele>230.25</ele><time>2026-04-25T08:03:31.999Z</time></trkpt><trkpt lat="45.621051358658384" lon="8.92361259013241"><ele>230.5</ele><time>2026-04-25T08:03:32.999Z</time></trkpt><trkpt lat="45.62094914573015" lon="8.923495086342356"><ele>230.75</ele><time>2026-04-25T08:03:33.999Z</time></trkpt><trkpt lat="45.62086803028512" lon="8.923348701625958"><ele>231.0</ele><time>2026-04-25T08:03:34.999Z</time></trkpt><trkpt lat="45.6208086241218" lon="8.923194066217125"><ele>231.0</ele><time>2026-04-25T08:03:35.999Z</time></trkpt><trkpt lat="45.62075792697797" lon="8.92304523091234"><ele>231.0</ele><time>2026-04-25T08:03:36.999Z</time></trkpt><trkpt lat="45.62070972900919" lon="8.922887998872188"><ele>231.0</ele><time>2026-04-25T08:03:37.999Z</time></trkpt><trkpt lat="45.62066342523009" lon="8.922723126422454"><ele>231.0</ele><time>2026-04-25T08:03:38.999Z</time></trkpt><trkpt lat="45.62062211130709" lon="8.922544343522658"><ele>231.66666666666669</ele><time>2026-04-25T08:03:39.999Z</time></trkpt><trkpt lat="45.62059843614081" lon="8.922320653059035"><ele>232.33333333333334</ele><time>2026-04-25T08:03:40.999Z</time></trkpt><trkpt lat="45.62056599706554" lon="8.92206865219196"><ele>233.0</ele><time>2026-04-25T08:03:41.999Z</time></trkpt><trkpt lat="45.62054386535298" lon="8.921812234648486"><ele>233.0</ele><time>2026-04-25T08:03:42.999Z</time></trkpt><trkpt lat="45.620508656473696" lon="8.921550488583621"><ele>233.0</ele><time>2026-04-25T08:03:43.999Z</time></trkpt><trkpt lat="45.620499287079355" lon="8.921255049545726"><ele>233.0</ele><time>2026-04-25T08:03:44.999Z</time></trkpt><trkpt lat="45.62047344264015" lon="8.920928619267197"><ele>232.0</ele><time>2026-04-25T08:03:45.999Z</time></trkpt><trkpt lat="45.62044607375148" lon="8.920583246602163"><ele>231.0</ele><time>2026-04-25T08:03:46.999Z</time></trkpt><trkpt lat="45.620419115046175" lon="8.920243082705438"><ele>231.33333333333331</ele><time>2026-04-25T08:03:47.999Z</time></trkpt><trkpt lat="45.620394843503774" lon="8.919936825181315"><ele>231.66666666666666</ele><time>2026-04-25T08:03:48.999Z</time></trkpt><trkpt lat="45.620361653971834" lon="8.919633783952706"><ele>232.0</ele><time>2026-04-25T08:03:49.999Z</time></trkpt><trkpt lat="45.62033890748135" lon="8.919320330101238"><ele>232.33333333333331</ele><time>2026-04-25T08:03:50.999Z</time></trkpt><trkpt lat="45.62031211168155" lon="8.919027712584892"><ele>232.66666666666669</ele><time>2026-04-25T08:03:51.999Z</time></trkpt><trkpt lat="45.620284781404756" lon="8.918760579786566"><ele>233.0</ele><time>2026-04-25T08:03:52.999Z</time></trkpt><trkpt lat="45.620265574525014" lon="8.91849035263382"><ele>233.0</ele><time>2026-04-25T08:03:53.999Z</time></trkpt><trkpt lat="45.62024557160788" lon="8.918205797042404"><ele>233.0</ele><time>2026-04-25T08:03:54.999Z</time></trkpt><trkpt lat="45.62022277774304" lon="8.917911273149805"><ele>233.0</ele><time>2026-04-25T08:03:55.999Z</time></trkpt><trkpt lat="45.62019538088261" lon="8.917631406918304"><ele>232.0</ele><time>2026-04-25T08:03:56.999Z</time></trkpt><trkpt lat="45.62017491587859" lon="8.917352213758159"><ele>231.0</ele><time>2026-04-25T08:03:57.999Z</time></trkpt><trkpt lat="45.62015320979556" lon="8.917066087265832"><ele>230.0</ele><time>2026-04-25T08:03:58.999Z</time></trkpt><trkpt lat="45.62012939244188" lon="8.91679869801914"><ele>229.0</ele><time>2026-04-25T08:03:59.999Z</time></trkpt><trkpt lat="45.620105384371705" lon="8.916531620885856"><ele>228.0</ele><time>2026-04-25T08:04:00.999Z</time></trkpt><trkpt lat="45.620083679380805" lon="8.916243678226957"><ele>227.0</ele><time>2026-04-25T08:04:01.999Z</time></trkpt><trkpt lat="45.620059272012114" lon="8.915961742596398"><ele>225.33333333333334</ele><time>2026-04-25T08:04:02.999Z</time></trkpt><trkpt lat="45.62003715339473" lon="8.915701345900702"><ele>223.66666666666669</ele><time>2026-04-25T08:04:03.999Z</time></trkpt><trkpt lat="45.62003041306257" lon="8.915428110970602"><ele>222.0</ele><time>2026-04-25T08:04:04.999Z</time></trkpt><trkpt lat="45.620004902426814" lon="8.915119541564975"><ele>222.0</ele><time>2026-04-25T08:04:05.999Z</time></trkpt><trkpt lat="45.619978157181315" lon="8.914799655479863"><ele>222.0</ele><time>2026-04-25T08:04:06.999Z</time></trkpt><trkpt lat="45.61995204637854" lon="8.91448470890227"><ele>222.0</ele><time>2026-04-25T08:04:07.999Z</time></trkpt><trkpt lat="45.619933023348324" lon="8.914189147995414"><ele>222.33333333333331</ele><time>2026-04-25T08:04:08.999Z</time></trkpt><trkpt lat="45.61992850285671" lon="8.913915981260445"><ele>222.66666666666666</ele><time>2026-04-25T08:04:09.999Z</time></trkpt><trkpt lat="45.61994311403643" lon="8.913615196740112"><ele>223.0</ele><time>2026-04-25T08:04:10.999Z</time></trkpt><trkpt lat="45.61998284663843" lon="8.913291788896888"><ele>222.66666666666666</ele><time>2026-04-25T08:04:11.999Z</time></trkpt><trkpt lat="45.62003126650561" lon="8.912964751583111"><ele>222.33333333333331</ele><time>2026-04-25T08:04:12.999Z</time></trkpt><trkpt lat="45.62011851154026" lon="8.912705314348072"><ele>222.0</ele><time>2026-04-25T08:04:13.999Z</time></trkpt><trkpt lat="45.62019580724103" lon="8.912450514463758"><ele>222.0</ele><time>2026-04-25T08:04:14.999Z</time></trkpt><trkpt lat="45.62030318562531" lon="8.912194472550441"><ele>222.0</ele><time>2026-04-25T08:04:15.999Z</time></trkpt><trkpt lat="45.620413493184415" lon="8.9119818441744"><ele>222.0</ele><time>2026-04-25T08:04:16.999Z</time></trkpt><trkpt lat="45.62052615707454" lon="8.911798284987732"><ele>222.0</ele><time>2026-04-25T08:04:17.999Z</time></trkpt><trkpt lat="45.6206318159082" lon="8.911633276778351"><ele>222.0</ele><time>2026-04-25T08:04:18.999Z</time></trkpt><trkpt lat="45.62072760380558" lon="8.91148171223491"><ele>222.0</ele><time>2026-04-25T08:04:19.999Z</time></trkpt><trkpt lat="45.620810417148874" lon="8.911350134425819"><ele>222.0</ele><time>2026-04-25T08:04:20.999Z</time></trkpt><trkpt lat="45.620879620404125" lon="8.911234829992296"><ele>222.0</ele><time>2026-04-25T08:04:21.999Z</time></trkpt><trkpt lat="45.62094495551991" lon="8.911136459875978"><ele>222.0</ele><time>2026-04-25T08:04:22.999Z</time></trkpt><trkpt lat="45.62101244489716" lon="8.911054695202175"><ele>222.0</ele><time>2026-04-25T08:04:23.999Z</time></trkpt><trkpt lat="45.62108239044373" lon="8.911001374143904"><ele>222.0</ele><time>2026-04-25T08:04:24.999Z</time></trkpt><trkpt lat="45.62114962306806" lon="8.910973265128904"><ele>222.0</ele><time>2026-04-25T08:04:26Z</time></trkpt><trkpt lat="45.62121504633149" lon="8.910948929673445"><ele>222.0</ele><time>2026-04-25T08:04:27Z</time></trkpt><trkpt lat="45.621279231163236" lon="8.910926224676647"><ele>222.39999999999998</ele><time>2026-04-25T08:04:28Z</time></trkpt><trkpt lat="45.621350031190694" lon="8.910909142570688"><ele>222.79999999999998</ele><time>2026-04-25T08:04:29Z</time></trkpt><trkpt lat="45.62142735133465" lon="8.910921788381156"><ele>223.2</ele><time>2026-04-25T08:04:30Z</time></trkpt><trkpt lat="45.62150727147044" lon="8.910975785507727"><ele>223.6</ele><time>2026-04-25T08:04:31Z</time></trkpt><trkpt lat="45.62158548984823" lon="8.911074401065703"><ele>224.0</ele><time>2026-04-25T08:04:32Z</time></trkpt><trkpt lat="45.621666836394354" lon="8.911197975833486"><ele>224.0</ele><time>2026-04-25T08:04:33Z</time></trkpt><trkpt lat="45.62175905213172" lon="8.911331580921532"><ele>224.0</ele><time>2026-04-25T08:04:34Z</time></trkpt><trkpt lat="45.62185825109885" lon="8.911470243277225"><ele>224.0</ele><time>2026-04-25T08:04:35Z</time></trkpt><trkpt lat="45.621955401037475" lon="8.911610159000523"><ele>224.0</ele><time>2026-04-25T08:04:36Z</time></trkpt><trkpt lat="45.6220481400319" lon="8.911739734399076"><ele>223.75</ele><time>2026-04-25T08:04:37Z</time></trkpt><trkpt lat="45.62213503175967" lon="8.91186408150362"><ele>223.5</ele><time>2026-04-25T08:04:38Z</time></trkpt><trkpt lat="45.6222240802494" lon="8.911986099013433"><ele>223.25</ele><time>2026-04-25T08:04:39Z</time></trkpt><trkpt lat="45.622319531523964" lon="8.912117538436915"><ele>223.0</ele><time>2026-04-25T08:04:40Z</time></trkpt><trkpt lat="45.62241730422106" lon="8.912254212740859"><ele>223.0</ele><time>2026-04-25T08:04:41Z</time></trkpt><trkpt lat="45.62251876385436" lon="8.912389887311516"><ele>223.0</ele><time>2026-04-25T08:04:42Z</time></trkpt><trkpt lat="45.62261477452939" lon="8.91252584183159"><ele>223.0</ele><time>2026-04-25T08:04:43Z</time></trkpt><trkpt lat="45.62269870877289" lon="8.912643557019882"><ele>223.0</ele><time>2026-04-25T08:04:44Z</time></trkpt><trkpt lat="45.62277928668107" lon="8.912783912427981"><ele>223.66666666666666</ele><time>2026-04-25T08:04:45Z</time></trkpt><trkpt lat="45.622890773511166" lon="8.912938576847996"><ele>224.33333333333331</ele><time>2026-04-25T08:04:46Z</time></trkpt><trkpt lat="45.62301894853418" lon="8.91311652119592"><ele>225.0</ele><time>2026-04-25T08:04:47Z</time></trkpt><trkpt lat="45.62313779493139" lon="8.9132815142338"><ele>225.0</ele><time>2026-04-25T08:04:48Z</time></trkpt><trkpt lat="45.62325154190644" lon="8.91341758312765"><ele>225.0</ele><time>2026-04-25T08:04:49Z</time></trkpt><trkpt lat="45.62335239811046" lon="8.913563405467087"><ele>225.0</ele><time>2026-04-25T08:04:50Z</time></trkpt><trkpt lat="45.6234563375755" lon="8.913706324542337"><ele>225.0</ele><time>2026-04-25T08:04:51Z</time></trkpt><trkpt lat="45.62354827633903" lon="8.913836698701457"><ele>225.0</ele><time>2026-04-25T08:04:52Z</time></trkpt><trkpt lat="45.6236337424495" lon="8.91396508489377"><ele>225.0</ele><time>2026-04-25T08:04:53Z</time></trkpt><trkpt lat="45.6237199682619" lon="8.91407047177702"><ele>225.0</ele><time>2026-04-25T08:04:54Z</time></trkpt><trkpt lat="45.62382335778011" lon="8.914176464456775"><ele>225.0</ele><time>2026-04-25T08:04:55Z</time></trkpt><trkpt lat="45.62394026428497" lon="8.914254303300469"><ele>225.8</ele><time>2026-04-25T08:04:56Z</time></trkpt><trkpt lat="45.624057196331755" lon="8.914305683564393"><ele>226.6</ele><time>2026-04-25T08:04:57Z</time></trkpt><trkpt lat="45.62416088894462" lon="8.914334486255786"><ele>227.39999999999998</ele><time>2026-04-25T08:04:58Z</time></trkpt><trkpt lat="45.624262027920075" lon="8.914343349524637"><ele>228.2</ele><time>2026-04-25T08:04:59Z</time></trkpt><trkpt lat="45.62437028385942" lon="8.91434083984724"><ele>229.0</ele><time>2026-04-25T08:05:00Z</time></trkpt><trkpt lat="45.6244841528011" lon="8.914329193563546"><ele>229.0</ele><time>2026-04-25T08:05:01Z</time></trkpt><trkpt lat="45.62460119762959" lon="8.914308464904352"><ele>229.0</ele><time>2026-04-25T08:05:02Z</time></trkpt><trkpt lat="45.624717825979005" lon="8.91427859110349"><ele>229.0</ele><time>2026-04-25T08:05:03Z</time></trkpt><trkpt lat="45.62483372389419" lon="8.914245708187192"><ele>229.0</ele><time>2026-04-25T08:05:04Z</time></trkpt><trkpt lat="45.624945005130115" lon="8.914207327602874"><ele>228.6</ele><time>2026-04-25T08:05:05Z</time></trkpt><trkpt lat="45.62504148385816" lon="8.914173928806855"><ele>228.2</ele><time>2026-04-25T08:05:06Z</time></trkpt><trkpt lat="45.62512840478563" lon="8.91414887814506"><ele>227.79999999999998</ele><time>2026-04-25T08:05:07Z</time></trkpt><trkpt lat="45.62521469174303" lon="8.914122615723945"><ele>227.39999999999998</ele><time>2026-04-25T08:05:08Z</time></trkpt><trkpt lat="45.625303506157884" lon="8.914094070167492"><ele>227.0</ele><time>2026-04-25T08:05:09Z</time></trkpt><trkpt lat="45.6253941192204" lon="8.91406482733656"><ele>227.0</ele><time>2026-04-25T08:05:10Z</time></trkpt><trkpt lat="45.625495536767424" lon="8.91402549383368"><ele>227.0</ele><time>2026-04-25T08:05:11Z</time></trkpt><trkpt lat="45.625598305694275" lon="8.91397624039991"><ele>227.0</ele><time>2026-04-25T08:05:12Z</time></trkpt><trkpt lat="45.62571241520113" lon="8.913904871227336"><ele>227.0</ele><time>2026-04-25T08:05:13Z</time></trkpt><trkpt lat="45.62583726766146" lon="8.913808341822676"><ele>227.0</ele><time>2026-04-25T08:05:14Z</time></trkpt><trkpt lat="45.625981018363376" lon="8.913697214814933"><ele>227.0</ele><time>2026-04-25T08:05:15Z</time></trkpt><trkpt lat="45.62616031271931" lon="8.913599497361796"><ele>227.0</ele><time>2026-04-25T08:05:16Z</time></trkpt><trkpt lat="45.626338308574596" lon="8.91347351943634"><ele>227.33333333333334</ele><time>2026-04-25T08:05:17Z</time></trkpt><trkpt lat="45.626497428430085" lon="8.913338325488517"><ele>227.66666666666669</ele><time>2026-04-25T08:05:18Z</time></trkpt><trkpt lat="45.626637753348724" lon="8.91324305537111"><ele>228.0</ele><time>2026-04-25T08:05:19Z</time></trkpt><trkpt lat="45.6267783765444" lon="8.913143697884198"><ele>228.0</ele><time>2026-04-25T08:05:20Z</time></trkpt><trkpt lat="45.62694364025534" lon="8.913018862653331"><ele>228.0</ele><time>2026-04-25T08:05:20.999Z</time></trkpt><trkpt lat="45.62714164582765" lon="8.912889709946375"><ele>228.0</ele><time>2026-04-25T08:05:21.999Z</time></trkpt><trkpt lat="45.62732838270721" lon="8.912748613178703"><ele>228.5</ele><time>2026-04-25T08:05:22.999Z</time></trkpt><trkpt lat="45.62752981500109" lon="8.912601856223862"><ele>229.0</ele><time>2026-04-25T08:05:23.999Z</time></trkpt><trkpt lat="45.62774354710213" lon="8.912454436963648"><ele>230.66666666666666</ele><time>2026-04-25T08:05:24.999Z</time></trkpt><trkpt lat="45.627937959900464" lon="8.912316167095883"><ele>232.33333333333331</ele><time>2026-04-25T08:05:25.999Z</time></trkpt><trkpt lat="45.628108070200454" lon="8.912223279358175"><ele>234.0</ele><time>2026-04-25T08:05:26.999Z</time></trkpt><trkpt lat="45.6282584712737" lon="8.912134174004"><ele>234.0</ele><time>2026-04-25T08:05:27.999Z</time></trkpt><trkpt lat="45.62839379124127" lon="8.912050550305182"><ele>234.0</ele><time>2026-04-25T08:05:28.999Z</time></trkpt><trkpt lat="45.62851216905313" lon="8.91198089798857"><ele>234.0</ele><time>2026-04-25T08:05:29.999Z</time></trkpt><trkpt lat="45.62861511885246" lon="8.911929613734307"><ele>234.0</ele><time>2026-04-25T08:05:30.999Z</time></trkpt><trkpt lat="45.62871863777637" lon="8.911908182366163"><ele>234.2</ele><time>2026-04-25T08:05:31.999Z</time></trkpt><trkpt lat="45.628830735243" lon="8.911923215413633"><ele>234.39999999999998</ele><time>2026-04-25T08:05:32.999Z</time></trkpt><trkpt lat="45.6289279715006" lon="8.911946024536629"><ele>234.6</ele><time>2026-04-25T08:05:33.999Z</time></trkpt><trkpt lat="45.62901721768318" lon="8.911904378125339"><ele>234.8</ele><time>2026-04-25T08:05:34.999Z</time></trkpt><trkpt lat="45.62910375675317" lon="8.911772606457001"><ele>235.0</ele><time>2026-04-25T08:05:35.999Z</time></trkpt><trkpt lat="45.629207030540385" lon="8.911588078767542"><ele>235.0</ele><time>2026-04-25T08:05:36.999Z</time></trkpt><trkpt lat="45.62938578583764" lon="8.911464701368624"><ele>235.0</ele><time>2026-04-25T08:05:37.999Z</time></trkpt><trkpt lat="45.629587661314616" lon="8.911337175935069"><ele>235.0</ele><time>2026-04-25T08:05:38.999Z</time></trkpt><trkpt lat="45.62981678533173" lon="8.91119847227223"><ele>235.0</ele><time>2026-04-25T08:05:39.999Z</time></trkpt><trkpt lat="45.63002694962345" lon="8.911055049847771"><ele>235.0</ele><time>2026-04-25T08:05:40.999Z</time></trkpt><trkpt lat="45.63022023554889" lon="8.91092337095883"><ele>235.0</ele><time>2026-04-25T08:05:41.999Z</time></trkpt><trkpt lat="45.630397810983354" lon="8.91081734509778"><ele>234.33333333333331</ele><time>2026-04-25T08:05:42.999Z</time></trkpt><trkpt lat="45.63057520427732" lon="8.910715437317041"><ele>233.66666666666669</ele><time>2026-04-25T08:05:43.999Z</time></trkpt><trkpt lat="45.630759947273056" lon="8.9106062593625"><ele>233.0</ele><time>2026-04-25T08:05:44.999Z</time></trkpt><trkpt lat="45.63094709518911" lon="8.910492558741472"><ele>233.0</ele><time>2026-04-25T08:05:45.999Z</time></trkpt><trkpt lat="45.631135225537875" lon="8.910381009395223"><ele>233.0</ele><time>2026-04-25T08:05:46.999Z</time></trkpt><trkpt lat="45.631320975018" lon="8.91026960441786"><ele>233.0</ele><time>2026-04-25T08:05:47.999Z</time></trkpt><trkpt lat="45.63148129273173" lon="8.910170125755876"><ele>234.33333333333334</ele><time>2026-04-25T08:05:48.999Z</time></trkpt><trkpt lat="45.63163689741451" lon="8.910075976601453"><ele>235.66666666666669</ele><time>2026-04-25T08:05:49.999Z</time></trkpt><trkpt lat="45.631776870316536" lon="8.909989982425165"><ele>237.0</ele><time>2026-04-25T08:05:50.999Z</time></trkpt><trkpt lat="45.63190430360529" lon="8.909915205078788"><ele>237.6</ele><time>2026-04-25T08:05:51.999Z</time></trkpt><trkpt lat="45.632022486721034" lon="8.90985028365706"><ele>238.2</ele><time>2026-04-25T08:05:52.999Z</time></trkpt><trkpt lat="45.632122752833304" lon="8.909797202331971"><ele>238.8</ele><time>2026-04-25T08:05:53.999Z</time></trkpt><trkpt lat="45.63220445882476" lon="8.909758617407771"><ele>239.4</ele><time>2026-04-25T08:05:54.999Z</time></trkpt><trkpt lat="45.63227817001592" lon="8.909725907391923"><ele>240.0</ele><time>2026-04-25T08:05:55.999Z</time></trkpt><trkpt lat="45.632344757064395" lon="8.909702627911942"><ele>240.0</ele><time>2026-04-25T08:05:56.999Z</time></trkpt><trkpt lat="45.63241317842394" lon="8.909702386627446"><ele>240.0</ele><time>2026-04-25T08:05:57.999Z</time></trkpt><trkpt lat="45.632488627609945" lon="8.909699829754327"><ele>240.0</ele><time>2026-04-25T08:05:58.999Z</time></trkpt><trkpt lat="45.632565842413186" lon="8.909648185524386"><ele>240.0</ele><time>2026-04-25T08:05:59.999Z</time></trkpt><trkpt lat="45.632643315643" lon="8.909553338529113"><ele>240.0</ele><time>2026-04-25T08:06:00.999Z</time></trkpt><trkpt lat="45.63272547060452" lon="8.90945395145876"><ele>240.0</ele><time>2026-04-25T08:06:01.999Z</time></trkpt><trkpt lat="45.63284584972332" lon="8.909356278300374"><ele>239.33333333333331</ele><time>2026-04-25T08:06:02.999Z</time></trkpt><trkpt lat="45.63300426965571" lon="8.909253954358311"><ele>238.66666666666666</ele><time>2026-04-25T08:06:03.999Z</time></trkpt><trkpt lat="45.63319560084772" lon="8.909136909875212"><ele>238.0</ele><time>2026-04-25T08:06:04.999Z</time></trkpt><trkpt lat="45.63341687572505" lon="8.909006668871935"><ele>238.0</ele><time>2026-04-25T08:06:05.999Z</time></trkpt><trkpt lat="45.63363594586616" lon="8.908871663381277"><ele>238.0</ele><time>2026-04-25T08:06:06.999Z</time></trkpt><trkpt lat="45.63386941063517" lon="8.908728955138525"><ele>238.5</ele><time>2026-04-25T08:06:07.999Z</time></trkpt><trkpt lat="45.634100041922125" lon="8.90859010010175"><ele>239.0</ele><time>2026-04-25T08:06:08.999Z</time></trkpt><trkpt lat="45.634321407528624" lon="8.908458556411055"><ele>239.5</ele><time>2026-04-25T08:06:09.999Z</time></trkpt><trkpt lat="45.63454838984559" lon="8.908322747050056"><ele>240.0</ele><time>2026-04-25T08:06:10.999Z</time></trkpt><trkpt lat="45.63477321845898" lon="8.908185815329857"><ele>240.0</ele><time>2026-04-25T08:06:11.999Z</time></trkpt><trkpt lat="45.63499657195846" lon="8.908050104271053"><ele>240.0</ele><time>2026-04-25T08:06:12.999Z</time></trkpt><trkpt lat="45.63522071992738" lon="8.907918929284758"><ele>241.0</ele><time>2026-04-25T08:06:13.999Z</time></trkpt><trkpt lat="45.63543392280474" lon="8.90779528146106"><ele>242.0</ele><time>2026-04-25T08:06:14.999Z</time></trkpt><trkpt lat="45.635628921669486" lon="8.90768215063943"><ele>243.0</ele><time>2026-04-25T08:06:15.999Z</time></trkpt><trkpt lat="45.63580967808468" lon="8.907577442498186"><ele>242.66666666666669</ele><time>2026-04-25T08:06:16.999Z</time></trkpt><trkpt lat="45.63598233855592" lon="8.90748315386585"><ele>242.33333333333334</ele><time>2026-04-25T08:06:17.999Z</time></trkpt><trkpt lat="45.63614840450262" lon="8.907400917392245"><ele>242.0</ele><time>2026-04-25T08:06:18.999Z</time></trkpt><trkpt lat="45.63632367446677" lon="8.907330214086876"><ele>243.0</ele><time>2026-04-25T08:06:19.999Z</time></trkpt><trkpt lat="45.636504520249275" lon="8.907271257380666"><ele>244.0</ele><time>2026-04-25T08:06:20.999Z</time></trkpt><trkpt lat="45.63668039012793" lon="8.907224780358218"><ele>245.0</ele><time>2026-04-25T08:06:21.999Z</time></trkpt><trkpt lat="45.636847695389996" lon="8.90718056629785"><ele>244.5</ele><time>2026-04-25T08:06:22.999Z</time></trkpt><trkpt lat="45.637009210906434" lon="8.907145157266216"><ele>244.0</ele><time>2026-04-25T08:06:23.999Z</time></trkpt><trkpt lat="45.637150274509224" lon="8.907120647509826"><ele>243.5</ele><time>2026-04-25T08:06:24.999Z</time></trkpt><trkpt lat="45.637279140560786" lon="8.907102680882309"><ele>243.0</ele><time>2026-04-25T08:06:25.999Z</time></trkpt><trkpt lat="45.637392928756526" lon="8.90708786365975"><ele>243.0</ele><time>2026-04-25T08:06:26.999Z</time></trkpt><trkpt lat="45.637494033901966" lon="8.907082860908357"><ele>243.0</ele><time>2026-04-25T08:06:27.999Z</time></trkpt><trkpt lat="45.63759738738391" lon="8.907104146899641"><ele>243.0</ele><time>2026-04-25T08:06:28.999Z</time></trkpt><trkpt lat="45.63771891768749" lon="8.907165852736796"><ele>243.0</ele><time>2026-04-25T08:06:29.999Z</time></trkpt><trkpt lat="45.63785079495789" lon="8.907239850128565"><ele>242.60000000000002</ele><time>2026-04-25T08:06:30.999Z</time></trkpt><trkpt lat="45.63797058295906" lon="8.907296386445005"><ele>242.20000000000002</ele><time>2026-04-25T08:06:32Z</time></trkpt><trkpt lat="45.63804558917774" lon="8.90744056731908"><ele>241.8</ele><time>2026-04-25T08:06:33Z</time></trkpt><trkpt lat="45.638101877197315" lon="8.907565588334286"><ele>241.4</ele><time>2026-04-25T08:06:34Z</time></trkpt><trkpt lat="45.63817142008368" lon="8.907654380038391"><ele>241.0</ele><time>2026-04-25T08:06:35Z</time></trkpt><trkpt lat="45.6382731422555" lon="8.907689448869405"><ele>241.0</ele><time>2026-04-25T08:06:36Z</time></trkpt><trkpt lat="45.638389366411985" lon="8.907653108286983"><ele>241.0</ele><time>2026-04-25T08:06:37Z</time></trkpt><trkpt lat="45.63853670005377" lon="8.907633022831764"><ele>241.0</ele><time>2026-04-25T08:06:38Z</time></trkpt><trkpt lat="45.63871654703525" lon="8.90767362495913"><ele>241.0</ele><time>2026-04-25T08:06:39Z</time></trkpt><trkpt lat="45.63892752060002" lon="8.907739402485339"><ele>241.0</ele><time>2026-04-25T08:06:40Z</time></trkpt><trkpt lat="45.63911777448302" lon="8.907824594712643"><ele>241.0</ele><time>2026-04-25T08:06:41Z</time></trkpt><trkpt lat="45.639308218539576" lon="8.90793796061214"><ele>241.0</ele><time>2026-04-25T08:06:42Z</time></trkpt><trkpt lat="45.63949171107587" lon="8.90805852711401"><ele>241.0</ele><time>2026-04-25T08:06:43Z</time></trkpt><trkpt lat="45.63967341683845" lon="8.908178773493646"><ele>241.0</ele><time>2026-04-25T08:06:44Z</time></trkpt><trkpt lat="45.63985766001687" lon="8.908289805567367"><ele>241.0</ele><time>2026-04-25T08:06:45Z</time></trkpt><trkpt lat="45.64006345053941" lon="8.908398300677327"><ele>241.0</ele><time>2026-04-25T08:06:46Z</time></trkpt><trkpt lat="45.640255963515415" lon="8.908515966711434"><ele>241.0</ele><time>2026-04-25T08:06:47Z</time></trkpt><trkpt lat="45.640439356812635" lon="8.908630618698597"><ele>241.0</ele><time>2026-04-25T08:06:48Z</time></trkpt><trkpt lat="45.64061777953218" lon="8.908747587443097"><ele>241.0</ele><time>2026-04-25T08:06:49Z</time></trkpt><trkpt lat="45.64080101517786" lon="8.908860511478627"><ele>241.0</ele><time>2026-04-25T08:06:50Z</time></trkpt><trkpt lat="45.640983501020166" lon="8.90897043085655"><ele>241.0</ele><time>2026-04-25T08:06:51Z</time></trkpt><trkpt lat="45.641162668884036" lon="8.909081936979122"><ele>242.0</ele><time>2026-04-25T08:06:52Z</time></trkpt><trkpt lat="45.641341396510484" lon="8.909191754641325"><ele>243.0</ele><time>2026-04-25T08:06:53Z</time></trkpt><trkpt lat="45.64152028959968" lon="8.909297274401482"><ele>244.0</ele><time>2026-04-25T08:06:54Z</time></trkpt><trkpt lat="45.64169672503567" lon="8.909404763761087"><ele>244.0</ele><time>2026-04-25T08:06:55Z</time></trkpt><trkpt lat="45.64188372558194" lon="8.909515725144479"><ele>244.0</ele><time>2026-04-25T08:06:56Z</time></trkpt><trkpt lat="45.642090815396365" lon="8.909643756487696"><ele>244.0</ele><time>2026-04-25T08:06:57Z</time></trkpt><trkpt lat="45.642302695545304" lon="8.909780546131786"><ele>245.0</ele><time>2026-04-25T08:06:58Z</time></trkpt><trkpt lat="45.64251934282337" lon="8.909911305223849"><ele>246.0</ele><time>2026-04-25T08:06:59Z</time></trkpt><trkpt lat="45.64274763446521" lon="8.910047643714355"><ele>244.5</ele><time>2026-04-25T08:07:00Z</time></trkpt><trkpt lat="45.64299472732063" lon="8.910195031958931"><ele>243.0</ele><time>2026-04-25T08:07:01Z</time></trkpt><trkpt lat="45.643236632605365" lon="8.910341489421597"><ele>243.0</ele><time>2026-04-25T08:07:02Z</time></trkpt><trkpt lat="45.6434689707548" lon="8.910492068241304"><ele>243.0</ele><time>2026-04-25T08:07:03Z</time></trkpt><trkpt lat="45.643682650776334" lon="8.91063903569882"><ele>244.5</ele><time>2026-04-25T08:07:04Z</time></trkpt><trkpt lat="45.64388739332179" lon="8.910778669085454"><ele>246.0</ele><time>2026-04-25T08:07:05Z</time></trkpt><trkpt lat="45.644094691462456" lon="8.91090569620021"><ele>246.0</ele><time>2026-04-25T08:07:06Z</time></trkpt><trkpt lat="45.64429624450897" lon="8.911022384119265"><ele>246.0</ele><time>2026-04-25T08:07:07Z</time></trkpt><trkpt lat="45.64449212800256" lon="8.911128568019802"><ele>246.0</ele><time>2026-04-25T08:07:08Z</time></trkpt><trkpt lat="45.644684713899395" lon="8.91121968848427"><ele>246.0</ele><time>2026-04-25T08:07:09Z</time></trkpt><trkpt lat="45.64486557909517" lon="8.91127810454244"><ele>246.0</ele><time>2026-04-25T08:07:10Z</time></trkpt><trkpt lat="45.645039259727035" lon="8.911295799720362"><ele>246.0</ele><time>2026-04-25T08:07:11Z</time></trkpt><trkpt lat="45.645202142445726" lon="8.911295204341009"><ele>246.5</ele><time>2026-04-25T08:07:12Z</time></trkpt><trkpt lat="45.64535503121486" lon="8.911289987772982"><ele>247.0</ele><time>2026-04-25T08:07:13Z</time></trkpt><trkpt lat="45.64549641978108" lon="8.911279950325738"><ele>247.5</ele><time>2026-04-25T08:07:14Z</time></trkpt><trkpt lat="45.64561511584586" lon="8.911272583346156"><ele>248.0</ele><time>2026-04-25T08:07:15Z</time></trkpt><trkpt lat="45.64572905678543" lon="8.911281302278132"><ele>248.0</ele><time>2026-04-25T08:07:15.999Z</time></trkpt><trkpt lat="45.64583399961953" lon="8.911287803617103"><ele>248.0</ele><time>2026-04-25T08:07:16.999Z</time></trkpt><trkpt lat="45.645929055658186" lon="8.911232214019936"><ele>248.0</ele><time>2026-04-25T08:07:17.999Z</time></trkpt><trkpt lat="45.64603566770065" lon="8.911114132845904"><ele>248.0</ele><time>2026-04-25T08:07:18.999Z</time></trkpt><trkpt lat="45.6461452506834" lon="8.91094604474633"><ele>247.66666666666669</ele><time>2026-04-25T08:07:19.999Z</time></trkpt><trkpt lat="45.646357656638656" lon="8.910872840059378"><ele>247.33333333333331</ele><time>2026-04-25T08:07:20.999Z</time></trkpt><trkpt lat="45.6465638262574" lon="8.910763395569349"><ele>247.0</ele><time>2026-04-25T08:07:21.999Z</time></trkpt><trkpt lat="45.64675930293731" lon="8.910645546260795"><ele>247.0</ele><time>2026-04-25T08:07:22.999Z</time></trkpt><trkpt lat="45.64694518506105" lon="8.910534467814369"><ele>247.0</ele><time>2026-04-25T08:07:23.999Z</time></trkpt><trkpt lat="45.647137401207665" lon="8.910427866015278"><ele>247.0</ele><time>2026-04-25T08:07:24.999Z</time></trkpt><trkpt lat="45.64735544728878" lon="8.910335714232735"><ele>246.66666666666666</ele><time>2026-04-25T08:07:25.999Z</time></trkpt><trkpt lat="45.6475508737593" lon="8.910230477267488"><ele>246.33333333333331</ele><time>2026-04-25T08:07:26.999Z</time></trkpt><trkpt lat="45.647729716554196" lon="8.910134170665993"><ele>246.0</ele><time>2026-04-25T08:07:27.999Z</time></trkpt><trkpt lat="45.64788355825671" lon="8.910037210927197"><ele>246.4</ele><time>2026-04-25T08:07:28.999Z</time></trkpt><trkpt lat="45.648007470812765" lon="8.909976591962202"><ele>246.8</ele><time>2026-04-25T08:07:29.999Z</time></trkpt><trkpt lat="45.64812122658764" lon="8.909907852131878"><ele>247.20000000000002</ele><time>2026-04-25T08:07:30.999Z</time></trkpt><trkpt lat="45.64821486317276" lon="8.9098753990685"><ele>247.60000000000002</ele><time>2026-04-25T08:07:31.999Z</time></trkpt><trkpt lat="45.648291473417764" lon="8.909841160246996"><ele>248.0</ele><time>2026-04-25T08:07:32.999Z</time></trkpt><trkpt lat="45.648358556166826" lon="8.909813023953165"><ele>248.0</ele><time>2026-04-25T08:07:33.999Z</time></trkpt><trkpt lat="45.64846059232347" lon="8.909799351450692"><ele>248.0</ele><time>2026-04-25T08:07:35.999Z</time></trkpt><trkpt lat="45.648556932032925" lon="8.909831605488963"><ele>248.0</ele><time>2026-04-25T08:07:37.999Z</time></trkpt><trkpt lat="45.648672370320845" lon="8.909763452222553"><ele>248.0</ele><time>2026-04-25T08:07:39.999Z</time></trkpt><trkpt lat="45.64873171836335" lon="8.90965686729172"><ele>248.0</ele><time>2026-04-25T08:07:40.999Z</time></trkpt><trkpt lat="45.6488168066203" lon="8.90955448573588"><ele>248.66666666666669</ele><time>2026-04-25T08:07:41.999Z</time></trkpt><trkpt lat="45.64894394258633" lon="8.909479829708575"><ele>249.33333333333331</ele><time>2026-04-25T08:07:42.999Z</time></trkpt><trkpt lat="45.6491068036798" lon="8.909400740460324"><ele>250.0</ele><time>2026-04-25T08:07:43.999Z</time></trkpt><trkpt lat="45.649304567585524" lon="8.909295072846243"><ele>249.0</ele><time>2026-04-25T08:07:44.999Z</time></trkpt><trkpt lat="45.64952710226501" lon="8.909171666394878"><ele>248.0</ele><time>2026-04-25T08:07:45.999Z</time></trkpt><trkpt lat="45.64974539375183" lon="8.909048448492964"><ele>248.0</ele><time>2026-04-25T08:07:46.999Z</time></trkpt><trkpt lat="45.649969993944836" lon="8.908931715633555"><ele>248.0</ele><time>2026-04-25T08:07:47.999Z</time></trkpt><trkpt lat="45.65018398657173" lon="8.908818209256411"><ele>249.0</ele><time>2026-04-25T08:07:48.999Z</time></trkpt><trkpt lat="45.650390829052405" lon="8.908700214415918"><ele>250.0</ele><time>2026-04-25T08:07:49.999Z</time></trkpt><trkpt lat="45.650589000666855" lon="8.908567435633492"><ele>251.0</ele><time>2026-04-25T08:07:50.999Z</time></trkpt><trkpt lat="45.65077781323742" lon="8.908404890670571"><ele>251.0</ele><time>2026-04-25T08:07:51.999Z</time></trkpt><trkpt lat="45.65095083289283" lon="8.908207447378526"><ele>251.0</ele><time>2026-04-25T08:07:52.999Z</time></trkpt><trkpt lat="45.651100555819134" lon="8.90797756963367"><ele>251.0</ele><time>2026-04-25T08:07:53.999Z</time></trkpt><trkpt lat="45.65123172742645" lon="8.907720191612645"><ele>252.5</ele><time>2026-04-25T08:07:54.999Z</time></trkpt><trkpt lat="45.65134249437784" lon="8.907440358862516"><ele>254.0</ele><time>2026-04-25T08:07:55.999Z</time></trkpt><trkpt lat="45.65144227844867" lon="8.907119798954668"><ele>254.0</ele><time>2026-04-25T08:07:56.999Z</time></trkpt><trkpt lat="45.65153935154378" lon="8.906769545606902"><ele>254.0</ele><time>2026-04-25T08:07:57.999Z</time></trkpt><trkpt lat="45.65164170995762" lon="8.90640179111557"><ele>253.0</ele><time>2026-04-25T08:07:58.999Z</time></trkpt><trkpt lat="45.65175110278425" lon="8.9060297674494"><ele>252.0</ele><time>2026-04-25T08:07:59.999Z</time></trkpt><trkpt lat="45.651866025360256" lon="8.905638209668409"><ele>252.0</ele><time>2026-04-25T08:08:00.999Z</time></trkpt><trkpt lat="45.6519483706192" lon="8.90522221088628"><ele>252.0</ele><time>2026-04-25T08:08:01.999Z</time></trkpt><trkpt lat="45.65206505931545" lon="8.904780508393552"><ele>251.5</ele><time>2026-04-25T08:08:02.999Z</time></trkpt><trkpt lat="45.65217991496888" lon="8.904354563260432"><ele>251.0</ele><time>2026-04-25T08:08:03.999Z</time></trkpt><trkpt lat="45.65229297219225" lon="8.903923101707909"><ele>251.0</ele><time>2026-04-25T08:08:04.999Z</time></trkpt><trkpt lat="45.65241428829888" lon="8.903479378904688"><ele>251.0</ele><time>2026-04-25T08:08:05.999Z</time></trkpt><trkpt lat="45.65252032266215" lon="8.903087948664277"><ele>251.0</ele><time>2026-04-25T08:08:06.999Z</time></trkpt><trkpt lat="45.652615772693004" lon="8.902717924246856"><ele>251.0</ele><time>2026-04-25T08:08:07.999Z</time></trkpt><trkpt lat="45.65271279460124" lon="8.902371474397917"><ele>252.0</ele><time>2026-04-25T08:08:08.999Z</time></trkpt><trkpt lat="45.65280048750247" lon="8.902049858192415"><ele>253.0</ele><time>2026-04-25T08:08:09.999Z</time></trkpt><trkpt lat="45.65288037164391" lon="8.901749520343746"><ele>252.33333333333331</ele><time>2026-04-25T08:08:10.999Z</time></trkpt><trkpt lat="45.65296018664663" lon="8.901461551839995"><ele>251.66666666666669</ele><time>2026-04-25T08:08:11.999Z</time></trkpt><trkpt lat="45.65304970210176" lon="8.90119966259952"><ele>251.0</ele><time>2026-04-25T08:08:12.999Z</time></trkpt><trkpt lat="45.65315002565404" lon="8.900966251011766"><ele>251.0</ele><time>2026-04-25T08:08:13.999Z</time></trkpt><trkpt lat="45.653268688105165" lon="8.900758758246159"><ele>251.0</ele><time>2026-04-25T08:08:14.999Z</time></trkpt><trkpt lat="45.653413076454285" lon="8.900557685858146"><ele>251.0</ele><time>2026-04-25T08:08:15.999Z</time></trkpt><trkpt lat="45.65357119321879" lon="8.900368762649828"><ele>252.0</ele><time>2026-04-25T08:08:16.999Z</time></trkpt><trkpt lat="45.653742400283704" lon="8.900187469231085"><ele>253.0</ele><time>2026-04-25T08:08:17.999Z</time></trkpt><trkpt lat="45.65393692122822" lon="8.900057158121825"><ele>254.0</ele><time>2026-04-25T08:08:18.999Z</time></trkpt><trkpt lat="45.65414182444117" lon="8.899883289110447"><ele>254.5</ele><time>2026-04-25T08:08:19.999Z</time></trkpt><trkpt lat="45.6543684220049" lon="8.899742402632905"><ele>255.0</ele><time>2026-04-25T08:08:20.999Z</time></trkpt><trkpt lat="45.65458867375659" lon="8.899592079448881"><ele>254.0</ele><time>2026-04-25T08:08:21.999Z</time></trkpt><trkpt lat="45.654800628581945" lon="8.899437562078335"><ele>253.0</ele><time>2026-04-25T08:08:22.999Z</time></trkpt><trkpt lat="45.65499497890088" lon="8.89930109008559"><ele>253.0</ele><time>2026-04-25T08:08:23.999Z</time></trkpt><trkpt lat="45.65517556684294" lon="8.899176750571126"><ele>253.0</ele><time>2026-04-25T08:08:24.999Z</time></trkpt><trkpt lat="45.655342448279164" lon="8.899058970563349"><ele>253.0</ele><time>2026-04-25T08:08:25.999Z</time></trkpt><trkpt lat="45.65549946278247" lon="8.898943734334635"><ele>253.66666666666666</ele><time>2026-04-25T08:08:26.999Z</time></trkpt><trkpt lat="45.655648530063" lon="8.89883979271433"><ele>254.33333333333331</ele><time>2026-04-25T08:08:27.999Z</time></trkpt><trkpt lat="45.65578708476047" lon="8.898739022458802"><ele>255.0</ele><time>2026-04-25T08:08:28.999Z</time></trkpt><trkpt lat="45.65590614574438" lon="8.898655784728877"><ele>255.0</ele><time>2026-04-25T08:08:29.999Z</time></trkpt><trkpt lat="45.6560208141197" lon="8.898586476091046"><ele>255.0</ele><time>2026-04-25T08:08:30.999Z</time></trkpt><trkpt lat="45.656120781311756" lon="8.898539098989172"><ele>255.0</ele><time>2026-04-25T08:08:31.999Z</time></trkpt><trkpt lat="45.65621184120567" lon="8.898513444984575"><ele>255.0</ele><time>2026-04-25T08:08:32.999Z</time></trkpt><trkpt lat="45.6563083072422" lon="8.898513288665791"><ele>255.0</ele><time>2026-04-25T08:08:33.999Z</time></trkpt><trkpt lat="45.65641554133215" lon="8.898502523806288"><ele>255.33333333333331</ele><time>2026-04-25T08:08:34.999Z</time></trkpt><trkpt lat="45.65653214480088" lon="8.898437400023582"><ele>255.66666666666666</ele><time>2026-04-25T08:08:35.999Z</time></trkpt><trkpt lat="45.65670749531159" lon="8.898341023938054"><ele>256.0</ele><time>2026-04-25T08:08:36.999Z</time></trkpt><trkpt lat="45.65691656529547" lon="8.898279465524784"><ele>256.5</ele><time>2026-04-25T08:08:38Z</time></trkpt><trkpt lat="45.65715582307713" lon="8.898238150063834"><ele>257.0</ele><time>2026-04-25T08:08:39Z</time></trkpt><trkpt lat="45.65739139197902" lon="8.89820323664999"><ele>257.0</ele><time>2026-04-25T08:08:40Z</time></trkpt><trkpt lat="45.65762303448925" lon="8.898160389198306"><ele>257.0</ele><time>2026-04-25T08:08:41Z</time></trkpt><trkpt lat="45.657850672519466" lon="8.898109140432929"><ele>256.5</ele><time>2026-04-25T08:08:42Z</time></trkpt><trkpt lat="45.658091974775594" lon="8.898061232550356"><ele>256.0</ele><time>2026-04-25T08:08:43Z</time></trkpt><trkpt lat="45.65832076856515" lon="8.898026075537034"><ele>256.0</ele><time>2026-04-25T08:08:44Z</time></trkpt><trkpt lat="45.65855270458713" lon="8.897983788279326"><ele>256.0</ele><time>2026-04-25T08:08:45Z</time></trkpt><trkpt lat="45.65878128112939" lon="8.897936824018405"><ele>255.66666666666666</ele><time>2026-04-25T08:08:46Z</time></trkpt><trkpt lat="45.6589999770666" lon="8.897894338458139"><ele>255.33333333333331</ele><time>2026-04-25T08:08:47Z</time></trkpt><trkpt lat="45.65921296724847" lon="8.897856343540782"><ele>255.0</ele><time>2026-04-25T08:08:48Z</time></trkpt><trkpt lat="45.65941427271937" lon="8.897816445355696"><ele>256.0</ele><time>2026-04-25T08:08:49Z</time></trkpt><trkpt lat="45.65962308154435" lon="8.897774244236837"><ele>257.0</ele><time>2026-04-25T08:08:50Z</time></trkpt><trkpt lat="45.65983853050151" lon="8.897728666761457"><ele>258.0</ele><time>2026-04-25T08:08:51Z</time></trkpt><trkpt lat="45.66007477542395" lon="8.897676996616873"><ele>258.0</ele><time>2026-04-25T08:08:52Z</time></trkpt><trkpt lat="45.6603220697876" lon="8.897640503539261"><ele>258.0</ele><time>2026-04-25T08:08:53Z</time></trkpt><trkpt lat="45.66055231623595" lon="8.89759751940492"><ele>257.6666666666667</ele><time>2026-04-25T08:08:54Z</time></trkpt><trkpt lat="45.66076094703309" lon="8.89756730119261"><ele>257.33333333333337</ele><time>2026-04-25T08:08:55Z</time></trkpt><trkpt lat="45.66096918611261" lon="8.897531765305603"><ele>257.0</ele><time>2026-04-25T08:08:56Z</time></trkpt><trkpt lat="45.66117430165082" lon="8.897496359243709"><ele>257.0</ele><time>2026-04-25T08:08:57Z</time></trkpt><trkpt lat="45.661378170973215" lon="8.897460106203148"><ele>257.0</ele><time>2026-04-25T08:08:58Z</time></trkpt><trkpt lat="45.66157629854749" lon="8.897424778847029"><ele>257.0</ele><time>2026-04-25T08:08:59Z</time></trkpt><trkpt lat="45.66177129354314" lon="8.89738631509222"><ele>257.6666666666667</ele><time>2026-04-25T08:09:00Z</time></trkpt><trkpt lat="45.66195415161531" lon="8.897352983672556"><ele>258.3333333333333</ele><time>2026-04-25T08:09:01Z</time></trkpt><trkpt lat="45.662123266195" lon="8.897322928915063"><ele>259.0</ele><time>2026-04-25T08:09:02Z</time></trkpt><trkpt lat="45.662280378266566" lon="8.897300127109112"><ele>259.0</ele><time>2026-04-25T08:09:03Z</time></trkpt><trkpt lat="45.66243097774506" lon="8.897275326882797"><ele>259.0</ele><time>2026-04-25T08:09:04Z</time></trkpt><trkpt lat="45.6625851496551" lon="8.897252605341935"><ele>259.0</ele><time>2026-04-25T08:09:05Z</time></trkpt><trkpt lat="45.66273871331837" lon="8.89722656813638"><ele>259.0</ele><time>2026-04-25T08:09:06Z</time></trkpt><trkpt lat="45.66287160422639" lon="8.897198138859862"><ele>259.0</ele><time>2026-04-25T08:09:07Z</time></trkpt><trkpt lat="45.6629980472393" lon="8.897172929826365"><ele>259.0</ele><time>2026-04-25T08:09:08Z</time></trkpt><trkpt lat="45.663110288615506" lon="8.897150694835787"><ele>259.0</ele><time>2026-04-25T08:09:09Z</time></trkpt><trkpt lat="45.66321443544604" lon="8.897133227341527"><ele>259.0</ele><time>2026-04-25T08:09:10Z</time></trkpt><trkpt lat="45.6633099053479" lon="8.897138433933206"><ele>259.0</ele><time>2026-04-25T08:09:11Z</time></trkpt><trkpt lat="45.663391200688174" lon="8.897201719522798"><ele>259.0</ele><time>2026-04-25T08:09:12Z</time></trkpt><trkpt lat="45.663458645653755" lon="8.897273916861927"><ele>259.0</ele><time>2026-04-25T08:09:13Z</time></trkpt><trkpt lat="45.66354534159751" lon="8.89727626940678"><ele>259.0</ele><time>2026-04-25T08:09:14Z</time></trkpt><trkpt lat="45.66364210569681" lon="8.897200824611875"><ele>259.3333333333333</ele><time>2026-04-25T08:09:14.999Z</time></trkpt><trkpt lat="45.66374793534396" lon="8.89709119165773"><ele>259.6666666666667</ele><time>2026-04-25T08:09:15.999Z</time></trkpt><trkpt lat="45.66390492824431" lon="8.897033525087028"><ele>260.0</ele><time>2026-04-25T08:09:16.999Z</time></trkpt><trkpt lat="45.66410329378556" lon="8.897010926638647"><ele>260.0</ele><time>2026-04-25T08:09:17.999Z</time></trkpt><trkpt lat="45.66432147972718" lon="8.896990369367288"><ele>260.0</ele><time>2026-04-25T08:09:18.999Z</time></trkpt><trkpt lat="45.66451456516467" lon="8.896969802178079"><ele>260.0</ele><time>2026-04-25T08:09:19.999Z</time></trkpt><trkpt lat="45.664680348049316" lon="8.89694479999751"><ele>260.25</ele><time>2026-04-25T08:09:20.999Z</time></trkpt><trkpt lat="45.66481740466871" lon="8.896920968149008"><ele>260.5</ele><time>2026-04-25T08:09:21.999Z</time></trkpt><trkpt lat="45.66494075173419" lon="8.896899965387604"><ele>260.75</ele><time>2026-04-25T08:09:22.999Z</time></trkpt><trkpt lat="45.66506471628353" lon="8.896881586192746"><ele>261.0</ele><time>2026-04-25T08:09:23.999Z</time></trkpt><trkpt lat="45.66520181819614" lon="8.896866340483108"><ele>261.25</ele><time>2026-04-25T08:09:24.999Z</time></trkpt><trkpt lat="45.66534386234351" lon="8.896849672515389"><ele>261.5</ele><time>2026-04-25T08:09:25.999Z</time></trkpt><trkpt lat="45.66547905349824" lon="8.896830891274378"><ele>261.75</ele><time>2026-04-25T08:09:26.999Z</time></trkpt><trkpt lat="45.665601840260656" lon="8.896816177580297"><ele>262.0</ele><time>2026-04-25T08:09:27.999Z</time></trkpt><trkpt lat="45.66571554582649" lon="8.896799600090294"><ele>262.0</ele><time>2026-04-25T08:09:28.999Z</time></trkpt><trkpt lat="45.665825952973485" lon="8.896780562748518"><ele>262.0</ele><time>2026-04-25T08:09:29.999Z</time></trkpt><trkpt lat="45.66593434768907" lon="8.896763762905525"><ele>262.0</ele><time>2026-04-25T08:09:30.999Z</time></trkpt><trkpt lat="45.66603140782069" lon="8.896757175018521"><ele>262.0</ele><time>2026-04-25T08:09:31.999Z</time></trkpt><trkpt lat="45.66612343788248" lon="8.896750720067002"><ele>262.0</ele><time>2026-04-25T08:09:32.999Z</time></trkpt><trkpt lat="45.66622555539913" lon="8.896741233085079"><ele>262.0</ele><time>2026-04-25T08:09:33.999Z</time></trkpt><trkpt lat="45.66633632901631" lon="8.896726364400136"><ele>262.0</ele><time>2026-04-25T08:09:34.999Z</time></trkpt><trkpt lat="45.666446147015314" lon="8.896709970592491"><ele>262.0</ele><time>2026-04-25T08:09:35.999Z</time></trkpt><trkpt lat="45.666563139069716" lon="8.896694706484565"><ele>262.0</ele><time>2026-04-25T08:09:36.999Z</time></trkpt><trkpt lat="45.66668805257766" lon="8.896680388640263"><ele>262.0</ele><time>2026-04-25T08:09:37.999Z</time></trkpt><trkpt lat="45.66682308714966" lon="8.89665972556161"><ele>262.0</ele><time>2026-04-25T08:09:38.999Z</time></trkpt><trkpt lat="45.66697559825142" lon="8.89666047816846"><ele>262.0</ele><time>2026-04-25T08:09:39.999Z</time></trkpt><trkpt lat="45.667131340165334" lon="8.896641525267553"><ele>262.0</ele><time>2026-04-25T08:09:40.999Z</time></trkpt><trkpt lat="45.667291549233504" lon="8.896622793258372"><ele>262.3333333333333</ele><time>2026-04-25T08:09:41.999Z</time></trkpt><trkpt lat="45.66745709532646" lon="8.896594834870685"><ele>262.6666666666667</ele><time>2026-04-25T08:09:42.999Z</time></trkpt><trkpt lat="45.66762782609819" lon="8.896582243181166"><ele>263.0</ele><time>2026-04-25T08:09:43.999Z</time></trkpt><trkpt lat="45.66779134276548" lon="8.89656148909436"><ele>263.0</ele><time>2026-04-25T08:09:44.999Z</time></trkpt><trkpt lat="45.66793942712001" lon="8.896538978852037"><ele>263.0</ele><time>2026-04-25T08:09:45.999Z</time></trkpt><trkpt lat="45.66807402179264" lon="8.896529966784527"><ele>263.0</ele><time>2026-04-25T08:09:46.999Z</time></trkpt><trkpt lat="45.66819546344624" lon="8.89651940021496"><ele>263.0</ele><time>2026-04-25T08:09:47.999Z</time></trkpt><trkpt lat="45.66830722400884" lon="8.896508212276546"><ele>263.0</ele><time>2026-04-25T08:09:48.999Z</time></trkpt><trkpt lat="45.66840834987616" lon="8.896498334968916"><ele>263.0</ele><time>2026-04-25T08:09:49.999Z</time></trkpt><trkpt lat="45.66850400097425" lon="8.896490942202998"><ele>263.0</ele><time>2026-04-25T08:09:50.999Z</time></trkpt><trkpt lat="45.66859020474068" lon="8.896477172004198"><ele>263.0</ele><time>2026-04-25T08:09:51.999Z</time></trkpt><trkpt lat="45.66867318420559" lon="8.89647120416227"><ele>263.0</ele><time>2026-04-25T08:09:52.999Z</time></trkpt><trkpt lat="45.66875001664962" lon="8.896462010380528"><ele>263.0</ele><time>2026-04-25T08:09:53.999Z</time></trkpt><trkpt lat="45.66882267886649" lon="8.896465226268285"><ele>263.33333333333337</ele><time>2026-04-25T08:09:54.999Z</time></trkpt><trkpt lat="45.66888396432152" lon="8.89649024915094"><ele>263.6666666666667</ele><time>2026-04-25T08:09:55.999Z</time></trkpt><trkpt lat="45.66894867797299" lon="8.896543085049649"><ele>264.0</ele><time>2026-04-25T08:09:56.999Z</time></trkpt><trkpt lat="45.66903176757774" lon="8.896560497898138"><ele>264.3333333333333</ele><time>2026-04-25T08:09:57.999Z</time></trkpt><trkpt lat="45.66911879987195" lon="8.896503157704778"><ele>264.66666666666663</ele><time>2026-04-25T08:09:58.999Z</time></trkpt><trkpt lat="45.669213429433356" lon="8.896409945193277"><ele>265.0</ele><time>2026-04-25T08:09:59.999Z</time></trkpt><trkpt lat="45.66934498188819" lon="8.896391976117588"><ele>265.0</ele><time>2026-04-25T08:10:00.999Z</time></trkpt><trkpt lat="45.66950239671802" lon="8.896353864027873"><ele>265.0</ele><time>2026-04-25T08:10:01.999Z</time></trkpt><trkpt lat="45.669678807325816" lon="8.896344092302384"><ele>265.0</ele><time>2026-04-25T08:10:02.999Z</time></trkpt><trkpt lat="45.66984013719614" lon="8.896328400271297"><ele>265.0</ele><time>2026-04-25T08:10:03.999Z</time></trkpt><trkpt lat="45.669993963570285" lon="8.89630539087285"><ele>265.0</ele><time>2026-04-25T08:10:04.999Z</time></trkpt><trkpt lat="45.67014289149222" lon="8.896282111559199"><ele>265.0</ele><time>2026-04-25T08:10:05.999Z</time></trkpt><trkpt lat="45.670285214441456" lon="8.896262001785137"><ele>265.0</ele><time>2026-04-25T08:10:06.999Z</time></trkpt><trkpt lat="45.670414145329" lon="8.896247499562202"><ele>265.5</ele><time>2026-04-25T08:10:07.999Z</time></trkpt><trkpt lat="45.670527981807155" lon="8.89623257988161"><ele>266.0</ele><time>2026-04-25T08:10:08.999Z</time></trkpt><trkpt lat="45.67063885990556" lon="8.89621665510359"><ele>266.5</ele><time>2026-04-25T08:10:09.999Z</time></trkpt><trkpt lat="45.67075913705963" lon="8.8961859147494"><ele>267.0</ele><time>2026-04-25T08:10:10.999Z</time></trkpt><trkpt lat="45.6708797674906" lon="8.896148192392253"><ele>267.0</ele><time>2026-04-25T08:10:11.999Z</time></trkpt><trkpt lat="45.67099447951856" lon="8.896114433401618"><ele>267.0</ele><time>2026-04-25T08:10:12.999Z</time></trkpt><trkpt lat="45.671108370890316" lon="8.896081331077493"><ele>267.0</ele><time>2026-04-25T08:10:13.999Z</time></trkpt><trkpt lat="45.67122365902113" lon="8.896051179255862"><ele>267.0</ele><time>2026-04-25T08:10:14.999Z</time></trkpt><trkpt lat="45.671335568477936" lon="8.896010144152825"><ele>266.75</ele><time>2026-04-25T08:10:15.999Z</time></trkpt><trkpt lat="45.671446569132236" lon="8.895969330975415"><ele>266.5</ele><time>2026-04-25T08:10:16.999Z</time></trkpt><trkpt lat="45.67155811184562" lon="8.895934484514273"><ele>266.25</ele><time>2026-04-25T08:10:17.999Z</time></trkpt><trkpt lat="45.671670724763324" lon="8.895901441555"><ele>266.0</ele><time>2026-04-25T08:10:18.999Z</time></trkpt><trkpt lat="45.671781964753286" lon="8.89586890250731"><ele>266.0</ele><time>2026-04-25T08:10:19.999Z</time></trkpt><trkpt lat="45.671890381270345" lon="8.89583722879651"><ele>266.0</ele><time>2026-04-25T08:10:20.999Z</time></trkpt><trkpt lat="45.67199716425968" lon="8.895800491758648"><ele>266.0</ele><time>2026-04-25T08:10:21.999Z</time></trkpt><trkpt lat="45.67210130827439" lon="8.895765284216704"><ele>266.0</ele><time>2026-04-25T08:10:22.999Z</time></trkpt><trkpt lat="45.6722021598962" lon="8.895732025137029"><ele>266.0</ele><time>2026-04-25T08:10:23.999Z</time></trkpt><trkpt lat="45.67231121125305" lon="8.895700330428378"><ele>265.6</ele><time>2026-04-25T08:10:24.999Z</time></trkpt><trkpt lat="45.67242601075787" lon="8.895669431640403"><ele>265.20000000000005</ele><time>2026-04-25T08:10:25.999Z</time></trkpt><trkpt lat="45.672522193020285" lon="8.895639433239484"><ele>264.79999999999995</ele><time>2026-04-25T08:10:26.999Z</time></trkpt><trkpt lat="45.67260936472134" lon="8.895613978256108"><ele>264.4</ele><time>2026-04-25T08:10:27.999Z</time></trkpt><trkpt lat="45.67269054533586" lon="8.895593825775203"><ele>264.0</ele><time>2026-04-25T08:10:28.999Z</time></trkpt><trkpt lat="45.67276336363804" lon="8.895573650573889"><ele>263.8333333333333</ele><time>2026-04-25T08:10:29.999Z</time></trkpt><trkpt lat="45.67283031082985" lon="8.895557106612195"><ele>263.6666666666667</ele><time>2026-04-25T08:10:30.999Z</time></trkpt><trkpt lat="45.67289682518988" lon="8.895543499114174"><ele>263.5</ele><time>2026-04-25T08:10:31.999Z</time></trkpt><trkpt lat="45.67296452166172" lon="8.895531549050897"><ele>263.33333333333337</ele><time>2026-04-25T08:10:32.999Z</time></trkpt><trkpt lat="45.673075655598055" lon="8.895537967297079"><ele>263.1666666666667</ele><time>2026-04-25T08:10:34.999Z</time></trkpt><trkpt lat="45.67319969386149" lon="8.89556650393826"><ele>263.0</ele><time>2026-04-25T08:10:36.999Z</time></trkpt><trkpt lat="45.67328274068378" lon="8.89552537659855"><ele>263.0</ele><time>2026-04-25T08:10:37.999Z</time></trkpt><trkpt lat="45.6733647260275" lon="8.895431312557662"><ele>263.0</ele><time>2026-04-25T08:10:38.999Z</time></trkpt><trkpt lat="45.67346088707626" lon="8.895352115338426"><ele>263.0</ele><time>2026-04-25T08:10:39.999Z</time></trkpt><trkpt lat="45.67359585299959" lon="8.8952895396779"><ele>263.0</ele><time>2026-04-25T08:10:40.999Z</time></trkpt><trkpt lat="45.67376369058012" lon="8.895252408553512"><ele>264.0</ele><time>2026-04-25T08:10:41.999Z</time></trkpt><trkpt lat="45.67394682196649" lon="8.895195173426748"><ele>265.0</ele><time>2026-04-25T08:10:42.999Z</time></trkpt><trkpt lat="45.67415307667409" lon="8.89513090816656"><ele>266.0</ele><time>2026-04-25T08:10:44Z</time></trkpt><trkpt lat="45.674384743164616" lon="8.89505872504521"><ele>266.5</ele><time>2026-04-25T08:10:45Z</time></trkpt><trkpt lat="45.67461861792043" lon="8.894986863972763"><ele>267.0</ele><time>2026-04-25T08:10:46Z</time></trkpt><trkpt lat="45.674880185186076" lon="8.894905727434152"><ele>267.0</ele><time>2026-04-25T08:10:47Z</time></trkpt><trkpt lat="45.67514956410827" lon="8.894822218781481"><ele>267.0</ele><time>2026-04-25T08:10:48Z</time></trkpt><trkpt lat="45.67541383109546" lon="8.894736307534565"><ele>266.0</ele><time>2026-04-25T08:10:49Z</time></trkpt><trkpt lat="45.67569598964111" lon="8.894651739834254"><ele>265.0</ele><time>2026-04-25T08:10:50Z</time></trkpt><trkpt lat="45.675969505075294" lon="8.894572629288831"><ele>266.0</ele><time>2026-04-25T08:10:51Z</time></trkpt><trkpt lat="45.67621430444285" lon="8.894494949540734"><ele>267.0</ele><time>2026-04-25T08:10:52Z</time></trkpt><trkpt lat="45.67644302618404" lon="8.894425060125597"><ele>267.0</ele><time>2026-04-25T08:10:53Z</time></trkpt><trkpt lat="45.67665368603466" lon="8.89435559987983"><ele>267.0</ele><time>2026-04-25T08:10:54Z</time></trkpt><trkpt lat="45.67685522477287" lon="8.894298326283607"><ele>267.0</ele><time>2026-04-25T08:10:55Z</time></trkpt><trkpt lat="45.67704122535674" lon="8.894246825771013"><ele>269.0</ele><time>2026-04-25T08:10:56Z</time></trkpt><trkpt lat="45.67722066737921" lon="8.894199892644547"><ele>271.0</ele><time>2026-04-25T08:10:57Z</time></trkpt><trkpt lat="45.677412917572916" lon="8.894206927436704"><ele>273.0</ele><time>2026-04-25T08:10:58Z</time></trkpt><trkpt lat="45.67761956514247" lon="8.894236952871015"><ele>275.5</ele><time>2026-04-25T08:10:59Z</time></trkpt><trkpt lat="45.677830163353256" lon="8.894269099206648"><ele>278.0</ele><time>2026-04-25T08:11:00Z</time></trkpt><trkpt lat="45.678073693583585" lon="8.894287109090921"><ele>278.0</ele><time>2026-04-25T08:11:01Z</time></trkpt><trkpt lat="45.67834655774347" lon="8.894331351060686"><ele>278.0</ele><time>2026-04-25T08:11:02Z</time></trkpt><trkpt lat="45.67864263893285" lon="8.894374693936284"><ele>277.5</ele><time>2026-04-25T08:11:03Z</time></trkpt><trkpt lat="45.67895652795125" lon="8.894424158084284"><ele>277.0</ele><time>2026-04-25T08:11:04Z</time></trkpt><trkpt lat="45.679262610638" lon="8.894466571750822"><ele>275.5</ele><time>2026-04-25T08:11:05Z</time></trkpt><trkpt lat="45.67957435699528" lon="8.894512815058224"><ele>274.0</ele><time>2026-04-25T08:11:06Z</time></trkpt><trkpt lat="45.679856080867786" lon="8.894558921268429"><ele>274.0</ele><time>2026-04-25T08:11:07Z</time></trkpt><trkpt lat="45.68011383128573" lon="8.894599413459174"><ele>274.0</ele><time>2026-04-25T08:11:08Z</time></trkpt><trkpt lat="45.68034233022077" lon="8.89462248568861"><ele>273.0</ele><time>2026-04-25T08:11:09Z</time></trkpt><trkpt lat="45.68056391972276" lon="8.894625601918362"><ele>272.0</ele><time>2026-04-25T08:11:10Z</time></trkpt><trkpt lat="45.68078392483905" lon="8.894602606168931"><ele>271.0</ele><time>2026-04-25T08:11:11Z</time></trkpt><trkpt lat="45.68102602439178" lon="8.894535758445425"><ele>272.5</ele><time>2026-04-25T08:11:12Z</time></trkpt><trkpt lat="45.68128343403588" lon="8.894452409092123"><ele>274.0</ele><time>2026-04-25T08:11:13Z</time></trkpt><trkpt lat="45.68155365720144" lon="8.894374562717012"><ele>274.0</ele><time>2026-04-25T08:11:14Z</time></trkpt><trkpt lat="45.68182745448379" lon="8.894324975918149"><ele>274.0</ele><time>2026-04-25T08:11:15Z</time></trkpt><trkpt lat="45.68209993304025" lon="8.894253160181826"><ele>276.5</ele><time>2026-04-25T08:11:16Z</time></trkpt><trkpt lat="45.682355156920785" lon="8.894183108934673"><ele>279.0</ele><time>2026-04-25T08:11:17Z</time></trkpt><trkpt lat="45.68258931446672" lon="8.89413285129097"><ele>280.0</ele><time>2026-04-25T08:11:18Z</time></trkpt><trkpt lat="45.68282592129836" lon="8.894077714830203"><ele>281.0</ele><time>2026-04-25T08:11:19Z</time></trkpt><trkpt lat="45.683063068083015" lon="8.894020177955152"><ele>281.0</ele><time>2026-04-25T08:11:20Z</time></trkpt><trkpt lat="45.68330039007189" lon="8.893961652224101"><ele>281.0</ele><time>2026-04-25T08:11:21Z</time></trkpt><trkpt lat="45.683524413507676" lon="8.893907029917465"><ele>280.33333333333337</ele><time>2026-04-25T08:11:22Z</time></trkpt><trkpt lat="45.68374502875597" lon="8.893855144582922"><ele>279.6666666666667</ele><time>2026-04-25T08:11:23Z</time></trkpt><trkpt lat="45.68396181329377" lon="8.893805052904579"><ele>279.0</ele><time>2026-04-25T08:11:23.999Z</time></trkpt><trkpt lat="45.6841642787237" lon="8.893741992946753"><ele>279.0</ele><time>2026-04-25T08:11:24.999Z</time></trkpt><trkpt lat="45.6843736836223" lon="8.89368912232736"><ele>279.0</ele><time>2026-04-25T08:11:25.999Z</time></trkpt><trkpt lat="45.68459380998903" lon="8.893640286317888"><ele>279.0</ele><time>2026-04-25T08:11:26.999Z</time></trkpt><trkpt lat="45.68480956017235" lon="8.89358891633306"><ele>278.6666666666667</ele><time>2026-04-25T08:11:27.999Z</time></trkpt><trkpt lat="45.68500298808396" lon="8.893545642546773"><ele>278.33333333333337</ele><time>2026-04-25T08:11:28.999Z</time></trkpt><trkpt lat="45.68518380262222" lon="8.893508311335468"><ele>278.0</ele><time>2026-04-25T08:11:29.999Z</time></trkpt><trkpt lat="45.68535996748221" lon="8.893467628330598"><ele>278.6666666666667</ele><time>2026-04-25T08:11:30.999Z</time></trkpt><trkpt lat="45.68554285511648" lon="8.893417124919905"><ele>279.3333333333333</ele><time>2026-04-25T08:11:31.999Z</time></trkpt><trkpt lat="45.685748134756444" lon="8.893363279216297"><ele>280.0</ele><time>2026-04-25T08:11:32.999Z</time></trkpt><trkpt lat="45.6859690483724" lon="8.893296277057683"><ele>280.0</ele><time>2026-04-25T08:11:33.999Z</time></trkpt><trkpt lat="45.686203102206086" lon="8.893228860867117"><ele>280.0</ele><time>2026-04-25T08:11:34.999Z</time></trkpt><trkpt lat="45.68645944265489" lon="8.89316015313638"><ele>280.0</ele><time>2026-04-25T08:11:35.999Z</time></trkpt><trkpt lat="45.686737218641404" lon="8.89308828028921"><ele>280.0</ele><time>2026-04-25T08:11:36.999Z</time></trkpt><trkpt lat="45.68702603128373" lon="8.893031376460351"><ele>281.0</ele><time>2026-04-25T08:11:37.999Z</time></trkpt><trkpt lat="45.687306339035246" lon="8.892995955439146"><ele>282.0</ele><time>2026-04-25T08:11:38.999Z</time></trkpt><trkpt lat="45.68756429959592" lon="8.892964451350617"><ele>282.0</ele><time>2026-04-25T08:11:39.999Z</time></trkpt><trkpt lat="45.68780307028705" lon="8.892923066187493"><ele>282.0</ele><time>2026-04-25T08:11:40.999Z</time></trkpt><trkpt lat="45.688024516555075" lon="8.892876042829728"><ele>282.0</ele><time>2026-04-25T08:11:41.999Z</time></trkpt><trkpt lat="45.68823279949118" lon="8.892833667798"><ele>282.0</ele><time>2026-04-25T08:11:42.999Z</time></trkpt><trkpt lat="45.688429158059066" lon="8.892797681365558"><ele>282.0</ele><time>2026-04-25T08:11:43.999Z</time></trkpt><trkpt lat="45.688608264689485" lon="8.892766128490564"><ele>281.5</ele><time>2026-04-25T08:11:44.999Z</time></trkpt><trkpt lat="45.688763438592204" lon="8.892742751905729"><ele>281.0</ele><time>2026-04-25T08:11:45.999Z</time></trkpt><trkpt lat="45.68890265988395" lon="8.892715208999784"><ele>280.5</ele><time>2026-04-25T08:11:46.999Z</time></trkpt><trkpt lat="45.68901879398158" lon="8.892672357789554"><ele>280.0</ele><time>2026-04-25T08:11:47.999Z</time></trkpt><trkpt lat="45.68911378842173" lon="8.892612941979062"><ele>279.66666666666663</ele><time>2026-04-25T08:11:48.999Z</time></trkpt><trkpt lat="45.68918393485513" lon="8.892555366207679"><ele>279.3333333333333</ele><time>2026-04-25T08:11:49.999Z</time></trkpt><trkpt lat="45.689243469504234" lon="8.892518565598284"><ele>279.0</ele><time>2026-04-25T08:11:51.999Z</time></trkpt><trkpt lat="45.689361448002096" lon="8.89251237132705"><ele>278.6666666666667</ele><time>2026-04-25T08:11:55.999Z</time></trkpt><trkpt lat="45.68944501928639" lon="8.89251890898471"><ele>278.33333333333337</ele><time>2026-04-25T08:11:56.999Z</time></trkpt><trkpt lat="45.68952637019022" lon="8.892472576697383"><ele>278.0</ele><time>2026-04-25T08:11:57.999Z</time></trkpt><trkpt lat="45.6895649404688" lon="8.89236184311191"><ele>278.0</ele><time>2026-04-25T08:11:58.999Z</time></trkpt><trkpt lat="45.689545988644745" lon="8.892227325891469"><ele>278.0</ele><time>2026-04-25T08:11:59.999Z</time></trkpt><trkpt lat="45.689483497555976" lon="8.892078441443914"><ele>278.0</ele><time>2026-04-25T08:12:00.999Z</time></trkpt><trkpt lat="45.68940223345438" lon="8.891913983961526"><ele>278.0</ele><time>2026-04-25T08:12:01.999Z</time></trkpt><trkpt lat="45.689357837131375" lon="8.891695270728682"><ele>278.33333333333337</ele><time>2026-04-25T08:12:02.999Z</time></trkpt><trkpt lat="45.6893390399974" lon="8.891435934729728"><ele>278.6666666666667</ele><time>2026-04-25T08:12:03.999Z</time></trkpt><trkpt lat="45.68931685840988" lon="8.891158407479523"><ele>279.0</ele><time>2026-04-25T08:12:04.999Z</time></trkpt><trkpt lat="45.68926271799123" lon="8.890873221619321"><ele>279.0</ele><time>2026-04-25T08:12:05.999Z</time></trkpt><trkpt lat="45.689214860941775" lon="8.890640889932511"><ele>279.0</ele><time>2026-04-25T08:12:06.999Z</time></trkpt><trkpt lat="45.68916885897674" lon="8.890440865561965"><ele>279.0</ele><time>2026-04-25T08:12:07.999Z</time></trkpt><trkpt lat="45.689137457828934" lon="8.890260045537321"><ele>279.0</ele><time>2026-04-25T08:12:08.999Z</time></trkpt><trkpt lat="45.689118008306004" lon="8.890104824935895"><ele>279.0</ele><time>2026-04-25T08:12:09.999Z</time></trkpt><trkpt lat="45.68911250415127" lon="8.889968442361507"><ele>279.0</ele><time>2026-04-25T08:12:10.999Z</time></trkpt><trkpt lat="45.689125896914646" lon="8.889851752730696"><ele>279.0</ele><time>2026-04-25T08:12:11.999Z</time></trkpt><trkpt lat="45.68916725488107" lon="8.889759224186788"><ele>279.0</ele><time>2026-04-25T08:12:12.999Z</time></trkpt><trkpt lat="45.68924471233753" lon="8.889692430977464"><ele>279.0</ele><time>2026-04-25T08:12:13.999Z</time></trkpt><trkpt lat="45.68936765985608" lon="8.889660258083879"><ele>279.6666666666667</ele><time>2026-04-25T08:12:14.999Z</time></trkpt><trkpt lat="45.68952740123368" lon="8.889642913255836"><ele>280.33333333333337</ele><time>2026-04-25T08:12:15.999Z</time></trkpt><trkpt lat="45.689718841681646" lon="8.889602713550465"><ele>281.0</ele><time>2026-04-25T08:12:16.999Z</time></trkpt><trkpt lat="45.6899124118486" lon="8.88953914770792"><ele>281.0</ele><time>2026-04-25T08:12:17.999Z</time></trkpt><trkpt lat="45.69009176378629" lon="8.88948450220919"><ele>281.0</ele><time>2026-04-25T08:12:18.999Z</time></trkpt><trkpt lat="45.69025376158861" lon="8.88944919265772"><ele>281.0</ele><time>2026-04-25T08:12:19.999Z</time></trkpt><trkpt lat="45.69039831741996" lon="8.889424851733748"><ele>281.75</ele><time>2026-04-25T08:12:20.999Z</time></trkpt><trkpt lat="45.690531399151496" lon="8.889393408363405"><ele>282.5</ele><time>2026-04-25T08:12:21.999Z</time></trkpt><trkpt lat="45.69065634906628" lon="8.889344043895752"><ele>283.25</ele><time>2026-04-25T08:12:22.999Z</time></trkpt><trkpt lat="45.69078067933621" lon="8.889259426781262"><ele>284.0</ele><time>2026-04-25T08:12:23.999Z</time></trkpt><trkpt lat="45.69090193987135" lon="8.889143642119066"><ele>284.25</ele><time>2026-04-25T08:12:24.999Z</time></trkpt><trkpt lat="45.69099782296604" lon="8.889026337216613"><ele>284.5</ele><time>2026-04-25T08:12:25.999Z</time></trkpt><trkpt lat="45.69108387416859" lon="8.888911164983504"><ele>284.75</ele><time>2026-04-25T08:12:26.999Z</time></trkpt><trkpt lat="45.691183280329724" lon="8.88876647224398"><ele>285.0</ele><time>2026-04-25T08:12:27.999Z</time></trkpt><trkpt lat="45.691295358998794" lon="8.888599153594512"><ele>285.6666666666667</ele><time>2026-04-25T08:12:28.999Z</time></trkpt><trkpt lat="45.69143639296884" lon="8.888423517273509"><ele>286.33333333333337</ele><time>2026-04-25T08:12:29.999Z</time></trkpt><trkpt lat="45.6915959158433" lon="8.888202731097227"><ele>287.0</ele><time>2026-04-25T08:12:30.999Z</time></trkpt><trkpt lat="45.69177743342811" lon="8.88795148471872"><ele>286.0</ele><time>2026-04-25T08:12:31.999Z</time></trkpt><trkpt lat="45.691953236338016" lon="8.887674421118696"><ele>285.0</ele><time>2026-04-25T08:12:32.999Z</time></trkpt><trkpt lat="45.692152570981314" lon="8.887426221715854"><ele>285.0</ele><time>2026-04-25T08:12:33.999Z</time></trkpt><trkpt lat="45.69233858563124" lon="8.887179139540953"><ele>285.0</ele><time>2026-04-25T08:12:34.999Z</time></trkpt><trkpt lat="45.692499804940404" lon="8.886948784250237"><ele>285.0</ele><time>2026-04-25T08:12:35.999Z</time></trkpt><trkpt lat="45.69264784357347" lon="8.886730576827572"><ele>285.0</ele><time>2026-04-25T08:12:36.999Z</time></trkpt><trkpt lat="45.69281060675752" lon="8.88652334562134"><ele>285.0</ele><time>2026-04-25T08:12:37.999Z</time></trkpt><trkpt lat="45.69298826126406" lon="8.886316084097874"><ele>286.0</ele><time>2026-04-25T08:12:38.999Z</time></trkpt><trkpt lat="45.693173208343595" lon="8.886118311001141"><ele>287.0</ele><time>2026-04-25T08:12:39.999Z</time></trkpt><trkpt lat="45.693363440784324" lon="8.885933784740972"><ele>286.5</ele><time>2026-04-25T08:12:40.999Z</time></trkpt><trkpt lat="45.69355105473409" lon="8.885746436846677"><ele>286.0</ele><time>2026-04-25T08:12:41.999Z</time></trkpt><trkpt lat="45.69374326919248" lon="8.885547121524565"><ele>286.0</ele><time>2026-04-25T08:12:42.999Z</time></trkpt><trkpt lat="45.69392717750546" lon="8.885358973873398"><ele>286.0</ele><time>2026-04-25T08:12:43.999Z</time></trkpt><trkpt lat="45.69411316322523" lon="8.88516590046242"><ele>286.0</ele><time>2026-04-25T08:12:44.999Z</time></trkpt><trkpt lat="45.69429873581215" lon="8.88496616766446"><ele>286.0</ele><time>2026-04-25T08:12:45.999Z</time></trkpt><trkpt lat="45.69448493007859" lon="8.88477119558298"><ele>286.0</ele><time>2026-04-25T08:12:46.999Z</time></trkpt><trkpt lat="45.69467256451914" lon="8.884576110183538"><ele>286.0</ele><time>2026-04-25T08:12:47.999Z</time></trkpt><trkpt lat="45.6948597997928" lon="8.884384569854518"><ele>286.0</ele><time>2026-04-25T08:12:48.999Z</time></trkpt><trkpt lat="45.69504715359387" lon="8.884192901978752"><ele>286.0</ele><time>2026-04-25T08:12:50Z</time></trkpt><trkpt lat="45.695232303455256" lon="8.884003557226205"><ele>286.5</ele><time>2026-04-25T08:12:51Z</time></trkpt><trkpt lat="45.69541912065404" lon="8.883809871026537"><ele>287.0</ele><time>2026-04-25T08:12:52Z</time></trkpt><trkpt lat="45.69560707268405" lon="8.88362053380936"><ele>287.0</ele><time>2026-04-25T08:12:53Z</time></trkpt><trkpt lat="45.69579157738439" lon="8.883428591734885"><ele>287.0</ele><time>2026-04-25T08:12:54Z</time></trkpt><trkpt lat="45.69597675505527" lon="8.883238571818016"><ele>286.33333333333337</ele><time>2026-04-25T08:12:55Z</time></trkpt><trkpt lat="45.6961503096621" lon="8.883064278484452"><ele>285.6666666666667</ele><time>2026-04-25T08:12:56Z</time></trkpt><trkpt lat="45.696323037932345" lon="8.882894624927753"><ele>285.0</ele><time>2026-04-25T08:12:57Z</time></trkpt><trkpt lat="45.696491089581464" lon="8.882749155813416"><ele>285.0</ele><time>2026-04-25T08:12:58Z</time></trkpt><trkpt lat="45.69667030976066" lon="8.882660827988117"><ele>285.0</ele><time>2026-04-25T08:12:59Z</time></trkpt><trkpt lat="45.69687078160005" lon="8.882536945093452"><ele>285.0</ele><time>2026-04-25T08:13:00Z</time></trkpt><trkpt lat="45.6971053217228" lon="8.882435193127833"><ele>284.5</ele><time>2026-04-25T08:13:01Z</time></trkpt><trkpt lat="45.69734475905972" lon="8.882322722600087"><ele>284.0</ele><time>2026-04-25T08:13:02Z</time></trkpt><trkpt lat="45.69757865989497" lon="8.882201245643676"><ele>285.5</ele><time>2026-04-25T08:13:03Z</time></trkpt><trkpt lat="45.69783377033628" lon="8.88207090201214"><ele>287.0</ele><time>2026-04-25T08:13:04Z</time></trkpt><trkpt lat="45.69808053327157" lon="8.881962393798162"><ele>287.0</ele><time>2026-04-25T08:13:05Z</time></trkpt><trkpt lat="45.698294267199664" lon="8.88186601254422"><ele>287.0</ele><time>2026-04-25T08:13:06Z</time></trkpt><trkpt lat="45.69849347209321" lon="8.881777458217037"><ele>287.0</ele><time>2026-04-25T08:13:07Z</time></trkpt><trkpt lat="45.69867814554328" lon="8.88169122051685"><ele>286.33333333333337</ele><time>2026-04-25T08:13:08Z</time></trkpt><trkpt lat="45.6988519467226" lon="8.881611034212193"><ele>285.6666666666667</ele><time>2026-04-25T08:13:09Z</time></trkpt><trkpt lat="45.69901212937233" lon="8.881540733674543"><ele>285.0</ele><time>2026-04-25T08:13:10Z</time></trkpt><trkpt lat="45.69917033983012" lon="8.88146936661328"><ele>285.0</ele><time>2026-04-25T08:13:11Z</time></trkpt><trkpt lat="45.699337621222476" lon="8.881393501747139"><ele>285.0</ele><time>2026-04-25T08:13:12Z</time></trkpt><trkpt lat="45.69951117166009" lon="8.88131160537579"><ele>285.0</ele><time>2026-04-25T08:13:13Z</time></trkpt><trkpt lat="45.69968989515556" lon="8.88123645022165"><ele>285.6666666666667</ele><time>2026-04-25T08:13:14Z</time></trkpt><trkpt lat="45.69985020532037" lon="8.881162040419488"><ele>286.33333333333337</ele><time>2026-04-25T08:13:15Z</time></trkpt><trkpt lat="45.699993331793955" lon="8.881098787298793"><ele>287.0</ele><time>2026-04-25T08:13:16Z</time></trkpt><trkpt lat="45.70013247126824" lon="8.881040919093707"><ele>286.75</ele><time>2026-04-25T08:13:17Z</time></trkpt><trkpt lat="45.70025125366636" lon="8.880977069987857"><ele>286.5</ele><time>2026-04-25T08:13:18Z</time></trkpt><trkpt lat="45.70037204510078" lon="8.880918807964676"><ele>286.25</ele><time>2026-04-25T08:13:19Z</time></trkpt><trkpt lat="45.700498621570915" lon="8.88086371902085"><ele>286.0</ele><time>2026-04-25T08:13:20Z</time></trkpt><trkpt lat="45.700625467907564" lon="8.880805944956714"><ele>286.0</ele><time>2026-04-25T08:13:21Z</time></trkpt><trkpt lat="45.70074568338041" lon="8.880748026910535"><ele>286.0</ele><time>2026-04-25T08:13:22Z</time></trkpt><trkpt lat="45.70085573846015" lon="8.880694502953896"><ele>286.0</ele><time>2026-04-25T08:13:23Z</time></trkpt><trkpt lat="45.70095454953738" lon="8.88064667403136"><ele>286.0</ele><time>2026-04-25T08:13:24Z</time></trkpt><trkpt lat="45.70103193049899" lon="8.88061061417035"><ele>286.0</ele><time>2026-04-25T08:13:25Z</time></trkpt><trkpt lat="45.70109686549" lon="8.880583287137883"><ele>286.2</ele><time>2026-04-25T08:13:26Z</time></trkpt><trkpt lat="45.70120488057352" lon="8.880527115455617"><ele>286.40000000000003</ele><time>2026-04-25T08:13:28Z</time></trkpt><trkpt lat="45.701278079232694" lon="8.880486407457644"><ele>286.6</ele><time>2026-04-25T08:13:30Z</time></trkpt><trkpt lat="45.7013826824325" lon="8.880437926930911"><ele>286.8</ele><time>2026-04-25T08:13:31.999Z</time></trkpt><trkpt lat="45.70148299360621" lon="8.880380582619704"><ele>287.0</ele><time>2026-04-25T08:13:32.999Z</time></trkpt><trkpt lat="45.70157671320208" lon="8.88033698219972"><ele>287.0</ele><time>2026-04-25T08:13:33.999Z</time></trkpt><trkpt lat="45.701663785500145" lon="8.880289100953437"><ele>287.0</ele><time>2026-04-25T08:13:34.999Z</time></trkpt><trkpt lat="45.70175612662857" lon="8.88024412868769"><ele>287.0</ele><time>2026-04-25T08:13:35.999Z</time></trkpt><trkpt lat="45.701849137113605" lon="8.880196364325684"><ele>287.0</ele><time>2026-04-25T08:13:36.999Z</time></trkpt><trkpt lat="45.701944025575585" lon="8.880150941675474"><ele>287.0</ele><time>2026-04-25T08:13:37.999Z</time></trkpt><trkpt lat="45.70202738639095" lon="8.880110125530473"><ele>287.1666666666667</ele><time>2026-04-25T08:13:38.999Z</time></trkpt><trkpt lat="45.70209826113798" lon="8.880071282680179"><ele>287.33333333333337</ele><time>2026-04-25T08:13:39.999Z</time></trkpt><trkpt lat="45.70215993147671" lon="8.880037018085952"><ele>287.5</ele><time>2026-04-25T08:13:40.999Z</time></trkpt><trkpt lat="45.70222251919598" lon="8.880001039044783"><ele>287.6666666666667</ele><time>2026-04-25T08:13:41.999Z</time></trkpt><trkpt lat="45.702293438800545" lon="8.879962224543505"><ele>287.8333333333333</ele><time>2026-04-25T08:13:42.999Z</time></trkpt><trkpt lat="45.702369481967246" lon="8.879924442266942"><ele>288.0</ele><time>2026-04-25T08:13:43.999Z</time></trkpt><trkpt lat="45.70245196648599" lon="8.879879424077757"><ele>288.0</ele><time>2026-04-25T08:13:44.999Z</time></trkpt><trkpt lat="45.70253393877981" lon="8.879830091018507"><ele>288.0</ele><time>2026-04-25T08:13:45.999Z</time></trkpt><trkpt lat="45.702622248570115" lon="8.879776327552543"><ele>288.0</ele><time>2026-04-25T08:13:46.999Z</time></trkpt><trkpt lat="45.70270505266194" lon="8.879722021642394"><ele>288.0</ele><time>2026-04-25T08:13:47.999Z</time></trkpt><trkpt lat="45.70278677206532" lon="8.87967051075935"><ele>288.0</ele><time>2026-04-25T08:13:48.999Z</time></trkpt><trkpt lat="45.702868232336925" lon="8.879618961684187"><ele>288.14285714285717</ele><time>2026-04-25T08:13:49.999Z</time></trkpt><trkpt lat="45.702938203395924" lon="8.879575119890596"><ele>288.2857142857143</ele><time>2026-04-25T08:13:50.999Z</time></trkpt><trkpt lat="45.70300090390196" lon="8.87953512451934"><ele>288.42857142857144</ele><time>2026-04-25T08:13:51.999Z</time></trkpt><trkpt lat="45.70305927566907" lon="8.87949699405984"><ele>288.57142857142856</ele><time>2026-04-25T08:13:52.999Z</time></trkpt><trkpt lat="45.70312072083903" lon="8.87945223330128"><ele>288.7142857142857</ele><time>2026-04-25T08:13:53.999Z</time></trkpt><trkpt lat="45.70318968478413" lon="8.879399157349733"><ele>288.8571428571429</ele><time>2026-04-25T08:13:54.999Z</time></trkpt><trkpt lat="45.7032628061504" lon="8.879344696544559"><ele>289.0</ele><time>2026-04-25T08:13:55.999Z</time></trkpt><trkpt lat="45.70333918592718" lon="8.87928885120787"><ele>289.0</ele><time>2026-04-25T08:13:56.999Z</time></trkpt><trkpt lat="45.70342586895916" lon="8.879230651201276"><ele>289.0</ele><time>2026-04-25T08:13:57.999Z</time></trkpt><trkpt lat="45.703504423135165" lon="8.879180081558513"><ele>289.0</ele><time>2026-04-25T08:13:58.999Z</time></trkpt><trkpt lat="45.70357545230943" lon="8.879131682866785"><ele>289.0</ele><time>2026-04-25T08:13:59.999Z</time></trkpt><trkpt lat="45.70364250808139" lon="8.879091080605098"><ele>289.0</ele><time>2026-04-25T08:14:00.999Z</time></trkpt><trkpt lat="45.7037046788712" lon="8.879055069138811"><ele>289.0</ele><time>2026-04-25T08:14:01.999Z</time></trkpt><trkpt lat="45.70377039871139" lon="8.879013140316607"><ele>289.16666666666663</ele><time>2026-04-25T08:14:02.999Z</time></trkpt><trkpt lat="45.703836587389304" lon="8.878972380536771"><ele>289.3333333333333</ele><time>2026-04-25T08:14:03.999Z</time></trkpt><trkpt lat="45.703909630592825" lon="8.878928703108633"><ele>289.5</ele><time>2026-04-25T08:14:04.999Z</time></trkpt><trkpt lat="45.70400106535339" lon="8.878879057052876"><ele>289.6666666666667</ele><time>2026-04-25T08:14:05.999Z</time></trkpt><trkpt lat="45.70408196167325" lon="8.87883726291511"><ele>289.83333333333337</ele><time>2026-04-25T08:14:06.999Z</time></trkpt><trkpt lat="45.70415180436333" lon="8.878801886660646"><ele>290.0</ele><time>2026-04-25T08:14:07.999Z</time></trkpt><trkpt lat="45.70421398449436" lon="8.878768481387162"><ele>290.0</ele><time>2026-04-25T08:14:08.999Z</time></trkpt><trkpt lat="45.70428272814947" lon="8.878732858724275"><ele>290.0</ele><time>2026-04-25T08:14:09.999Z</time></trkpt><trkpt lat="45.704357822430175" lon="8.87869188919075"><ele>290.0</ele><time>2026-04-25T08:14:10.999Z</time></trkpt><trkpt lat="45.70444642276917" lon="8.878644044385764"><ele>290.0</ele><time>2026-04-25T08:14:11.999Z</time></trkpt><trkpt lat="45.70454425962855" lon="8.878589970562537"><ele>290.0</ele><time>2026-04-25T08:14:12.999Z</time></trkpt><trkpt lat="45.70462659878213" lon="8.878559308325489"><ele>290.0</ele><time>2026-04-25T08:14:13.999Z</time></trkpt><trkpt lat="45.704727055053866" lon="8.878537240058463"><ele>289.83333333333337</ele><time>2026-04-25T08:14:14.999Z</time></trkpt><trkpt lat="45.704813761788685" lon="8.878492273049847"><ele>289.6666666666667</ele><time>2026-04-25T08:14:15.999Z</time></trkpt><trkpt lat="45.7048947579367" lon="8.878450266536037"><ele>289.5</ele><time>2026-04-25T08:14:16.999Z</time></trkpt><trkpt lat="45.70496394837661" lon="8.878390398872343"><ele>289.3333333333333</ele><time>2026-04-25T08:14:17.999Z</time></trkpt><trkpt lat="45.705072607831404" lon="8.878334341113888"><ele>289.16666666666663</ele><time>2026-04-25T08:14:19.999Z</time></trkpt><trkpt lat="45.70514247555522" lon="8.87830295445239"><ele>289.0</ele><time>2026-04-25T08:14:22.999Z</time></trkpt><trkpt lat="45.705231258394974" lon="8.87827527734572"><ele>289.0</ele><time>2026-04-25T08:14:30.999Z</time></trkpt><trkpt lat="45.70521443517586" lon="8.878139520850969"><ele>289.0</ele><time>2026-04-25T08:14:31.999Z</time></trkpt><trkpt lat="45.70517241276403" lon="8.878018313395332"><ele>289.0</ele><time>2026-04-25T08:14:32.999Z</time></trkpt><trkpt lat="45.70513179065325" lon="8.87790663809247"><ele>289.0</ele><time>2026-04-25T08:14:33.999Z</time></trkpt><trkpt lat="45.70510210602853" lon="8.877802235026005"><ele>289.0</ele><time>2026-04-25T08:14:34.999Z</time></trkpt><trkpt lat="45.705076872660285" lon="8.877699168929524"><ele>289.0</ele><time>2026-04-25T08:14:35.999Z</time></trkpt><trkpt lat="45.705049463369555" lon="8.877599683393285"><ele>289.16666666666663</ele><time>2026-04-25T08:14:36.999Z</time></trkpt><trkpt lat="45.7050223351189" lon="8.877506631163566"><ele>289.3333333333333</ele><time>2026-04-25T08:14:37.999Z</time></trkpt><trkpt lat="45.7049861369957" lon="8.877371272962733"><ele>289.5</ele><time>2026-04-25T08:14:39.999Z</time></trkpt><trkpt lat="45.70495048061521" lon="8.87726369503051"><ele>289.6666666666667</ele><time>2026-04-25T08:14:42.999Z</time></trkpt><trkpt lat="45.704896995949085" lon="8.87711872803138"><ele>289.83333333333337</ele><time>2026-04-25T08:14:56Z</time></trkpt><trkpt lat="45.704873100617455" lon="8.877025139654101"><ele>290.0</ele><time>2026-04-25T08:14:57Z</time></trkpt><trkpt lat="45.70485105174777" lon="8.876939155147568"><ele>290.0</ele><time>2026-04-25T08:14:58Z</time></trkpt><trkpt lat="45.704875313660985" lon="8.876822915389774"><ele>290.0</ele><time>2026-04-25T08:15:00Z</time></trkpt><trkpt lat="45.70496556089187" lon="8.876849368984567"><ele>290.0</ele><time>2026-04-25T08:15:02Z</time></trkpt><trkpt lat="45.70503024149406" lon="8.876891199178468"><ele>290.0</ele><time>2026-04-25T08:15:03Z</time></trkpt><trkpt lat="45.70510337544349" lon="8.876944428974273"><ele>290.0</ele><time>2026-04-25T08:15:04Z</time></trkpt><trkpt lat="45.70520993140491" lon="8.877010656304613"><ele>290.0</ele><time>2026-04-25T08:15:05Z</time></trkpt><trkpt lat="45.705352751000206" lon="8.877103420675752"><ele>289.6666666666667</ele><time>2026-04-25T08:15:06Z</time></trkpt><trkpt lat="45.70549349409657" lon="8.877199682429367"><ele>289.3333333333333</ele><time>2026-04-25T08:15:07Z</time></trkpt><trkpt lat="45.70563264867253" lon="8.877296032355472"><ele>289.0</ele><time>2026-04-25T08:15:08Z</time></trkpt><trkpt lat="45.705764649651364" lon="8.877388633045445"><ele>289.0</ele><time>2026-04-25T08:15:09Z</time></trkpt><trkpt lat="45.705902578696076" lon="8.877478036554397"><ele>289.0</ele><time>2026-04-25T08:15:10Z</time></trkpt><trkpt lat="45.706054388575104" lon="8.877575413863589"><ele>289.0</ele><time>2026-04-25T08:15:11Z</time></trkpt><trkpt lat="45.706193101196455" lon="8.877672080665882"><ele>288.66666666666663</ele><time>2026-04-25T08:15:12Z</time></trkpt><trkpt lat="45.70632751679371" lon="8.87776050773071"><ele>288.3333333333333</ele><time>2026-04-25T08:15:13Z</time></trkpt><trkpt lat="45.70646287923836" lon="8.877845737247899"><ele>288.0</ele><time>2026-04-25T08:15:14Z</time></trkpt><trkpt lat="45.706604997233235" lon="8.877931218692662"><ele>288.0</ele><time>2026-04-25T08:15:15Z</time></trkpt><trkpt lat="45.70675117004111" lon="8.878014144283027"><ele>288.0</ele><time>2026-04-25T08:15:16Z</time></trkpt><trkpt lat="45.70689623701838" lon="8.878095606730927"><ele>288.0</ele><time>2026-04-25T08:15:17Z</time></trkpt><trkpt lat="45.70703563505938" lon="8.878186194419214"><ele>288.0</ele><time>2026-04-25T08:15:18Z</time></trkpt><trkpt lat="45.707168632434325" lon="8.878285111295547"><ele>288.0</ele><time>2026-04-25T08:15:19Z</time></trkpt><trkpt lat="45.707287827351784" lon="8.878382736852153"><ele>288.0</ele><time>2026-04-25T08:15:20Z</time></trkpt><trkpt lat="45.707392925220724" lon="8.878472465779007"><ele>288.0</ele><time>2026-04-25T08:15:21Z</time></trkpt><trkpt lat="45.707479142126715" lon="8.878543986037684"><ele>288.0</ele><time>2026-04-25T08:15:22Z</time></trkpt><trkpt lat="45.70755947359103" lon="8.878602232983411"><ele>288.0</ele><time>2026-04-25T08:15:23Z</time></trkpt><trkpt lat="45.70763299864729" lon="8.878658713651552"><ele>288.0</ele><time>2026-04-25T08:15:24Z</time></trkpt><trkpt lat="45.70769900557393" lon="8.878712741074132"><ele>288.0</ele><time>2026-04-25T08:15:25Z</time></trkpt><trkpt lat="45.707758599063915" lon="8.878764221823058"><ele>288.0</ele><time>2026-04-25T08:15:26Z</time></trkpt><trkpt lat="45.70786166115988" lon="8.878846392632113"><ele>288.0</ele><time>2026-04-25T08:15:28Z</time></trkpt><trkpt lat="45.707946867816474" lon="8.878926245062466"><ele>287.8</ele><time>2026-04-25T08:15:30Z</time></trkpt><trkpt lat="45.70801019305187" lon="8.878999659356339"><ele>287.6</ele><time>2026-04-25T08:15:33Z</time></trkpt><trkpt lat="45.70807350404753" lon="8.879142332558335"><ele>287.4</ele><time>2026-04-25T08:15:35Z</time></trkpt><trkpt lat="45.708195289544356" lon="8.879209481153316"><ele>287.2</ele><time>2026-04-25T08:15:37Z</time></trkpt><trkpt lat="45.70828257679622" lon="8.879229077463846"><ele>287.0</ele><time>2026-04-25T08:15:38Z</time></trkpt><trkpt lat="45.70838167704685" lon="8.879277072488348"><ele>287.75</ele><time>2026-04-25T08:15:39Z</time></trkpt><trkpt lat="45.70848429156838" lon="8.879349881139522"><ele>288.5</ele><time>2026-04-25T08:15:40Z</time></trkpt><trkpt lat="45.708597437049775" lon="8.879445916540282"><ele>289.25</ele><time>2026-04-25T08:15:41Z</time></trkpt><trkpt lat="45.7087349784265" lon="8.879552635195692"><ele>290.0</ele><time>2026-04-25T08:15:42Z</time></trkpt><trkpt lat="45.70889676444312" lon="8.879703489067515"><ele>290.6666666666667</ele><time>2026-04-25T08:15:43Z</time></trkpt><trkpt lat="45.70908457343612" lon="8.879830890415949"><ele>291.3333333333333</ele><time>2026-04-25T08:15:44Z</time></trkpt><trkpt lat="45.70925817479683" lon="8.879986868224131"><ele>292.0</ele><time>2026-04-25T08:15:45Z</time></trkpt><trkpt lat="45.70944807444857" lon="8.88013610196347"><ele>290.66666666666663</ele><time>2026-04-25T08:15:45.999Z</time></trkpt><trkpt lat="45.709647615845014" lon="8.880263504810031"><ele>289.3333333333333</ele><time>2026-04-25T08:15:46.999Z</time></trkpt><trkpt lat="45.70984164552387" lon="8.880355885148996"><ele>288.0</ele><time>2026-04-25T08:15:47.999Z</time></trkpt><trkpt lat="45.71002050501538" lon="8.880414260746244"><ele>288.0</ele><time>2026-04-25T08:15:48.999Z</time></trkpt><trkpt lat="45.7101904924934" lon="8.880446043332647"><ele>288.0</ele><time>2026-04-25T08:15:49.999Z</time></trkpt><trkpt lat="45.71035709720161" lon="8.880452763554706"><ele>288.0</ele><time>2026-04-25T08:15:50.999Z</time></trkpt><trkpt lat="45.71052821810098" lon="8.880444610296767"><ele>289.6666666666667</ele><time>2026-04-25T08:15:51.999Z</time></trkpt><trkpt lat="45.71069543636124" lon="8.880425961844272"><ele>291.33333333333337</ele><time>2026-04-25T08:15:52.999Z</time></trkpt><trkpt lat="45.710855492671875" lon="8.880397806305918"><ele>293.0</ele><time>2026-04-25T08:15:53.999Z</time></trkpt><trkpt lat="45.71101253750664" lon="8.880368532509788"><ele>292.6666666666667</ele><time>2026-04-25T08:15:54.999Z</time></trkpt><trkpt lat="45.711164454160674" lon="8.880337883099882"><ele>292.3333333333333</ele><time>2026-04-25T08:15:55.999Z</time></trkpt><trkpt lat="45.71131480956499" lon="8.880307802398848"><ele>292.0</ele><time>2026-04-25T08:15:56.999Z</time></trkpt><trkpt lat="45.71146245567218" lon="8.880281079842186"><ele>292.0</ele><time>2026-04-25T08:15:57.999Z</time></trkpt><trkpt lat="45.71161253650158" lon="8.880257263553608"><ele>292.0</ele><time>2026-04-25T08:15:58.999Z</time></trkpt><trkpt lat="45.71178437972252" lon="8.880231179391481"><ele>292.0</ele><time>2026-04-25T08:15:59.999Z</time></trkpt><trkpt lat="45.71197546282563" lon="8.880196144060202"><ele>292.0</ele><time>2026-04-25T08:16:00.999Z</time></trkpt><trkpt lat="45.71218193712678" lon="8.880154380657501"><ele>292.0</ele><time>2026-04-25T08:16:01.999Z</time></trkpt><trkpt lat="45.71240687208665" lon="8.880110755653355"><ele>292.0</ele><time>2026-04-25T08:16:02.999Z</time></trkpt><trkpt lat="45.712633316400684" lon="8.880069133991556"><ele>293.0</ele><time>2026-04-25T08:16:03.999Z</time></trkpt><trkpt lat="45.71285762155142" lon="8.880027615032796"><ele>294.0</ele><time>2026-04-25T08:16:04.999Z</time></trkpt><trkpt lat="45.713091542278505" lon="8.879980155456561"><ele>294.0</ele><time>2026-04-25T08:16:05.999Z</time></trkpt><trkpt lat="45.7133280449851" lon="8.879932387207942"><ele>294.0</ele><time>2026-04-25T08:16:06.999Z</time></trkpt><trkpt lat="45.71356581402228" lon="8.879886250157599"><ele>293.6666666666667</ele><time>2026-04-25T08:16:07.999Z</time></trkpt><trkpt lat="45.713788024772526" lon="8.879842221113146"><ele>293.33333333333337</ele><time>2026-04-25T08:16:08.999Z</time></trkpt><trkpt lat="45.71399221035423" lon="8.879802120749584"><ele>293.0</ele><time>2026-04-25T08:16:09.999Z</time></trkpt><trkpt lat="45.7141846061672" lon="8.87976762752761"><ele>293.0</ele><time>2026-04-25T08:16:10.999Z</time></trkpt><trkpt lat="45.71437250938422" lon="8.879732056883936"><ele>293.0</ele><time>2026-04-25T08:16:11.999Z</time></trkpt><trkpt lat="45.7145697122515" lon="8.87969421633851"><ele>293.0</ele><time>2026-04-25T08:16:12.999Z</time></trkpt><trkpt lat="45.71477022922864" lon="8.879655446720058"><ele>293.33333333333337</ele><time>2026-04-25T08:16:13.999Z</time></trkpt><trkpt lat="45.71496908305167" lon="8.879615209524538"><ele>293.6666666666667</ele><time>2026-04-25T08:16:14.999Z</time></trkpt><trkpt lat="45.715167952289306" lon="8.879577267844644"><ele>294.0</ele><time>2026-04-25T08:16:15.999Z</time></trkpt><trkpt lat="45.715361603534184" lon="8.8795404001691"><ele>294.3333333333333</ele><time>2026-04-25T08:16:16.999Z</time></trkpt><trkpt lat="45.71553843416212" lon="8.87950573325065"><ele>294.66666666666663</ele><time>2026-04-25T08:16:17.999Z</time></trkpt><trkpt lat="45.715693104519836" lon="8.879478073254084"><ele>295.0</ele><time>2026-04-25T08:16:18.999Z</time></trkpt><trkpt lat="45.715824355899244" lon="8.879453478848456"><ele>295.0</ele><time>2026-04-25T08:16:19.999Z</time></trkpt><trkpt lat="45.715936066818514" lon="8.879431333857664"><ele>295.0</ele><time>2026-04-25T08:16:20.999Z</time></trkpt><trkpt lat="45.71602402883217" lon="8.879414802391693"><ele>295.0</ele><time>2026-04-25T08:16:21.999Z</time></trkpt><trkpt lat="45.71610933565209" lon="8.879413336098562"><ele>295.0</ele><time>2026-04-25T08:16:22.999Z</time></trkpt><trkpt lat="45.716203028883754" lon="8.879438805997484"><ele>295.0</ele><time>2026-04-25T08:16:23.999Z</time></trkpt><trkpt lat="45.7163077874224" lon="8.879420127479316"><ele>295.0</ele><time>2026-04-25T08:16:24.999Z</time></trkpt><trkpt lat="45.71642470820673" lon="8.879342433623998"><ele>295.0</ele><time>2026-04-25T08:16:25.999Z</time></trkpt><trkpt lat="45.716578839266184" lon="8.87928596677689"><ele>295.0</ele><time>2026-04-25T08:16:26.999Z</time></trkpt><trkpt lat="45.71677200206288" lon="8.879257213881244"><ele>296.0</ele><time>2026-04-25T08:16:27.999Z</time></trkpt><trkpt lat="45.71700281257955" lon="8.879218055613315"><ele>297.0</ele><time>2026-04-25T08:16:28.999Z</time></trkpt><trkpt lat="45.71726185896051" lon="8.879169300094183"><ele>297.0</ele><time>2026-04-25T08:16:29.999Z</time></trkpt><trkpt lat="45.71751474970237" lon="8.879120288258866"><ele>297.0</ele><time>2026-04-25T08:16:30.999Z</time></trkpt><trkpt lat="45.71779881383673" lon="8.87906036428079"><ele>297.0</ele><time>2026-04-25T08:16:31.999Z</time></trkpt><trkpt lat="45.71808347593397" lon="8.879000003498307"><ele>297.0</ele><time>2026-04-25T08:16:32.999Z</time></trkpt><trkpt lat="45.71836606023549" lon="8.8789453106421"><ele>297.5</ele><time>2026-04-25T08:16:33.999Z</time></trkpt><trkpt lat="45.71862634769132" lon="8.878897302152932"><ele>298.0</ele><time>2026-04-25T08:16:34.999Z</time></trkpt><trkpt lat="45.7188709834971" lon="8.878852791272475"><ele>298.0</ele><time>2026-04-25T08:16:35.999Z</time></trkpt><trkpt lat="45.719105154137715" lon="8.878814698174152"><ele>298.0</ele><time>2026-04-25T08:16:36.999Z</time></trkpt><trkpt lat="45.71932784702388" lon="8.878790086470705"><ele>300.0</ele><time>2026-04-25T08:16:37.999Z</time></trkpt><trkpt lat="45.71955195308954" lon="8.878782020383484"><ele>302.0</ele><time>2026-04-25T08:16:38.999Z</time></trkpt><trkpt lat="45.71977836392216" lon="8.878797367399775"><ele>302.0</ele><time>2026-04-25T08:16:39.999Z</time></trkpt><trkpt lat="45.71999724625016" lon="8.87883520423137"><ele>302.0</ele><time>2026-04-25T08:16:40.999Z</time></trkpt><trkpt lat="45.72021110673707" lon="8.878900722387305"><ele>302.0</ele><time>2026-04-25T08:16:41.999Z</time></trkpt><trkpt lat="45.72044280751523" lon="8.878994904972322"><ele>300.0</ele><time>2026-04-25T08:16:42.999Z</time></trkpt><trkpt lat="45.720692972008685" lon="8.879102494254887"><ele>298.0</ele><time>2026-04-25T08:16:43.999Z</time></trkpt><trkpt lat="45.72093492438203" lon="8.879209954912868"><ele>299.0</ele><time>2026-04-25T08:16:44.999Z</time></trkpt><trkpt lat="45.72116998433807" lon="8.879303879089477"><ele>300.0</ele><time>2026-04-25T08:16:45.999Z</time></trkpt><trkpt lat="45.721403735307355" lon="8.879394067791733"><ele>300.0</ele><time>2026-04-25T08:16:46.999Z</time></trkpt><trkpt lat="45.72162519147248" lon="8.879486792427947"><ele>300.0</ele><time>2026-04-25T08:16:47.999Z</time></trkpt><trkpt lat="45.721834118017064" lon="8.879580502447524"><ele>300.0</ele><time>2026-04-25T08:16:48.999Z</time></trkpt><trkpt lat="45.7220319278578" lon="8.879663674151768"><ele>300.0</ele><time>2026-04-25T08:16:49.999Z</time></trkpt><trkpt lat="45.72221945893623" lon="8.879740615328267"><ele>300.0</ele><time>2026-04-25T08:16:50.999Z</time></trkpt><trkpt lat="45.72239614608997" lon="8.879811924968063"><ele>300.0</ele><time>2026-04-25T08:16:51.999Z</time></trkpt><trkpt lat="45.722561997326586" lon="8.879877024175691"><ele>300.0</ele><time>2026-04-25T08:16:52.999Z</time></trkpt><trkpt lat="45.722723104511864" lon="8.879938730651721"><ele>300.0</ele><time>2026-04-25T08:16:53.999Z</time></trkpt><trkpt lat="45.72287940498605" lon="8.879998164806318"><ele>300.0</ele><time>2026-04-25T08:16:54.999Z</time></trkpt><trkpt lat="45.723042625693466" lon="8.880060472271378"><ele>300.0</ele><time>2026-04-25T08:16:55.999Z</time></trkpt><trkpt lat="45.72320961444837" lon="8.880130412368294"><ele>300.0</ele><time>2026-04-25T08:16:56.999Z</time></trkpt><trkpt lat="45.72336701490048" lon="8.880204388457997"><ele>300.0</ele><time>2026-04-25T08:16:57.999Z</time></trkpt><trkpt lat="45.72351175249296" lon="8.880281144328865"><ele>300.0</ele><time>2026-04-25T08:16:58.999Z</time></trkpt><trkpt lat="45.723649010217486" lon="8.880361630649869"><ele>300.0</ele><time>2026-04-25T08:16:59.999Z</time></trkpt><trkpt lat="45.723776254249906" lon="8.880441662921234"><ele>300.0</ele><time>2026-04-25T08:17:00.999Z</time></trkpt><trkpt lat="45.72390192394353" lon="8.880523771891795"><ele>299.5</ele><time>2026-04-25T08:17:02Z</time></trkpt><trkpt lat="45.724025980717194" lon="8.88060851886152"><ele>299.0</ele><time>2026-04-25T08:17:03Z</time></trkpt><trkpt lat="45.72413951792738" lon="8.880690524962018"><ele>298.5</ele><time>2026-04-25T08:17:04Z</time></trkpt><trkpt lat="45.724248949583945" lon="8.880767489608594"><ele>298.0</ele><time>2026-04-25T08:17:05Z</time></trkpt><trkpt lat="45.724352505395636" lon="8.880839503665165"><ele>297.8</ele><time>2026-04-25T08:17:06Z</time></trkpt><trkpt lat="45.72445381282132" lon="8.880909294523576"><ele>297.6</ele><time>2026-04-25T08:17:07Z</time></trkpt><trkpt lat="45.724548323855785" lon="8.88097453888495"><ele>297.4</ele><time>2026-04-25T08:17:08Z</time></trkpt><trkpt lat="45.724635526761794" lon="8.881040091415345"><ele>297.2</ele><time>2026-04-25T08:17:09Z</time></trkpt><trkpt lat="45.72470774790632" lon="8.881101519949093"><ele>297.0</ele><time>2026-04-25T08:17:10Z</time></trkpt><trkpt lat="45.72477269517181" lon="8.88116670778937"><ele>297.8333333333333</ele><time>2026-04-25T08:17:11Z</time></trkpt><trkpt lat="45.72481931735684" lon="8.881237464533296"><ele>298.6666666666667</ele><time>2026-04-25T08:17:13Z</time></trkpt><trkpt lat="45.72487058727185" lon="8.88135574307982"><ele>299.5</ele><time>2026-04-25T08:17:16Z</time></trkpt><trkpt lat="45.724916850736435" lon="8.881445224566459"><ele>300.33333333333337</ele><time>2026-04-25T08:17:17Z</time></trkpt><trkpt lat="45.72499514216491" lon="8.881507254084603"><ele>301.1666666666667</ele><time>2026-04-25T08:17:18Z</time></trkpt><trkpt lat="45.725096020057016" lon="8.881516694924835"><ele>302.0</ele><time>2026-04-25T08:17:19Z</time></trkpt><trkpt lat="45.72520671858326" lon="8.881497591882686"><ele>302.25</ele><time>2026-04-25T08:17:20Z</time></trkpt><trkpt lat="45.725330402857004" lon="8.881517381271767"><ele>302.5</ele><time>2026-04-25T08:17:21Z</time></trkpt><trkpt lat="45.725456728002946" lon="8.881586114276804"><ele>302.75</ele><time>2026-04-25T08:17:22Z</time></trkpt><trkpt lat="45.725581837284686" lon="8.881672336572237"><ele>303.0</ele><time>2026-04-25T08:17:23Z</time></trkpt><trkpt lat="45.725714105661005" lon="8.88176244065774"><ele>303.0</ele><time>2026-04-25T08:17:24Z</time></trkpt><trkpt lat="45.72583907258091" lon="8.881842290586516"><ele>303.0</ele><time>2026-04-25T08:17:25Z</time></trkpt><trkpt lat="45.725945369490354" lon="8.881913071456845"><ele>303.0</ele><time>2026-04-25T08:17:26Z</time></trkpt><trkpt lat="45.72603916907568" lon="8.881975163934724"><ele>303.0</ele><time>2026-04-25T08:17:27Z</time></trkpt><trkpt lat="45.72614286104989" lon="8.882042762253219"><ele>303.0</ele><time>2026-04-25T08:17:28Z</time></trkpt><trkpt lat="45.72625727995241" lon="8.88211879477844"><ele>303.0</ele><time>2026-04-25T08:17:29Z</time></trkpt><trkpt lat="45.72637141098432" lon="8.882193002882174"><ele>303.0</ele><time>2026-04-25T08:17:30Z</time></trkpt><trkpt lat="45.72646619148349" lon="8.882255019094444"><ele>303.0</ele><time>2026-04-25T08:17:31Z</time></trkpt><trkpt lat="45.72654901087787" lon="8.882306621863671"><ele>303.0</ele><time>2026-04-25T08:17:32Z</time></trkpt><trkpt lat="45.726618660909615" lon="8.882341237142079"><ele>303.0</ele><time>2026-04-25T08:17:33Z</time></trkpt><trkpt lat="45.72668708933401" lon="8.882388055755543"><ele>303.0</ele><time>2026-04-25T08:17:34Z</time></trkpt><trkpt lat="45.72676148187473" lon="8.882429302510584"><ele>303.0</ele><time>2026-04-25T08:17:35Z</time></trkpt><trkpt lat="45.72682611338223" lon="8.882494421823196"><ele>303.0</ele><time>2026-04-25T08:17:36Z</time></trkpt><trkpt lat="45.72695851357669" lon="8.882575574695169"><ele>303.0</ele><time>2026-04-25T08:17:37Z</time></trkpt><trkpt lat="45.72704353657968" lon="8.882633457510053"><ele>302.8</ele><time>2026-04-25T08:17:38Z</time></trkpt><trkpt lat="45.727132034138485" lon="8.882691677782008"><ele>302.6</ele><time>2026-04-25T08:17:39Z</time></trkpt><trkpt lat="45.727211910643106" lon="8.88274846018158"><ele>302.4</ele><time>2026-04-25T08:17:40Z</time></trkpt><trkpt lat="45.72729340926704" lon="8.882802284652985"><ele>302.2</ele><time>2026-04-25T08:17:41Z</time></trkpt><trkpt lat="45.72738523318763" lon="8.88287018835251"><ele>302.0</ele><time>2026-04-25T08:17:42Z</time></trkpt><trkpt lat="45.72748427863924" lon="8.882939730789408"><ele>302.0</ele><time>2026-04-25T08:17:43Z</time></trkpt><trkpt lat="45.727580476941654" lon="8.88300754305767"><ele>302.0</ele><time>2026-04-25T08:17:44Z</time></trkpt><trkpt lat="45.72767673106519" lon="8.883072421300922"><ele>302.0</ele><time>2026-04-25T08:17:45Z</time></trkpt><trkpt lat="45.72777022156772" lon="8.883130193051079"><ele>302.0</ele><time>2026-04-25T08:17:46Z</time></trkpt><trkpt lat="45.72786544647476" lon="8.883192431953686"><ele>302.0</ele><time>2026-04-25T08:17:47Z</time></trkpt><trkpt lat="45.72795673416575" lon="8.88325982563779"><ele>302.4</ele><time>2026-04-25T08:17:48Z</time></trkpt><trkpt lat="45.72805245800609" lon="8.883320107826124"><ele>302.79999999999995</ele><time>2026-04-25T08:17:49Z</time></trkpt><trkpt lat="45.728146623120686" lon="8.883386135913833"><ele>303.2</ele><time>2026-04-25T08:17:50Z</time></trkpt><trkpt lat="45.72824354913099" lon="8.883446940783985"><ele>303.59999999999997</ele><time>2026-04-25T08:17:51Z</time></trkpt><trkpt lat="45.72833088250456" lon="8.883507804000534"><ele>304.0</ele><time>2026-04-25T08:17:52Z</time></trkpt><trkpt lat="45.72840948931306" lon="8.883575938374115"><ele>304.3333333333333</ele><time>2026-04-25T08:17:53Z</time></trkpt><trkpt lat="45.728474655277815" lon="8.883632873940986"><ele>304.66666666666663</ele><time>2026-04-25T08:17:53.999Z</time></trkpt><trkpt lat="45.728532330761674" lon="8.88367713233045"><ele>305.0</ele><time>2026-04-25T08:17:54.999Z</time></trkpt><trkpt lat="45.72860394797429" lon="8.883726616125047"><ele>305.3333333333333</ele><time>2026-04-25T08:17:55.999Z</time></trkpt><trkpt lat="45.72867955936625" lon="8.883793726071"><ele>305.6666666666667</ele><time>2026-04-25T08:17:56.999Z</time></trkpt><trkpt lat="45.728740796537274" lon="8.883907219424227"><ele>306.0</ele><time>2026-04-25T08:17:57.999Z</time></trkpt><trkpt lat="45.72878971366796" lon="8.88403997050351"><ele>306.3333333333333</ele><time>2026-04-25T08:17:58.999Z</time></trkpt><trkpt lat="45.728838424727044" lon="8.884174689061863"><ele>306.6666666666667</ele><time>2026-04-25T08:17:59.999Z</time></trkpt><trkpt lat="45.7288780838743" lon="8.884281987440454"><ele>307.0</ele><time>2026-04-25T08:18:00.999Z</time></trkpt><trkpt lat="45.72891036562295" lon="8.884370912074349"><ele>307.33333333333337</ele><time>2026-04-25T08:18:01.999Z</time></trkpt><trkpt lat="45.72895869886017" lon="8.884477167149312"><ele>307.6666666666667</ele><time>2026-04-25T08:18:03.999Z</time></trkpt><trkpt lat="45.72901041026181" lon="8.884576386549615"><ele>308.0</ele><time>2026-04-25T08:18:05.999Z</time></trkpt><trkpt lat="45.72908400826212" lon="8.884726393388249"><ele>308.2</ele><time>2026-04-25T08:18:07.999Z</time></trkpt><trkpt lat="45.72913546876733" lon="8.884826308147064"><ele>308.4</ele><time>2026-04-25T08:18:08.999Z</time></trkpt><trkpt lat="45.72919356069463" lon="8.884937643896258"><ele>308.59999999999997</ele><time>2026-04-25T08:18:09.999Z</time></trkpt><trkpt lat="45.729260166375056" lon="8.885068100108045"><ele>308.8</ele><time>2026-04-25T08:18:10.999Z</time></trkpt><trkpt lat="45.7293252090447" lon="8.885208889947211"><ele>309.0</ele><time>2026-04-25T08:18:11.999Z</time></trkpt><trkpt lat="45.72938565860467" lon="8.885336291234916"><ele>308.6666666666667</ele><time>2026-04-25T08:18:12.999Z</time></trkpt><trkpt lat="45.72943879761308" lon="8.885436326458688"><ele>308.3333333333333</ele><time>2026-04-25T08:18:13.999Z</time></trkpt><trkpt lat="45.72949102994521" lon="8.88553949779334"><ele>308.0</ele><time>2026-04-25T08:18:14.999Z</time></trkpt><trkpt lat="45.729546779534004" lon="8.885647440281764"><ele>307.66666666666663</ele><time>2026-04-25T08:18:15.999Z</time></trkpt><trkpt lat="45.72959748202435" lon="8.885738794944185"><ele>307.3333333333333</ele><time>2026-04-25T08:18:16.999Z</time></trkpt><trkpt lat="45.72964110792063" lon="8.88582722967613"><ele>307.0</ele><time>2026-04-25T08:18:17.999Z</time></trkpt><trkpt lat="45.72968705593001" lon="8.885893983221347"><ele>307.2</ele><time>2026-04-25T08:18:18.999Z</time></trkpt><trkpt lat="45.72976505740551" lon="8.886019061100006"><ele>307.4</ele><time>2026-04-25T08:18:20.999Z</time></trkpt><trkpt lat="45.729813194974184" lon="8.886109792869167"><ele>307.6</ele><time>2026-04-25T08:18:21.999Z</time></trkpt><trkpt lat="45.729859698298114" lon="8.886225304379243"><ele>307.8</ele><time>2026-04-25T08:18:23.999Z</time></trkpt><trkpt lat="45.72987413704468" lon="8.886338948432938"><ele>308.0</ele><time>2026-04-25T08:18:26.999Z</time></trkpt><trkpt lat="45.729933087943344" lon="8.886535290219165"><ele>308.0</ele><time>2026-04-25T08:18:28.999Z</time></trkpt><trkpt lat="45.72999767187063" lon="8.886612274012705"><ele>308.0</ele><time>2026-04-25T08:18:29.999Z</time></trkpt><trkpt lat="45.73004276764067" lon="8.886681482130236"><ele>308.0</ele><time>2026-04-25T08:18:30.999Z</time></trkpt><trkpt lat="45.73008616857936" lon="8.886747131392083"><ele>308.0</ele><time>2026-04-25T08:18:31.999Z</time></trkpt><trkpt lat="45.73014148875226" lon="8.886844313857601"><ele>308.0</ele><time>2026-04-25T08:18:32.999Z</time></trkpt><trkpt lat="45.73020287827499" lon="8.8869501825442"><ele>308.0</ele><time>2026-04-25T08:18:33.999Z</time></trkpt><trkpt lat="45.730255370356566" lon="8.887043992529405"><ele>308.4</ele><time>2026-04-25T08:18:34.999Z</time></trkpt><trkpt lat="45.73030018515109" lon="8.887128122750916"><ele>308.8</ele><time>2026-04-25T08:18:35.999Z</time></trkpt><trkpt lat="45.73035467204496" lon="8.887229359982387"><ele>309.2</ele><time>2026-04-25T08:18:36.999Z</time></trkpt><trkpt lat="45.73040878828832" lon="8.887355264775268"><ele>309.6</ele><time>2026-04-25T08:18:37.999Z</time></trkpt><trkpt lat="45.730471689643565" lon="8.887480651085179"><ele>310.0</ele><time>2026-04-25T08:18:38.999Z</time></trkpt><trkpt lat="45.730526072213664" lon="8.8875972596751"><ele>310.0</ele><time>2026-04-25T08:18:39.999Z</time></trkpt><trkpt lat="45.73057227978638" lon="8.887685141499011"><ele>310.0</ele><time>2026-04-25T08:18:40.999Z</time></trkpt><trkpt lat="45.73061940776007" lon="8.887764833642555"><ele>310.0</ele><time>2026-04-25T08:18:41.999Z</time></trkpt><trkpt lat="45.73067266538031" lon="8.887904508127084"><ele>310.0</ele><time>2026-04-25T08:18:42.999Z</time></trkpt><trkpt lat="45.73076591211279" lon="8.888090339381641"><ele>310.0</ele><time>2026-04-25T08:18:43.999Z</time></trkpt><trkpt lat="45.73089491771869" lon="8.888314169968229"><ele>310.3333333333333</ele><time>2026-04-25T08:18:44.999Z</time></trkpt><trkpt lat="45.730999205108596" lon="8.888539451192074"><ele>310.6666666666667</ele><time>2026-04-25T08:18:45.999Z</time></trkpt><trkpt lat="45.731081637015684" lon="8.888707575709976"><ele>311.0</ele><time>2026-04-25T08:18:46.999Z</time></trkpt><trkpt lat="45.73115385185827" lon="8.888854027532819"><ele>311.75</ele><time>2026-04-25T08:18:47.999Z</time></trkpt><trkpt lat="45.731218837574424" lon="8.88897545321942"><ele>312.5</ele><time>2026-04-25T08:18:48.999Z</time></trkpt><trkpt lat="45.73127992184549" lon="8.889088368254638"><ele>313.25</ele><time>2026-04-25T08:18:49.999Z</time></trkpt><trkpt lat="45.73135070187745" lon="8.889227729242164"><ele>314.0</ele><time>2026-04-25T08:18:50.999Z</time></trkpt><trkpt lat="45.731435807720075" lon="8.889386881674096"><ele>315.6666666666667</ele><time>2026-04-25T08:18:51.999Z</time></trkpt><trkpt lat="45.73154828369255" lon="8.889581695157581"><ele>317.3333333333333</ele><time>2026-04-25T08:18:52.999Z</time></trkpt><trkpt lat="45.73167415368676" lon="8.889787409283837"><ele>319.0</ele><time>2026-04-25T08:18:53.999Z</time></trkpt><trkpt lat="45.73178679768534" lon="8.889961136718322"><ele>319.0</ele><time>2026-04-25T08:18:54.999Z</time></trkpt><trkpt lat="45.73188345803832" lon="8.89009073855959"><ele>319.0</ele><time>2026-04-25T08:18:55.999Z</time></trkpt><trkpt lat="45.73196699606293" lon="8.890208718919446"><ele>319.0</ele><time>2026-04-25T08:18:56.999Z</time></trkpt><trkpt lat="45.73204965795051" lon="8.890297098106306"><ele>319.0</ele><time>2026-04-25T08:18:57.999Z</time></trkpt><trkpt lat="45.7321667558204" lon="8.89037881352112"><ele>319.25</ele><time>2026-04-25T08:18:58.999Z</time></trkpt><trkpt lat="45.732281630457784" lon="8.890453923739035"><ele>319.5</ele><time>2026-04-25T08:18:59.999Z</time></trkpt><trkpt lat="45.73238523391903" lon="8.890524297880479"><ele>319.75</ele><time>2026-04-25T08:19:00.999Z</time></trkpt><trkpt lat="45.732486772546565" lon="8.89059076597791"><ele>320.0</ele><time>2026-04-25T08:19:01.999Z</time></trkpt><trkpt lat="45.732590671197606" lon="8.890657243844737"><ele>320.0</ele><time>2026-04-25T08:19:02.999Z</time></trkpt><trkpt lat="45.73269166350053" lon="8.89072331537185"><ele>320.0</ele><time>2026-04-25T08:19:03.999Z</time></trkpt><trkpt lat="45.732813640599076" lon="8.89080973227953"><ele>320.0</ele><time>2026-04-25T08:19:04.999Z</time></trkpt><trkpt lat="45.73287566925604" lon="8.89084456783246"><ele>320.0</ele><time>2026-04-25T08:19:05.999Z</time></trkpt><trkpt lat="45.73295619915103" lon="8.890902070074466"><ele>320.0</ele><time>2026-04-25T08:19:06.999Z</time></trkpt><trkpt lat="45.73302740026029" lon="8.890966423727722"><ele>320.1666666666667</ele><time>2026-04-25T08:19:08Z</time></trkpt><trkpt lat="45.73309973535744" lon="8.891042987538922"><ele>320.33333333333337</ele><time>2026-04-25T08:19:09Z</time></trkpt><trkpt lat="45.73316582999674" lon="8.891124347530695"><ele>320.5</ele><time>2026-04-25T08:19:10Z</time></trkpt><trkpt lat="45.73322430738483" lon="8.89121119994595"><ele>320.6666666666667</ele><time>2026-04-25T08:19:11Z</time></trkpt><trkpt lat="45.733271515546065" lon="8.891290777999535"><ele>320.8333333333333</ele><time>2026-04-25T08:19:12Z</time></trkpt><trkpt lat="45.73331445158699" lon="8.891378061644867"><ele>321.0</ele><time>2026-04-25T08:19:13Z</time></trkpt><trkpt lat="45.73334508966757" lon="8.89145852915161"><ele>320.99999999999994</ele><time>2026-04-25T08:19:14Z</time></trkpt><trkpt lat="45.73337468803175" lon="8.891551253239452"><ele>321.0</ele><time>2026-04-25T08:19:15Z</time></trkpt><trkpt lat="45.7334186959206" lon="8.891637381013313"><ele>321.0</ele><time>2026-04-25T08:19:16Z</time></trkpt><trkpt lat="45.7334889000945" lon="8.891666917790321"><ele>321.0</ele><time>2026-04-25T08:19:17Z</time></trkpt><trkpt lat="45.73355381403475" lon="8.891630064754446"><ele>321.0</ele><time>2026-04-25T08:19:18Z</time></trkpt><trkpt lat="45.73359797638312" lon="8.89152805651386"><ele>320.99999999999994</ele><time>2026-04-25T08:19:19Z</time></trkpt><trkpt lat="45.73358116799574" lon="8.891423998439484"><ele>321.0</ele><time>2026-04-25T08:19:20Z</time></trkpt><trkpt lat="45.73352505008086" lon="8.891348455305522"><ele>321.0</ele><time>2026-04-25T08:19:21Z</time></trkpt><trkpt lat="45.73344925765633" lon="8.891296204401481"><ele>321.0</ele><time>2026-04-25T08:19:22Z</time></trkpt><trkpt lat="45.73335452356119" lon="8.89124404816382"><ele>321.0</ele><time>2026-04-25T08:19:23Z</time></trkpt><trkpt lat="45.733249031437964" lon="8.891169362229942"><ele>321.0</ele><time>2026-04-25T08:19:24Z</time></trkpt><trkpt lat="45.73313989783375" lon="8.891056528867276"><ele>321.0</ele><time>2026-04-25T08:19:25Z</time></trkpt><trkpt lat="45.73305186853142" lon="8.890950038825055"><ele>321.25</ele><time>2026-04-25T08:19:26Z</time></trkpt><trkpt lat="45.732961320058834" lon="8.890854480331765"><ele>321.5</ele><time>2026-04-25T08:19:27Z</time></trkpt><trkpt lat="45.73284206690289" lon="8.890769800974391"><ele>321.75</ele><time>2026-04-25T08:19:28Z</time></trkpt><trkpt lat="45.7326828065835" lon="8.890678101650623"><ele>322.0</ele><time>2026-04-25T08:19:29Z</time></trkpt><trkpt lat="45.73251676269815" lon="8.89057739756224"><ele>321.3333333333333</ele><time>2026-04-25T08:19:30Z</time></trkpt><trkpt lat="45.7323713836778" lon="8.890482484580863"><ele>320.6666666666667</ele><time>2026-04-25T08:19:31Z</time></trkpt><trkpt lat="45.73223646823633" lon="8.890391285612624"><ele>320.0</ele><time>2026-04-25T08:19:32Z</time></trkpt><trkpt lat="45.732112308426714" lon="8.890296131710876"><ele>320.0</ele><time>2026-04-25T08:19:33Z</time></trkpt><trkpt lat="45.73199734470742" lon="8.890193117715613"><ele>320.0</ele><time>2026-04-25T08:19:34Z</time></trkpt><trkpt lat="45.73189800935017" lon="8.890073323432992"><ele>320.0</ele><time>2026-04-25T08:19:35Z</time></trkpt><trkpt lat="45.7318083812217" lon="8.88993968661306"><ele>320.0</ele><time>2026-04-25T08:19:36Z</time></trkpt><trkpt lat="45.73172652411662" lon="8.889808678725942"><ele>319.75</ele><time>2026-04-25T08:19:37Z</time></trkpt><trkpt lat="45.73164983771238" lon="8.889669942590203"><ele>319.5</ele><time>2026-04-25T08:19:38Z</time></trkpt><trkpt lat="45.73157056362265" lon="8.889545566700951"><ele>319.25</ele><time>2026-04-25T08:19:39Z</time></trkpt><trkpt lat="45.73149021017627" lon="8.889418792784419"><ele>319.0</ele><time>2026-04-25T08:19:40Z</time></trkpt><trkpt lat="45.73141208316051" lon="8.889284935564621"><ele>317.75</ele><time>2026-04-25T08:19:41Z</time></trkpt><trkpt lat="45.731334388795524" lon="8.889149277606467"><ele>316.5</ele><time>2026-04-25T08:19:42Z</time></trkpt><trkpt lat="45.7312606712726" lon="8.889013158979758"><ele>315.25</ele><time>2026-04-25T08:19:43Z</time></trkpt><trkpt lat="45.73119199973908" lon="8.888880500096352"><ele>314.0</ele><time>2026-04-25T08:19:44Z</time></trkpt><trkpt lat="45.73112541489311" lon="8.88874649405869"><ele>314.0</ele><time>2026-04-25T08:19:45Z</time></trkpt><trkpt lat="45.731059320783324" lon="8.888616491518285"><ele>314.0</ele><time>2026-04-25T08:19:46Z</time></trkpt><trkpt lat="45.73099600262948" lon="8.888493305287309"><ele>314.0</ele><time>2026-04-25T08:19:47Z</time></trkpt><trkpt lat="45.73093460510493" lon="8.888369435946469"><ele>314.0</ele><time>2026-04-25T08:19:48Z</time></trkpt><trkpt lat="45.730871911052795" lon="8.88824000117001"><ele>314.0</ele><time>2026-04-25T08:19:49Z</time></trkpt><trkpt lat="45.73080818278157" lon="8.888108138819653"><ele>313.33333333333337</ele><time>2026-04-25T08:19:50Z</time></trkpt><trkpt lat="45.73074669578039" lon="8.887990708341595"><ele>312.6666666666667</ele><time>2026-04-25T08:19:51Z</time></trkpt><trkpt lat="45.73069047935876" lon="8.887882597382996"><ele>312.0</ele><time>2026-04-25T08:19:52Z</time></trkpt><trkpt lat="45.73063995704724" lon="8.887782018640532"><ele>311.3333333333333</ele><time>2026-04-25T08:19:53Z</time></trkpt><trkpt lat="45.73059248856973" lon="8.887685410232022"><ele>310.66666666666663</ele><time>2026-04-25T08:19:54Z</time></trkpt><trkpt lat="45.7305483444895" lon="8.887593270561089"><ele>310.0</ele><time>2026-04-25T08:19:55Z</time></trkpt><trkpt lat="45.73050598496566" lon="8.88750325014055"><ele>310.0</ele><time>2026-04-25T08:19:56Z</time></trkpt><trkpt lat="45.73046597792948" lon="8.887420255623375"><ele>310.0</ele><time>2026-04-25T08:19:57Z</time></trkpt><trkpt lat="45.73042653782474" lon="8.887343317255317"><ele>310.0</ele><time>2026-04-25T08:19:58Z</time></trkpt><trkpt lat="45.730363441106384" lon="8.887213032872353"><ele>310.0</ele><time>2026-04-25T08:19:59.999Z</time></trkpt><trkpt lat="45.73032492069389" lon="8.88713529457136"><ele>310.0</ele><time>2026-04-25T08:20:01.999Z</time></trkpt><trkpt lat="45.73028247295785" lon="8.887058064526647"><ele>310.0</ele><time>2026-04-25T08:20:05.999Z</time></trkpt><trkpt lat="45.73023442889415" lon="8.886956925110962"><ele>309.8333333333333</ele><time>2026-04-25T08:20:12.999Z</time></trkpt><trkpt lat="45.73020174236338" lon="8.886873174979039"><ele>309.66666666666663</ele><time>2026-04-25T08:20:25.999Z</time></trkpt><trkpt lat="45.73015570948771" lon="8.886781371010844"><ele>309.5</ele><time>2026-04-25T08:20:34.999Z</time></trkpt><trkpt lat="45.73012249625672" lon="8.886661290092848"><ele>309.3333333333333</ele><time>2026-04-25T08:20:37.999Z</time></trkpt><trkpt lat="45.730132808205816" lon="8.88653776265685"><ele>309.1666666666667</ele><time>2026-04-25T08:20:41.999Z</time></trkpt><trkpt lat="45.73017248264063" lon="8.886454284170481"><ele>309.0</ele><time>2026-04-25T08:20:42.999Z</time></trkpt><trkpt lat="45.73024599697511" lon="8.88632165496526"><ele>309.5</ele><time>2026-04-25T08:20:43.999Z</time></trkpt><trkpt lat="45.73033046127967" lon="8.886207899243034"><ele>310.0</ele><time>2026-04-25T08:20:44.999Z</time></trkpt><trkpt lat="45.73042815774383" lon="8.88611978950029"><ele>310.5</ele><time>2026-04-25T08:20:45.999Z</time></trkpt><trkpt lat="45.730543708686" lon="8.886041783202957"><ele>311.0</ele><time>2026-04-25T08:20:46.999Z</time></trkpt><trkpt lat="45.730677045448374" lon="8.885950684553773"><ele>310.75</ele><time>2026-04-25T08:20:47.999Z</time></trkpt><trkpt lat="45.73080229551681" lon="8.885851119723162"><ele>310.5</ele><time>2026-04-25T08:20:48.999Z</time></trkpt><trkpt lat="45.73090876553608" lon="8.885755272692114"><ele>310.25</ele><time>2026-04-25T08:20:49.999Z</time></trkpt><trkpt lat="45.730995900000394" lon="8.885663001165522"><ele>310.0</ele><time>2026-04-25T08:20:50.999Z</time></trkpt><trkpt lat="45.73109715086505" lon="8.885552989779056"><ele>309.75</ele><time>2026-04-25T08:20:51.999Z</time></trkpt><trkpt lat="45.73122017775958" lon="8.885433611905814"><ele>309.5</ele><time>2026-04-25T08:20:52.999Z</time></trkpt><trkpt lat="45.7313484855364" lon="8.885323266477272"><ele>309.25</ele><time>2026-04-25T08:20:53.999Z</time></trkpt><trkpt lat="45.73147143186029" lon="8.885219783350713"><ele>309.0</ele><time>2026-04-25T08:20:54.999Z</time></trkpt><trkpt lat="45.73158780899625" lon="8.885114811379902"><ele>309.25</ele><time>2026-04-25T08:20:55.999Z</time></trkpt><trkpt lat="45.73170647369134" lon="8.885011984406736"><ele>309.5</ele><time>2026-04-25T08:20:56.999Z</time></trkpt><trkpt lat="45.731832585603954" lon="8.88489325598364"><ele>309.75</ele><time>2026-04-25T08:20:57.999Z</time></trkpt><trkpt lat="45.73195797968612" lon="8.884770244693506"><ele>310.0</ele><time>2026-04-25T08:20:58.999Z</time></trkpt><trkpt lat="45.73208264050764" lon="8.884649176037145"><ele>310.25</ele><time>2026-04-25T08:20:59.999Z</time></trkpt><trkpt lat="45.73220528661444" lon="8.88453146522252"><ele>310.5</ele><time>2026-04-25T08:21:00.999Z</time></trkpt><trkpt lat="45.73232563947154" lon="8.8844208660799"><ele>310.75</ele><time>2026-04-25T08:21:01.999Z</time></trkpt><trkpt lat="45.73243948439925" lon="8.884317678357771"><ele>311.0</ele><time>2026-04-25T08:21:02.999Z</time></trkpt><trkpt lat="45.73254522924456" lon="8.88421738571882"><ele>311.0</ele><time>2026-04-25T08:21:03.999Z</time></trkpt><trkpt lat="45.73264706916176" lon="8.88412728148864"><ele>311.0</ele><time>2026-04-25T08:21:04.999Z</time></trkpt><trkpt lat="45.73274994457089" lon="8.884046935252114"><ele>311.0</ele><time>2026-04-25T08:21:05.999Z</time></trkpt><trkpt lat="45.732864710433645" lon="8.883972603029347"><ele>311.0</ele><time>2026-04-25T08:21:06.999Z</time></trkpt><trkpt lat="45.73298367017162" lon="8.883907190063512"><ele>311.5</ele><time>2026-04-25T08:21:07.999Z</time></trkpt><trkpt lat="45.73311168063444" lon="8.883854872195878"><ele>312.0</ele><time>2026-04-25T08:21:08.999Z</time></trkpt><trkpt lat="45.73324120845374" lon="8.883809793504762"><ele>312.5</ele><time>2026-04-25T08:21:09.999Z</time></trkpt><trkpt lat="45.73337592656186" lon="8.883772370604499"><ele>313.0</ele><time>2026-04-25T08:21:10.999Z</time></trkpt><trkpt lat="45.73350129880514" lon="8.883739013551159"><ele>313.75</ele><time>2026-04-25T08:21:11.999Z</time></trkpt><trkpt lat="45.73362469216347" lon="8.883707152051038"><ele>314.5</ele><time>2026-04-25T08:21:12.999Z</time></trkpt><trkpt lat="45.73374348097263" lon="8.883689804532061"><ele>315.25</ele><time>2026-04-25T08:21:14Z</time></trkpt><trkpt lat="45.73388162863004" lon="8.883646799940736"><ele>316.0</ele><time>2026-04-25T08:21:15Z</time></trkpt><trkpt lat="45.73401135964115" lon="8.883622688375766"><ele>316.0</ele><time>2026-04-25T08:21:16Z</time></trkpt><trkpt lat="45.734136374142054" lon="8.883592696667586"><ele>316.0</ele><time>2026-04-25T08:21:17Z</time></trkpt><trkpt lat="45.734257280920765" lon="8.88356149728173"><ele>316.0</ele><time>2026-04-25T08:21:18Z</time></trkpt><trkpt lat="45.73437322829303" lon="8.883535250828077"><ele>316.0</ele><time>2026-04-25T08:21:19Z</time></trkpt><trkpt lat="45.73449030618686" lon="8.883511223217589"><ele>316.5</ele><time>2026-04-25T08:21:20Z</time></trkpt><trkpt lat="45.734619305154546" lon="8.88348233358679"><ele>317.0</ele><time>2026-04-25T08:21:21Z</time></trkpt><trkpt lat="45.73473601075862" lon="8.883450022213292"><ele>317.5</ele><time>2026-04-25T08:21:22Z</time></trkpt><trkpt lat="45.73485577480942" lon="8.88342471357499"><ele>318.0</ele><time>2026-04-25T08:21:23Z</time></trkpt><trkpt lat="45.73496377164764" lon="8.883394241161207"><ele>316.25</ele><time>2026-04-25T08:21:24Z</time></trkpt><trkpt lat="45.7350723582063" lon="8.883368770832673"><ele>314.5</ele><time>2026-04-25T08:21:25Z</time></trkpt><trkpt lat="45.73518086709526" lon="8.883345619046937"><ele>312.75</ele><time>2026-04-25T08:21:26Z</time></trkpt><trkpt lat="45.73529477609919" lon="8.883323327821795"><ele>311.0</ele><time>2026-04-25T08:21:27Z</time></trkpt><trkpt lat="45.73541675600994" lon="8.883299032210505"><ele>311.0</ele><time>2026-04-25T08:21:28Z</time></trkpt><trkpt lat="45.73554789049981" lon="8.883273720570713"><ele>311.0</ele><time>2026-04-25T08:21:29Z</time></trkpt><trkpt lat="45.735659242009234" lon="8.883264767687734"><ele>311.0</ele><time>2026-04-25T08:21:30Z</time></trkpt><trkpt lat="45.735759593200356" lon="8.883260990136273"><ele>311.0</ele><time>2026-04-25T08:21:31Z</time></trkpt><trkpt lat="45.73583858068421" lon="8.8832778453066"><ele>311.0</ele><time>2026-04-25T08:21:32Z</time></trkpt><trkpt lat="45.735924295678" lon="8.883263456466743"><ele>311.0</ele><time>2026-04-25T08:21:33Z</time></trkpt><trkpt lat="45.73600797891644" lon="8.883246061758966"><ele>311.0</ele><time>2026-04-25T08:21:34Z</time></trkpt><trkpt lat="45.73612248655861" lon="8.883193320971817"><ele>311.0</ele><time>2026-04-25T08:21:35Z</time></trkpt><trkpt lat="45.73624461137777" lon="8.883116996062457"><ele>311.0</ele><time>2026-04-25T08:21:36Z</time></trkpt><trkpt lat="45.73636753910775" lon="8.88306804944584"><ele>312.0</ele><time>2026-04-25T08:21:37Z</time></trkpt><trkpt lat="45.736507607848004" lon="8.883039904486317"><ele>313.0</ele><time>2026-04-25T08:21:38Z</time></trkpt><trkpt lat="45.73666372661169" lon="8.88300294674327"><ele>314.0</ele><time>2026-04-25T08:21:39Z</time></trkpt><trkpt lat="45.73683939827749" lon="8.882960939160423"><ele>314.0</ele><time>2026-04-25T08:21:40Z</time></trkpt><trkpt lat="45.73703355022312" lon="8.8829116727142"><ele>314.0</ele><time>2026-04-25T08:21:41Z</time></trkpt><trkpt lat="45.73722875548503" lon="8.882880208487375"><ele>314.0</ele><time>2026-04-25T08:21:42Z</time></trkpt><trkpt lat="45.737397713329955" lon="8.88284755016023"><ele>314.0</ele><time>2026-04-25T08:21:43Z</time></trkpt><trkpt lat="45.73754196771854" lon="8.882812209846294"><ele>314.0</ele><time>2026-04-25T08:21:44Z</time></trkpt><trkpt lat="45.737679680034454" lon="8.882777459049523"><ele>314.0</ele><time>2026-04-25T08:21:45Z</time></trkpt><trkpt lat="45.7378265534889" lon="8.882751610146622"><ele>314.0</ele><time>2026-04-25T08:21:46Z</time></trkpt><trkpt lat="45.737956450615144" lon="8.882721089063965"><ele>315.0</ele><time>2026-04-25T08:21:47Z</time></trkpt><trkpt lat="45.73806872633456" lon="8.882694152377185"><ele>316.0</ele><time>2026-04-25T08:21:48Z</time></trkpt><trkpt lat="45.73817268577068" lon="8.882669585068978"><ele>317.0</ele><time>2026-04-25T08:21:49Z</time></trkpt><trkpt lat="45.738299810022305" lon="8.882639677813568"><ele>318.0</ele><time>2026-04-25T08:21:50Z</time></trkpt><trkpt lat="45.738421108336155" lon="8.882607137707074"><ele>317.5</ele><time>2026-04-25T08:21:51Z</time></trkpt><trkpt lat="45.73854710010476" lon="8.882575960889579"><ele>317.0</ele><time>2026-04-25T08:21:52Z</time></trkpt><trkpt lat="45.7386806052065" lon="8.882549110221227"><ele>316.5</ele><time>2026-04-25T08:21:53Z</time></trkpt><trkpt lat="45.738810122153055" lon="8.882521276815435"><ele>316.0</ele><time>2026-04-25T08:21:54Z</time></trkpt><trkpt lat="45.73894536008081" lon="8.882492374554204"><ele>316.0</ele><time>2026-04-25T08:21:55Z</time></trkpt><trkpt lat="45.73909268594157" lon="8.882464105304011"><ele>316.0</ele><time>2026-04-25T08:21:56Z</time></trkpt><trkpt lat="45.73922821182413" lon="8.882438796640756"><ele>316.0</ele><time>2026-04-25T08:21:57Z</time></trkpt><trkpt lat="45.7393696300672" lon="8.882399537148338"><ele>316.0</ele><time>2026-04-25T08:21:58Z</time></trkpt><trkpt lat="45.73951030775465" lon="8.882368711541956"><ele>316.5</ele><time>2026-04-25T08:21:59Z</time></trkpt><trkpt lat="45.739654604672914" lon="8.882326629738936"><ele>317.0</ele><time>2026-04-25T08:22:00Z</time></trkpt><trkpt lat="45.73978775545815" lon="8.882267730468373"><ele>317.5</ele><time>2026-04-25T08:22:01Z</time></trkpt><trkpt lat="45.73991456419486" lon="8.882182546600816"><ele>318.0</ele><time>2026-04-25T08:22:02Z</time></trkpt><trkpt lat="45.74003107166885" lon="8.882092549547313"><ele>318.0</ele><time>2026-04-25T08:22:03Z</time></trkpt><trkpt lat="45.740145779467156" lon="8.881994131622054"><ele>318.0</ele><time>2026-04-25T08:22:04Z</time></trkpt><trkpt lat="45.740257538580195" lon="8.881897062403137"><ele>318.0</ele><time>2026-04-25T08:22:05Z</time></trkpt><trkpt lat="45.740366819213705" lon="8.88180340595363"><ele>318.0</ele><time>2026-04-25T08:22:06Z</time></trkpt><trkpt lat="45.74047499213225" lon="8.881710766659012"><ele>317.5</ele><time>2026-04-25T08:22:07Z</time></trkpt><trkpt lat="45.74058730174625" lon="8.881614399161393"><ele>317.0</ele><time>2026-04-25T08:22:08Z</time></trkpt><trkpt lat="45.74070118036335" lon="8.881515994389577"><ele>316.5</ele><time>2026-04-25T08:22:09Z</time></trkpt><trkpt lat="45.74081245641922" lon="8.881423726808912"><ele>316.0</ele><time>2026-04-25T08:22:10Z</time></trkpt><trkpt lat="45.74092225131178" lon="8.8813317169697"><ele>316.0</ele><time>2026-04-25T08:22:10.999Z</time></trkpt><trkpt lat="45.74103526404219" lon="8.881234526102018"><ele>316.0</ele><time>2026-04-25T08:22:11.999Z</time></trkpt><trkpt lat="45.74115050900758" lon="8.881135554603022"><ele>316.0</ele><time>2026-04-25T08:22:12.999Z</time></trkpt><trkpt lat="45.74126921699925" lon="8.881036569228998"><ele>316.0</ele><time>2026-04-25T08:22:13.999Z</time></trkpt><trkpt lat="45.741376172284824" lon="8.880948280148411"><ele>316.8</ele><time>2026-04-25T08:22:14.999Z</time></trkpt><trkpt lat="45.741472991869955" lon="8.880867167183192"><ele>317.6</ele><time>2026-04-25T08:22:15.999Z</time></trkpt><trkpt lat="45.741563631442254" lon="8.880791069398047"><ele>318.4</ele><time>2026-04-25T08:22:16.999Z</time></trkpt><trkpt lat="45.741652328674334" lon="8.8807166009002"><ele>319.2</ele><time>2026-04-25T08:22:17.999Z</time></trkpt><trkpt lat="45.74175015678691" lon="8.88064498947411"><ele>320.0</ele><time>2026-04-25T08:22:18.999Z</time></trkpt><trkpt lat="45.74184870691669" lon="8.880575388309673"><ele>322.0</ele><time>2026-04-25T08:22:19.999Z</time></trkpt><trkpt lat="45.74195109667045" lon="8.880510724649355"><ele>324.0</ele><time>2026-04-25T08:22:20.999Z</time></trkpt><trkpt lat="45.742060016945196" lon="8.88045320801262"><ele>326.0</ele><time>2026-04-25T08:22:21.999Z</time></trkpt><trkpt lat="45.74217988842235" lon="8.880413385023626"><ele>328.0</ele><time>2026-04-25T08:22:22.999Z</time></trkpt><trkpt lat="45.74231696284715" lon="8.88038247320759"><ele>328.0</ele><time>2026-04-25T08:22:23.999Z</time></trkpt><trkpt lat="45.7424599786592" lon="8.880364113218707"><ele>328.0</ele><time>2026-04-25T08:22:24.999Z</time></trkpt><trkpt lat="45.74260698386875" lon="8.88035114730592"><ele>328.0</ele><time>2026-04-25T08:22:25.999Z</time></trkpt><trkpt lat="45.74275676049917" lon="8.880335031282387"><ele>328.0</ele><time>2026-04-25T08:22:26.999Z</time></trkpt><trkpt lat="45.74289572208361" lon="8.8803173594695"><ele>328.5</ele><time>2026-04-25T08:22:27.999Z</time></trkpt><trkpt lat="45.74302802589898" lon="8.8803015989581"><ele>329.0</ele><time>2026-04-25T08:22:28.999Z</time></trkpt><trkpt lat="45.743151992909716" lon="8.880288546739063"><ele>329.5</ele><time>2026-04-25T08:22:29.999Z</time></trkpt><trkpt lat="45.74327992314253" lon="8.8802729546007"><ele>330.0</ele><time>2026-04-25T08:22:30.999Z</time></trkpt><trkpt lat="45.743412020824714" lon="8.880254095472717"><ele>330.0</ele><time>2026-04-25T08:22:31.999Z</time></trkpt><trkpt lat="45.74354330621905" lon="8.880232213144241"><ele>330.0</ele><time>2026-04-25T08:22:32.999Z</time></trkpt><trkpt lat="45.74366428347418" lon="8.880213330923478"><ele>330.0</ele><time>2026-04-25T08:22:33.999Z</time></trkpt><trkpt lat="45.743779834361256" lon="8.880199042523987"><ele>330.0</ele><time>2026-04-25T08:22:34.999Z</time></trkpt><trkpt lat="45.74388887431135" lon="8.88019121025124"><ele>328.4</ele><time>2026-04-25T08:22:35.999Z</time></trkpt><trkpt lat="45.7439902140994" lon="8.880187943223948"><ele>326.8</ele><time>2026-04-25T08:22:36.999Z</time></trkpt><trkpt lat="45.74409118641861" lon="8.880204908019111"><ele>325.20000000000005</ele><time>2026-04-25T08:22:37.999Z</time></trkpt><trkpt lat="45.74419246234518" lon="8.880242018565754"><ele>323.6</ele><time>2026-04-25T08:22:38.999Z</time></trkpt><trkpt lat="45.74429965694947" lon="8.880287334159224"><ele>322.0</ele><time>2026-04-25T08:22:39.999Z</time></trkpt><trkpt lat="45.744399693152914" lon="8.880309085478041"><ele>320.75</ele><time>2026-04-25T08:22:40.999Z</time></trkpt><trkpt lat="45.74450163758403" lon="8.880264806228439"><ele>319.5</ele><time>2026-04-25T08:22:41.999Z</time></trkpt><trkpt lat="45.74460875035914" lon="8.880175948465775"><ele>318.25</ele><time>2026-04-25T08:22:42.999Z</time></trkpt><trkpt lat="45.7447415087827" lon="8.880101944728315"><ele>317.0</ele><time>2026-04-25T08:22:43.999Z</time></trkpt><trkpt lat="45.744894304142754" lon="8.880047782582697"><ele>316.75</ele><time>2026-04-25T08:22:44.999Z</time></trkpt><trkpt lat="45.74504945365707" lon="8.880001925450335"><ele>316.5</ele><time>2026-04-25T08:22:45.999Z</time></trkpt><trkpt lat="45.745196761053634" lon="8.879959925750677"><ele>316.25</ele><time>2026-04-25T08:22:46.999Z</time></trkpt><trkpt lat="45.745334984231015" lon="8.879921917422548"><ele>316.0</ele><time>2026-04-25T08:22:47.999Z</time></trkpt><trkpt lat="45.745464205204655" lon="8.879881128255404"><ele>316.0</ele><time>2026-04-25T08:22:48.999Z</time></trkpt><trkpt lat="45.74558084951868" lon="8.879840646510822"><ele>316.0</ele><time>2026-04-25T08:22:49.999Z</time></trkpt><trkpt lat="45.74569105318851" lon="8.879803121523212"><ele>316.0</ele><time>2026-04-25T08:22:50.999Z</time></trkpt><trkpt lat="45.74579462750109" lon="8.879763864907675"><ele>316.0</ele><time>2026-04-25T08:22:51.999Z</time></trkpt><trkpt lat="45.74589865410979" lon="8.879724129797143"><ele>316.0</ele><time>2026-04-25T08:22:52.999Z</time></trkpt><trkpt lat="45.74600869233585" lon="8.879683034294857"><ele>316.0</ele><time>2026-04-25T08:22:53.999Z</time></trkpt><trkpt lat="45.746128971262635" lon="8.879640024290895"><ele>316.0</ele><time>2026-04-25T08:22:54.999Z</time></trkpt><trkpt lat="45.74625028687091" lon="8.87960035079495"><ele>316.0</ele><time>2026-04-25T08:22:55.999Z</time></trkpt><trkpt lat="45.74636517011341" lon="8.879561875608426"><ele>316.0</ele><time>2026-04-25T08:22:56.999Z</time></trkpt><trkpt lat="45.74647667606396" lon="8.87952407483628"><ele>316.0</ele><time>2026-04-25T08:22:57.999Z</time></trkpt><trkpt lat="45.746582790467954" lon="8.87948735576404"><ele>316.0</ele><time>2026-04-25T08:22:58.999Z</time></trkpt><trkpt lat="45.746681973450315" lon="8.879454625380184"><ele>316.0</ele><time>2026-04-25T08:22:59.999Z</time></trkpt><trkpt lat="45.74677412608003" lon="8.879423816266673"><ele>316.0</ele><time>2026-04-25T08:23:00.999Z</time></trkpt><trkpt lat="45.74686277719762" lon="8.879393008598669"><ele>316.0</ele><time>2026-04-25T08:23:01.999Z</time></trkpt><trkpt lat="45.746955806205804" lon="8.87935900843426"><ele>316.0</ele><time>2026-04-25T08:23:02.999Z</time></trkpt><trkpt lat="45.74705159019358" lon="8.879322985989063"><ele>316.0</ele><time>2026-04-25T08:23:03.999Z</time></trkpt><trkpt lat="45.74714968539334" lon="8.879287683144662"><ele>316.0</ele><time>2026-04-25T08:23:04.999Z</time></trkpt><trkpt lat="45.74724907373628" lon="8.879252058777361"><ele>316.0</ele><time>2026-04-25T08:23:05.999Z</time></trkpt><trkpt lat="45.747355184781924" lon="8.879249317059154"><ele>316.0</ele><time>2026-04-25T08:23:06.999Z</time></trkpt><trkpt lat="45.74745002673479" lon="8.879217352142758"><ele>316.0</ele><time>2026-04-25T08:23:07.999Z</time></trkpt><trkpt lat="45.74753403530726" lon="8.879189038479259"><ele>316.0</ele><time>2026-04-25T08:23:08.999Z</time></trkpt><trkpt lat="45.7476113237515" lon="8.879162989615633"><ele>316.0</ele><time>2026-04-25T08:23:09.999Z</time></trkpt><trkpt lat="45.74771313703658" lon="8.879128675124482"><ele>316.0</ele><time>2026-04-25T08:23:11.999Z</time></trkpt><trkpt lat="45.747792605885905" lon="8.87910189142712"><ele>316.0</ele><time>2026-04-25T08:23:13.999Z</time></trkpt><trkpt lat="45.74788460137524" lon="8.879046982525235"><ele>315.8</ele><time>2026-04-25T08:23:15.999Z</time></trkpt><trkpt lat="45.74795963378765" lon="8.879034458028796"><ele>315.6</ele><time>2026-04-25T08:23:16.999Z</time></trkpt><trkpt lat="45.7480550228237" lon="8.879007977162232"><ele>315.4</ele><time>2026-04-25T08:23:17.999Z</time></trkpt><trkpt lat="45.74817419438569" lon="8.878966121591217"><ele>315.2</ele><time>2026-04-25T08:23:18.999Z</time></trkpt><trkpt lat="45.7483126167395" lon="8.878919029066129"><ele>315.0</ele><time>2026-04-25T08:23:20Z</time></trkpt><trkpt lat="45.74846753296453" lon="8.878866389005895"><ele>315.3333333333333</ele><time>2026-04-25T08:23:21Z</time></trkpt><trkpt lat="45.7486226949702" lon="8.87881266924073"><ele>315.66666666666663</ele><time>2026-04-25T08:23:22Z</time></trkpt><trkpt lat="45.748782579902226" lon="8.878758932784026"><ele>316.0</ele><time>2026-04-25T08:23:23Z</time></trkpt><trkpt lat="45.748950383703054" lon="8.878706022610329"><ele>316.0</ele><time>2026-04-25T08:23:24Z</time></trkpt><trkpt lat="45.74910439765318" lon="8.878649836644211"><ele>316.0</ele><time>2026-04-25T08:23:25Z</time></trkpt><trkpt lat="45.74924485114881" lon="8.878603275199952"><ele>316.0</ele><time>2026-04-25T08:23:26Z</time></trkpt><trkpt lat="45.74937453866313" lon="8.878558395965456"><ele>316.0</ele><time>2026-04-25T08:23:27Z</time></trkpt><trkpt lat="45.74950015897893" lon="8.878522998273844"><ele>316.25</ele><time>2026-04-25T08:23:28Z</time></trkpt><trkpt lat="45.74963148393502" lon="8.878478835672098"><ele>316.5</ele><time>2026-04-25T08:23:29Z</time></trkpt><trkpt lat="45.7497600132254" lon="8.87843479183774"><ele>316.75</ele><time>2026-04-25T08:23:30Z</time></trkpt><trkpt lat="45.74988392526988" lon="8.878397675800901"><ele>317.0</ele><time>2026-04-25T08:23:31Z</time></trkpt><trkpt lat="45.749989799192996" lon="8.878355611833197"><ele>317.0</ele><time>2026-04-25T08:23:32Z</time></trkpt><trkpt lat="45.75009251316283" lon="8.878322481065622"><ele>317.0</ele><time>2026-04-25T08:23:33Z</time></trkpt><trkpt lat="45.75020100849213" lon="8.878289270275973"><ele>317.0</ele><time>2026-04-25T08:23:34Z</time></trkpt><trkpt lat="45.750317194609394" lon="8.878249649026838"><ele>317.0</ele><time>2026-04-25T08:23:35Z</time></trkpt><trkpt lat="45.75044078480592" lon="8.878204171325127"><ele>317.5</ele><time>2026-04-25T08:23:36Z</time></trkpt><trkpt lat="45.750558813648446" lon="8.878159006161306"><ele>318.0</ele><time>2026-04-25T08:23:37Z</time></trkpt><trkpt lat="45.75067136634294" lon="8.878119703307817"><ele>318.5</ele><time>2026-04-25T08:23:38Z</time></trkpt><trkpt lat="45.75078337307188" lon="8.878090498589613"><ele>319.0</ele><time>2026-04-25T08:23:39Z</time></trkpt><trkpt lat="45.75089559865625" lon="8.878054761470779"><ele>319.0</ele><time>2026-04-25T08:23:40Z</time></trkpt><trkpt lat="45.751007570586296" lon="8.878016932172333"><ele>319.0</ele><time>2026-04-25T08:23:41Z</time></trkpt><trkpt lat="45.751116547420324" lon="8.87797878452109"><ele>319.0</ele><time>2026-04-25T08:23:42Z</time></trkpt><trkpt lat="45.75122048789361" lon="8.877944597361049"><ele>319.0</ele><time>2026-04-25T08:23:43Z</time></trkpt><trkpt lat="45.75132650128801" lon="8.87790370973899"><ele>319.0</ele><time>2026-04-25T08:23:44Z</time></trkpt><trkpt lat="45.751429036131064" lon="8.877871841443788"><ele>319.2</ele><time>2026-04-25T08:23:45Z</time></trkpt><trkpt lat="45.751527255623905" lon="8.877840800442687"><ele>319.4</ele><time>2026-04-25T08:23:46Z</time></trkpt><trkpt lat="45.75162087911635" lon="8.877810451840464"><ele>319.6</ele><time>2026-04-25T08:23:47Z</time></trkpt><trkpt lat="45.75171236336632" lon="8.877779097806195"><ele>319.8</ele><time>2026-04-25T08:23:48Z</time></trkpt><trkpt lat="45.75180545078502" lon="8.877747426788575"><ele>320.0</ele><time>2026-04-25T08:23:49Z</time></trkpt><trkpt lat="45.75190047359442" lon="8.877715865272396"><ele>320.2</ele><time>2026-04-25T08:23:50Z</time></trkpt><trkpt lat="45.75199910922998" lon="8.8776794288445"><ele>320.4</ele><time>2026-04-25T08:23:51Z</time></trkpt><trkpt lat="45.7521026850056" lon="8.877643211866493"><ele>320.6</ele><time>2026-04-25T08:23:52Z</time></trkpt><trkpt lat="45.75220857314429" lon="8.877608842821235"><ele>320.8</ele><time>2026-04-25T08:23:53Z</time></trkpt><trkpt lat="45.752316718512866" lon="8.877572978026297"><ele>321.0</ele><time>2026-04-25T08:23:54Z</time></trkpt><trkpt lat="45.75242192202282" lon="8.877537909578802"><ele>321.0</ele><time>2026-04-25T08:23:55Z</time></trkpt><trkpt lat="45.75252310896062" lon="8.877505582021245"><ele>321.0</ele><time>2026-04-25T08:23:56Z</time></trkpt><trkpt lat="45.752618185911345" lon="8.877468466525345"><ele>321.0</ele><time>2026-04-25T08:23:57Z</time></trkpt><trkpt lat="45.75271197973551" lon="8.877437967585768"><ele>321.0</ele><time>2026-04-25T08:23:58Z</time></trkpt><trkpt lat="45.75279882197029" lon="8.877407516051136"><ele>321.0</ele><time>2026-04-25T08:23:59Z</time></trkpt><trkpt lat="45.75288857254751" lon="8.87737845021897"><ele>321.0</ele><time>2026-04-25T08:24:00Z</time></trkpt><trkpt lat="45.75298091794101" lon="8.877343443491934"><ele>321.0</ele><time>2026-04-25T08:24:01Z</time></trkpt><trkpt lat="45.75307740549114" lon="8.877309070672913"><ele>321.0</ele><time>2026-04-25T08:24:02Z</time></trkpt><trkpt lat="45.75316640421384" lon="8.877270411204952"><ele>321.0</ele><time>2026-04-25T08:24:03Z</time></trkpt><trkpt lat="45.75325035866643" lon="8.877241149137978"><ele>321.0</ele><time>2026-04-25T08:24:04Z</time></trkpt><trkpt lat="45.75331993428265" lon="8.877221198200198"><ele>321.0</ele><time>2026-04-25T08:24:05Z</time></trkpt><trkpt lat="45.753441619563404" lon="8.877199475390288"><ele>321.0</ele><time>2026-04-25T08:24:07Z</time></trkpt><trkpt lat="45.75351870037261" lon="8.877179412272394"><ele>321.0</ele><time>2026-04-25T08:24:08Z</time></trkpt><trkpt lat="45.753631108079375" lon="8.87713444535133"><ele>321.0</ele><time>2026-04-25T08:24:09Z</time></trkpt><trkpt lat="45.753780685121576" lon="8.87706706055248"><ele>321.0</ele><time>2026-04-25T08:24:10Z</time></trkpt><trkpt lat="45.75393572147258" lon="8.877011547117617"><ele>321.20000000000005</ele><time>2026-04-25T08:24:11Z</time></trkpt><trkpt lat="45.754058522244016" lon="8.876970882644146"><ele>321.40000000000003</ele><time>2026-04-25T08:24:12Z</time></trkpt><trkpt lat="45.754167764839984" lon="8.876927349055125"><ele>321.6</ele><time>2026-04-25T08:24:13Z</time></trkpt><trkpt lat="45.75427056730801" lon="8.876914631640991"><ele>321.8</ele><time>2026-04-25T08:24:14Z</time></trkpt><trkpt lat="45.75435862080342" lon="8.876884978901183"><ele>322.0</ele><time>2026-04-25T08:24:15Z</time></trkpt><trkpt lat="45.75443367178051" lon="8.876859704925232"><ele>322.3333333333333</ele><time>2026-04-25T08:24:16Z</time></trkpt><trkpt lat="45.754500496536195" lon="8.876837201143232"><ele>322.66666666666663</ele><time>2026-04-25T08:24:17Z</time></trkpt><trkpt lat="45.754563205482185" lon="8.876816083004522"><ele>323.0</ele><time>2026-04-25T08:24:18Z</time></trkpt><trkpt lat="45.75462548338742" lon="8.876794895245517"><ele>323.3333333333333</ele><time>2026-04-25T08:24:19Z</time></trkpt><trkpt lat="45.75468285927028" lon="8.87675139897584"><ele>323.6666666666667</ele><time>2026-04-25T08:24:19.999Z</time></trkpt><trkpt lat="45.754798150311636" lon="8.876712684361461"><ele>324.0</ele><time>2026-04-25T08:24:21.999Z</time></trkpt><trkpt lat="45.75490604142579" lon="8.876676365578977"><ele>324.0</ele><time>2026-04-25T08:24:23.999Z</time></trkpt><trkpt lat="45.75503099383499" lon="8.876657460884003"><ele>324.0</ele><time>2026-04-25T08:24:25.999Z</time></trkpt><trkpt lat="45.75511886925381" lon="8.876627678389779"><ele>324.0</ele><time>2026-04-25T08:24:26.999Z</time></trkpt><trkpt lat="45.75522187505711" lon="8.876580872192452"><ele>324.0</ele><time>2026-04-25T08:24:27.999Z</time></trkpt><trkpt lat="45.75532560033115" lon="8.876548254235843"><ele>324.0</ele><time>2026-04-25T08:24:28.999Z</time></trkpt><trkpt lat="45.75544006504924" lon="8.876513549404782"><ele>324.0</ele><time>2026-04-25T08:24:29.999Z</time></trkpt><trkpt lat="45.75557339469477" lon="8.876472019772393"><ele>324.0</ele><time>2026-04-25T08:24:30.999Z</time></trkpt><trkpt lat="45.75574583926558" lon="8.876419909626035"><ele>324.0</ele><time>2026-04-25T08:24:31.999Z</time></trkpt><trkpt lat="45.75592444798075" lon="8.87635252741137"><ele>325.3333333333333</ele><time>2026-04-25T08:24:32.999Z</time></trkpt><trkpt lat="45.75609502202117" lon="8.876295176001365"><ele>326.66666666666663</ele><time>2026-04-25T08:24:33.999Z</time></trkpt><trkpt lat="45.75625918196566" lon="8.876246230056534"><ele>328.0</ele><time>2026-04-25T08:24:34.999Z</time></trkpt><trkpt lat="45.75641580003515" lon="8.87619351166083"><ele>328.0</ele><time>2026-04-25T08:24:35.999Z</time></trkpt><trkpt lat="45.75657048626922" lon="8.87614228430273"><ele>328.0</ele><time>2026-04-25T08:24:36.999Z</time></trkpt><trkpt lat="45.756712860303125" lon="8.876091297265237"><ele>328.0</ele><time>2026-04-25T08:24:37.999Z</time></trkpt><trkpt lat="45.75684368944954" lon="8.876046089620242"><ele>328.0</ele><time>2026-04-25T08:24:38.999Z</time></trkpt><trkpt lat="45.75696553585704" lon="8.87600954650291"><ele>327.59999999999997</ele><time>2026-04-25T08:24:39.999Z</time></trkpt><trkpt lat="45.757074665193784" lon="8.875976263969573"><ele>327.2</ele><time>2026-04-25T08:24:40.999Z</time></trkpt><trkpt lat="45.75717643299511" lon="8.875943987592969"><ele>326.8</ele><time>2026-04-25T08:24:41.999Z</time></trkpt><trkpt lat="45.75726697457094" lon="8.875912049280197"><ele>326.4</ele><time>2026-04-25T08:24:42.999Z</time></trkpt><trkpt lat="45.75735652708953" lon="8.875879867414826"><ele>326.0</ele><time>2026-04-25T08:24:43.999Z</time></trkpt><trkpt lat="45.75744743100703" lon="8.875848436477346"><ele>326.0</ele><time>2026-04-25T08:24:44.999Z</time></trkpt><trkpt lat="45.7575264205825" lon="8.875819340083355"><ele>326.0</ele><time>2026-04-25T08:24:45.999Z</time></trkpt><trkpt lat="45.75759916934089" lon="8.875795381770311"><ele>326.0</ele><time>2026-04-25T08:24:46.999Z</time></trkpt><trkpt lat="45.757704497216686" lon="8.875761475738297"><ele>326.0</ele><time>2026-04-25T08:24:48.999Z</time></trkpt><trkpt lat="45.75780109412353" lon="8.875728478824152"><ele>326.0</ele><time>2026-04-25T08:24:50.999Z</time></trkpt><trkpt lat="45.75789248476241" lon="8.875698582549703"><ele>326.0</ele><time>2026-04-25T08:24:52.999Z</time></trkpt><trkpt lat="45.757975857887786" lon="8.875672695751545"><ele>326.0</ele><time>2026-04-25T08:24:54.999Z</time></trkpt><trkpt lat="45.75808908467215" lon="8.87563071023"><ele>326.0</ele><time>2026-04-25T08:24:56.999Z</time></trkpt><trkpt lat="45.75816953187069" lon="8.875601134950292"><ele>326.0</ele><time>2026-04-25T08:24:57.999Z</time></trkpt><trkpt lat="45.75826106198488" lon="8.875572084595335"><ele>326.0</ele><time>2026-04-25T08:24:58.999Z</time></trkpt><trkpt lat="45.7583589642112" lon="8.87554418503395"><ele>326.0</ele><time>2026-04-25T08:24:59.999Z</time></trkpt><trkpt lat="45.758461491008354" lon="8.875520126965737"><ele>326.0</ele><time>2026-04-25T08:25:00.999Z</time></trkpt><trkpt lat="45.758565388043394" lon="8.875506288167974"><ele>326.0</ele><time>2026-04-25T08:25:01.999Z</time></trkpt><trkpt lat="45.7586748798292" lon="8.875503014409032"><ele>326.0</ele><time>2026-04-25T08:25:02.999Z</time></trkpt><trkpt lat="45.7587924322193" lon="8.875506803935524"><ele>326.0</ele><time>2026-04-25T08:25:03.999Z</time></trkpt><trkpt lat="45.75890862097536" lon="8.875516138599188"><ele>326.0</ele><time>2026-04-25T08:25:04.999Z</time></trkpt><trkpt lat="45.75903134950486" lon="8.875531322858029"><ele>326.0</ele><time>2026-04-25T08:25:05.999Z</time></trkpt><trkpt lat="45.7591639450515" lon="8.875549285265432"><ele>326.0</ele><time>2026-04-25T08:25:06.999Z</time></trkpt><trkpt lat="45.75930527199276" lon="8.875571043533084"><ele>326.0</ele><time>2026-04-25T08:25:07.999Z</time></trkpt><trkpt lat="45.75945498418817" lon="8.875596340974594"><ele>326.0</ele><time>2026-04-25T08:25:08.999Z</time></trkpt><trkpt lat="45.75961991185916" lon="8.87562748375982"><ele>326.0</ele><time>2026-04-25T08:25:09.999Z</time></trkpt><trkpt lat="45.75979433149654" lon="8.875657917096474"><ele>326.0</ele><time>2026-04-25T08:25:10.999Z</time></trkpt><trkpt lat="45.75996271952161" lon="8.875689103245701"><ele>326.0</ele><time>2026-04-25T08:25:11.999Z</time></trkpt><trkpt lat="45.760133629673696" lon="8.875721295020707"><ele>326.0</ele><time>2026-04-25T08:25:12.999Z</time></trkpt><trkpt lat="45.760303857945" lon="8.875757061159602"><ele>326.0</ele><time>2026-04-25T08:25:13.999Z</time></trkpt><trkpt lat="45.76047078286074" lon="8.875788118846161"><ele>325.0</ele><time>2026-04-25T08:25:14.999Z</time></trkpt><trkpt lat="45.76063366950786" lon="8.875819713688928"><ele>324.0</ele><time>2026-04-25T08:25:15.999Z</time></trkpt><trkpt lat="45.760790188046016" lon="8.875847094941706"><ele>323.0</ele><time>2026-04-25T08:25:16.999Z</time></trkpt><trkpt lat="45.7609651766783" lon="8.875876509948979"><ele>323.33333333333337</ele><time>2026-04-25T08:25:17.999Z</time></trkpt><trkpt lat="45.76115426562764" lon="8.875909105696552"><ele>323.6666666666667</ele><time>2026-04-25T08:25:18.999Z</time></trkpt><trkpt lat="45.76137918677577" lon="8.875961189281341"><ele>324.0</ele><time>2026-04-25T08:25:19.999Z</time></trkpt><trkpt lat="45.761603114829086" lon="8.87601233044494"><ele>325.0</ele><time>2026-04-25T08:25:20.999Z</time></trkpt><trkpt lat="45.76179658147774" lon="8.8760475872057"><ele>326.0</ele><time>2026-04-25T08:25:21.999Z</time></trkpt><trkpt lat="45.761977939646634" lon="8.876086130359194"><ele>327.0</ele><time>2026-04-25T08:25:22.999Z</time></trkpt><trkpt lat="45.76214512229626" lon="8.876121225187314"><ele>328.3333333333333</ele><time>2026-04-25T08:25:23.999Z</time></trkpt><trkpt lat="45.76231618168097" lon="8.876154887747129"><ele>329.66666666666663</ele><time>2026-04-25T08:25:24.999Z</time></trkpt><trkpt lat="45.76249301161106" lon="8.876189052437022"><ele>331.0</ele><time>2026-04-25T08:25:26Z</time></trkpt><trkpt lat="45.76266442447208" lon="8.876224730445262"><ele>331.0</ele><time>2026-04-25T08:25:27Z</time></trkpt><trkpt lat="45.76282520296891" lon="8.876254223321462"><ele>331.0</ele><time>2026-04-25T08:25:28Z</time></trkpt><trkpt lat="45.762994707873986" lon="8.876286884182521"><ele>331.0</ele><time>2026-04-25T08:25:29Z</time></trkpt><trkpt lat="45.76317726810998" lon="8.876316385320093"><ele>331.0</ele><time>2026-04-25T08:25:30Z</time></trkpt><trkpt lat="45.763377603461386" lon="8.876357664174913"><ele>331.0</ele><time>2026-04-25T08:25:31Z</time></trkpt><trkpt lat="45.763570924600145" lon="8.876407974125842"><ele>331.0</ele><time>2026-04-25T08:25:32Z</time></trkpt><trkpt lat="45.76374252168909" lon="8.876426890253947"><ele>333.0</ele><time>2026-04-25T08:25:33Z</time></trkpt><trkpt lat="45.76390146940617" lon="8.876414583356176"><ele>335.0</ele><time>2026-04-25T08:25:34Z</time></trkpt><trkpt lat="45.76405908471739" lon="8.876360155974105"><ele>337.0</ele><time>2026-04-25T08:25:35Z</time></trkpt><trkpt lat="45.76423656132759" lon="8.87625346666779"><ele>335.66666666666663</ele><time>2026-04-25T08:25:36Z</time></trkpt><trkpt lat="45.7644253235191" lon="8.876107251423146"><ele>334.3333333333333</ele><time>2026-04-25T08:25:37Z</time></trkpt><trkpt lat="45.764616318889026" lon="8.875962743911769"><ele>333.0</ele><time>2026-04-25T08:25:38Z</time></trkpt><trkpt lat="45.7648157242002" lon="8.875832738400117"><ele>333.0</ele><time>2026-04-25T08:25:39Z</time></trkpt><trkpt lat="45.76501649698375" lon="8.875713439282347"><ele>333.0</ele><time>2026-04-25T08:25:40Z</time></trkpt><trkpt lat="45.76521917599259" lon="8.875594736587445"><ele>333.0</ele><time>2026-04-25T08:25:41Z</time></trkpt><trkpt lat="45.76542931978155" lon="8.8754781830985"><ele>335.6666666666667</ele><time>2026-04-25T08:25:42Z</time></trkpt><trkpt lat="45.76563723658904" lon="8.875367874016641"><ele>338.33333333333337</ele><time>2026-04-25T08:25:43Z</time></trkpt><trkpt lat="45.76583621151146" lon="8.875265449939457"><ele>341.0</ele><time>2026-04-25T08:25:44Z</time></trkpt><trkpt lat="45.76602141003872" lon="8.875171812497133"><ele>337.0</ele><time>2026-04-25T08:25:45Z</time></trkpt><trkpt lat="45.76619726107826" lon="8.875076378239031"><ele>333.0</ele><time>2026-04-25T08:25:46Z</time></trkpt><trkpt lat="45.766363729057254" lon="8.874990502443715"><ele>329.0</ele><time>2026-04-25T08:25:47Z</time></trkpt><trkpt lat="45.766522861814536" lon="8.874908512068775"><ele>329.0</ele><time>2026-04-25T08:25:48Z</time></trkpt><trkpt lat="45.76669234028104" lon="8.874821748618247"><ele>329.0</ele><time>2026-04-25T08:25:49Z</time></trkpt><trkpt lat="45.7668641717031" lon="8.874733319773926"><ele>329.0</ele><time>2026-04-25T08:25:50Z</time></trkpt><trkpt lat="45.76702095548297" lon="8.874654554276285"><ele>330.75</ele><time>2026-04-25T08:25:51Z</time></trkpt><trkpt lat="45.76716959661252" lon="8.874579418127514"><ele>332.5</ele><time>2026-04-25T08:25:52Z</time></trkpt><trkpt lat="45.76730792770713" lon="8.874503128328545"><ele>334.25</ele><time>2026-04-25T08:25:53Z</time></trkpt><trkpt lat="45.76743996492745" lon="8.874422100485514"><ele>336.0</ele><time>2026-04-25T08:25:54Z</time></trkpt><trkpt lat="45.76758109089896" lon="8.874397528118108"><ele>337.75</ele><time>2026-04-25T08:25:55Z</time></trkpt><trkpt lat="45.76770919930003" lon="8.874406571513852"><ele>339.5</ele><time>2026-04-25T08:25:56Z</time></trkpt><trkpt lat="45.76782643381349" lon="8.874390628259027"><ele>341.25</ele><time>2026-04-25T08:25:57Z</time></trkpt><trkpt lat="45.767942020890786" lon="8.874362321478865"><ele>343.0</ele><time>2026-04-25T08:25:58Z</time></trkpt><trkpt lat="45.76805531490957" lon="8.87435296012496"><ele>343.0</ele><time>2026-04-25T08:25:59Z</time></trkpt><trkpt lat="45.76815317315559" lon="8.874345387202649"><ele>343.0</ele><time>2026-04-25T08:26:00Z</time></trkpt><trkpt lat="45.76822261973971" lon="8.874336259210601"><ele>343.0</ele><time>2026-04-25T08:26:01Z</time></trkpt><trkpt lat="45.76828740241118" lon="8.874338281885453"><ele>343.0</ele><time>2026-04-25T08:26:03Z</time></trkpt><trkpt lat="45.768411454183706" lon="8.874411405011498"><ele>343.0</ele><time>2026-04-25T08:26:06Z</time></trkpt><trkpt lat="45.768538329098234" lon="8.874415821564305"><ele>344.3333333333333</ele><time>2026-04-25T08:26:07Z</time></trkpt><trkpt lat="45.76869622993993" lon="8.874345879539861"><ele>345.6666666666667</ele><time>2026-04-25T08:26:08Z</time></trkpt><trkpt lat="45.7688869690736" lon="8.87429824730108"><ele>347.0</ele><time>2026-04-25T08:26:09Z</time></trkpt><trkpt lat="45.76909832313362" lon="8.87428635344318"><ele>347.0</ele><time>2026-04-25T08:26:10Z</time></trkpt><trkpt lat="45.76932983977106" lon="8.874292612221556"><ele>347.0</ele><time>2026-04-25T08:26:11Z</time></trkpt><trkpt lat="45.76956811481112" lon="8.874280090615764"><ele>349.0</ele><time>2026-04-25T08:26:12Z</time></trkpt><trkpt lat="45.769821234531854" lon="8.874307109353824"><ele>351.0</ele><time>2026-04-25T08:26:13Z</time></trkpt><trkpt lat="45.77006655981411" lon="8.874316296075953"><ele>348.5</ele><time>2026-04-25T08:26:14Z</time></trkpt><trkpt lat="45.77031111382604" lon="8.874329443811963"><ele>346.0</ele><time>2026-04-25T08:26:15Z</time></trkpt><trkpt lat="45.77053049282601" lon="8.874343625073937"><ele>346.0</ele><time>2026-04-25T08:26:16Z</time></trkpt><trkpt lat="45.770757469312365" lon="8.874356563238562"><ele>346.0</ele><time>2026-04-25T08:26:17Z</time></trkpt><trkpt lat="45.77094934551157" lon="8.874384488233414"><ele>346.0</ele><time>2026-04-25T08:26:18Z</time></trkpt><trkpt lat="45.77111511265271" lon="8.874392698171835"><ele>345.3333333333333</ele><time>2026-04-25T08:26:19Z</time></trkpt><trkpt lat="45.77129421136099" lon="8.874378561309923"><ele>344.6666666666667</ele><time>2026-04-25T08:26:20Z</time></trkpt><trkpt lat="45.77152181303595" lon="8.874273239848133"><ele>344.0</ele><time>2026-04-25T08:26:21Z</time></trkpt><trkpt lat="45.77176814702564" lon="8.874180194690211"><ele>329.0</ele><time>2026-04-25T08:26:21.999Z</time></trkpt><trkpt lat="45.77203213910614" lon="8.874108382345105"><ele>314.0</ele><time>2026-04-25T08:26:22.999Z</time></trkpt><trkpt lat="45.77230046138673" lon="8.874018745734798"><ele>314.0</ele><time>2026-04-25T08:26:23.999Z</time></trkpt><trkpt lat="45.7725716152364" lon="8.873928306209026"><ele>314.0</ele><time>2026-04-25T08:26:24.999Z</time></trkpt><trkpt lat="45.77283916537747" lon="8.873838236677743"><ele>313.0</ele><time>2026-04-25T08:26:25.999Z</time></trkpt><trkpt lat="45.77309229542266" lon="8.87375625169989"><ele>312.0</ele><time>2026-04-25T08:26:26.999Z</time></trkpt><trkpt lat="45.77332590883525" lon="8.873654509626679"><ele>311.6666666666667</ele><time>2026-04-25T08:26:27.999Z</time></trkpt><trkpt lat="45.773534926818115" lon="8.873588294622925"><ele>311.33333333333337</ele><time>2026-04-25T08:26:28.999Z</time></trkpt><trkpt lat="45.77370759459633" lon="8.873538092950344"><ele>311.0</ele><time>2026-04-25T08:26:29.999Z</time></trkpt><trkpt lat="45.77385093100508" lon="8.873490954306593"><ele>306.75</ele><time>2026-04-25T08:26:30.999Z</time></trkpt><trkpt lat="45.77398394532855" lon="8.873438557329244"><ele>302.5</ele><time>2026-04-25T08:26:31.999Z</time></trkpt><trkpt lat="45.774106034851286" lon="8.87334167648235"><ele>298.25</ele><time>2026-04-25T08:26:32.999Z</time></trkpt><trkpt lat="45.774194909902626" lon="8.87319574048901"><ele>294.0</ele><time>2026-04-25T08:26:33.999Z</time></trkpt><trkpt lat="45.77425459448104" lon="8.873027991588003"><ele>294.0</ele><time>2026-04-25T08:26:34.999Z</time></trkpt><trkpt lat="45.774271835497714" lon="8.872824596611187"><ele>294.0</ele><time>2026-04-25T08:26:35.999Z</time></trkpt><trkpt lat="45.77427366045312" lon="8.87258107927003"><ele>294.0</ele><time>2026-04-25T08:26:36.999Z</time></trkpt><trkpt lat="45.77427809580533" lon="8.8723501619705"><ele>292.5</ele><time>2026-04-25T08:26:37.999Z</time></trkpt><trkpt lat="45.774293490970614" lon="8.872155650344709"><ele>291.0</ele><time>2026-04-25T08:26:38.999Z</time></trkpt><trkpt lat="45.77434281715451" lon="8.871999067540774"><ele>289.5</ele><time>2026-04-25T08:26:39.999Z</time></trkpt><trkpt lat="45.77444270237664" lon="8.87186329749467"><ele>288.0</ele><time>2026-04-25T08:26:40.999Z</time></trkpt><trkpt lat="45.77458683251083" lon="8.871725814661215"><ele>287.3333333333333</ele><time>2026-04-25T08:26:41.999Z</time></trkpt><trkpt lat="45.774761775183705" lon="8.87158051737586"><ele>286.66666666666663</ele><time>2026-04-25T08:26:42.999Z</time></trkpt><trkpt lat="45.77494146139371" lon="8.87142616947588"><ele>286.0</ele><time>2026-04-25T08:26:43.999Z</time></trkpt><trkpt lat="45.77510361343206" lon="8.871281318678523"><ele>286.0</ele><time>2026-04-25T08:26:44.999Z</time></trkpt><trkpt lat="45.775243798292315" lon="8.871151120203058"><ele>286.0</ele><time>2026-04-25T08:26:45.999Z</time></trkpt><trkpt lat="45.77537630216545" lon="8.87102764038177"><ele>286.0</ele><time>2026-04-25T08:26:46.999Z</time></trkpt><trkpt lat="45.77550105162328" lon="8.870912662731179"><ele>285.25</ele><time>2026-04-25T08:26:47.999Z</time></trkpt><trkpt lat="45.77561572044599" lon="8.870799758149532"><ele>284.5</ele><time>2026-04-25T08:26:48.999Z</time></trkpt><trkpt lat="45.77571839252765" lon="8.87069500088778"><ele>283.75</ele><time>2026-04-25T08:26:49.999Z</time></trkpt><trkpt lat="45.775809999317694" lon="8.870598249889365"><ele>283.0</ele><time>2026-04-25T08:26:50.999Z</time></trkpt><trkpt lat="45.77588955531846" lon="8.870516396159026"><ele>283.0</ele><time>2026-04-25T08:26:51.999Z</time></trkpt><trkpt lat="45.77596474039183" lon="8.870443844909863"><ele>283.0</ele><time>2026-04-25T08:26:52.999Z</time></trkpt><trkpt lat="45.77603401271313" lon="8.87039653234611"><ele>283.0</ele><time>2026-04-25T08:26:53.999Z</time></trkpt><trkpt lat="45.776106330415566" lon="8.87036803389925"><ele>283.0</ele><time>2026-04-25T08:26:54.999Z</time></trkpt><trkpt lat="45.776182090110545" lon="8.870354675739819"><ele>283.0</ele><time>2026-04-25T08:26:55.999Z</time></trkpt><trkpt lat="45.776269445727856" lon="8.87035088256394"><ele>283.0</ele><time>2026-04-25T08:26:56.999Z</time></trkpt><trkpt lat="45.776359956635886" lon="8.87034815231492"><ele>283.0</ele><time>2026-04-25T08:26:57.999Z</time></trkpt><trkpt lat="45.77644500871382" lon="8.870323900325015"><ele>283.0</ele><time>2026-04-25T08:26:58.999Z</time></trkpt><trkpt lat="45.77651986459147" lon="8.870269863316203"><ele>283.0</ele><time>2026-04-25T08:26:59.999Z</time></trkpt><trkpt lat="45.77657899194108" lon="8.87018354858012"><ele>283.0</ele><time>2026-04-25T08:27:00.999Z</time></trkpt><trkpt lat="45.776622001548134" lon="8.87007092442475"><ele>283.0</ele><time>2026-04-25T08:27:01.999Z</time></trkpt><trkpt lat="45.776646220184" lon="8.869930539453529"><ele>283.0</ele><time>2026-04-25T08:27:02.999Z</time></trkpt><trkpt lat="45.77663213974708" lon="8.869786864132834"><ele>282.6</ele><time>2026-04-25T08:27:03.999Z</time></trkpt><trkpt lat="45.77658969066901" lon="8.869663201624734"><ele>282.20000000000005</ele><time>2026-04-25T08:27:04.999Z</time></trkpt><trkpt lat="45.77653698554959" lon="8.869551274859713"><ele>281.8</ele><time>2026-04-25T08:27:05.999Z</time></trkpt><trkpt lat="45.7764832568317" lon="8.869455062323832"><ele>281.40000000000003</ele><time>2026-04-25T08:27:06.999Z</time></trkpt><trkpt lat="45.77650359245158" lon="8.869270505817239"><ele>281.0</ele><time>2026-04-25T08:27:07.999Z</time></trkpt><trkpt lat="45.77649842657914" lon="8.869103154843241"><ele>280.6666666666667</ele><time>2026-04-25T08:27:08.999Z</time></trkpt><trkpt lat="45.77643933583129" lon="8.868932695964594"><ele>280.3333333333333</ele><time>2026-04-25T08:27:09.999Z</time></trkpt><trkpt lat="45.776331126884585" lon="8.86875946077923"><ele>280.0</ele><time>2026-04-25T08:27:10.999Z</time></trkpt><trkpt lat="45.776219490819905" lon="8.868562002541017"><ele>279.66666666666663</ele><time>2026-04-25T08:27:11.999Z</time></trkpt><trkpt lat="45.77610919055011" lon="8.868355982757114"><ele>279.3333333333333</ele><time>2026-04-25T08:27:12.999Z</time></trkpt><trkpt lat="45.77601781728499" lon="8.868160514523911"><ele>279.0</ele><time>2026-04-25T08:27:13.999Z</time></trkpt><trkpt lat="45.77596205226598" lon="8.867988271182886"><ele>279.0</ele><time>2026-04-25T08:27:14.999Z</time></trkpt><trkpt lat="45.77595265368789" lon="8.867825540197916"><ele>279.0</ele><time>2026-04-25T08:27:15.999Z</time></trkpt><trkpt lat="45.77598025554159" lon="8.867645776798657"><ele>279.0</ele><time>2026-04-25T08:27:16.999Z</time></trkpt><trkpt lat="45.776041666361046" lon="8.867489378252516"><ele>279.0</ele><time>2026-04-25T08:27:17.999Z</time></trkpt><trkpt lat="45.77614869288012" lon="8.867358178727203"><ele>280.6666666666667</ele><time>2026-04-25T08:27:18.999Z</time></trkpt><trkpt lat="45.776301196045935" lon="8.867301198112033"><ele>282.33333333333337</ele><time>2026-04-25T08:27:19.999Z</time></trkpt><trkpt lat="45.77647213746603" lon="8.867244988579863"><ele>284.0</ele><time>2026-04-25T08:27:20.999Z</time></trkpt><trkpt lat="45.776675083746795" lon="8.867169313606988"><ele>285.5</ele><time>2026-04-25T08:27:21.999Z</time></trkpt><trkpt lat="45.7769086990276" lon="8.867102511241637"><ele>287.0</ele><time>2026-04-25T08:27:22.999Z</time></trkpt><trkpt lat="45.77715186014994" lon="8.867017745954275"><ele>287.0</ele><time>2026-04-25T08:27:23.999Z</time></trkpt><trkpt lat="45.777390202005755" lon="8.866933277559669"><ele>287.0</ele><time>2026-04-25T08:27:24.999Z</time></trkpt><trkpt lat="45.77763107093315" lon="8.866844138558871"><ele>294.0</ele><time>2026-04-25T08:27:25.999Z</time></trkpt><trkpt lat="45.77785748178572" lon="8.866759074211194"><ele>301.0</ele><time>2026-04-25T08:27:26.999Z</time></trkpt><trkpt lat="45.7780851408138" lon="8.866671000417275"><ele>301.0</ele><time>2026-04-25T08:27:27.999Z</time></trkpt><trkpt lat="45.778311714673166" lon="8.866584395965917"><ele>301.0</ele><time>2026-04-25T08:27:28.999Z</time></trkpt><trkpt lat="45.77852512800852" lon="8.866504572607678"><ele>304.0</ele><time>2026-04-25T08:27:29.999Z</time></trkpt><trkpt lat="45.77871907570509" lon="8.866430163176029"><ele>307.0</ele><time>2026-04-25T08:27:30.999Z</time></trkpt><trkpt lat="45.77889541103088" lon="8.866368313623791"><ele>310.0</ele><time>2026-04-25T08:27:32Z</time></trkpt><trkpt lat="45.77906073195071" lon="8.866352686401328"><ele>310.0</ele><time>2026-04-25T08:27:33Z</time></trkpt><trkpt lat="45.77922573679775" lon="8.866363306025985"><ele>310.0</ele><time>2026-04-25T08:27:34Z</time></trkpt><trkpt lat="45.77940874369008" lon="8.86640654840348"><ele>310.0</ele><time>2026-04-25T08:27:35Z</time></trkpt><trkpt lat="45.779604449477496" lon="8.866536597129713"><ele>308.0</ele><time>2026-04-25T08:27:36Z</time></trkpt><trkpt lat="45.77981925392897" lon="8.866664075505744"><ele>306.0</ele><time>2026-04-25T08:27:37Z</time></trkpt><trkpt lat="45.78004026155038" lon="8.866779439296478"><ele>306.0</ele><time>2026-04-25T08:27:38Z</time></trkpt><trkpt lat="45.780237270774066" lon="8.866907745524493"><ele>306.0</ele><time>2026-04-25T08:27:39Z</time></trkpt><trkpt lat="45.78041684289966" lon="8.867010822352045"><ele>306.0</ele><time>2026-04-25T08:27:40Z</time></trkpt><trkpt lat="45.780600510094644" lon="8.867074251124201"><ele>306.0</ele><time>2026-04-25T08:27:41Z</time></trkpt><trkpt lat="45.780783526060304" lon="8.867088222169595"><ele>306.0</ele><time>2026-04-25T08:27:42Z</time></trkpt><trkpt lat="45.7809550343277" lon="8.867052021928716"><ele>306.0</ele><time>2026-04-25T08:27:43Z</time></trkpt><trkpt lat="45.78113174607438" lon="8.866980887955917"><ele>305.6666666666667</ele><time>2026-04-25T08:27:44Z</time></trkpt><trkpt lat="45.781310829844585" lon="8.866871512921096"><ele>305.33333333333337</ele><time>2026-04-25T08:27:45Z</time></trkpt><trkpt lat="45.781495199524024" lon="8.866719008262082"><ele>305.0</ele><time>2026-04-25T08:27:46Z</time></trkpt><trkpt lat="45.781686317303" lon="8.866544145110533"><ele>306.33333333333337</ele><time>2026-04-25T08:27:47Z</time></trkpt><trkpt lat="45.78187421670335" lon="8.86638828327236"><ele>307.6666666666667</ele><time>2026-04-25T08:27:48Z</time></trkpt><trkpt lat="45.78203546512608" lon="8.866252833051409"><ele>309.0</ele><time>2026-04-25T08:27:49Z</time></trkpt><trkpt lat="45.7821681134165" lon="8.866106137114441"><ele>312.0</ele><time>2026-04-25T08:27:50Z</time></trkpt><trkpt lat="45.78228054769259" lon="8.865943864224384"><ele>315.0</ele><time>2026-04-25T08:27:51Z</time></trkpt><trkpt lat="45.78235403164822" lon="8.865768325164693"><ele>318.0</ele><time>2026-04-25T08:27:52Z</time></trkpt><trkpt lat="45.7823979330438" lon="8.865579265963833"><ele>321.0</ele><time>2026-04-25T08:27:53Z</time></trkpt><trkpt lat="45.78240170918226" lon="8.865361806686836"><ele>321.0</ele><time>2026-04-25T08:27:54Z</time></trkpt><trkpt lat="45.78238040015951" lon="8.86512911536722"><ele>321.0</ele><time>2026-04-25T08:27:55Z</time></trkpt><trkpt lat="45.78232893681677" lon="8.86486639772742"><ele>321.0</ele><time>2026-04-25T08:27:56Z</time></trkpt><trkpt lat="45.78225607235803" lon="8.864578029453641"><ele>322.3333333333333</ele><time>2026-04-25T08:27:57Z</time></trkpt><trkpt lat="45.782184898203084" lon="8.86431245499839"><ele>323.66666666666663</ele><time>2026-04-25T08:27:58Z</time></trkpt><trkpt lat="45.782136118131504" lon="8.86410458811198"><ele>325.0</ele><time>2026-04-25T08:27:59Z</time></trkpt><trkpt lat="45.782095755850534" lon="8.863933421654181"><ele>325.0</ele><time>2026-04-25T08:28:00Z</time></trkpt><trkpt lat="45.782066692419356" lon="8.86379312425444"><ele>325.0</ele><time>2026-04-25T08:28:01Z</time></trkpt><trkpt lat="45.78207084723216" lon="8.863654215173105"><ele>325.0</ele><time>2026-04-25T08:28:02Z</time></trkpt><trkpt lat="45.782082678505525" lon="8.863496690750946"><ele>325.0</ele><time>2026-04-25T08:28:03Z</time></trkpt><trkpt lat="45.78216385609946" lon="8.863324538924577"><ele>327.66666666666663</ele><time>2026-04-25T08:28:04Z</time></trkpt><trkpt lat="45.78230337705158" lon="8.86318969830629"><ele>330.3333333333333</ele><time>2026-04-25T08:28:05Z</time></trkpt><trkpt lat="45.78247822350393" lon="8.863064758327683"><ele>333.0</ele><time>2026-04-25T08:28:06Z</time></trkpt><trkpt lat="45.78266266246075" lon="8.862921049406788"><ele>333.6666666666667</ele><time>2026-04-25T08:28:07Z</time></trkpt><trkpt lat="45.78284008729897" lon="8.862803602679085"><ele>334.33333333333337</ele><time>2026-04-25T08:28:08Z</time></trkpt><trkpt lat="45.782966404559346" lon="8.862700425201174"><ele>335.0</ele><time>2026-04-25T08:28:09Z</time></trkpt><trkpt lat="45.78308443378399" lon="8.862503886311"><ele>335.0</ele><time>2026-04-25T08:28:10Z</time></trkpt><trkpt lat="45.78319689444489" lon="8.862238947643268"><ele>335.0</ele><time>2026-04-25T08:28:11Z</time></trkpt><trkpt lat="45.7832979244108" lon="8.861936945877904"><ele>332.0</ele><time>2026-04-25T08:28:12Z</time></trkpt><trkpt lat="45.78340550124245" lon="8.861631929965709"><ele>329.0</ele><time>2026-04-25T08:28:13Z</time></trkpt><trkpt lat="45.78350094697027" lon="8.861368738543337"><ele>326.0</ele><time>2026-04-25T08:28:14Z</time></trkpt><trkpt lat="45.78357652733454" lon="8.861129572119959"><ele>327.6666666666667</ele><time>2026-04-25T08:28:15Z</time></trkpt><trkpt lat="45.78362646506451" lon="8.860879044441266"><ele>329.3333333333333</ele><time>2026-04-25T08:28:16Z</time></trkpt><trkpt lat="45.78365785400503" lon="8.860577091338524"><ele>331.0</ele><time>2026-04-25T08:28:17Z</time></trkpt><trkpt lat="45.783671671538606" lon="8.860228946871992"><ele>335.5</ele><time>2026-04-25T08:28:18Z</time></trkpt><trkpt lat="45.78367390616343" lon="8.859850126409011"><ele>340.0</ele><time>2026-04-25T08:28:19Z</time></trkpt><trkpt lat="45.78367754863645" lon="8.859453136970565"><ele>343.0</ele><time>2026-04-25T08:28:20Z</time></trkpt><trkpt lat="45.78368671386425" lon="8.85906340480532"><ele>346.0</ele><time>2026-04-25T08:28:21Z</time></trkpt><trkpt lat="45.78369778521334" lon="8.858674899202375"><ele>347.5</ele><time>2026-04-25T08:28:22Z</time></trkpt><trkpt lat="45.783705410294544" lon="8.85828719920662"><ele>349.0</ele><time>2026-04-25T08:28:23Z</time></trkpt><trkpt lat="45.78372155568556" lon="8.857893694834292"><ele>350.0</ele><time>2026-04-25T08:28:24Z</time></trkpt><trkpt lat="45.78373752469872" lon="8.857542989889719"><ele>351.0</ele><time>2026-04-25T08:28:25Z</time></trkpt><trkpt lat="45.783755769069394" lon="8.857214540749279"><ele>351.0</ele><time>2026-04-25T08:28:26Z</time></trkpt><trkpt lat="45.78377678868521" lon="8.85691708858224"><ele>351.0</ele><time>2026-04-25T08:28:27Z</time></trkpt><trkpt lat="45.783827335766354" lon="8.856660290338944"><ele>351.0</ele><time>2026-04-25T08:28:28Z</time></trkpt><trkpt lat="45.78389543527605" lon="8.856390660068943"><ele>352.5</ele><time>2026-04-25T08:28:29Z</time></trkpt><trkpt lat="45.784000722462864" lon="8.856097053719424"><ele>354.0</ele><time>2026-04-25T08:28:30Z</time></trkpt><trkpt lat="45.78411558680504" lon="8.855804252256174"><ele>360.0</ele><time>2026-04-25T08:28:31Z</time></trkpt><trkpt lat="45.784238040294596" lon="8.855498545665014"><ele>366.0</ele><time>2026-04-25T08:28:32Z</time></trkpt><trkpt lat="45.78435816296706" lon="8.855180889936976"><ele>355.0</ele><time>2026-04-25T08:28:33Z</time></trkpt><trkpt lat="45.78447520438763" lon="8.85485627951977"><ele>344.0</ele><time>2026-04-25T08:28:34Z</time></trkpt><trkpt lat="45.7845795238826" lon="8.85454980607613"><ele>350.0</ele><time>2026-04-25T08:28:35Z</time></trkpt><trkpt lat="45.78467964916145" lon="8.854271374251732"><ele>356.0</ele><time>2026-04-25T08:28:36Z</time></trkpt><trkpt lat="45.78477602520306" lon="8.854006627441096"><ele>362.0</ele><time>2026-04-25T08:28:37Z</time></trkpt><trkpt lat="45.78487278311726" lon="8.853737705399304"><ele>362.0</ele><time>2026-04-25T08:28:38Z</time></trkpt><trkpt lat="45.78496743316808" lon="8.853472132119384"><ele>362.0</ele><time>2026-04-25T08:28:39Z</time></trkpt><trkpt lat="45.78505966566768" lon="8.853213945395469"><ele>362.0</ele><time>2026-04-25T08:28:40Z</time></trkpt><trkpt lat="45.785144180903686" lon="8.852971409115655"><ele>362.33333333333337</ele><time>2026-04-25T08:28:40.999Z</time></trkpt><trkpt lat="45.78521627406423" lon="8.852758194547826"><ele>362.6666666666667</ele><time>2026-04-25T08:28:41.999Z</time></trkpt><trkpt lat="45.78528339056184" lon="8.85255731990591"><ele>363.0</ele><time>2026-04-25T08:28:42.999Z</time></trkpt><trkpt lat="45.78534942215063" lon="8.8523662298468"><ele>365.5</ele><time>2026-04-25T08:28:43.999Z</time></trkpt><trkpt lat="45.78542075055829" lon="8.852176818967704"><ele>368.0</ele><time>2026-04-25T08:28:44.999Z</time></trkpt><trkpt lat="45.785489734293385" lon="8.851989301826002"><ele>370.5</ele><time>2026-04-25T08:28:45.999Z</time></trkpt><trkpt lat="45.78555223817979" lon="8.851817012696058"><ele>373.0</ele><time>2026-04-25T08:28:46.999Z</time></trkpt><trkpt lat="45.78561102240131" lon="8.85166020346735"><ele>373.75</ele><time>2026-04-25T08:28:47.999Z</time></trkpt><trkpt lat="45.78566892488726" lon="8.851515699354495"><ele>374.5</ele><time>2026-04-25T08:28:48.999Z</time></trkpt><trkpt lat="45.78573597672294" lon="8.851391896437377"><ele>375.25</ele><time>2026-04-25T08:28:49.999Z</time></trkpt><trkpt lat="45.785820322804376" lon="8.851278623802633"><ele>376.0</ele><time>2026-04-25T08:28:50.999Z</time></trkpt><trkpt lat="45.78592336132398" lon="8.851185378091403"><ele>376.25</ele><time>2026-04-25T08:28:51.999Z</time></trkpt><trkpt lat="45.786044543788364" lon="8.851124564944016"><ele>376.5</ele><time>2026-04-25T08:28:52.999Z</time></trkpt><trkpt lat="45.78617924120279" lon="8.851073167113926"><ele>376.75</ele><time>2026-04-25T08:28:53.999Z</time></trkpt><trkpt lat="45.786319402515545" lon="8.851018567346172"><ele>377.0</ele><time>2026-04-25T08:28:54.999Z</time></trkpt><trkpt lat="45.786460450732655" lon="8.85095686648132"><ele>377.25</ele><time>2026-04-25T08:28:55.999Z</time></trkpt><trkpt lat="45.78659176262532" lon="8.850898583566387"><ele>377.5</ele><time>2026-04-25T08:28:56.999Z</time></trkpt><trkpt lat="45.78671765034681" lon="8.85084914843531"><ele>377.75</ele><time>2026-04-25T08:28:57.999Z</time></trkpt><trkpt lat="45.78683492155853" lon="8.850800880694132"><ele>378.0</ele><time>2026-04-25T08:28:58.999Z</time></trkpt><trkpt lat="45.78694446861859" lon="8.850749902375679"><ele>378.0</ele><time>2026-04-25T08:28:59.999Z</time></trkpt><trkpt lat="45.787054737341926" lon="8.850696486276405"><ele>378.0</ele><time>2026-04-25T08:29:00.999Z</time></trkpt><trkpt lat="45.78716998717759" lon="8.850641037363651"><ele>378.0</ele><time>2026-04-25T08:29:01.999Z</time></trkpt><trkpt lat="45.78728290583497" lon="8.850573107335373"><ele>378.0</ele><time>2026-04-25T08:29:02.999Z</time></trkpt><trkpt lat="45.78739225304034" lon="8.85047765569157"><ele>378.0</ele><time>2026-04-25T08:29:03.999Z</time></trkpt><trkpt lat="45.787505835757315" lon="8.850344936528101"><ele>378.0</ele><time>2026-04-25T08:29:04.999Z</time></trkpt><trkpt lat="45.78762349585611" lon="8.85019301014123"><ele>378.0</ele><time>2026-04-25T08:29:05.999Z</time></trkpt><trkpt lat="45.787758307049835" lon="8.850054051117223"><ele>376.6666666666667</ele><time>2026-04-25T08:29:06.999Z</time></trkpt><trkpt lat="45.78791426935931" lon="8.849943886142572"><ele>375.33333333333337</ele><time>2026-04-25T08:29:07.999Z</time></trkpt><trkpt lat="45.788078079582974" lon="8.849852770813815"><ele>374.0</ele><time>2026-04-25T08:29:08.999Z</time></trkpt><trkpt lat="45.78822704530072" lon="8.849779157233872"><ele>374.0</ele><time>2026-04-25T08:29:09.999Z</time></trkpt><trkpt lat="45.788370074753814" lon="8.849707990262859"><ele>374.0</ele><time>2026-04-25T08:29:10.999Z</time></trkpt><trkpt lat="45.7885061737938" lon="8.84965142151419"><ele>374.0</ele><time>2026-04-25T08:29:11.999Z</time></trkpt><trkpt lat="45.788635706787765" lon="8.849629088816586"><ele>374.0</ele><time>2026-04-25T08:29:12.999Z</time></trkpt><trkpt lat="45.788771796545646" lon="8.849633499370212"><ele>374.5</ele><time>2026-04-25T08:29:13.999Z</time></trkpt><trkpt lat="45.788900805287206" lon="8.849642132807286"><ele>375.0</ele><time>2026-04-25T08:29:14.999Z</time></trkpt><trkpt lat="45.7890244366763" lon="8.8496586031306"><ele>375.5</ele><time>2026-04-25T08:29:15.999Z</time></trkpt><trkpt lat="45.789168114184235" lon="8.849613741561928"><ele>376.0</ele><time>2026-04-25T08:29:16.999Z</time></trkpt><trkpt lat="45.78928137803" lon="8.849596108361434"><ele>376.6</ele><time>2026-04-25T08:29:17.999Z</time></trkpt><trkpt lat="45.7893854550736" lon="8.84957780448174"><ele>377.20000000000005</ele><time>2026-04-25T08:29:18.999Z</time></trkpt><trkpt lat="45.789487275390385" lon="8.849546714766383"><ele>377.79999999999995</ele><time>2026-04-25T08:29:19.999Z</time></trkpt><trkpt lat="45.789591840639616" lon="8.849517501218363"><ele>378.4</ele><time>2026-04-25T08:29:20.999Z</time></trkpt><trkpt lat="45.789705307959046" lon="8.849476125479661"><ele>379.0</ele><time>2026-04-25T08:29:21.999Z</time></trkpt><trkpt lat="45.78983611932978" lon="8.849464979062375"><ele>379.0</ele><time>2026-04-25T08:29:22.999Z</time></trkpt><trkpt lat="45.790006216135936" lon="8.849395333135835"><ele>379.0</ele><time>2026-04-25T08:29:23.999Z</time></trkpt><trkpt lat="45.790182597320445" lon="8.84934304043922"><ele>379.0</ele><time>2026-04-25T08:29:24.999Z</time></trkpt><trkpt lat="45.79033963067073" lon="8.849299743524444"><ele>378.5</ele><time>2026-04-25T08:29:25.999Z</time></trkpt><trkpt lat="45.79047307551346" lon="8.849266291839548"><ele>378.0</ele><time>2026-04-25T08:29:26.999Z</time></trkpt><trkpt lat="45.790604541458244" lon="8.849282825198204"><ele>377.5</ele><time>2026-04-25T08:29:27.999Z</time></trkpt><trkpt lat="45.79073242502924" lon="8.849311329962452"><ele>377.0</ele><time>2026-04-25T08:29:28.999Z</time></trkpt><trkpt lat="45.790863657054295" lon="8.849386444815663"><ele>377.0</ele><time>2026-04-25T08:29:29.999Z</time></trkpt><trkpt lat="45.79095120845074" lon="8.849533921132235"><ele>377.0</ele><time>2026-04-25T08:29:30.999Z</time></trkpt><trkpt lat="45.79104885428899" lon="8.849639373800846"><ele>377.0</ele><time>2026-04-25T08:29:31.999Z</time></trkpt><trkpt lat="45.79114022755602" lon="8.849715918421776"><ele>377.0</ele><time>2026-04-25T08:29:32.999Z</time></trkpt><trkpt lat="45.791242672380754" lon="8.849794847581398"><ele>377.33333333333337</ele><time>2026-04-25T08:29:33.999Z</time></trkpt><trkpt lat="45.79138415354502" lon="8.849841968796698"><ele>377.6666666666667</ele><time>2026-04-25T08:29:34.999Z</time></trkpt><trkpt lat="45.79154091275589" lon="8.849861205937568"><ele>378.0</ele><time>2026-04-25T08:29:35.999Z</time></trkpt><trkpt lat="45.79168922024945" lon="8.849892675317165"><ele>378.0</ele><time>2026-04-25T08:29:36.999Z</time></trkpt><trkpt lat="45.79183199661608" lon="8.849933235018073"><ele>378.0</ele><time>2026-04-25T08:29:38Z</time></trkpt><trkpt lat="45.79193246500953" lon="8.849978313702325"><ele>378.0</ele><time>2026-04-25T08:29:39Z</time></trkpt><trkpt lat="45.79202472305492" lon="8.850005817023254"><ele>378.0</ele><time>2026-04-25T08:29:40Z</time></trkpt><trkpt lat="45.79212154240499" lon="8.850034680158794"><ele>378.0</ele><time>2026-04-25T08:29:41Z</time></trkpt><trkpt lat="45.79224126327512" lon="8.85005632918693"><ele>378.59999999999997</ele><time>2026-04-25T08:29:42Z</time></trkpt><trkpt lat="45.792367045665685" lon="8.850063072484794"><ele>379.2</ele><time>2026-04-25T08:29:43Z</time></trkpt><trkpt lat="45.79247729999074" lon="8.850091755964087"><ele>379.8</ele><time>2026-04-25T08:29:44Z</time></trkpt><trkpt lat="45.7925663845169" lon="8.850112220739732"><ele>380.4</ele><time>2026-04-25T08:29:45Z</time></trkpt><trkpt lat="45.79264633029275" lon="8.850121023686286"><ele>381.0</ele><time>2026-04-25T08:29:46Z</time></trkpt><trkpt lat="45.79270439539202" lon="8.850077977641032"><ele>381.0</ele><time>2026-04-25T08:29:47Z</time></trkpt><trkpt lat="45.79275525500627" lon="8.849959223434595"><ele>381.0</ele><time>2026-04-25T08:29:48Z</time></trkpt><trkpt lat="45.79281228357816" lon="8.849788945304331"><ele>381.0</ele><time>2026-04-25T08:29:49Z</time></trkpt><trkpt lat="45.792912678345516" lon="8.849603189107087"><ele>381.0</ele><time>2026-04-25T08:29:50Z</time></trkpt><trkpt lat="45.793063647037734" lon="8.849414937195775"><ele>382.66666666666663</ele><time>2026-04-25T08:29:51Z</time></trkpt><trkpt lat="45.79322167243353" lon="8.849232032267889"><ele>384.3333333333333</ele><time>2026-04-25T08:29:52Z</time></trkpt><trkpt lat="45.7933327908083" lon="8.849047540745442"><ele>386.0</ele><time>2026-04-25T08:29:53Z</time></trkpt><trkpt lat="45.793405390131085" lon="8.848872497578347"><ele>386.0</ele><time>2026-04-25T08:29:54Z</time></trkpt><trkpt lat="45.7934831094235" lon="8.848701309502644"><ele>386.0</ele><time>2026-04-25T08:29:55Z</time></trkpt><trkpt lat="45.7935647312249" lon="8.848532438261856"><ele>386.0</ele><time>2026-04-25T08:29:56Z</time></trkpt><trkpt lat="45.79363291168157" lon="8.848389475477523"><ele>386.0</ele><time>2026-04-25T08:29:57Z</time></trkpt><trkpt lat="45.79369597215598" lon="8.848270339765758"><ele>387.20000000000005</ele><time>2026-04-25T08:29:58Z</time></trkpt><trkpt lat="45.79376067902815" lon="8.848150715210563"><ele>388.40000000000003</ele><time>2026-04-25T08:29:59Z</time></trkpt><trkpt lat="45.7938239576431" lon="8.84801984828113"><ele>389.6</ele><time>2026-04-25T08:30:00Z</time></trkpt><trkpt lat="45.793879687325486" lon="8.84790079876412"><ele>390.8</ele><time>2026-04-25T08:30:01Z</time></trkpt><trkpt lat="45.793927566487646" lon="8.847801829375491"><ele>392.0</ele><time>2026-04-25T08:30:02Z</time></trkpt><trkpt lat="45.79398778309828" lon="8.847685638559113"><ele>392.0</ele><time>2026-04-25T08:30:04Z</time></trkpt><trkpt lat="45.794052324128444" lon="8.84754149870392"><ele>392.0</ele><time>2026-04-25T08:30:31Z</time></trkpt><trkpt lat="45.79410337107941" lon="8.84741410386894"><ele>392.0</ele><time>2026-04-25T08:30:32Z</time></trkpt><trkpt lat="45.79416212754197" lon="8.847241033546213"><ele>392.0</ele><time>2026-04-25T08:30:33Z</time></trkpt><trkpt lat="45.79421326987032" lon="8.847060127266957"><ele>392.0</ele><time>2026-04-25T08:30:34Z</time></trkpt><trkpt lat="45.79426469550118" lon="8.846860169897758"><ele>392.0</ele><time>2026-04-25T08:30:35Z</time></trkpt><trkpt lat="45.79432045161274" lon="8.846652419033031"><ele>392.0</ele><time>2026-04-25T08:30:36Z</time></trkpt><trkpt lat="45.79437683462939" lon="8.846457570810543"><ele>392.5</ele><time>2026-04-25T08:30:37Z</time></trkpt><trkpt lat="45.79443470681896" lon="8.846270479849696"><ele>393.0</ele><time>2026-04-25T08:30:38Z</time></trkpt><trkpt lat="45.794490316947126" lon="8.846080159143767"><ele>393.5</ele><time>2026-04-25T08:30:39Z</time></trkpt><trkpt lat="45.79454847428128" lon="8.845881000733824"><ele>394.0</ele><time>2026-04-25T08:30:40Z</time></trkpt><trkpt lat="45.79460838929377" lon="8.845681811430852"><ele>394.0</ele><time>2026-04-25T08:30:41Z</time></trkpt><trkpt lat="45.79466200581507" lon="8.845504692763784"><ele>394.0</ele><time>2026-04-25T08:30:42Z</time></trkpt><trkpt lat="45.79471429243844" lon="8.84535210767496"><ele>394.0</ele><time>2026-04-25T08:30:43Z</time></trkpt><trkpt lat="45.79475640013719" lon="8.84521677523327"><ele>394.0</ele><time>2026-04-25T08:30:44Z</time></trkpt><trkpt lat="45.79480392722841" lon="8.845096019481009"><ele>394.79999999999995</ele><time>2026-04-25T08:30:45Z</time></trkpt><trkpt lat="45.79486270156579" lon="8.844970541402894"><ele>395.59999999999997</ele><time>2026-04-25T08:30:46Z</time></trkpt><trkpt lat="45.79493894171006" lon="8.844864495651535"><ele>396.4</ele><time>2026-04-25T08:30:47Z</time></trkpt><trkpt lat="45.79503685842708" lon="8.844776622496788"><ele>397.2</ele><time>2026-04-25T08:30:48Z</time></trkpt><trkpt lat="45.795146971666284" lon="8.844716142215555"><ele>398.0</ele><time>2026-04-25T08:30:49Z</time></trkpt><trkpt lat="45.79526045921105" lon="8.844668745823848"><ele>398.5</ele><time>2026-04-25T08:30:50Z</time></trkpt><trkpt lat="45.79537968873494" lon="8.84462730310399"><ele>399.0</ele><time>2026-04-25T08:30:51Z</time></trkpt><trkpt lat="45.79550186818848" lon="8.844584900653656"><ele>399.5</ele><time>2026-04-25T08:30:52Z</time></trkpt><trkpt lat="45.79562611959617" lon="8.844547811068619"><ele>400.0</ele><time>2026-04-25T08:30:53Z</time></trkpt><trkpt lat="45.79575584672368" lon="8.844511214428264"><ele>400.0</ele><time>2026-04-25T08:30:54Z</time></trkpt><trkpt lat="45.79587802453499" lon="8.844465605689372"><ele>400.0</ele><time>2026-04-25T08:30:55Z</time></trkpt><trkpt lat="45.795997032793125" lon="8.844430427680926"><ele>400.0</ele><time>2026-04-25T08:30:56Z</time></trkpt><trkpt lat="45.79610485470611" lon="8.844393505372558"><ele>400.0</ele><time>2026-04-25T08:30:57Z</time></trkpt><trkpt lat="45.79621401318908" lon="8.844353756041901"><ele>400.0</ele><time>2026-04-25T08:30:58Z</time></trkpt><trkpt lat="45.79633544097925" lon="8.844313525620915"><ele>400.0</ele><time>2026-04-25T08:30:59Z</time></trkpt><trkpt lat="45.796474038012185" lon="8.844266350678563"><ele>400.0</ele><time>2026-04-25T08:30:59.999Z</time></trkpt><trkpt lat="45.79662138070263" lon="8.844213531618328"><ele>400.0</ele><time>2026-04-25T08:31:00.999Z</time></trkpt><trkpt lat="45.796769864325356" lon="8.844163109711516"><ele>401.0</ele><time>2026-04-25T08:31:01.999Z</time></trkpt><trkpt lat="45.796921110721705" lon="8.844113132517522"><ele>402.0</ele><time>2026-04-25T08:31:02.999Z</time></trkpt><trkpt lat="45.79707409163414" lon="8.84406418186069"><ele>403.0</ele><time>2026-04-25T08:31:03.999Z</time></trkpt><trkpt lat="45.79722034528674" lon="8.844014974904123"><ele>403.0</ele><time>2026-04-25T08:31:04.999Z</time></trkpt><trkpt lat="45.79735797705406" lon="8.843965492338281"><ele>403.0</ele><time>2026-04-25T08:31:05.999Z</time></trkpt><trkpt lat="45.79750220093679" lon="8.843938677982685"><ele>403.0</ele><time>2026-04-25T08:31:06.999Z</time></trkpt><trkpt lat="45.79764021650367" lon="8.843893839533765"><ele>403.0</ele><time>2026-04-25T08:31:07.999Z</time></trkpt><trkpt lat="45.797773936972476" lon="8.843850099049916"><ele>401.6666666666667</ele><time>2026-04-25T08:31:08.999Z</time></trkpt><trkpt lat="45.797925738650825" lon="8.843800162222312"><ele>400.33333333333337</ele><time>2026-04-25T08:31:09.999Z</time></trkpt><trkpt lat="45.7980864920032" lon="8.843744950487197"><ele>399.0</ele><time>2026-04-25T08:31:10.999Z</time></trkpt><trkpt lat="45.79823505193022" lon="8.843695257303112"><ele>399.0</ele><time>2026-04-25T08:31:11.999Z</time></trkpt><trkpt lat="45.79838512847965" lon="8.843645899907184"><ele>399.0</ele><time>2026-04-25T08:31:12.999Z</time></trkpt><trkpt lat="45.79854320849323" lon="8.843595281427785"><ele>399.0</ele><time>2026-04-25T08:31:13.999Z</time></trkpt><trkpt lat="45.798737584829105" lon="8.843532192977754"><ele>400.33333333333337</ele><time>2026-04-25T08:31:14.999Z</time></trkpt><trkpt lat="45.79892588054277" lon="8.843463522795993"><ele>401.6666666666667</ele><time>2026-04-25T08:31:15.999Z</time></trkpt><trkpt lat="45.79908130607172" lon="8.843415569255596"><ele>403.0</ele><time>2026-04-25T08:31:16.999Z</time></trkpt><trkpt lat="45.79922128854311" lon="8.843367944807035"><ele>403.75</ele><time>2026-04-25T08:31:17.999Z</time></trkpt><trkpt lat="45.79934945993583" lon="8.843322854027207"><ele>404.5</ele><time>2026-04-25T08:31:18.999Z</time></trkpt><trkpt lat="45.799463855601566" lon="8.843280243823203"><ele>405.25</ele><time>2026-04-25T08:31:19.999Z</time></trkpt><trkpt lat="45.79957603671774" lon="8.843249098927387"><ele>406.0</ele><time>2026-04-25T08:31:20.999Z</time></trkpt><trkpt lat="45.799670164339034" lon="8.843213860573405"><ele>406.00000000000006</ele><time>2026-04-25T08:31:21.999Z</time></trkpt><trkpt lat="45.799758395471926" lon="8.843177147567053"><ele>406.0</ele><time>2026-04-25T08:31:22.999Z</time></trkpt><trkpt lat="45.79983748021182" lon="8.843171061062774"><ele>406.0</ele><time>2026-04-25T08:31:23.999Z</time></trkpt><trkpt lat="45.79990816401121" lon="8.843147639300696"><ele>406.0</ele><time>2026-04-25T08:31:24.999Z</time></trkpt><trkpt lat="45.79997741430449" lon="8.843124183907662"><ele>406.00000000000006</ele><time>2026-04-25T08:31:25.999Z</time></trkpt><trkpt lat="45.80003972078915" lon="8.843103680150657"><ele>406.0</ele><time>2026-04-25T08:31:26.999Z</time></trkpt><trkpt lat="45.800113253702975" lon="8.843079115288917"><ele>407.0</ele><time>2026-04-25T08:31:27.999Z</time></trkpt><trkpt lat="45.800183789321" lon="8.843056712935272"><ele>408.0</ele><time>2026-04-25T08:31:28.999Z</time></trkpt><trkpt lat="45.800272004749985" lon="8.8430274955204"><ele>409.0</ele><time>2026-04-25T08:31:29.999Z</time></trkpt><trkpt lat="45.800403180527596" lon="8.842983525745357"><ele>410.0</ele><time>2026-04-25T08:31:30.999Z</time></trkpt><trkpt lat="45.80056709372679" lon="8.842915840752063"><ele>410.0</ele><time>2026-04-25T08:31:31.999Z</time></trkpt><trkpt lat="45.800728499352935" lon="8.842872444414816"><ele>410.0</ele><time>2026-04-25T08:31:32.999Z</time></trkpt><trkpt lat="45.80088946878276" lon="8.842816960847339"><ele>410.0</ele><time>2026-04-25T08:31:33.999Z</time></trkpt><trkpt lat="45.801033623993014" lon="8.842771198330116"><ele>409.75</ele><time>2026-04-25T08:31:34.999Z</time></trkpt><trkpt lat="45.80116346042064" lon="8.84272504073397"><ele>409.5</ele><time>2026-04-25T08:31:35.999Z</time></trkpt><trkpt lat="45.80128232828656" lon="8.842683776101861"><ele>409.25</ele><time>2026-04-25T08:31:36.999Z</time></trkpt><trkpt lat="45.80139811223386" lon="8.842652270144892"><ele>409.0</ele><time>2026-04-25T08:31:37.999Z</time></trkpt><trkpt lat="45.80153421641929" lon="8.84260760448852"><ele>409.5</ele><time>2026-04-25T08:31:38.999Z</time></trkpt><trkpt lat="45.80167207912183" lon="8.842558350250695"><ele>410.0</ele><time>2026-04-25T08:31:39.999Z</time></trkpt><trkpt lat="45.80181687952341" lon="8.842504651943406"><ele>410.5</ele><time>2026-04-25T08:31:40.999Z</time></trkpt><trkpt lat="45.801968736623486" lon="8.842458173717091"><ele>411.0</ele><time>2026-04-25T08:31:41.999Z</time></trkpt><trkpt lat="45.80210825792985" lon="8.842408418711779"><ele>411.0</ele><time>2026-04-25T08:31:42.999Z</time></trkpt><trkpt lat="45.802237279532214" lon="8.842342613278895"><ele>411.0</ele><time>2026-04-25T08:31:44Z</time></trkpt><trkpt lat="45.802352419684034" lon="8.842269109927043"><ele>411.0</ele><time>2026-04-25T08:31:45Z</time></trkpt><trkpt lat="45.80246745815592" lon="8.842190267747487"><ele>411.0</ele><time>2026-04-25T08:31:46Z</time></trkpt><trkpt lat="45.80257101117553" lon="8.842093113978953"><ele>411.0</ele><time>2026-04-25T08:31:47Z</time></trkpt><trkpt lat="45.802678629929545" lon="8.841974505998584"><ele>411.0</ele><time>2026-04-25T08:31:48Z</time></trkpt><trkpt lat="45.80279719419362" lon="8.841835965104362"><ele>411.0</ele><time>2026-04-25T08:31:49Z</time></trkpt><trkpt lat="45.8029267982754" lon="8.841693164402889"><ele>411.0</ele><time>2026-04-25T08:31:50Z</time></trkpt><trkpt lat="45.80304779449214" lon="8.841565697481432"><ele>411.0</ele><time>2026-04-25T08:31:51Z</time></trkpt><trkpt lat="45.80316443411695" lon="8.841442335855533"><ele>411.0</ele><time>2026-04-25T08:31:52Z</time></trkpt><trkpt lat="45.803277697791344" lon="8.841317923077415"><ele>411.0</ele><time>2026-04-25T08:31:53Z</time></trkpt><trkpt lat="45.803384949095204" lon="8.841196217702507"><ele>411.0</ele><time>2026-04-25T08:31:54Z</time></trkpt><trkpt lat="45.80348973390626" lon="8.84108336590639"><ele>411.0</ele><time>2026-04-25T08:31:55Z</time></trkpt><trkpt lat="45.80359129400987" lon="8.840975933221364"><ele>411.0</ele><time>2026-04-25T08:31:56Z</time></trkpt><trkpt lat="45.80369076008927" lon="8.84086850055042"><ele>411.0</ele><time>2026-04-25T08:31:57Z</time></trkpt><trkpt lat="45.80379166631189" lon="8.84076220966337"><ele>410.25</ele><time>2026-04-25T08:31:58Z</time></trkpt><trkpt lat="45.80389258301972" lon="8.840655371461933"><ele>409.5</ele><time>2026-04-25T08:31:59Z</time></trkpt><trkpt lat="45.80399316868967" lon="8.840550088254796"><ele>408.75</ele><time>2026-04-25T08:32:00Z</time></trkpt><trkpt lat="45.804100420314036" lon="8.840446657474583"><ele>408.0</ele><time>2026-04-25T08:32:01Z</time></trkpt><trkpt lat="45.80421801503589" lon="8.840352332131568"><ele>407.75</ele><time>2026-04-25T08:32:02Z</time></trkpt><trkpt lat="45.804335086657744" lon="8.840267170074414"><ele>407.5</ele><time>2026-04-25T08:32:03Z</time></trkpt><trkpt lat="45.80444746084965" lon="8.840188133006546"><ele>407.25</ele><time>2026-04-25T08:32:04Z</time></trkpt><trkpt lat="45.804559728466145" lon="8.840115599568398"><ele>407.0</ele><time>2026-04-25T08:32:05Z</time></trkpt><trkpt lat="45.804670642832676" lon="8.840043218487878"><ele>407.0</ele><time>2026-04-25T08:32:06Z</time></trkpt><trkpt lat="45.80478865719059" lon="8.839963730222527"><ele>407.0</ele><time>2026-04-25T08:32:07Z</time></trkpt><trkpt lat="45.804911076876685" lon="8.83987810263882"><ele>407.0</ele><time>2026-04-25T08:32:08Z</time></trkpt><trkpt lat="45.80502497101739" lon="8.839794502679153"><ele>407.0</ele><time>2026-04-25T08:32:09Z</time></trkpt><trkpt lat="45.805134395966974" lon="8.839716441199409"><ele>406.25</ele><time>2026-04-25T08:32:10Z</time></trkpt><trkpt lat="45.8052415515098" lon="8.839635809659663"><ele>405.5</ele><time>2026-04-25T08:32:11Z</time></trkpt><trkpt lat="45.80535261737474" lon="8.839552119258"><ele>404.75</ele><time>2026-04-25T08:32:12Z</time></trkpt><trkpt lat="45.80545679751907" lon="8.839462477762451"><ele>404.0</ele><time>2026-04-25T08:32:13Z</time></trkpt><trkpt lat="45.80556189932151" lon="8.8393683289991"><ele>403.75</ele><time>2026-04-25T08:32:14Z</time></trkpt><trkpt lat="45.80567797165115" lon="8.839271882414884"><ele>403.5</ele><time>2026-04-25T08:32:15Z</time></trkpt><trkpt lat="45.805810004999756" lon="8.839172302977937"><ele>403.25</ele><time>2026-04-25T08:32:16Z</time></trkpt><trkpt lat="45.80594438449327" lon="8.83906094632711"><ele>403.0</ele><time>2026-04-25T08:32:17Z</time></trkpt><trkpt lat="45.80608817124834" lon="8.838936945831994"><ele>403.0</ele><time>2026-04-25T08:32:18Z</time></trkpt><trkpt lat="45.80622675473792" lon="8.838826621146655"><ele>403.0</ele><time>2026-04-25T08:32:19Z</time></trkpt><trkpt lat="45.80637198309503" lon="8.838734442111905"><ele>403.0</ele><time>2026-04-25T08:32:20Z</time></trkpt><trkpt lat="45.80646572003806" lon="8.83860185578765"><ele>403.0</ele><time>2026-04-25T08:32:21Z</time></trkpt><trkpt lat="45.806584225590754" lon="8.838491493654361"><ele>402.0</ele><time>2026-04-25T08:32:22Z</time></trkpt><trkpt lat="45.80669436826028" lon="8.838392474768314"><ele>401.0</ele><time>2026-04-25T08:32:23Z</time></trkpt><trkpt lat="45.80679940068575" lon="8.838303509076445"><ele>400.0</ele><time>2026-04-25T08:32:24Z</time></trkpt><trkpt lat="45.80690167053112" lon="8.838215429951394"><ele>399.0</ele><time>2026-04-25T08:32:25Z</time></trkpt><trkpt lat="45.806997311639165" lon="8.838123699490117"><ele>398.79999999999995</ele><time>2026-04-25T08:32:26Z</time></trkpt><trkpt lat="45.807097069472924" lon="8.838031133874448"><ele>398.59999999999997</ele><time>2026-04-25T08:32:27Z</time></trkpt><trkpt lat="45.80719496247446" lon="8.837945897100656"><ele>398.4</ele><time>2026-04-25T08:32:28Z</time></trkpt><trkpt lat="45.8072845806196" lon="8.8378739906341"><ele>398.2</ele><time>2026-04-25T08:32:29Z</time></trkpt><trkpt lat="45.80738062376729" lon="8.837795467878687"><ele>398.0</ele><time>2026-04-25T08:32:30Z</time></trkpt><trkpt lat="45.807485288564585" lon="8.83771176364879"><ele>397.75</ele><time>2026-04-25T08:32:31Z</time></trkpt><trkpt lat="45.807592000391516" lon="8.837615962033672"><ele>397.5</ele><time>2026-04-25T08:32:32Z</time></trkpt><trkpt lat="45.80769333595615" lon="8.837512633332446"><ele>397.25</ele><time>2026-04-25T08:32:33Z</time></trkpt><trkpt lat="45.80779505770209" lon="8.837421776044074"><ele>397.0</ele><time>2026-04-25T08:32:34Z</time></trkpt><trkpt lat="45.80788513264226" lon="8.837345416819181"><ele>397.00000000000006</ele><time>2026-04-25T08:32:35Z</time></trkpt><trkpt lat="45.807972296454764" lon="8.837271945527084"><ele>397.0</ele><time>2026-04-25T08:32:36Z</time></trkpt><trkpt lat="45.808053357915725" lon="8.837199011132455"><ele>397.0</ele><time>2026-04-25T08:32:37Z</time></trkpt><trkpt lat="45.8081229625723" lon="8.837125973968977"><ele>397.0</ele><time>2026-04-25T08:32:38Z</time></trkpt><trkpt lat="45.80819384323233" lon="8.837065809044386"><ele>397.00000000000006</ele><time>2026-04-25T08:32:39Z</time></trkpt><trkpt lat="45.80825313848942" lon="8.83701273600429"><ele>397.0</ele><time>2026-04-25T08:32:40Z</time></trkpt><trkpt lat="45.80830854951922" lon="8.836965295323036"><ele>397.00000000000006</ele><time>2026-04-25T08:32:41Z</time></trkpt><trkpt lat="45.80837243331185" lon="8.836913950957497"><ele>397.0</ele><time>2026-04-25T08:32:43Z</time></trkpt><trkpt lat="45.80843697230608" lon="8.836851293692042"><ele>397.0</ele><time>2026-04-25T08:32:47Z</time></trkpt><trkpt lat="45.808508186442424" lon="8.836792261842538"><ele>397.0</ele><time>2026-04-25T08:32:50Z</time></trkpt><trkpt lat="45.80860758329802" lon="8.83669827380399"><ele>397.00000000000006</ele><time>2026-04-25T08:32:52Z</time></trkpt><trkpt lat="45.80866652464244" lon="8.836647723308923"><ele>397.0</ele><time>2026-04-25T08:32:53Z</time></trkpt><trkpt lat="45.80872268095614" lon="8.836598217419107"><ele>396.1666666666667</ele><time>2026-04-25T08:32:54Z</time></trkpt><trkpt lat="45.80878517827464" lon="8.836554096081805"><ele>395.33333333333337</ele><time>2026-04-25T08:32:55Z</time></trkpt><trkpt lat="45.80885302702186" lon="8.836505542969563"><ele>394.5</ele><time>2026-04-25T08:32:56Z</time></trkpt><trkpt lat="45.808928629361205" lon="8.836459689127228"><ele>393.66666666666663</ele><time>2026-04-25T08:32:57Z</time></trkpt><trkpt lat="45.80901250676099" lon="8.836403116492459"><ele>392.8333333333333</ele><time>2026-04-25T08:32:58Z</time></trkpt><trkpt lat="45.80910656867986" lon="8.836341194166513"><ele>392.0</ele><time>2026-04-25T08:32:59Z</time></trkpt><trkpt lat="45.809197918461166" lon="8.836273343338485"><ele>392.0</ele><time>2026-04-25T08:33:00Z</time></trkpt><trkpt lat="45.809292777199055" lon="8.836220058015158"><ele>392.0</ele><time>2026-04-25T08:33:01Z</time></trkpt><trkpt lat="45.80938501578705" lon="8.836155043658323"><ele>392.0</ele><time>2026-04-25T08:33:02Z</time></trkpt><trkpt lat="45.80947802212571" lon="8.83609360557317"><ele>392.0</ele><time>2026-04-25T08:33:03Z</time></trkpt><trkpt lat="45.80956656597724" lon="8.83602917490131"><ele>392.0</ele><time>2026-04-25T08:33:04Z</time></trkpt><trkpt lat="45.809648692532704" lon="8.835964784460447"><ele>391.8</ele><time>2026-04-25T08:33:05Z</time></trkpt><trkpt lat="45.80973387721334" lon="8.835893686432856"><ele>391.6</ele><time>2026-04-25T08:33:06Z</time></trkpt><trkpt lat="45.80981860260496" lon="8.835818872444152"><ele>391.40000000000003</ele><time>2026-04-25T08:33:07Z</time></trkpt><trkpt lat="45.80991325151118" lon="8.835766794372946"><ele>391.20000000000005</ele><time>2026-04-25T08:33:08Z</time></trkpt><trkpt lat="45.8099982268049" lon="8.835694731286269"><ele>391.0</ele><time>2026-04-25T08:33:09Z</time></trkpt><trkpt lat="45.81007751141591" lon="8.835602130384855"><ele>391.1666666666667</ele><time>2026-04-25T08:33:10Z</time></trkpt><trkpt lat="45.81015853504415" lon="8.835539381021931"><ele>391.33333333333337</ele><time>2026-04-25T08:33:11Z</time></trkpt><trkpt lat="45.810238317033054" lon="8.835518427787154"><ele>391.5</ele><time>2026-04-25T08:33:11.999Z</time></trkpt><trkpt lat="45.810314001818334" lon="8.835464315678331"><ele>391.66666666666663</ele><time>2026-04-25T08:33:12.999Z</time></trkpt><trkpt lat="45.81039176390189" lon="8.835427488288243"><ele>391.8333333333333</ele><time>2026-04-25T08:33:13.999Z</time></trkpt><trkpt lat="45.810456550363604" lon="8.835396128972844"><ele>392.0</ele><time>2026-04-25T08:33:14.999Z</time></trkpt><trkpt lat="45.810557103242395" lon="8.835345945903955"><ele>392.0</ele><time>2026-04-25T08:33:16.999Z</time></trkpt><trkpt lat="45.810637133947225" lon="8.835295494884395"><ele>392.0</ele><time>2026-04-25T08:33:18.999Z</time></trkpt><trkpt lat="45.81072102373369" lon="8.83523639733074"><ele>392.0</ele><time>2026-04-25T08:33:21.999Z</time></trkpt><trkpt lat="45.81085770096512" lon="8.835132398072108"><ele>392.0</ele><time>2026-04-25T08:33:23.999Z</time></trkpt><trkpt lat="45.810959554757034" lon="8.835084189080423"><ele>392.0</ele><time>2026-04-25T08:33:24.999Z</time></trkpt><trkpt lat="45.811047117612446" lon="8.835046262699274"><ele>391.8333333333333</ele><time>2026-04-25T08:33:25.999Z</time></trkpt><trkpt lat="45.81111076244962" lon="8.83501093094802"><ele>391.66666666666663</ele><time>2026-04-25T08:33:26.999Z</time></trkpt><trkpt lat="45.81117421271752" lon="8.834958339560751"><ele>391.5</ele><time>2026-04-25T08:33:27.999Z</time></trkpt><trkpt lat="45.811225878525704" lon="8.83487381079554"><ele>391.33333333333337</ele><time>2026-04-25T08:33:28.999Z</time></trkpt><trkpt lat="45.81125951336581" lon="8.834749574646814"><ele>391.1666666666667</ele><time>2026-04-25T08:33:29.999Z</time></trkpt><trkpt lat="45.81125929411225" lon="8.834633572273566"><ele>391.0</ele><time>2026-04-25T08:33:30.999Z</time></trkpt><trkpt lat="45.81125934678312" lon="8.834539739105605"><ele>391.0</ele><time>2026-04-25T08:33:31.999Z</time></trkpt><trkpt lat="45.81133634843223" lon="8.83438066597176"><ele>391.0</ele><time>2026-04-25T08:33:33.999Z</time></trkpt><trkpt lat="45.81140839509027" lon="8.834308623518014"><ele>391.0</ele><time>2026-04-25T08:33:34.999Z</time></trkpt><trkpt lat="45.81150086461122" lon="8.834246007057358"><ele>391.0</ele><time>2026-04-25T08:33:35.999Z</time></trkpt><trkpt lat="45.81160647122385" lon="8.83418387606624"><ele>391.0</ele><time>2026-04-25T08:33:36.999Z</time></trkpt><trkpt lat="45.8117123314885" lon="8.83411992312841"><ele>390.75</ele><time>2026-04-25T08:33:37.999Z</time></trkpt><trkpt lat="45.81181565145117" lon="8.83405491304696"><ele>390.5</ele><time>2026-04-25T08:33:38.999Z</time></trkpt><trkpt lat="45.811928147754045" lon="8.833985309286332"><ele>390.25</ele><time>2026-04-25T08:33:39.999Z</time></trkpt><trkpt lat="45.812043406308305" lon="8.833918054226391"><ele>390.0</ele><time>2026-04-25T08:33:40.999Z</time></trkpt><trkpt lat="45.81215349995428" lon="8.833857675311709"><ele>390.0</ele><time>2026-04-25T08:33:41.999Z</time></trkpt><trkpt lat="45.812249968585284" lon="8.833790961197705"><ele>390.0</ele><time>2026-04-25T08:33:42.999Z</time></trkpt><trkpt lat="45.81233525546593" lon="8.833715222265184"><ele>390.0</ele><time>2026-04-25T08:33:43.999Z</time></trkpt><trkpt lat="45.81240920626351" lon="8.833633394678301"><ele>390.0</ele><time>2026-04-25T08:33:44.999Z</time></trkpt><trkpt lat="45.81248123165379" lon="8.833546347684546"><ele>390.0</ele><time>2026-04-25T08:33:45.999Z</time></trkpt><trkpt lat="45.81255831414603" lon="8.833448226647539"><ele>389.75</ele><time>2026-04-25T08:33:46.999Z</time></trkpt><trkpt lat="45.81264255668219" lon="8.833340936124984"><ele>389.5</ele><time>2026-04-25T08:33:47.999Z</time></trkpt><trkpt lat="45.81273666751742" lon="8.833229608776223"><ele>389.25</ele><time>2026-04-25T08:33:48.999Z</time></trkpt><trkpt lat="45.81282455456959" lon="8.833109908099177"><ele>389.0</ele><time>2026-04-25T08:33:50Z</time></trkpt><trkpt lat="45.81290365281468" lon="8.833006385511862"><ele>388.6</ele><time>2026-04-25T08:33:51Z</time></trkpt><trkpt lat="45.81297612371378" lon="8.832911347789366"><ele>388.2</ele><time>2026-04-25T08:33:52Z</time></trkpt><trkpt lat="45.81303878105792" lon="8.832825387594653"><ele>387.8</ele><time>2026-04-25T08:33:53Z</time></trkpt><trkpt lat="45.81309612081161" lon="8.83274170254032"><ele>387.40000000000003</ele><time>2026-04-25T08:33:54Z</time></trkpt><trkpt lat="45.813159552372596" lon="8.83264696510846"><ele>387.0</ele><time>2026-04-25T08:33:55Z</time></trkpt><trkpt lat="45.813235905711466" lon="8.83254382962063"><ele>387.0</ele><time>2026-04-25T08:33:56Z</time></trkpt><trkpt lat="45.81331412845715" lon="8.832436180074446"><ele>387.0</ele><time>2026-04-25T08:33:57Z</time></trkpt><trkpt lat="45.81338220724364" lon="8.83234483820258"><ele>387.0</ele><time>2026-04-25T08:33:58Z</time></trkpt><trkpt lat="45.813441909695165" lon="8.832259991018738"><ele>387.0</ele><time>2026-04-25T08:33:59Z</time></trkpt><trkpt lat="45.81351372351445" lon="8.83219892173622"><ele>387.0</ele><time>2026-04-25T08:34:00Z</time></trkpt><trkpt lat="45.813573854895864" lon="8.832122420596608"><ele>387.0</ele><time>2026-04-25T08:34:01Z</time></trkpt><trkpt lat="45.813635964626464" lon="8.832043402536994"><ele>387.1666666666667</ele><time>2026-04-25T08:34:02Z</time></trkpt><trkpt lat="45.813697069839066" lon="8.83196566246261"><ele>387.33333333333337</ele><time>2026-04-25T08:34:03Z</time></trkpt><trkpt lat="45.813812543278566" lon="8.831818753315005"><ele>387.5</ele><time>2026-04-25T08:34:05Z</time></trkpt><trkpt lat="45.81386435348358" lon="8.831752838655243"><ele>387.6666666666667</ele><time>2026-04-25T08:34:06Z</time></trkpt><trkpt lat="45.81390471862109" lon="8.831673062438893"><ele>387.83333333333337</ele><time>2026-04-25T08:34:07Z</time></trkpt><trkpt lat="45.81395929260833" lon="8.831619716755814"><ele>388.0</ele><time>2026-04-25T08:34:08Z</time></trkpt><trkpt lat="45.81402615052068" lon="8.831526556464073"><ele>388.0</ele><time>2026-04-25T08:34:10Z</time></trkpt><trkpt lat="45.81408593902579" lon="8.831458573250234"><ele>388.0</ele><time>2026-04-25T08:34:12Z</time></trkpt><trkpt lat="45.814165987564905" lon="8.831341338829802"><ele>388.0</ele><time>2026-04-25T08:34:14Z</time></trkpt><trkpt lat="45.81422090376685" lon="8.831254451825085"><ele>388.0</ele><time>2026-04-25T08:34:15Z</time></trkpt><trkpt lat="45.81428661222385" lon="8.83114325434314"><ele>388.0</ele><time>2026-04-25T08:34:16Z</time></trkpt><trkpt lat="45.81434124697482" lon="8.831030911185874"><ele>388.25</ele><time>2026-04-25T08:34:17Z</time></trkpt><trkpt lat="45.81440654993313" lon="8.83090056563532"><ele>388.5</ele><time>2026-04-25T08:34:18Z</time></trkpt><trkpt lat="45.814471734713564" lon="8.830770455954065"><ele>388.75</ele><time>2026-04-25T08:34:19Z</time></trkpt><trkpt lat="45.81454151721551" lon="8.830632762114366"><ele>389.0</ele><time>2026-04-25T08:34:20Z</time></trkpt><trkpt lat="45.81459883615075" lon="8.830487071918268"><ele>388.99999999999994</ele><time>2026-04-25T08:34:21Z</time></trkpt><trkpt lat="45.81466411322871" lon="8.830370210109702"><ele>389.0</ele><time>2026-04-25T08:34:22Z</time></trkpt><trkpt lat="45.81472638024391" lon="8.830265944999404"><ele>389.0</ele><time>2026-04-25T08:34:23Z</time></trkpt><trkpt lat="45.81477845721142" lon="8.830171766147412"><ele>389.0</ele><time>2026-04-25T08:34:24Z</time></trkpt><trkpt lat="45.814829864068265" lon="8.830085825953992"><ele>388.99999999999994</ele><time>2026-04-25T08:34:25Z</time></trkpt><trkpt lat="45.814887748859775" lon="8.830001240049183"><ele>389.0</ele><time>2026-04-25T08:34:26Z</time></trkpt><trkpt lat="45.8149435957955" lon="8.82991598648838"><ele>388.6</ele><time>2026-04-25T08:34:27Z</time></trkpt><trkpt lat="45.81500615724684" lon="8.829831021240226"><ele>388.2</ele><time>2026-04-25T08:34:28Z</time></trkpt><trkpt lat="45.81507794579184" lon="8.829734078518147"><ele>387.8</ele><time>2026-04-25T08:34:29Z</time></trkpt><trkpt lat="45.81515279241342" lon="8.829630975461747"><ele>387.40000000000003</ele><time>2026-04-25T08:34:30Z</time></trkpt><trkpt lat="45.81522060351535" lon="8.829535239316277"><ele>387.0</ele><time>2026-04-25T08:34:31Z</time></trkpt><trkpt lat="45.815281771899265" lon="8.829450205181887"><ele>386.5</ele><time>2026-04-25T08:34:32Z</time></trkpt><trkpt lat="45.81534257845627" lon="8.829363857695093"><ele>386.0</ele><time>2026-04-25T08:34:33Z</time></trkpt><trkpt lat="45.815405177908666" lon="8.829274478749891"><ele>385.5</ele><time>2026-04-25T08:34:34Z</time></trkpt><trkpt lat="45.815454062728705" lon="8.829198499350293"><ele>385.0</ele><time>2026-04-25T08:34:35Z</time></trkpt><trkpt lat="45.81552105851602" lon="8.829111290818838"><ele>384.5</ele><time>2026-04-25T08:34:36Z</time></trkpt><trkpt lat="45.81557453068668" lon="8.829039299074783"><ele>384.0</ele><time>2026-04-25T08:34:37Z</time></trkpt><trkpt lat="45.81562226581629" lon="8.828963949292152"><ele>384.0</ele><time>2026-04-25T08:34:38Z</time></trkpt><trkpt lat="45.81567139755999" lon="8.828888684650405"><ele>384.0</ele><time>2026-04-25T08:34:39Z</time></trkpt><trkpt lat="45.81573237623101" lon="8.82880905739293"><ele>384.0</ele><time>2026-04-25T08:34:40Z</time></trkpt><trkpt lat="45.815797519097686" lon="8.8287235078841"><ele>384.0</ele><time>2026-04-25T08:34:41Z</time></trkpt><trkpt lat="45.815852197175836" lon="8.82864715816912"><ele>384.0</ele><time>2026-04-25T08:34:42Z</time></trkpt><trkpt lat="45.81589931983715" lon="8.828576848948472"><ele>384.0</ele><time>2026-04-25T08:34:43Z</time></trkpt><trkpt lat="45.815988838487364" lon="8.828444616993664"><ele>384.3333333333333</ele><time>2026-04-25T08:34:45Z</time></trkpt><trkpt lat="45.81603442969702" lon="8.828373005221062"><ele>384.66666666666663</ele><time>2026-04-25T08:34:46Z</time></trkpt><trkpt lat="45.816080160034545" lon="8.82830418345322"><ele>385.0</ele><time>2026-04-25T08:34:47Z</time></trkpt><trkpt lat="45.81613411929546" lon="8.828238434379422"><ele>385.3333333333333</ele><time>2026-04-25T08:34:48Z</time></trkpt><trkpt lat="45.816184892432815" lon="8.828154776603267"><ele>385.66666666666663</ele><time>2026-04-25T08:34:49Z</time></trkpt><trkpt lat="45.816246079608284" lon="8.828075787258914"><ele>386.0</ele><time>2026-04-25T08:34:50Z</time></trkpt><trkpt lat="45.81630847063293" lon="8.827988411716367"><ele>385.99999999999994</ele><time>2026-04-25T08:34:51Z</time></trkpt><trkpt lat="45.8163714868426" lon="8.827903326463613"><ele>386.0</ele><time>2026-04-25T08:34:52Z</time></trkpt><trkpt lat="45.816434560074796" lon="8.827820041464634"><ele>386.0</ele><time>2026-04-25T08:34:53Z</time></trkpt><trkpt lat="45.81649705121763" lon="8.827735558722194"><ele>386.0</ele><time>2026-04-25T08:34:54Z</time></trkpt><trkpt lat="45.8165549761988" lon="8.827656980481844"><ele>385.99999999999994</ele><time>2026-04-25T08:34:55Z</time></trkpt><trkpt lat="45.816612959241525" lon="8.82758732617989"><ele>386.0</ele><time>2026-04-25T08:34:56Z</time></trkpt><trkpt lat="45.816659610841455" lon="8.827520061595575"><ele>386.66666666666663</ele><time>2026-04-25T08:34:57Z</time></trkpt><trkpt lat="45.816712411406904" lon="8.82744229150178"><ele>387.3333333333333</ele><time>2026-04-25T08:34:58Z</time></trkpt><trkpt lat="45.81676288611377" lon="8.827347533370446"><ele>388.0</ele><time>2026-04-25T08:34:59Z</time></trkpt><trkpt lat="45.81682953968222" lon="8.827259359411789"><ele>388.66666666666663</ele><time>2026-04-25T08:35:00Z</time></trkpt><trkpt lat="45.81689623197939" lon="8.827166608136551"><ele>389.3333333333333</ele><time>2026-04-25T08:35:01Z</time></trkpt><trkpt lat="45.81696777644137" lon="8.8270760596951"><ele>390.0</ele><time>2026-04-25T08:35:02Z</time></trkpt><trkpt lat="45.8170276181749" lon="8.826990098807165"><ele>390.0</ele><time>2026-04-25T08:35:03Z</time></trkpt><trkpt lat="45.8170840215823" lon="8.826911336317009"><ele>390.0</ele><time>2026-04-25T08:35:04Z</time></trkpt><trkpt lat="45.81713091844718" lon="8.826836646847985"><ele>390.0</ele><time>2026-04-25T08:35:05Z</time></trkpt><trkpt lat="45.817198609606415" lon="8.82673736438498"><ele>390.0</ele><time>2026-04-25T08:35:07Z</time></trkpt><trkpt lat="45.81725882715304" lon="8.826648316905986"><ele>390.0</ele><time>2026-04-25T08:35:10Z</time></trkpt><trkpt lat="45.81730998165586" lon="8.826588038470378"><ele>390.0</ele><time>2026-04-25T08:35:14Z</time></trkpt><trkpt lat="45.81737709704575" lon="8.82654574374709"><ele>389.6666666666667</ele><time>2026-04-25T08:35:15.999Z</time></trkpt><trkpt lat="45.81747789950413" lon="8.826528997477018"><ele>389.33333333333337</ele><time>2026-04-25T08:35:21.999Z</time></trkpt><trkpt lat="45.817555521166085" lon="8.826506908905102"><ele>389.0</ele><time>2026-04-25T08:35:23.999Z</time></trkpt><trkpt lat="45.817607481802476" lon="8.826416767819733"><ele>388.6666666666667</ele><time>2026-04-25T08:35:25.999Z</time></trkpt><trkpt lat="45.81766043170088" lon="8.826274608931644"><ele>388.33333333333337</ele><time>2026-04-25T08:35:27.999Z</time></trkpt><trkpt lat="45.81771931330298" lon="8.826213785613998"><ele>388.0</ele><time>2026-04-25T08:35:29.999Z</time></trkpt><trkpt lat="45.817759030598715" lon="8.826142897204047"><ele>388.0</ele><time>2026-04-25T08:35:31.999Z</time></trkpt><trkpt lat="45.817834317106964" lon="8.826014591863835"><ele>388.0</ele><time>2026-04-25T08:35:33.999Z</time></trkpt><trkpt lat="45.81788162738357" lon="8.825934717470709"><ele>388.0</ele><time>2026-04-25T08:35:34.999Z</time></trkpt><trkpt lat="45.817923181784224" lon="8.825865842957809"><ele>388.0</ele><time>2026-04-25T08:35:35.999Z</time></trkpt><trkpt lat="45.81799533294933" lon="8.825745814732844"><ele>388.0</ele><time>2026-04-25T08:35:37.999Z</time></trkpt><trkpt lat="45.81805824895735" lon="8.825641149816843"><ele>387.50000000000006</ele><time>2026-04-25T08:35:39.999Z</time></trkpt><trkpt lat="45.81810494843916" lon="8.825563462147006"><ele>387.0</ele><time>2026-04-25T08:35:42.999Z</time></trkpt><trkpt lat="45.81815504007156" lon="8.82548120088347"><ele>386.5</ele><time>2026-04-25T08:35:45.999Z</time></trkpt><trkpt lat="45.818194035363156" lon="8.825386899448654"><ele>386.0</ele><time>2026-04-25T08:35:48.999Z</time></trkpt><trkpt lat="45.81824525778891" lon="8.825298354949592"><ele>385.50000000000006</ele><time>2026-04-25T08:35:52.999Z</time></trkpt><trkpt lat="45.818303808479286" lon="8.825237465108346"><ele>385.0</ele><time>2026-04-25T08:35:56Z</time></trkpt><trkpt lat="45.81838530568335" lon="8.825193443919414"><ele>385.00000000000006</ele><time>2026-04-25T08:36:01Z</time></trkpt><trkpt lat="45.81844424129958" lon="8.825152682053222"><ele>385.0</ele><time>2026-04-25T08:36:05Z</time></trkpt><trkpt lat="45.8185190694438" lon="8.825219755781843"><ele>385.0</ele><time>2026-04-25T08:36:06Z</time></trkpt><trkpt lat="45.818587559363706" lon="8.82521544328037"><ele>385.0</ele><time>2026-04-25T08:36:08Z</time></trkpt><trkpt lat="45.81866001259198" lon="8.825193737651757"><ele>385.00000000000006</ele><time>2026-04-25T08:36:11Z</time></trkpt><trkpt lat="45.81874690360243" lon="8.825193551124446"><ele>385.0</ele><time>2026-04-25T08:36:15Z</time></trkpt><trkpt lat="45.8188436840557" lon="8.825205278339544"><ele>385.4</ele><time>2026-04-25T08:36:18Z</time></trkpt><trkpt lat="45.81893596814916" lon="8.825201929317668"><ele>385.8</ele><time>2026-04-25T08:36:20Z</time></trkpt><trkpt lat="45.81905471933542" lon="8.825179283590957"><ele>386.20000000000005</ele><time>2026-04-25T08:36:22Z</time></trkpt><trkpt lat="45.81916717684657" lon="8.8251758006255"><ele>386.6</ele><time>2026-04-25T08:36:24Z</time></trkpt><trkpt lat="45.819239127752596" lon="8.825175999931009"><ele>387.0</ele><time>2026-04-25T08:36:26Z</time></trkpt><trkpt lat="45.81931862616055" lon="8.825176371644366"><ele>387.0</ele><time>2026-04-25T08:36:29Z</time></trkpt><trkpt lat="45.81940862192146" lon="8.825177113278048"><ele>387.0</ele><time>2026-04-25T08:36:31Z</time></trkpt><trkpt lat="45.81952170241709" lon="8.825177149593252"><ele>387.0</ele><time>2026-04-25T08:36:33Z</time></trkpt><trkpt lat="45.81959597950719" lon="8.825179446448274"><ele>387.0</ele><time>2026-04-25T08:36:34Z</time></trkpt><trkpt lat="45.819712685892924" lon="8.825166371975413"><ele>387.0</ele><time>2026-04-25T08:36:36Z</time></trkpt><trkpt lat="45.81979231088342" lon="8.82515967280323"><ele>387.0</ele><time>2026-04-25T08:36:37Z</time></trkpt><trkpt lat="45.819869322612305" lon="8.825160070623191"><ele>387.0</ele><time>2026-04-25T08:36:38Z</time></trkpt><trkpt lat="45.81993402439608" lon="8.825155496223987"><ele>387.0</ele><time>2026-04-25T08:36:39Z</time></trkpt><trkpt lat="45.82005163332779" lon="8.825146313017738"><ele>387.0</ele><time>2026-04-25T08:36:41Z</time></trkpt><trkpt lat="45.82016521283402" lon="8.825145075196033"><ele>387.0</ele><time>2026-04-25T08:36:43Z</time></trkpt><trkpt lat="45.82027898590008" lon="8.825162160221879"><ele>387.20000000000005</ele><time>2026-04-25T08:36:45Z</time></trkpt><trkpt lat="45.82038870007284" lon="8.82515944324706"><ele>387.4</ele><time>2026-04-25T08:36:47Z</time></trkpt><trkpt lat="45.82048267081734" lon="8.825157116140899"><ele>387.6</ele><time>2026-04-25T08:36:49Z</time></trkpt><trkpt lat="45.8205679408593" lon="8.825138778615237"><ele>387.79999999999995</ele><time>2026-04-25T08:36:51Z</time></trkpt><trkpt lat="45.8206534751186" lon="8.825145697089749"><ele>388.0</ele><time>2026-04-25T08:36:53Z</time></trkpt><trkpt lat="45.82069417411015" lon="8.825048566496369"><ele>388.1666666666667</ele><time>2026-04-25T08:36:54Z</time></trkpt><trkpt lat="45.82068398822882" lon="8.824927486251585"><ele>388.33333333333337</ele><time>2026-04-25T08:36:56Z</time></trkpt><trkpt lat="45.82072702068537" lon="8.824820208906687"><ele>388.5</ele><time>2026-04-25T08:36:58Z</time></trkpt><trkpt lat="45.82076589919129" lon="8.824677198562805"><ele>388.66666666666663</ele><time>2026-04-25T08:37:00Z</time></trkpt><trkpt lat="45.82078355605336" lon="8.824568089684554"><ele>388.8333333333333</ele><time>2026-04-25T08:37:01Z</time></trkpt><trkpt lat="45.82081903780706" lon="8.824452248581183"><ele>389.0</ele><time>2026-04-25T08:37:02Z</time></trkpt><trkpt lat="45.82084842566731" lon="8.82433477143289"><ele>389.2</ele><time>2026-04-25T08:37:03Z</time></trkpt><trkpt lat="45.82089147392907" lon="8.824173117615587"><ele>389.4</ele><time>2026-04-25T08:37:05Z</time></trkpt><trkpt lat="45.82092246159596" lon="8.824051187007223"><ele>389.6</ele><time>2026-04-25T08:37:07Z</time></trkpt><trkpt lat="45.820965111508194" lon="8.823891879418309"><ele>389.8</ele><time>2026-04-25T08:37:09Z</time></trkpt><trkpt lat="45.820985459115676" lon="8.823805789690331"><ele>390.0</ele><time>2026-04-25T08:37:10Z</time></trkpt><trkpt lat="45.82101081191814" lon="8.823711013379668"><ele>389.8333333333333</ele><time>2026-04-25T08:37:11Z</time></trkpt><trkpt lat="45.82104292528646" lon="8.823615981736761"><ele>389.66666666666663</ele><time>2026-04-25T08:37:12Z</time></trkpt><trkpt lat="45.82108231507543" lon="8.823451928076283"><ele>389.5</ele><time>2026-04-25T08:37:14Z</time></trkpt><trkpt lat="45.821118028889316" lon="8.823322634226816"><ele>389.3333333333333</ele><time>2026-04-25T08:37:15.999Z</time></trkpt><trkpt lat="45.82114217148243" lon="8.823224972968221"><ele>389.16666666666663</ele><time>2026-04-25T08:37:18.999Z</time></trkpt><trkpt lat="45.82117168103404" lon="8.823140063228804"><ele>389.0</ele><time>2026-04-25T08:38:02Z</time></trkpt><trkpt lat="45.82118726674962" lon="8.823037159376911"><ele>389.0</ele><time>2026-04-25T08:38:16Z</time></trkpt><trkpt lat="45.82120776898774" lon="8.822824637501634"><ele>389.0</ele><time>2026-04-25T08:38:18Z</time></trkpt><trkpt lat="45.82122047719585" lon="8.822654639706645"><ele>389.0</ele><time>2026-04-25T08:38:19Z</time></trkpt><trkpt lat="45.82123082413202" lon="8.822516228679566"><ele>389.0</ele><time>2026-04-25T08:38:20Z</time></trkpt><trkpt lat="45.82124066576631" lon="8.822381867978201"><ele>389.0</ele><time>2026-04-25T08:38:21Z</time></trkpt><trkpt lat="45.82125057471457" lon="8.822239531465092"><ele>389.0</ele><time>2026-04-25T08:38:22Z</time></trkpt><trkpt lat="45.82126024344486" lon="8.822100645523586"><ele>389.0</ele><time>2026-04-25T08:38:23Z</time></trkpt><trkpt lat="45.82126934632439" lon="8.821979881058484"><ele>389.0</ele><time>2026-04-25T08:38:24Z</time></trkpt><trkpt lat="45.82127930254628" lon="8.821856343652222"><ele>389.0</ele><time>2026-04-25T08:38:25Z</time></trkpt><trkpt lat="45.82128969128475" lon="8.821727286262883"><ele>388.99999999999994</ele><time>2026-04-25T08:38:26Z</time></trkpt><trkpt lat="45.82129827943738" lon="8.821608440431831"><ele>389.0</ele><time>2026-04-25T08:38:27Z</time></trkpt><trkpt lat="45.8212931259715" lon="8.821478755187835"><ele>389.0</ele><time>2026-04-25T08:38:28Z</time></trkpt><trkpt lat="45.8213165576133" lon="8.821356552138026"><ele>389.0</ele><time>2026-04-25T08:38:29Z</time></trkpt><trkpt lat="45.8213102652997" lon="8.821222076354813"><ele>388.99999999999994</ele><time>2026-04-25T08:38:30Z</time></trkpt><trkpt lat="45.82131913428647" lon="8.821098871768402"><ele>389.0</ele><time>2026-04-25T08:38:31Z</time></trkpt><trkpt lat="45.82133750794329" lon="8.820975346220502"><ele>389.4</ele><time>2026-04-25T08:38:32Z</time></trkpt><trkpt lat="45.8213450811142" lon="8.820853335469033"><ele>389.79999999999995</ele><time>2026-04-25T08:38:33Z</time></trkpt><trkpt lat="45.821339331576134" lon="8.820718122995302"><ele>390.20000000000005</ele><time>2026-04-25T08:38:34Z</time></trkpt><trkpt lat="45.821354125423106" lon="8.820578025400726"><ele>390.6</ele><time>2026-04-25T08:38:35Z</time></trkpt><trkpt lat="45.82136155115923" lon="8.820436420806093"><ele>391.0</ele><time>2026-04-25T08:38:36Z</time></trkpt><trkpt lat="45.82137365944993" lon="8.8202843857697"><ele>390.8</ele><time>2026-04-25T08:38:37Z</time></trkpt><trkpt lat="45.821392511706996" lon="8.820123652036596"><ele>390.6</ele><time>2026-04-25T08:38:38Z</time></trkpt><trkpt lat="45.821401939710185" lon="8.81996317511037"><ele>390.4</ele><time>2026-04-25T08:38:39Z</time></trkpt><trkpt lat="45.821411776213765" lon="8.819816639523921"><ele>390.2</ele><time>2026-04-25T08:38:40Z</time></trkpt><trkpt lat="45.821419102612104" lon="8.819685227165301"><ele>390.0</ele><time>2026-04-25T08:38:41Z</time></trkpt><trkpt lat="45.82143842862297" lon="8.819554423448041"><ele>390.0</ele><time>2026-04-25T08:38:42Z</time></trkpt><trkpt lat="45.82145199738587" lon="8.81945562760764"><ele>390.0</ele><time>2026-04-25T08:38:43Z</time></trkpt><trkpt lat="45.821458978243044" lon="8.819334808350373"><ele>390.0</ele><time>2026-04-25T08:38:45Z</time></trkpt><trkpt lat="45.82147558858768" lon="8.819246325761727"><ele>390.0</ele><time>2026-04-25T08:38:48Z</time></trkpt><trkpt lat="45.82156492580679" lon="8.819204011016572"><ele>390.0</ele><time>2026-04-25T08:38:51Z</time></trkpt><trkpt lat="45.82162770547564" lon="8.819236087052522"><ele>390.0</ele><time>2026-04-25T08:38:52Z</time></trkpt><trkpt lat="45.82169873517506" lon="8.819281425359764"><ele>390.0</ele><time>2026-04-25T08:38:53Z</time></trkpt><trkpt lat="45.82178252864502" lon="8.81932480305738"><ele>390.0</ele><time>2026-04-25T08:38:54Z</time></trkpt><trkpt lat="45.82185771038368" lon="8.819357010545907"><ele>390.0</ele><time>2026-04-25T08:38:55Z</time></trkpt><trkpt lat="45.82193897184073" lon="8.819400013287456"><ele>390.0</ele><time>2026-04-25T08:38:56Z</time></trkpt><trkpt lat="45.82203376313832" lon="8.8194341919353"><ele>390.0</ele><time>2026-04-25T08:38:57Z</time></trkpt><trkpt lat="45.82213354863597" lon="8.819453365816107"><ele>390.0</ele><time>2026-04-25T08:38:58Z</time></trkpt><trkpt lat="45.82222219654188" lon="8.819474144055837"><ele>390.0</ele><time>2026-04-25T08:38:59Z</time></trkpt><trkpt lat="45.82229888759687" lon="8.819493964784419"><ele>390.0</ele><time>2026-04-25T08:39:00Z</time></trkpt><trkpt lat="45.82236087178771" lon="8.819510519722796"><ele>390.0</ele><time>2026-04-25T08:39:01Z</time></trkpt><trkpt lat="45.82242666448943" lon="8.819533039764465"><ele>390.0</ele><time>2026-04-25T08:39:02Z</time></trkpt><trkpt lat="45.82250103689802" lon="8.819560710644653"><ele>390.0</ele><time>2026-04-25T08:39:03Z</time></trkpt><trkpt lat="45.822578216898194" lon="8.819585927121231"><ele>390.3333333333333</ele><time>2026-04-25T08:39:04Z</time></trkpt><trkpt lat="45.82265146600521" lon="8.819609711887809"><ele>390.66666666666663</ele><time>2026-04-25T08:39:05Z</time></trkpt><trkpt lat="45.82272921536043" lon="8.819631782805779"><ele>391.0</ele><time>2026-04-25T08:39:06Z</time></trkpt><trkpt lat="45.82281804848764" lon="8.819655013424114"><ele>391.3333333333333</ele><time>2026-04-25T08:39:07Z</time></trkpt><trkpt lat="45.82288805085346" lon="8.819693981166386"><ele>391.66666666666663</ele><time>2026-04-25T08:39:08Z</time></trkpt><trkpt lat="45.822995066947605" lon="8.819712160285555"><ele>392.0</ele><time>2026-04-25T08:39:10Z</time></trkpt><trkpt lat="45.82306478307124" lon="8.819734474218981"><ele>391.99999999999994</ele><time>2026-04-25T08:39:12Z</time></trkpt><trkpt lat="45.823128406062644" lon="8.819760981626844"><ele>392.0</ele><time>2026-04-25T08:40:12Z</time></trkpt><trkpt lat="45.823106526232735" lon="8.819864182926395"><ele>392.0</ele><time>2026-04-25T08:40:13Z</time></trkpt><trkpt lat="45.82308139312654" lon="8.819990767541544"><ele>392.0</ele><time>2026-04-25T08:40:14Z</time></trkpt><trkpt lat="45.82306181176869" lon="8.820089390398758"><ele>391.99999999999994</ele><time>2026-04-25T08:40:15Z</time></trkpt><trkpt lat="45.82304375416835" lon="8.820182600803683"><ele>392.0</ele><time>2026-04-25T08:40:16Z</time></trkpt><trkpt lat="45.823021165227416" lon="8.820303468256588"><ele>391.66666666666663</ele><time>2026-04-25T08:40:18Z</time></trkpt><trkpt lat="45.822997323695446" lon="8.820431038069533"><ele>391.3333333333333</ele><time>2026-04-25T08:40:28Z</time></trkpt><trkpt lat="45.82297911903335" lon="8.82052844636462"><ele>391.0</ele><time>2026-04-25T08:40:29Z</time></trkpt><trkpt lat="45.822950926650776" lon="8.820664820461415"><ele>390.66666666666663</ele><time>2026-04-25T08:40:31Z</time></trkpt><trkpt lat="45.82293042203617" lon="8.82076282998662"><ele>390.3333333333333</ele><time>2026-04-25T08:40:36Z</time></trkpt><trkpt lat="45.82290954395712" lon="8.820850321601286"><ele>390.0</ele><time>2026-04-25T08:40:38Z</time></trkpt><trkpt lat="45.823018784478975" lon="8.820860260052312"><ele>390.0</ele><time>2026-04-25T08:40:39Z</time></trkpt><trkpt lat="45.82312686894507" lon="8.820881249934406"><ele>390.0</ele><time>2026-04-25T08:40:42Z</time></trkpt><trkpt lat="45.823200950861896" lon="8.820798469205725"><ele>390.0</ele><time>2026-04-25T08:40:43Z</time></trkpt><trkpt lat="45.82326299554765" lon="8.82070776243294"><ele>390.0</ele><time>2026-04-25T08:40:44Z</time></trkpt><trkpt lat="45.823315269436556" lon="8.820646324816611"><ele>390.0</ele><time>2026-04-25T08:40:45Z</time></trkpt><trkpt lat="45.82340585632607" lon="8.82054836709963"><ele>391.0</ele><time>2026-04-25T08:40:47Z</time></trkpt><trkpt lat="45.8235020860602" lon="8.820472129084477"><ele>392.0</ele><time>2026-04-25T08:40:49Z</time></trkpt><trkpt lat="45.82362118291139" lon="8.820561594285616"><ele>393.0</ele><time>2026-04-25T08:40:52Z</time></trkpt><trkpt lat="45.82360457904778" lon="8.820684352487614"><ele>394.0</ele><time>2026-04-25T08:40:53Z</time></trkpt><trkpt lat="45.82361711104252" lon="8.820799285906915"><ele>395.0</ele><time>2026-04-25T08:40:54Z</time></trkpt><trkpt lat="45.823629829494315" lon="8.82093987829426"><ele>394.4</ele><time>2026-04-25T08:40:55Z</time></trkpt><trkpt lat="45.823640347964684" lon="8.821092879531427"><ele>393.8</ele><time>2026-04-25T08:40:56Z</time></trkpt><trkpt lat="45.82364873585628" lon="8.821242970914293"><ele>393.20000000000005</ele><time>2026-04-25T08:40:57Z</time></trkpt><trkpt lat="45.82365608567386" lon="8.821381277992527"><ele>392.6</ele><time>2026-04-25T08:40:58Z</time></trkpt><trkpt lat="45.82366403749682" lon="8.821505812811731"><ele>392.0</ele><time>2026-04-25T08:40:59Z</time></trkpt><trkpt lat="45.82367195817904" lon="8.82162447392137"><ele>391.99999999999994</ele><time>2026-04-25T08:41:00Z</time></trkpt><trkpt lat="45.823677501574" lon="8.821742587321134"><ele>392.0</ele><time>2026-04-25T08:41:01Z</time></trkpt><trkpt lat="45.82368280492719" lon="8.821866673408358"><ele>392.0</ele><time>2026-04-25T08:41:02Z</time></trkpt><trkpt lat="45.82369456759918" lon="8.821991153332872"><ele>392.0</ele><time>2026-04-25T08:41:03Z</time></trkpt><trkpt lat="45.82370120112999" lon="8.822125000210171"><ele>391.99999999999994</ele><time>2026-04-25T08:41:04Z</time></trkpt><trkpt lat="45.823711528855846" lon="8.822244260352637"><ele>392.0</ele><time>2026-04-25T08:41:05Z</time></trkpt><trkpt lat="45.82373296612324" lon="8.82234971362704"><ele>391.99999999999994</ele><time>2026-04-25T08:41:06Z</time></trkpt><trkpt lat="45.82377269467861" lon="8.822450103914875"><ele>392.0</ele><time>2026-04-25T08:41:07Z</time></trkpt><trkpt lat="45.823832324697186" lon="8.822539581569462"><ele>392.0</ele><time>2026-04-25T08:41:08Z</time></trkpt><trkpt lat="45.82389805431476" lon="8.822610160639293"><ele>392.0</ele><time>2026-04-25T08:41:09Z</time></trkpt><trkpt lat="45.823961251709775" lon="8.822670422966059"><ele>391.99999999999994</ele><time>2026-04-25T08:41:10Z</time></trkpt><trkpt lat="45.824017966984854" lon="8.82273662195665"><ele>392.0</ele><time>2026-04-25T08:41:11Z</time></trkpt><trkpt lat="45.82406604702602" lon="8.822804486039871"><ele>392.0</ele><time>2026-04-25T08:41:12Z</time></trkpt><trkpt lat="45.824146480156465" lon="8.822917174233357"><ele>392.0</ele><time>2026-04-25T08:41:14Z</time></trkpt><trkpt lat="45.82419992727927" lon="8.822967583018704"><ele>392.0</ele><time>2026-04-25T08:41:16Z</time></trkpt><trkpt lat="45.82416600902604" lon="8.823137591982919"><ele>392.0</ele><time>2026-04-25T08:41:18Z</time></trkpt><trkpt lat="45.82415918310772" lon="8.823274215192766"><ele>392.0</ele><time>2026-04-25T08:41:19Z</time></trkpt><trkpt lat="45.824181494481785" lon="8.823387092452979"><ele>391.99999999999994</ele><time>2026-04-25T08:41:20Z</time></trkpt><trkpt lat="45.82417758229921" lon="8.8235022143133"><ele>392.0</ele><time>2026-04-25T08:41:21Z</time></trkpt><trkpt lat="45.8241756259422" lon="8.823623166936297"><ele>392.0</ele><time>2026-04-25T08:41:22Z</time></trkpt><trkpt lat="45.824170451488484" lon="8.823761853298556"><ele>392.0</ele><time>2026-04-25T08:41:23Z</time></trkpt><trkpt lat="45.82415950807841" lon="8.823890469883237"><ele>391.99999999999994</ele><time>2026-04-25T08:41:24Z</time></trkpt><trkpt lat="45.82414452293932" lon="8.824026656824973"><ele>392.0</ele><time>2026-04-25T08:41:25Z</time></trkpt><trkpt lat="45.82414173985256" lon="8.824156740669794"><ele>391.99999999999994</ele><time>2026-04-25T08:41:26Z</time></trkpt><trkpt lat="45.824148734011494" lon="8.82427261380426"><ele>392.0</ele><time>2026-04-25T08:41:27Z</time></trkpt><trkpt lat="45.82415679123985" lon="8.824378361049128"><ele>392.0</ele><time>2026-04-25T08:41:28Z</time></trkpt><trkpt lat="45.82414734475926" lon="8.824509264776266"><ele>392.0</ele><time>2026-04-25T08:41:30Z</time></trkpt><trkpt lat="45.824134299965245" lon="8.824604506221442"><ele>391.99999999999994</ele><time>2026-04-25T08:42:29Z</time></trkpt><trkpt lat="45.824145962261035" lon="8.824730965560308"><ele>392.0</ele><time>2026-04-25T08:42:32Z</time></trkpt><trkpt lat="45.82412712192754" lon="8.824825993062573"><ele>391.75</ele><time>2026-04-25T08:42:34Z</time></trkpt><trkpt lat="45.82412270113449" lon="8.82495738122381"><ele>391.5</ele><time>2026-04-25T08:42:35Z</time></trkpt><trkpt lat="45.82428695372215" lon="8.824848136552946"><ele>391.25</ele><time>2026-04-25T08:42:36Z</time></trkpt><trkpt lat="45.824378594081935" lon="8.82481435822953"><ele>391.0</ele><time>2026-04-25T08:42:37Z</time></trkpt><trkpt lat="45.824471005022914" lon="8.824796898848156"><ele>392.0</ele><time>2026-04-25T08:42:38Z</time></trkpt><trkpt lat="45.82455037057525" lon="8.824770659181215"><ele>393.0</ele><time>2026-04-25T08:42:39Z</time></trkpt><trkpt lat="45.82461362921469" lon="8.824758542621812"><ele>394.0</ele><time>2026-04-25T08:42:40Z</time></trkpt><trkpt lat="45.824715945382096" lon="8.82473105915288"><ele>395.0</ele><time>2026-04-25T08:42:41Z</time></trkpt><trkpt lat="45.82481638272842" lon="8.824704605469735"><ele>396.0</ele><time>2026-04-25T08:42:42Z</time></trkpt><trkpt lat="45.82492383107337" lon="8.824673863225527"><ele>396.0</ele><time>2026-04-25T08:42:43Z</time></trkpt><trkpt lat="45.82502812628596" lon="8.824649036300992"><ele>396.0</ele><time>2026-04-25T08:42:44Z</time></trkpt><trkpt lat="45.82514215265898" lon="8.824623894598133"><ele>396.0</ele><time>2026-04-25T08:42:45Z</time></trkpt><trkpt lat="45.825256871096855" lon="8.82459632336033"><ele>396.0</ele><time>2026-04-25T08:42:46Z</time></trkpt><trkpt lat="45.82537827218934" lon="8.824566396333138"><ele>397.75</ele><time>2026-04-25T08:42:47Z</time></trkpt><trkpt lat="45.82551154960881" lon="8.824529125075117"><ele>399.5</ele><time>2026-04-25T08:42:48Z</time></trkpt><trkpt lat="45.82564584244018" lon="8.824510602443942"><ele>401.25</ele><time>2026-04-25T08:42:49Z</time></trkpt><trkpt lat="45.82577833743301" lon="8.824464579955256"><ele>403.0</ele><time>2026-04-25T08:42:50Z</time></trkpt><trkpt lat="45.82591428143334" lon="8.824432334193268"><ele>403.5</ele><time>2026-04-25T08:42:51Z</time></trkpt><trkpt lat="45.82605515275018" lon="8.824395048162115"><ele>404.0</ele><time>2026-04-25T08:42:52Z</time></trkpt><trkpt lat="45.826192780695585" lon="8.82436002780548"><ele>404.5</ele><time>2026-04-25T08:42:53Z</time></trkpt><trkpt lat="45.82633779007957" lon="8.824330595636948"><ele>405.0</ele><time>2026-04-25T08:42:54Z</time></trkpt><trkpt lat="45.82648997243375" lon="8.824294641883377"><ele>405.0</ele><time>2026-04-25T08:42:55Z</time></trkpt><trkpt lat="45.82665233135555" lon="8.824250310224086"><ele>405.0</ele><time>2026-04-25T08:42:56Z</time></trkpt><trkpt lat="45.82681777770975" lon="8.824214657621235"><ele>405.0</ele><time>2026-04-25T08:42:57Z</time></trkpt><trkpt lat="45.82697786447962" lon="8.824177176268707"><ele>405.5</ele><time>2026-04-25T08:42:58Z</time></trkpt><trkpt lat="45.82713115153084" lon="8.824148984445644"><ele>406.0</ele><time>2026-04-25T08:42:59Z</time></trkpt><trkpt lat="45.82726640668688" lon="8.82413138203321"><ele>406.5</ele><time>2026-04-25T08:43:00Z</time></trkpt><trkpt lat="45.82737294658679" lon="8.824106120741343"><ele>407.0</ele><time>2026-04-25T08:43:01Z</time></trkpt><trkpt lat="45.827470431615545" lon="8.824072316192208"><ele>406.99999999999994</ele><time>2026-04-25T08:43:02Z</time></trkpt><trkpt lat="45.82756407875656" lon="8.824053975180988"><ele>407.0</ele><time>2026-04-25T08:43:03Z</time></trkpt><trkpt lat="45.82763589413523" lon="8.824034295103239"><ele>407.0</ele><time>2026-04-25T08:43:04Z</time></trkpt><trkpt lat="45.82774357419859" lon="8.824001246088574"><ele>407.0</ele><time>2026-04-25T08:43:06Z</time></trkpt><trkpt lat="45.82781689132714" lon="8.823991543869719"><ele>406.99999999999994</ele><time>2026-04-25T08:43:09Z</time></trkpt><trkpt lat="45.82788201090082" lon="8.824010034284562"><ele>407.0</ele><time>2026-04-25T08:43:12Z</time></trkpt><trkpt lat="45.82796126588166" lon="8.823999808456518"><ele>407.25</ele><time>2026-04-25T08:43:15Z</time></trkpt><trkpt lat="45.828091731967206" lon="8.823952075143856"><ele>407.5</ele><time>2026-04-25T08:43:17Z</time></trkpt><trkpt lat="45.82819937739032" lon="8.82391646489383"><ele>407.75</ele><time>2026-04-25T08:43:18Z</time></trkpt><trkpt lat="45.8283056108042" lon="8.823885339302038"><ele>408.0</ele><time>2026-04-25T08:43:19Z</time></trkpt><trkpt lat="45.828406530196176" lon="8.823857670556452"><ele>408.5</ele><time>2026-04-25T08:43:20Z</time></trkpt><trkpt lat="45.82849522818778" lon="8.823838523260763"><ele>409.0</ele><time>2026-04-25T08:43:21Z</time></trkpt><trkpt lat="45.82858526022171" lon="8.823814230724775"><ele>409.5</ele><time>2026-04-25T08:43:22Z</time></trkpt><trkpt lat="45.82867986949334" lon="8.823792723392916"><ele>410.0</ele><time>2026-04-25T08:43:23Z</time></trkpt><trkpt lat="45.828764717583454" lon="8.823769166694799"><ele>410.5</ele><time>2026-04-25T08:43:24Z</time></trkpt><trkpt lat="45.82884412818408" lon="8.82375612700102"><ele>411.0</ele><time>2026-04-25T08:43:25Z</time></trkpt><trkpt lat="45.82891025313041" lon="8.823737591134565"><ele>411.0</ele><time>2026-04-25T08:43:26Z</time></trkpt><trkpt lat="45.82901461786397" lon="8.823711687576766"><ele>411.0</ele><time>2026-04-25T08:43:28Z</time></trkpt><trkpt lat="45.829088403761794" lon="8.823697378309921"><ele>411.0</ele><time>2026-04-25T08:43:30Z</time></trkpt><trkpt lat="45.82916484266834" lon="8.823665966588317"><ele>411.0</ele><time>2026-04-25T08:43:51.999Z</time></trkpt><trkpt lat="45.82925413903355" lon="8.823651371374645"><ele>411.0</ele><time>2026-04-25T08:43:53.999Z</time></trkpt><trkpt lat="45.82932837121919" lon="8.823642600584252"><ele>411.0</ele><time>2026-04-25T08:43:54.999Z</time></trkpt><trkpt lat="45.82941296608618" lon="8.8236361873765"><ele>410.20000000000005</ele><time>2026-04-25T08:43:55.999Z</time></trkpt><trkpt lat="45.82949108681304" lon="8.823618016417868"><ele>409.40000000000003</ele><time>2026-04-25T08:43:56.999Z</time></trkpt><trkpt lat="45.829570795099436" lon="8.823593527338971"><ele>408.6</ele><time>2026-04-25T08:43:57.999Z</time></trkpt><trkpt lat="45.82967159126441" lon="8.823568406778255"><ele>407.8</ele><time>2026-04-25T08:43:58.999Z</time></trkpt><trkpt lat="45.82978569139408" lon="8.823557036093302"><ele>407.0</ele><time>2026-04-25T08:43:59.999Z</time></trkpt><trkpt lat="45.82990990752249" lon="8.823524993521847"><ele>407.0</ele><time>2026-04-25T08:44:00.999Z</time></trkpt><trkpt lat="45.830053013786696" lon="8.823488449560003"><ele>407.0</ele><time>2026-04-25T08:44:01.999Z</time></trkpt><trkpt lat="45.83022337188364" lon="8.823444946525726"><ele>407.0</ele><time>2026-04-25T08:44:02.999Z</time></trkpt><trkpt lat="45.83038929001067" lon="8.823402577275845"><ele>408.66666666666663</ele><time>2026-04-25T08:44:03.999Z</time></trkpt><trkpt lat="45.83057540151461" lon="8.82333591312482"><ele>410.33333333333337</ele><time>2026-04-25T08:44:04.999Z</time></trkpt><trkpt lat="45.83075263579297" lon="8.823296333007232"><ele>412.0</ele><time>2026-04-25T08:44:05.999Z</time></trkpt><trkpt lat="45.83090020064851" lon="8.82325988483965"><ele>412.25</ele><time>2026-04-25T08:44:06.999Z</time></trkpt><trkpt lat="45.83105636596607" lon="8.823213144760466"><ele>412.5</ele><time>2026-04-25T08:44:07.999Z</time></trkpt><trkpt lat="45.831187368984224" lon="8.823169757552908"><ele>412.75</ele><time>2026-04-25T08:44:08.999Z</time></trkpt><trkpt lat="45.83131828926467" lon="8.823105538098826"><ele>413.0</ele><time>2026-04-25T08:44:09.999Z</time></trkpt><trkpt lat="45.831454430867275" lon="8.823015078184168"><ele>413.0</ele><time>2026-04-25T08:44:10.999Z</time></trkpt><trkpt lat="45.831584910169326" lon="8.822892993211303"><ele>413.0</ele><time>2026-04-25T08:44:11.999Z</time></trkpt><trkpt lat="45.831708054970164" lon="8.822749794207427"><ele>413.0</ele><time>2026-04-25T08:44:12.999Z</time></trkpt><trkpt lat="45.83183710128747" lon="8.82259935331179"><ele>412.66666666666663</ele><time>2026-04-25T08:44:13.999Z</time></trkpt><trkpt lat="45.83196166562018" lon="8.822454901700826"><ele>412.33333333333337</ele><time>2026-04-25T08:44:14.999Z</time></trkpt><trkpt lat="45.832085887996" lon="8.822323473743904"><ele>412.0</ele><time>2026-04-25T08:44:15.999Z</time></trkpt><trkpt lat="45.83219944624103" lon="8.822186636615404"><ele>412.0</ele><time>2026-04-25T08:44:16.999Z</time></trkpt><trkpt lat="45.832300872240324" lon="8.822068017984915"><ele>412.0</ele><time>2026-04-25T08:44:17.999Z</time></trkpt><trkpt lat="45.832412519061435" lon="8.821931247107173"><ele>412.0</ele><time>2026-04-25T08:44:19Z</time></trkpt><trkpt lat="45.832519934252566" lon="8.82182454895074"><ele>412.0</ele><time>2026-04-25T08:44:20Z</time></trkpt><trkpt lat="45.83262881258042" lon="8.821689360444422"><ele>412.33333333333337</ele><time>2026-04-25T08:44:21Z</time></trkpt><trkpt lat="45.83274129560065" lon="8.821551997886223"><ele>412.66666666666663</ele><time>2026-04-25T08:44:22Z</time></trkpt><trkpt lat="45.83286594751729" lon="8.821410996471531"><ele>413.0</ele><time>2026-04-25T08:44:23Z</time></trkpt><trkpt lat="45.83299587294671" lon="8.821254144489979"><ele>413.0</ele><time>2026-04-25T08:44:24Z</time></trkpt><trkpt lat="45.833139392542236" lon="8.821074222898055"><ele>413.0</ele><time>2026-04-25T08:44:25Z</time></trkpt><trkpt lat="45.83327721880902" lon="8.820913439451333"><ele>413.0</ele><time>2026-04-25T08:44:26Z</time></trkpt><trkpt lat="45.83341118166351" lon="8.820766688113181"><ele>412.66666666666663</ele><time>2026-04-25T08:44:27Z</time></trkpt><trkpt lat="45.8335261826348" lon="8.820626707764063"><ele>412.33333333333337</ele><time>2026-04-25T08:44:28Z</time></trkpt><trkpt lat="45.833651010334606" lon="8.820481515070448"><ele>412.0</ele><time>2026-04-25T08:44:29Z</time></trkpt><trkpt lat="45.833779335324756" lon="8.820329557350922"><ele>412.0</ele><time>2026-04-25T08:44:30Z</time></trkpt><trkpt lat="45.83390896557598" lon="8.82018292427383"><ele>412.0</ele><time>2026-04-25T08:44:31Z</time></trkpt><trkpt lat="45.83402070213538" lon="8.820046676115249"><ele>412.0</ele><time>2026-04-25T08:44:32Z</time></trkpt><trkpt lat="45.834129044681276" lon="8.819922232783265"><ele>413.0</ele><time>2026-04-25T08:44:33Z</time></trkpt><trkpt lat="45.83423468234238" lon="8.819795073715811"><ele>414.0</ele><time>2026-04-25T08:44:34Z</time></trkpt><trkpt lat="45.83433978963355" lon="8.81966840048234"><ele>415.0</ele><time>2026-04-25T08:44:35Z</time></trkpt><trkpt lat="45.834443197696594" lon="8.81954740293254"><ele>416.0</ele><time>2026-04-25T08:44:36Z</time></trkpt><trkpt lat="45.834535907168984" lon="8.81943919131431"><ele>415.99999999999994</ele><time>2026-04-25T08:44:37Z</time></trkpt><trkpt lat="45.83461627082766" lon="8.819344785344464"><ele>416.0</ele><time>2026-04-25T08:44:38Z</time></trkpt><trkpt lat="45.83468689252132" lon="8.819261325701042"><ele>416.0</ele><time>2026-04-25T08:44:39Z</time></trkpt><trkpt lat="45.83474330136458" lon="8.819194040571817"><ele>416.0</ele><time>2026-04-25T08:44:40Z</time></trkpt><trkpt lat="45.834793292236085" lon="8.81912939583476"><ele>415.99999999999994</ele><time>2026-04-25T08:44:41Z</time></trkpt><trkpt lat="45.83484584805362" lon="8.819063301464054"><ele>416.0</ele><time>2026-04-25T08:44:42Z</time></trkpt><trkpt lat="45.834902396579935" lon="8.818996437539012"><ele>416.6</ele><time>2026-04-25T08:44:43Z</time></trkpt><trkpt lat="45.8349701203379" lon="8.818920190878986"><ele>417.20000000000005</ele><time>2026-04-25T08:44:44Z</time></trkpt><trkpt lat="45.83503926716646" lon="8.818845580515251"><ele>417.79999999999995</ele><time>2026-04-25T08:44:45Z</time></trkpt><trkpt lat="45.83509661426117" lon="8.818778308770172"><ele>418.4</ele><time>2026-04-25T08:44:46Z</time></trkpt><trkpt lat="45.83519167477189" lon="8.818668653940252"><ele>419.0</ele><time>2026-04-25T08:44:48Z</time></trkpt><trkpt lat="45.83529978134342" lon="8.818542134360857"><ele>419.4</ele><time>2026-04-25T08:44:50Z</time></trkpt><trkpt lat="45.8353703739169" lon="8.818457011267228"><ele>419.79999999999995</ele><time>2026-04-25T08:44:51Z</time></trkpt><trkpt lat="45.83545101526198" lon="8.818361696537837"><ele>420.20000000000005</ele><time>2026-04-25T08:44:52Z</time></trkpt><trkpt lat="45.83553808164002" lon="8.818256939633635"><ele>420.6</ele><time>2026-04-25T08:44:53Z</time></trkpt><trkpt lat="45.835633677574535" lon="8.818150472316345"><ele>421.0</ele><time>2026-04-25T08:44:54Z</time></trkpt><trkpt lat="45.83571753198352" lon="8.818060540449304"><ele>421.0</ele><time>2026-04-25T08:44:55Z</time></trkpt><trkpt lat="45.8357864217032" lon="8.81797586904316"><ele>421.0</ele><time>2026-04-25T08:44:56Z</time></trkpt><trkpt lat="45.8358596818714" lon="8.817888079769661"><ele>421.0</ele><time>2026-04-25T08:44:57Z</time></trkpt><trkpt lat="45.83593871928311" lon="8.81779201135684"><ele>421.0</ele><time>2026-04-25T08:44:58Z</time></trkpt><trkpt lat="45.836020531296434" lon="8.817694390206068"><ele>421.0</ele><time>2026-04-25T08:44:59Z</time></trkpt><trkpt lat="45.83610057853292" lon="8.817600880591511"><ele>421.00000000000006</ele><time>2026-04-25T08:45:00Z</time></trkpt><trkpt lat="45.836174022624306" lon="8.817523319934812"><ele>421.0</ele><time>2026-04-25T08:45:01Z</time></trkpt><trkpt lat="45.83624056665455" lon="8.817445854488327"><ele>421.0</ele><time>2026-04-25T08:45:02Z</time></trkpt><trkpt lat="45.836301297693" lon="8.817364791183959"><ele>421.0</ele><time>2026-04-25T08:45:03Z</time></trkpt><trkpt lat="45.83636297415534" lon="8.817290104804172"><ele>421.00000000000006</ele><time>2026-04-25T08:45:04Z</time></trkpt><trkpt lat="45.836419625717085" lon="8.817219802191673"><ele>421.0</ele><time>2026-04-25T08:45:05Z</time></trkpt><trkpt lat="45.836479551960174" lon="8.817150652029914"><ele>421.00000000000006</ele><time>2026-04-25T08:45:06Z</time></trkpt><trkpt lat="45.83654041571186" lon="8.817080082043427"><ele>421.0</ele><time>2026-04-25T08:45:07Z</time></trkpt><trkpt lat="45.83660272545187" lon="8.817008501960801"><ele>421.0</ele><time>2026-04-25T08:45:08Z</time></trkpt><trkpt lat="45.83667367448109" lon="8.816935736613678"><ele>421.0</ele><time>2026-04-25T08:45:09Z</time></trkpt><trkpt lat="45.836736765054745" lon="8.816856665782037"><ele>421.00000000000006</ele><time>2026-04-25T08:45:10Z</time></trkpt><trkpt lat="45.83679991016616" lon="8.816771356208001"><ele>421.0</ele><time>2026-04-25T08:45:11Z</time></trkpt><trkpt lat="45.836856127989776" lon="8.816709535981039"><ele>421.00000000000006</ele><time>2026-04-25T08:45:12Z</time></trkpt><trkpt lat="45.836921831596506" lon="8.816636400190314"><ele>421.0</ele><time>2026-04-25T08:45:13Z</time></trkpt><trkpt lat="45.83697744705832" lon="8.816576019784147"><ele>421.0</ele><time>2026-04-25T08:45:14Z</time></trkpt><trkpt lat="45.83702387514815" lon="8.816508969352963"><ele>421.0</ele><time>2026-04-25T08:45:15Z</time></trkpt><trkpt lat="45.837072788664734" lon="8.816449615435031"><ele>421.0</ele><time>2026-04-25T08:45:16Z</time></trkpt><trkpt lat="45.837128632350755" lon="8.816380812843033"><ele>421.00000000000006</ele><time>2026-04-25T08:45:17Z</time></trkpt><trkpt lat="45.83720045582577" lon="8.816305363140213"><ele>421.0</ele><time>2026-04-25T08:45:18Z</time></trkpt><trkpt lat="45.83727471425662" lon="8.816222917173837"><ele>421.0</ele><time>2026-04-25T08:45:19Z</time></trkpt><trkpt lat="45.83735882498463" lon="8.816130226244118"><ele>421.0</ele><time>2026-04-25T08:45:20Z</time></trkpt><trkpt lat="45.83743249587008" lon="8.8160436506344"><ele>421.0</ele><time>2026-04-25T08:45:21Z</time></trkpt><trkpt lat="45.8375045679115" lon="8.815960767308676"><ele>421.0</ele><time>2026-04-25T08:45:22Z</time></trkpt><trkpt lat="45.83756978460706" lon="8.815884177050819"><ele>421.0</ele><time>2026-04-25T08:45:23Z</time></trkpt><trkpt lat="45.837631942930905" lon="8.815806340317382"><ele>421.33333333333337</ele><time>2026-04-25T08:45:24Z</time></trkpt><trkpt lat="45.83769963083615" lon="8.81573077942452"><ele>421.6666666666667</ele><time>2026-04-25T08:45:25Z</time></trkpt><trkpt lat="45.83776625905075" lon="8.815651182630715"><ele>422.0</ele><time>2026-04-25T08:45:26Z</time></trkpt><trkpt lat="45.837831578937816" lon="8.815571859193868"><ele>422.33333333333337</ele><time>2026-04-25T08:45:27Z</time></trkpt><trkpt lat="45.837902450085224" lon="8.815489239721462"><ele>422.6666666666667</ele><time>2026-04-25T08:45:28Z</time></trkpt><trkpt lat="45.8379729896951" lon="8.81540688790259"><ele>423.0</ele><time>2026-04-25T08:45:29Z</time></trkpt><trkpt lat="45.83804381976774" lon="8.815320775975302"><ele>423.0</ele><time>2026-04-25T08:45:30Z</time></trkpt><trkpt lat="45.838119159412685" lon="8.815236461930155"><ele>423.0</ele><time>2026-04-25T08:45:31Z</time></trkpt><trkpt lat="45.838194710717154" lon="8.8151516407176"><ele>423.0</ele><time>2026-04-25T08:45:32Z</time></trkpt><trkpt lat="45.83826520442486" lon="8.815061621614982"><ele>423.0</ele><time>2026-04-25T08:45:33Z</time></trkpt><trkpt lat="45.838343150237016" lon="8.81497347867768"><ele>423.0</ele><time>2026-04-25T08:45:34Z</time></trkpt><trkpt lat="45.838418759655575" lon="8.814883161497757"><ele>426.4</ele><time>2026-04-25T08:45:35Z</time></trkpt><trkpt lat="45.838493553870116" lon="8.814786687935273"><ele>429.79999999999995</ele><time>2026-04-25T08:45:36Z</time></trkpt><trkpt lat="45.83856360924463" lon="8.814687790706044"><ele>433.2</ele><time>2026-04-25T08:45:37Z</time></trkpt><trkpt lat="45.838631772823526" lon="8.814558158976787"><ele>436.6</ele><time>2026-04-25T08:45:38Z</time></trkpt><trkpt lat="45.838683827649554" lon="8.814395223328159"><ele>440.0</ele><time>2026-04-25T08:45:39Z</time></trkpt><trkpt lat="45.83871568272922" lon="8.814198907969525"><ele>442.0</ele><time>2026-04-25T08:45:40Z</time></trkpt><trkpt lat="45.83872419178089" lon="8.813935968405733"><ele>444.0</ele><time>2026-04-25T08:45:41Z</time></trkpt><trkpt lat="45.8387300023642" lon="8.813633587203524"><ele>446.0</ele><time>2026-04-25T08:45:42Z</time></trkpt><trkpt lat="45.838740574873896" lon="8.813305367027008"><ele>448.0</ele><time>2026-04-25T08:45:43Z</time></trkpt><trkpt lat="45.83876212807164" lon="8.812991215044528"><ele>450.0</ele><time>2026-04-25T08:45:44Z</time></trkpt><trkpt lat="45.83877637182226" lon="8.812709008573941"><ele>452.0</ele><time>2026-04-25T08:45:45Z</time></trkpt><trkpt lat="45.83877713658886" lon="8.812473925607776"><ele>452.0</ele><time>2026-04-25T08:45:46Z</time></trkpt><trkpt lat="45.83877322834936" lon="8.812248027013945"><ele>452.0</ele><time>2026-04-25T08:45:47Z</time></trkpt><trkpt lat="45.83878076656825" lon="8.811985261977862"><ele>452.0</ele><time>2026-04-25T08:45:48Z</time></trkpt><trkpt lat="45.83880377583317" lon="8.811722462678512"><ele>451.66666666666663</ele><time>2026-04-25T08:45:49Z</time></trkpt><trkpt lat="45.838807193446186" lon="8.811503109664239"><ele>451.33333333333337</ele><time>2026-04-25T08:45:50Z</time></trkpt><trkpt lat="45.83881849861882" lon="8.811269971298811"><ele>451.0</ele><time>2026-04-25T08:45:51Z</time></trkpt><trkpt lat="45.83884187577429" lon="8.811047344257727"><ele>450.25</ele><time>2026-04-25T08:45:52Z</time></trkpt><trkpt lat="45.83884191736323" lon="8.810863427661248"><ele>449.5</ele><time>2026-04-25T08:45:53Z</time></trkpt><trkpt lat="45.83885796288083" lon="8.810680917651469"><ele>448.75</ele><time>2026-04-25T08:45:54Z</time></trkpt><trkpt lat="45.8388974564512" lon="8.810524035667322"><ele>448.0</ele><time>2026-04-25T08:45:55Z</time></trkpt><trkpt lat="45.83894617205564" lon="8.810365506798224"><ele>448.0</ele><time>2026-04-25T08:45:56Z</time></trkpt><trkpt lat="45.838983440296076" lon="8.810187456454754"><ele>447.99999999999994</ele><time>2026-04-25T08:45:57Z</time></trkpt><trkpt lat="45.83903000178397" lon="8.810053412192778"><ele>447.99999999999994</ele><time>2026-04-25T08:45:58Z</time></trkpt><trkpt lat="45.83906987258994" lon="8.809929757705598"><ele>448.0</ele><time>2026-04-25T08:45:59Z</time></trkpt><trkpt lat="45.839100575576865" lon="8.80981488697076"><ele>448.0</ele><time>2026-04-25T08:46:00Z</time></trkpt><trkpt lat="45.839125957172655" lon="8.809716762672618"><ele>447.50000000000006</ele><time>2026-04-25T08:46:01Z</time></trkpt><trkpt lat="45.83914976158365" lon="8.809630168020457"><ele>447.0</ele><time>2026-04-25T08:46:02Z</time></trkpt><trkpt lat="45.83919907941437" lon="8.80950065361633"><ele>446.5</ele><time>2026-04-25T08:46:04Z</time></trkpt><trkpt lat="45.83928397804377" lon="8.809430205271877"><ele>446.0</ele><time>2026-04-25T08:46:06Z</time></trkpt><trkpt lat="45.839352154544436" lon="8.809425618838299"><ele>445.50000000000006</ele><time>2026-04-25T08:46:07Z</time></trkpt><trkpt lat="45.83943019893907" lon="8.809472598799818"><ele>445.0</ele><time>2026-04-25T08:46:08Z</time></trkpt><trkpt lat="45.839494596706444" lon="8.809689701491585"><ele>445.75</ele><time>2026-04-25T08:46:09.999Z</time></trkpt><trkpt lat="45.83944937485078" lon="8.80983894864048"><ele>446.5</ele><time>2026-04-25T08:46:10.999Z</time></trkpt><trkpt lat="45.83938176733611" lon="8.809950101440577"><ele>447.25</ele><time>2026-04-25T08:46:11.999Z</time></trkpt><trkpt lat="45.839313727615746" lon="8.810089375141812"><ele>448.0</ele><time>2026-04-25T08:46:12.999Z</time></trkpt><trkpt lat="45.83922871780676" lon="8.81027261426813"><ele>448.0</ele><time>2026-04-25T08:46:13.999Z</time></trkpt><trkpt lat="45.839167043624315" lon="8.810405360739177"><ele>447.99999999999994</ele><time>2026-04-25T08:46:14.999Z</time></trkpt><trkpt lat="45.83911806969337" lon="8.81050524382124"><ele>447.99999999999994</ele><time>2026-04-25T08:46:15.999Z</time></trkpt><trkpt lat="45.839084979455066" lon="8.810604095360198"><ele>448.0</ele><time>2026-04-25T08:46:16.999Z</time></trkpt><trkpt lat="45.839071780321774" lon="8.810724451225244"><ele>448.0</ele><time>2026-04-25T08:46:17.999Z</time></trkpt><trkpt lat="45.83909142513604" lon="8.810860814171818"><ele>448.0</ele><time>2026-04-25T08:46:18.999Z</time></trkpt><trkpt lat="45.83915051502963" lon="8.810947237508625"><ele>447.99999999999994</ele><time>2026-04-25T08:46:19.999Z</time></trkpt><trkpt lat="45.83921983081431" lon="8.81099522654182"><ele>447.99999999999994</ele><time>2026-04-25T08:46:20.999Z</time></trkpt><trkpt lat="45.83929522986997" lon="8.810984696024278"><ele>448.0</ele><time>2026-04-25T08:46:21.999Z</time></trkpt><trkpt lat="45.83940256702757" lon="8.81094688990283"><ele>448.0</ele><time>2026-04-25T08:46:23.999Z</time></trkpt><trkpt lat="45.83951982687685" lon="8.810921039416439"><ele>450.0</ele><time>2026-04-25T08:46:26Z</time></trkpt><trkpt lat="45.839629853563174" lon="8.81090179979228"><ele>451.99999999999994</ele><time>2026-04-25T08:46:28Z</time></trkpt><trkpt lat="45.83970816831428" lon="8.810889563155305"><ele>453.99999999999994</ele><time>2026-04-25T08:46:30Z</time></trkpt><trkpt lat="45.8398092627725" lon="8.810884163994645"><ele>456.0</ele><time>2026-04-25T08:46:32Z</time></trkpt><trkpt lat="45.83990571461577" lon="8.810887969695754"><ele>458.0</ele><time>2026-04-25T08:46:33Z</time></trkpt><trkpt lat="45.84000044264446" lon="8.810884340176287"><ele>457.99999999999994</ele><time>2026-04-25T08:46:34Z</time></trkpt><trkpt lat="45.84007309678198" lon="8.810876441421199"><ele>458.0</ele><time>2026-04-25T08:46:35Z</time></trkpt><trkpt lat="45.8401424867573" lon="8.810861686921509"><ele>458.0</ele><time>2026-04-25T08:46:36Z</time></trkpt><trkpt lat="45.840217030738174" lon="8.810846874509803"><ele>458.0</ele><time>2026-04-25T08:46:37Z</time></trkpt><trkpt lat="45.84029764853674" lon="8.810837326496763"><ele>457.99999999999994</ele><time>2026-04-25T08:46:38Z</time></trkpt><trkpt lat="45.84037799630409" lon="8.810826217501175"><ele>458.0</ele><time>2026-04-25T08:46:39Z</time></trkpt><trkpt lat="45.84045617786801" lon="8.810819671389671"><ele>458.66666666666663</ele><time>2026-04-25T08:46:40Z</time></trkpt><trkpt lat="45.840535208335204" lon="8.810816985305335"><ele>459.3333333333333</ele><time>2026-04-25T08:46:41Z</time></trkpt><trkpt lat="45.84061447205935" lon="8.810821185375442"><ele>460.0</ele><time>2026-04-25T08:46:42Z</time></trkpt><trkpt lat="45.84069327746251" lon="8.810816877771169"><ele>460.66666666666663</ele><time>2026-04-25T08:46:43Z</time></trkpt><trkpt lat="45.84076618962082" lon="8.810794103728988"><ele>461.3333333333333</ele><time>2026-04-25T08:46:44Z</time></trkpt><trkpt lat="45.840837224197706" lon="8.810753394128858"><ele>462.0</ele><time>2026-04-25T08:46:45Z</time></trkpt><trkpt lat="45.840904260775304" lon="8.81069710326137"><ele>461.8</ele><time>2026-04-25T08:46:46Z</time></trkpt><trkpt lat="45.84096795300033" lon="8.810619026963481"><ele>461.6</ele><time>2026-04-25T08:46:47Z</time></trkpt><trkpt lat="45.84101570156556" lon="8.810536296592472"><ele>461.40000000000003</ele><time>2026-04-25T08:46:48Z</time></trkpt><trkpt lat="45.8410942173727" lon="8.810383778992513"><ele>461.20000000000005</ele><time>2026-04-25T08:46:50Z</time></trkpt><trkpt lat="45.84116144481607" lon="8.810260226625294"><ele>461.0</ele><time>2026-04-25T08:46:51Z</time></trkpt><trkpt lat="45.84124744278643" lon="8.810117831597026"><ele>461.49999999999994</ele><time>2026-04-25T08:46:52Z</time></trkpt><trkpt lat="45.84131690247118" lon="8.809988377483705"><ele>462.0</ele><time>2026-04-25T08:46:53Z</time></trkpt><trkpt lat="45.84138100555872" lon="8.809886472093334"><ele>462.5</ele><time>2026-04-25T08:46:54Z</time></trkpt><trkpt lat="45.841433437000056" lon="8.809801544855665"><ele>463.0</ele><time>2026-04-25T08:46:55Z</time></trkpt><trkpt lat="45.841477654499315" lon="8.809715587682268"><ele>463.49999999999994</ele><time>2026-04-25T08:46:56Z</time></trkpt><trkpt lat="45.84152116806905" lon="8.809629024823677"><ele>464.0</ele><time>2026-04-25T08:46:57Z</time></trkpt><trkpt lat="45.84156068306312" lon="8.809548301045359"><ele>464.0</ele><time>2026-04-25T08:46:58Z</time></trkpt><trkpt lat="45.84160801143212" lon="8.809428525514376"><ele>464.0</ele><time>2026-04-25T08:47:00Z</time></trkpt><trkpt lat="45.841635262504056" lon="8.8093124417895"><ele>464.0</ele><time>2026-04-25T08:47:03Z</time></trkpt><trkpt lat="45.84167419609011" lon="8.809171665962808"><ele>464.0</ele><time>2026-04-25T08:47:05Z</time></trkpt><trkpt lat="45.84168301583215" lon="8.809044809781229"><ele>464.0</ele><time>2026-04-25T08:47:06Z</time></trkpt><trkpt lat="45.841724830235634" lon="8.808919721860429"><ele>464.0</ele><time>2026-04-25T08:47:07Z</time></trkpt><trkpt lat="45.84177273526041" lon="8.808807074798478"><ele>464.0</ele><time>2026-04-25T08:47:08Z</time></trkpt><trkpt lat="45.84181904517835" lon="8.808709370504257"><ele>464.0</ele><time>2026-04-25T08:47:09Z</time></trkpt><trkpt lat="45.841883827657334" lon="8.808612870522278"><ele>464.0</ele><time>2026-04-25T08:47:10Z</time></trkpt><trkpt lat="45.84198104701107" lon="8.808549420356302"><ele>464.0</ele><time>2026-04-25T08:47:11Z</time></trkpt><trkpt lat="45.84207049964941" lon="8.808467198994858"><ele>464.79999999999995</ele><time>2026-04-25T08:47:12Z</time></trkpt><trkpt lat="45.842153655230724" lon="8.808388807550553"><ele>465.59999999999997</ele><time>2026-04-25T08:47:13Z</time></trkpt><trkpt lat="45.842226056401685" lon="8.808324586028364"><ele>466.4</ele><time>2026-04-25T08:47:14Z</time></trkpt><trkpt lat="45.84228626651161" lon="8.808240964576022"><ele>467.2</ele><time>2026-04-25T08:47:15Z</time></trkpt><trkpt lat="45.84238343527295" lon="8.808175584723095"><ele>468.0</ele><time>2026-04-25T08:47:16Z</time></trkpt><trkpt lat="45.84248717394899" lon="8.808081048457764"><ele>468.0</ele><time>2026-04-25T08:47:17Z</time></trkpt><trkpt lat="45.84256270383913" lon="8.807989910637781"><ele>468.0</ele><time>2026-04-25T08:47:18Z</time></trkpt><trkpt lat="45.842629371424465" lon="8.807933051298587"><ele>468.0</ele><time>2026-04-25T08:47:19Z</time></trkpt><trkpt lat="45.84271640675309" lon="8.80785154835365"><ele>468.0</ele><time>2026-04-25T08:47:21Z</time></trkpt><trkpt lat="45.84277779456925" lon="8.807799027993418"><ele>468.0</ele><time>2026-04-25T08:47:22Z</time></trkpt><trkpt lat="45.84284481816843" lon="8.807740105051069"><ele>468.0</ele><time>2026-04-25T08:47:23Z</time></trkpt><trkpt lat="45.84292034355709" lon="8.807673335958885"><ele>468.79999999999995</ele><time>2026-04-25T08:47:24Z</time></trkpt><trkpt lat="45.84300279523747" lon="8.807600871876721"><ele>469.59999999999997</ele><time>2026-04-25T08:47:25Z</time></trkpt><trkpt lat="45.84308793740365" lon="8.807525327295288"><ele>470.40000000000003</ele><time>2026-04-25T08:47:26Z</time></trkpt><trkpt lat="45.84317512780912" lon="8.807448752160981"><ele>471.20000000000005</ele><time>2026-04-25T08:47:27Z</time></trkpt><trkpt lat="45.84326127616167" lon="8.807370264275729"><ele>472.0</ele><time>2026-04-25T08:47:28Z</time></trkpt><trkpt lat="45.84334919665178" lon="8.807288242512811"><ele>472.0</ele><time>2026-04-25T08:47:29Z</time></trkpt><trkpt lat="45.843434276632244" lon="8.807206648294521"><ele>472.00000000000006</ele><time>2026-04-25T08:47:30Z</time></trkpt><trkpt lat="45.84351588679158" lon="8.807128166094289"><ele>472.00000000000006</ele><time>2026-04-25T08:47:31Z</time></trkpt><trkpt lat="45.84360100739387" lon="8.807050465969349"><ele>472.0</ele><time>2026-04-25T08:47:32Z</time></trkpt><trkpt lat="45.84368835936215" lon="8.806964117360991"><ele>472.0</ele><time>2026-04-25T08:47:33Z</time></trkpt><trkpt lat="45.84376932067082" lon="8.806859494136418"><ele>472.8</ele><time>2026-04-25T08:47:34Z</time></trkpt><trkpt lat="45.843835847473215" lon="8.806761498533652"><ele>473.6</ele><time>2026-04-25T08:47:35Z</time></trkpt><trkpt lat="45.843886197785835" lon="8.806669597664214"><ele>474.40000000000003</ele><time>2026-04-25T08:47:36Z</time></trkpt><trkpt lat="45.843937686381885" lon="8.806554377062636"><ele>475.20000000000005</ele><time>2026-04-25T08:47:37Z</time></trkpt><trkpt lat="45.843982949999365" lon="8.806415644913534"><ele>476.0</ele><time>2026-04-25T08:47:38Z</time></trkpt><trkpt lat="45.84402948711333" lon="8.806257199163925"><ele>476.0</ele><time>2026-04-25T08:47:39Z</time></trkpt><trkpt lat="45.84408223642071" lon="8.806095963792858"><ele>476.0</ele><time>2026-04-25T08:47:40Z</time></trkpt><trkpt lat="45.844124422811284" lon="8.805935673831465"><ele>476.0</ele><time>2026-04-25T08:47:41Z</time></trkpt><trkpt lat="45.844171416823045" lon="8.805796772000688"><ele>476.0</ele><time>2026-04-25T08:47:42Z</time></trkpt><trkpt lat="45.84423872192359" lon="8.805671771001245"><ele>476.0</ele><time>2026-04-25T08:47:43Z</time></trkpt><trkpt lat="45.84431825030872" lon="8.80556214927834"><ele>476.0</ele><time>2026-04-25T08:47:44Z</time></trkpt><trkpt lat="45.844399952643506" lon="8.805469154843145"><ele>476.0</ele><time>2026-04-25T08:47:45Z</time></trkpt><trkpt lat="45.84447435925586" lon="8.805374403809438"><ele>476.0</ele><time>2026-04-25T08:47:46Z</time></trkpt><trkpt lat="45.844528679679236" lon="8.805253075228592"><ele>476.0</ele><time>2026-04-25T08:47:47Z</time></trkpt><trkpt lat="45.84455481302775" lon="8.80512983249086"><ele>476.49999999999994</ele><time>2026-04-25T08:47:48Z</time></trkpt><trkpt lat="45.84455911144958" lon="8.804992518796384"><ele>477.0</ele><time>2026-04-25T08:47:49Z</time></trkpt><trkpt lat="45.84455218363785" lon="8.804847253562368"><ele>477.5</ele><time>2026-04-25T08:47:50Z</time></trkpt><trkpt lat="45.844538180467836" lon="8.804722767834345"><ele>478.0</ele><time>2026-04-25T08:47:51Z</time></trkpt><trkpt lat="45.844532145131055" lon="8.80462061778215"><ele>478.49999999999994</ele><time>2026-04-25T08:47:52Z</time></trkpt><trkpt lat="45.8445277848925" lon="8.804513893590794"><ele>479.0</ele><time>2026-04-25T08:47:56Z</time></trkpt><trkpt lat="45.84452814238435" lon="8.80442009585002"><ele>480.0</ele><time>2026-04-25T08:47:58Z</time></trkpt><trkpt lat="45.84454495813428" lon="8.804270793866776"><ele>481.0</ele><time>2026-04-25T08:48:00Z</time></trkpt><trkpt lat="45.84457131083614" lon="8.804160458709626"><ele>482.0</ele><time>2026-04-25T08:48:01Z</time></trkpt><trkpt lat="45.84462602521403" lon="8.80402336225742"><ele>483.0</ele><time>2026-04-25T08:48:02Z</time></trkpt><trkpt lat="45.84468794683572" lon="8.803860446379668"><ele>484.0</ele><time>2026-04-25T08:48:03Z</time></trkpt><trkpt lat="45.84476123039198" lon="8.803689250801181"><ele>484.0</ele><time>2026-04-25T08:48:04Z</time></trkpt><trkpt lat="45.844831033034126" lon="8.803535858279938"><ele>484.0</ele><time>2026-04-25T08:48:05Z</time></trkpt><trkpt lat="45.84490093618905" lon="8.803389063884616"><ele>484.0</ele><time>2026-04-25T08:48:06Z</time></trkpt><trkpt lat="45.844969819438134" lon="8.803257649578152"><ele>484.0</ele><time>2026-04-25T08:48:07Z</time></trkpt><trkpt lat="45.84504988439182" lon="8.803134835753829"><ele>485.75</ele><time>2026-04-25T08:48:07.999Z</time></trkpt><trkpt lat="45.84515629494992" lon="8.803022383137817"><ele>487.5</ele><time>2026-04-25T08:48:08.999Z</time></trkpt><trkpt lat="45.84526762811227" lon="8.802928317032572"><ele>489.25</ele><time>2026-04-25T08:48:09.999Z</time></trkpt><trkpt lat="45.84536908399211" lon="8.802833370486235"><ele>491.0</ele><time>2026-04-25T08:48:10.999Z</time></trkpt><trkpt lat="45.845503875109664" lon="8.802744104761445"><ele>491.0</ele><time>2026-04-25T08:48:11.999Z</time></trkpt><trkpt lat="45.84562515736907" lon="8.802679035513105"><ele>491.0</ele><time>2026-04-25T08:48:12.999Z</time></trkpt><trkpt lat="45.84573085972068" lon="8.802638339920476"><ele>491.0</ele><time>2026-04-25T08:48:13.999Z</time></trkpt><trkpt lat="45.84582076573649" lon="8.80260819825803"><ele>491.0</ele><time>2026-04-25T08:48:14.999Z</time></trkpt><trkpt lat="45.84592012575497" lon="8.802600047072342"><ele>491.0</ele><time>2026-04-25T08:48:15.999Z</time></trkpt><trkpt lat="45.846029853006826" lon="8.802602275070749"><ele>491.6</ele><time>2026-04-25T08:48:16.999Z</time></trkpt><trkpt lat="45.84614134701191" lon="8.802649823525313"><ele>492.20000000000005</ele><time>2026-04-25T08:48:17.999Z</time></trkpt><trkpt lat="45.846236862269215" lon="8.802711008293416"><ele>492.79999999999995</ele><time>2026-04-25T08:48:18.999Z</time></trkpt><trkpt lat="45.84630837912606" lon="8.802781211973269"><ele>493.4</ele><time>2026-04-25T08:48:19.999Z</time></trkpt><trkpt lat="45.84638131371751" lon="8.80287341597483"><ele>494.0</ele><time>2026-04-25T08:48:21.999Z</time></trkpt><trkpt lat="45.84643976775226" lon="8.802945615505482"><ele>493.99999999999994</ele><time>2026-04-25T08:48:24.999Z</time></trkpt><trkpt lat="45.84648251450304" lon="8.803022812400494"><ele>494.0</ele><time>2026-04-25T08:48:28.999Z</time></trkpt><trkpt lat="45.84655708274383" lon="8.803096971592089"><ele>494.0</ele><time>2026-04-25T08:48:31Z</time></trkpt><trkpt lat="45.84660258846088" lon="8.80319559875997"><ele>494.0</ele><time>2026-04-25T08:48:35Z</time></trkpt><trkpt lat="45.84664421577829" lon="8.80326622856149"><ele>493.99999999999994</ele><time>2026-04-25T08:48:36Z</time></trkpt><trkpt lat="45.84670010517752" lon="8.80332350726505"><ele>494.0</ele><time>2026-04-25T08:48:38Z</time></trkpt><trkpt lat="45.84675296188954" lon="8.803428499586985"><ele>493.8571428571429</ele><time>2026-04-25T08:49:35Z</time></trkpt><trkpt lat="45.84678326918519" lon="8.803531968238158"><ele>493.71428571428567</ele><time>2026-04-25T08:49:36Z</time></trkpt><trkpt lat="45.8468282586135" lon="8.803611543316112"><ele>493.57142857142856</ele><time>2026-04-25T08:49:37Z</time></trkpt><trkpt lat="45.846852753100535" lon="8.803704393059343"><ele>493.42857142857144</ele><time>2026-04-25T08:49:38Z</time></trkpt><trkpt lat="45.846910562497726" lon="8.803763511751784"><ele>493.28571428571433</ele><time>2026-04-25T08:49:39Z</time></trkpt><trkpt lat="45.84696412058832" lon="8.803814632140547"><ele>493.1428571428571</ele><time>2026-04-25T08:49:40Z</time></trkpt><trkpt lat="45.84704317420017" lon="8.803833758429365"><ele>493.0</ele><time>2026-04-25T08:49:41Z</time></trkpt><trkpt lat="45.84711684209004" lon="8.803883702376664"><ele>493.4</ele><time>2026-04-25T08:49:42Z</time></trkpt><trkpt lat="45.84719282962208" lon="8.803916321867645"><ele>493.79999999999995</ele><time>2026-04-25T08:49:43Z</time></trkpt><trkpt lat="45.847291252271795" lon="8.80393936924862"><ele>494.2</ele><time>2026-04-25T08:49:44Z</time></trkpt><trkpt lat="45.847402923725056" lon="8.80394373870694"><ele>494.6</ele><time>2026-04-25T08:49:45Z</time></trkpt><trkpt lat="45.84752215128577" lon="8.80392536256976"><ele>495.0</ele><time>2026-04-25T08:49:46Z</time></trkpt><trkpt lat="45.847638049990124" lon="8.803880209844957"><ele>495.0</ele><time>2026-04-25T08:49:47Z</time></trkpt><trkpt lat="45.847755328055484" lon="8.80381157394884"><ele>495.0</ele><time>2026-04-25T08:49:48Z</time></trkpt><trkpt lat="45.84787509917716" lon="8.803724706012025"><ele>495.0</ele><time>2026-04-25T08:49:49Z</time></trkpt><trkpt lat="45.848008528909936" lon="8.80364504814146"><ele>495.0</ele><time>2026-04-25T08:49:50Z</time></trkpt><trkpt lat="45.84814664339154" lon="8.803510834317487"><ele>498.0</ele><time>2026-04-25T08:49:51Z</time></trkpt><trkpt lat="45.84831579718445" lon="8.803382870784077"><ele>501.0</ele><time>2026-04-25T08:49:52Z</time></trkpt><trkpt lat="45.84848906803582" lon="8.803245725068775"><ele>504.0</ele><time>2026-04-25T08:49:53Z</time></trkpt><trkpt lat="45.84867199606056" lon="8.80310601749706"><ele>498.0</ele><time>2026-04-25T08:49:54Z</time></trkpt><trkpt lat="45.84883679543919" lon="8.802985323094903"><ele>492.0</ele><time>2026-04-25T08:49:55Z</time></trkpt><trkpt lat="45.84899266313869" lon="8.802871839730935"><ele>486.0</ele><time>2026-04-25T08:49:56Z</time></trkpt><trkpt lat="45.84914316171014" lon="8.802765781184108"><ele>489.33333333333337</ele><time>2026-04-25T08:49:57Z</time></trkpt><trkpt lat="45.8492999234809" lon="8.8026603899363"><ele>492.6666666666667</ele><time>2026-04-25T08:49:58Z</time></trkpt><trkpt lat="45.849446303382734" lon="8.802566631319424"><ele>496.0</ele><time>2026-04-25T08:49:59Z</time></trkpt><trkpt lat="45.849610568333254" lon="8.802506595245713"><ele>496.0</ele><time>2026-04-25T08:50:00Z</time></trkpt><trkpt lat="45.84978186037941" lon="8.802493055754951"><ele>496.0</ele><time>2026-04-25T08:50:01Z</time></trkpt><trkpt lat="45.849963418252244" lon="8.802457680458724"><ele>496.0</ele><time>2026-04-25T08:50:02Z</time></trkpt><trkpt lat="45.85013697790739" lon="8.80239139582225"><ele>495.0</ele><time>2026-04-25T08:50:03Z</time></trkpt><trkpt lat="45.85031046837823" lon="8.802340234657708"><ele>494.0</ele><time>2026-04-25T08:50:04Z</time></trkpt><trkpt lat="45.850496536255285" lon="8.802317917904201"><ele>493.0</ele><time>2026-04-25T08:50:05Z</time></trkpt><trkpt lat="45.85066412469943" lon="8.802301624510937"><ele>493.0</ele><time>2026-04-25T08:50:06Z</time></trkpt><trkpt lat="45.8508195523217" lon="8.802282364777184"><ele>493.0</ele><time>2026-04-25T08:50:07Z</time></trkpt><trkpt lat="45.85097715939384" lon="8.802217426806745"><ele>493.0</ele><time>2026-04-25T08:50:08Z</time></trkpt><trkpt lat="45.851139065982494" lon="8.802124246484377"><ele>491.6666666666667</ele><time>2026-04-25T08:50:08.999Z</time></trkpt><trkpt lat="45.8512916658216" lon="8.802054726792843"><ele>490.33333333333337</ele><time>2026-04-25T08:50:09.999Z</time></trkpt><trkpt lat="45.85144222155277" lon="8.802010898926222"><ele>489.0</ele><time>2026-04-25T08:50:10.999Z</time></trkpt><trkpt lat="45.85160743562509" lon="8.801988921106508"><ele>490.33333333333337</ele><time>2026-04-25T08:50:11.999Z</time></trkpt><trkpt lat="45.85179081816447" lon="8.80199557933675"><ele>491.6666666666667</ele><time>2026-04-25T08:50:12.999Z</time></trkpt><trkpt lat="45.85198505204271" lon="8.80202280701504"><ele>493.0</ele><time>2026-04-25T08:50:13.999Z</time></trkpt><trkpt lat="45.852180498731045" lon="8.802054830649132"><ele>493.0</ele><time>2026-04-25T08:50:14.999Z</time></trkpt><trkpt lat="45.85236379314489" lon="8.802077874588127"><ele>493.0</ele><time>2026-04-25T08:50:15.999Z</time></trkpt><trkpt lat="45.85254389839211" lon="8.80210264763525"><ele>493.0</ele><time>2026-04-25T08:50:16.999Z</time></trkpt><trkpt lat="45.852710819950765" lon="8.80211817065878"><ele>495.33333333333337</ele><time>2026-04-25T08:50:17.999Z</time></trkpt><trkpt lat="45.85287981906342" lon="8.802110103686067"><ele>497.66666666666663</ele><time>2026-04-25T08:50:18.999Z</time></trkpt><trkpt lat="45.85305445822045" lon="8.802059810254617"><ele>500.0</ele><time>2026-04-25T08:50:19.999Z</time></trkpt><trkpt lat="45.8532428812363" lon="8.801976904012696"><ele>500.0</ele><time>2026-04-25T08:50:20.999Z</time></trkpt><trkpt lat="45.853450380029095" lon="8.801889368009762"><ele>500.0</ele><time>2026-04-25T08:50:21.999Z</time></trkpt><trkpt lat="45.85365397947319" lon="8.80180430534567"><ele>500.0</ele><time>2026-04-25T08:50:22.999Z</time></trkpt><trkpt lat="45.85385383279547" lon="8.801720703125996"><ele>504.0</ele><time>2026-04-25T08:50:23.999Z</time></trkpt><trkpt lat="45.85401896386253" lon="8.8016489478893"><ele>508.0</ele><time>2026-04-25T08:50:24.999Z</time></trkpt><trkpt lat="45.854165775070015" lon="8.801591367814668"><ele>512.0</ele><time>2026-04-25T08:50:25.999Z</time></trkpt><trkpt lat="45.854285703264026" lon="8.801556598434116"><ele>516.0</ele><time>2026-04-25T08:50:26.999Z</time></trkpt><trkpt lat="45.85440387527587" lon="8.80158324360336"><ele>516.25</ele><time>2026-04-25T08:50:27.999Z</time></trkpt><trkpt lat="45.8545073557096" lon="8.801647787597782"><ele>516.5</ele><time>2026-04-25T08:50:28.999Z</time></trkpt><trkpt lat="45.85458596050153" lon="8.801740388069573"><ele>516.75</ele><time>2026-04-25T08:50:29.999Z</time></trkpt><trkpt lat="45.85463217099439" lon="8.80189981320201"><ele>517.0</ele><time>2026-04-25T08:50:30.999Z</time></trkpt><trkpt lat="45.85466902667058" lon="8.802076121227845"><ele>517.0</ele><time>2026-04-25T08:50:31.999Z</time></trkpt><trkpt lat="45.854721368700176" lon="8.802258967746319"><ele>517.0</ele><time>2026-04-25T08:50:32.999Z</time></trkpt><trkpt lat="45.854777734546026" lon="8.802422288492089"><ele>517.0</ele><time>2026-04-25T08:50:33.999Z</time></trkpt><trkpt lat="45.85488137612989" lon="8.802561244987395"><ele>517.0</ele><time>2026-04-25T08:50:34.999Z</time></trkpt><trkpt lat="45.855025589123095" lon="8.802683461669423"><ele>518.3333333333334</ele><time>2026-04-25T08:50:35.999Z</time></trkpt><trkpt lat="45.85519844020338" lon="8.802802637614265"><ele>519.6666666666666</ele><time>2026-04-25T08:50:37Z</time></trkpt><trkpt lat="45.85539054577883" lon="8.80292922293925"><ele>521.0</ele><time>2026-04-25T08:50:38Z</time></trkpt><trkpt lat="45.855571835076844" lon="8.803060151216858"><ele>521.0</ele><time>2026-04-25T08:50:39Z</time></trkpt><trkpt lat="45.85571411337184" lon="8.803170277041367"><ele>521.0</ele><time>2026-04-25T08:50:40Z</time></trkpt><trkpt lat="45.85585931749167" lon="8.803278873734763"><ele>521.0</ele><time>2026-04-25T08:50:41Z</time></trkpt><trkpt lat="45.856004508064586" lon="8.803377230562871"><ele>522.6666666666666</ele><time>2026-04-25T08:50:42Z</time></trkpt><trkpt lat="45.85614064692195" lon="8.803447633448922"><ele>524.3333333333334</ele><time>2026-04-25T08:50:43Z</time></trkpt><trkpt lat="45.856298422125974" lon="8.803460495705284"><ele>526.0</ele><time>2026-04-25T08:50:44Z</time></trkpt><trkpt lat="45.85647765658085" lon="8.803450588298716"><ele>526.0</ele><time>2026-04-25T08:50:45Z</time></trkpt><trkpt lat="45.85664906336852" lon="8.803459154029952"><ele>526.0</ele><time>2026-04-25T08:50:46Z</time></trkpt><trkpt lat="45.85679222094334" lon="8.803504737635972"><ele>526.0</ele><time>2026-04-25T08:50:47Z</time></trkpt><trkpt lat="45.85692557234081" lon="8.803574407207739"><ele>525.3333333333334</ele><time>2026-04-25T08:50:48Z</time></trkpt><trkpt lat="45.85705612002405" lon="8.803679063168932"><ele>524.6666666666666</ele><time>2026-04-25T08:50:49Z</time></trkpt><trkpt lat="45.85719952541029" lon="8.803809322682262"><ele>524.0</ele><time>2026-04-25T08:50:50Z</time></trkpt><trkpt lat="45.857364576969886" lon="8.803965096035975"><ele>524.0</ele><time>2026-04-25T08:50:51Z</time></trkpt><trkpt lat="45.85754999968132" lon="8.804122190828437"><ele>524.0</ele><time>2026-04-25T08:50:52Z</time></trkpt><trkpt lat="45.85772363561012" lon="8.804295419608314"><ele>524.0</ele><time>2026-04-25T08:50:53Z</time></trkpt><trkpt lat="45.8578713947397" lon="8.804451626575293"><ele>523.0</ele><time>2026-04-25T08:50:54Z</time></trkpt><trkpt lat="45.85800246286645" lon="8.804593647842138"><ele>522.0</ele><time>2026-04-25T08:50:55Z</time></trkpt><trkpt lat="45.8581197502147" lon="8.804733112456306"><ele>521.0</ele><time>2026-04-25T08:50:56Z</time></trkpt><trkpt lat="45.858235505350784" lon="8.80485388056725"><ele>521.0</ele><time>2026-04-25T08:50:57Z</time></trkpt><trkpt lat="45.85837424058506" lon="8.804948524148827"><ele>521.0</ele><time>2026-04-25T08:50:58Z</time></trkpt><trkpt lat="45.85853979746331" lon="8.805003947212949"><ele>521.0</ele><time>2026-04-25T08:50:59Z</time></trkpt><trkpt lat="45.85871676270087" lon="8.805038695069804"><ele>521.5</ele><time>2026-04-25T08:51:00Z</time></trkpt><trkpt lat="45.85887047108967" lon="8.80509986429493"><ele>522.0</ele><time>2026-04-25T08:51:01Z</time></trkpt><trkpt lat="45.85907539055009" lon="8.805151386387065"><ele>522.5</ele><time>2026-04-25T08:51:02Z</time></trkpt><trkpt lat="45.85915079734956" lon="8.80519065018091"><ele>523.0</ele><time>2026-04-25T08:51:03Z</time></trkpt><trkpt lat="45.85925450650331" lon="8.805307343957082"><ele>524.6666666666667</ele><time>2026-04-25T08:51:04Z</time></trkpt><trkpt lat="45.85935416511499" lon="8.80548440668983"><ele>526.3333333333334</ele><time>2026-04-25T08:51:05Z</time></trkpt><trkpt lat="45.859444034552965" lon="8.80567744159771"><ele>528.0</ele><time>2026-04-25T08:51:06Z</time></trkpt><trkpt lat="45.85953622293099" lon="8.805827812705097"><ele>528.0</ele><time>2026-04-25T08:51:07Z</time></trkpt><trkpt lat="45.8596576772626" lon="8.80592141229573"><ele>528.0</ele><time>2026-04-25T08:51:08Z</time></trkpt><trkpt lat="45.85982857844856" lon="8.805984264053357"><ele>528.0</ele><time>2026-04-25T08:51:09Z</time></trkpt><trkpt lat="45.8600400995574" lon="8.806024021223875"><ele>524.0</ele><time>2026-04-25T08:51:10Z</time></trkpt><trkpt lat="45.86026548941127" lon="8.806072171936261"><ele>520.0</ele><time>2026-04-25T08:51:11Z</time></trkpt><trkpt lat="45.86049478401835" lon="8.806128173146787"><ele>520.0</ele><time>2026-04-25T08:51:12Z</time></trkpt><trkpt lat="45.860712728109185" lon="8.806184386226922"><ele>520.0</ele><time>2026-04-25T08:51:13Z</time></trkpt><trkpt lat="45.860911925536364" lon="8.806222106573427"><ele>520.0</ele><time>2026-04-25T08:51:14Z</time></trkpt><trkpt lat="45.86109138237464" lon="8.806236832884215"><ele>520.6666666666667</ele><time>2026-04-25T08:51:15Z</time></trkpt><trkpt lat="45.86127039474426" lon="8.806221645263237"><ele>521.3333333333334</ele><time>2026-04-25T08:51:16Z</time></trkpt><trkpt lat="45.861455622021026" lon="8.806183253660762"><ele>522.0</ele><time>2026-04-25T08:51:17Z</time></trkpt><trkpt lat="45.86163958003778" lon="8.806148492766638"><ele>523.0</ele><time>2026-04-25T08:51:18Z</time></trkpt><trkpt lat="45.86180495647119" lon="8.806117850073962"><ele>524.0</ele><time>2026-04-25T08:51:19Z</time></trkpt><trkpt lat="45.861961583200404" lon="8.806068310265141"><ele>525.0</ele><time>2026-04-25T08:51:20Z</time></trkpt><trkpt lat="45.86209736262429" lon="8.805991721003972"><ele>525.0</ele><time>2026-04-25T08:51:21Z</time></trkpt><trkpt lat="45.86222146276495" lon="8.805887983097517"><ele>525.0</ele><time>2026-04-25T08:51:22Z</time></trkpt><trkpt lat="45.86232862638072" lon="8.805760559636672"><ele>525.0</ele><time>2026-04-25T08:51:23Z</time></trkpt><trkpt lat="45.862427657974486" lon="8.805624379965026"><ele>525.0</ele><time>2026-04-25T08:51:24Z</time></trkpt><trkpt lat="45.862521488907255" lon="8.805516248488923"><ele>525.25</ele><time>2026-04-25T08:51:25Z</time></trkpt><trkpt lat="45.86262456100709" lon="8.80545264423166"><ele>525.5</ele><time>2026-04-25T08:51:26Z</time></trkpt><trkpt lat="45.86272813259062" lon="8.805432274139234"><ele>525.75</ele><time>2026-04-25T08:51:27Z</time></trkpt><trkpt lat="45.86284566471518" lon="8.805444163281216"><ele>526.0</ele><time>2026-04-25T08:51:28Z</time></trkpt><trkpt lat="45.86299839375223" lon="8.8054700350093"><ele>526.0</ele><time>2026-04-25T08:51:29Z</time></trkpt><trkpt lat="45.863165081123135" lon="8.8054903232791"><ele>526.0</ele><time>2026-04-25T08:51:30Z</time></trkpt><trkpt lat="45.86334279100198" lon="8.80548529300588"><ele>526.0</ele><time>2026-04-25T08:51:31Z</time></trkpt><trkpt lat="45.86353056885301" lon="8.80545735334928"><ele>528.6666666666667</ele><time>2026-04-25T08:51:32Z</time></trkpt><trkpt lat="45.8637365534113" lon="8.805434974484518"><ele>531.3333333333334</ele><time>2026-04-25T08:51:33Z</time></trkpt><trkpt lat="45.86392023165864" lon="8.805433348260086"><ele>534.0</ele><time>2026-04-25T08:51:34Z</time></trkpt><trkpt lat="45.864100682513254" lon="8.805435888418597"><ele>534.0</ele><time>2026-04-25T08:51:35Z</time></trkpt><trkpt lat="45.86427409593677" lon="8.805441793393054"><ele>534.0</ele><time>2026-04-25T08:51:36Z</time></trkpt><trkpt lat="45.86444396906723" lon="8.805447482722489"><ele>534.0</ele><time>2026-04-25T08:51:37Z</time></trkpt><trkpt lat="45.86462716305294" lon="8.805452022073515"><ele>536.6666666666666</ele><time>2026-04-25T08:51:38Z</time></trkpt><trkpt lat="45.86480785125824" lon="8.805464433977352"><ele>539.3333333333333</ele><time>2026-04-25T08:51:39Z</time></trkpt><trkpt lat="45.8649658685292" lon="8.805464011944075"><ele>542.0</ele><time>2026-04-25T08:51:40Z</time></trkpt><trkpt lat="45.865103474965395" lon="8.805443639605134"><ele>542.75</ele><time>2026-04-25T08:51:41Z</time></trkpt><trkpt lat="45.86522103468349" lon="8.805377167112052"><ele>543.5</ele><time>2026-04-25T08:51:42Z</time></trkpt><trkpt lat="45.86533991423553" lon="8.805260685252208"><ele>544.25</ele><time>2026-04-25T08:51:43Z</time></trkpt><trkpt lat="45.8654354728479" lon="8.805082748433497"><ele>545.0</ele><time>2026-04-25T08:51:44Z</time></trkpt><trkpt lat="45.86551960849165" lon="8.804922703434901"><ele>545.0</ele><time>2026-04-25T08:51:45Z</time></trkpt><trkpt lat="45.865585756272374" lon="8.804778584860266"><ele>545.0</ele><time>2026-04-25T08:51:46Z</time></trkpt><trkpt lat="45.86566410051853" lon="8.804682423402342"><ele>545.0</ele><time>2026-04-25T08:51:47Z</time></trkpt><trkpt lat="45.865763453976555" lon="8.804626004694677"><ele>545.0</ele><time>2026-04-25T08:51:48Z</time></trkpt><trkpt lat="45.8659066272275" lon="8.804592818842943"><ele>545.3333333333333</ele><time>2026-04-25T08:51:49Z</time></trkpt><trkpt lat="45.866081157104574" lon="8.80454404100886"><ele>545.6666666666666</ele><time>2026-04-25T08:51:50Z</time></trkpt><trkpt lat="45.866280368133594" lon="8.804482807501682"><ele>546.0</ele><time>2026-04-25T08:51:51Z</time></trkpt><trkpt lat="45.8665031467145" lon="8.804426547730314"><ele>546.0</ele><time>2026-04-25T08:51:52Z</time></trkpt><trkpt lat="45.8667394818212" lon="8.804381861846828"><ele>546.0</ele><time>2026-04-25T08:51:53Z</time></trkpt><trkpt lat="45.866968118412416" lon="8.80434802104792"><ele>544.3333333333334</ele><time>2026-04-25T08:51:54Z</time></trkpt><trkpt lat="45.86717826856114" lon="8.804322921369371"><ele>542.6666666666667</ele><time>2026-04-25T08:51:55Z</time></trkpt><trkpt lat="45.867383768909264" lon="8.80429122970305"><ele>541.0</ele><time>2026-04-25T08:51:56Z</time></trkpt><trkpt lat="45.86758151500167" lon="8.804263498959777"><ele>543.3333333333334</ele><time>2026-04-25T08:51:57Z</time></trkpt><trkpt lat="45.86776645419662" lon="8.804241442015961"><ele>545.6666666666666</ele><time>2026-04-25T08:51:58Z</time></trkpt><trkpt lat="45.86793509950052" lon="8.80422199730104"><ele>548.0</ele><time>2026-04-25T08:51:59Z</time></trkpt><trkpt lat="45.86810527652482" lon="8.804201067573786"><ele>548.0</ele><time>2026-04-25T08:52:00Z</time></trkpt><trkpt lat="45.868279098571534" lon="8.80419541030663"><ele>548.0</ele><time>2026-04-25T08:52:01Z</time></trkpt><trkpt lat="45.86845523654758" lon="8.8042284716921"><ele>548.0</ele><time>2026-04-25T08:52:02Z</time></trkpt><trkpt lat="45.86864161234676" lon="8.804312068698644"><ele>551.3333333333333</ele><time>2026-04-25T08:52:03Z</time></trkpt><trkpt lat="45.86883055584525" lon="8.804422345863369"><ele>554.6666666666666</ele><time>2026-04-25T08:52:04Z</time></trkpt><trkpt lat="45.86901112994005" lon="8.80454858134127"><ele>558.0</ele><time>2026-04-25T08:52:05Z</time></trkpt><trkpt lat="45.86917525862454" lon="8.804626511648678"><ele>558.6666666666666</ele><time>2026-04-25T08:52:06Z</time></trkpt><trkpt lat="45.86935568290221" lon="8.804646437541704"><ele>559.3333333333333</ele><time>2026-04-25T08:52:07Z</time></trkpt><trkpt lat="45.869561429817864" lon="8.804627282930312"><ele>560.0</ele><time>2026-04-25T08:52:08Z</time></trkpt><trkpt lat="45.86979341189919" lon="8.804596741677859"><ele>560.0</ele><time>2026-04-25T08:52:09Z</time></trkpt><trkpt lat="45.87003750197267" lon="8.80458296378827"><ele>560.0</ele><time>2026-04-25T08:52:10Z</time></trkpt><trkpt lat="45.87029298742015" lon="8.804575559303997"><ele>559.0</ele><time>2026-04-25T08:52:11Z</time></trkpt><trkpt lat="45.87054942323332" lon="8.804567729834128"><ele>558.0</ele><time>2026-04-25T08:52:12Z</time></trkpt><trkpt lat="45.87078468263176" lon="8.804560018347688"><ele>558.6666666666666</ele><time>2026-04-25T08:52:13Z</time></trkpt><trkpt lat="45.87099147893524" lon="8.804554066956067"><ele>559.3333333333333</ele><time>2026-04-25T08:52:14Z</time></trkpt><trkpt lat="45.8711835096822" lon="8.804548108135782"><ele>560.0</ele><time>2026-04-25T08:52:15Z</time></trkpt><trkpt lat="45.87135982972745" lon="8.804543835967191"><ele>560.0</ele><time>2026-04-25T08:52:16Z</time></trkpt><trkpt lat="45.871530343048114" lon="8.804553473750257"><ele>560.0</ele><time>2026-04-25T08:52:17Z</time></trkpt><trkpt lat="45.871711598961674" lon="8.804590731283438"><ele>560.0</ele><time>2026-04-25T08:52:18Z</time></trkpt><trkpt lat="45.87190654419056" lon="8.804652936283945"><ele>560.3333333333333</ele><time>2026-04-25T08:52:19Z</time></trkpt><trkpt lat="45.87211012844901" lon="8.804738281379528"><ele>560.6666666666666</ele><time>2026-04-25T08:52:20Z</time></trkpt><trkpt lat="45.872313756025704" lon="8.804841234932793"><ele>561.0</ele><time>2026-04-25T08:52:21Z</time></trkpt><trkpt lat="45.87250450141278" lon="8.804998529682523"><ele>563.5</ele><time>2026-04-25T08:52:22Z</time></trkpt><trkpt lat="45.87269696289023" lon="8.805182163520866"><ele>566.0</ele><time>2026-04-25T08:52:23Z</time></trkpt><trkpt lat="45.87288314737489" lon="8.805356891768938"><ele>566.0</ele><time>2026-04-25T08:52:24Z</time></trkpt><trkpt lat="45.8730577533405" lon="8.805497233857654"><ele>566.0</ele><time>2026-04-25T08:52:25Z</time></trkpt><trkpt lat="45.87320820844922" lon="8.805593874241488"><ele>566.0</ele><time>2026-04-25T08:52:26Z</time></trkpt><trkpt lat="45.873356994715486" lon="8.805656652858366"><ele>568.3333333333333</ele><time>2026-04-25T08:52:27Z</time></trkpt><trkpt lat="45.87350813011851" lon="8.805650871820744"><ele>570.6666666666666</ele><time>2026-04-25T08:52:28Z</time></trkpt><trkpt lat="45.87367062169063" lon="8.805573411288183"><ele>573.0</ele><time>2026-04-25T08:52:29Z</time></trkpt><trkpt lat="45.87384733970797" lon="8.80543053415159"><ele>573.0</ele><time>2026-04-25T08:52:30Z</time></trkpt><trkpt lat="45.87403290863247" lon="8.805288624679182"><ele>573.0</ele><time>2026-04-25T08:52:31Z</time></trkpt><trkpt lat="45.87421833488051" lon="8.805166621364615"><ele>573.0</ele><time>2026-04-25T08:52:31.999Z</time></trkpt><trkpt lat="45.87438777024198" lon="8.805077715647053"><ele>570.6666666666666</ele><time>2026-04-25T08:52:32.999Z</time></trkpt><trkpt lat="45.87455138657246" lon="8.80499220398707"><ele>568.3333333333333</ele><time>2026-04-25T08:52:33.999Z</time></trkpt><trkpt lat="45.87469003864936" lon="8.804916036006022"><ele>566.0</ele><time>2026-04-25T08:52:34.999Z</time></trkpt><trkpt lat="45.874868165701685" lon="8.80486283260864"><ele>566.0</ele><time>2026-04-25T08:52:35.999Z</time></trkpt><trkpt lat="45.87507534199828" lon="8.804857767022053"><ele>566.0</ele><time>2026-04-25T08:52:36.999Z</time></trkpt><trkpt lat="45.87529455433539" lon="8.80487424347011"><ele>566.0</ele><time>2026-04-25T08:52:37.999Z</time></trkpt><trkpt lat="45.875494718279796" lon="8.804890357596301"><ele>566.3333333333333</ele><time>2026-04-25T08:52:38.999Z</time></trkpt><trkpt lat="45.87568197463409" lon="8.80489000912902"><ele>566.6666666666666</ele><time>2026-04-25T08:52:39.999Z</time></trkpt><trkpt lat="45.87585597915513" lon="8.804860943220092"><ele>567.0</ele><time>2026-04-25T08:52:40.999Z</time></trkpt><trkpt lat="45.87604130345063" lon="8.804780092375218"><ele>568.3333333333334</ele><time>2026-04-25T08:52:41.999Z</time></trkpt><trkpt lat="45.87623392848667" lon="8.80469337428753"><ele>569.6666666666667</ele><time>2026-04-25T08:52:43Z</time></trkpt><trkpt lat="45.87642295745842" lon="8.804605854603935"><ele>571.0</ele><time>2026-04-25T08:52:44Z</time></trkpt><trkpt lat="45.876587879405" lon="8.804486870685865"><ele>571.0</ele><time>2026-04-25T08:52:45Z</time></trkpt><trkpt lat="45.87673398831158" lon="8.804331340373988"><ele>571.0</ele><time>2026-04-25T08:52:46Z</time></trkpt><trkpt lat="45.87687927697734" lon="8.80411370639615"><ele>571.0</ele><time>2026-04-25T08:52:47Z</time></trkpt><trkpt lat="45.877046631182886" lon="8.803888100941519"><ele>568.6666666666667</ele><time>2026-04-25T08:52:48Z</time></trkpt><trkpt lat="45.87720930026751" lon="8.80368477874322"><ele>566.3333333333334</ele><time>2026-04-25T08:52:49Z</time></trkpt><trkpt lat="45.87735613870166" lon="8.803496310817348"><ele>564.0</ele><time>2026-04-25T08:52:50Z</time></trkpt><trkpt lat="45.877495880394704" lon="8.803318627594017"><ele>561.6666666666666</ele><time>2026-04-25T08:52:51Z</time></trkpt><trkpt lat="45.877642396264044" lon="8.80315980323038"><ele>559.3333333333333</ele><time>2026-04-25T08:52:52Z</time></trkpt><trkpt lat="45.877794508280424" lon="8.803029527582368"><ele>557.0</ele><time>2026-04-25T08:52:53Z</time></trkpt><trkpt lat="45.877959860281706" lon="8.802907611416696"><ele>557.0</ele><time>2026-04-25T08:52:54Z</time></trkpt><trkpt lat="45.87812721108761" lon="8.802792612884193"><ele>557.0</ele><time>2026-04-25T08:52:55Z</time></trkpt><trkpt lat="45.878284772820784" lon="8.802681107146434"><ele>557.0</ele><time>2026-04-25T08:52:56Z</time></trkpt><trkpt lat="45.87843203428336" lon="8.80256981188291"><ele>554.3333333333333</ele><time>2026-04-25T08:52:57Z</time></trkpt><trkpt lat="45.87858150807433" lon="8.80245270154941"><ele>551.6666666666666</ele><time>2026-04-25T08:52:58Z</time></trkpt><trkpt lat="45.878747685045965" lon="8.802321825925192"><ele>549.0</ele><time>2026-04-25T08:52:59Z</time></trkpt><trkpt lat="45.87891606592634" lon="8.802151572145895"><ele>549.0</ele><time>2026-04-25T08:53:00Z</time></trkpt><trkpt lat="45.879073052924284" lon="8.80193137588846"><ele>549.0</ele><time>2026-04-25T08:53:01Z</time></trkpt><trkpt lat="45.87923727377758" lon="8.801668164763411"><ele>549.0</ele><time>2026-04-25T08:53:02Z</time></trkpt><trkpt lat="45.87943066146727" lon="8.801403603970805"><ele>549.0</ele><time>2026-04-25T08:53:03Z</time></trkpt><trkpt lat="45.879616269255436" lon="8.801164473729315"><ele>543.6666666666666</ele><time>2026-04-25T08:53:04Z</time></trkpt><trkpt lat="45.87978047182221" lon="8.800934955099132"><ele>538.3333333333333</ele><time>2026-04-25T08:53:05Z</time></trkpt><trkpt lat="45.879927609280514" lon="8.800700042469083"><ele>533.0</ele><time>2026-04-25T08:53:06Z</time></trkpt><trkpt lat="45.88004878861444" lon="8.800455545058677"><ele>534.6666666666666</ele><time>2026-04-25T08:53:07Z</time></trkpt><trkpt lat="45.88015832458583" lon="8.800211920590684"><ele>536.3333333333334</ele><time>2026-04-25T08:53:08Z</time></trkpt><trkpt lat="45.88025841821376" lon="8.799974129638686"><ele>538.0</ele><time>2026-04-25T08:53:09Z</time></trkpt><trkpt lat="45.8803622719773" lon="8.79974205862208"><ele>538.0</ele><time>2026-04-25T08:53:10Z</time></trkpt><trkpt lat="45.88047716807326" lon="8.799512685871953"><ele>538.0</ele><time>2026-04-25T08:53:11Z</time></trkpt><trkpt lat="45.880607710468304" lon="8.79930497862702"><ele>538.0</ele><time>2026-04-25T08:53:12Z</time></trkpt><trkpt lat="45.88075487189612" lon="8.799142464498068"><ele>540.3333333333334</ele><time>2026-04-25T08:53:13Z</time></trkpt><trkpt lat="45.88092795689976" lon="8.798974968735832"><ele>542.6666666666666</ele><time>2026-04-25T08:53:14Z</time></trkpt><trkpt lat="45.881111297949204" lon="8.798766998509189"><ele>545.0</ele><time>2026-04-25T08:53:15Z</time></trkpt><trkpt lat="45.88130514735118" lon="8.79854405845699"><ele>536.0</ele><time>2026-04-25T08:53:16Z</time></trkpt><trkpt lat="45.88150334842668" lon="8.798315269736188"><ele>527.0</ele><time>2026-04-25T08:53:17Z</time></trkpt><trkpt lat="45.88171134722222" lon="8.798078519079738"><ele>527.5</ele><time>2026-04-25T08:53:18Z</time></trkpt><trkpt lat="45.881933447314154" lon="8.797828544223805"><ele>528.0</ele><time>2026-04-25T08:53:19Z</time></trkpt><trkpt lat="45.882163910970114" lon="8.797566641284902"><ele>528.0</ele><time>2026-04-25T08:53:20Z</time></trkpt><trkpt lat="45.88237187942934" lon="8.797332903156944"><ele>528.0</ele><time>2026-04-25T08:53:21Z</time></trkpt><trkpt lat="45.88257897724194" lon="8.797130003195436"><ele>527.0</ele><time>2026-04-25T08:53:22Z</time></trkpt><trkpt lat="45.882781623483076" lon="8.796954419311959"><ele>526.0</ele><time>2026-04-25T08:53:23Z</time></trkpt><trkpt lat="45.88299007408973" lon="8.796799874047867"><ele>526.0</ele><time>2026-04-25T08:53:24Z</time></trkpt><trkpt lat="45.88322586648033" lon="8.79665315920213"><ele>526.0</ele><time>2026-04-25T08:53:25Z</time></trkpt><trkpt lat="45.88347136567974" lon="8.796503210914816"><ele>536.5</ele><time>2026-04-25T08:53:26Z</time></trkpt><trkpt lat="45.88370987548986" lon="8.796349085446336"><ele>547.0</ele><time>2026-04-25T08:53:27Z</time></trkpt><trkpt lat="45.88392480251947" lon="8.79621257698641"><ele>547.0</ele><time>2026-04-25T08:53:28Z</time></trkpt><trkpt lat="45.88412571826386" lon="8.796083057931625"><ele>547.0</ele><time>2026-04-25T08:53:29Z</time></trkpt><trkpt lat="45.88431536839578" lon="8.795963124557925"><ele>547.0</ele><time>2026-04-25T08:53:30Z</time></trkpt><trkpt lat="45.884496064905434" lon="8.79584839754216"><ele>542.3333333333334</ele><time>2026-04-25T08:53:31Z</time></trkpt><trkpt lat="45.88467530433951" lon="8.795735978805373"><ele>537.6666666666666</ele><time>2026-04-25T08:53:32Z</time></trkpt><trkpt lat="45.88486322852546" lon="8.795627329611934"><ele>533.0</ele><time>2026-04-25T08:53:33Z</time></trkpt><trkpt lat="45.88505952356481" lon="8.795523964246193"><ele>539.3333333333333</ele><time>2026-04-25T08:53:34Z</time></trkpt><trkpt lat="45.885247899679634" lon="8.795425202029008"><ele>545.6666666666666</ele><time>2026-04-25T08:53:35Z</time></trkpt><trkpt lat="45.88542085731288" lon="8.795320447751433"><ele>552.0</ele><time>2026-04-25T08:53:36Z</time></trkpt><trkpt lat="45.88559455823954" lon="8.79520682636453"><ele>547.0</ele><time>2026-04-25T08:53:37Z</time></trkpt><trkpt lat="45.885776179154405" lon="8.795089398637813"><ele>542.0</ele><time>2026-04-25T08:53:38Z</time></trkpt><trkpt lat="45.885960203725766" lon="8.794957735444187"><ele>537.0</ele><time>2026-04-25T08:53:39Z</time></trkpt><trkpt lat="45.886146814666695" lon="8.794803809834093"><ele>537.0</ele><time>2026-04-25T08:53:40Z</time></trkpt><trkpt lat="45.88633407851944" lon="8.794626541836497"><ele>537.0</ele><time>2026-04-25T08:53:41Z</time></trkpt><trkpt lat="45.886523621062885" lon="8.794438132127295"><ele>536.6666666666666</ele><time>2026-04-25T08:53:42Z</time></trkpt><trkpt lat="45.886701497201926" lon="8.794256679698396"><ele>536.3333333333333</ele><time>2026-04-25T08:53:43Z</time></trkpt><trkpt lat="45.886863142292945" lon="8.794098238319883"><ele>536.0</ele><time>2026-04-25T08:53:44Z</time></trkpt><trkpt lat="45.88701779662727" lon="8.793951723602353"><ele>536.0</ele><time>2026-04-25T08:53:45Z</time></trkpt><trkpt lat="45.88716388163562" lon="8.7938130408869"><ele>536.0</ele><time>2026-04-25T08:53:46Z</time></trkpt><trkpt lat="45.887298347654166" lon="8.79368792373042"><ele>536.0</ele><time>2026-04-25T08:53:47Z</time></trkpt><trkpt lat="45.88742114746992" lon="8.793568721304554"><ele>535.5</ele><time>2026-04-25T08:53:48Z</time></trkpt><trkpt lat="45.88752754474146" lon="8.793443248879514"><ele>535.0</ele><time>2026-04-25T08:53:49Z</time></trkpt><trkpt lat="45.887615940691305" lon="8.79330563755202"><ele>534.5</ele><time>2026-04-25T08:53:50Z</time></trkpt><trkpt lat="45.887690474286146" lon="8.79314403529169"><ele>534.0</ele><time>2026-04-25T08:53:51Z</time></trkpt><trkpt lat="45.88775363493184" lon="8.792946836333524"><ele>534.0</ele><time>2026-04-25T08:53:52Z</time></trkpt><trkpt lat="45.88780853368106" lon="8.792741865014468"><ele>534.0</ele><time>2026-04-25T08:53:53Z</time></trkpt><trkpt lat="45.88782736817084" lon="8.792531198420553"><ele>534.0</ele><time>2026-04-25T08:53:54Z</time></trkpt><trkpt lat="45.8878628860477" lon="8.792357919956125"><ele>534.0</ele><time>2026-04-25T08:53:55Z</time></trkpt><trkpt lat="45.88788778651577" lon="8.792173413859604"><ele>530.5</ele><time>2026-04-25T08:53:56Z</time></trkpt><trkpt lat="45.88790199051226" lon="8.791994804159836"><ele>527.0</ele><time>2026-04-25T08:53:57Z</time></trkpt><trkpt lat="45.88792621989017" lon="8.791826635030727"><ele>523.5</ele><time>2026-04-25T08:53:58Z</time></trkpt><trkpt lat="45.887942544541644" lon="8.791650854024738"><ele>520.0</ele><time>2026-04-25T08:53:59Z</time></trkpt><trkpt lat="45.88796339484393" lon="8.791482604001372"><ele>519.0</ele><time>2026-04-25T08:54:00Z</time></trkpt><trkpt lat="45.88797473968629" lon="8.791311389925184"><ele>518.0</ele><time>2026-04-25T08:54:01Z</time></trkpt><trkpt lat="45.88799383790824" lon="8.791145037182266"><ele>517.0</ele><time>2026-04-25T08:54:02Z</time></trkpt><trkpt lat="45.88801068264267" lon="8.79097876575152"><ele>516.0</ele><time>2026-04-25T08:54:03Z</time></trkpt><trkpt lat="45.888024760266525" lon="8.790807403088706"><ele>516.0</ele><time>2026-04-25T08:54:04Z</time></trkpt><trkpt lat="45.88804336042098" lon="8.790626327759384"><ele>516.0</ele><time>2026-04-25T08:54:05Z</time></trkpt><trkpt lat="45.88806169139246" lon="8.79044313512337"><ele>516.0</ele><time>2026-04-25T08:54:06Z</time></trkpt><trkpt lat="45.888079742583585" lon="8.790257153609678"><ele>516.0</ele><time>2026-04-25T08:54:07Z</time></trkpt><trkpt lat="45.88809913329442" lon="8.790071515956141"><ele>515.0</ele><time>2026-04-25T08:54:08Z</time></trkpt><trkpt lat="45.888139901530465" lon="8.78989516911105"><ele>514.0</ele><time>2026-04-25T08:54:09Z</time></trkpt><trkpt lat="45.8882078147862" lon="8.789727860822035"><ele>513.0</ele><time>2026-04-25T08:54:10Z</time></trkpt><trkpt lat="45.88831163785627" lon="8.78957999418764"><ele>512.0</ele><time>2026-04-25T08:54:11Z</time></trkpt><trkpt lat="45.88842150019436" lon="8.789392988445496"><ele>511.66666666666663</ele><time>2026-04-25T08:54:12Z</time></trkpt><trkpt lat="45.88856686542937" lon="8.789234670421322"><ele>511.33333333333337</ele><time>2026-04-25T08:54:13Z</time></trkpt><trkpt lat="45.88866560945811" lon="8.789088438262164"><ele>511.0</ele><time>2026-04-25T08:54:15Z</time></trkpt><trkpt lat="45.888809508996" lon="8.788989740496149"><ele>511.0</ele><time>2026-04-25T08:54:16Z</time></trkpt><trkpt lat="45.888950868595366" lon="8.788882699282532"><ele>511.0</ele><time>2026-04-25T08:54:17Z</time></trkpt><trkpt lat="45.889089848874825" lon="8.788808041798493"><ele>511.0</ele><time>2026-04-25T08:54:18Z</time></trkpt><trkpt lat="45.88920940570908" lon="8.788726424967743"><ele>511.0</ele><time>2026-04-25T08:54:19Z</time></trkpt><trkpt lat="45.88931340555558" lon="8.788633784316636"><ele>511.75</ele><time>2026-04-25T08:54:20Z</time></trkpt><trkpt lat="45.88940774938797" lon="8.788518696347756"><ele>512.5</ele><time>2026-04-25T08:54:21Z</time></trkpt><trkpt lat="45.88948976845131" lon="8.78837606345641"><ele>513.25</ele><time>2026-04-25T08:54:22Z</time></trkpt><trkpt lat="45.88957754138357" lon="8.788218576384558"><ele>514.0</ele><time>2026-04-25T08:54:23Z</time></trkpt><trkpt lat="45.88966549051133" lon="8.788074482734437"><ele>512.5</ele><time>2026-04-25T08:54:24Z</time></trkpt><trkpt lat="45.88974269005018" lon="8.787929364784835"><ele>511.0</ele><time>2026-04-25T08:54:25Z</time></trkpt><trkpt lat="45.88981841579812" lon="8.787799675279135"><ele>509.5</ele><time>2026-04-25T08:54:26Z</time></trkpt><trkpt lat="45.889891958939515" lon="8.787664591835105"><ele>508.0</ele><time>2026-04-25T08:54:27Z</time></trkpt><trkpt lat="45.88998367932933" lon="8.78750279414882"><ele>507.0</ele><time>2026-04-25T08:54:28Z</time></trkpt><trkpt lat="45.890077595614116" lon="8.7873362452956"><ele>506.0</ele><time>2026-04-25T08:54:29Z</time></trkpt><trkpt lat="45.89016186029508" lon="8.787191560802679"><ele>505.0</ele><time>2026-04-25T08:54:30Z</time></trkpt><trkpt lat="45.89023680481368" lon="8.787070370972057"><ele>504.0</ele><time>2026-04-25T08:54:31Z</time></trkpt><trkpt lat="45.89031031230281" lon="8.78694429079373"><ele>506.0</ele><time>2026-04-25T08:54:32Z</time></trkpt><trkpt lat="45.89036645051745" lon="8.786812109766192"><ele>508.0</ele><time>2026-04-25T08:54:33Z</time></trkpt><trkpt lat="45.89040657581925" lon="8.786658127210979"><ele>510.0</ele><time>2026-04-25T08:54:34Z</time></trkpt><trkpt lat="45.890425449519725" lon="8.786440065927707"><ele>512.0</ele><time>2026-04-25T08:54:35Z</time></trkpt><trkpt lat="45.890455517201154" lon="8.78614450572006"><ele>510.0</ele><time>2026-04-25T08:54:36Z</time></trkpt><trkpt lat="45.89048766276669" lon="8.78583272660212"><ele>508.0</ele><time>2026-04-25T08:54:37Z</time></trkpt><trkpt lat="45.89053658620629" lon="8.785519293235902"><ele>506.0</ele><time>2026-04-25T08:54:38Z</time></trkpt><trkpt lat="45.89058200981356" lon="8.78519072928194"><ele>504.5</ele><time>2026-04-25T08:54:39Z</time></trkpt><trkpt lat="45.89063262467279" lon="8.784848560023157"><ele>503.0</ele><time>2026-04-25T08:54:40Z</time></trkpt><trkpt lat="45.8906853447047" lon="8.784506022782065"><ele>503.0</ele><time>2026-04-25T08:54:40.999Z</time></trkpt><trkpt lat="45.89073281582885" lon="8.784194215240555"><ele>503.0</ele><time>2026-04-25T08:54:41.999Z</time></trkpt><trkpt lat="45.890767877169715" lon="8.78394496686915"><ele>503.0</ele><time>2026-04-25T08:54:42.999Z</time></trkpt><trkpt lat="45.89078578195171" lon="8.783720192081867"><ele>504.66666666666663</ele><time>2026-04-25T08:54:43.999Z</time></trkpt><trkpt lat="45.8907602169535" lon="8.783495481217129"><ele>506.33333333333337</ele><time>2026-04-25T08:54:44.999Z</time></trkpt><trkpt lat="45.890701940220524" lon="8.78323759108819"><ele>508.0</ele><time>2026-04-25T08:54:45.999Z</time></trkpt><trkpt lat="45.89063634715388" lon="8.782974645408572"><ele>508.0</ele><time>2026-04-25T08:54:46.999Z</time></trkpt><trkpt lat="45.89058818545256" lon="8.78273434217137"><ele>508.0</ele><time>2026-04-25T08:54:47.999Z</time></trkpt><trkpt lat="45.89057848657348" lon="8.782531472659729"><ele>508.0</ele><time>2026-04-25T08:54:49Z</time></trkpt><trkpt lat="45.89058323926548" lon="8.782361416499349"><ele>508.0</ele><time>2026-04-25T08:54:50Z</time></trkpt><trkpt lat="45.89063199871833" lon="8.782168644109554"><ele>508.25</ele><time>2026-04-25T08:54:51Z</time></trkpt><trkpt lat="45.89068752562421" lon="8.781968525456747"><ele>508.5</ele><time>2026-04-25T08:54:52Z</time></trkpt><trkpt lat="45.89073805974072" lon="8.781777323354573"><ele>508.75</ele><time>2026-04-25T08:54:53Z</time></trkpt><trkpt lat="45.8908272706011" lon="8.781606433007726"><ele>509.0</ele><time>2026-04-25T08:54:54Z</time></trkpt><trkpt lat="45.890956367547446" lon="8.781485838990616"><ele>513.0</ele><time>2026-04-25T08:54:55Z</time></trkpt><trkpt lat="45.89108455205242" lon="8.781345186459372"><ele>517.0</ele><time>2026-04-25T08:54:56Z</time></trkpt><trkpt lat="45.891244848881286" lon="8.781243559892376"><ele>521.0</ele><time>2026-04-25T08:54:57Z</time></trkpt><trkpt lat="45.89142264452077" lon="8.781137739754543"><ele>521.0</ele><time>2026-04-25T08:54:58Z</time></trkpt><trkpt lat="45.8916075336459" lon="8.781024011491565"><ele>521.0</ele><time>2026-04-25T08:54:59Z</time></trkpt><trkpt lat="45.891778908377034" lon="8.780911154619654"><ele>521.0</ele><time>2026-04-25T08:55:00Z</time></trkpt><trkpt lat="45.891931781026926" lon="8.780811486883074"><ele>519.0</ele><time>2026-04-25T08:55:01Z</time></trkpt><trkpt lat="45.89207271191579" lon="8.780745620296958"><ele>517.0</ele><time>2026-04-25T08:55:02Z</time></trkpt><trkpt lat="45.89222570107773" lon="8.780723478458368"><ele>515.0</ele><time>2026-04-25T08:55:03Z</time></trkpt><trkpt lat="45.8923950655446" lon="8.780727974968515"><ele>515.0</ele><time>2026-04-25T08:55:04Z</time></trkpt><trkpt lat="45.892555243973085" lon="8.78074654472391"><ele>515.0</ele><time>2026-04-25T08:55:05Z</time></trkpt><trkpt lat="45.89270073962858" lon="8.780744150239423"><ele>515.0</ele><time>2026-04-25T08:55:06Z</time></trkpt><trkpt lat="45.892834541353636" lon="8.780715222328073"><ele>515.0</ele><time>2026-04-25T08:55:07Z</time></trkpt><trkpt lat="45.89296362530916" lon="8.780651224830294"><ele>516.0</ele><time>2026-04-25T08:55:08Z</time></trkpt><trkpt lat="45.893083803834706" lon="8.780529499989614"><ele>517.0</ele><time>2026-04-25T08:55:09Z</time></trkpt><trkpt lat="45.89318673823663" lon="8.780410178648957"><ele>518.0</ele><time>2026-04-25T08:55:10Z</time></trkpt><trkpt lat="45.89330665710141" lon="8.78034244189952"><ele>519.0</ele><time>2026-04-25T08:55:11Z</time></trkpt><trkpt lat="45.89345863514143" lon="8.780342913032811"><ele>521.0</ele><time>2026-04-25T08:55:12Z</time></trkpt><trkpt lat="45.89362650545572" lon="8.780328580870652"><ele>523.0</ele><time>2026-04-25T08:55:13Z</time></trkpt><trkpt lat="45.89378736136406" lon="8.780342670857651"><ele>525.0</ele><time>2026-04-25T08:55:14Z</time></trkpt><trkpt lat="45.893897192509385" lon="8.780295849249574"><ele>527.0</ele><time>2026-04-25T08:55:15Z</time></trkpt><trkpt lat="45.89399734769072" lon="8.780180951665725"><ele>520.0</ele><time>2026-04-25T08:55:16Z</time></trkpt><trkpt lat="45.894083521286646" lon="8.780018629364609"><ele>513.0</ele><time>2026-04-25T08:55:17Z</time></trkpt><trkpt lat="45.894160975588726" lon="8.77981291403351"><ele>506.0</ele><time>2026-04-25T08:55:18Z</time></trkpt><trkpt lat="45.89424996694578" lon="8.779617824030806"><ele>507.75</ele><time>2026-04-25T08:55:19Z</time></trkpt><trkpt lat="45.89434152387766" lon="8.779453666893387"><ele>509.5</ele><time>2026-04-25T08:55:20Z</time></trkpt><trkpt lat="45.8944317743781" lon="8.779301726506132"><ele>511.25</ele><time>2026-04-25T08:55:21Z</time></trkpt><trkpt lat="45.8945474654557" lon="8.77916100152647"><ele>513.0</ele><time>2026-04-25T08:55:22Z</time></trkpt><trkpt lat="45.89468437543515" lon="8.779017347725134"><ele>513.0</ele><time>2026-04-25T08:55:23Z</time></trkpt><trkpt lat="45.89483571193481" lon="8.778854543238891"><ele>513.0</ele><time>2026-04-25T08:55:24Z</time></trkpt><trkpt lat="45.89500922866637" lon="8.778695902815763"><ele>513.0</ele><time>2026-04-25T08:55:25Z</time></trkpt><trkpt lat="45.895203334702614" lon="8.778521064274651"><ele>511.0</ele><time>2026-04-25T08:55:26Z</time></trkpt><trkpt lat="45.89540832792229" lon="8.778333963872461"><ele>509.0</ele><time>2026-04-25T08:55:27Z</time></trkpt><trkpt lat="45.89562214959519" lon="8.778142211503704"><ele>509.0</ele><time>2026-04-25T08:55:28Z</time></trkpt><trkpt lat="45.89580952500626" lon="8.777944795618179"><ele>509.0</ele><time>2026-04-25T08:55:29Z</time></trkpt><trkpt lat="45.895994406440266" lon="8.777798356055074"><ele>509.0</ele><time>2026-04-25T08:55:30Z</time></trkpt><trkpt lat="45.896157421149354" lon="8.777650627737628"><ele>510.0</ele><time>2026-04-25T08:55:31Z</time></trkpt><trkpt lat="45.896306873507044" lon="8.777510161995389"><ele>511.0</ele><time>2026-04-25T08:55:32Z</time></trkpt><trkpt lat="45.89645395426763" lon="8.777387209881214"><ele>512.0</ele><time>2026-04-25T08:55:33Z</time></trkpt><trkpt lat="45.89659880500267" lon="8.777304245552134"><ele>512.0</ele><time>2026-04-25T08:55:34Z</time></trkpt><trkpt lat="45.89674360269266" lon="8.777251616920498"><ele>512.0</ele><time>2026-04-25T08:55:35Z</time></trkpt><trkpt lat="45.896880736542656" lon="8.777225183128955"><ele>512.0</ele><time>2026-04-25T08:55:36Z</time></trkpt><trkpt lat="45.89700388506424" lon="8.77724016757417"><ele>512.0</ele><time>2026-04-25T08:55:37Z</time></trkpt><trkpt lat="45.89710320269526" lon="8.777343961737479"><ele>510.0</ele><time>2026-04-25T08:55:38Z</time></trkpt><trkpt lat="45.897202468566014" lon="8.777481231272803"><ele>508.0</ele><time>2026-04-25T08:55:39Z</time></trkpt><trkpt lat="45.89733353472597" lon="8.777645076269152"><ele>506.0</ele><time>2026-04-25T08:55:40Z</time></trkpt><trkpt lat="45.89745859687134" lon="8.777803527854584"><ele>508.3333333333333</ele><time>2026-04-25T08:55:41Z</time></trkpt><trkpt lat="45.89758445504497" lon="8.777919684320475"><ele>510.66666666666663</ele><time>2026-04-25T08:55:42Z</time></trkpt><trkpt lat="45.89773725780615" lon="8.777971013931786"><ele>513.0</ele><time>2026-04-25T08:55:43Z</time></trkpt><trkpt lat="45.89790773810662" lon="8.777990115236605"><ele>513.0</ele><time>2026-04-25T08:55:44Z</time></trkpt><trkpt lat="45.89810133834993" lon="8.777960502586858"><ele>513.0</ele><time>2026-04-25T08:55:45Z</time></trkpt><trkpt lat="45.89829283556499" lon="8.777919879002924"><ele>513.0</ele><time>2026-04-25T08:55:46Z</time></trkpt><trkpt lat="45.89845418407104" lon="8.777884244751617"><ele>506.75</ele><time>2026-04-25T08:55:47Z</time></trkpt><trkpt lat="45.89858107360358" lon="8.777866365875326"><ele>500.5</ele><time>2026-04-25T08:55:48Z</time></trkpt><trkpt lat="45.89869698873628" lon="8.77788004501693"><ele>494.25</ele><time>2026-04-25T08:55:49Z</time></trkpt><trkpt lat="45.89879898755513" lon="8.777959172366183"><ele>488.0</ele><time>2026-04-25T08:55:50Z</time></trkpt><trkpt lat="45.89887257189921" lon="8.778085294134728"><ele>488.0</ele><time>2026-04-25T08:55:51Z</time></trkpt><trkpt lat="45.89892025308894" lon="8.778262254350109"><ele>488.0</ele><time>2026-04-25T08:55:52Z</time></trkpt><trkpt lat="45.89897923466603" lon="8.778485286737917"><ele>488.0</ele><time>2026-04-25T08:55:53Z</time></trkpt><trkpt lat="45.899036778074866" lon="8.778736216523749"><ele>488.0</ele><time>2026-04-25T08:55:54Z</time></trkpt><trkpt lat="45.89910579782417" lon="8.778966755231036"><ele>488.0</ele><time>2026-04-25T08:55:55Z</time></trkpt><trkpt lat="45.89918347691943" lon="8.77917454516325"><ele>488.0</ele><time>2026-04-25T08:55:56Z</time></trkpt><trkpt lat="45.8992993579968" lon="8.779376091706235"><ele>488.0</ele><time>2026-04-25T08:55:57Z</time></trkpt><trkpt lat="45.89945031007483" lon="8.779596146623028"><ele>488.0</ele><time>2026-04-25T08:55:58Z</time></trkpt><trkpt lat="45.89962408193359" lon="8.779823252603594"><ele>488.0</ele><time>2026-04-25T08:55:59Z</time></trkpt><trkpt lat="45.89979396709217" lon="8.780041763571575"><ele>488.0</ele><time>2026-04-25T08:56:00Z</time></trkpt><trkpt lat="45.89996229735554" lon="8.780248452968678"><ele>488.0</ele><time>2026-04-25T08:56:01Z</time></trkpt><trkpt lat="45.900103708603275" lon="8.78043274397532"><ele>484.3333333333333</ele><time>2026-04-25T08:56:02Z</time></trkpt><trkpt lat="45.90020590140186" lon="8.780618251196032"><ele>480.66666666666663</ele><time>2026-04-25T08:56:03Z</time></trkpt><trkpt lat="45.9003155931921" lon="8.7807852906537"><ele>477.0</ele><time>2026-04-25T08:56:04Z</time></trkpt><trkpt lat="45.90045257746454" lon="8.780898166784871"><ele>477.0</ele><time>2026-04-25T08:56:05Z</time></trkpt><trkpt lat="45.900599274494176" lon="8.781008218599544"><ele>477.0</ele><time>2026-04-25T08:56:06Z</time></trkpt><trkpt lat="45.90074328772037" lon="8.781129063862071"><ele>477.0</ele><time>2026-04-25T08:56:07Z</time></trkpt><trkpt lat="45.90086873794677" lon="8.781274775151479"><ele>472.6</ele><time>2026-04-25T08:56:08Z</time></trkpt><trkpt lat="45.9009723485994" lon="8.78139372261752"><ele>468.20000000000005</ele><time>2026-04-25T08:56:09Z</time></trkpt><trkpt lat="45.90103246388102" lon="8.781501345448048"><ele>463.8</ele><time>2026-04-25T08:56:10Z</time></trkpt><trkpt lat="45.90108833810702" lon="8.781589871181962"><ele>459.4</ele><time>2026-04-25T08:56:11Z</time></trkpt><trkpt lat="45.901091802702396" lon="8.78171882413412"><ele>455.0</ele><time>2026-04-25T08:56:12Z</time></trkpt><trkpt lat="45.9010489026406" lon="8.781839350847973"><ele>460.25</ele><time>2026-04-25T08:56:13Z</time></trkpt><trkpt lat="45.90097721772018" lon="8.781982019276365"><ele>465.5</ele><time>2026-04-25T08:56:14Z</time></trkpt><trkpt lat="45.90091645141658" lon="8.782176068545716"><ele>470.75</ele><time>2026-04-25T08:56:15Z</time></trkpt><trkpt lat="45.90085975975957" lon="8.782315033636003"><ele>476.0</ele><time>2026-04-25T08:56:16Z</time></trkpt><trkpt lat="45.90082233302257" lon="8.782412777686963"><ele>476.0</ele><time>2026-04-25T08:56:17Z</time></trkpt><trkpt lat="45.90081097407876" lon="8.782512574723885"><ele>476.0</ele><time>2026-04-25T08:56:18Z</time></trkpt><trkpt lat="45.90084766605773" lon="8.78261767431394"><ele>476.0</ele><time>2026-04-25T08:56:19Z</time></trkpt><trkpt lat="45.90092688458003" lon="8.782660711607097"><ele>476.0</ele><time>2026-04-25T08:56:20Z</time></trkpt><trkpt lat="45.90103160248263" lon="8.782642238618344"><ele>476.0</ele><time>2026-04-25T08:56:21Z</time></trkpt><trkpt lat="45.90119956970913" lon="8.78257771929432"><ele>476.0</ele><time>2026-04-25T08:56:22Z</time></trkpt><trkpt lat="45.901323550465065" lon="8.782554041244666"><ele>476.0</ele><time>2026-04-25T08:56:23Z</time></trkpt><trkpt lat="45.90143793276162" lon="8.782583576247076"><ele>476.0</ele><time>2026-04-25T08:56:24Z</time></trkpt><trkpt lat="45.901547443453545" lon="8.782665690469237"><ele>476.0</ele><time>2026-04-25T08:56:25Z</time></trkpt><trkpt lat="45.9016984481079" lon="8.782797916045444"><ele>476.3333333333333</ele><time>2026-04-25T08:56:26Z</time></trkpt><trkpt lat="45.90188052251596" lon="8.782935603962267"><ele>476.66666666666663</ele><time>2026-04-25T08:56:27Z</time></trkpt><trkpt lat="45.902086354676" lon="8.783060292883336"><ele>477.0</ele><time>2026-04-25T08:56:28Z</time></trkpt><trkpt lat="45.90229868553807" lon="8.78318773352573"><ele>477.0</ele><time>2026-04-25T08:56:29Z</time></trkpt><trkpt lat="45.902453171290006" lon="8.78328814014007"><ele>477.0</ele><time>2026-04-25T08:56:30Z</time></trkpt><trkpt lat="45.90258906668142" lon="8.78340105424876"><ele>477.0</ele><time>2026-04-25T08:56:31Z</time></trkpt><trkpt lat="45.90273404591881" lon="8.783564684514076"><ele>475.66666666666663</ele><time>2026-04-25T08:56:32Z</time></trkpt><trkpt lat="45.902878708722724" lon="8.783736566743645"><ele>474.3333333333333</ele><time>2026-04-25T08:56:33Z</time></trkpt><trkpt lat="45.90304189904927" lon="8.783958841210211"><ele>473.0</ele><time>2026-04-25T08:56:34Z</time></trkpt><trkpt lat="45.903198570822056" lon="8.784184663084842"><ele>473.0</ele><time>2026-04-25T08:56:35Z</time></trkpt><trkpt lat="45.90333782627129" lon="8.78438880811329"><ele>473.0</ele><time>2026-04-25T08:56:36Z</time></trkpt><trkpt lat="45.90349949422303" lon="8.78461460286907"><ele>473.0</ele><time>2026-04-25T08:56:37Z</time></trkpt><trkpt lat="45.903655387420805" lon="8.784805035789226"><ele>473.0</ele><time>2026-04-25T08:56:38Z</time></trkpt><trkpt lat="45.903791947197504" lon="8.784979743160829"><ele>473.0</ele><time>2026-04-25T08:56:39Z</time></trkpt><trkpt lat="45.90390430878263" lon="8.785111974625046"><ele>473.0</ele><time>2026-04-25T08:56:40Z</time></trkpt><trkpt lat="45.90402113348168" lon="8.785225149747543"><ele>474.25</ele><time>2026-04-25T08:56:41Z</time></trkpt><trkpt lat="45.90415341607016" lon="8.785300313266706"><ele>475.5</ele><time>2026-04-25T08:56:42Z</time></trkpt><trkpt lat="45.90428844918419" lon="8.785315653455438"><ele>476.75</ele><time>2026-04-25T08:56:42.999Z</time></trkpt><trkpt lat="45.90443185960663" lon="8.785309582841073"><ele>478.0</ele><time>2026-04-25T08:56:43.999Z</time></trkpt><trkpt lat="45.904589435491616" lon="8.78527686351913"><ele>474.33333333333337</ele><time>2026-04-25T08:56:44.999Z</time></trkpt><trkpt lat="45.90477205160607" lon="8.7852324129806"><ele>470.66666666666663</ele><time>2026-04-25T08:56:45.999Z</time></trkpt><trkpt lat="45.90494863564931" lon="8.785203582131876"><ele>467.0</ele><time>2026-04-25T08:56:46.999Z</time></trkpt><trkpt lat="45.90513313777209" lon="8.785175628074755"><ele>466.3333333333333</ele><time>2026-04-25T08:56:47.999Z</time></trkpt><trkpt lat="45.90531109473647" lon="8.785148494953134"><ele>465.66666666666663</ele><time>2026-04-25T08:56:48.999Z</time></trkpt><trkpt lat="45.90548551825117" lon="8.785126936403687"><ele>465.0</ele><time>2026-04-25T08:56:49.999Z</time></trkpt><trkpt lat="45.90565454419115" lon="8.785131056036128"><ele>465.0</ele><time>2026-04-25T08:56:50.999Z</time></trkpt><trkpt lat="45.9058169747837" lon="8.785169619051485"><ele>465.0</ele><time>2026-04-25T08:56:51.999Z</time></trkpt><trkpt lat="45.90596560977383" lon="8.785228969684892"><ele>465.0</ele><time>2026-04-25T08:56:52.999Z</time></trkpt><trkpt lat="45.90610120331683" lon="8.785276217068942"><ele>462.75</ele><time>2026-04-25T08:56:54Z</time></trkpt><trkpt lat="45.90622718285155" lon="8.785296427045628"><ele>460.5</ele><time>2026-04-25T08:56:55Z</time></trkpt><trkpt lat="45.90634597486252" lon="8.785299536493808"><ele>458.25</ele><time>2026-04-25T08:56:56Z</time></trkpt><trkpt lat="45.90644467781716" lon="8.785241705691606"><ele>456.0</ele><time>2026-04-25T08:56:57Z</time></trkpt><trkpt lat="45.90651992918731" lon="8.785132712203396"><ele>455.75</ele><time>2026-04-25T08:56:58Z</time></trkpt><trkpt lat="45.90654260335302" lon="8.784992798097639"><ele>455.5</ele><time>2026-04-25T08:56:59Z</time></trkpt><trkpt lat="45.90655916448799" lon="8.78482459449729"><ele>455.25</ele><time>2026-04-25T08:57:00Z</time></trkpt><trkpt lat="45.90656473415471" lon="8.78463158951167"><ele>455.0</ele><time>2026-04-25T08:57:01Z</time></trkpt><trkpt lat="45.906552855818866" lon="8.784423280759135"><ele>455.5</ele><time>2026-04-25T08:57:02Z</time></trkpt><trkpt lat="45.90652415955005" lon="8.784226226830295"><ele>456.0</ele><time>2026-04-25T08:57:03Z</time></trkpt><trkpt lat="45.9064772994241" lon="8.784048217504473"><ele>456.5</ele><time>2026-04-25T08:57:04Z</time></trkpt><trkpt lat="45.90640424477752" lon="8.783871418376634"><ele>457.0</ele><time>2026-04-25T08:57:05Z</time></trkpt><trkpt lat="45.906302041754365" lon="8.783697237816279"><ele>457.0</ele><time>2026-04-25T08:57:06Z</time></trkpt><trkpt lat="45.90618890340492" lon="8.783526479916551"><ele>457.0</ele><time>2026-04-25T08:57:07Z</time></trkpt><trkpt lat="45.90609631406963" lon="8.783365747171125"><ele>457.0</ele><time>2026-04-25T08:57:08Z</time></trkpt><trkpt lat="45.90603049485968" lon="8.783197455611708"><ele>457.0</ele><time>2026-04-25T08:57:09Z</time></trkpt><trkpt lat="45.90596813258181" lon="8.783064793692683"><ele>456.0</ele><time>2026-04-25T08:57:10Z</time></trkpt><trkpt lat="45.90589841821846" lon="8.782976397149767"><ele>455.00000000000006</ele><time>2026-04-25T08:57:11Z</time></trkpt><trkpt lat="45.90580547600597" lon="8.78290315642031"><ele>454.00000000000006</ele><time>2026-04-25T08:57:12Z</time></trkpt><trkpt lat="45.90570005723642" lon="8.782891661275098"><ele>453.0</ele><time>2026-04-25T08:57:13Z</time></trkpt><trkpt lat="45.90559842384276" lon="8.782974361083332"><ele>452.0</ele><time>2026-04-25T08:57:14Z</time></trkpt><trkpt lat="45.905507279443" lon="8.783052949832728"><ele>452.0</ele><time>2026-04-25T08:57:15Z</time></trkpt><trkpt lat="45.90541120210346" lon="8.783107510995519"><ele>452.0</ele><time>2026-04-25T08:57:16Z</time></trkpt><trkpt lat="45.90530739574717" lon="8.783090662578314"><ele>452.0</ele><time>2026-04-25T08:57:17Z</time></trkpt><trkpt lat="45.90520648897623" lon="8.78300456685994"><ele>452.0</ele><time>2026-04-25T08:57:18Z</time></trkpt><trkpt lat="45.905117678998984" lon="8.782863523016474"><ele>453.5</ele><time>2026-04-25T08:57:19Z</time></trkpt><trkpt lat="45.905034363043484" lon="8.782729777535986"><ele>455.0</ele><time>2026-04-25T08:57:20Z</time></trkpt><trkpt lat="45.90492667301547" lon="8.78264621002874"><ele>456.5</ele><time>2026-04-25T08:57:21Z</time></trkpt><trkpt lat="45.904800196748184" lon="8.7825920989274"><ele>458.0</ele><time>2026-04-25T08:57:22Z</time></trkpt><trkpt lat="45.90468471388184" lon="8.782554272722978"><ele>453.59999999999997</ele><time>2026-04-25T08:57:23Z</time></trkpt><trkpt lat="45.904604516328774" lon="8.782528633533436"><ele>449.19999999999993</ele><time>2026-04-25T08:57:24Z</time></trkpt><trkpt lat="45.90450314889985" lon="8.782443833854426"><ele>444.8</ele><time>2026-04-25T08:57:26Z</time></trkpt><trkpt lat="45.90450162042784" lon="8.782284192281587"><ele>440.4</ele><time>2026-04-25T08:57:28Z</time></trkpt><trkpt lat="45.90455764067852" lon="8.782223827848492"><ele>436.0</ele><time>2026-04-25T08:57:29Z</time></trkpt><trkpt lat="45.904632525125365" lon="8.7822364373766"><ele>436.0</ele><time>2026-04-25T08:57:30Z</time></trkpt><trkpt lat="45.90468890122527" lon="8.78234203391282"><ele>436.0</ele><time>2026-04-25T08:57:31Z</time></trkpt><trkpt lat="45.904782702915064" lon="8.782400816401234"><ele>436.0</ele><time>2026-04-25T08:57:32Z</time></trkpt><trkpt lat="45.90488287798697" lon="8.782446006376684"><ele>436.0</ele><time>2026-04-25T08:57:33Z</time></trkpt><trkpt lat="45.904992076955196" lon="8.782472451223777"><ele>436.0</ele><time>2026-04-25T08:57:34Z</time></trkpt><trkpt lat="45.905097669632646" lon="8.782527872424966"><ele>435.75</ele><time>2026-04-25T08:57:35Z</time></trkpt><trkpt lat="45.90519577269967" lon="8.782545998046695"><ele>435.5</ele><time>2026-04-25T08:57:36Z</time></trkpt><trkpt lat="45.90530773543386" lon="8.782529642936403"><ele>435.25</ele><time>2026-04-25T08:57:37Z</time></trkpt><trkpt lat="45.90544084009716" lon="8.782445985614634"><ele>435.0</ele><time>2026-04-25T08:57:38Z</time></trkpt><trkpt lat="45.905572039851165" lon="8.782323989410884"><ele>435.0</ele><time>2026-04-25T08:57:39Z</time></trkpt><trkpt lat="45.905731510702715" lon="8.782260200850178"><ele>435.0</ele><time>2026-04-25T08:57:40Z</time></trkpt><trkpt lat="45.90588779095562" lon="8.78224393477661"><ele>435.0</ele><time>2026-04-25T08:57:41Z</time></trkpt><trkpt lat="45.90601220968486" lon="8.782236848943214"><ele>435.0</ele><time>2026-04-25T08:57:42Z</time></trkpt><trkpt lat="45.9060945028667" lon="8.782164358918571"><ele>436.0</ele><time>2026-04-25T08:57:43Z</time></trkpt><trkpt lat="45.9061890448224" lon="8.78191175904032"><ele>437.0</ele><time>2026-04-25T08:57:44Z</time></trkpt><trkpt lat="45.90622683928827" lon="8.781736568355447"><ele>438.0</ele><time>2026-04-25T08:57:45Z</time></trkpt><trkpt lat="45.90623664836166" lon="8.78154611912688"><ele>438.0</ele><time>2026-04-25T08:57:46Z</time></trkpt><trkpt lat="45.90621721384978" lon="8.781374153448553"><ele>437.99999999999994</ele><time>2026-04-25T08:57:47Z</time></trkpt><trkpt lat="45.90621335291477" lon="8.781252773226313"><ele>437.99999999999994</ele><time>2026-04-25T08:57:48Z</time></trkpt><trkpt lat="45.90624895653842" lon="8.781161389636548"><ele>438.0</ele><time>2026-04-25T08:57:49Z</time></trkpt><trkpt lat="45.90634118585198" lon="8.78115057502818"><ele>438.0</ele><time>2026-04-25T08:57:50Z</time></trkpt><trkpt lat="45.90644931252909" lon="8.781142381493924"><ele>438.0</ele><time>2026-04-25T08:57:51Z</time></trkpt><trkpt lat="45.906574696618875" lon="8.781054572303207"><ele>438.0</ele><time>2026-04-25T08:57:52Z</time></trkpt><trkpt lat="45.90671347035725" lon="8.781049334241436"><ele>438.0</ele><time>2026-04-25T08:57:53Z</time></trkpt><trkpt lat="45.90682327588121" lon="8.780947903760074"><ele>438.0</ele><time>2026-04-25T08:57:54Z</time></trkpt><trkpt lat="45.906901911102594" lon="8.780748637378927"><ele>439.0</ele><time>2026-04-25T08:57:55Z</time></trkpt><trkpt lat="45.906978180160905" lon="8.78051232523314"><ele>440.0</ele><time>2026-04-25T08:57:56Z</time></trkpt><trkpt lat="45.90704066950258" lon="8.780282247431561"><ele>441.0</ele><time>2026-04-25T08:57:57Z</time></trkpt><trkpt lat="45.907102854298586" lon="8.780074397526873"><ele>436.75</ele><time>2026-04-25T08:57:58Z</time></trkpt><trkpt lat="45.9071504310751" lon="8.77987065978896"><ele>432.5</ele><time>2026-04-25T08:57:59Z</time></trkpt><trkpt lat="45.9071671389093" lon="8.779694570483937"><ele>428.25</ele><time>2026-04-25T08:58:00Z</time></trkpt><trkpt lat="45.90720452875987" lon="8.779567655338774"><ele>424.0</ele><time>2026-04-25T08:58:01Z</time></trkpt><trkpt lat="45.90731040680438" lon="8.77941060282949"><ele>424.0</ele><time>2026-04-25T08:58:03Z</time></trkpt><trkpt lat="45.90741572099537" lon="8.779405815153542"><ele>424.0</ele><time>2026-04-25T08:58:04Z</time></trkpt><trkpt lat="45.90751676593171" lon="8.779341637712145"><ele>424.0</ele><time>2026-04-25T08:58:05Z</time></trkpt><trkpt lat="45.90761078025298" lon="8.779259536310184"><ele>424.0</ele><time>2026-04-25T08:58:06Z</time></trkpt><trkpt lat="45.90767002041741" lon="8.779067785158366"><ele>423.0</ele><time>2026-04-25T08:58:07Z</time></trkpt><trkpt lat="45.907721289176315" lon="8.778909911952201"><ele>422.0</ele><time>2026-04-25T08:58:08Z</time></trkpt><trkpt lat="45.90778498352073" lon="8.778784159073828"><ele>421.0</ele><time>2026-04-25T08:58:09Z</time></trkpt><trkpt lat="45.907868015193294" lon="8.77874210253933"><ele>420.0</ele><time>2026-04-25T08:58:10Z</time></trkpt><trkpt lat="45.9079829926155" lon="8.778795349654438"><ele>419.0</ele><time>2026-04-25T08:58:11Z</time></trkpt><trkpt lat="45.908097282025366" lon="8.77878592132416"><ele>419.0</ele><time>2026-04-25T08:58:12Z</time></trkpt><trkpt lat="45.9081572760508" lon="8.778707455834859"><ele>419.0</ele><time>2026-04-25T08:58:13Z</time></trkpt><trkpt lat="45.90819999909231" lon="8.778582469542785"><ele>419.0</ele><time>2026-04-25T08:58:14Z</time></trkpt><trkpt lat="45.90820520156769" lon="8.778418545462578"><ele>419.0</ele><time>2026-04-25T08:58:15Z</time></trkpt><trkpt lat="45.90820291012643" lon="8.778259037387244"><ele>419.0</ele><time>2026-04-25T08:58:16Z</time></trkpt><trkpt lat="45.90824518208375" lon="8.778128828439078"><ele>415.25</ele><time>2026-04-25T08:58:17Z</time></trkpt><trkpt lat="45.908309713383765" lon="8.778053182755745"><ele>411.5</ele><time>2026-04-25T08:58:18Z</time></trkpt><trkpt lat="45.90840517646036" lon="8.777961376999764"><ele>407.75</ele><time>2026-04-25T08:58:19Z</time></trkpt><trkpt lat="45.90853175421537" lon="8.777945835931757"><ele>404.0</ele><time>2026-04-25T08:58:20Z</time></trkpt><trkpt lat="45.90866992315824" lon="8.777966237127522"><ele>402.75</ele><time>2026-04-25T08:58:21Z</time></trkpt><trkpt lat="45.908805556115475" lon="8.778051583770916"><ele>401.5</ele><time>2026-04-25T08:58:22Z</time></trkpt><trkpt lat="45.90890932467088" lon="8.778174825008797"><ele>400.25</ele><time>2026-04-25T08:58:23Z</time></trkpt><trkpt lat="45.909018538902934" lon="8.778302589859313"><ele>399.0</ele><time>2026-04-25T08:58:24Z</time></trkpt><trkpt lat="45.909151878351366" lon="8.778403021348273"><ele>394.25</ele><time>2026-04-25T08:58:25Z</time></trkpt><trkpt lat="45.90927250917718" lon="8.778494838003377"><ele>389.5</ele><time>2026-04-25T08:58:26Z</time></trkpt><trkpt lat="45.90939362225145" lon="8.778553040662066"><ele>384.75</ele><time>2026-04-25T08:58:27Z</time></trkpt><trkpt lat="45.909508203339755" lon="8.778589443030347"><ele>380.0</ele><time>2026-04-25T08:58:28Z</time></trkpt><trkpt lat="45.90961835151863" lon="8.778630010612934"><ele>380.0</ele><time>2026-04-25T08:58:29Z</time></trkpt><trkpt lat="45.90969406215419" lon="8.778721707466266"><ele>380.0</ele><time>2026-04-25T08:58:30Z</time></trkpt><trkpt lat="45.909757455933665" lon="8.77883446618172"><ele>380.0</ele><time>2026-04-25T08:58:31Z</time></trkpt><trkpt lat="45.90980156425256" lon="8.778978755007099"><ele>380.0</ele><time>2026-04-25T08:58:32Z</time></trkpt><trkpt lat="45.90981498627763" lon="8.77916194170153"><ele>380.0</ele><time>2026-04-25T08:58:33Z</time></trkpt><trkpt lat="45.90984109633742" lon="8.779376670932203"><ele>383.5</ele><time>2026-04-25T08:58:34Z</time></trkpt><trkpt lat="45.90990064242877" lon="8.779592213446715"><ele>387.0</ele><time>2026-04-25T08:58:35Z</time></trkpt><trkpt lat="45.90996656351287" lon="8.779715492415647"><ele>390.5</ele><time>2026-04-25T08:58:36Z</time></trkpt><trkpt lat="45.910045040645585" lon="8.779851055758535"><ele>394.0</ele><time>2026-04-25T08:58:37Z</time></trkpt><trkpt lat="45.910151382166845" lon="8.779967711860293"><ele>387.75</ele><time>2026-04-25T08:58:38Z</time></trkpt><trkpt lat="45.91021725606865" lon="8.780122905369621"><ele>381.5</ele><time>2026-04-25T08:58:39Z</time></trkpt><trkpt lat="45.91024244134895" lon="8.78028591541356"><ele>375.25</ele><time>2026-04-25T08:58:40Z</time></trkpt><trkpt lat="45.910221533534965" lon="8.780435978265123"><ele>369.0</ele><time>2026-04-25T08:58:41Z</time></trkpt><trkpt lat="45.910210576906316" lon="8.780598837310169"><ele>369.0</ele><time>2026-04-25T08:58:42Z</time></trkpt><trkpt lat="45.91020303195786" lon="8.78077322532501"><ele>369.0</ele><time>2026-04-25T08:58:43Z</time></trkpt><trkpt lat="45.910206147155115" lon="8.780952383253437"><ele>369.0</ele><time>2026-04-25T08:58:44Z</time></trkpt><trkpt lat="45.91026606762663" lon="8.781109924743438"><ele>369.0</ele><time>2026-04-25T08:58:45Z</time></trkpt><trkpt lat="45.91032659135142" lon="8.781236877836015"><ele>370.75</ele><time>2026-04-25T08:58:46Z</time></trkpt><trkpt lat="45.91043640343681" lon="8.781329804166575"><ele>372.5</ele><time>2026-04-25T08:58:47Z</time></trkpt><trkpt lat="45.9105699405132" lon="8.78139013740357"><ele>374.25</ele><time>2026-04-25T08:58:48Z</time></trkpt><trkpt lat="45.91066065160419" lon="8.781533311317347"><ele>376.0</ele><time>2026-04-25T08:58:49Z</time></trkpt><trkpt lat="45.91076486433313" lon="8.781662043986756"><ele>376.0</ele><time>2026-04-25T08:58:50Z</time></trkpt><trkpt lat="45.91086346085391" lon="8.781751482294206"><ele>376.0</ele><time>2026-04-25T08:58:51Z</time></trkpt><trkpt lat="45.910968200895994" lon="8.781780029508566"><ele>376.0</ele><time>2026-04-25T08:58:52Z</time></trkpt><trkpt lat="45.91108071036947" lon="8.781732390482409"><ele>376.0</ele><time>2026-04-25T08:58:53Z</time></trkpt><trkpt lat="45.911170796457284" lon="8.781623683902213"><ele>372.5</ele><time>2026-04-25T08:58:54Z</time></trkpt><trkpt lat="45.91124438079957" lon="8.78145360540792"><ele>369.0</ele><time>2026-04-25T08:58:55Z</time></trkpt><trkpt lat="45.91128514525725" lon="8.781255346546178"><ele>365.5</ele><time>2026-04-25T08:58:56Z</time></trkpt><trkpt lat="45.91132157563205" lon="8.781074832227471"><ele>362.0</ele><time>2026-04-25T08:58:57Z</time></trkpt><trkpt lat="45.91132936443228" lon="8.780896384462872"><ele>362.0</ele><time>2026-04-25T08:58:57.999Z</time></trkpt><trkpt lat="45.91132308702786" lon="8.780739583501697"><ele>362.0</ele><time>2026-04-25T08:58:59.001Z</time></trkpt><trkpt lat="45.9111952054392" lon="8.780613650110737"><ele>362.0</ele><time>2026-04-25T08:59:00.001Z</time></trkpt><trkpt lat="45.91110830738223" lon="8.780514741406966"><ele>362.0</ele><time>2026-04-25T08:59:01Z</time></trkpt><trkpt lat="45.91106160534876" lon="8.780369349793338"><ele>362.25</ele><time>2026-04-25T08:59:02Z</time></trkpt><trkpt lat="45.9110663193564" lon="8.78017152722432"><ele>362.5</ele><time>2026-04-25T08:59:03Z</time></trkpt><trkpt lat="45.91104909793751" lon="8.779945470813201"><ele>362.75</ele><time>2026-04-25T08:59:04Z</time></trkpt><trkpt lat="45.911058774089845" lon="8.779765119969708"><ele>363.0</ele><time>2026-04-25T08:59:05Z</time></trkpt><trkpt lat="45.911028380641135" lon="8.779590982309273"><ele>363.0</ele><time>2026-04-25T08:59:06Z</time></trkpt><trkpt lat="45.910977462866455" lon="8.779424434734414"><ele>363.0</ele><time>2026-04-25T08:59:07Z</time></trkpt><trkpt lat="45.910891160766624" lon="8.779267874078073"><ele>363.0</ele><time>2026-04-25T08:59:08Z</time></trkpt><trkpt lat="45.91078362669131" lon="8.779125995396962"><ele>363.0</ele><time>2026-04-25T08:59:09Z</time></trkpt><trkpt lat="45.910701557988794" lon="8.779000632865415"><ele>362.0</ele><time>2026-04-25T08:59:10Z</time></trkpt><trkpt lat="45.91065302650019" lon="8.778820486380889"><ele>361.0</ele><time>2026-04-25T08:59:11Z</time></trkpt><trkpt lat="45.91062901330213" lon="8.778654398739198"><ele>360.0</ele><time>2026-04-25T08:59:12Z</time></trkpt><trkpt lat="45.910592743146665" lon="8.778445696348113"><ele>359.0</ele><time>2026-04-25T08:59:13Z</time></trkpt><trkpt lat="45.910580522577305" lon="8.77825259763533"><ele>359.0</ele><time>2026-04-25T08:59:14Z</time></trkpt><trkpt lat="45.91055543723803" lon="8.778049495815619"><ele>359.0</ele><time>2026-04-25T08:59:15Z</time></trkpt><trkpt lat="45.9105308836146" lon="8.77783376100453"><ele>359.0</ele><time>2026-04-25T08:59:16Z</time></trkpt><trkpt lat="45.91052023918688" lon="8.777588077878702"><ele>359.33333333333337</ele><time>2026-04-25T08:59:17Z</time></trkpt><trkpt lat="45.91050995933387" lon="8.7773010249786"><ele>359.6666666666667</ele><time>2026-04-25T08:59:18Z</time></trkpt><trkpt lat="45.91049306732032" lon="8.776988333269012"><ele>360.0</ele><time>2026-04-25T08:59:19Z</time></trkpt><trkpt lat="45.91047612880117" lon="8.776688298964087"><ele>360.0</ele><time>2026-04-25T08:59:20Z</time></trkpt><trkpt lat="45.9104641843666" lon="8.776432745910302"><ele>360.0</ele><time>2026-04-25T08:59:21Z</time></trkpt><trkpt lat="45.91045387555921" lon="8.776196618865997"><ele>360.0</ele><time>2026-04-25T08:59:22Z</time></trkpt><trkpt lat="45.91045429136594" lon="8.775998101164154"><ele>357.25</ele><time>2026-04-25T08:59:23Z</time></trkpt><trkpt lat="45.9104700551898" lon="8.775811762525661"><ele>354.5</ele><time>2026-04-25T08:59:24Z</time></trkpt><trkpt lat="45.91052962945886" lon="8.77563258882441"><ele>351.75</ele><time>2026-04-25T08:59:25Z</time></trkpt><trkpt lat="45.91062362006315" lon="8.775475805294231"><ele>349.0</ele><time>2026-04-25T08:59:26Z</time></trkpt><trkpt lat="45.910741416379274" lon="8.775334576982743"><ele>349.0</ele><time>2026-04-25T08:59:27Z</time></trkpt><trkpt lat="45.91087729459083" lon="8.775243192431436"><ele>349.0</ele><time>2026-04-25T08:59:28Z</time></trkpt><trkpt lat="45.911024412670024" lon="8.775233208734567"><ele>349.0</ele><time>2026-04-25T08:59:29Z</time></trkpt><trkpt lat="45.911160618399144" lon="8.775223053043362"><ele>349.0</ele><time>2026-04-25T08:59:30Z</time></trkpt><trkpt lat="45.9112737823229" lon="8.775225686412249"><ele>344.79999999999995</ele><time>2026-04-25T08:59:31Z</time></trkpt><trkpt lat="45.91136253510158" lon="8.775185688919388"><ele>340.59999999999997</ele><time>2026-04-25T08:59:32Z</time></trkpt><trkpt lat="45.911428605644694" lon="8.775060097335945"><ele>336.4</ele><time>2026-04-25T08:59:33Z</time></trkpt><trkpt lat="45.9114581549524" lon="8.774887834384618"><ele>332.2</ele><time>2026-04-25T08:59:34Z</time></trkpt><trkpt lat="45.911467078404726" lon="8.774726409187467"><ele>328.0</ele><time>2026-04-25T08:59:35Z</time></trkpt><trkpt lat="45.91146256065408" lon="8.774581809865762"><ele>328.0</ele><time>2026-04-25T08:59:36Z</time></trkpt><trkpt lat="45.91146454539111" lon="8.774467854767925"><ele>328.0</ele><time>2026-04-25T08:59:37Z</time></trkpt><trkpt lat="45.91152866729391" lon="8.774317686732756"><ele>328.0</ele><time>2026-04-25T08:59:39Z</time></trkpt><trkpt lat="45.911607105891164" lon="8.774251668889985"><ele>328.0</ele><time>2026-04-25T08:59:40Z</time></trkpt><trkpt lat="45.911698252007" lon="8.774255484537608"><ele>328.0</ele><time>2026-04-25T08:59:41Z</time></trkpt><trkpt lat="45.91178155212651" lon="8.774301482664951"><ele>325.5</ele><time>2026-04-25T08:59:42Z</time></trkpt><trkpt lat="45.911899424528336" lon="8.774361430373489"><ele>323.0</ele><time>2026-04-25T08:59:43Z</time></trkpt><trkpt lat="45.912025887096014" lon="8.774419189483918"><ele>320.5</ele><time>2026-04-25T08:59:44Z</time></trkpt><trkpt lat="45.912176809140895" lon="8.774486732288839"><ele>318.0</ele><time>2026-04-25T08:59:45Z</time></trkpt><trkpt lat="45.91233141025317" lon="8.774550748937356"><ele>318.0</ele><time>2026-04-25T08:59:46Z</time></trkpt><trkpt lat="45.91248925517862" lon="8.774579011961187"><ele>318.0</ele><time>2026-04-25T08:59:47Z</time></trkpt><trkpt lat="45.91263501376146" lon="8.774602051000526"><ele>318.0</ele><time>2026-04-25T08:59:48Z</time></trkpt><trkpt lat="45.91276803802658" lon="8.774609229192501"><ele>318.0</ele><time>2026-04-25T08:59:49Z</time></trkpt><trkpt lat="45.9129119134692" lon="8.77463807112892"><ele>316.0</ele><time>2026-04-25T08:59:50Z</time></trkpt><trkpt lat="45.91302554628938" lon="8.774674545350443"><ele>314.0</ele><time>2026-04-25T08:59:51Z</time></trkpt><trkpt lat="45.913139458643116" lon="8.77467632967864"><ele>312.0</ele><time>2026-04-25T08:59:52Z</time></trkpt><trkpt lat="45.913249870994065" lon="8.774696420699263"><ele>310.0</ele><time>2026-04-25T08:59:53Z</time></trkpt><trkpt lat="45.91334449707486" lon="8.774699490565974"><ele>308.0</ele><time>2026-04-25T08:59:54Z</time></trkpt><trkpt lat="45.91341528580033" lon="8.774660703149994"><ele>306.6</ele><time>2026-04-25T08:59:55Z</time></trkpt><trkpt lat="45.913480618411846" lon="8.774578927950682"><ele>305.20000000000005</ele><time>2026-04-25T08:59:56Z</time></trkpt><trkpt lat="45.91354702951551" lon="8.774468488935494"><ele>303.8</ele><time>2026-04-25T08:59:57Z</time></trkpt><trkpt lat="45.9136245063979" lon="8.77435907455518"><ele>302.40000000000003</ele><time>2026-04-25T08:59:58Z</time></trkpt><trkpt lat="45.913702799042774" lon="8.774246028330962"><ele>301.0</ele><time>2026-04-25T08:59:59Z</time></trkpt><trkpt lat="45.91378762572235" lon="8.774124066018814"><ele>301.0</ele><time>2026-04-25T09:00:00Z</time></trkpt><trkpt lat="45.91387238682949" lon="8.774002694749635"><ele>301.0</ele><time>2026-04-25T09:00:01Z</time></trkpt><trkpt lat="45.91398840647613" lon="8.773872691190924"><ele>301.0</ele><time>2026-04-25T09:00:02Z</time></trkpt><trkpt lat="45.914127430698386" lon="8.773689023032354"><ele>300.25</ele><time>2026-04-25T09:00:03Z</time></trkpt><trkpt lat="45.914259513142454" lon="8.773512044776"><ele>299.5</ele><time>2026-04-25T09:00:04Z</time></trkpt><trkpt lat="45.914357941415" lon="8.773376708456418"><ele>298.75</ele><time>2026-04-25T09:00:05Z</time></trkpt><trkpt lat="45.914440525694474" lon="8.773257211928643"><ele>298.0</ele><time>2026-04-25T09:00:06Z</time></trkpt><trkpt lat="45.91451242589339" lon="8.773162373254467"><ele>298.0</ele><time>2026-04-25T09:00:07Z</time></trkpt><trkpt lat="45.914563305345844" lon="8.773087674951366"><ele>298.0</ele><time>2026-04-25T09:00:08Z</time></trkpt><trkpt lat="45.91464436967431" lon="8.772942992174407"><ele>298.0</ele><time>2026-04-25T09:00:10Z</time></trkpt><trkpt lat="45.91469147222429" lon="8.77286288868232"><ele>298.0</ele><time>2026-04-25T09:00:11Z</time></trkpt><trkpt lat="45.914736814968144" lon="8.772795023979494"><ele>298.0</ele><time>2026-04-25T09:00:12Z</time></trkpt><trkpt lat="45.91484497081387" lon="8.772713230108549"><ele>298.0</ele><time>2026-04-25T09:00:14Z</time></trkpt><trkpt lat="45.914963651482374" lon="8.772700397513727"><ele>298.0</ele><time>2026-04-25T09:00:16Z</time></trkpt><trkpt lat="45.91503462510719" lon="8.772716143392005"><ele>298.0</ele><time>2026-04-25T09:00:17Z</time></trkpt><trkpt lat="45.91509248192735" lon="8.772755379214484"><ele>298.0</ele><time>2026-04-25T09:00:18Z</time></trkpt><trkpt lat="45.91520229864844" lon="8.772863395159717"><ele>298.0</ele><time>2026-04-25T09:00:20Z</time></trkpt><trkpt lat="45.91526393241293" lon="8.772930225990267"><ele>297.4</ele><time>2026-04-25T09:00:21Z</time></trkpt><trkpt lat="45.91532515157455" lon="8.773000813360316"><ele>296.8</ele><time>2026-04-25T09:00:22Z</time></trkpt><trkpt lat="45.91537587965621" lon="8.77306575776873"><ele>296.2</ele><time>2026-04-25T09:00:23Z</time></trkpt><trkpt lat="45.91547307502204" lon="8.773191369572858"><ele>295.6</ele><time>2026-04-25T09:00:25Z</time></trkpt><trkpt lat="45.915535644644066" lon="8.773265330434334"><ele>295.0</ele><time>2026-04-25T09:00:26Z</time></trkpt><trkpt lat="45.91560991398684" lon="8.773349053004386"><ele>295.0</ele><time>2026-04-25T09:00:27Z</time></trkpt><trkpt lat="45.91569630105476" lon="8.773446068774403"><ele>295.0</ele><time>2026-04-25T09:00:28Z</time></trkpt><trkpt lat="45.915799831579946" lon="8.773542873456277"><ele>295.0</ele><time>2026-04-25T09:00:29Z</time></trkpt><trkpt lat="45.915898774487076" lon="8.773661284060386"><ele>295.0</ele><time>2026-04-25T09:00:30Z</time></trkpt><trkpt lat="45.91600100012385" lon="8.773791472617157"><ele>293.5</ele><time>2026-04-25T09:00:31Z</time></trkpt><trkpt lat="45.91610914397022" lon="8.773919369673239"><ele>292.0</ele><time>2026-04-25T09:00:32Z</time></trkpt><trkpt lat="45.91621460140564" lon="8.774050473345115"><ele>290.5</ele><time>2026-04-25T09:00:33Z</time></trkpt><trkpt lat="45.91631022991526" lon="8.774173378378183"><ele>289.0</ele><time>2026-04-25T09:00:34Z</time></trkpt><trkpt lat="45.91640341064426" lon="8.774277587454591"><ele>289.0</ele><time>2026-04-25T09:00:35Z</time></trkpt><trkpt lat="45.91650183775539" lon="8.774328531634799"><ele>289.0</ele><time>2026-04-25T09:00:36Z</time></trkpt><trkpt lat="45.91660343314046" lon="8.774310108653586"><ele>289.0</ele><time>2026-04-25T09:00:37Z</time></trkpt><trkpt lat="45.91668382084916" lon="8.774231324728516"><ele>289.0</ele><time>2026-04-25T09:00:38Z</time></trkpt><trkpt lat="45.916744741451836" lon="8.77409550997"><ele>289.0</ele><time>2026-04-25T09:00:39Z</time></trkpt><trkpt lat="45.91676121952379" lon="8.773913371168026"><ele>289.0</ele><time>2026-04-25T09:00:40Z</time></trkpt><trkpt lat="45.91670424541827" lon="8.7736665002302"><ele>289.0</ele><time>2026-04-25T09:00:41Z</time></trkpt><trkpt lat="45.91666023583858" lon="8.773466561936292"><ele>289.0</ele><time>2026-04-25T09:00:42Z</time></trkpt><trkpt lat="45.91663571058323" lon="8.773289334709254"><ele>289.5</ele><time>2026-04-25T09:00:43Z</time></trkpt><trkpt lat="45.91662974098116" lon="8.77316140107226"><ele>290.0</ele><time>2026-04-25T09:00:44Z</time></trkpt><trkpt lat="45.91665016447385" lon="8.773051387284308"><ele>290.5</ele><time>2026-04-25T09:00:45Z</time></trkpt><trkpt lat="45.91670306260665" lon="8.772959090669858"><ele>291.0</ele><time>2026-04-25T09:00:46Z</time></trkpt><trkpt lat="45.916769537103704" lon="8.772883756815444"><ele>291.5</ele><time>2026-04-25T09:00:47Z</time></trkpt><trkpt lat="45.916843308133366" lon="8.772841845411541"><ele>292.0</ele><time>2026-04-25T09:00:48Z</time></trkpt><trkpt lat="45.91693379012135" lon="8.772848496940147"><ele>289.25</ele><time>2026-04-25T09:00:49Z</time></trkpt><trkpt lat="45.917016000597144" lon="8.772946920491258"><ele>286.5</ele><time>2026-04-25T09:00:50Z</time></trkpt><trkpt lat="45.91713452412035" lon="8.773012366435612"><ele>283.75</ele><time>2026-04-25T09:00:51Z</time></trkpt><trkpt lat="45.917265975617546" lon="8.77307522559101"><ele>281.0</ele><time>2026-04-25T09:00:52Z</time></trkpt><trkpt lat="45.91740781334362" lon="8.773101380677716"><ele>281.0</ele><time>2026-04-25T09:00:53Z</time></trkpt><trkpt lat="45.91754075535009" lon="8.7731018040144"><ele>281.0</ele><time>2026-04-25T09:00:54Z</time></trkpt><trkpt lat="45.91767876123673" lon="8.773063112891286"><ele>281.0</ele><time>2026-04-25T09:00:55Z</time></trkpt><trkpt lat="45.91783935657481" lon="8.772964351400551"><ele>281.0</ele><time>2026-04-25T09:00:56Z</time></trkpt><trkpt lat="45.91800861024054" lon="8.772851334303134"><ele>280.75</ele><time>2026-04-25T09:00:57Z</time></trkpt><trkpt lat="45.91815815740917" lon="8.772755986542887"><ele>280.5</ele><time>2026-04-25T09:00:58Z</time></trkpt><trkpt lat="45.918294090075086" lon="8.772678487596705"><ele>280.25</ele><time>2026-04-25T09:00:59Z</time></trkpt><trkpt lat="45.918408377308495" lon="8.7726194595627"><ele>280.0</ele><time>2026-04-25T09:01:00Z</time></trkpt><trkpt lat="45.918522633364695" lon="8.772610196164194"><ele>280.4</ele><time>2026-04-25T09:01:01Z</time></trkpt><trkpt lat="45.91862249304804" lon="8.772585317156892"><ele>280.8</ele><time>2026-04-25T09:01:02Z</time></trkpt><trkpt lat="45.918706515803954" lon="8.772593110792851"><ele>281.2</ele><time>2026-04-25T09:01:03Z</time></trkpt><trkpt lat="45.91876978374316" lon="8.77255694031485"><ele>281.6</ele><time>2026-04-25T09:01:04Z</time></trkpt><trkpt lat="45.918828935614435" lon="8.77244239054651"><ele>282.0</ele><time>2026-04-25T09:01:05.001Z</time></trkpt><trkpt lat="45.9188626050727" lon="8.77227859438959"><ele>282.0</ele><time>2026-04-25T09:01:06.001Z</time></trkpt><trkpt lat="45.91889851273131" lon="8.772128886031801"><ele>282.0</ele><time>2026-04-25T09:01:07.001Z</time></trkpt><trkpt lat="45.91896430044214" lon="8.772031247707124"><ele>282.0</ele><time>2026-04-25T09:01:08.001Z</time></trkpt><trkpt lat="45.91906718391095" lon="8.771970877616575"><ele>282.0</ele><time>2026-04-25T09:01:09.001Z</time></trkpt><trkpt lat="45.919214912251796" lon="8.7719181749706"><ele>281.6666666666667</ele><time>2026-04-25T09:01:10.001Z</time></trkpt><trkpt lat="45.91934462096649" lon="8.771891363482736"><ele>281.33333333333337</ele><time>2026-04-25T09:01:11.001Z</time></trkpt><trkpt lat="45.91950583551964" lon="8.771895054284949"><ele>281.0</ele><time>2026-04-25T09:01:12.001Z</time></trkpt><trkpt lat="45.91967721643355" lon="8.771919029211178"><ele>281.0</ele><time>2026-04-25T09:01:13.001Z</time></trkpt><trkpt lat="45.919841664931056" lon="8.77194484191317"><ele>281.0</ele><time>2026-04-25T09:01:14.001Z</time></trkpt><trkpt lat="45.91998252199731" lon="8.771980194827833"><ele>281.0</ele><time>2026-04-25T09:01:15.001Z</time></trkpt><trkpt lat="45.92009911655388" lon="8.772058030718458"><ele>281.0</ele><time>2026-04-25T09:01:16Z</time></trkpt><trkpt lat="45.92021134896721" lon="8.772149492372817"><ele>276.8</ele><time>2026-04-25T09:01:17Z</time></trkpt><trkpt lat="45.9203193749318" lon="8.772230157303115"><ele>272.6</ele><time>2026-04-25T09:01:18Z</time></trkpt><trkpt lat="45.920418337512544" lon="8.772319015718153"><ele>268.4</ele><time>2026-04-25T09:01:19Z</time></trkpt><trkpt lat="45.92050584232348" lon="8.772399777118473"><ele>264.2</ele><time>2026-04-25T09:01:20Z</time></trkpt><trkpt lat="45.920589693748326" lon="8.772460237020415"><ele>260.0</ele><time>2026-04-25T09:01:21Z</time></trkpt><trkpt lat="45.92067040507105" lon="8.772511786397201"><ele>260.0</ele><time>2026-04-25T09:01:22Z</time></trkpt><trkpt lat="45.92074826083581" lon="8.772536971592107"><ele>260.0</ele><time>2026-04-25T09:01:23Z</time></trkpt><trkpt lat="45.92082383383375" lon="8.772546928140251"><ele>260.0</ele><time>2026-04-25T09:01:24Z</time></trkpt><trkpt lat="45.92089160336709" lon="8.772537487489524"><ele>260.0</ele><time>2026-04-25T09:01:25Z</time></trkpt><trkpt lat="45.920954194305885" lon="8.772513977079266"><ele>260.0</ele><time>2026-04-25T09:01:26Z</time></trkpt><trkpt lat="45.920998988222095" lon="8.772433306818048"><ele>260.0</ele><time>2026-04-25T09:01:27Z</time></trkpt><trkpt lat="45.92106407117922" lon="8.772298531631382"><ele>260.0</ele><time>2026-04-25T09:01:29Z</time></trkpt><trkpt lat="45.921191582642564" lon="8.77243286955899"><ele>260.0</ele><time>2026-04-25T09:01:30Z</time></trkpt><trkpt lat="45.92129826226482" lon="8.772487517266716"><ele>260.0</ele><time>2026-04-25T09:01:31Z</time></trkpt><trkpt lat="45.921424505359035" lon="8.772595639221732"><ele>260.0</ele><time>2026-04-25T09:01:32Z</time></trkpt><trkpt lat="45.921582559707126" lon="8.772719540935944"><ele>259.0</ele><time>2026-04-25T09:01:33Z</time></trkpt><trkpt lat="45.92174966099668" lon="8.772847998451525"><ele>258.0</ele><time>2026-04-25T09:01:34Z</time></trkpt><trkpt lat="45.921936243345435" lon="8.772999379278355"><ele>257.0</ele><time>2026-04-25T09:01:35Z</time></trkpt><trkpt lat="45.922106799423375" lon="8.773127370087442"><ele>257.0</ele><time>2026-04-25T09:01:36Z</time></trkpt><trkpt lat="45.92227590525675" lon="8.773257232697533"><ele>257.0</ele><time>2026-04-25T09:01:37Z</time></trkpt><trkpt lat="45.92246945832354" lon="8.773408884106074"><ele>257.0</ele><time>2026-04-25T09:01:38Z</time></trkpt><trkpt lat="45.922689958380836" lon="8.773572712706459"><ele>256.0</ele><time>2026-04-25T09:01:39Z</time></trkpt><trkpt lat="45.92290115115142" lon="8.773730227163645"><ele>255.0</ele><time>2026-04-25T09:01:40Z</time></trkpt><trkpt lat="45.92308745647919" lon="8.773873432311056"><ele>254.0</ele><time>2026-04-25T09:01:41Z</time></trkpt><trkpt lat="45.9232602351447" lon="8.774010844559237"><ele>254.0</ele><time>2026-04-25T09:01:42Z</time></trkpt><trkpt lat="45.92342442092306" lon="8.774136764146968"><ele>254.0</ele><time>2026-04-25T09:01:43Z</time></trkpt><trkpt lat="45.92357846000402" lon="8.77425587616039"><ele>254.0</ele><time>2026-04-25T09:01:44Z</time></trkpt><trkpt lat="45.92372277873519" lon="8.774362452320382"><ele>255.33333333333334</ele><time>2026-04-25T09:01:45Z</time></trkpt><trkpt lat="45.92385958352281" lon="8.774463164156309"><ele>256.6666666666667</ele><time>2026-04-25T09:01:46Z</time></trkpt><trkpt lat="45.92399166316831" lon="8.77455431752535"><ele>258.0</ele><time>2026-04-25T09:01:47Z</time></trkpt><trkpt lat="45.92414376288576" lon="8.774624815752766"><ele>256.0</ele><time>2026-04-25T09:01:48Z</time></trkpt><trkpt lat="45.9243199805867" lon="8.774662009587722"><ele>254.0</ele><time>2026-04-25T09:01:49Z</time></trkpt><trkpt lat="45.92451028008969" lon="8.774674622096926"><ele>252.0</ele><time>2026-04-25T09:01:50Z</time></trkpt><trkpt lat="45.92471975827122" lon="8.774684837169016"><ele>252.0</ele><time>2026-04-25T09:01:51Z</time></trkpt><trkpt lat="45.9249368979321" lon="8.774733397015547"><ele>252.0</ele><time>2026-04-25T09:01:52Z</time></trkpt><trkpt lat="45.925165413022704" lon="8.774760257144827"><ele>252.0</ele><time>2026-04-25T09:01:53Z</time></trkpt><trkpt lat="45.925396108826185" lon="8.774786746018354"><ele>252.33333333333331</ele><time>2026-04-25T09:01:54Z</time></trkpt><trkpt lat="45.92560878167848" lon="8.774806495297797"><ele>252.66666666666666</ele><time>2026-04-25T09:01:55Z</time></trkpt><trkpt lat="45.925808022317916" lon="8.77482499721426"><ele>253.0</ele><time>2026-04-25T09:01:56Z</time></trkpt><trkpt lat="45.92603127924779" lon="8.774845729321063"><ele>251.0</ele><time>2026-04-25T09:01:57Z</time></trkpt><trkpt lat="45.926273521578985" lon="8.774868224199972"><ele>249.0</ele><time>2026-04-25T09:01:58Z</time></trkpt><trkpt lat="45.926485279849395" lon="8.77487333830469"><ele>249.0</ele><time>2026-04-25T09:01:59Z</time></trkpt><trkpt lat="45.926671365100724" lon="8.774897383751725"><ele>249.0</ele><time>2026-04-25T09:02:00Z</time></trkpt><trkpt lat="45.92684649618131" lon="8.774913083191331"><ele>249.0</ele><time>2026-04-25T09:02:01Z</time></trkpt><trkpt lat="45.92699644884697" lon="8.774932884799703"><ele>249.0</ele><time>2026-04-25T09:02:02Z</time></trkpt><trkpt lat="45.927140134137616" lon="8.774947792004816"><ele>249.0</ele><time>2026-04-25T09:02:03Z</time></trkpt><trkpt lat="45.9272810482994" lon="8.77495506978231"><ele>249.0</ele><time>2026-04-25T09:02:04Z</time></trkpt><trkpt lat="45.92741847392555" lon="8.774968102376494"><ele>249.0</ele><time>2026-04-25T09:02:05Z</time></trkpt><trkpt lat="45.927542518630176" lon="8.77498187000427"><ele>248.5</ele><time>2026-04-25T09:02:06Z</time></trkpt><trkpt lat="45.927654352708956" lon="8.774990464040046"><ele>248.0</ele><time>2026-04-25T09:02:07Z</time></trkpt><trkpt lat="45.927766631063115" lon="8.775001150137436"><ele>247.5</ele><time>2026-04-25T09:02:08Z</time></trkpt><trkpt lat="45.92788331579357" lon="8.775010334709156"><ele>247.0</ele><time>2026-04-25T09:02:09Z</time></trkpt><trkpt lat="45.92800364473781" lon="8.775022155898009"><ele>247.0</ele><time>2026-04-25T09:02:10Z</time></trkpt><trkpt lat="45.92810828150052" lon="8.775033829367201"><ele>247.0</ele><time>2026-04-25T09:02:11Z</time></trkpt><trkpt lat="45.92819962503629" lon="8.775043980143597"><ele>247.0</ele><time>2026-04-25T09:02:12Z</time></trkpt><trkpt lat="45.9282892721193" lon="8.775051786206557"><ele>247.0</ele><time>2026-04-25T09:02:13Z</time></trkpt><trkpt lat="45.92838132936664" lon="8.775056973279161"><ele>247.0</ele><time>2026-04-25T09:02:14Z</time></trkpt><trkpt lat="45.9284709686531" lon="8.775070410759014"><ele>246.99999999999997</ele><time>2026-04-25T09:02:15Z</time></trkpt><trkpt lat="45.928549440265634" lon="8.775099412704597"><ele>247.0</ele><time>2026-04-25T09:02:16Z</time></trkpt><trkpt lat="45.92862330839285" lon="8.775153586759592"><ele>247.0</ele><time>2026-04-25T09:02:17Z</time></trkpt><trkpt lat="45.92868828922765" lon="8.775244144255486"><ele>247.0</ele><time>2026-04-25T09:02:18Z</time></trkpt><trkpt lat="45.928761731333594" lon="8.775332105289806"><ele>246.99999999999997</ele><time>2026-04-25T09:02:19Z</time></trkpt><trkpt lat="45.928852909952454" lon="8.775348151237441"><ele>247.0</ele><time>2026-04-25T09:02:20Z</time></trkpt><trkpt lat="45.92895522067753" lon="8.775295996953995"><ele>247.0</ele><time>2026-04-25T09:02:21Z</time></trkpt><trkpt lat="45.92906130461091" lon="8.775189721331536"><ele>247.0</ele><time>2026-04-25T09:02:22Z</time></trkpt><trkpt lat="45.92916792037026" lon="8.775117239145036"><ele>247.0</ele><time>2026-04-25T09:02:23Z</time></trkpt><trkpt lat="45.9292898736784" lon="8.775113890750868"><ele>247.0</ele><time>2026-04-25T09:02:24Z</time></trkpt><trkpt lat="45.92943358994442" lon="8.775130543709526"><ele>249.66666666666666</ele><time>2026-04-25T09:02:25Z</time></trkpt><trkpt lat="45.929576191208525" lon="8.775155593054683"><ele>252.33333333333331</ele><time>2026-04-25T09:02:26Z</time></trkpt><trkpt lat="45.929739729615946" lon="8.775164169462576"><ele>255.0</ele><time>2026-04-25T09:02:27Z</time></trkpt><trkpt lat="45.92992711422964" lon="8.775162206082738"><ele>251.33333333333331</ele><time>2026-04-25T09:02:28Z</time></trkpt><trkpt lat="45.93013228702753" lon="8.775203764876984"><ele>247.66666666666666</ele><time>2026-04-25T09:02:29Z</time></trkpt><trkpt lat="45.93036907762318" lon="8.775224766103007"><ele>244.0</ele><time>2026-04-25T09:02:30Z</time></trkpt><trkpt lat="45.93062046403102" lon="8.775245888311703"><ele>244.0</ele><time>2026-04-25T09:02:31Z</time></trkpt><trkpt lat="45.93088026661029" lon="8.775267742184127"><ele>244.0</ele><time>2026-04-25T09:02:32Z</time></trkpt><trkpt lat="45.93114829637366" lon="8.775290288010016"><ele>244.5</ele><time>2026-04-25T09:02:33Z</time></trkpt><trkpt lat="45.93142946853018" lon="8.775299863340678"><ele>245.0</ele><time>2026-04-25T09:02:34Z</time></trkpt><trkpt lat="45.931705967011666" lon="8.775327619225482"><ele>245.5</ele><time>2026-04-25T09:02:35Z</time></trkpt><trkpt lat="45.931970579042904" lon="8.775350418138991"><ele>246.0</ele><time>2026-04-25T09:02:36Z</time></trkpt><trkpt lat="45.93221534006994" lon="8.775372785733996"><ele>246.0</ele><time>2026-04-25T09:02:37Z</time></trkpt><trkpt lat="45.93244324610652" lon="8.775393241246816"><ele>246.0</ele><time>2026-04-25T09:02:38Z</time></trkpt><trkpt lat="45.93266018142872" lon="8.775419037292664"><ele>246.0</ele><time>2026-04-25T09:02:39Z</time></trkpt><trkpt lat="45.932865969895474" lon="8.775438569961802"><ele>245.0</ele><time>2026-04-25T09:02:40Z</time></trkpt><trkpt lat="45.933059585479675" lon="8.775446215658713"><ele>244.0</ele><time>2026-04-25T09:02:41Z</time></trkpt><trkpt lat="45.93324240827398" lon="8.775425196218388"><ele>243.0</ele><time>2026-04-25T09:02:42Z</time></trkpt><trkpt lat="45.93344792276885" lon="8.77535860901146"><ele>242.5</ele><time>2026-04-25T09:02:43Z</time></trkpt><trkpt lat="45.93367434223556" lon="8.775246666133288"><ele>242.0</ele><time>2026-04-25T09:02:44Z</time></trkpt><trkpt lat="45.933908164387816" lon="8.775136170726523"><ele>242.0</ele><time>2026-04-25T09:02:45Z</time></trkpt><trkpt lat="45.93414762783829" lon="8.775033506059447"><ele>242.0</ele><time>2026-04-25T09:02:46Z</time></trkpt><trkpt lat="45.9343735759256" lon="8.774934132588495"><ele>242.0</ele><time>2026-04-25T09:02:47Z</time></trkpt><trkpt lat="45.934582895436705" lon="8.77484347927114"><ele>242.0</ele><time>2026-04-25T09:02:48Z</time></trkpt><trkpt lat="45.934768952563616" lon="8.774756255565423"><ele>242.0</ele><time>2026-04-25T09:02:49Z</time></trkpt><trkpt lat="45.934924645965495" lon="8.77465756042953"><ele>241.66666666666669</ele><time>2026-04-25T09:02:50Z</time></trkpt><trkpt lat="45.93506377196686" lon="8.774515639715899"><ele>241.33333333333331</ele><time>2026-04-25T09:02:51Z</time></trkpt><trkpt lat="45.93520812148648" lon="8.774316962521075"><ele>241.0</ele><time>2026-04-25T09:02:52Z</time></trkpt><trkpt lat="45.935348731916015" lon="8.774085944995367"><ele>241.0</ele><time>2026-04-25T09:02:53Z</time></trkpt><trkpt lat="45.935498441825885" lon="8.773886700887529"><ele>241.0</ele><time>2026-04-25T09:02:54Z</time></trkpt><trkpt lat="45.93566950706919" lon="8.773725794383331"><ele>241.0</ele><time>2026-04-25T09:02:55Z</time></trkpt><trkpt lat="45.935873481004975" lon="8.773599834677249"><ele>242.0</ele><time>2026-04-25T09:02:56Z</time></trkpt><trkpt lat="45.936106621285184" lon="8.773474561053733"><ele>243.0</ele><time>2026-04-25T09:02:57Z</time></trkpt><trkpt lat="45.93635358416791" lon="8.773341240864879"><ele>243.0</ele><time>2026-04-25T09:02:58Z</time></trkpt><trkpt lat="45.93661673291557" lon="8.773198165258583"><ele>243.0</ele><time>2026-04-25T09:02:59Z</time></trkpt><trkpt lat="45.936888504207786" lon="8.773054635943529"><ele>242.0</ele><time>2026-04-25T09:03:00Z</time></trkpt><trkpt lat="45.937167509166585" lon="8.772904671580084"><ele>241.0</ele><time>2026-04-25T09:03:01Z</time></trkpt><trkpt lat="45.93744411258424" lon="8.77276099851824"><ele>242.5</ele><time>2026-04-25T09:03:02Z</time></trkpt><trkpt lat="45.93769357623604" lon="8.772632544344411"><ele>244.0</ele><time>2026-04-25T09:03:03Z</time></trkpt><trkpt lat="45.93792866140908" lon="8.772511052393883"><ele>244.0</ele><time>2026-04-25T09:03:03.999Z</time></trkpt><trkpt lat="45.938152740767734" lon="8.77239359324608"><ele>244.0</ele><time>2026-04-25T09:03:04.999Z</time></trkpt><trkpt lat="45.938363638456416" lon="8.772282816859558"><ele>244.0</ele><time>2026-04-25T09:03:05.999Z</time></trkpt><trkpt lat="45.93856790490274" lon="8.772176898304512"><ele>244.0</ele><time>2026-04-25T09:03:06.999Z</time></trkpt><trkpt lat="45.93877974398772" lon="8.77206444743194"><ele>244.0</ele><time>2026-04-25T09:03:07.999Z</time></trkpt><trkpt lat="45.93899913913403" lon="8.771935664863866"><ele>243.5</ele><time>2026-04-25T09:03:08.999Z</time></trkpt><trkpt lat="45.93922527327953" lon="8.771795312900819"><ele>243.0</ele><time>2026-04-25T09:03:09.999Z</time></trkpt><trkpt lat="45.93945123708567" lon="8.771653363036158"><ele>243.0</ele><time>2026-04-25T09:03:11Z</time></trkpt><trkpt lat="45.93966269403504" lon="8.771514890917913"><ele>243.0</ele><time>2026-04-25T09:03:12Z</time></trkpt><trkpt lat="45.93986286345943" lon="8.771386597041696"><ele>240.5</ele><time>2026-04-25T09:03:13Z</time></trkpt><trkpt lat="45.94006709828531" lon="8.771255127328443"><ele>238.0</ele><time>2026-04-25T09:03:14Z</time></trkpt><trkpt lat="45.94027431158038" lon="8.771122387466066"><ele>241.0</ele><time>2026-04-25T09:03:15Z</time></trkpt><trkpt lat="45.940483429443354" lon="8.770988445712046"><ele>244.0</ele><time>2026-04-25T09:03:16Z</time></trkpt><trkpt lat="45.94069144334935" lon="8.770851670447602"><ele>242.33333333333331</ele><time>2026-04-25T09:03:17Z</time></trkpt><trkpt lat="45.940898685116665" lon="8.770713433376699"><ele>240.66666666666669</ele><time>2026-04-25T09:03:18Z</time></trkpt><trkpt lat="45.941093956422954" lon="8.770579443865335"><ele>239.0</ele><time>2026-04-25T09:03:19Z</time></trkpt><trkpt lat="45.94128322169902" lon="8.770457202250414"><ele>239.0</ele><time>2026-04-25T09:03:20Z</time></trkpt><trkpt lat="45.94146055068728" lon="8.770346422074995"><ele>239.0</ele><time>2026-04-25T09:03:21Z</time></trkpt><trkpt lat="45.94163166832438" lon="8.770233844781925"><ele>239.0</ele><time>2026-04-25T09:03:22Z</time></trkpt><trkpt lat="45.941800517184745" lon="8.770096710672375"><ele>239.33333333333334</ele><time>2026-04-25T09:03:23Z</time></trkpt><trkpt lat="45.94197167078852" lon="8.769920791438729"><ele>239.66666666666669</ele><time>2026-04-25T09:03:24Z</time></trkpt><trkpt lat="45.942142268523675" lon="8.769714614361202"><ele>240.0</ele><time>2026-04-25T09:03:25Z</time></trkpt><trkpt lat="45.942314172076344" lon="8.76950164183085"><ele>240.66666666666669</ele><time>2026-04-25T09:03:26Z</time></trkpt><trkpt lat="45.94248182026204" lon="8.769301989439303"><ele>241.33333333333334</ele><time>2026-04-25T09:03:27Z</time></trkpt><trkpt lat="45.94263547607594" lon="8.769121199853789"><ele>242.0</ele><time>2026-04-25T09:03:28Z</time></trkpt><trkpt lat="45.94277984402182" lon="8.768943053384866"><ele>242.0</ele><time>2026-04-25T09:03:29Z</time></trkpt><trkpt lat="45.94291318679473" lon="8.768764485717325"><ele>242.0</ele><time>2026-04-25T09:03:30Z</time></trkpt><trkpt lat="45.943067289981244" lon="8.768617929802588"><ele>242.0</ele><time>2026-04-25T09:03:31Z</time></trkpt><trkpt lat="45.94319547415272" lon="8.768470298652483"><ele>242.0</ele><time>2026-04-25T09:03:32Z</time></trkpt><trkpt lat="45.943331194614316" lon="8.768321724996134"><ele>242.0</ele><time>2026-04-25T09:03:33Z</time></trkpt><trkpt lat="45.943476211831225" lon="8.768185331815573"><ele>242.0</ele><time>2026-04-25T09:03:34Z</time></trkpt><trkpt lat="45.943631397940706" lon="8.76806585495511"><ele>239.66666666666669</ele><time>2026-04-25T09:03:35Z</time></trkpt><trkpt lat="45.94377756876621" lon="8.767962433094826"><ele>237.33333333333331</ele><time>2026-04-25T09:03:36Z</time></trkpt><trkpt lat="45.94390925984173" lon="8.767865426003683"><ele>235.0</ele><time>2026-04-25T09:03:37Z</time></trkpt><trkpt lat="45.94403352923049" lon="8.767770937950194"><ele>236.0</ele><time>2026-04-25T09:03:38Z</time></trkpt><trkpt lat="45.94415277969537" lon="8.767680989824036"><ele>237.0</ele><time>2026-04-25T09:03:39Z</time></trkpt><trkpt lat="45.94427063822279" lon="8.767610552570963"><ele>238.0</ele><time>2026-04-25T09:03:40Z</time></trkpt><trkpt lat="45.94439349927171" lon="8.767569846609328"><ele>239.0</ele><time>2026-04-25T09:03:41Z</time></trkpt><trkpt lat="45.94452275787403" lon="8.767569701550697"><ele>239.0</ele><time>2026-04-25T09:03:42Z</time></trkpt><trkpt lat="45.94465996525168" lon="8.767593324154722"><ele>239.0</ele><time>2026-04-25T09:03:43Z</time></trkpt><trkpt lat="45.944794124428796" lon="8.767634739732925"><ele>239.0</ele><time>2026-04-25T09:03:44Z</time></trkpt><trkpt lat="45.94493078230959" lon="8.767669742338605"><ele>239.0</ele><time>2026-04-25T09:03:45Z</time></trkpt><trkpt lat="45.94506191168834" lon="8.767695645515365"><ele>238.5</ele><time>2026-04-25T09:03:46Z</time></trkpt><trkpt lat="45.945192782192414" lon="8.767711806573743"><ele>238.0</ele><time>2026-04-25T09:03:47Z</time></trkpt><trkpt lat="45.94533382229377" lon="8.76773087887266"><ele>237.5</ele><time>2026-04-25T09:03:48Z</time></trkpt><trkpt lat="45.945481834371364" lon="8.767742075100577"><ele>237.0</ele><time>2026-04-25T09:03:49Z</time></trkpt><trkpt lat="45.94564095485197" lon="8.767740896671011"><ele>237.0</ele><time>2026-04-25T09:03:50Z</time></trkpt><trkpt lat="45.9458286726563" lon="8.767726067125224"><ele>237.0</ele><time>2026-04-25T09:03:51Z</time></trkpt><trkpt lat="45.94602565946858" lon="8.767705313174469"><ele>237.0</ele><time>2026-04-25T09:03:52Z</time></trkpt><trkpt lat="45.9462201128754" lon="8.767682070311778"><ele>237.33333333333331</ele><time>2026-04-25T09:03:53Z</time></trkpt><trkpt lat="45.946395860205406" lon="8.767663976084942"><ele>237.66666666666666</ele><time>2026-04-25T09:03:54Z</time></trkpt><trkpt lat="45.946546346637334" lon="8.767650873845348"><ele>238.0</ele><time>2026-04-25T09:03:55Z</time></trkpt><trkpt lat="45.94667810714207" lon="8.767636767295802"><ele>238.75</ele><time>2026-04-25T09:03:56Z</time></trkpt><trkpt lat="45.94680493366085" lon="8.767627114674694"><ele>239.5</ele><time>2026-04-25T09:03:57Z</time></trkpt><trkpt lat="45.9469227912421" lon="8.767614101905961"><ele>240.25</ele><time>2026-04-25T09:03:58Z</time></trkpt><trkpt lat="45.94703077165175" lon="8.7676072545387"><ele>241.0</ele><time>2026-04-25T09:03:59Z</time></trkpt><trkpt lat="45.94713813663552" lon="8.767598067365949"><ele>241.0</ele><time>2026-04-25T09:04:00Z</time></trkpt><trkpt lat="45.94724101913287" lon="8.767589816235114"><ele>241.00000000000003</ele><time>2026-04-25T09:04:01Z</time></trkpt><trkpt lat="45.947341349329065" lon="8.767575510091712"><ele>241.00000000000003</ele><time>2026-04-25T09:04:02Z</time></trkpt><trkpt lat="45.94743721791087" lon="8.767569070872394"><ele>241.0</ele><time>2026-04-25T09:04:03Z</time></trkpt><trkpt lat="45.94752421329433" lon="8.7675663621588"><ele>241.0</ele><time>2026-04-25T09:04:04Z</time></trkpt><trkpt lat="45.94760172768044" lon="8.767572177727544"><ele>240.99999999999997</ele><time>2026-04-25T09:04:05Z</time></trkpt><trkpt lat="45.94767147592651" lon="8.767564538582674"><ele>241.0</ele><time>2026-04-25T09:04:06Z</time></trkpt><trkpt lat="45.94773506092034" lon="8.767559730029598"><ele>241.0</ele><time>2026-04-25T09:04:07Z</time></trkpt><trkpt lat="45.94780302597814" lon="8.767559815155536"><ele>241.0</ele><time>2026-04-25T09:04:08Z</time></trkpt><trkpt lat="45.947883310558964" lon="8.767552872832551"><ele>240.99999999999997</ele><time>2026-04-25T09:04:09Z</time></trkpt><trkpt lat="45.9479673731057" lon="8.767544550428545"><ele>241.0</ele><time>2026-04-25T09:04:10Z</time></trkpt><trkpt lat="45.94805573652401" lon="8.767512590155203"><ele>241.0</ele><time>2026-04-25T09:04:11Z</time></trkpt><trkpt lat="45.94814395996779" lon="8.76747271462936"><ele>241.00000000000003</ele><time>2026-04-25T09:04:12Z</time></trkpt><trkpt lat="45.94822216884241" lon="8.7674501053949"><ele>241.00000000000003</ele><time>2026-04-25T09:04:13Z</time></trkpt><trkpt lat="45.94827794848905" lon="8.76740016166477"><ele>241.0</ele><time>2026-04-25T09:04:14Z</time></trkpt><trkpt lat="45.94833390936018" lon="8.76727867070742"><ele>241.0</ele><time>2026-04-25T09:04:15Z</time></trkpt><trkpt lat="45.948419877075516" lon="8.76713352902827"><ele>241.0</ele><time>2026-04-25T09:04:16Z</time></trkpt><trkpt lat="45.94859035797569" lon="8.766996389056319"><ele>241.0</ele><time>2026-04-25T09:04:17Z</time></trkpt><trkpt lat="45.9487600884847" lon="8.766860930252559"><ele>241.0</ele><time>2026-04-25T09:04:18Z</time></trkpt><trkpt lat="45.94891310269621" lon="8.766691609340715"><ele>241.0</ele><time>2026-04-25T09:04:19Z</time></trkpt><trkpt lat="45.949050265748156" lon="8.766536523617564"><ele>241.0</ele><time>2026-04-25T09:04:20Z</time></trkpt><trkpt lat="45.94918202416325" lon="8.766401542672668"><ele>241.0</ele><time>2026-04-25T09:04:21Z</time></trkpt><trkpt lat="45.94929512347062" lon="8.766284929248215"><ele>241.0</ele><time>2026-04-25T09:04:22Z</time></trkpt><trkpt lat="45.94940983720956" lon="8.766167599060305"><ele>241.0</ele><time>2026-04-25T09:04:23Z</time></trkpt><trkpt lat="45.949525206555286" lon="8.7660586995728"><ele>241.0</ele><time>2026-04-25T09:04:24Z</time></trkpt><trkpt lat="45.94964774748307" lon="8.765959189105414"><ele>241.0</ele><time>2026-04-25T09:04:25Z</time></trkpt><trkpt lat="45.94978065323406" lon="8.765908850701798"><ele>240.66666666666666</ele><time>2026-04-25T09:04:26Z</time></trkpt><trkpt lat="45.94992176494895" lon="8.765864729737215"><ele>240.33333333333331</ele><time>2026-04-25T09:04:27Z</time></trkpt><trkpt lat="45.95007913257632" lon="8.76582365106851"><ele>240.0</ele><time>2026-04-25T09:04:28Z</time></trkpt><trkpt lat="45.95025125497271" lon="8.765783933839128"><ele>240.0</ele><time>2026-04-25T09:04:29Z</time></trkpt><trkpt lat="45.95040342708621" lon="8.765726445956084"><ele>240.0</ele><time>2026-04-25T09:04:30Z</time></trkpt><trkpt lat="45.95053566230679" lon="8.765691633807528"><ele>240.0</ele><time>2026-04-25T09:04:31Z</time></trkpt><trkpt lat="45.950656289595145" lon="8.76564382210815"><ele>240.0</ele><time>2026-04-25T09:04:32Z</time></trkpt><trkpt lat="45.95077103785523" lon="8.765591078495968"><ele>240.0</ele><time>2026-04-25T09:04:33Z</time></trkpt><trkpt lat="45.950893040525074" lon="8.765526404487565"><ele>240.0</ele><time>2026-04-25T09:04:34Z</time></trkpt><trkpt lat="45.951026651468766" lon="8.765459522493089"><ele>240.0</ele><time>2026-04-25T09:04:35Z</time></trkpt><trkpt lat="45.95116370007896" lon="8.765394935034985"><ele>240.0</ele><time>2026-04-25T09:04:36Z</time></trkpt><trkpt lat="45.95129402995506" lon="8.765335214278306"><ele>240.0</ele><time>2026-04-25T09:04:37Z</time></trkpt><trkpt lat="45.95140778390552" lon="8.765280364329044"><ele>240.0</ele><time>2026-04-25T09:04:38Z</time></trkpt><trkpt lat="45.951514260748176" lon="8.76522825056904"><ele>240.0</ele><time>2026-04-25T09:04:39Z</time></trkpt><trkpt lat="45.951621279416486" lon="8.765190440286451"><ele>240.0</ele><time>2026-04-25T09:04:40Z</time></trkpt><trkpt lat="45.95173531873235" lon="8.765169900615355"><ele>239.75</ele><time>2026-04-25T09:04:41Z</time></trkpt><trkpt lat="45.95185265694003" lon="8.765168340468259"><ele>239.5</ele><time>2026-04-25T09:04:42Z</time></trkpt><trkpt lat="45.95197129174724" lon="8.765176360147946"><ele>239.25</ele><time>2026-04-25T09:04:43Z</time></trkpt><trkpt lat="45.952089717483" lon="8.765188562929334"><ele>239.0</ele><time>2026-04-25T09:04:44Z</time></trkpt><trkpt lat="45.95220467279102" lon="8.765199643809467"><ele>238.6</ele><time>2026-04-25T09:04:45Z</time></trkpt><trkpt lat="45.952317594564356" lon="8.765209639646095"><ele>238.2</ele><time>2026-04-25T09:04:46Z</time></trkpt><trkpt lat="45.95242740378792" lon="8.765219120699514"><ele>237.79999999999998</ele><time>2026-04-25T09:04:47Z</time></trkpt><trkpt lat="45.952533623815654" lon="8.765228730294268"><ele>237.39999999999998</ele><time>2026-04-25T09:04:48Z</time></trkpt><trkpt lat="45.95263176072111" lon="8.76523447600849"><ele>237.0</ele><time>2026-04-25T09:04:49Z</time></trkpt><trkpt lat="45.952724650280786" lon="8.765238063171166"><ele>236.2</ele><time>2026-04-25T09:04:50Z</time></trkpt><trkpt lat="45.95281354860707" lon="8.76524079691456"><ele>235.39999999999998</ele><time>2026-04-25T09:04:51Z</time></trkpt><trkpt lat="45.952899586512075" lon="8.765243484678484"><ele>234.60000000000002</ele><time>2026-04-25T09:04:52Z</time></trkpt><trkpt lat="45.952999655262545" lon="8.765242440512111"><ele>233.8</ele><time>2026-04-25T09:04:53Z</time></trkpt><trkpt lat="45.95310645636917" lon="8.76524326356695"><ele>233.0</ele><time>2026-04-25T09:04:54Z</time></trkpt><trkpt lat="45.95320408226494" lon="8.765242424645436"><ele>233.0</ele><time>2026-04-25T09:04:55Z</time></trkpt><trkpt lat="45.953295354574365" lon="8.765239507108134"><ele>233.0</ele><time>2026-04-25T09:04:56Z</time></trkpt><trkpt lat="45.953381545433515" lon="8.765233753724088"><ele>233.0</ele><time>2026-04-25T09:04:57Z</time></trkpt><trkpt lat="45.953470566255916" lon="8.765228649867572"><ele>233.0</ele><time>2026-04-25T09:04:58Z</time></trkpt><trkpt lat="45.953568877356545" lon="8.765237410001026"><ele>233.0</ele><time>2026-04-25T09:04:59Z</time></trkpt><trkpt lat="45.95367888828202" lon="8.765258969861053"><ele>232.5</ele><time>2026-04-25T09:04:59.999Z</time></trkpt><trkpt lat="45.9537941260079" lon="8.76528004955652"><ele>232.0</ele><time>2026-04-25T09:05:00.999Z</time></trkpt><trkpt lat="45.953909062665005" lon="8.765292921577522"><ele>231.5</ele><time>2026-04-25T09:05:01.999Z</time></trkpt><trkpt lat="45.95402132689766" lon="8.765306276244436"><ele>231.0</ele><time>2026-04-25T09:05:02.999Z</time></trkpt><trkpt lat="45.95413620026838" lon="8.765312760992884"><ele>230.75</ele><time>2026-04-25T09:05:03.999Z</time></trkpt><trkpt lat="45.95425363100783" lon="8.765316192271923"><ele>230.5</ele><time>2026-04-25T09:05:04.999Z</time></trkpt><trkpt lat="45.95439443625363" lon="8.76532285664182"><ele>230.25</ele><time>2026-04-25T09:05:05.999Z</time></trkpt><trkpt lat="45.95454446176214" lon="8.765325900674158"><ele>230.0</ele><time>2026-04-25T09:05:06.999Z</time></trkpt><trkpt lat="45.95468313661675" lon="8.765338603654667"><ele>230.0</ele><time>2026-04-25T09:05:07.999Z</time></trkpt><trkpt lat="45.95480731128665" lon="8.765346213602388"><ele>230.0</ele><time>2026-04-25T09:05:08.999Z</time></trkpt><trkpt lat="45.9549189901126" lon="8.765346106924767"><ele>230.0</ele><time>2026-04-25T09:05:09.999Z</time></trkpt><trkpt lat="45.95503004343436" lon="8.765371908233064"><ele>230.0</ele><time>2026-04-25T09:05:10.999Z</time></trkpt><trkpt lat="45.955162569732025" lon="8.765381415652932"><ele>233.0</ele><time>2026-04-25T09:05:11.999Z</time></trkpt><trkpt lat="45.9553239121578" lon="8.765347291279152"><ele>236.0</ele><time>2026-04-25T09:05:12.999Z</time></trkpt><trkpt lat="45.95548782589926" lon="8.76533451954384"><ele>239.0</ele><time>2026-04-25T09:05:13.999Z</time></trkpt><trkpt lat="45.95564115578436" lon="8.765302518527559"><ele>239.0</ele><time>2026-04-25T09:05:14.999Z</time></trkpt><trkpt lat="45.955791042713855" lon="8.765241162867994"><ele>239.0</ele><time>2026-04-25T09:05:15.999Z</time></trkpt><trkpt lat="45.95595930511025" lon="8.765145337058199"><ele>239.0</ele><time>2026-04-25T09:05:17Z</time></trkpt><trkpt lat="45.9561618500096" lon="8.765032621470162"><ele>243.0</ele><time>2026-04-25T09:05:18Z</time></trkpt><trkpt lat="45.95639674043784" lon="8.764917413540447"><ele>247.0</ele><time>2026-04-25T09:05:19Z</time></trkpt><trkpt lat="45.95663338376152" lon="8.764789357375049"><ele>258.0</ele><time>2026-04-25T09:05:20Z</time></trkpt><trkpt lat="45.95685473991804" lon="8.764660614228616"><ele>269.0</ele><time>2026-04-25T09:05:21Z</time></trkpt><trkpt lat="45.95705528658084" lon="8.76454428890965"><ele>269.0</ele><time>2026-04-25T09:05:22Z</time></trkpt><trkpt lat="45.957247872641204" lon="8.764439781132394"><ele>269.0</ele><time>2026-04-25T09:05:23Z</time></trkpt><trkpt lat="45.957420256625156" lon="8.764334141058075"><ele>269.0</ele><time>2026-04-25T09:05:24Z</time></trkpt><trkpt lat="45.957587936684675" lon="8.764245047634104"><ele>261.33333333333337</ele><time>2026-04-25T09:05:25Z</time></trkpt><trkpt lat="45.95774204217804" lon="8.764159580471018"><ele>253.66666666666669</ele><time>2026-04-25T09:05:26Z</time></trkpt><trkpt lat="45.95788570879168" lon="8.764086390671158"><ele>246.0</ele><time>2026-04-25T09:05:27Z</time></trkpt><trkpt lat="45.95803319010107" lon="8.764021065543297"><ele>246.0</ele><time>2026-04-25T09:05:28Z</time></trkpt><trkpt lat="45.958201824981664" lon="8.764010892082542"><ele>246.0</ele><time>2026-04-25T09:05:29Z</time></trkpt><trkpt lat="45.958392898551296" lon="8.763990976347054"><ele>246.0</ele><time>2026-04-25T09:05:30Z</time></trkpt><trkpt lat="45.958597575375485" lon="8.763970257882521"><ele>250.33333333333331</ele><time>2026-04-25T09:05:31Z</time></trkpt><trkpt lat="45.958812650646365" lon="8.76394834402365"><ele>254.66666666666666</ele><time>2026-04-25T09:05:32Z</time></trkpt><trkpt lat="45.95901576563896" lon="8.763916706107404"><ele>259.0</ele><time>2026-04-25T09:05:33Z</time></trkpt><trkpt lat="45.959190794375345" lon="8.763863284759914"><ele>263.0</ele><time>2026-04-25T09:05:34Z</time></trkpt><trkpt lat="45.95935891174809" lon="8.763790193036522"><ele>267.0</ele><time>2026-04-25T09:05:35Z</time></trkpt><trkpt lat="45.95951223222686" lon="8.763670841413187"><ele>271.0</ele><time>2026-04-25T09:05:36Z</time></trkpt><trkpt lat="45.959649019766054" lon="8.763560060222835"><ele>259.3333333333333</ele><time>2026-04-25T09:05:37Z</time></trkpt><trkpt lat="45.9597769838394" lon="8.76343403224861"><ele>247.66666666666669</ele><time>2026-04-25T09:05:38Z</time></trkpt><trkpt lat="45.95989708764085" lon="8.763301427692504"><ele>236.0</ele><time>2026-04-25T09:05:39Z</time></trkpt><trkpt lat="45.960013262189655" lon="8.763141916971268"><ele>236.0</ele><time>2026-04-25T09:05:40Z</time></trkpt><trkpt lat="45.96012348591437" lon="8.762976345970149"><ele>236.0</ele><time>2026-04-25T09:05:41Z</time></trkpt><trkpt lat="45.960217937855404" lon="8.762769216883493"><ele>236.0</ele><time>2026-04-25T09:05:42Z</time></trkpt><trkpt lat="45.96029731443454" lon="8.762551772748258"><ele>236.0</ele><time>2026-04-25T09:05:43Z</time></trkpt><trkpt lat="45.96036839139442" lon="8.76231535980381"><ele>236.0</ele><time>2026-04-25T09:05:44Z</time></trkpt><trkpt lat="45.96044151973685" lon="8.762087659111405"><ele>236.0</ele><time>2026-04-25T09:05:45Z</time></trkpt><trkpt lat="45.960511682001254" lon="8.761876452161408"><ele>233.75</ele><time>2026-04-25T09:05:46Z</time></trkpt><trkpt lat="45.96057862732709" lon="8.761680805418521"><ele>231.5</ele><time>2026-04-25T09:05:47Z</time></trkpt><trkpt lat="45.96064704015775" lon="8.76149933968931"><ele>229.25</ele><time>2026-04-25T09:05:48Z</time></trkpt><trkpt lat="45.96071425420149" lon="8.76132585750633"><ele>227.0</ele><time>2026-04-25T09:05:49Z</time></trkpt><trkpt lat="45.96078491395415" lon="8.761163819063981"><ele>226.5</ele><time>2026-04-25T09:05:50Z</time></trkpt><trkpt lat="45.96087370468076" lon="8.761012783578124"><ele>226.0</ele><time>2026-04-25T09:05:51Z</time></trkpt><trkpt lat="45.960979337842645" lon="8.760864642488452"><ele>225.5</ele><time>2026-04-25T09:05:52Z</time></trkpt><trkpt lat="45.96110482873228" lon="8.760740200625811"><ele>225.0</ele><time>2026-04-25T09:05:53Z</time></trkpt><trkpt lat="45.961240222537874" lon="8.760648430604787"><ele>225.0</ele><time>2026-04-25T09:05:54Z</time></trkpt><trkpt lat="45.96137477126016" lon="8.76056829737306"><ele>225.0</ele><time>2026-04-25T09:05:55Z</time></trkpt><trkpt lat="45.96151015843828" lon="8.760493414835283"><ele>225.0</ele><time>2026-04-25T09:05:56Z</time></trkpt><trkpt lat="45.96163651674359" lon="8.760422556576867"><ele>225.0</ele><time>2026-04-25T09:05:57Z</time></trkpt><trkpt lat="45.96175520369823" lon="8.760354410098996"><ele>226.0</ele><time>2026-04-25T09:05:58Z</time></trkpt><trkpt lat="45.96186680915039" lon="8.76028690538995"><ele>227.0</ele><time>2026-04-25T09:05:59Z</time></trkpt><trkpt lat="45.961973739732606" lon="8.76022339262948"><ele>228.0</ele><time>2026-04-25T09:06:00Z</time></trkpt><trkpt lat="45.96207773757029" lon="8.760165849409903"><ele>229.0</ele><time>2026-04-25T09:06:01Z</time></trkpt><trkpt lat="45.96218040211586" lon="8.760105464944672"><ele>229.0</ele><time>2026-04-25T09:06:02Z</time></trkpt><trkpt lat="45.96228490770149" lon="8.760043001438747"><ele>229.0</ele><time>2026-04-25T09:06:03Z</time></trkpt><trkpt lat="45.962392931684626" lon="8.759979742564449"><ele>229.0</ele><time>2026-04-25T09:06:04Z</time></trkpt><trkpt lat="45.962507890736546" lon="8.759912446231297"><ele>229.0</ele><time>2026-04-25T09:06:05Z</time></trkpt><trkpt lat="45.96262997488574" lon="8.759833089224028"><ele>233.5</ele><time>2026-04-25T09:06:06Z</time></trkpt><trkpt lat="45.96276437516418" lon="8.75976460321427"><ele>238.0</ele><time>2026-04-25T09:06:07Z</time></trkpt><trkpt lat="45.962895245138434" lon="8.759681683476385"><ele>242.5</ele><time>2026-04-25T09:06:08Z</time></trkpt><trkpt lat="45.96303131395664" lon="8.759599075349731"><ele>247.0</ele><time>2026-04-25T09:06:09Z</time></trkpt><trkpt lat="45.96315671157471" lon="8.759527094618475"><ele>247.0</ele><time>2026-04-25T09:06:10Z</time></trkpt><trkpt lat="45.96326993033011" lon="8.759457049600588"><ele>247.0</ele><time>2026-04-25T09:06:11Z</time></trkpt><trkpt lat="45.96337846225515" lon="8.759392458558102"><ele>247.0</ele><time>2026-04-25T09:06:12Z</time></trkpt><trkpt lat="45.96347889250275" lon="8.759332538136611"><ele>247.0</ele><time>2026-04-25T09:06:13Z</time></trkpt><trkpt lat="45.96358254966251" lon="8.759273722862423"><ele>243.0</ele><time>2026-04-25T09:06:14Z</time></trkpt><trkpt lat="45.96368938351438" lon="8.759217454665876"><ele>239.0</ele><time>2026-04-25T09:06:15Z</time></trkpt><trkpt lat="45.96380164001585" lon="8.759162188458335"><ele>235.0</ele><time>2026-04-25T09:06:16Z</time></trkpt><trkpt lat="45.963921530378386" lon="8.7591161038346"><ele>231.0</ele><time>2026-04-25T09:06:17Z</time></trkpt><trkpt lat="45.96405334076063" lon="8.759080459146155"><ele>231.0</ele><time>2026-04-25T09:06:18Z</time></trkpt><trkpt lat="45.964191398680455" lon="8.759044952799258"><ele>231.0</ele><time>2026-04-25T09:06:19Z</time></trkpt><trkpt lat="45.9643399513734" lon="8.759009636612982"><ele>231.0</ele><time>2026-04-25T09:06:20Z</time></trkpt><trkpt lat="45.96449094069773" lon="8.758965498574417"><ele>231.0</ele><time>2026-04-25T09:06:21Z</time></trkpt><trkpt lat="45.96463003260722" lon="8.758916955427246"><ele>235.5</ele><time>2026-04-25T09:06:22Z</time></trkpt><trkpt lat="45.96475483919214" lon="8.75886110655099"><ele>240.0</ele><time>2026-04-25T09:06:23Z</time></trkpt><trkpt lat="45.9648734690297" lon="8.758802167312895"><ele>244.5</ele><time>2026-04-25T09:06:24Z</time></trkpt><trkpt lat="45.96499038417167" lon="8.758736164916762"><ele>249.0</ele><time>2026-04-25T09:06:25Z</time></trkpt><trkpt lat="45.96511550192488" lon="8.758663856691125"><ele>244.75</ele><time>2026-04-25T09:06:26Z</time></trkpt><trkpt lat="45.96523308913283" lon="8.758590904901675"><ele>240.5</ele><time>2026-04-25T09:06:27Z</time></trkpt><trkpt lat="45.965348933288915" lon="8.758522286837785"><ele>236.25</ele><time>2026-04-25T09:06:28Z</time></trkpt><trkpt lat="45.96545854248097" lon="8.758456800813093"><ele>232.0</ele><time>2026-04-25T09:06:29Z</time></trkpt><trkpt lat="45.96556095052343" lon="8.758398373166772"><ele>232.0</ele><time>2026-04-25T09:06:30Z</time></trkpt><trkpt lat="45.965662681386995" lon="8.7583419578072"><ele>232.0</ele><time>2026-04-25T09:06:31Z</time></trkpt><trkpt lat="45.965770707517756" lon="8.75828417373965"><ele>232.0</ele><time>2026-04-25T09:06:32Z</time></trkpt><trkpt lat="45.965884040844244" lon="8.758219614044943"><ele>232.0</ele><time>2026-04-25T09:06:33Z</time></trkpt><trkpt lat="45.96599965328705" lon="8.758147997963471"><ele>237.0</ele><time>2026-04-25T09:06:34Z</time></trkpt><trkpt lat="45.96611896182869" lon="8.758071063490647"><ele>242.0</ele><time>2026-04-25T09:06:35Z</time></trkpt><trkpt lat="45.96622884430782" lon="8.757992106856541"><ele>247.0</ele><time>2026-04-25T09:06:36Z</time></trkpt><trkpt lat="45.96633105507313" lon="8.75793205485699"><ele>252.0</ele><time>2026-04-25T09:06:37Z</time></trkpt><trkpt lat="45.96641467403451" lon="8.757850205212783"><ele>252.0</ele><time>2026-04-25T09:06:38Z</time></trkpt><trkpt lat="45.96652835162459" lon="8.757775894713"><ele>252.0</ele><time>2026-04-25T09:06:39Z</time></trkpt><trkpt lat="45.96662555371269" lon="8.75771013857677"><ele>252.0</ele><time>2026-04-25T09:06:40Z</time></trkpt><trkpt lat="45.966715745269205" lon="8.757643114115512"><ele>252.0</ele><time>2026-04-25T09:06:41Z</time></trkpt><trkpt lat="45.9668037352975" lon="8.757574102529967"><ele>252.0</ele><time>2026-04-25T09:06:42Z</time></trkpt><trkpt lat="45.96688951427457" lon="8.757507577891074"><ele>248.8</ele><time>2026-04-25T09:06:43Z</time></trkpt><trkpt lat="45.96697895401861" lon="8.757436308446012"><ele>245.6</ele><time>2026-04-25T09:06:44Z</time></trkpt><trkpt lat="45.967077564436394" lon="8.757358393089945"><ele>242.40000000000003</ele><time>2026-04-25T09:06:45Z</time></trkpt><trkpt lat="45.96718114560615" lon="8.757286300057439"><ele>239.20000000000002</ele><time>2026-04-25T09:06:46Z</time></trkpt><trkpt lat="45.967282546379735" lon="8.75721266058222"><ele>236.0</ele><time>2026-04-25T09:06:47Z</time></trkpt><trkpt lat="45.96738237976331" lon="8.757143161145477"><ele>236.0</ele><time>2026-04-25T09:06:48Z</time></trkpt><trkpt lat="45.96747598188959" lon="8.757074401993453"><ele>236.00000000000003</ele><time>2026-04-25T09:06:49Z</time></trkpt><trkpt lat="45.96756758699194" lon="8.757006636107242"><ele>236.00000000000003</ele><time>2026-04-25T09:06:50Z</time></trkpt><trkpt lat="45.96765906712962" lon="8.756943098659502"><ele>236.0</ele><time>2026-04-25T09:06:51Z</time></trkpt><trkpt lat="45.96776598893437" lon="8.756897543040505"><ele>236.0</ele><time>2026-04-25T09:06:52Z</time></trkpt><trkpt lat="45.96786879719552" lon="8.756845205595926"><ele>237.20000000000002</ele><time>2026-04-25T09:06:53Z</time></trkpt><trkpt lat="45.967968814387476" lon="8.756780221576339"><ele>238.40000000000003</ele><time>2026-04-25T09:06:53.999Z</time></trkpt><trkpt lat="45.968077028975635" lon="8.756804767253564"><ele>239.6</ele><time>2026-04-25T09:06:54.999Z</time></trkpt><trkpt lat="45.968192213203004" lon="8.756798899269915"><ele>240.8</ele><time>2026-04-25T09:06:55.999Z</time></trkpt><trkpt lat="45.96830343497365" lon="8.756777113039059"><ele>242.0</ele><time>2026-04-25T09:06:56.999Z</time></trkpt><trkpt lat="45.968412846495575" lon="8.756763879991725"><ele>242.0</ele><time>2026-04-25T09:06:57.999Z</time></trkpt><trkpt lat="45.968524074157116" lon="8.756711993334202"><ele>242.0</ele><time>2026-04-25T09:06:58.999Z</time></trkpt><trkpt lat="45.968634903304796" lon="8.75665307808853"><ele>242.0</ele><time>2026-04-25T09:06:59.999Z</time></trkpt><trkpt lat="45.96874274833083" lon="8.75657376619617"><ele>242.0</ele><time>2026-04-25T09:07:00.999Z</time></trkpt><trkpt lat="45.96885136984369" lon="8.756481791330565"><ele>242.0</ele><time>2026-04-25T09:07:01.999Z</time></trkpt><trkpt lat="45.96895784970851" lon="8.756377852977753"><ele>242.0</ele><time>2026-04-25T09:07:02.999Z</time></trkpt><trkpt lat="45.96906168060225" lon="8.756273027097002"><ele>242.0</ele><time>2026-04-25T09:07:03.999Z</time></trkpt><trkpt lat="45.969169492114375" lon="8.756166655502739"><ele>242.0</ele><time>2026-04-25T09:07:04.999Z</time></trkpt><trkpt lat="45.96928166364398" lon="8.75605945089254"><ele>239.75</ele><time>2026-04-25T09:07:05.999Z</time></trkpt><trkpt lat="45.96939979715436" lon="8.755964381757419"><ele>237.5</ele><time>2026-04-25T09:07:06.999Z</time></trkpt><trkpt lat="45.96952091376078" lon="8.7558587941323"><ele>235.25</ele><time>2026-04-25T09:07:07.999Z</time></trkpt><trkpt lat="45.96964306322828" lon="8.755756238058886"><ele>233.0</ele><time>2026-04-25T09:07:08.999Z</time></trkpt><trkpt lat="45.96975885760894" lon="8.75567200910046"><ele>233.0</ele><time>2026-04-25T09:07:09.999Z</time></trkpt><trkpt lat="45.96986630761146" lon="8.755581496188176"><ele>233.0</ele><time>2026-04-25T09:07:10.999Z</time></trkpt><trkpt lat="45.969970761399146" lon="8.755492058888738"><ele>233.0</ele><time>2026-04-25T09:07:11.999Z</time></trkpt><trkpt lat="45.970072585228856" lon="8.75540297976189"><ele>233.0</ele><time>2026-04-25T09:07:12.999Z</time></trkpt><trkpt lat="45.97017715719254" lon="8.755315866489092"><ele>230.75</ele><time>2026-04-25T09:07:13.999Z</time></trkpt><trkpt lat="45.970285357356445" lon="8.755233992487149"><ele>228.5</ele><time>2026-04-25T09:07:14.999Z</time></trkpt><trkpt lat="45.97039274845665" lon="8.755160865132597"><ele>226.25</ele><time>2026-04-25T09:07:15.999Z</time></trkpt><trkpt lat="45.97050283128187" lon="8.755101835970407"><ele>224.0</ele><time>2026-04-25T09:07:16.999Z</time></trkpt><trkpt lat="45.97061901393851" lon="8.755071214081198"><ele>224.0</ele><time>2026-04-25T09:07:17.999Z</time></trkpt><trkpt lat="45.97073935213079" lon="8.755059402228756"><ele>224.0</ele><time>2026-04-25T09:07:18.999Z</time></trkpt><trkpt lat="45.97086670451072" lon="8.755065941002913"><ele>224.0</ele><time>2026-04-25T09:07:19.999Z</time></trkpt><trkpt lat="45.97100034840579" lon="8.755073010246393"><ele>224.0</ele><time>2026-04-25T09:07:20.999Z</time></trkpt><trkpt lat="45.971134586440556" lon="8.755065874369587"><ele>223.5</ele><time>2026-04-25T09:07:21.999Z</time></trkpt><trkpt lat="45.9712767693838" lon="8.755063036817434"><ele>223.0</ele><time>2026-04-25T09:07:23Z</time></trkpt><trkpt lat="45.97142308869742" lon="8.755061215737205"><ele>222.5</ele><time>2026-04-25T09:07:24Z</time></trkpt><trkpt lat="45.971570757872385" lon="8.755056882198739"><ele>222.0</ele><time>2026-04-25T09:07:25Z</time></trkpt><trkpt lat="45.97171768862837" lon="8.755055631233226"><ele>220.75</ele><time>2026-04-25T09:07:26Z</time></trkpt><trkpt lat="45.97185702982927" lon="8.755052778164439"><ele>219.5</ele><time>2026-04-25T09:07:27Z</time></trkpt><trkpt lat="45.97198406311345" lon="8.755051278674706"><ele>218.25</ele><time>2026-04-25T09:07:28Z</time></trkpt><trkpt lat="45.97210864349845" lon="8.755048728627825"><ele>217.0</ele><time>2026-04-25T09:07:29Z</time></trkpt><trkpt lat="45.972230010581995" lon="8.755044804261345"><ele>217.0</ele><time>2026-04-25T09:07:30Z</time></trkpt><trkpt lat="45.9723627730754" lon="8.755032847833117"><ele>217.0</ele><time>2026-04-25T09:07:31Z</time></trkpt><trkpt lat="45.972505730766905" lon="8.755001260940638"><ele>217.0</ele><time>2026-04-25T09:07:32Z</time></trkpt><trkpt lat="45.97264513219816" lon="8.754955085384262"><ele>217.0</ele><time>2026-04-25T09:07:33Z</time></trkpt><trkpt lat="45.972785533180236" lon="8.754909662560786"><ele>220.5</ele><time>2026-04-25T09:07:34Z</time></trkpt><trkpt lat="45.972917407277855" lon="8.754860108967348"><ele>224.0</ele><time>2026-04-25T09:07:35Z</time></trkpt><trkpt lat="45.97304150016158" lon="8.754795402248497"><ele>227.5</ele><time>2026-04-25T09:07:36Z</time></trkpt><trkpt lat="45.97315947005992" lon="8.75471760382241"><ele>231.0</ele><time>2026-04-25T09:07:37Z</time></trkpt><trkpt lat="45.97327108294546" lon="8.754641333631003"><ele>228.5</ele><time>2026-04-25T09:07:38Z</time></trkpt><trkpt lat="45.9733774718752" lon="8.754554917242704"><ele>226.0</ele><time>2026-04-25T09:07:39Z</time></trkpt><trkpt lat="45.97348768425977" lon="8.75446510589147"><ele>223.5</ele><time>2026-04-25T09:07:40Z</time></trkpt><trkpt lat="45.97359658380906" lon="8.754366886231518"><ele>221.0</ele><time>2026-04-25T09:07:41Z</time></trkpt><trkpt lat="45.97370389617433" lon="8.754266439059128"><ele>221.0</ele><time>2026-04-25T09:07:42Z</time></trkpt><trkpt lat="45.97380959491935" lon="8.75416201174244"><ele>221.0</ele><time>2026-04-25T09:07:43Z</time></trkpt><trkpt lat="45.973909817318614" lon="8.754051072750052"><ele>221.0</ele><time>2026-04-25T09:07:44Z</time></trkpt><trkpt lat="45.97399880926062" lon="8.753934367703447"><ele>221.0</ele><time>2026-04-25T09:07:45Z</time></trkpt><trkpt lat="45.97407821835849" lon="8.753806407055773"><ele>221.0</ele><time>2026-04-25T09:07:46Z</time></trkpt><trkpt lat="45.97416338873245" lon="8.753672674388158"><ele>221.0</ele><time>2026-04-25T09:07:47Z</time></trkpt><trkpt lat="45.974254144785334" lon="8.753540831763988"><ele>221.0</ele><time>2026-04-25T09:07:48Z</time></trkpt><trkpt lat="45.97435216939898" lon="8.75340215033461"><ele>221.0</ele><time>2026-04-25T09:07:49Z</time></trkpt><trkpt lat="45.974463553116706" lon="8.753232053764442"><ele>217.33333333333334</ele><time>2026-04-25T09:07:50Z</time></trkpt><trkpt lat="45.97458918803933" lon="8.753053905551852"><ele>213.66666666666669</ele><time>2026-04-25T09:07:51Z</time></trkpt><trkpt lat="45.9747113723726" lon="8.752878257860212"><ele>210.0</ele><time>2026-04-25T09:07:52Z</time></trkpt><trkpt lat="45.974821894205355" lon="8.752727380923883"><ele>210.0</ele><time>2026-04-25T09:07:53Z</time></trkpt><trkpt lat="45.97492971400619" lon="8.7525966570479"><ele>210.0</ele><time>2026-04-25T09:07:54Z</time></trkpt><trkpt lat="45.97505195982417" lon="8.75246613137482"><ele>210.0</ele><time>2026-04-25T09:07:55Z</time></trkpt><trkpt lat="45.97521737532641" lon="8.752345794907683"><ele>210.0</ele><time>2026-04-25T09:07:56Z</time></trkpt><trkpt lat="45.97539750033534" lon="8.752186730879236"><ele>210.0</ele><time>2026-04-25T09:07:57Z</time></trkpt><trkpt lat="45.97557955665822" lon="8.752025961348307"><ele>210.0</ele><time>2026-04-25T09:07:58Z</time></trkpt><trkpt lat="45.97573744441984" lon="8.751885265285056"><ele>208.66666666666669</ele><time>2026-04-25T09:07:59Z</time></trkpt><trkpt lat="45.97587546797454" lon="8.751738064702376"><ele>207.33333333333334</ele><time>2026-04-25T09:08:00Z</time></trkpt><trkpt lat="45.97603329777557" lon="8.751623911973287"><ele>206.0</ele><time>2026-04-25T09:08:01Z</time></trkpt><trkpt lat="45.97617905958947" lon="8.751541801366209"><ele>206.0</ele><time>2026-04-25T09:08:02Z</time></trkpt><trkpt lat="45.97631602117286" lon="8.751489299785922"><ele>206.0</ele><time>2026-04-25T09:08:03Z</time></trkpt><trkpt lat="45.97645834198191" lon="8.75145915947102"><ele>206.0</ele><time>2026-04-25T09:08:04Z</time></trkpt><trkpt lat="45.976626721108666" lon="8.751422465791062"><ele>208.0</ele><time>2026-04-25T09:08:05Z</time></trkpt><trkpt lat="45.9768392477951" lon="8.751430863540616"><ele>210.0</ele><time>2026-04-25T09:08:06Z</time></trkpt><trkpt lat="45.97707160823709" lon="8.75141974092135"><ele>212.0</ele><time>2026-04-25T09:08:07Z</time></trkpt><trkpt lat="45.97730808452834" lon="8.751384544326736"><ele>218.0</ele><time>2026-04-25T09:08:08Z</time></trkpt><trkpt lat="45.9775424712579" lon="8.751387333964585"><ele>224.0</ele><time>2026-04-25T09:08:09Z</time></trkpt><trkpt lat="45.977758217674186" lon="8.751373881445392"><ele>224.0</ele><time>2026-04-25T09:08:10Z</time></trkpt><trkpt lat="45.97796060941763" lon="8.751359866935429"><ele>224.0</ele><time>2026-04-25T09:08:11Z</time></trkpt><trkpt lat="45.97814332412641" lon="8.751338597638231"><ele>224.0</ele><time>2026-04-25T09:08:12Z</time></trkpt><trkpt lat="45.97830710144893" lon="8.751294339147547"><ele>221.0</ele><time>2026-04-25T09:08:13Z</time></trkpt><trkpt lat="45.97847789073835" lon="8.751215850055322"><ele>218.0</ele><time>2026-04-25T09:08:14Z</time></trkpt><trkpt lat="45.9786661809772" lon="8.751093071169233"><ele>215.0</ele><time>2026-04-25T09:08:15Z</time></trkpt><trkpt lat="45.97887147813941" lon="8.750914489209306"><ele>215.0</ele><time>2026-04-25T09:08:16Z</time></trkpt><trkpt lat="45.97908271502647" lon="8.750722665662817"><ele>215.0</ele><time>2026-04-25T09:08:17Z</time></trkpt><trkpt lat="45.979291384080184" lon="8.750536120160875"><ele>213.33333333333334</ele><time>2026-04-25T09:08:18Z</time></trkpt><trkpt lat="45.979487591485324" lon="8.750370323696849"><ele>211.66666666666669</ele><time>2026-04-25T09:08:19Z</time></trkpt><trkpt lat="45.979674797837404" lon="8.750214716253554"><ele>210.0</ele><time>2026-04-25T09:08:20Z</time></trkpt><trkpt lat="45.979864780385846" lon="8.750058261517621"><ele>212.66666666666669</ele><time>2026-04-25T09:08:21Z</time></trkpt><trkpt lat="45.98004795540847" lon="8.749914106886262"><ele>215.33333333333334</ele><time>2026-04-25T09:08:22Z</time></trkpt><trkpt lat="45.98022925647367" lon="8.749795698317413"><ele>218.0</ele><time>2026-04-25T09:08:23Z</time></trkpt><trkpt lat="45.980405610212514" lon="8.749712292653212"><ele>218.0</ele><time>2026-04-25T09:08:24Z</time></trkpt><trkpt lat="45.98060425784049" lon="8.749650762735216"><ele>218.0</ele><time>2026-04-25T09:08:25Z</time></trkpt><trkpt lat="45.980816236525776" lon="8.749621945007274"><ele>218.0</ele><time>2026-04-25T09:08:26Z</time></trkpt><trkpt lat="45.981061123944905" lon="8.749586767327058"><ele>219.5</ele><time>2026-04-25T09:08:27Z</time></trkpt><trkpt lat="45.981314773942415" lon="8.749559178150582"><ele>221.0</ele><time>2026-04-25T09:08:28Z</time></trkpt><trkpt lat="45.98154711010775" lon="8.74953740684938"><ele>220.66666666666669</ele><time>2026-04-25T09:08:29Z</time></trkpt><trkpt lat="45.98176651617206" lon="8.749513664141757"><ele>220.33333333333331</ele><time>2026-04-25T09:08:30Z</time></trkpt><trkpt lat="45.98196896581775" lon="8.74949798676375"><ele>220.0</ele><time>2026-04-25T09:08:31Z</time></trkpt><trkpt lat="45.98216023109676" lon="8.74949206455909"><ele>220.0</ele><time>2026-04-25T09:08:32Z</time></trkpt><trkpt lat="45.98233461675204" lon="8.7494931044957"><ele>220.0</ele><time>2026-04-25T09:08:33Z</time></trkpt><trkpt lat="45.98248214908141" lon="8.74949377966307"><ele>220.0</ele><time>2026-04-25T09:08:34Z</time></trkpt><trkpt lat="45.98260695487521" lon="8.749490729193516"><ele>220.0</ele><time>2026-04-25T09:08:35Z</time></trkpt><trkpt lat="45.98270305229868" lon="8.749496148788035"><ele>219.0</ele><time>2026-04-25T09:08:36Z</time></trkpt><trkpt lat="45.98279092374433" lon="8.749528450575113"><ele>218.0</ele><time>2026-04-25T09:08:37Z</time></trkpt><trkpt lat="45.98287824418278" lon="8.749561296856893"><ele>217.0</ele><time>2026-04-25T09:08:38Z</time></trkpt><trkpt lat="45.982977788876674" lon="8.749544863510746"><ele>216.0</ele><time>2026-04-25T09:08:39Z</time></trkpt><trkpt lat="45.983113380101315" lon="8.749490420008563"><ele>215.0</ele><time>2026-04-25T09:08:40Z</time></trkpt><trkpt lat="45.98328753986338" lon="8.74948963161751"><ele>213.33333333333334</ele><time>2026-04-25T09:08:41Z</time></trkpt><trkpt lat="45.9834875459869" lon="8.749469983679411"><ele>211.66666666666669</ele><time>2026-04-25T09:08:42Z</time></trkpt><trkpt lat="45.98369035388164" lon="8.749473068073227"><ele>210.0</ele><time>2026-04-25T09:08:43Z</time></trkpt><trkpt lat="45.98386653652747" lon="8.749470840055084"><ele>210.0</ele><time>2026-04-25T09:08:44Z</time></trkpt><trkpt lat="45.9840133779006" lon="8.749476369967821"><ele>210.0</ele><time>2026-04-25T09:08:45Z</time></trkpt><trkpt lat="45.984136707303286" lon="8.749501509371216"><ele>210.0</ele><time>2026-04-25T09:08:46Z</time></trkpt><trkpt lat="45.984246005730434" lon="8.74954986060567"><ele>210.0</ele><time>2026-04-25T09:08:47Z</time></trkpt><trkpt lat="45.984350568731955" lon="8.749627536004647"><ele>209.75</ele><time>2026-04-25T09:08:48Z</time></trkpt><trkpt lat="45.98447086203258" lon="8.749720728670146"><ele>209.5</ele><time>2026-04-25T09:08:49Z</time></trkpt><trkpt lat="45.98460387168502" lon="8.749822005840024"><ele>209.25</ele><time>2026-04-25T09:08:50Z</time></trkpt><trkpt lat="45.98472066807285" lon="8.749914171894277"><ele>209.0</ele><time>2026-04-25T09:08:51Z</time></trkpt><trkpt lat="45.98481195445331" lon="8.74998398697546"><ele>209.00000000000003</ele><time>2026-04-25T09:08:52Z</time></trkpt><trkpt lat="45.98489416606365" lon="8.750048853776086"><ele>209.0</ele><time>2026-04-25T09:08:53Z</time></trkpt><trkpt lat="45.98495538969071" lon="8.750102470164265"><ele>209.0</ele><time>2026-04-25T09:08:54Z</time></trkpt><trkpt lat="45.985019715372374" lon="8.750219872284525"><ele>209.0</ele><time>2026-04-25T09:08:56Z</time></trkpt><trkpt lat="45.98505103969801" lon="8.750304522064264"><ele>209.00000000000003</ele><time>2026-04-25T09:08:57Z</time></trkpt><trkpt lat="45.98510545671938" lon="8.750371972618378"><ele>209.0</ele><time>2026-04-25T09:08:58Z</time></trkpt><trkpt lat="45.985174499732814" lon="8.750385926217822"><ele>209.25</ele><time>2026-04-25T09:08:59Z</time></trkpt><trkpt lat="45.98524355850043" lon="8.750328713386303"><ele>209.5</ele><time>2026-04-25T09:09:00Z</time></trkpt><trkpt lat="45.985311897101525" lon="8.7502220353688"><ele>209.75</ele><time>2026-04-25T09:09:01Z</time></trkpt><trkpt lat="45.98540985220036" lon="8.750136168977576"><ele>210.0</ele><time>2026-04-25T09:09:02Z</time></trkpt><trkpt lat="45.985568621735794" lon="8.750078614453473"><ele>210.0</ele><time>2026-04-25T09:09:03Z</time></trkpt><trkpt lat="45.985735037985286" lon="8.750017722864946"><ele>210.0</ele><time>2026-04-25T09:09:04Z</time></trkpt><trkpt lat="45.985904868173456" lon="8.749948449937484"><ele>210.0</ele><time>2026-04-25T09:09:05Z</time></trkpt><trkpt lat="45.986060933632515" lon="8.74988340458008"><ele>209.5</ele><time>2026-04-25T09:09:05.999Z</time></trkpt><trkpt lat="45.98618826301612" lon="8.749838780654798"><ele>209.0</ele><time>2026-04-25T09:09:06.999Z</time></trkpt><trkpt lat="45.98631696837354" lon="8.74977935350755"><ele>208.5</ele><time>2026-04-25T09:09:07.999Z</time></trkpt><trkpt lat="45.98643314372384" lon="8.749735738872856"><ele>208.0</ele><time>2026-04-25T09:09:08.999Z</time></trkpt><trkpt lat="45.98654356120057" lon="8.74969058283865"><ele>208.0</ele><time>2026-04-25T09:09:09.999Z</time></trkpt><trkpt lat="45.98667136319843" lon="8.749638187184456"><ele>208.0</ele><time>2026-04-25T09:09:10.999Z</time></trkpt><trkpt lat="45.986801475042036" lon="8.749586094340158"><ele>208.0</ele><time>2026-04-25T09:09:11.999Z</time></trkpt><trkpt lat="45.98692364230211" lon="8.74953673917011"><ele>208.0</ele><time>2026-04-25T09:09:12.999Z</time></trkpt><trkpt lat="45.98704103923051" lon="8.749489869681723"><ele>207.75</ele><time>2026-04-25T09:09:13.999Z</time></trkpt><trkpt lat="45.987159696438965" lon="8.749441950329546"><ele>207.5</ele><time>2026-04-25T09:09:14.999Z</time></trkpt><trkpt lat="45.98728204699292" lon="8.749387114797804"><ele>207.25</ele><time>2026-04-25T09:09:15.999Z</time></trkpt><trkpt lat="45.98740677392337" lon="8.749330686676505"><ele>207.0</ele><time>2026-04-25T09:09:16.999Z</time></trkpt><trkpt lat="45.98753155895037" lon="8.749279253918097"><ele>206.0</ele><time>2026-04-25T09:09:17.999Z</time></trkpt><trkpt lat="45.987666396942" lon="8.749226148723555"><ele>205.0</ele><time>2026-04-25T09:09:18.999Z</time></trkpt><trkpt lat="45.98780185320745" lon="8.749172866413653"><ele>204.0</ele><time>2026-04-25T09:09:19.999Z</time></trkpt><trkpt lat="45.98794925867645" lon="8.749111999762823"><ele>203.0</ele><time>2026-04-25T09:09:20.999Z</time></trkpt><trkpt lat="45.98810464206486" lon="8.74904643064095"><ele>203.0</ele><time>2026-04-25T09:09:21.999Z</time></trkpt><trkpt lat="45.98825708621403" lon="8.748986634207352"><ele>203.0</ele><time>2026-04-25T09:09:22.999Z</time></trkpt><trkpt lat="45.98840115257594" lon="8.748925961666313"><ele>203.0</ele><time>2026-04-25T09:09:23.999Z</time></trkpt><trkpt lat="45.98855062083806" lon="8.748859315818796"><ele>203.33333333333334</ele><time>2026-04-25T09:09:24.999Z</time></trkpt><trkpt lat="45.988706445365864" lon="8.748797351563606"><ele>203.66666666666669</ele><time>2026-04-25T09:09:25.999Z</time></trkpt><trkpt lat="45.98886619292113" lon="8.748733193289203"><ele>204.0</ele><time>2026-04-25T09:09:26.999Z</time></trkpt><trkpt lat="45.989027786457626" lon="8.748669695762823"><ele>203.33333333333331</ele><time>2026-04-25T09:09:27.999Z</time></trkpt><trkpt lat="45.98919888815057" lon="8.748600309398157"><ele>202.66666666666666</ele><time>2026-04-25T09:09:29Z</time></trkpt><trkpt lat="45.9893696630252" lon="8.748532758933496"><ele>202.0</ele><time>2026-04-25T09:09:30Z</time></trkpt><trkpt lat="45.98952380225635" lon="8.748462632956176"><ele>202.0</ele><time>2026-04-25T09:09:31Z</time></trkpt><trkpt lat="45.98968815446365" lon="8.748397571446619"><ele>202.0</ele><time>2026-04-25T09:09:32Z</time></trkpt><trkpt lat="45.98985348025694" lon="8.748330718742118"><ele>202.0</ele><time>2026-04-25T09:09:33Z</time></trkpt><trkpt lat="45.990027483161185" lon="8.748251818462956"><ele>203.33333333333331</ele><time>2026-04-25T09:09:34Z</time></trkpt><trkpt lat="45.99020335106518" lon="8.748175951227868"><ele>204.66666666666669</ele><time>2026-04-25T09:09:35Z</time></trkpt><trkpt lat="45.99037959079398" lon="8.74809976318816"><ele>206.0</ele><time>2026-04-25T09:09:36Z</time></trkpt><trkpt lat="45.990537320025865" lon="8.748032702140213"><ele>206.0</ele><time>2026-04-25T09:09:37Z</time></trkpt><trkpt lat="45.99067985775676" lon="8.747973795054966"><ele>206.0</ele><time>2026-04-25T09:09:38Z</time></trkpt><trkpt lat="45.99079611261507" lon="8.747930436008259"><ele>206.0</ele><time>2026-04-25T09:09:39Z</time></trkpt><trkpt lat="45.990903235155294" lon="8.747890497507802"><ele>206.0</ele><time>2026-04-25T09:09:40Z</time></trkpt><trkpt lat="45.990995746564735" lon="8.747838959590451"><ele>206.20000000000002</ele><time>2026-04-25T09:09:41Z</time></trkpt><trkpt lat="45.99108216252397" lon="8.747767506646174"><ele>206.4</ele><time>2026-04-25T09:09:42Z</time></trkpt><trkpt lat="45.99115685885235" lon="8.747686247256295"><ele>206.6</ele><time>2026-04-25T09:09:43Z</time></trkpt><trkpt lat="45.99121129717577" lon="8.747625329393731"><ele>206.8</ele><time>2026-04-25T09:09:44Z</time></trkpt><trkpt lat="45.99131893565873" lon="8.747510397626163"><ele>207.0</ele><time>2026-04-25T09:09:46Z</time></trkpt><trkpt lat="45.991381130626266" lon="8.747412798093274"><ele>207.0</ele><time>2026-04-25T09:09:47Z</time></trkpt><trkpt lat="45.99144692350606" lon="8.747255957976082"><ele>207.0</ele><time>2026-04-25T09:09:48Z</time></trkpt><trkpt lat="45.991463882194886" lon="8.747007277093633"><ele>207.0</ele><time>2026-04-25T09:09:49Z</time></trkpt><trkpt lat="45.99153473569177" lon="8.746763879965535"><ele>206.33333333333331</ele><time>2026-04-25T09:09:50Z</time></trkpt><trkpt lat="45.9916025934075" lon="8.746465369430473"><ele>205.66666666666666</ele><time>2026-04-25T09:09:51Z</time></trkpt><trkpt lat="45.99168794435266" lon="8.746162889365435"><ele>205.0</ele><time>2026-04-25T09:09:52Z</time></trkpt><trkpt lat="45.99176325859686" lon="8.74590309092558"><ele>205.0</ele><time>2026-04-25T09:09:53Z</time></trkpt><trkpt lat="45.99182282817587" lon="8.74567474603775"><ele>205.0</ele><time>2026-04-25T09:09:54Z</time></trkpt><trkpt lat="45.99187760088529" lon="8.745461812453648"><ele>205.0</ele><time>2026-04-25T09:09:55Z</time></trkpt><trkpt lat="45.99192568493949" lon="8.745273791041516"><ele>204.8</ele><time>2026-04-25T09:09:56Z</time></trkpt><trkpt lat="45.99197275530216" lon="8.745104819717918"><ele>204.6</ele><time>2026-04-25T09:09:57Z</time></trkpt><trkpt lat="45.99201139014837" lon="8.74498118982685"><ele>204.39999999999998</ele><time>2026-04-25T09:09:58Z</time></trkpt><trkpt lat="45.99205232235461" lon="8.744883649780078"><ele>204.2</ele><time>2026-04-25T09:09:59Z</time></trkpt><trkpt lat="45.992104982281084" lon="8.744789312229814"><ele>204.0</ele><time>2026-04-25T09:10:00Z</time></trkpt><trkpt lat="45.99218375182429" lon="8.744690228992622"><ele>204.0</ele><time>2026-04-25T09:10:01Z</time></trkpt><trkpt lat="45.99228164905041" lon="8.744596569397565"><ele>204.0</ele><time>2026-04-25T09:10:02Z</time></trkpt><trkpt lat="45.99240195261467" lon="8.744504038627953"><ele>204.0</ele><time>2026-04-25T09:10:03Z</time></trkpt><trkpt lat="45.992523103223476" lon="8.744419889441414"><ele>204.0</ele><time>2026-04-25T09:10:04Z</time></trkpt><trkpt lat="45.99264347737848" lon="8.744339196080478"><ele>203.75</ele><time>2026-04-25T09:10:05Z</time></trkpt><trkpt lat="45.992751203580625" lon="8.744265289287448"><ele>203.5</ele><time>2026-04-25T09:10:06Z</time></trkpt><trkpt lat="45.99284721115517" lon="8.744196302423216"><ele>203.25</ele><time>2026-04-25T09:10:07Z</time></trkpt><trkpt lat="45.99294376698477" lon="8.744122726010032"><ele>203.0</ele><time>2026-04-25T09:10:08Z</time></trkpt><trkpt lat="45.99304679502948" lon="8.744050151949132"><ele>203.0</ele><time>2026-04-25T09:10:09Z</time></trkpt><trkpt lat="45.99314650270813" lon="8.74397073306116"><ele>203.0</ele><time>2026-04-25T09:10:10Z</time></trkpt><trkpt lat="45.99324531551168" lon="8.743900363247953"><ele>203.0</ele><time>2026-04-25T09:10:11Z</time></trkpt><trkpt lat="45.99335389435288" lon="8.743844844548061"><ele>203.0</ele><time>2026-04-25T09:10:12Z</time></trkpt><trkpt lat="45.993464866359396" lon="8.743842829271737"><ele>203.0</ele><time>2026-04-25T09:10:13Z</time></trkpt><trkpt lat="45.993573622066876" lon="8.743814814994204"><ele>203.0</ele><time>2026-04-25T09:10:14Z</time></trkpt><trkpt lat="45.99368599224401" lon="8.743865389174273"><ele>203.0</ele><time>2026-04-25T09:10:15Z</time></trkpt><trkpt lat="45.99380462127494" lon="8.743915498664668"><ele>203.0</ele><time>2026-04-25T09:10:16Z</time></trkpt><trkpt lat="45.99392351889314" lon="8.743969490555934"><ele>203.0</ele><time>2026-04-25T09:10:17Z</time></trkpt><trkpt lat="45.994047550329086" lon="8.74400246753859"><ele>203.0</ele><time>2026-04-25T09:10:18Z</time></trkpt><trkpt lat="45.994190634981045" lon="8.744045163949778"><ele>203.0</ele><time>2026-04-25T09:10:19Z</time></trkpt><trkpt lat="45.99435485460053" lon="8.744080078310882"><ele>203.0</ele><time>2026-04-25T09:10:20Z</time></trkpt><trkpt lat="45.994556385908524" lon="8.744119965943543"><ele>204.33333333333334</ele><time>2026-04-25T09:10:21Z</time></trkpt><trkpt lat="45.994743345821895" lon="8.744166551956935"><ele>205.66666666666669</ele><time>2026-04-25T09:10:22Z</time></trkpt><trkpt lat="45.994902385449016" lon="8.74419916682645"><ele>207.0</ele><time>2026-04-25T09:10:23Z</time></trkpt><trkpt lat="45.99507578697042" lon="8.744231255850393"><ele>208.0</ele><time>2026-04-25T09:10:24Z</time></trkpt><trkpt lat="45.99522966023439" lon="8.744249212336642"><ele>209.0</ele><time>2026-04-25T09:10:25Z</time></trkpt><trkpt lat="45.995369089291124" lon="8.744233769351082"><ele>210.0</ele><time>2026-04-25T09:10:26Z</time></trkpt><trkpt lat="45.995489171500175" lon="8.744202161853513"><ele>211.0</ele><time>2026-04-25T09:10:27Z</time></trkpt><trkpt lat="45.99559581103575" lon="8.744180033359477"><ele>211.0</ele><time>2026-04-25T09:10:28Z</time></trkpt><trkpt lat="45.995688647124474" lon="8.744172617803965"><ele>211.0</ele><time>2026-04-25T09:10:29Z</time></trkpt><trkpt lat="45.99576206402569" lon="8.74416110285346"><ele>211.0</ele><time>2026-04-25T09:10:30Z</time></trkpt><trkpt lat="45.995863274213164" lon="8.744149982677428"><ele>211.0</ele><time>2026-04-25T09:10:32Z</time></trkpt><trkpt lat="45.99595735549781" lon="8.74413534366753"><ele>211.0</ele><time>2026-04-25T09:10:34Z</time></trkpt><trkpt lat="45.99610981106283" lon="8.744111180428085"><ele>210.60000000000002</ele><time>2026-04-25T09:10:36Z</time></trkpt><trkpt lat="45.996198765286664" lon="8.744106439215402"><ele>210.2</ele><time>2026-04-25T09:10:37Z</time></trkpt><trkpt lat="45.99627111765209" lon="8.744105805087907"><ele>209.8</ele><time>2026-04-25T09:10:38Z</time></trkpt><trkpt lat="45.99637222749727" lon="8.744122421269283"><ele>209.39999999999998</ele><time>2026-04-25T09:10:40Z</time></trkpt><trkpt lat="45.9964872735723" lon="8.744212792987343"><ele>209.0</ele><time>2026-04-25T09:10:42Z</time></trkpt><trkpt lat="45.99656575737559" lon="8.744242954622464"><ele>209.00000000000003</ele><time>2026-04-25T09:10:43Z</time></trkpt><trkpt lat="45.996636908070414" lon="8.744241712984387"><ele>209.0</ele><time>2026-04-25T09:10:44Z</time></trkpt><trkpt lat="45.99668951616444" lon="8.744148608866423"><ele>209.0</ele><time>2026-04-25T09:10:45Z</time></trkpt><trkpt lat="45.99673958323058" lon="8.744063918349608"><ele>209.0</ele><time>2026-04-25T09:10:46Z</time></trkpt><trkpt lat="45.996792316942454" lon="8.74396815763253"><ele>209.00000000000003</ele><time>2026-04-25T09:10:47Z</time></trkpt><trkpt lat="45.99688089475707" lon="8.743947505715871"><ele>209.0</ele><time>2026-04-25T09:10:48Z</time></trkpt><trkpt lat="45.99695774887168" lon="8.743917703859971"><ele>208.66666666666669</ele><time>2026-04-25T09:10:49Z</time></trkpt><trkpt lat="45.99703523162124" lon="8.743905568881415"><ele>208.33333333333334</ele><time>2026-04-25T09:10:50Z</time></trkpt><trkpt lat="45.99710648535934" lon="8.743856656380096"><ele>208.0</ele><time>2026-04-25T09:10:51Z</time></trkpt><trkpt lat="45.997175175798226" lon="8.743795932233306"><ele>207.66666666666669</ele><time>2026-04-25T09:10:52Z</time></trkpt><trkpt lat="45.997243018929524" lon="8.743751646261288"><ele>207.33333333333334</ele><time>2026-04-25T09:10:53Z</time></trkpt><trkpt lat="45.99730327309175" lon="8.743721404751472"><ele>207.0</ele><time>2026-04-25T09:10:54Z</time></trkpt><trkpt lat="45.997330712084995" lon="8.743604432847828"><ele>207.0</ele><time>2026-04-25T09:10:56Z</time></trkpt><trkpt lat="45.997260177746746" lon="8.743513217362628"><ele>207.0</ele><time>2026-04-25T09:10:58Z</time></trkpt><trkpt lat="45.997148248298714" lon="8.7436040470802"><ele>207.0</ele><time>2026-04-25T09:11:00Z</time></trkpt><trkpt lat="45.99712669010637" lon="8.743713381095251"><ele>207.0</ele><time>2026-04-25T09:11:01Z</time></trkpt><trkpt lat="45.99709665317683" lon="8.743815285073032"><ele>207.0</ele><time>2026-04-25T09:11:02Z</time></trkpt><trkpt lat="45.99702192518854" lon="8.743890422175799"><ele>207.0</ele><time>2026-04-25T09:11:03Z</time></trkpt><trkpt lat="45.99694545604127" lon="8.743911381515382"><ele>207.0</ele><time>2026-04-25T09:11:04Z</time></trkpt><trkpt lat="45.99687160815532" lon="8.74390466691837"><ele>207.0</ele><time>2026-04-25T09:11:05Z</time></trkpt><trkpt lat="45.99677287087032" lon="8.743914041816868"><ele>207.0</ele><time>2026-04-25T09:11:07Z</time></trkpt><trkpt lat="45.996698394602326" lon="8.743937190857327"><ele>207.0</ele><time>2026-04-25T09:11:17Z</time></trkpt><trkpt lat="45.99661321428102" lon="8.743892416871555"><ele>207.0</ele><time>2026-04-25T09:11:19Z</time></trkpt><trkpt lat="45.996511897229965" lon="8.743889790824833"><ele>207.33333333333334</ele><time>2026-04-25T09:11:21Z</time></trkpt><trkpt lat="45.99644959877614" lon="8.743928796036204"><ele>207.66666666666669</ele><time>2026-04-25T09:11:21.999Z</time></trkpt><trkpt lat="45.99639206479802" lon="8.74399134030771"><ele>208.0</ele><time>2026-04-25T09:11:22.999Z</time></trkpt><trkpt lat="45.99641320286186" lon="8.744141303575265"><ele>208.33333333333334</ele><time>2026-04-25T09:11:23.999Z</time></trkpt><trkpt lat="45.996462724422905" lon="8.744235177917618"><ele>208.66666666666669</ele><time>2026-04-25T09:11:24.999Z</time></trkpt><trkpt lat="45.99653448509668" lon="8.744313922542219"><ele>209.0</ele><time>2026-04-25T09:11:25.999Z</time></trkpt><trkpt lat="45.99660360597015" lon="8.744396129415652"><ele>209.00000000000003</ele><time>2026-04-25T09:11:26.999Z</time></trkpt><trkpt lat="45.99663884266459" lon="8.744521930382907"><ele>209.0</ele><time>2026-04-25T09:11:27.999Z</time></trkpt><trkpt lat="45.99664103574804" lon="8.744668482119408"><ele>209.0</ele><time>2026-04-25T09:11:28.999Z</time></trkpt><trkpt lat="45.996654869659544" lon="8.744788757812977"><ele>209.0</ele><time>2026-04-25T09:11:29.999Z</time></trkpt><trkpt lat="45.99667678222255" lon="8.744880278523885"><ele>209.00000000000003</ele><time>2026-04-25T09:11:30.999Z</time></trkpt><trkpt lat="45.996701496203485" lon="8.744971895001267"><ele>209.0</ele><time>2026-04-25T09:11:31.999Z</time></trkpt><trkpt lat="45.99673137829024" lon="8.745057883804119"><ele>209.00000000000003</ele><time>2026-04-25T09:11:32.999Z</time></trkpt><trkpt lat="45.99678376120083" lon="8.745151529661413"><ele>209.0</ele><time>2026-04-25T09:11:33.999Z</time></trkpt><trkpt lat="45.996849486546424" lon="8.745247724501551"><ele>209.0</ele><time>2026-04-25T09:11:35Z</time></trkpt><trkpt lat="45.99691040951455" lon="8.745349773490315"><ele>209.0</ele><time>2026-04-25T09:11:36Z</time></trkpt><trkpt lat="45.996963064747604" lon="8.745446940414322"><ele>209.00000000000003</ele><time>2026-04-25T09:11:37Z</time></trkpt><trkpt lat="45.99701413172895" lon="8.745545681513578"><ele>209.0</ele><time>2026-04-25T09:11:38Z</time></trkpt><trkpt lat="45.9970648526195" lon="8.74563659727129"><ele>209.2</ele><time>2026-04-25T09:11:39Z</time></trkpt><trkpt lat="45.99711269013363" lon="8.74571784065234"><ele>209.39999999999998</ele><time>2026-04-25T09:11:40Z</time></trkpt><trkpt lat="45.99718826135162" lon="8.745843117044098"><ele>209.6</ele><time>2026-04-25T09:11:42Z</time></trkpt><trkpt lat="45.99725595937962" lon="8.745948946415998"><ele>209.8</ele><time>2026-04-25T09:11:44Z</time></trkpt><trkpt lat="45.997334453156675" lon="8.746079123778747"><ele>210.0</ele><time>2026-04-25T09:11:46Z</time></trkpt><trkpt lat="45.997383407656834" lon="8.746157772227763"><ele>210.0</ele><time>2026-04-25T09:11:47Z</time></trkpt><trkpt lat="45.99741400970567" lon="8.746301252779327"><ele>210.0</ele><time>2026-04-25T09:11:49Z</time></trkpt><trkpt lat="45.997378173397664" lon="8.746457675285347"><ele>210.0</ele><time>2026-04-25T09:11:51Z</time></trkpt><trkpt lat="45.99741853866129" lon="8.746568591227163"><ele>210.0</ele><time>2026-04-25T09:11:53Z</time></trkpt><trkpt lat="45.99749832741738" lon="8.746583997001224"><ele>210.0</ele><time>2026-04-25T09:11:55Z</time></trkpt><trkpt lat="45.99756988868016" lon="8.746448927345016"><ele>209.8</ele><time>2026-04-25T09:11:57Z</time></trkpt><trkpt lat="45.99764841714637" lon="8.746328525879"><ele>209.6</ele><time>2026-04-25T09:11:59Z</time></trkpt><trkpt lat="45.997725829629324" lon="8.74630690050505"><ele>209.39999999999998</ele><time>2026-04-25T09:12:00Z</time></trkpt><trkpt lat="45.99781636085424" lon="8.746282997002375"><ele>209.2</ele><time>2026-04-25T09:12:01Z</time></trkpt><trkpt lat="45.99790220753012" lon="8.746248233433267"><ele>209.0</ele><time>2026-04-25T09:12:02Z</time></trkpt><trkpt lat="45.997976578547195" lon="8.746218833259789"><ele>209.00000000000003</ele><time>2026-04-25T09:12:03Z</time></trkpt><trkpt lat="45.99804998765001" lon="8.746186419730964"><ele>209.0</ele><time>2026-04-25T09:12:04Z</time></trkpt><trkpt lat="45.99811945765353" lon="8.74615666228808"><ele>209.0</ele><time>2026-04-25T09:12:05Z</time></trkpt><trkpt lat="45.9981896764963" lon="8.746131825806485"><ele>209.0</ele><time>2026-04-25T09:12:06Z</time></trkpt><trkpt lat="45.99825991375067" lon="8.746105201546126"><ele>209.00000000000003</ele><time>2026-04-25T09:12:07Z</time></trkpt><trkpt lat="45.99833356396993" lon="8.746074530632834"><ele>209.0</ele><time>2026-04-25T09:12:08Z</time></trkpt><trkpt lat="45.998422131040726" lon="8.746032293920496"><ele>208.83333333333334</ele><time>2026-04-25T09:12:09Z</time></trkpt><trkpt lat="45.99850949798819" lon="8.745978083979859"><ele>208.66666666666669</ele><time>2026-04-25T09:12:10Z</time></trkpt><trkpt lat="45.99858602486503" lon="8.745920858756874"><ele>208.5</ele><time>2026-04-25T09:12:11Z</time></trkpt><trkpt lat="45.99865933839046" lon="8.745863200451039"><ele>208.33333333333331</ele><time>2026-04-25T09:12:12Z</time></trkpt><trkpt lat="45.998727802766794" lon="8.745807226434751"><ele>208.16666666666666</ele><time>2026-04-25T09:12:13Z</time></trkpt><trkpt lat="45.99879223089464" lon="8.745745983659761"><ele>208.0</ele><time>2026-04-25T09:12:14Z</time></trkpt><trkpt lat="45.998847258160026" lon="8.745677772952565"><ele>208.0</ele><time>2026-04-25T09:12:15Z</time></trkpt><trkpt lat="45.99889991660795" lon="8.745588248178317"><ele>208.0</ele><time>2026-04-25T09:12:16Z</time></trkpt><trkpt lat="45.99894358959204" lon="8.745479965328977"><ele>208.0</ele><time>2026-04-25T09:12:17Z</time></trkpt><trkpt lat="45.99897767460113" lon="8.745378135284971"><ele>208.0</ele><time>2026-04-25T09:12:18Z</time></trkpt><trkpt lat="45.99902699216096" lon="8.745226279940052"><ele>208.0</ele><time>2026-04-25T09:12:20Z</time></trkpt><trkpt lat="45.99907261957712" lon="8.745097538595068"><ele>207.60000000000002</ele><time>2026-04-25T09:12:22Z</time></trkpt><trkpt lat="45.999118882061126" lon="8.74498449578829"><ele>207.20000000000002</ele><time>2026-04-25T09:12:24Z</time></trkpt><trkpt lat="45.999149394678334" lon="8.744867389775255"><ele>206.8</ele><time>2026-04-25T09:12:26Z</time></trkpt><trkpt lat="45.9992587125159" lon="8.744842185202677"><ele>206.4</ele><time>2026-04-25T09:12:28Z</time></trkpt><trkpt lat="45.99935986466917" lon="8.744856269967176"><ele>206.0</ele><time>2026-04-25T09:12:30Z</time></trkpt><trkpt lat="45.999423563761326" lon="8.744828272972786"><ele>205.83333333333334</ele><time>2026-04-25T09:12:31Z</time></trkpt><trkpt lat="45.99954225790858" lon="8.744820532783583"><ele>205.66666666666669</ele><time>2026-04-25T09:12:33Z</time></trkpt><trkpt lat="45.9996330829679" lon="8.744837044702429"><ele>205.5</ele><time>2026-04-25T09:12:35Z</time></trkpt><trkpt lat="45.99970901507" lon="8.744832582025722"><ele>205.33333333333331</ele><time>2026-04-25T09:12:37Z</time></trkpt><trkpt lat="45.9997820036169" lon="8.744828292347071"><ele>205.16666666666666</ele><time>2026-04-25T09:12:39Z</time></trkpt><trkpt lat="45.999859312275774" lon="8.744823748766393"><ele>205.0</ele><time>2026-04-25T09:12:41Z</time></trkpt><trkpt lat="45.99992505681351" lon="8.744819884829303"><ele>204.99999999999997</ele><time>2026-04-25T09:12:43Z</time></trkpt><trkpt lat="46.00001766198799" lon="8.744814667496435"><ele>205.0</ele><time>2026-04-25T09:12:46Z</time></trkpt><trkpt lat="46.000088089479696" lon="8.744810725901557"><ele>205.0</ele><time>2026-04-25T09:12:48Z</time></trkpt><trkpt lat="46.00016216474405" lon="8.744804584824912"><ele>205.0</ele><time>2026-04-25T09:12:50Z</time></trkpt><trkpt lat="46.00025001973879" lon="8.744862317940997"><ele>204.99999999999997</ele><time>2026-04-25T09:12:52Z</time></trkpt><trkpt lat="46.00032139118232" lon="8.74487914383234"><ele>205.0</ele><time>2026-04-25T09:12:55Z</time></trkpt><trkpt lat="46.00042861180242" lon="8.744886809730968"><ele>204.99999999999997</ele><time>2026-04-25T09:12:58Z</time></trkpt><trkpt lat="46.000513449244195" lon="8.744904668358142"><ele>205.0</ele><time>2026-04-25T09:13:00Z</time></trkpt><trkpt lat="46.00060665861774" lon="8.744918653299932"><ele>205.0</ele><time>2026-04-25T09:13:02Z</time></trkpt><trkpt lat="46.00068004898529" lon="8.74496470822346"><ele>205.0</ele><time>2026-04-25T09:13:05Z</time></trkpt><trkpt lat="46.000749310837385" lon="8.74498845706577"><ele>204.99999999999997</ele><time>2026-04-25T09:13:13Z</time></trkpt><trkpt lat="46.00086023190681" lon="8.744986071326506"><ele>205.0</ele><time>2026-04-25T09:13:15Z</time></trkpt><trkpt lat="46.00095557692115" lon="8.744988694599725"><ele>204.99999999999997</ele><time>2026-04-25T09:13:17Z</time></trkpt><trkpt lat="46.001023396340564" lon="8.745011279779117"><ele>205.0</ele><time>2026-04-25T09:13:18Z</time></trkpt><trkpt lat="46.00112179968034" lon="8.745016493765188"><ele>205.0</ele><time>2026-04-25T09:13:20Z</time></trkpt><trkpt lat="46.00121289075058" lon="8.74501138570805"><ele>205.0</ele><time>2026-04-25T09:13:22Z</time></trkpt><trkpt lat="46.001277863638144" lon="8.745018947074591"><ele>204.99999999999997</ele><time>2026-04-25T09:13:24Z</time></trkpt><trkpt lat="46.00134138313121" lon="8.745056648458007"><ele>205.0</ele><time>2026-04-25T09:13:26Z</time></trkpt><trkpt lat="46.001426659142396" lon="8.74506453643579"><ele>204.99999999999997</ele><time>2026-04-25T09:13:28Z</time></trkpt><trkpt lat="46.00149282421415" lon="8.745078841947127"><ele>205.0</ele><time>2026-04-25T09:13:30Z</time></trkpt><trkpt lat="46.0015661088674" lon="8.745056524058608"><ele>205.0</ele><time>2026-04-25T09:13:31.999Z</time></trkpt><trkpt lat="46.00165034447153" lon="8.745068695740205"><ele>205.0</ele><time>2026-04-25T09:13:33.999Z</time></trkpt><trkpt lat="46.00175849711196" lon="8.745159154159161"><ele>204.99999999999997</ele><time>2026-04-25T09:13:35.999Z</time></trkpt><trkpt lat="46.00179656095033" lon="8.745242464813304"><ele>205.0</ele><time>2026-04-25T09:13:36.999Z</time></trkpt><trkpt lat="46.001867763968406" lon="8.745348732839782"><ele>205.83333333333331</ele><time>2026-04-25T09:13:38.999Z</time></trkpt><trkpt lat="46.00191658044273" lon="8.745418904171267"><ele>206.66666666666666</ele><time>2026-04-25T09:13:41Z</time></trkpt><trkpt lat="46.001990586673244" lon="8.74550287353172"><ele>207.5</ele><time>2026-04-25T09:13:43Z</time></trkpt><trkpt lat="46.00208698329452" lon="8.74559977935928"><ele>208.33333333333331</ele><time>2026-04-25T09:13:45Z</time></trkpt><trkpt lat="46.0021569866089" lon="8.745668715315828"><ele>209.16666666666666</ele><time>2026-04-25T09:13:47Z</time></trkpt><trkpt lat="46.002224232084544" lon="8.745725479243015"><ele>210.0</ele><time>2026-04-25T09:13:49Z</time></trkpt><trkpt lat="46.002309939616104" lon="8.7457657107596"><ele>210.0</ele><time>2026-04-25T09:13:51Z</time></trkpt><trkpt lat="46.00237410878565" lon="8.745752946647979"><ele>210.0</ele><time>2026-04-25T09:13:53Z</time></trkpt><trkpt lat="46.00244516879277" lon="8.745736980670369"><ele>210.0</ele><time>2026-04-25T09:13:55Z</time></trkpt><trkpt lat="46.00250536213218" lon="8.745763799142892"><ele>210.0</ele><time>2026-04-25T09:13:57Z</time></trkpt><trkpt lat="46.002560855780246" lon="8.745852659560846"><ele>210.0</ele><time>2026-04-25T09:13:59Z</time></trkpt><trkpt lat="46.002618096596784" lon="8.745928339790831"><ele>210.0</ele><time>2026-04-25T09:14:02Z</time></trkpt><trkpt lat="46.00267162604797" lon="8.74599594771384"><ele>210.0</ele><time>2026-04-25T09:14:05Z</time></trkpt><trkpt lat="46.00275636569522" lon="8.74605007317632"><ele>211.5</ele><time>2026-04-25T09:14:08Z</time></trkpt><trkpt lat="46.00283205168526" lon="8.746046545384578"><ele>213.0</ele><time>2026-04-25T09:14:10Z</time></trkpt><trkpt lat="46.00291104483448" lon="8.746073648174267"><ele>214.5</ele><time>2026-04-25T09:14:14Z</time></trkpt><trkpt lat="46.002981478023386" lon="8.746103000113246"><ele>216.0</ele><time>2026-04-25T09:14:16Z</time></trkpt><trkpt lat="46.00309958772139" lon="8.746173027057232"><ele>217.5</ele><time>2026-04-25T09:14:17Z</time></trkpt><trkpt lat="46.003155639305625" lon="8.746108743157714"><ele>219.0</ele><time>2026-04-25T09:14:20Z</time></trkpt><trkpt lat="46.00323973703245" lon="8.746033062118919"><ele>219.0</ele><time>2026-04-25T09:14:27Z</time></trkpt><trkpt lat="46.00331234939235" lon="8.745980120870463"><ele>218.99999999999997</ele><time>2026-04-25T09:14:28Z</time></trkpt><trkpt lat="46.00338760700431" lon="8.74592323557126"><ele>218.99999999999997</ele><time>2026-04-25T09:14:29Z</time></trkpt><trkpt lat="46.00348143466084" lon="8.745877515479773"><ele>219.0</ele><time>2026-04-25T09:14:30Z</time></trkpt><trkpt lat="46.003598795792215" lon="8.745832157188138"><ele>219.0</ele><time>2026-04-25T09:14:31Z</time></trkpt><trkpt lat="46.00365931673664" lon="8.745750536264408"><ele>219.6</ele><time>2026-04-25T09:14:32Z</time></trkpt><trkpt lat="46.00372592487921" lon="8.745627954123671"><ele>220.2</ele><time>2026-04-25T09:14:33Z</time></trkpt><trkpt lat="46.00377937922471" lon="8.745507175549927"><ele>220.79999999999998</ele><time>2026-04-25T09:14:34Z</time></trkpt><trkpt lat="46.003842727409506" lon="8.745412727327087"><ele>221.39999999999998</ele><time>2026-04-25T09:14:35Z</time></trkpt><trkpt lat="46.00389332047279" lon="8.745315536770082"><ele>222.0</ele><time>2026-04-25T09:14:36Z</time></trkpt><trkpt lat="46.003944412454345" lon="8.74521627552956"><ele>221.0</ele><time>2026-04-25T09:14:37Z</time></trkpt><trkpt lat="46.00399925750225" lon="8.745109601163906"><ele>220.0</ele><time>2026-04-25T09:14:38Z</time></trkpt><trkpt lat="46.00406075550686" lon="8.744990707137788"><ele>219.0</ele><time>2026-04-25T09:14:39Z</time></trkpt><trkpt lat="46.00411741966551" lon="8.744881158981357"><ele>218.0</ele><time>2026-04-25T09:14:40Z</time></trkpt><trkpt lat="46.004167655662286" lon="8.744784037890415"><ele>217.0</ele><time>2026-04-25T09:14:41Z</time></trkpt><trkpt lat="46.00420547101441" lon="8.744710929687399"><ele>216.0</ele><time>2026-04-25T09:14:42Z</time></trkpt><trkpt lat="46.00425903208728" lon="8.744607380341218"><ele>215.8</ele><time>2026-04-25T09:14:46Z</time></trkpt><trkpt lat="46.004303200907906" lon="8.74452198906908"><ele>215.60000000000002</ele><time>2026-04-25T09:14:49Z</time></trkpt><trkpt lat="46.00437268400272" lon="8.74438869319588"><ele>215.4</ele><time>2026-04-25T09:14:56Z</time></trkpt><trkpt lat="46.00442718525729" lon="8.74428473885001"><ele>215.2</ele><time>2026-04-25T09:14:57Z</time></trkpt><trkpt lat="46.00448527293495" lon="8.744173943626391"><ele>215.0</ele><time>2026-04-25T09:14:58Z</time></trkpt><trkpt lat="46.00453149955012" lon="8.744085772039321"><ele>213.33333333333334</ele><time>2026-04-25T09:14:59Z</time></trkpt><trkpt lat="46.00456921659367" lon="8.743981742570579"><ele>211.66666666666669</ele><time>2026-04-25T09:15:05Z</time></trkpt><trkpt lat="46.00466587277226" lon="8.743930948282516"><ele>210.0</ele><time>2026-04-25T09:15:07Z</time></trkpt><trkpt lat="46.0047355579624" lon="8.743946847902386"><ele>208.33333333333331</ele><time>2026-04-25T09:15:08Z</time></trkpt><trkpt lat="46.004801576329925" lon="8.74399102283928"><ele>206.66666666666666</ele><time>2026-04-25T09:15:09Z</time></trkpt><trkpt lat="46.00484822695723" lon="8.744093784696505"><ele>205.0</ele><time>2026-04-25T09:15:10Z</time></trkpt><trkpt lat="46.004915948740205" lon="8.744158172110128"><ele>205.0</ele><time>2026-04-25T09:15:11Z</time></trkpt><trkpt lat="46.00496982165628" lon="8.744258007903465"><ele>205.0</ele><time>2026-04-25T09:15:12Z</time></trkpt><trkpt lat="46.005042837939" lon="8.744343814979269"><ele>205.0</ele><time>2026-04-25T09:15:13Z</time></trkpt><trkpt lat="46.005140127952046" lon="8.744398122229004"><ele>205.0</ele><time>2026-04-25T09:15:14Z</time></trkpt><trkpt lat="46.005237464466354" lon="8.744485474868272"><ele>205.0</ele><time>2026-04-25T09:15:15Z</time></trkpt><trkpt lat="46.005350524676416" lon="8.74458474481756"><ele>204.75</ele><time>2026-04-25T09:15:16Z</time></trkpt><trkpt lat="46.005465958688006" lon="8.744688452513"><ele>204.5</ele><time>2026-04-25T09:15:17Z</time></trkpt><trkpt lat="46.00559178463684" lon="8.744802054543829"><ele>204.25</ele><time>2026-04-25T09:15:18Z</time></trkpt><trkpt lat="46.00572462695295" lon="8.744912620842266"><ele>204.0</ele><time>2026-04-25T09:15:19Z</time></trkpt><trkpt lat="46.00584918858732" lon="8.745018193474024"><ele>204.0</ele><time>2026-04-25T09:15:20Z</time></trkpt><trkpt lat="46.00597169507678" lon="8.74511884536746"><ele>204.0</ele><time>2026-04-25T09:15:21Z</time></trkpt><trkpt lat="46.00609264147392" lon="8.74523429928772"><ele>204.0</ele><time>2026-04-25T09:15:22Z</time></trkpt><trkpt lat="46.00620119355246" lon="8.745375330737144"><ele>204.0</ele><time>2026-04-25T09:15:23Z</time></trkpt><trkpt lat="46.00632373315677" lon="8.745518513551522"><ele>206.0</ele><time>2026-04-25T09:15:24Z</time></trkpt><trkpt lat="46.006455706122104" lon="8.74564342847278"><ele>208.0</ele><time>2026-04-25T09:15:25Z</time></trkpt><trkpt lat="46.00659625235339" lon="8.745728071192397"><ele>210.0</ele><time>2026-04-25T09:15:26Z</time></trkpt><trkpt lat="46.00676628954063" lon="8.745805653393571"><ele>210.0</ele><time>2026-04-25T09:15:27Z</time></trkpt><trkpt lat="46.00692415302514" lon="8.745872968156867"><ele>210.0</ele><time>2026-04-25T09:15:28Z</time></trkpt><trkpt lat="46.00704251663167" lon="8.745944778625944"><ele>210.0</ele><time>2026-04-25T09:15:29Z</time></trkpt><trkpt lat="46.00715247752665" lon="8.746060537228914"><ele>210.0</ele><time>2026-04-25T09:15:30Z</time></trkpt><trkpt lat="46.00728287280211" lon="8.746235162287215"><ele>212.33333333333331</ele><time>2026-04-25T09:15:31Z</time></trkpt><trkpt lat="46.007425460301114" lon="8.746425783664982"><ele>214.66666666666666</ele><time>2026-04-25T09:15:32Z</time></trkpt><trkpt lat="46.00756119282695" lon="8.746593118681602"><ele>217.0</ele><time>2026-04-25T09:15:33Z</time></trkpt><trkpt lat="46.007694974852356" lon="8.746745275930966"><ele>224.66666666666666</ele><time>2026-04-25T09:15:34Z</time></trkpt><trkpt lat="46.00782917222293" lon="8.746895491879346"><ele>232.33333333333331</ele><time>2026-04-25T09:15:35Z</time></trkpt><trkpt lat="46.00795182972437" lon="8.747051412114187"><ele>240.0</ele><time>2026-04-25T09:15:36Z</time></trkpt><trkpt lat="46.00806352348415" lon="8.747234078714316"><ele>240.0</ele><time>2026-04-25T09:15:37Z</time></trkpt><trkpt lat="46.00817161110289" lon="8.747421189412725"><ele>240.0</ele><time>2026-04-25T09:15:38Z</time></trkpt><trkpt lat="46.00827757188917" lon="8.74760487834008"><ele>240.0</ele><time>2026-04-25T09:15:39Z</time></trkpt><trkpt lat="46.00837534711269" lon="8.747767953011728"><ele>239.33333333333331</ele><time>2026-04-25T09:15:40Z</time></trkpt><trkpt lat="46.00849381446712" lon="8.747920600558993"><ele>238.66666666666666</ele><time>2026-04-25T09:15:41Z</time></trkpt><trkpt lat="46.00862273012403" lon="8.748056571331096"><ele>238.0</ele><time>2026-04-25T09:15:42Z</time></trkpt><trkpt lat="46.00877391618214" lon="8.74816810355062"><ele>238.0</ele><time>2026-04-25T09:15:43Z</time></trkpt><trkpt lat="46.008938402979894" lon="8.748252539671043"><ele>238.0</ele><time>2026-04-25T09:15:44Z</time></trkpt><trkpt lat="46.00910274317014" lon="8.748324173158116"><ele>238.0</ele><time>2026-04-25T09:15:45Z</time></trkpt><trkpt lat="46.00927238091498" lon="8.748389327908852"><ele>238.66666666666666</ele><time>2026-04-25T09:15:46Z</time></trkpt><trkpt lat="46.00944944440852" lon="8.748451196761682"><ele>239.33333333333331</ele><time>2026-04-25T09:15:47Z</time></trkpt><trkpt lat="46.009622635838646" lon="8.748510307422599"><ele>240.0</ele><time>2026-04-25T09:15:48Z</time></trkpt><trkpt lat="46.00978841647161" lon="8.748570931553157"><ele>240.0</ele><time>2026-04-25T09:15:49Z</time></trkpt><trkpt lat="46.00995191876323" lon="8.748632463094879"><ele>240.0</ele><time>2026-04-25T09:15:50Z</time></trkpt><trkpt lat="46.01012792220384" lon="8.74869917410044"><ele>240.0</ele><time>2026-04-25T09:15:51Z</time></trkpt><trkpt lat="46.010313019889345" lon="8.748746440385741"><ele>234.0</ele><time>2026-04-25T09:15:52Z</time></trkpt><trkpt lat="46.01048681039931" lon="8.748837646004691"><ele>228.0</ele><time>2026-04-25T09:15:53Z</time></trkpt><trkpt lat="46.01066527940767" lon="8.748904966973441"><ele>222.0</ele><time>2026-04-25T09:15:54Z</time></trkpt><trkpt lat="46.01083695130005" lon="8.748962968932366"><ele>220.33333333333331</ele><time>2026-04-25T09:15:55Z</time></trkpt><trkpt lat="46.01100783264948" lon="8.748988195770302"><ele>218.66666666666666</ele><time>2026-04-25T09:15:56Z</time></trkpt><trkpt lat="46.01117259672524" lon="8.749027274445291"><ele>217.0</ele><time>2026-04-25T09:15:57Z</time></trkpt><trkpt lat="46.01134846293098" lon="8.749070547741674"><ele>217.0</ele><time>2026-04-25T09:15:58Z</time></trkpt><trkpt lat="46.01152742392155" lon="8.749117269354889"><ele>217.0</ele><time>2026-04-25T09:15:59Z</time></trkpt><trkpt lat="46.011696291754006" lon="8.749196875397313"><ele>217.0</ele><time>2026-04-25T09:16:00Z</time></trkpt><trkpt lat="46.01185868700701" lon="8.749268253505798"><ele>214.66666666666666</ele><time>2026-04-25T09:16:01Z</time></trkpt><trkpt lat="46.012024717779546" lon="8.749356847342625"><ele>212.33333333333331</ele><time>2026-04-25T09:16:02Z</time></trkpt><trkpt lat="46.0121841920472" lon="8.749447213736792"><ele>210.0</ele><time>2026-04-25T09:16:03Z</time></trkpt><trkpt lat="46.01237896667058" lon="8.749546768838117"><ele>221.66666666666669</ele><time>2026-04-25T09:16:04Z</time></trkpt><trkpt lat="46.012596651292235" lon="8.74963496247794"><ele>233.33333333333334</ele><time>2026-04-25T09:16:05Z</time></trkpt><trkpt lat="46.01280623902787" lon="8.749711391763446"><ele>245.0</ele><time>2026-04-25T09:16:06Z</time></trkpt><trkpt lat="46.01299161130651" lon="8.749753574286363"><ele>245.0</ele><time>2026-04-25T09:16:07Z</time></trkpt><trkpt lat="46.01314357956818" lon="8.74981120570987"><ele>245.0</ele><time>2026-04-25T09:16:08Z</time></trkpt><trkpt lat="46.01327057335436" lon="8.749836989996012"><ele>245.0</ele><time>2026-04-25T09:16:09Z</time></trkpt><trkpt lat="46.01339374898166" lon="8.749857492782617"><ele>245.0</ele><time>2026-04-25T09:16:10Z</time></trkpt><trkpt lat="46.0134859530726" lon="8.749938272958982"><ele>237.66666666666669</ele><time>2026-04-25T09:16:11Z</time></trkpt><trkpt lat="46.01360602964065" lon="8.750052343685724"><ele>230.33333333333331</ele><time>2026-04-25T09:16:12Z</time></trkpt><trkpt lat="46.013730254634794" lon="8.750238775430962"><ele>223.0</ele><time>2026-04-25T09:16:13Z</time></trkpt><trkpt lat="46.01387943208849" lon="8.750419283677191"><ele>227.0</ele><time>2026-04-25T09:16:14Z</time></trkpt><trkpt lat="46.014049937135596" lon="8.750539330628326"><ele>231.0</ele><time>2026-04-25T09:16:15Z</time></trkpt><trkpt lat="46.01424459145741" lon="8.75065288136288"><ele>235.0</ele><time>2026-04-25T09:16:16Z</time></trkpt><trkpt lat="46.01446395420331" lon="8.750804762414708"><ele>235.0</ele><time>2026-04-25T09:16:17Z</time></trkpt><trkpt lat="46.01470873590077" lon="8.750952754261327"><ele>235.0</ele><time>2026-04-25T09:16:18Z</time></trkpt><trkpt lat="46.014966861770525" lon="8.751084861658157"><ele>239.0</ele><time>2026-04-25T09:16:19Z</time></trkpt><trkpt lat="46.015208150640305" lon="8.751212024449137"><ele>243.0</ele><time>2026-04-25T09:16:20Z</time></trkpt><trkpt lat="46.01546590902999" lon="8.751319836959265"><ele>243.0</ele><time>2026-04-25T09:16:21Z</time></trkpt><trkpt lat="46.01574395974581" lon="8.751443816641675"><ele>243.0</ele><time>2026-04-25T09:16:22Z</time></trkpt><trkpt lat="46.01601028125726" lon="8.751601607136731"><ele>234.0</ele><time>2026-04-25T09:16:23Z</time></trkpt><trkpt lat="46.0162830550672" lon="8.751721123073763"><ele>225.0</ele><time>2026-04-25T09:16:24Z</time></trkpt><trkpt lat="46.016542766503036" lon="8.751847674433124"><ele>237.0</ele><time>2026-04-25T09:16:25Z</time></trkpt><trkpt lat="46.016782910557644" lon="8.751962422389274"><ele>249.0</ele><time>2026-04-25T09:16:26Z</time></trkpt><trkpt lat="46.017013524511206" lon="8.752059262661664"><ele>249.0</ele><time>2026-04-25T09:16:27Z</time></trkpt><trkpt lat="46.017237990374355" lon="8.752124095317772"><ele>249.0</ele><time>2026-04-25T09:16:28Z</time></trkpt><trkpt lat="46.017449893519135" lon="8.752186124283307"><ele>249.0</ele><time>2026-04-25T09:16:29Z</time></trkpt><trkpt lat="46.01765555746166" lon="8.75225965782817"><ele>241.66666666666669</ele><time>2026-04-25T09:16:30Z</time></trkpt><trkpt lat="46.01786073427532" lon="8.75232241067577"><ele>234.33333333333334</ele><time>2026-04-25T09:16:31Z</time></trkpt><trkpt lat="46.01806898269738" lon="8.752352179786184"><ele>227.0</ele><time>2026-04-25T09:16:32Z</time></trkpt><trkpt lat="46.018276921914556" lon="8.752346765900633"><ele>224.33333333333334</ele><time>2026-04-25T09:16:33Z</time></trkpt><trkpt lat="46.018475203381165" lon="8.752316782438905"><ele>221.66666666666669</ele><time>2026-04-25T09:16:34Z</time></trkpt><trkpt lat="46.0186713508673" lon="8.752282062041827"><ele>219.0</ele><time>2026-04-25T09:16:35Z</time></trkpt><trkpt lat="46.01887197622559" lon="8.75225692991449"><ele>219.0</ele><time>2026-04-25T09:16:36Z</time></trkpt><trkpt lat="46.01909347656799" lon="8.752252566650474"><ele>219.0</ele><time>2026-04-25T09:16:37Z</time></trkpt><trkpt lat="46.01931161142211" lon="8.752229856810642"><ele>219.0</ele><time>2026-04-25T09:16:38Z</time></trkpt><trkpt lat="46.01952661694944" lon="8.752207472734693"><ele>228.0</ele><time>2026-04-25T09:16:39Z</time></trkpt><trkpt lat="46.01974374480553" lon="8.752184867742606"><ele>237.0</ele><time>2026-04-25T09:16:40Z</time></trkpt><trkpt lat="46.019958078412905" lon="8.752162553197891"><ele>246.0</ele><time>2026-04-25T09:16:41Z</time></trkpt><trkpt lat="46.02016567769579" lon="8.752117376496956"><ele>244.0</ele><time>2026-04-25T09:16:42Z</time></trkpt><trkpt lat="46.02038528711292" lon="8.752145385986204"><ele>242.0</ele><time>2026-04-25T09:16:43.053Z</time></trkpt><trkpt lat="46.02059460194679" lon="8.752143477200574"><ele>240.0</ele><time>2026-04-25T09:16:44.053Z</time></trkpt><trkpt lat="46.02288186391295" lon="8.752079790609203"><ele>266.0</ele><time>2026-04-25T09:16:55.461Z</time></trkpt><trkpt lat="46.02221401091012" lon="8.75199497939699"><ele>266.0</ele><time>2026-04-25T09:16:58Z</time></trkpt><trkpt lat="46.02235381753316" lon="8.751999934306307"><ele>266.0</ele><time>2026-04-25T09:16:59Z</time></trkpt><trkpt lat="46.02250023949341" lon="8.751898180678241"><ele>266.0</ele><time>2026-04-25T09:17:00Z</time></trkpt><trkpt lat="46.0226239142286" lon="8.751903576307475"><ele>266.0</ele><time>2026-04-25T09:17:01Z</time></trkpt><trkpt lat="46.02276982737805" lon="8.751906560152163"><ele>260.8</ele><time>2026-04-25T09:17:02Z</time></trkpt><trkpt lat="46.022882851252454" lon="8.751915101370837"><ele>255.60000000000002</ele><time>2026-04-25T09:17:03Z</time></trkpt><trkpt lat="46.02299981997636" lon="8.75191063062257"><ele>250.4</ele><time>2026-04-25T09:17:04Z</time></trkpt><trkpt lat="46.02311706152916" lon="8.751888629363918"><ele>245.2</ele><time>2026-04-25T09:17:05Z</time></trkpt><trkpt lat="46.023213257481984" lon="8.751849431786878"><ele>240.0</ele><time>2026-04-25T09:17:06Z</time></trkpt><trkpt lat="46.02330550764597" lon="8.751818989900125"><ele>235.0</ele><time>2026-04-25T09:17:07Z</time></trkpt><trkpt lat="46.023399936062816" lon="8.751814839238584"><ele>230.0</ele><time>2026-04-25T09:17:08Z</time></trkpt><trkpt lat="46.023482277841154" lon="8.751850189061798"><ele>225.0</ele><time>2026-04-25T09:17:09Z</time></trkpt><trkpt lat="46.02357819584555" lon="8.75190287946173"><ele>220.0</ele><time>2026-04-25T09:17:10Z</time></trkpt><trkpt lat="46.02367870353156" lon="8.751950413862044"><ele>215.0</ele><time>2026-04-25T09:17:11Z</time></trkpt><trkpt lat="46.02379301656807" lon="8.75199097618715"><ele>215.00000000000003</ele><time>2026-04-25T09:17:12Z</time></trkpt><trkpt lat="46.0238974734215" lon="8.752010779544863"><ele>215.0</ele><time>2026-04-25T09:17:13Z</time></trkpt><trkpt lat="46.02398822786699" lon="8.752023271585696"><ele>215.0</ele><time>2026-04-25T09:17:14Z</time></trkpt><trkpt lat="46.02405348880649" lon="8.752013828912618"><ele>215.0</ele><time>2026-04-25T09:17:15Z</time></trkpt><trkpt lat="46.0241172798714" lon="8.751984929957057"><ele>215.00000000000003</ele><time>2026-04-25T09:17:16Z</time></trkpt><trkpt lat="46.02417136792958" lon="8.751913885873291"><ele>215.0</ele><time>2026-04-25T09:17:17Z</time></trkpt><trkpt lat="46.024224948928556" lon="8.751819439785837"><ele>212.0</ele><time>2026-04-25T09:17:18Z</time></trkpt><trkpt lat="46.024283473492204" lon="8.751704719363625"><ele>209.0</ele><time>2026-04-25T09:17:19Z</time></trkpt><trkpt lat="46.024357198479535" lon="8.751611216595453"><ele>206.0</ele><time>2026-04-25T09:17:20Z</time></trkpt><trkpt lat="46.02445979142211" lon="8.751528548674761"><ele>203.0</ele><time>2026-04-25T09:17:21Z</time></trkpt><trkpt lat="46.02459414140958" lon="8.75145527414127"><ele>203.0</ele><time>2026-04-25T09:17:22Z</time></trkpt><trkpt lat="46.024728282463194" lon="8.751404476288943"><ele>203.0</ele><time>2026-04-25T09:17:23Z</time></trkpt><trkpt lat="46.024853965606745" lon="8.751365402694805"><ele>203.0</ele><time>2026-04-25T09:17:24Z</time></trkpt><trkpt lat="46.024965333554874" lon="8.751324235881896"><ele>203.0</ele><time>2026-04-25T09:17:25Z</time></trkpt><trkpt lat="46.025066937173435" lon="8.751279103061501"><ele>203.16666666666669</ele><time>2026-04-25T09:17:26Z</time></trkpt><trkpt lat="46.0251656014696" lon="8.75123301580903"><ele>203.33333333333334</ele><time>2026-04-25T09:17:27Z</time></trkpt><trkpt lat="46.02525707329839" lon="8.751188936849644"><ele>203.5</ele><time>2026-04-25T09:17:28Z</time></trkpt><trkpt lat="46.02533895115434" lon="8.751144195657421"><ele>203.66666666666669</ele><time>2026-04-25T09:17:29Z</time></trkpt><trkpt lat="46.02541621914001" lon="8.751101833490583"><ele>203.83333333333334</ele><time>2026-04-25T09:17:30Z</time></trkpt><trkpt lat="46.02547735802356" lon="8.751054264942333"><ele>204.0</ele><time>2026-04-25T09:17:31Z</time></trkpt><trkpt lat="46.02556848368983" lon="8.75091994285937"><ele>201.66666666666669</ele><time>2026-04-25T09:17:33Z</time></trkpt><trkpt lat="46.02562935696706" lon="8.750775590044077"><ele>199.33333333333334</ele><time>2026-04-25T09:17:34Z</time></trkpt><trkpt lat="46.02572562266901" lon="8.750574862733597"><ele>197.0</ele><time>2026-04-25T09:17:35Z</time></trkpt><trkpt lat="46.02584769312729" lon="8.750356991327575"><ele>199.33333333333334</ele><time>2026-04-25T09:17:36Z</time></trkpt><trkpt lat="46.025971263040645" lon="8.750171824277619"><ele>201.66666666666669</ele><time>2026-04-25T09:17:37Z</time></trkpt><trkpt lat="46.02608183733492" lon="8.75004930864287"><ele>204.0</ele><time>2026-04-25T09:17:38Z</time></trkpt><trkpt lat="46.02619973122528" lon="8.74994385121452"><ele>204.0</ele><time>2026-04-25T09:17:39Z</time></trkpt><trkpt lat="46.026321216800945" lon="8.74985138237974"><ele>204.0</ele><time>2026-04-25T09:17:40Z</time></trkpt><trkpt lat="46.0264491767727" lon="8.749744634544115"><ele>204.0</ele><time>2026-04-25T09:17:41Z</time></trkpt><trkpt lat="46.02657554192388" lon="8.749642891177862"><ele>204.0</ele><time>2026-04-25T09:17:42Z</time></trkpt><trkpt lat="46.02667884563782" lon="8.749545606674221"><ele>207.5</ele><time>2026-04-25T09:17:43Z</time></trkpt><trkpt lat="46.02680298339632" lon="8.749441050230827"><ele>211.0</ele><time>2026-04-25T09:17:44Z</time></trkpt><trkpt lat="46.02692020171479" lon="8.749346844598504"><ele>214.5</ele><time>2026-04-25T09:17:45Z</time></trkpt><trkpt lat="46.027042224365054" lon="8.749245149621222"><ele>218.0</ele><time>2026-04-25T09:17:46.061Z</time></trkpt><trkpt lat="46.02716229592432" lon="8.749130095817844"><ele>218.0</ele><time>2026-04-25T09:17:47.06Z</time></trkpt><trkpt lat="46.02729528011052" lon="8.74900063382553"><ele>218.0</ele><time>2026-04-25T09:17:48.054Z</time></trkpt><trkpt lat="46.02739745093792" lon="8.748900138911031"><ele>218.0</ele><time>2026-04-25T09:17:49.054Z</time></trkpt><trkpt lat="46.02750324423732" lon="8.748777101848418"><ele>218.0</ele><time>2026-04-25T09:17:50.037Z</time></trkpt><trkpt lat="46.02758931916994" lon="8.748653807208418"><ele>232.5</ele><time>2026-04-25T09:17:51.029Z</time></trkpt><trkpt lat="46.027679236822934" lon="8.748546506724024"><ele>247.0</ele><time>2026-04-25T09:17:52.022Z</time></trkpt><trkpt lat="46.028880250447656" lon="8.748590284467154"><ele>258.5</ele><time>2026-04-25T09:17:54Z</time></trkpt><trkpt lat="46.029073224098774" lon="8.748600483290543"><ele>270.0</ele><time>2026-04-25T09:17:55Z</time></trkpt><trkpt lat="46.02936357550661" lon="8.748581543733037"><ele>255.66666666666669</ele><time>2026-04-25T09:17:56Z</time></trkpt><trkpt lat="46.02950391045204" lon="8.748508663100345"><ele>241.33333333333334</ele><time>2026-04-25T09:17:57Z</time></trkpt><trkpt lat="46.029681695153045" lon="8.748391817472179"><ele>227.0</ele><time>2026-04-25T09:17:58Z</time></trkpt><trkpt lat="46.02987279030709" lon="8.748292314805763"><ele>232.5</ele><time>2026-04-25T09:17:59Z</time></trkpt><trkpt lat="46.03011481670711" lon="8.748202690182067"><ele>238.0</ele><time>2026-04-25T09:18:00Z</time></trkpt><trkpt lat="46.030315610265795" lon="8.748099236553559"><ele>238.0</ele><time>2026-04-25T09:18:01Z</time></trkpt><trkpt lat="46.03047604308667" lon="8.747958253842443"><ele>238.0</ele><time>2026-04-25T09:18:02Z</time></trkpt><trkpt lat="46.03064591134532" lon="8.747835284469812"><ele>238.0</ele><time>2026-04-25T09:18:03Z</time></trkpt><trkpt lat="46.03085336418367" lon="8.747722757667349"><ele>225.5</ele><time>2026-04-25T09:18:04Z</time></trkpt><trkpt lat="46.03109040951394" lon="8.747642250472726"><ele>213.0</ele><time>2026-04-25T09:18:05Z</time></trkpt><trkpt lat="46.03129236453183" lon="8.747583829905935"><ele>213.0</ele><time>2026-04-25T09:18:06Z</time></trkpt><trkpt lat="46.03150372045133" lon="8.747496565802441"><ele>213.0</ele><time>2026-04-25T09:18:07Z</time></trkpt><trkpt lat="46.031728643187186" lon="8.747407660101404"><ele>226.0</ele><time>2026-04-25T09:18:08Z</time></trkpt><trkpt lat="46.031965052169326" lon="8.747300981338835"><ele>239.0</ele><time>2026-04-25T09:18:09Z</time></trkpt><trkpt lat="46.032192695937276" lon="8.74719825788814"><ele>239.0</ele><time>2026-04-25T09:18:10Z</time></trkpt><trkpt lat="46.0324171613526" lon="8.747097017065906"><ele>239.0</ele><time>2026-04-25T09:18:11Z</time></trkpt><trkpt lat="46.03259277771035" lon="8.747041956909273"><ele>239.0</ele><time>2026-04-25T09:18:12Z</time></trkpt><trkpt lat="46.032803377936354" lon="8.746918803686361"><ele>231.0</ele><time>2026-04-25T09:18:13Z</time></trkpt><trkpt lat="46.03297147665355" lon="8.746819700937957"><ele>223.0</ele><time>2026-04-25T09:18:14Z</time></trkpt><trkpt lat="46.033127496265124" lon="8.746715054757507"><ele>215.0</ele><time>2026-04-25T09:18:15Z</time></trkpt><trkpt lat="46.03325736687551" lon="8.746537157904896"><ele>213.0</ele><time>2026-04-25T09:18:16Z</time></trkpt><trkpt lat="46.033395496570485" lon="8.746330176122772"><ele>211.0</ele><time>2026-04-25T09:18:17Z</time></trkpt><trkpt lat="46.03355521107909" lon="8.746113541401018"><ele>209.0</ele><time>2026-04-25T09:18:18Z</time></trkpt><trkpt lat="46.033726110427516" lon="8.745853079498525"><ele>209.0</ele><time>2026-04-25T09:18:19Z</time></trkpt><trkpt lat="46.03389430695308" lon="8.745598122249453"><ele>209.0</ele><time>2026-04-25T09:18:20Z</time></trkpt><trkpt lat="46.03405540074008" lon="8.745353011523674"><ele>225.0</ele><time>2026-04-25T09:18:21Z</time></trkpt><trkpt lat="46.0342181260544" lon="8.74510544969323"><ele>241.0</ele><time>2026-04-25T09:18:22Z</time></trkpt><trkpt lat="46.03437532761783" lon="8.744866528571588"><ele>241.0</ele><time>2026-04-25T09:18:23Z</time></trkpt><trkpt lat="46.03454928467794" lon="8.74460214173412"><ele>241.0</ele><time>2026-04-25T09:18:24Z</time></trkpt><trkpt lat="46.03473082402708" lon="8.7443261739449"><ele>252.5</ele><time>2026-04-25T09:18:25.065Z</time></trkpt><trkpt lat="46.034888372537104" lon="8.744085413364532"><ele>264.0</ele><time>2026-04-25T09:18:26.04Z</time></trkpt><trkpt lat="46.03504708727602" lon="8.743842870601187"><ele>264.0</ele><time>2026-04-25T09:18:27.037Z</time></trkpt><trkpt lat="46.03517501711536" lon="8.743646693306669"><ele>264.0</ele><time>2026-04-25T09:18:28.034Z</time></trkpt><trkpt lat="46.03527862257893" lon="8.743487053895734"><ele>264.0</ele><time>2026-04-25T09:18:29.032Z</time></trkpt><trkpt lat="46.03543032664095" lon="8.74325337975973"><ele>238.5</ele><time>2026-04-25T09:18:30.034Z</time></trkpt><trkpt lat="46.035578368331116" lon="8.743040611873113"><ele>213.0</ele><time>2026-04-25T09:18:31.03Z</time></trkpt><trkpt lat="46.036166645433056" lon="8.742457359352164"><ele>207.66666666666669</ele><time>2026-04-25T09:18:33Z</time></trkpt><trkpt lat="46.036342544989765" lon="8.742316216099274"><ele>202.33333333333334</ele><time>2026-04-25T09:18:34Z</time></trkpt><trkpt lat="46.03647648621755" lon="8.742187572743372"><ele>197.0</ele><time>2026-04-25T09:18:35Z</time></trkpt><trkpt lat="46.03657338630494" lon="8.742052490215718"><ele>198.0</ele><time>2026-04-25T09:18:36Z</time></trkpt><trkpt lat="46.03667473099943" lon="8.741948260056594"><ele>199.0</ele><time>2026-04-25T09:18:37Z</time></trkpt><trkpt lat="46.036790399885504" lon="8.741905004975703"><ele>200.0</ele><time>2026-04-25T09:18:38Z</time></trkpt><trkpt lat="46.036885844017185" lon="8.741840759801454"><ele>201.0</ele><time>2026-04-25T09:18:39Z</time></trkpt><trkpt lat="46.036988515938376" lon="8.741732019802706"><ele>201.0</ele><time>2026-04-25T09:18:40Z</time></trkpt><trkpt lat="46.03707184349179" lon="8.741641786264065"><ele>201.0</ele><time>2026-04-25T09:18:41Z</time></trkpt><trkpt lat="46.0371434706824" lon="8.741549936231829"><ele>201.0</ele><time>2026-04-25T09:18:42Z</time></trkpt><trkpt lat="46.03721256875625" lon="8.74146022529953"><ele>201.0</ele><time>2026-04-25T09:18:43Z</time></trkpt><trkpt lat="46.03727698541125" lon="8.741380995412621"><ele>201.0</ele><time>2026-04-25T09:18:44Z</time></trkpt><trkpt lat="46.037357598674966" lon="8.74133210049195"><ele>201.0</ele><time>2026-04-25T09:18:45Z</time></trkpt><trkpt lat="46.037437094899175" lon="8.741270014805352"><ele>201.0</ele><time>2026-04-25T09:18:46Z</time></trkpt><trkpt lat="46.0375165438243" lon="8.741193784053095"><ele>201.0</ele><time>2026-04-25T09:18:47Z</time></trkpt><trkpt lat="46.037628486654455" lon="8.741136059473831"><ele>201.0</ele><time>2026-04-25T09:18:48Z</time></trkpt><trkpt lat="46.03775202309247" lon="8.741085160531394"><ele>201.0</ele><time>2026-04-25T09:18:49Z</time></trkpt><trkpt lat="46.03787518684396" lon="8.741077217551977"><ele>201.75</ele><time>2026-04-25T09:18:50Z</time></trkpt><trkpt lat="46.037983242891485" lon="8.741049496206964"><ele>202.5</ele><time>2026-04-25T09:18:51Z</time></trkpt><trkpt lat="46.03809884694272" lon="8.74099598876631"><ele>203.25</ele><time>2026-04-25T09:18:52Z</time></trkpt><trkpt lat="46.038229703014736" lon="8.740965677364281"><ele>204.0</ele><time>2026-04-25T09:18:53Z</time></trkpt><trkpt lat="46.03836379330128" lon="8.740936079155237"><ele>204.79999999999998</ele><time>2026-04-25T09:18:54Z</time></trkpt><trkpt lat="46.03848046872597" lon="8.740910635282729"><ele>205.6</ele><time>2026-04-25T09:18:55Z</time></trkpt><trkpt lat="46.03857707887885" lon="8.740885147864308"><ele>206.4</ele><time>2026-04-25T09:18:56Z</time></trkpt><trkpt lat="46.038663538245515" lon="8.740867168489956"><ele>207.2</ele><time>2026-04-25T09:18:57Z</time></trkpt><trkpt lat="46.03873774101803" lon="8.740852275467278"><ele>208.0</ele><time>2026-04-25T09:18:58Z</time></trkpt><trkpt lat="46.038845973134116" lon="8.740823051022444"><ele>208.0</ele><time>2026-04-25T09:19:00Z</time></trkpt><trkpt lat="46.03890938006389" lon="8.740800752831005"><ele>208.0</ele><time>2026-04-25T09:19:02Z</time></trkpt><trkpt lat="46.039041969168544" lon="8.740777524396675"><ele>208.0</ele><time>2026-04-25T09:19:34Z</time></trkpt><trkpt lat="46.03914849838102" lon="8.740748512797225"><ele>208.0</ele><time>2026-04-25T09:19:35Z</time></trkpt><trkpt lat="46.03927235928758" lon="8.74069267076574"><ele>208.0</ele><time>2026-04-25T09:19:36Z</time></trkpt><trkpt lat="46.03939631711254" lon="8.740660496069765"><ele>208.60000000000002</ele><time>2026-04-25T09:19:37Z</time></trkpt><trkpt lat="46.03952062829025" lon="8.740624938342458"><ele>209.20000000000002</ele><time>2026-04-25T09:19:38Z</time></trkpt><trkpt lat="46.03963707667731" lon="8.740617079079906"><ele>209.8</ele><time>2026-04-25T09:19:39Z</time></trkpt><trkpt lat="46.03973583241239" lon="8.7405903638172"><ele>210.4</ele><time>2026-04-25T09:19:40Z</time></trkpt><trkpt lat="46.03982264152618" lon="8.74054776129921"><ele>211.0</ele><time>2026-04-25T09:19:41Z</time></trkpt><trkpt lat="46.03991036170703" lon="8.740528006310258"><ele>211.60000000000002</ele><time>2026-04-25T09:19:42Z</time></trkpt><trkpt lat="46.040000002706776" lon="8.74050601710396"><ele>212.2</ele><time>2026-04-25T09:19:43Z</time></trkpt><trkpt lat="46.040087297919634" lon="8.74047436151387"><ele>212.79999999999998</ele><time>2026-04-25T09:19:44Z</time></trkpt><trkpt lat="46.04018715123503" lon="8.740471017669734"><ele>213.39999999999998</ele><time>2026-04-25T09:19:45Z</time></trkpt><trkpt lat="46.04028741155655" lon="8.740446373065511"><ele>214.0</ele><time>2026-04-25T09:19:46Z</time></trkpt><trkpt lat="46.040382118799016" lon="8.740423441679374"><ele>213.99999999999997</ele><time>2026-04-25T09:19:47Z</time></trkpt><trkpt lat="46.040468275055794" lon="8.740380953739926"><ele>214.0</ele><time>2026-04-25T09:19:48Z</time></trkpt><trkpt lat="46.040559003697574" lon="8.740365787607502"><ele>214.0</ele><time>2026-04-25T09:19:49Z</time></trkpt><trkpt lat="46.04064647039157" lon="8.740336982011803"><ele>214.0</ele><time>2026-04-25T09:19:50Z</time></trkpt><trkpt lat="46.04073398616816" lon="8.740317110975262"><ele>213.99999999999997</ele><time>2026-04-25T09:19:51Z</time></trkpt><trkpt lat="46.04081600056723" lon="8.740296678363908"><ele>214.0</ele><time>2026-04-25T09:19:52Z</time></trkpt><trkpt lat="46.040898299424576" lon="8.740277518434272"><ele>214.33333333333331</ele><time>2026-04-25T09:19:53Z</time></trkpt><trkpt lat="46.04097647506017" lon="8.740253110952741"><ele>214.66666666666666</ele><time>2026-04-25T09:19:54Z</time></trkpt><trkpt lat="46.041055524333544" lon="8.740223247229618"><ele>215.0</ele><time>2026-04-25T09:19:55Z</time></trkpt><trkpt lat="46.041131896480664" lon="8.740184840891699"><ele>215.33333333333331</ele><time>2026-04-25T09:19:56Z</time></trkpt><trkpt lat="46.04121067316159" lon="8.740143895841827"><ele>215.66666666666666</ele><time>2026-04-25T09:19:57Z</time></trkpt><trkpt lat="46.04127733134945" lon="8.740092133696395"><ele>216.0</ele><time>2026-04-25T09:19:58Z</time></trkpt><trkpt lat="46.041336478328596" lon="8.7400344388048"><ele>216.0</ele><time>2026-04-25T09:19:59Z</time></trkpt><trkpt lat="46.04139012323246" lon="8.739972165010599"><ele>216.0</ele><time>2026-04-25T09:20:00Z</time></trkpt><trkpt lat="46.041443086529945" lon="8.739919762451658"><ele>216.0</ele><time>2026-04-25T09:20:01Z</time></trkpt><trkpt lat="46.041496647239185" lon="8.739859765374197"><ele>216.0</ele><time>2026-04-25T09:20:02Z</time></trkpt><trkpt lat="46.04155965265569" lon="8.739802338337824"><ele>216.0</ele><time>2026-04-25T09:20:03Z</time></trkpt><trkpt lat="46.041624585642616" lon="8.739737520374199"><ele>216.0</ele><time>2026-04-25T09:20:04Z</time></trkpt><trkpt lat="46.041690299797416" lon="8.739671577493091"><ele>216.0</ele><time>2026-04-25T09:20:05.001Z</time></trkpt><trkpt lat="46.04175295485668" lon="8.739609344800778"><ele>216.0</ele><time>2026-04-25T09:20:06.001Z</time></trkpt><trkpt lat="46.041822120323715" lon="8.739543356376885"><ele>216.0</ele><time>2026-04-25T09:20:07.001Z</time></trkpt><trkpt lat="46.04188274000545" lon="8.739481883117225"><ele>216.0</ele><time>2026-04-25T09:20:08.001Z</time></trkpt><trkpt lat="46.04199036256258" lon="8.739375658798352"><ele>216.0</ele><time>2026-04-25T09:20:10.001Z</time></trkpt><trkpt lat="46.04205055609553" lon="8.739315849466486"><ele>216.0</ele><time>2026-04-25T09:20:11.001Z</time></trkpt><trkpt lat="46.04210883562119" lon="8.73925429803032"><ele>216.0</ele><time>2026-04-25T09:20:12.001Z</time></trkpt><trkpt lat="46.04217069694757" lon="8.739192843124863"><ele>215.85714285714286</ele><time>2026-04-25T09:20:13.001Z</time></trkpt><trkpt lat="46.04223219511809" lon="8.739132908837455"><ele>215.71428571428572</ele><time>2026-04-25T09:20:14.001Z</time></trkpt><trkpt lat="46.04228267825185" lon="8.73907775674061"><ele>215.57142857142856</ele><time>2026-04-25T09:20:15.001Z</time></trkpt><trkpt lat="46.04233510192206" lon="8.739024905480932"><ele>215.42857142857144</ele><time>2026-04-25T09:20:16.001Z</time></trkpt><trkpt lat="46.04239512061239" lon="8.738964186634451"><ele>215.2857142857143</ele><time>2026-04-25T09:20:17.001Z</time></trkpt><trkpt lat="46.04245023331675" lon="8.738906610442335"><ele>215.14285714285714</ele><time>2026-04-25T09:20:18.001Z</time></trkpt><trkpt lat="46.042511236176665" lon="8.738872576804633"><ele>215.0</ele><time>2026-04-25T09:20:19.001Z</time></trkpt><trkpt lat="46.0425529668381" lon="8.738803059467562"><ele>216.75</ele><time>2026-04-25T09:20:20.001Z</time></trkpt><trkpt lat="46.042646904967754" lon="8.738716205625177"><ele>218.5</ele><time>2026-04-25T09:20:22.001Z</time></trkpt><trkpt lat="46.042752052185485" lon="8.738644270473817"><ele>220.25</ele><time>2026-04-25T09:20:24.001Z</time></trkpt><trkpt lat="46.04283655213145" lon="8.73862814300798"><ele>222.0</ele><time>2026-04-25T09:20:26.001Z</time></trkpt><trkpt lat="46.04284988074044" lon="8.738423958602343"><ele>222.0</ele><time>2026-04-25T09:20:31.001Z</time></trkpt><trkpt lat="46.042810097978126" lon="8.738296134659079"><ele>222.0</ele><time>2026-04-25T09:20:33Z</time></trkpt><trkpt lat="46.04275728541111" lon="8.738159976475494"><ele>222.0</ele><time>2026-04-25T09:20:35Z</time></trkpt><trkpt lat="46.04270202647349" lon="8.738024480735966"><ele>222.0</ele><time>2026-04-25T09:20:37Z</time></trkpt><trkpt lat="46.04266758691858" lon="8.737913552709578"><ele>222.0</ele><time>2026-04-25T09:20:39Z</time></trkpt><trkpt lat="46.04264926405258" lon="8.737779263675135"><ele>221.0</ele><time>2026-04-25T09:20:41Z</time></trkpt><trkpt lat="46.042645938728214" lon="8.737677473095216"><ele>220.0</ele><time>2026-04-25T09:20:42Z</time></trkpt><trkpt lat="46.04264278743572" lon="8.737570006681526"><ele>219.0</ele><time>2026-04-25T09:20:43Z</time></trkpt><trkpt lat="46.04263278171527" lon="8.737470483217228"><ele>218.0</ele><time>2026-04-25T09:20:44Z</time></trkpt><trkpt lat="46.042628753698025" lon="8.737374129706584"><ele>217.0</ele><time>2026-04-25T09:20:45Z</time></trkpt><trkpt lat="46.04261708615831" lon="8.73720044106057"><ele>216.0</ele><time>2026-04-25T09:20:47Z</time></trkpt><trkpt lat="46.042606741546884" lon="8.737021245639546"><ele>216.0</ele><time>2026-04-25T09:20:49Z</time></trkpt><trkpt lat="46.04260353912502" lon="8.736925880687705"><ele>216.0</ele><time>2026-04-25T09:20:50Z</time></trkpt><trkpt lat="46.04260664331435" lon="8.736833145184425"><ele>216.0</ele><time>2026-04-25T09:20:51Z</time></trkpt><trkpt lat="46.0426110837451" lon="8.736669705571648"><ele>216.0</ele><time>2026-04-25T09:20:53Z</time></trkpt><trkpt lat="46.04262033397544" lon="8.736568979534171"><ele>216.0</ele><time>2026-04-25T09:20:56Z</time></trkpt><trkpt lat="46.04261117232102" lon="8.736463489471987"><ele>216.0</ele><time>2026-04-25T09:20:59Z</time></trkpt><trkpt lat="46.04249382530673" lon="8.736395101805629"><ele>214.83333333333334</ele><time>2026-04-25T09:21:01Z</time></trkpt><trkpt lat="46.042382853235694" lon="8.7363158031745"><ele>213.66666666666669</ele><time>2026-04-25T09:21:03Z</time></trkpt><trkpt lat="46.04232187340595" lon="8.73628516629888"><ele>212.5</ele><time>2026-04-25T09:21:04Z</time></trkpt><trkpt lat="46.04224444712279" lon="8.736301713320403"><ele>211.33333333333334</ele><time>2026-04-25T09:21:05Z</time></trkpt><trkpt lat="46.042177168439935" lon="8.736304799002564"><ele>210.16666666666669</ele><time>2026-04-25T09:21:06Z</time></trkpt><trkpt lat="46.04211155691747" lon="8.736321086393621"><ele>209.0</ele><time>2026-04-25T09:21:07Z</time></trkpt><trkpt lat="46.0420416092696" lon="8.736345181854928"><ele>209.00000000000003</ele><time>2026-04-25T09:21:08Z</time></trkpt><trkpt lat="46.041975352720485" lon="8.736340668151996"><ele>209.0</ele><time>2026-04-25T09:21:09Z</time></trkpt><trkpt lat="46.04190612952853" lon="8.736334610888507"><ele>209.0</ele><time>2026-04-25T09:21:10Z</time></trkpt><trkpt lat="46.041830589467814" lon="8.736307059526188"><ele>209.0</ele><time>2026-04-25T09:21:11Z</time></trkpt><trkpt lat="46.041784669134515" lon="8.736211971199557"><ele>209.00000000000003</ele><time>2026-04-25T09:21:12Z</time></trkpt><trkpt lat="46.041745990898775" lon="8.736104962770664"><ele>209.0</ele><time>2026-04-25T09:21:13Z</time></trkpt><trkpt lat="46.04171635886121" lon="8.735987967215149"><ele>208.79999999999998</ele><time>2026-04-25T09:21:14Z</time></trkpt><trkpt lat="46.04166386360624" lon="8.735854041906068"><ele>208.6</ele><time>2026-04-25T09:21:15Z</time></trkpt><trkpt lat="46.041590447463776" lon="8.735738357041837"><ele>208.4</ele><time>2026-04-25T09:21:16Z</time></trkpt><trkpt lat="46.041532549798674" lon="8.735616305258542"><ele>208.2</ele><time>2026-04-25T09:21:17Z</time></trkpt><trkpt lat="46.04147023326063" lon="8.735510139646873"><ele>208.0</ele><time>2026-04-25T09:21:18Z</time></trkpt><trkpt lat="46.04142048497644" lon="8.735425139902436"><ele>207.49999999999997</ele><time>2026-04-25T09:21:19Z</time></trkpt><trkpt lat="46.04138110315993" lon="8.735354128962305"><ele>207.0</ele><time>2026-04-25T09:21:20Z</time></trkpt><trkpt lat="46.04131328964627" lon="8.735236110640546"><ele>206.5</ele><time>2026-04-25T09:21:22Z</time></trkpt><trkpt lat="46.041266378385316" lon="8.735149101404664"><ele>206.0</ele><time>2026-04-25T09:21:23Z</time></trkpt><trkpt lat="46.04120951012796" lon="8.73505127914846"><ele>205.49999999999997</ele><time>2026-04-25T09:21:24Z</time></trkpt><trkpt lat="46.0411495964351" lon="8.734959003650841"><ele>205.0</ele><time>2026-04-25T09:21:25Z</time></trkpt><trkpt lat="46.04109569610154" lon="8.73487784386131"><ele>204.16666666666666</ele><time>2026-04-25T09:21:26Z</time></trkpt><trkpt lat="46.04103291870209" lon="8.7347719206405"><ele>203.33333333333331</ele><time>2026-04-25T09:21:28Z</time></trkpt><trkpt lat="46.04099284565642" lon="8.734659792906562"><ele>202.5</ele><time>2026-04-25T09:21:31Z</time></trkpt><trkpt lat="46.040913413242656" lon="8.734607188076355"><ele>201.66666666666669</ele><time>2026-04-25T09:21:33Z</time></trkpt><trkpt lat="46.0408577083595" lon="8.73448640109741"><ele>200.83333333333334</ele><time>2026-04-25T09:21:35Z</time></trkpt><trkpt lat="46.040828735299144" lon="8.734395826111848"><ele>200.0</ele><time>2026-04-25T09:21:36Z</time></trkpt><trkpt lat="46.040790603545375" lon="8.734317129856281"><ele>200.00000000000003</ele><time>2026-04-25T09:21:37Z</time></trkpt><trkpt lat="46.04076844237408" lon="8.734227444229242"><ele>200.0</ele><time>2026-04-25T09:21:38Z</time></trkpt><trkpt lat="46.040737124967414" lon="8.734121162178786"><ele>200.0</ele><time>2026-04-25T09:21:39Z</time></trkpt><trkpt lat="46.04069421578879" lon="8.734032907231128"><ele>200.0</ele><time>2026-04-25T09:21:40Z</time></trkpt><trkpt lat="46.040683156724604" lon="8.733917518106887"><ele>200.00000000000003</ele><time>2026-04-25T09:21:41Z</time></trkpt><trkpt lat="46.040664055792284" lon="8.733801542088328"><ele>200.0</ele><time>2026-04-25T09:21:42Z</time></trkpt><trkpt lat="46.04063251233889" lon="8.733689046822244"><ele>200.00000000000003</ele><time>2026-04-25T09:21:43Z</time></trkpt><trkpt lat="46.040627833779226" lon="8.733570617263135"><ele>200.0</ele><time>2026-04-25T09:21:44Z</time></trkpt><trkpt lat="46.04061972269204" lon="8.733452756095048"><ele>200.0</ele><time>2026-04-25T09:21:45Z</time></trkpt><trkpt lat="46.04061375288415" lon="8.733345062276964"><ele>200.0</ele><time>2026-04-25T09:21:46Z</time></trkpt><trkpt lat="46.04060842139128" lon="8.733247358463094"><ele>200.00000000000003</ele><time>2026-04-25T09:21:47Z</time></trkpt><trkpt lat="46.04061498346653" lon="8.733078565822323"><ele>200.0</ele><time>2026-04-25T09:21:49Z</time></trkpt><trkpt lat="46.04059768108533" lon="8.732927306929636"><ele>199.83333333333334</ele><time>2026-04-25T09:21:51Z</time></trkpt><trkpt lat="46.040589046089956" lon="8.732800185820292"><ele>199.66666666666669</ele><time>2026-04-25T09:21:53Z</time></trkpt><trkpt lat="46.04047720171059" lon="8.732755284337976"><ele>199.5</ele><time>2026-04-25T09:21:57Z</time></trkpt><trkpt lat="46.04039833298219" lon="8.73281668333255"><ele>199.33333333333331</ele><time>2026-04-25T09:22:00Z</time></trkpt><trkpt lat="46.04038266419444" lon="8.73291636563854"><ele>199.16666666666666</ele><time>2026-04-25T09:22:02Z</time></trkpt><trkpt lat="46.04043749042422" lon="8.73297358689547"><ele>199.0</ele><time>2026-04-25T09:22:03Z</time></trkpt><trkpt lat="46.04039024836911" lon="8.732168133724805"><ele>198.85714285714283</ele><time>2026-04-25T09:31:37.999Z</time></trkpt><trkpt lat="46.040327858448585" lon="8.732127688177801"><ele>198.71428571428572</ele><time>2026-04-25T09:31:44.999Z</time></trkpt><trkpt lat="46.04025714269031" lon="8.732120751601764"><ele>198.57142857142856</ele><time>2026-04-25T09:31:52.999Z</time></trkpt><trkpt lat="46.04021960378031" lon="8.7320118980898"><ele>198.42857142857142</ele><time>2026-04-25T09:32:06.999Z</time></trkpt><trkpt lat="46.0402148916299" lon="8.73190289441604"><ele>198.28571428571428</ele><time>2026-04-25T09:32:19.999Z</time></trkpt><trkpt lat="46.04021693885559" lon="8.731804814001785"><ele>198.14285714285714</ele><time>2026-04-25T09:32:28.999Z</time></trkpt><trkpt lat="46.04023536144262" lon="8.731707056584112"><ele>198.0</ele><time>2026-04-25T09:32:41.999Z</time></trkpt><trkpt lat="46.040199493917676" lon="8.731783365562926"><ele>198.71428571428572</ele><time>2026-04-25T09:36:54.999Z</time></trkpt><trkpt lat="46.04019721539382" lon="8.731914793973676"><ele>199.42857142857142</ele><time>2026-04-25T09:39:01Z</time></trkpt><trkpt lat="46.04018509286624" lon="8.73200421127797"><ele>200.14285714285714</ele><time>2026-04-25T09:39:10Z</time></trkpt><trkpt lat="46.0402116888973" lon="8.732086851865327"><ele>200.85714285714286</ele><time>2026-04-25T09:39:22.999Z</time></trkpt><trkpt lat="46.04026732817701" lon="8.732145445509051"><ele>201.57142857142856</ele><time>2026-04-25T09:39:29.999Z</time></trkpt><trkpt lat="46.04033716692773" lon="8.732167211829843"><ele>202.28571428571428</ele><time>2026-04-25T09:39:37.999Z</time></trkpt><trkpt lat="46.040388375303664" lon="8.732247713274877"><ele>203.0</ele><time>2026-04-25T09:39:54.999Z</time></trkpt><trkpt lat="46.040411349276035" lon="8.732348045179137"><ele>203.0</ele><time>2026-04-25T09:40:22.999Z</time></trkpt><trkpt lat="46.04043292681263" lon="8.732435150382276"><ele>203.0</ele><time>2026-04-25T09:40:34.999Z</time></trkpt><trkpt lat="46.040502976580555" lon="8.732438690821734"><ele>203.0</ele><time>2026-04-25T09:40:40.999Z</time></trkpt><trkpt lat="46.040564909197776" lon="8.732414121327901"><ele>203.0</ele><time>2026-04-25T09:40:47.999Z</time></trkpt><trkpt lat="46.040544245397264" lon="8.732530088388316"><ele>203.0</ele><time>2026-04-25T09:41:55.999Z</time></trkpt><trkpt lat="46.04061312459168" lon="8.732582714079065"><ele>203.0</ele><time>2026-04-25T09:41:57.999Z</time></trkpt><trkpt lat="46.040669274858985" lon="8.732630204017049"><ele>203.0</ele><time>2026-04-25T09:41:59.999Z</time></trkpt><trkpt lat="46.040622343534324" lon="8.732728587979107"><ele>203.0</ele><time>2026-04-25T09:42:00.999Z</time></trkpt><trkpt lat="46.04054725730627" lon="8.732710554942466"><ele>203.0</ele><time>2026-04-25T09:42:03.999Z</time></trkpt><trkpt lat="46.04048397311857" lon="8.732746207055845"><ele>203.0</ele><time>2026-04-25T09:42:07.999Z</time></trkpt><trkpt lat="46.04059642254593" lon="8.732979542044944"><ele>203.0</ele><time>2026-04-25T09:42:10.999Z</time></trkpt><trkpt lat="46.04053695485702" lon="8.732415343468276"><ele>203.0</ele><time>2026-04-25T09:43:16.01Z</time></trkpt><trkpt lat="46.04050329485084" lon="8.732509853250601"><ele>203.0</ele><time>2026-04-25T09:43:32.016Z</time></trkpt><trkpt lat="46.0405000945339" lon="8.732414968017297"><ele>203.0</ele><time>2026-04-25T09:43:54.999Z</time></trkpt><trkpt lat="46.04043297626999" lon="8.732295290193148"><ele>203.0</ele><time>2026-04-25T09:44:02.999Z</time></trkpt><trkpt lat="46.04038216409851" lon="8.73223151745349"><ele>203.0</ele><time>2026-04-25T09:44:14.999Z</time></trkpt></trkseg><trkseg><trkpt lat="46.04045021896764" lon="8.732957607456948"><ele>199.0</ele><time>2026-04-25T10:05:55.999Z</time></trkpt><trkpt lat="46.04051785792439" lon="8.73310681328664"><ele>199.0</ele><time>2026-04-25T10:06:09.999Z</time></trkpt><trkpt lat="46.04055015684288" lon="8.733216254830172"><ele>199.0</ele><time>2026-04-25T10:06:10.999Z</time></trkpt><trkpt lat="46.04057673523003" lon="8.733310693606876"><ele>199.0</ele><time>2026-04-25T10:06:11.999Z</time></trkpt><trkpt lat="46.040582189169385" lon="8.733468710506664"><ele>199.0</ele><time>2026-04-25T10:06:13.999Z</time></trkpt><trkpt lat="46.040598810034815" lon="8.733587716194641"><ele>199.2</ele><time>2026-04-25T10:06:15.999Z</time></trkpt><trkpt lat="46.04062093698769" lon="8.733738829954866"><ele>199.39999999999998</ele><time>2026-04-25T10:06:17.999Z</time></trkpt><trkpt lat="46.04063493597497" lon="8.733833675422801"><ele>199.6</ele><time>2026-04-25T10:06:18.999Z</time></trkpt><trkpt lat="46.040661820649156" lon="8.733983157117924"><ele>199.8</ele><time>2026-04-25T10:06:20.999Z</time></trkpt><trkpt lat="46.040695052777295" lon="8.734104718736424"><ele>200.0</ele><time>2026-04-25T10:06:22.999Z</time></trkpt><trkpt lat="46.040743862884476" lon="8.734245143002568"><ele>200.00000000000003</ele><time>2026-04-25T10:06:24.999Z</time></trkpt><trkpt lat="46.040791474493936" lon="8.73439393528707"><ele>200.0</ele><time>2026-04-25T10:06:26.999Z</time></trkpt><trkpt lat="46.040819515236684" lon="8.734480379217379"><ele>200.0</ele><time>2026-04-25T10:06:27.999Z</time></trkpt><trkpt lat="46.040852594753865" lon="8.73457090715659"><ele>200.0</ele><time>2026-04-25T10:06:28.999Z</time></trkpt><trkpt lat="46.04088780196032" lon="8.734647760007283"><ele>200.00000000000003</ele><time>2026-04-25T10:06:29.999Z</time></trkpt><trkpt lat="46.040969386695856" lon="8.734732228927879"><ele>200.0</ele><time>2026-04-25T10:06:31.999Z</time></trkpt><trkpt lat="46.0410498235595" lon="8.734846611182194"><ele>200.00000000000003</ele><time>2026-04-25T10:06:33.999Z</time></trkpt><trkpt lat="46.041091970722036" lon="8.734946183875929"><ele>200.0</ele><time>2026-04-25T10:06:34.999Z</time></trkpt><trkpt lat="46.041142193491744" lon="8.735021116908468"><ele>200.0</ele><time>2026-04-25T10:06:35.999Z</time></trkpt><trkpt lat="46.04120254964331" lon="8.735076867919643"><ele>200.0</ele><time>2026-04-25T10:06:36.999Z</time></trkpt><trkpt lat="46.04124782568768" lon="8.73514903071073"><ele>200.00000000000003</ele><time>2026-04-25T10:06:37.999Z</time></trkpt><trkpt lat="46.041286990449656" lon="8.7352212108988"><ele>200.0</ele><time>2026-04-25T10:06:38.999Z</time></trkpt><trkpt lat="46.041364444516944" lon="8.73534930334363"><ele>201.0</ele><time>2026-04-25T10:06:40.999Z</time></trkpt><trkpt lat="46.04142089333776" lon="8.735460432653072"><ele>202.0</ele><time>2026-04-25T10:06:42.999Z</time></trkpt><trkpt lat="46.04147951595164" lon="8.73557246546648"><ele>203.0</ele><time>2026-04-25T10:06:44.999Z</time></trkpt><trkpt lat="46.04155167864412" lon="8.735714029265784"><ele>204.0</ele><time>2026-04-25T10:06:46.999Z</time></trkpt><trkpt lat="46.041595852038384" lon="8.735800405788085"><ele>205.0</ele><time>2026-04-25T10:06:47.999Z</time></trkpt><trkpt lat="46.04164064077678" lon="8.735895319839452"><ele>205.49999999999997</ele><time>2026-04-25T10:06:48.999Z</time></trkpt><trkpt lat="46.04167681838189" lon="8.735984485677658"><ele>206.0</ele><time>2026-04-25T10:06:49.999Z</time></trkpt><trkpt lat="46.041713832160475" lon="8.73608197376263"><ele>206.5</ele><time>2026-04-25T10:06:51.999Z</time></trkpt><trkpt lat="46.041752903545806" lon="8.736188352760283"><ele>207.0</ele><time>2026-04-25T10:06:53.999Z</time></trkpt><trkpt lat="46.04183352506094" lon="8.736319850421827"><ele>207.49999999999997</ele><time>2026-04-25T10:06:55.999Z</time></trkpt><trkpt lat="46.04188860783641" lon="8.73636558426228"><ele>208.0</ele><time>2026-04-25T10:06:56.999Z</time></trkpt><trkpt lat="46.04195848396912" lon="8.736392396205332"><ele>208.14285714285714</ele><time>2026-04-25T10:06:57.999Z</time></trkpt><trkpt lat="46.042024660664254" lon="8.73639732173758"><ele>208.2857142857143</ele><time>2026-04-25T10:06:58.999Z</time></trkpt><trkpt lat="46.04209528509915" lon="8.73634910595737"><ele>208.42857142857144</ele><time>2026-04-25T10:06:59.999Z</time></trkpt><trkpt lat="46.042160902115626" lon="8.736350615617855"><ele>208.57142857142856</ele><time>2026-04-25T10:07:00.999Z</time></trkpt><trkpt lat="46.04223057794636" lon="8.736337256923596"><ele>208.71428571428572</ele><time>2026-04-25T10:07:01.999Z</time></trkpt><trkpt lat="46.04230274366642" lon="8.736330621245116"><ele>208.85714285714286</ele><time>2026-04-25T10:07:02.999Z</time></trkpt><trkpt lat="46.042370522774675" lon="8.736351145278075"><ele>209.0</ele><time>2026-04-25T10:07:03.999Z</time></trkpt><trkpt lat="46.042452501274575" lon="8.736409476069701"><ele>209.16666666666669</ele><time>2026-04-25T10:07:05.999Z</time></trkpt><trkpt lat="46.04251808795982" lon="8.736450006954124"><ele>209.33333333333334</ele><time>2026-04-25T10:07:07.999Z</time></trkpt><trkpt lat="46.04258172047508" lon="8.736491799274956"><ele>209.5</ele><time>2026-04-25T10:07:10.999Z</time></trkpt><trkpt lat="46.04266897752733" lon="8.736407976627476"><ele>209.66666666666669</ele><time>2026-04-25T10:07:15.999Z</time></trkpt><trkpt lat="46.042680081147815" lon="8.73630475478765"><ele>209.83333333333334</ele><time>2026-04-25T10:07:16.999Z</time></trkpt><trkpt lat="46.04269169784412" lon="8.736213304075514"><ele>210.0</ele><time>2026-04-25T10:07:17.999Z</time></trkpt><trkpt lat="46.04272730406733" lon="8.736046503324205"><ele>210.0</ele><time>2026-04-25T10:07:19.999Z</time></trkpt><trkpt lat="46.04274517845134" lon="8.735959235218532"><ele>210.0</ele><time>2026-04-25T10:07:20.999Z</time></trkpt><trkpt lat="46.04276469798216" lon="8.735872832574149"><ele>210.0</ele><time>2026-04-25T10:07:21.999Z</time></trkpt><trkpt lat="46.04278186704703" lon="8.735777549942265"><ele>210.0</ele><time>2026-04-25T10:07:22.999Z</time></trkpt><trkpt lat="46.042815891678174" lon="8.735607680223044"><ele>210.0</ele><time>2026-04-25T10:07:24.999Z</time></trkpt><trkpt lat="46.04284339953553" lon="8.735504545588757"><ele>210.0</ele><time>2026-04-25T10:07:26.999Z</time></trkpt><trkpt lat="46.0429387966641" lon="8.735585073993738"><ele>210.0</ele><time>2026-04-25T10:07:28.999Z</time></trkpt><trkpt lat="46.04305663745049" lon="8.735608377640856"><ele>210.0</ele><time>2026-04-25T10:07:30.999Z</time></trkpt><trkpt lat="46.04312331665446" lon="8.735632637010049"><ele>210.0</ele><time>2026-04-25T10:07:31.999Z</time></trkpt><trkpt lat="46.04324228285028" lon="8.735694876016133"><ele>210.0</ele><time>2026-04-25T10:07:33.999Z</time></trkpt><trkpt lat="46.043337033158586" lon="8.735729277150524"><ele>210.0</ele><time>2026-04-25T10:07:35.999Z</time></trkpt><trkpt lat="46.04342777303897" lon="8.735746693763373"><ele>210.2</ele><time>2026-04-25T10:07:38.999Z</time></trkpt><trkpt lat="46.04349660158759" lon="8.735794393809709"><ele>210.4</ele><time>2026-04-25T10:07:41.999Z</time></trkpt><trkpt lat="46.043545719399184" lon="8.735690459665614"><ele>210.60000000000002</ele><time>2026-04-25T10:07:43.999Z</time></trkpt><trkpt lat="46.04358339447738" lon="8.735518817517303"><ele>210.8</ele><time>2026-04-25T10:07:45.999Z</time></trkpt><trkpt lat="46.04360173871919" lon="8.735421424157286"><ele>211.0</ele><time>2026-04-25T10:07:46.999Z</time></trkpt><trkpt lat="46.043634808163524" lon="8.735245851524638"><ele>210.0</ele><time>2026-04-25T10:07:48.999Z</time></trkpt><trkpt lat="46.043666155804225" lon="8.735079420349544"><ele>209.0</ele><time>2026-04-25T10:07:50.999Z</time></trkpt><trkpt lat="46.043692670993906" lon="8.734933010717004"><ele>208.0</ele><time>2026-04-25T10:07:52.999Z</time></trkpt><trkpt lat="46.04371806237881" lon="8.734826794890623"><ele>207.0</ele><time>2026-04-25T10:07:55.999Z</time></trkpt><trkpt lat="46.043783642884385" lon="8.734874356551517"><ele>206.0</ele><time>2026-04-25T10:07:57.999Z</time></trkpt><trkpt lat="46.04387843551693" lon="8.734923259783024"><ele>206.0</ele><time>2026-04-25T10:07:59.999Z</time></trkpt><trkpt lat="46.04398787849861" lon="8.73498413701342"><ele>206.0</ele><time>2026-04-25T10:08:01.999Z</time></trkpt><trkpt lat="46.04404646745276" lon="8.735017476307108"><ele>206.0</ele><time>2026-04-25T10:08:02.999Z</time></trkpt><trkpt lat="46.04415500604556" lon="8.735079236493242"><ele>206.0</ele><time>2026-04-25T10:08:04.999Z</time></trkpt><trkpt lat="46.04425592814251" lon="8.735138511000184"><ele>206.0</ele><time>2026-04-25T10:08:06.999Z</time></trkpt><trkpt lat="46.04431789506315" lon="8.73517510320677"><ele>206.0</ele><time>2026-04-25T10:08:07.999Z</time></trkpt><trkpt lat="46.044386897037626" lon="8.735215849723275"><ele>206.0</ele><time>2026-04-25T10:08:08.999Z</time></trkpt><trkpt lat="46.0444587809666" lon="8.735258298158946"><ele>206.0</ele><time>2026-04-25T10:08:09.999Z</time></trkpt><trkpt lat="46.04456877924185" lon="8.735323003030667"><ele>206.0</ele><time>2026-04-25T10:08:11.999Z</time></trkpt><trkpt lat="46.04467025921882" lon="8.735382665215312"><ele>206.0</ele><time>2026-04-25T10:08:13.999Z</time></trkpt><trkpt lat="46.04473599840931" lon="8.735421314731036"><ele>206.4</ele><time>2026-04-25T10:08:14.999Z</time></trkpt><trkpt lat="46.04483712649292" lon="8.735480769981871"><ele>206.8</ele><time>2026-04-25T10:08:16.999Z</time></trkpt><trkpt lat="46.04495370414055" lon="8.735552093826097"><ele>207.20000000000002</ele><time>2026-04-25T10:08:18.999Z</time></trkpt><trkpt lat="46.045044458911875" lon="8.735609807156735"><ele>207.60000000000002</ele><time>2026-04-25T10:08:20.999Z</time></trkpt><trkpt lat="46.045130594086515" lon="8.735672720890678"><ele>208.0</ele><time>2026-04-25T10:08:22.999Z</time></trkpt><trkpt lat="46.04520317730319" lon="8.735726784266104"><ele>209.8</ele><time>2026-04-25T10:08:24.999Z</time></trkpt><trkpt lat="46.0452797305349" lon="8.73583897908657"><ele>211.60000000000002</ele><time>2026-04-25T10:08:26.999Z</time></trkpt><trkpt lat="46.045285577315305" lon="8.735966751941957"><ele>213.39999999999998</ele><time>2026-04-25T10:08:27.999Z</time></trkpt><trkpt lat="46.04525812510775" lon="8.736056105139893"><ele>215.2</ele><time>2026-04-25T10:08:28.999Z</time></trkpt><trkpt lat="46.04520595864769" lon="8.736129224164111"><ele>217.0</ele><time>2026-04-25T10:08:29.999Z</time></trkpt><trkpt lat="46.045138882707015" lon="8.736287257063143"><ele>216.8</ele><time>2026-04-25T10:08:30.999Z</time></trkpt><trkpt lat="46.04508598752866" lon="8.736404249602124"><ele>216.6</ele><time>2026-04-25T10:08:31.999Z</time></trkpt><trkpt lat="46.04503732921865" lon="8.736526763593956"><ele>216.40000000000003</ele><time>2026-04-25T10:08:32.999Z</time></trkpt><trkpt lat="46.04498503559642" lon="8.736643318353888"><ele>216.20000000000002</ele><time>2026-04-25T10:08:33.999Z</time></trkpt><trkpt lat="46.044934033213714" lon="8.736756812892022"><ele>216.0</ele><time>2026-04-25T10:08:34.999Z</time></trkpt><trkpt lat="46.044876287076804" lon="8.736859283737367"><ele>217.0</ele><time>2026-04-25T10:08:35.999Z</time></trkpt><trkpt lat="46.044804518379195" lon="8.736942226447953"><ele>218.0</ele><time>2026-04-25T10:08:36.999Z</time></trkpt><trkpt lat="46.04473367270032" lon="8.737018772478576"><ele>219.0</ele><time>2026-04-25T10:08:37.999Z</time></trkpt><trkpt lat="46.04466852829107" lon="8.737097268391398"><ele>220.0</ele><time>2026-04-25T10:08:38.999Z</time></trkpt><trkpt lat="46.04460629320174" lon="8.737176065404325"><ele>221.0</ele><time>2026-04-25T10:08:39.999Z</time></trkpt><trkpt lat="46.04453448953555" lon="8.737263640294815"><ele>222.0</ele><time>2026-04-25T10:08:40.999Z</time></trkpt><trkpt lat="46.04445832359921" lon="8.737358291194882"><ele>222.0</ele><time>2026-04-25T10:08:41.999Z</time></trkpt><trkpt lat="46.04437361129909" lon="8.7374593713526"><ele>222.0</ele><time>2026-04-25T10:08:42.999Z</time></trkpt><trkpt lat="46.04428410339031" lon="8.737553713937029"><ele>222.0</ele><time>2026-04-25T10:08:43.999Z</time></trkpt><trkpt lat="46.04420961352873" lon="8.737677102166412"><ele>222.0</ele><time>2026-04-25T10:08:44.999Z</time></trkpt><trkpt lat="46.04412970247552" lon="8.737774062861101"><ele>222.0</ele><time>2026-04-25T10:08:45.999Z</time></trkpt><trkpt lat="46.0440420684213" lon="8.737854657977756"><ele>222.16666666666666</ele><time>2026-04-25T10:08:46.999Z</time></trkpt><trkpt lat="46.04398613285214" lon="8.73795568585252"><ele>222.33333333333331</ele><time>2026-04-25T10:08:47.999Z</time></trkpt><trkpt lat="46.043934706674136" lon="8.738019272548298"><ele>222.5</ele><time>2026-04-25T10:08:48.999Z</time></trkpt><trkpt lat="46.04385155934592" lon="8.738117182677342"><ele>222.66666666666666</ele><time>2026-04-25T10:08:50.999Z</time></trkpt><trkpt lat="46.043788504983205" lon="8.738198048263014"><ele>222.83333333333331</ele><time>2026-04-25T10:08:52.999Z</time></trkpt><trkpt lat="46.04371491092663" lon="8.738258851584025"><ele>223.0</ele><time>2026-04-25T10:08:55.999Z</time></trkpt><trkpt lat="46.043799293373645" lon="8.738389344014244"><ele>223.0</ele><time>2026-04-25T10:08:57.999Z</time></trkpt><trkpt lat="46.04389227235342" lon="8.738485603943323"><ele>223.0</ele><time>2026-04-25T10:08:59.998Z</time></trkpt><trkpt lat="46.04395816727947" lon="8.73851955477866"><ele>223.0</ele><time>2026-04-25T10:09:00.998Z</time></trkpt><trkpt lat="46.04401601089438" lon="8.738591794737555"><ele>223.0</ele><time>2026-04-25T10:09:01.998Z</time></trkpt><trkpt lat="46.0440989269256" lon="8.738658927476887"><ele>223.0</ele><time>2026-04-25T10:09:03.998Z</time></trkpt><trkpt lat="46.044157213099425" lon="8.738790418322088"><ele>223.4</ele><time>2026-04-25T10:09:05.998Z</time></trkpt><trkpt lat="46.04412666472964" lon="8.738927692128703"><ele>223.8</ele><time>2026-04-25T10:09:07.998Z</time></trkpt><trkpt lat="46.04409771290992" lon="8.739072796486571"><ele>224.2</ele><time>2026-04-25T10:09:08.998Z</time></trkpt><trkpt lat="46.04406235715585" lon="8.739227831568765"><ele>224.6</ele><time>2026-04-25T10:09:09.998Z</time></trkpt><trkpt lat="46.04401680924847" lon="8.739367728000639"><ele>225.0</ele><time>2026-04-25T10:09:10.999Z</time></trkpt><trkpt lat="46.04394140670433" lon="8.739509765528412"><ele>225.4</ele><time>2026-04-25T10:09:11.999Z</time></trkpt><trkpt lat="46.043874418542345" lon="8.739637044751973"><ele>225.8</ele><time>2026-04-25T10:09:12.999Z</time></trkpt><trkpt lat="46.04382569089129" lon="8.739761054131009"><ele>226.2</ele><time>2026-04-25T10:09:13.999Z</time></trkpt><trkpt lat="46.0437758632515" lon="8.739861039952826"><ele>226.6</ele><time>2026-04-25T10:09:14.999Z</time></trkpt><trkpt lat="46.0437468015921" lon="8.739961928321673"><ele>227.0</ele><time>2026-04-25T10:09:15.999Z</time></trkpt><trkpt lat="46.043734230755426" lon="8.74007536497418"><ele>227.0</ele><time>2026-04-25T10:09:16.999Z</time></trkpt><trkpt lat="46.043731066665394" lon="8.740204432138686"><ele>227.0</ele><time>2026-04-25T10:09:17.999Z</time></trkpt><trkpt lat="46.04370066853659" lon="8.740334409865778"><ele>227.0</ele><time>2026-04-25T10:09:18.999Z</time></trkpt><trkpt lat="46.04367229188538" lon="8.740444276349985"><ele>227.0</ele><time>2026-04-25T10:09:19.999Z</time></trkpt><trkpt lat="46.04360500950701" lon="8.740519242324256"><ele>227.0</ele><time>2026-04-25T10:09:20.999Z</time></trkpt><trkpt lat="46.04353109038077" lon="8.740631818552956"><ele>228.6</ele><time>2026-04-25T10:09:21.999Z</time></trkpt><trkpt lat="46.04347797014524" lon="8.74077901246289"><ele>230.2</ele><time>2026-04-25T10:09:22.999Z</time></trkpt><trkpt lat="46.043421468858654" lon="8.740917668911885"><ele>231.8</ele><time>2026-04-25T10:09:23.999Z</time></trkpt><trkpt lat="46.043388573286414" lon="8.741082375963078"><ele>233.4</ele><time>2026-04-25T10:09:24.999Z</time></trkpt><trkpt lat="46.04336217333761" lon="8.741212636668108"><ele>235.0</ele><time>2026-04-25T10:09:25.999Z</time></trkpt><trkpt lat="46.04334897266371" lon="8.741308876103465"><ele>235.8</ele><time>2026-04-25T10:09:26.999Z</time></trkpt><trkpt lat="46.04336226143414" lon="8.741459545083611"><ele>236.6</ele><time>2026-04-25T10:09:28.999Z</time></trkpt><trkpt lat="46.043427521060345" lon="8.741533145497653"><ele>237.39999999999998</ele><time>2026-04-25T10:09:30.999Z</time></trkpt><trkpt lat="46.04349290138089" lon="8.741453334954747"><ele>238.2</ele><time>2026-04-25T10:09:32.999Z</time></trkpt><trkpt lat="46.04347874437216" lon="8.741257937632565"><ele>239.0</ele><time>2026-04-25T10:09:34.999Z</time></trkpt><trkpt lat="46.04348282993121" lon="8.74112993382607"><ele>238.2</ele><time>2026-04-25T10:09:35.999Z</time></trkpt><trkpt lat="46.04353537838322" lon="8.741025611101271"><ele>237.39999999999998</ele><time>2026-04-25T10:09:36.999Z</time></trkpt><trkpt lat="46.043630945366495" lon="8.740984533267518"><ele>236.6</ele><time>2026-04-25T10:09:37.999Z</time></trkpt><trkpt lat="46.04370624255095" lon="8.740899758692597"><ele>235.8</ele><time>2026-04-25T10:09:38.999Z</time></trkpt><trkpt lat="46.0437722624058" lon="8.740774767307904"><ele>235.0</ele><time>2026-04-25T10:09:39.999Z</time></trkpt><trkpt lat="46.04382989231578" lon="8.740640656920025"><ele>234.99999999999997</ele><time>2026-04-25T10:09:40.999Z</time></trkpt><trkpt lat="46.04391074391919" lon="8.7405467974115"><ele>235.0</ele><time>2026-04-25T10:09:41.999Z</time></trkpt><trkpt lat="46.04397455183764" lon="8.740456986026357"><ele>235.0</ele><time>2026-04-25T10:09:42.999Z</time></trkpt><trkpt lat="46.04402272687285" lon="8.740384074725737"><ele>235.0</ele><time>2026-04-25T10:09:43.999Z</time></trkpt><trkpt lat="46.04406936566418" lon="8.740294500727558"><ele>234.99999999999997</ele><time>2026-04-25T10:09:45.999Z</time></trkpt><trkpt lat="46.044086388029854" lon="8.740424448721242"><ele>235.0</ele><time>2026-04-25T10:09:48.999Z</time></trkpt><trkpt lat="46.04402157235174" lon="8.74050607088228"><ele>235.0</ele><time>2026-04-25T10:09:49.999Z</time></trkpt><trkpt lat="46.043957993063444" lon="8.740603356909794"><ele>235.0</ele><time>2026-04-25T10:09:50.999Z</time></trkpt><trkpt lat="46.043921759953854" lon="8.74075253453302"><ele>235.0</ele><time>2026-04-25T10:09:52.999Z</time></trkpt><trkpt lat="46.04386418823198" lon="8.740906164427948"><ele>235.0</ele><time>2026-04-25T10:09:54.999Z</time></trkpt><trkpt lat="46.04382422318202" lon="8.741013903568753"><ele>235.0</ele><time>2026-04-25T10:09:55.999Z</time></trkpt><trkpt lat="46.04377384478447" lon="8.741120136472185"><ele>235.66666666666666</ele><time>2026-04-25T10:09:56.999Z</time></trkpt><trkpt lat="46.04371987011214" lon="8.741204832647469"><ele>236.33333333333331</ele><time>2026-04-25T10:09:57.999Z</time></trkpt><trkpt lat="46.04366660996444" lon="8.741267948641886"><ele>237.0</ele><time>2026-04-25T10:09:58.999Z</time></trkpt><trkpt lat="46.043612170650995" lon="8.741350739231866"><ele>237.66666666666669</ele><time>2026-04-25T10:10:00.999Z</time></trkpt><trkpt lat="46.043615899864044" lon="8.74146211361398"><ele>238.33333333333334</ele><time>2026-04-25T10:10:02.999Z</time></trkpt><trkpt lat="46.043667646031444" lon="8.741551276371538"><ele>239.0</ele><time>2026-04-25T10:10:04.999Z</time></trkpt><trkpt lat="46.04377962837375" lon="8.741418465889595"><ele>239.0</ele><time>2026-04-25T10:10:05.999Z</time></trkpt><trkpt lat="46.043842298617776" lon="8.741306108281284"><ele>239.0</ele><time>2026-04-25T10:10:06.999Z</time></trkpt><trkpt lat="46.043897409666265" lon="8.741153881673064"><ele>239.0</ele><time>2026-04-25T10:10:07.999Z</time></trkpt><trkpt lat="46.043962682839926" lon="8.741007126510059"><ele>239.0</ele><time>2026-04-25T10:10:08.999Z</time></trkpt><trkpt lat="46.04402892419429" lon="8.740872496891685"><ele>238.2</ele><time>2026-04-25T10:10:09.999Z</time></trkpt><trkpt lat="46.04407804862675" lon="8.740739052959539"><ele>237.39999999999998</ele><time>2026-04-25T10:10:10.999Z</time></trkpt><trkpt lat="46.04410934675526" lon="8.740628089682081"><ele>236.6</ele><time>2026-04-25T10:10:11.999Z</time></trkpt><trkpt lat="46.04419606055109" lon="8.740478996735993"><ele>235.8</ele><time>2026-04-25T10:10:13.999Z</time></trkpt><trkpt lat="46.04429820841413" lon="8.740440397517556"><ele>235.0</ele><time>2026-04-25T10:10:14.999Z</time></trkpt><trkpt lat="46.04439862857078" lon="8.740350385649448"><ele>240.25</ele><time>2026-04-25T10:10:15.999Z</time></trkpt><trkpt lat="46.044464525691644" lon="8.740205872842793"><ele>245.5</ele><time>2026-04-25T10:10:16.999Z</time></trkpt><trkpt lat="46.04452157469798" lon="8.740061281484712"><ele>250.75</ele><time>2026-04-25T10:10:17.999Z</time></trkpt><trkpt lat="46.04460579726679" lon="8.739939753449775"><ele>256.0</ele><time>2026-04-25T10:10:18.999Z</time></trkpt><trkpt lat="46.04467106721645" lon="8.739792446600825"><ele>256.0</ele><time>2026-04-25T10:10:19.999Z</time></trkpt><trkpt lat="46.04474418786926" lon="8.73965731092933"><ele>256.0</ele><time>2026-04-25T10:10:20.999Z</time></trkpt><trkpt lat="46.04481499201244" lon="8.73952031131147"><ele>256.0</ele><time>2026-04-25T10:10:21.999Z</time></trkpt><trkpt lat="46.044891479535295" lon="8.739396197092589"><ele>256.0</ele><time>2026-04-25T10:10:22.999Z</time></trkpt><trkpt lat="46.044970731571084" lon="8.739283085636114"><ele>260.16666666666663</ele><time>2026-04-25T10:10:23.999Z</time></trkpt><trkpt lat="46.0450441450366" lon="8.739176581345774"><ele>264.3333333333333</ele><time>2026-04-25T10:10:24.999Z</time></trkpt><trkpt lat="46.04509149621625" lon="8.739084286053895"><ele>268.5</ele><time>2026-04-25T10:10:25.999Z</time></trkpt><trkpt lat="46.04513903655209" lon="8.738942134215659"><ele>272.6666666666667</ele><time>2026-04-25T10:10:27.999Z</time></trkpt><trkpt lat="46.0451921495083" lon="8.738862246347471"><ele>276.83333333333337</ele><time>2026-04-25T10:10:29.999Z</time></trkpt><trkpt lat="46.04524628391409" lon="8.738942985386904"><ele>281.0</ele><time>2026-04-25T10:10:32.999Z</time></trkpt><trkpt lat="46.045165166808104" lon="8.73900905205798"><ele>281.0</ele><time>2026-04-25T10:10:33.999Z</time></trkpt><trkpt lat="46.04511474553025" lon="8.73915012685674"><ele>281.0</ele><time>2026-04-25T10:10:34.999Z</time></trkpt><trkpt lat="46.04505429230213" lon="8.739281318660751"><ele>281.0</ele><time>2026-04-25T10:10:35.999Z</time></trkpt><trkpt lat="46.04500739579979" lon="8.739412376322596"><ele>281.0</ele><time>2026-04-25T10:10:36.999Z</time></trkpt><trkpt lat="46.04495101280531" lon="8.739535704778675"><ele>281.0</ele><time>2026-04-25T10:10:37.999Z</time></trkpt><trkpt lat="46.044914328621054" lon="8.73966082787623"><ele>279.2</ele><time>2026-04-25T10:10:38.999Z</time></trkpt><trkpt lat="46.04489558520515" lon="8.739785390770567"><ele>277.40000000000003</ele><time>2026-04-25T10:10:39.999Z</time></trkpt><trkpt lat="46.044864700127896" lon="8.739896931512538"><ele>275.6</ele><time>2026-04-25T10:10:40.999Z</time></trkpt><trkpt lat="46.044847505121986" lon="8.740022399148511"><ele>273.8</ele><time>2026-04-25T10:10:41.999Z</time></trkpt><trkpt lat="46.04483674178077" lon="8.740161569469796"><ele>272.0</ele><time>2026-04-25T10:10:42.999Z</time></trkpt><trkpt lat="46.04481176433226" lon="8.740309367134914"><ele>272.0</ele><time>2026-04-25T10:10:43.999Z</time></trkpt><trkpt lat="46.04480394607058" lon="8.740460267535346"><ele>272.0</ele><time>2026-04-25T10:10:44.999Z</time></trkpt><trkpt lat="46.04481541496907" lon="8.7406108921139"><ele>272.0</ele><time>2026-04-25T10:10:45.999Z</time></trkpt><trkpt lat="46.04480051816263" lon="8.740760817154529"><ele>272.0</ele><time>2026-04-25T10:10:46.999Z</time></trkpt><trkpt lat="46.04480117389801" lon="8.740909875706278"><ele>272.0</ele><time>2026-04-25T10:10:47.999Z</time></trkpt><trkpt lat="46.04481392245629" lon="8.741057392843159"><ele>273.5</ele><time>2026-04-25T10:10:48.999Z</time></trkpt><trkpt lat="46.04481480491982" lon="8.741197788489961"><ele>275.0</ele><time>2026-04-25T10:10:49.999Z</time></trkpt><trkpt lat="46.044792647112104" lon="8.741330370042562"><ele>276.5</ele><time>2026-04-25T10:10:50.999Z</time></trkpt><trkpt lat="46.04478278096651" lon="8.741454971349755"><ele>278.0</ele><time>2026-04-25T10:10:51.999Z</time></trkpt><trkpt lat="46.04479117824584" lon="8.74158228670903"><ele>279.5</ele><time>2026-04-25T10:10:52.999Z</time></trkpt><trkpt lat="46.04478551567867" lon="8.741693742072862"><ele>281.0</ele><time>2026-04-25T10:10:53.999Z</time></trkpt><trkpt lat="46.04478575774043" lon="8.74178977730001"><ele>281.0</ele><time>2026-04-25T10:10:54.999Z</time></trkpt><trkpt lat="46.04484740997312" lon="8.741883523565251"><ele>281.0</ele><time>2026-04-25T10:10:56.999Z</time></trkpt><trkpt lat="46.0449487279155" lon="8.741822250677815"><ele>281.0</ele><time>2026-04-25T10:10:58.999Z</time></trkpt><trkpt lat="46.04495932812236" lon="8.741715871107372"><ele>281.0</ele><time>2026-04-25T10:10:59.999Z</time></trkpt><trkpt lat="46.04493890533377" lon="8.741619659006233"><ele>281.0</ele><time>2026-04-25T10:11:00.999Z</time></trkpt><trkpt lat="46.044966153600114" lon="8.741463464823882"><ele>287.75</ele><time>2026-04-25T10:11:01.999Z</time></trkpt><trkpt lat="46.044984015385644" lon="8.741288616024915"><ele>294.5</ele><time>2026-04-25T10:11:02.999Z</time></trkpt><trkpt lat="46.04500013675685" lon="8.741108871472397"><ele>301.25</ele><time>2026-04-25T10:11:03.999Z</time></trkpt><trkpt lat="46.04502686766088" lon="8.740941434077774"><ele>308.0</ele><time>2026-04-25T10:11:04.999Z</time></trkpt><trkpt lat="46.04504821582403" lon="8.740787963369657"><ele>308.0</ele><time>2026-04-25T10:11:05.999Z</time></trkpt><trkpt lat="46.04510792221438" lon="8.740663251615064"><ele>308.0</ele><time>2026-04-25T10:11:06.999Z</time></trkpt><trkpt lat="46.045126487990295" lon="8.740537988555795"><ele>308.0</ele><time>2026-04-25T10:11:07.999Z</time></trkpt><trkpt lat="46.04515510512834" lon="8.740424017446186"><ele>308.0</ele><time>2026-04-25T10:11:08.999Z</time></trkpt><trkpt lat="46.045170266376076" lon="8.740310903019909"><ele>308.0</ele><time>2026-04-25T10:11:09.999Z</time></trkpt><trkpt lat="46.045187177163285" lon="8.740198271247541"><ele>308.0</ele><time>2026-04-25T10:11:10.999Z</time></trkpt><trkpt lat="46.045203458924306" lon="8.740089841174125"><ele>306.33333333333337</ele><time>2026-04-25T10:11:11.999Z</time></trkpt><trkpt lat="46.04522487936702" lon="8.73997877551978"><ele>304.6666666666667</ele><time>2026-04-25T10:11:12.999Z</time></trkpt><trkpt lat="46.04524071856995" lon="8.739870829800225"><ele>303.0</ele><time>2026-04-25T10:11:13.999Z</time></trkpt><trkpt lat="46.045254275025876" lon="8.739757044031023"><ele>301.3333333333333</ele><time>2026-04-25T10:11:14.999Z</time></trkpt><trkpt lat="46.045277932063" lon="8.7396670979683"><ele>299.66666666666663</ele><time>2026-04-25T10:11:15.999Z</time></trkpt><trkpt lat="46.0453458411424" lon="8.739562133069413"><ele>298.0</ele><time>2026-04-25T10:11:17.999Z</time></trkpt><trkpt lat="46.04541171434704" lon="8.739544517788607"><ele>298.0</ele><time>2026-04-25T10:11:19.999Z</time></trkpt><trkpt lat="46.045441658197035" lon="8.7396503603821"><ele>298.0</ele><time>2026-04-25T10:11:21.999Z</time></trkpt><trkpt lat="46.04538300346246" lon="8.739720062963011"><ele>298.0</ele><time>2026-04-25T10:11:22.999Z</time></trkpt><trkpt lat="46.04533579291972" lon="8.739837637181811"><ele>298.0</ele><time>2026-04-25T10:11:23.999Z</time></trkpt><trkpt lat="46.04529936980103" lon="8.739952655968208"><ele>298.0</ele><time>2026-04-25T10:11:24.999Z</time></trkpt><trkpt lat="46.04526057769542" lon="8.740045550492566"><ele>298.0</ele><time>2026-04-25T10:11:25.999Z</time></trkpt><trkpt lat="46.04526290064157" lon="8.740180503316804"><ele>300.0</ele><time>2026-04-25T10:11:27.999Z</time></trkpt><trkpt lat="46.045302216921066" lon="8.740353034627548"><ele>302.0</ele><time>2026-04-25T10:11:29.999Z</time></trkpt><trkpt lat="46.04533838432992" lon="8.740457412328677"><ele>304.0</ele><time>2026-04-25T10:11:30.999Z</time></trkpt><trkpt lat="46.0453620872281" lon="8.740568384252756"><ele>306.0</ele><time>2026-04-25T10:11:31.999Z</time></trkpt><trkpt lat="46.04539130811038" lon="8.740669638647654"><ele>308.0</ele><time>2026-04-25T10:11:32.999Z</time></trkpt><trkpt lat="46.04535035957519" lon="8.740790805621096"><ele>308.0</ele><time>2026-04-25T10:11:33.999Z</time></trkpt><trkpt lat="46.04535051824207" lon="8.740928896350196"><ele>308.0</ele><time>2026-04-25T10:11:34.999Z</time></trkpt><trkpt lat="46.045345882807446" lon="8.74105193311781"><ele>308.0</ele><time>2026-04-25T10:11:35.999Z</time></trkpt><trkpt lat="46.04536752686197" lon="8.741158590411962"><ele>308.0</ele><time>2026-04-25T10:11:36.999Z</time></trkpt><trkpt lat="46.0453968880685" lon="8.741297039848755"><ele>308.0</ele><time>2026-04-25T10:11:37.999Z</time></trkpt><trkpt lat="46.04545053722629" lon="8.741435374146484"><ele>308.4</ele><time>2026-04-25T10:11:38.999Z</time></trkpt><trkpt lat="46.045483870126915" lon="8.74157950198574"><ele>308.8</ele><time>2026-04-25T10:11:39.999Z</time></trkpt><trkpt lat="46.04550075982738" lon="8.741719238663439"><ele>309.2</ele><time>2026-04-25T10:11:40.999Z</time></trkpt><trkpt lat="46.04553811172764" lon="8.741838527827632"><ele>309.6</ele><time>2026-04-25T10:11:41.999Z</time></trkpt><trkpt lat="46.04551709079971" lon="8.741969762719183"><ele>310.0</ele><time>2026-04-25T10:11:42.999Z</time></trkpt><trkpt lat="46.04551492503503" lon="8.742110222131966"><ele>311.4</ele><time>2026-04-25T10:11:43.999Z</time></trkpt><trkpt lat="46.04549353107733" lon="8.742253047891994"><ele>312.8</ele><time>2026-04-25T10:11:44.999Z</time></trkpt><trkpt lat="46.04548144808288" lon="8.742403039372103"><ele>314.2</ele><time>2026-04-25T10:11:45.999Z</time></trkpt><trkpt lat="46.04548717552869" lon="8.7425544791882"><ele>315.6</ele><time>2026-04-25T10:11:46.999Z</time></trkpt><trkpt lat="46.04550247955766" lon="8.742678426494592"><ele>317.0</ele><time>2026-04-25T10:11:47.999Z</time></trkpt><trkpt lat="46.04551442556441" lon="8.742774302632228"><ele>317.6666666666667</ele><time>2026-04-25T10:11:48.999Z</time></trkpt><trkpt lat="46.04550230676561" lon="8.742873972552237"><ele>318.33333333333337</ele><time>2026-04-25T10:11:49.999Z</time></trkpt><trkpt lat="46.04551034577148" lon="8.742966604799538"><ele>319.0</ele><time>2026-04-25T10:11:50.999Z</time></trkpt><trkpt lat="46.04553940239048" lon="8.74311208264672"><ele>319.6666666666667</ele><time>2026-04-25T10:11:52.999Z</time></trkpt><trkpt lat="46.045567746961076" lon="8.743221386558325"><ele>320.3333333333333</ele><time>2026-04-25T10:11:54.999Z</time></trkpt><trkpt lat="46.04565264894766" lon="8.743232324156546"><ele>321.0</ele><time>2026-04-25T10:11:56.999Z</time></trkpt><trkpt lat="46.045691157297945" lon="8.743069353030174"><ele>321.0</ele><time>2026-04-25T10:11:58.999Z</time></trkpt><trkpt lat="46.04564861975285" lon="8.742944209620568"><ele>321.0</ele><time>2026-04-25T10:11:59.999Z</time></trkpt><trkpt lat="46.0456252785589" lon="8.742834377383597"><ele>321.0</ele><time>2026-04-25T10:12:00.999Z</time></trkpt><trkpt lat="46.04562740227952" lon="8.74271385191292"><ele>321.0</ele><time>2026-04-25T10:12:01.999Z</time></trkpt><trkpt lat="46.045650788259195" lon="8.742584084401166"><ele>321.0</ele><time>2026-04-25T10:12:02.999Z</time></trkpt><trkpt lat="46.04568054317181" lon="8.742457417928394"><ele>321.0</ele><time>2026-04-25T10:12:03.999Z</time></trkpt><trkpt lat="46.0457174056533" lon="8.742336002161736"><ele>320.3333333333333</ele><time>2026-04-25T10:12:04.999Z</time></trkpt><trkpt lat="46.04574740377559" lon="8.742212802282559"><ele>319.6666666666667</ele><time>2026-04-25T10:12:05.999Z</time></trkpt><trkpt lat="46.04577557214497" lon="8.742099114327019"><ele>319.0</ele><time>2026-04-25T10:12:06.999Z</time></trkpt><trkpt lat="46.045797603652055" lon="8.741981113147672"><ele>318.33333333333337</ele><time>2026-04-25T10:12:07.999Z</time></trkpt><trkpt lat="46.0458136557651" lon="8.741881560694615"><ele>317.6666666666667</ele><time>2026-04-25T10:12:08.999Z</time></trkpt><trkpt lat="46.045856776833205" lon="8.741744464901153"><ele>317.0</ele><time>2026-04-25T10:12:10.999Z</time></trkpt><trkpt lat="46.0459415775681" lon="8.741762843791637"><ele>323.2</ele><time>2026-04-25T10:12:12.999Z</time></trkpt><trkpt lat="46.04596590774289" lon="8.741848341949375"><ele>329.4</ele><time>2026-04-25T10:12:13.999Z</time></trkpt><trkpt lat="46.045924014111876" lon="8.741990790341726"><ele>335.59999999999997</ele><time>2026-04-25T10:12:14.999Z</time></trkpt><trkpt lat="46.04590676262367" lon="8.742174049944426"><ele>341.79999999999995</ele><time>2026-04-25T10:12:15.999Z</time></trkpt><trkpt lat="46.04589520396553" lon="8.74233638154826"><ele>348.0</ele><time>2026-04-25T10:12:16.999Z</time></trkpt><trkpt lat="46.04589120965667" lon="8.742450350439048"><ele>348.0</ele><time>2026-04-25T10:12:17.999Z</time></trkpt><trkpt lat="46.04590584079445" lon="8.74254511978565"><ele>348.0</ele><time>2026-04-25T10:12:18.999Z</time></trkpt><trkpt lat="46.04588880523064" lon="8.74264716003287"><ele>348.0</ele><time>2026-04-25T10:12:19.999Z</time></trkpt><trkpt lat="46.04589652337434" lon="8.742791797335466"><ele>348.0</ele><time>2026-04-25T10:12:20.999Z</time></trkpt><trkpt lat="46.04592801931622" lon="8.742962687249081"><ele>348.0</ele><time>2026-04-25T10:12:21.999Z</time></trkpt><trkpt lat="46.04592935999323" lon="8.743143405781462"><ele>347.59999999999997</ele><time>2026-04-25T10:12:22.999Z</time></trkpt><trkpt lat="46.04594244587716" lon="8.743288755318451"><ele>347.2</ele><time>2026-04-25T10:12:23.999Z</time></trkpt><trkpt lat="46.04595491619072" lon="8.743419938743815"><ele>346.8</ele><time>2026-04-25T10:12:24.999Z</time></trkpt><trkpt lat="46.0459692735213" lon="8.743554924417706"><ele>346.4</ele><time>2026-04-25T10:12:25.999Z</time></trkpt><trkpt lat="46.04598713155615" lon="8.743672593008492"><ele>346.0</ele><time>2026-04-25T10:12:26.999Z</time></trkpt><trkpt lat="46.046023837402736" lon="8.743793835462654"><ele>346.0</ele><time>2026-04-25T10:12:27.999Z</time></trkpt><trkpt lat="46.04607944907863" lon="8.743902796822924"><ele>346.0</ele><time>2026-04-25T10:12:28.999Z</time></trkpt><trkpt lat="46.0461470550754" lon="8.743994216289696"><ele>346.0</ele><time>2026-04-25T10:12:29.999Z</time></trkpt><trkpt lat="46.04621397295372" lon="8.744071117732899"><ele>346.0</ele><time>2026-04-25T10:12:30.999Z</time></trkpt><trkpt lat="46.04626577113337" lon="8.744147458510504"><ele>346.0</ele><time>2026-04-25T10:12:31.999Z</time></trkpt><trkpt lat="46.04630063975722" lon="8.744254535817664"><ele>346.0</ele><time>2026-04-25T10:12:32.999Z</time></trkpt><trkpt lat="46.04631595932043" lon="8.744404328596705"><ele>346.0</ele><time>2026-04-25T10:12:33.999Z</time></trkpt><trkpt lat="46.04634254932132" lon="8.744586341950596"><ele>346.0</ele><time>2026-04-25T10:12:34.999Z</time></trkpt><trkpt lat="46.04637434759471" lon="8.74478743847325"><ele>346.0</ele><time>2026-04-25T10:12:35.999Z</time></trkpt><trkpt lat="46.04640654101732" lon="8.744973994271566"><ele>346.0</ele><time>2026-04-25T10:12:36.999Z</time></trkpt><trkpt lat="46.04643232225549" lon="8.745123391916607"><ele>346.6</ele><time>2026-04-25T10:12:37.999Z</time></trkpt><trkpt lat="46.04645634842218" lon="8.745278071857335"><ele>347.20000000000005</ele><time>2026-04-25T10:12:38.999Z</time></trkpt><trkpt lat="46.0464815243445" lon="8.745440071085449"><ele>347.79999999999995</ele><time>2026-04-25T10:12:39.999Z</time></trkpt><trkpt lat="46.04650371103488" lon="8.745582835243708"><ele>348.4</ele><time>2026-04-25T10:12:40.999Z</time></trkpt><trkpt lat="46.04652074710847" lon="8.745706795232607"><ele>349.0</ele><time>2026-04-25T10:12:41.999Z</time></trkpt><trkpt lat="46.04651838449848" lon="8.745822681851465"><ele>349.0</ele><time>2026-04-25T10:12:42.999Z</time></trkpt><trkpt lat="46.04650632381216" lon="8.745916325121522"><ele>349.0</ele><time>2026-04-25T10:12:43.999Z</time></trkpt><trkpt lat="46.046495898341895" lon="8.746052603768593"><ele>349.0</ele><time>2026-04-25T10:12:44.999Z</time></trkpt><trkpt lat="46.046500759328104" lon="8.746221748364906"><ele>349.0</ele><time>2026-04-25T10:12:45.999Z</time></trkpt><trkpt lat="46.04651799685021" lon="8.746403138517229"><ele>349.0</ele><time>2026-04-25T10:12:46.999Z</time></trkpt><trkpt lat="46.04652403655925" lon="8.746602012021313"><ele>350.2</ele><time>2026-04-25T10:12:47.999Z</time></trkpt><trkpt lat="46.04651561036851" lon="8.74680766034434"><ele>351.4</ele><time>2026-04-25T10:12:48.999Z</time></trkpt><trkpt lat="46.04651953342864" lon="8.746971898574495"><ele>352.6</ele><time>2026-04-25T10:12:49.999Z</time></trkpt><trkpt lat="46.04652015712939" lon="8.747109674334688"><ele>353.8</ele><time>2026-04-25T10:12:50.999Z</time></trkpt><trkpt lat="46.04652244499722" lon="8.747229563354288"><ele>355.0</ele><time>2026-04-25T10:12:51.999Z</time></trkpt><trkpt lat="46.04645666861076" lon="8.747333798678214"><ele>356.6</ele><time>2026-04-25T10:12:52.999Z</time></trkpt><trkpt lat="46.04638112046547" lon="8.747425534574273"><ele>358.2</ele><time>2026-04-25T10:12:53.999Z</time></trkpt><trkpt lat="46.04632852388516" lon="8.747510802899804"><ele>359.79999999999995</ele><time>2026-04-25T10:12:54.999Z</time></trkpt><trkpt lat="46.04631949513701" lon="8.747654104280226"><ele>361.4</ele><time>2026-04-25T10:12:55.999Z</time></trkpt><trkpt lat="46.04629190730162" lon="8.747836018863836"><ele>363.0</ele><time>2026-04-25T10:12:56.999Z</time></trkpt><trkpt lat="46.04629298339303" lon="8.748057870627955"><ele>364.0</ele><time>2026-04-25T10:12:57.999Z</time></trkpt><trkpt lat="46.04626463957799" lon="8.748281443964256"><ele>365.0</ele><time>2026-04-25T10:12:58.999Z</time></trkpt><trkpt lat="46.04623107195285" lon="8.748495900865846"><ele>366.0</ele><time>2026-04-25T10:12:59.999Z</time></trkpt><trkpt lat="46.04620836832221" lon="8.748669873755075"><ele>367.0</ele><time>2026-04-25T10:13:00.999Z</time></trkpt><trkpt lat="46.04617749094711" lon="8.748804596538408"><ele>367.5</ele><time>2026-04-25T10:13:01.999Z</time></trkpt><trkpt lat="46.04614475505796" lon="8.748923116632204"><ele>368.0</ele><time>2026-04-25T10:13:02.999Z</time></trkpt><trkpt lat="46.04614977798256" lon="8.749091935459308"><ele>368.5</ele><time>2026-04-25T10:13:03.999Z</time></trkpt><trkpt lat="46.04617652393747" lon="8.749278034282169"><ele>369.0</ele><time>2026-04-25T10:13:04.999Z</time></trkpt><trkpt lat="46.046192545152586" lon="8.74947099322008"><ele>369.25</ele><time>2026-04-25T10:13:05.999Z</time></trkpt><trkpt lat="46.04618611287064" lon="8.749651049036272"><ele>369.5</ele><time>2026-04-25T10:13:06.999Z</time></trkpt><trkpt lat="46.046212306414034" lon="8.74982527537297"><ele>369.75</ele><time>2026-04-25T10:13:07.999Z</time></trkpt><trkpt lat="46.04622320517354" lon="8.749988926045464"><ele>370.0</ele><time>2026-04-25T10:13:08.999Z</time></trkpt><trkpt lat="46.04624131113419" lon="8.750143174898843"><ele>369.8</ele><time>2026-04-25T10:13:09.999Z</time></trkpt><trkpt lat="46.04626607706465" lon="8.750282508772676"><ele>369.6</ele><time>2026-04-25T10:13:10.999Z</time></trkpt><trkpt lat="46.046304091654726" lon="8.750419497935154"><ele>369.4</ele><time>2026-04-25T10:13:11.999Z</time></trkpt><trkpt lat="46.04635647080592" lon="8.750562798313895"><ele>369.2</ele><time>2026-04-25T10:13:12.999Z</time></trkpt><trkpt lat="46.04642110459246" lon="8.750703355544672"><ele>369.0</ele><time>2026-04-25T10:13:13.999Z</time></trkpt><trkpt lat="46.046493258289956" lon="8.750847209517245"><ele>369.0</ele><time>2026-04-25T10:13:14.999Z</time></trkpt><trkpt lat="46.04657611760019" lon="8.750991780957282"><ele>369.0</ele><time>2026-04-25T10:13:15.999Z</time></trkpt><trkpt lat="46.04665722254543" lon="8.75114907261632"><ele>369.0</ele><time>2026-04-25T10:13:16.999Z</time></trkpt><trkpt lat="46.046743804759885" lon="8.751303748215207"><ele>369.0</ele><time>2026-04-25T10:13:17.999Z</time></trkpt><trkpt lat="46.0468167590827" lon="8.75147442747999"><ele>374.6</ele><time>2026-04-25T10:13:18.999Z</time></trkpt><trkpt lat="46.04688980105171" lon="8.751616033540108"><ele>380.2</ele><time>2026-04-25T10:13:19.999Z</time></trkpt><trkpt lat="46.04695232148554" lon="8.751731964965382"><ele>385.8</ele><time>2026-04-25T10:13:20.999Z</time></trkpt><trkpt lat="46.047023085742154" lon="8.7518171082309"><ele>391.40000000000003</ele><time>2026-04-25T10:13:21.999Z</time></trkpt><trkpt lat="46.047088831260155" lon="8.751888370342739"><ele>397.0</ele><time>2026-04-25T10:13:22.999Z</time></trkpt><trkpt lat="46.0471675962306" lon="8.751939501390376"><ele>397.0</ele><time>2026-04-25T10:13:23.999Z</time></trkpt><trkpt lat="46.04725242264624" lon="8.751978641809949"><ele>397.0</ele><time>2026-04-25T10:13:24.999Z</time></trkpt><trkpt lat="46.04732985926159" lon="8.751990985871824"><ele>397.0</ele><time>2026-04-25T10:13:25.999Z</time></trkpt><trkpt lat="46.04741951580864" lon="8.751914897447293"><ele>397.0</ele><time>2026-04-25T10:13:27.999Z</time></trkpt><trkpt lat="46.04738981514204" lon="8.751721687832434"><ele>397.0</ele><time>2026-04-25T10:13:29.999Z</time></trkpt><trkpt lat="46.0473111907794" lon="8.751605102985808"><ele>398.20000000000005</ele><time>2026-04-25T10:13:30.999Z</time></trkpt><trkpt lat="46.04722510051277" lon="8.751465057556457"><ele>399.4</ele><time>2026-04-25T10:13:31.999Z</time></trkpt><trkpt lat="46.047152585148545" lon="8.751325517783382"><ele>400.6</ele><time>2026-04-25T10:13:32.999Z</time></trkpt><trkpt lat="46.04709737878036" lon="8.751212793732961"><ele>401.79999999999995</ele><time>2026-04-25T10:13:33.999Z</time></trkpt><trkpt lat="46.04704853281787" lon="8.75111252965971"><ele>403.0</ele><time>2026-04-25T10:13:34.999Z</time></trkpt><trkpt lat="46.046993303167284" lon="8.751010556229732"><ele>403.2</ele><time>2026-04-25T10:13:35.999Z</time></trkpt><trkpt lat="46.04694124799271" lon="8.750902259273294"><ele>403.4</ele><time>2026-04-25T10:13:36.999Z</time></trkpt><trkpt lat="46.046912126479505" lon="8.750791817853873"><ele>403.59999999999997</ele><time>2026-04-25T10:13:37.999Z</time></trkpt><trkpt lat="46.046903076705775" lon="8.750630548965447"><ele>403.79999999999995</ele><time>2026-04-25T10:13:38.999Z</time></trkpt><trkpt lat="46.04689628609997" lon="8.750439021435616"><ele>404.0</ele><time>2026-04-25T10:13:39.999Z</time></trkpt><trkpt lat="46.0468758985336" lon="8.750066673634587"><ele>405.6</ele><time>2026-04-25T10:13:41.999Z</time></trkpt><trkpt lat="46.04686116697166" lon="8.749925881927854"><ele>407.2</ele><time>2026-04-25T10:13:42.999Z</time></trkpt><trkpt lat="46.04685350844736" lon="8.749809257110783"><ele>408.8</ele><time>2026-04-25T10:13:43.999Z</time></trkpt><trkpt lat="46.04685758899238" lon="8.749692874707595"><ele>410.40000000000003</ele><time>2026-04-25T10:13:44.999Z</time></trkpt><trkpt lat="46.04686948220137" lon="8.749548876929744"><ele>412.0</ele><time>2026-04-25T10:13:45.999Z</time></trkpt><trkpt lat="46.046887905994225" lon="8.749374068645253"><ele>412.0</ele><time>2026-04-25T10:13:46.999Z</time></trkpt><trkpt lat="46.04691477956481" lon="8.74918589196592"><ele>412.0</ele><time>2026-04-25T10:13:47.999Z</time></trkpt><trkpt lat="46.046952095201505" lon="8.749000704131696"><ele>412.0</ele><time>2026-04-25T10:13:48.999Z</time></trkpt><trkpt lat="46.046994414983736" lon="8.748812261024721"><ele>412.0</ele><time>2026-04-25T10:13:49.999Z</time></trkpt><trkpt lat="46.047033631145226" lon="8.748619923497891"><ele>411.25</ele><time>2026-04-25T10:13:50.999Z</time></trkpt><trkpt lat="46.047070252458404" lon="8.748434149429539"><ele>410.5</ele><time>2026-04-25T10:13:51.999Z</time></trkpt><trkpt lat="46.047109267771155" lon="8.74826243886234"><ele>409.75</ele><time>2026-04-25T10:13:52.999Z</time></trkpt><trkpt lat="46.04717639779235" lon="8.748101570173732"><ele>409.0</ele><time>2026-04-25T10:13:53.999Z</time></trkpt><trkpt lat="46.04723868664434" lon="8.74790905474193"><ele>409.0</ele><time>2026-04-25T10:13:54.999Z</time></trkpt><trkpt lat="46.0472715101134" lon="8.74772260685264"><ele>409.0</ele><time>2026-04-25T10:13:55.999Z</time></trkpt><trkpt lat="46.04730102691969" lon="8.747548645453517"><ele>409.0</ele><time>2026-04-25T10:13:56.999Z</time></trkpt><trkpt lat="46.04731669257534" lon="8.747342929293728"><ele>409.0</ele><time>2026-04-25T10:13:57.999Z</time></trkpt><trkpt lat="46.047328946968726" lon="8.747124501833694"><ele>407.0</ele><time>2026-04-25T10:13:58.999Z</time></trkpt><trkpt lat="46.04734930016192" lon="8.746912911664268"><ele>405.0</ele><time>2026-04-25T10:13:59.999Z</time></trkpt><trkpt lat="46.04737470340243" lon="8.746703858592252"><ele>403.0</ele><time>2026-04-25T10:14:00.999Z</time></trkpt><trkpt lat="46.047391363262626" lon="8.746495872300773"><ele>401.0</ele><time>2026-04-25T10:14:01.999Z</time></trkpt><trkpt lat="46.047407949209635" lon="8.746294083248078"><ele>399.0</ele><time>2026-04-25T10:14:02.999Z</time></trkpt><trkpt lat="46.04742551129516" lon="8.746107433525957"><ele>397.0</ele><time>2026-04-25T10:14:03.999Z</time></trkpt><trkpt lat="46.047441661611565" lon="8.745928572854291"><ele>395.0</ele><time>2026-04-25T10:14:04.999Z</time></trkpt><trkpt lat="46.0474509410588" lon="8.745773215512624"><ele>393.0</ele><time>2026-04-25T10:14:05.999Z</time></trkpt><trkpt lat="46.0474679587698" lon="8.745655488237468"><ele>391.0</ele><time>2026-04-25T10:14:06.999Z</time></trkpt><trkpt lat="46.04749387940142" lon="8.745562805374432"><ele>400.00000000000006</ele><time>2026-04-25T10:14:07.999Z</time></trkpt><trkpt lat="46.04754792085646" lon="8.745513171700214"><ele>409.0</ele><time>2026-04-25T10:14:08.999Z</time></trkpt><trkpt lat="46.047628053862965" lon="8.745501244239424"><ele>418.0</ele><time>2026-04-25T10:14:10.999Z</time></trkpt><trkpt lat="46.047615093761834" lon="8.745667392279923"><ele>427.0</ele><time>2026-04-25T10:14:12.999Z</time></trkpt><trkpt lat="46.047549213146745" lon="8.74575506791263"><ele>436.00000000000006</ele><time>2026-04-25T10:14:13.999Z</time></trkpt><trkpt lat="46.04748837558573" lon="8.745845642403117"><ele>445.0</ele><time>2026-04-25T10:14:14.999Z</time></trkpt><trkpt lat="46.04748234774661" lon="8.745944381551185"><ele>446.6</ele><time>2026-04-25T10:14:15.999Z</time></trkpt><trkpt lat="46.04747435731414" lon="8.74605665079237"><ele>448.2</ele><time>2026-04-25T10:14:16.999Z</time></trkpt><trkpt lat="46.047519470781296" lon="8.746199651789205"><ele>449.79999999999995</ele><time>2026-04-25T10:14:17.999Z</time></trkpt><trkpt lat="46.04755392478156" lon="8.746318257180397"><ele>451.4</ele><time>2026-04-25T10:14:18.999Z</time></trkpt><trkpt lat="46.04757984585589" lon="8.746424697568123"><ele>453.0</ele><time>2026-04-25T10:14:19.999Z</time></trkpt><trkpt lat="46.04760505078036" lon="8.74660854336656"><ele>453.0</ele><time>2026-04-25T10:14:21.999Z</time></trkpt><trkpt lat="46.04760745732413" lon="8.746708694609543"><ele>452.99999999999994</ele><time>2026-04-25T10:14:22.999Z</time></trkpt><trkpt lat="46.04760556658882" lon="8.74684783462495"><ele>452.99999999999994</ele><time>2026-04-25T10:14:23.999Z</time></trkpt><trkpt lat="46.04758410283227" lon="8.746997984185553"><ele>453.0</ele><time>2026-04-25T10:14:24.999Z</time></trkpt><trkpt lat="46.04756370823104" lon="8.747132059454831"><ele>453.0</ele><time>2026-04-25T10:14:25.999Z</time></trkpt><trkpt lat="46.04756736098126" lon="8.747274251003047"><ele>452.59999999999997</ele><time>2026-04-25T10:14:26.999Z</time></trkpt><trkpt lat="46.04758122043263" lon="8.74742644118988"><ele>452.19999999999993</ele><time>2026-04-25T10:14:27.999Z</time></trkpt><trkpt lat="46.047660094328236" lon="8.747573335856176"><ele>451.8</ele><time>2026-04-25T10:14:28.999Z</time></trkpt><trkpt lat="46.04771061044818" lon="8.747722421606275"><ele>451.4</ele><time>2026-04-25T10:14:29.999Z</time></trkpt><trkpt lat="46.047717218724436" lon="8.747856463527642"><ele>451.0</ele><time>2026-04-25T10:14:30.999Z</time></trkpt><trkpt lat="46.04768349857214" lon="8.747996366159992"><ele>451.0</ele><time>2026-04-25T10:14:31.999Z</time></trkpt><trkpt lat="46.04763140702445" lon="8.748158203873563"><ele>451.0</ele><time>2026-04-25T10:14:32.999Z</time></trkpt><trkpt lat="46.04760502943821" lon="8.748322069569742"><ele>451.0</ele><time>2026-04-25T10:14:33.999Z</time></trkpt><trkpt lat="46.047592146305064" lon="8.748487926173384"><ele>451.0</ele><time>2026-04-25T10:14:34.999Z</time></trkpt><trkpt lat="46.047587338681055" lon="8.748662627528415"><ele>451.0</ele><time>2026-04-25T10:14:35.999Z</time></trkpt><trkpt lat="46.0475804976133" lon="8.748835565590293"><ele>451.0</ele><time>2026-04-25T10:14:36.999Z</time></trkpt><trkpt lat="46.04759553629712" lon="8.749002265685045"><ele>451.0</ele><time>2026-04-25T10:14:37.999Z</time></trkpt><trkpt lat="46.04763592919831" lon="8.74916276259976"><ele>451.0</ele><time>2026-04-25T10:14:38.999Z</time></trkpt><trkpt lat="46.04769398885927" lon="8.749303544264585"><ele>449.75</ele><time>2026-04-25T10:14:39.999Z</time></trkpt><trkpt lat="46.04775215954942" lon="8.749454520900857"><ele>448.5</ele><time>2026-04-25T10:14:40.999Z</time></trkpt><trkpt lat="46.0478299328121" lon="8.749591544293972"><ele>447.25</ele><time>2026-04-25T10:14:41.999Z</time></trkpt><trkpt lat="46.04790723403226" lon="8.749730884992118"><ele>446.0</ele><time>2026-04-25T10:14:42.999Z</time></trkpt><trkpt lat="46.04797675401106" lon="8.749853894862646"><ele>446.0</ele><time>2026-04-25T10:14:43.999Z</time></trkpt><trkpt lat="46.04806033684069" lon="8.749948735538693"><ele>446.0</ele><time>2026-04-25T10:14:44.999Z</time></trkpt><trkpt lat="46.04813678762553" lon="8.750038442754201"><ele>446.0</ele><time>2026-04-25T10:14:45.999Z</time></trkpt><trkpt lat="46.048230111116" lon="8.75011037227444"><ele>446.0</ele><time>2026-04-25T10:14:46.999Z</time></trkpt><trkpt lat="46.0483445444367" lon="8.750155351189907"><ele>446.0</ele><time>2026-04-25T10:14:47.999Z</time></trkpt><trkpt lat="46.048466875468534" lon="8.750203390493223"><ele>449.25</ele><time>2026-04-25T10:14:48.999Z</time></trkpt><trkpt lat="46.04858355595754" lon="8.75025377348134"><ele>452.5</ele><time>2026-04-25T10:14:49.999Z</time></trkpt><trkpt lat="46.04869145507722" lon="8.750349441302417"><ele>455.75</ele><time>2026-04-25T10:14:50.999Z</time></trkpt><trkpt lat="46.048787525005416" lon="8.750506094026541"><ele>459.0</ele><time>2026-04-25T10:14:51.999Z</time></trkpt><trkpt lat="46.04889187250732" lon="8.75064631524293"><ele>459.0</ele><time>2026-04-25T10:14:52.999Z</time></trkpt><trkpt lat="46.04898116756961" lon="8.750761792596448"><ele>459.0</ele><time>2026-04-25T10:14:53.999Z</time></trkpt><trkpt lat="46.04905608339703" lon="8.750858607414512"><ele>459.0</ele><time>2026-04-25T10:14:54.999Z</time></trkpt><trkpt lat="46.049113631774674" lon="8.750953257556404"><ele>459.0</ele><time>2026-04-25T10:14:55.999Z</time></trkpt><trkpt lat="46.0491572000017" lon="8.751065035117453"><ele>459.0</ele><time>2026-04-25T10:14:56.999Z</time></trkpt><trkpt lat="46.049143536960095" lon="8.751224689628222"><ele>459.6</ele><time>2026-04-25T10:14:57.999Z</time></trkpt><trkpt lat="46.04915195870252" lon="8.751393247572931"><ele>460.2</ele><time>2026-04-25T10:14:58.999Z</time></trkpt><trkpt lat="46.049159381619155" lon="8.751521304563228"><ele>460.80000000000007</ele><time>2026-04-25T10:14:59.999Z</time></trkpt><trkpt lat="46.049182285785456" lon="8.751612861958277"><ele>461.40000000000003</ele><time>2026-04-25T10:15:00.999Z</time></trkpt><trkpt lat="46.04918652746109" lon="8.751758410966419"><ele>462.0</ele><time>2026-04-25T10:15:02.999Z</time></trkpt><trkpt lat="46.04920497156201" lon="8.751874117590033"><ele>462.0</ele><time>2026-04-25T10:15:04.999Z</time></trkpt><trkpt lat="46.04926796628212" lon="8.751956279391086"><ele>462.00000000000006</ele><time>2026-04-25T10:15:07.999Z</time></trkpt><trkpt lat="46.04933868403809" lon="8.751984959764146"><ele>462.00000000000006</ele><time>2026-04-25T10:15:09.999Z</time></trkpt><trkpt lat="46.0493546189039" lon="8.751827409674357"><ele>462.0</ele><time>2026-04-25T10:15:10.999Z</time></trkpt><trkpt lat="46.04934882525975" lon="8.751716842687125"><ele>462.0</ele><time>2026-04-25T10:15:11.999Z</time></trkpt><trkpt lat="46.04936116215477" lon="8.751564533158028"><ele>466.40000000000003</ele><time>2026-04-25T10:15:12.999Z</time></trkpt><trkpt lat="46.04938950441189" lon="8.75139971725861"><ele>470.80000000000007</ele><time>2026-04-25T10:15:13.999Z</time></trkpt><trkpt lat="46.0494085664577" lon="8.751220135785942"><ele>475.2</ele><time>2026-04-25T10:15:14.999Z</time></trkpt><trkpt lat="46.049415698607625" lon="8.751085245779217"><ele>479.6</ele><time>2026-04-25T10:15:15.999Z</time></trkpt><trkpt lat="46.04942348268859" lon="8.750980024259945"><ele>484.0</ele><time>2026-04-25T10:15:16.999Z</time></trkpt><trkpt lat="46.049420280664954" lon="8.750872497390754"><ele>484.83333333333337</ele><time>2026-04-25T10:15:17.999Z</time></trkpt><trkpt lat="46.04940586957115" lon="8.750751896224491"><ele>485.6666666666667</ele><time>2026-04-25T10:15:18.999Z</time></trkpt><trkpt lat="46.049378857711915" lon="8.75062761179027"><ele>486.5</ele><time>2026-04-25T10:15:19.999Z</time></trkpt><trkpt lat="46.04935183788948" lon="8.75051504707575"><ele>487.33333333333337</ele><time>2026-04-25T10:15:20.999Z</time></trkpt><trkpt lat="46.04932355029208" lon="8.75042232941698"><ele>488.1666666666667</ele><time>2026-04-25T10:15:21.999Z</time></trkpt><trkpt lat="46.04930888801287" lon="8.750303288390223"><ele>489.0</ele><time>2026-04-25T10:15:22.999Z</time></trkpt><trkpt lat="46.049288147880176" lon="8.750193538850683"><ele>490.6666666666667</ele><time>2026-04-25T10:15:23.999Z</time></trkpt><trkpt lat="46.04927194030711" lon="8.750061653706702"><ele>492.33333333333337</ele><time>2026-04-25T10:15:24.999Z</time></trkpt><trkpt lat="46.0492547994673" lon="8.749945369390979"><ele>494.0</ele><time>2026-04-25T10:15:25.999Z</time></trkpt><trkpt lat="46.04924248863477" lon="8.749839108375738"><ele>495.6666666666667</ele><time>2026-04-25T10:15:26.999Z</time></trkpt><trkpt lat="46.04922803343049" lon="8.749746767822904"><ele>497.33333333333337</ele><time>2026-04-25T10:15:27.999Z</time></trkpt><trkpt lat="46.04920077780055" lon="8.74956436426415"><ele>499.0</ele><time>2026-04-25T10:15:29.999Z</time></trkpt><trkpt lat="46.04918852670681" lon="8.74946077712505"><ele>500.79999999999995</ele><time>2026-04-25T10:15:30.999Z</time></trkpt><trkpt lat="46.04917533792698" lon="8.749339251463077"><ele>502.59999999999997</ele><time>2026-04-25T10:15:31.999Z</time></trkpt><trkpt lat="46.04915829475433" lon="8.749202979130576"><ele>504.4</ele><time>2026-04-25T10:15:33Z</time></trkpt><trkpt lat="46.04913965557658" lon="8.749061601438028"><ele>506.2</ele><time>2026-04-25T10:15:34Z</time></trkpt><trkpt lat="46.04911677473658" lon="8.74891968004067"><ele>508.0</ele><time>2026-04-25T10:15:35Z</time></trkpt><trkpt lat="46.04909464354364" lon="8.748776961360518"><ele>503.79999999999995</ele><time>2026-04-25T10:15:36Z</time></trkpt><trkpt lat="46.049070248863515" lon="8.748633094366275"><ele>499.59999999999997</ele><time>2026-04-25T10:15:37Z</time></trkpt><trkpt lat="46.04903854350861" lon="8.748492979656177"><ele>495.40000000000003</ele><time>2026-04-25T10:15:38Z</time></trkpt><trkpt lat="46.04899968068562" lon="8.748344625101673"><ele>491.20000000000005</ele><time>2026-04-25T10:15:39Z</time></trkpt><trkpt lat="46.04895677121586" lon="8.748184234732486"><ele>487.0</ele><time>2026-04-25T10:15:40Z</time></trkpt><trkpt lat="46.04890710355416" lon="8.748035167938143"><ele>487.0</ele><time>2026-04-25T10:15:41Z</time></trkpt><trkpt lat="46.048852605136446" lon="8.747855517183263"><ele>487.0</ele><time>2026-04-25T10:15:42Z</time></trkpt><trkpt lat="46.04880342783269" lon="8.747677533320408"><ele>487.0</ele><time>2026-04-25T10:15:43Z</time></trkpt><trkpt lat="46.048747077962076" lon="8.747520847014753"><ele>487.0</ele><time>2026-04-25T10:15:44Z</time></trkpt><trkpt lat="46.04870220753903" lon="8.74736928926174"><ele>488.33333333333337</ele><time>2026-04-25T10:15:45Z</time></trkpt><trkpt lat="46.04867064574521" lon="8.747247650084368"><ele>489.6666666666667</ele><time>2026-04-25T10:15:46Z</time></trkpt><trkpt lat="46.04865698066701" lon="8.747143252882706"><ele>491.0</ele><time>2026-04-25T10:15:47Z</time></trkpt><trkpt lat="46.04866108404972" lon="8.747027005102561"><ele>492.33333333333337</ele><time>2026-04-25T10:15:48Z</time></trkpt><trkpt lat="46.04868294616554" lon="8.746898188592887"><ele>493.6666666666667</ele><time>2026-04-25T10:15:49Z</time></trkpt><trkpt lat="46.048727055744905" lon="8.74675652043239"><ele>495.0</ele><time>2026-04-25T10:15:50Z</time></trkpt><trkpt lat="46.04878738510832" lon="8.746599210652482"><ele>496.33333333333337</ele><time>2026-04-25T10:15:51Z</time></trkpt><trkpt lat="46.04886278620162" lon="8.746419726510585"><ele>497.6666666666667</ele><time>2026-04-25T10:15:52Z</time></trkpt><trkpt lat="46.04895504417519" lon="8.74624005636939"><ele>499.0</ele><time>2026-04-25T10:15:53Z</time></trkpt><trkpt lat="46.049003923589645" lon="8.746016177544275"><ele>499.0</ele><time>2026-04-25T10:15:54Z</time></trkpt><trkpt lat="46.049059270975384" lon="8.745822258584287"><ele>499.0</ele><time>2026-04-25T10:15:55Z</time></trkpt><trkpt lat="46.049105086639514" lon="8.74566620392082"><ele>499.0</ele><time>2026-04-25T10:15:56Z</time></trkpt><trkpt lat="46.04913688365636" lon="8.745528917886078"><ele>499.0</ele><time>2026-04-25T10:15:57Z</time></trkpt><trkpt lat="46.04914956809374" lon="8.745377665349869"><ele>509.5</ele><time>2026-04-25T10:15:58Z</time></trkpt><trkpt lat="46.049142054174325" lon="8.745195080380823"><ele>520.0</ele><time>2026-04-25T10:15:59Z</time></trkpt><trkpt lat="46.04912795606652" lon="8.744994410123637"><ele>530.5</ele><time>2026-04-25T10:16:00Z</time></trkpt><trkpt lat="46.04912898177143" lon="8.744784191522683"><ele>541.0</ele><time>2026-04-25T10:16:01Z</time></trkpt><trkpt lat="46.0491341887964" lon="8.744567164200504"><ele>530.25</ele><time>2026-04-25T10:16:02Z</time></trkpt><trkpt lat="46.04912505393745" lon="8.744349784604571"><ele>519.5</ele><time>2026-04-25T10:16:03Z</time></trkpt><trkpt lat="46.049106624162114" lon="8.744151570918106"><ele>508.75</ele><time>2026-04-25T10:16:04Z</time></trkpt><trkpt lat="46.049085695848646" lon="8.74399223780081"><ele>498.0</ele><time>2026-04-25T10:16:05Z</time></trkpt><trkpt lat="46.049089813000975" lon="8.743855229379097"><ele>498.0</ele><time>2026-04-25T10:16:06Z</time></trkpt><trkpt lat="46.049094599520366" lon="8.743714735077406"><ele>498.0</ele><time>2026-04-25T10:16:07Z</time></trkpt><trkpt lat="46.04911039712737" lon="8.743567032960467"><ele>498.0</ele><time>2026-04-25T10:16:08Z</time></trkpt><trkpt lat="46.0491117628484" lon="8.743405651953303"><ele>498.0</ele><time>2026-04-25T10:16:09Z</time></trkpt><trkpt lat="46.04912386835195" lon="8.743176984099387"><ele>506.79999999999995</ele><time>2026-04-25T10:16:10Z</time></trkpt><trkpt lat="46.04915845649712" lon="8.743021251832056"><ele>515.5999999999999</ele><time>2026-04-25T10:16:11Z</time></trkpt><trkpt lat="46.04919652051109" lon="8.742888908964767"><ele>524.4000000000001</ele><time>2026-04-25T10:16:12Z</time></trkpt><trkpt lat="46.04924359279616" lon="8.742768191679145"><ele>533.2</ele><time>2026-04-25T10:16:13Z</time></trkpt><trkpt lat="46.0493074685136" lon="8.742646025801657"><ele>542.0</ele><time>2026-04-25T10:16:14Z</time></trkpt><trkpt lat="46.04938440867692" lon="8.742513040492316"><ele>542.0</ele><time>2026-04-25T10:16:15Z</time></trkpt><trkpt lat="46.04947435497218" lon="8.742363618573759"><ele>542.0</ele><time>2026-04-25T10:16:16Z</time></trkpt><trkpt lat="46.04955474648974" lon="8.742246748329153"><ele>542.0</ele><time>2026-04-25T10:16:17Z</time></trkpt><trkpt lat="46.049620360971716" lon="8.742178271145075"><ele>542.0</ele><time>2026-04-25T10:16:18Z</time></trkpt><trkpt lat="46.0496915720933" lon="8.74212839806826"><ele>542.0</ele><time>2026-04-25T10:16:19Z</time></trkpt><trkpt lat="46.049784581580525" lon="8.74208226748198"><ele>542.0</ele><time>2026-04-25T10:16:20Z</time></trkpt><trkpt lat="46.049888394040714" lon="8.742026838986"><ele>542.0</ele><time>2026-04-25T10:16:21Z</time></trkpt><trkpt lat="46.04996190729854" lon="8.741992728629105"><ele>542.0</ele><time>2026-04-25T10:16:22Z</time></trkpt><trkpt lat="46.05006771549826" lon="8.741974120298332"><ele>542.0</ele><time>2026-04-25T10:16:24Z</time></trkpt><trkpt lat="46.05011814831301" lon="8.742087492097536"><ele>542.0</ele><time>2026-04-25T10:16:26Z</time></trkpt><trkpt lat="46.05009977243261" lon="8.742190693403703"><ele>542.25</ele><time>2026-04-25T10:16:27Z</time></trkpt><trkpt lat="46.05005703481742" lon="8.742303372187976"><ele>542.5</ele><time>2026-04-25T10:16:28Z</time></trkpt><trkpt lat="46.050008269197264" lon="8.742466343830383"><ele>542.75</ele><time>2026-04-25T10:16:29Z</time></trkpt><trkpt lat="46.049962165133" lon="8.742649692958782"><ele>543.0</ele><time>2026-04-25T10:16:30Z</time></trkpt><trkpt lat="46.04994353900813" lon="8.742822099866837"><ele>543.0</ele><time>2026-04-25T10:16:31Z</time></trkpt><trkpt lat="46.04990656408956" lon="8.742964344321262"><ele>543.0</ele><time>2026-04-25T10:16:32Z</time></trkpt><trkpt lat="46.04991583743876" lon="8.743063028529164"><ele>543.0</ele><time>2026-04-25T10:16:33Z</time></trkpt><trkpt lat="46.04992896575479" lon="8.743229223484594"><ele>543.0</ele><time>2026-04-25T10:16:34Z</time></trkpt><trkpt lat="46.049936322957635" lon="8.743430478389506"><ele>543.0</ele><time>2026-04-25T10:16:35Z</time></trkpt><trkpt lat="46.04994512554101" lon="8.743581759400211"><ele>542.4</ele><time>2026-04-25T10:16:36Z</time></trkpt><trkpt lat="46.049953235981455" lon="8.743735705148373"><ele>541.8</ele><time>2026-04-25T10:16:37Z</time></trkpt><trkpt lat="46.049943554681136" lon="8.743906325967618"><ele>541.2</ele><time>2026-04-25T10:16:38Z</time></trkpt><trkpt lat="46.049941300733074" lon="8.744062891142642"><ele>540.6</ele><time>2026-04-25T10:16:39Z</time></trkpt><trkpt lat="46.04993291231711" lon="8.744188848570328"><ele>540.0</ele><time>2026-04-25T10:16:40Z</time></trkpt><trkpt lat="46.04991136473387" lon="8.744308032498157"><ele>540.2</ele><time>2026-04-25T10:16:41Z</time></trkpt><trkpt lat="46.04987116273423" lon="8.744444147738273"><ele>540.4</ele><time>2026-04-25T10:16:42Z</time></trkpt><trkpt lat="46.049826250700335" lon="8.744593817916577"><ele>540.6</ele><time>2026-04-25T10:16:43Z</time></trkpt><trkpt lat="46.049780573854996" lon="8.744733334738378"><ele>540.8</ele><time>2026-04-25T10:16:44Z</time></trkpt><trkpt lat="46.04976251275932" lon="8.74484693218073"><ele>541.0</ele><time>2026-04-25T10:16:45Z</time></trkpt><trkpt lat="46.04975832034735" lon="8.744980480097773"><ele>541.0</ele><time>2026-04-25T10:16:47Z</time></trkpt><trkpt lat="46.04986773168199" lon="8.745043226410456"><ele>541.0</ele><time>2026-04-25T10:16:49Z</time></trkpt><trkpt lat="46.049937100685675" lon="8.74500012089536"><ele>541.0</ele><time>2026-04-25T10:16:50Z</time></trkpt><trkpt lat="46.049974388406476" lon="8.744862440850563"><ele>541.0</ele><time>2026-04-25T10:16:51Z</time></trkpt><trkpt lat="46.05003091430982" lon="8.744750179300246"><ele>541.0</ele><time>2026-04-25T10:16:52Z</time></trkpt><trkpt lat="46.05011172336903" lon="8.744625743072273"><ele>549.0</ele><time>2026-04-25T10:16:53Z</time></trkpt><trkpt lat="46.05019256867293" lon="8.744489899640499"><ele>557.0</ele><time>2026-04-25T10:16:54Z</time></trkpt><trkpt lat="46.05026945955257" lon="8.744355273513193"><ele>565.0</ele><time>2026-04-25T10:16:55Z</time></trkpt><trkpt lat="46.05033461630937" lon="8.744199386381265"><ele>573.0</ele><time>2026-04-25T10:16:56Z</time></trkpt><trkpt lat="46.05038081720713" lon="8.744030206062208"><ele>573.0</ele><time>2026-04-25T10:16:57Z</time></trkpt><trkpt lat="46.05042810431055" lon="8.743864266359711"><ele>573.0</ele><time>2026-04-25T10:16:58Z</time></trkpt><trkpt lat="46.05048289065434" lon="8.743703095238649"><ele>573.0</ele><time>2026-04-25T10:16:59Z</time></trkpt><trkpt lat="46.05052680417718" lon="8.743572410601045"><ele>573.0</ele><time>2026-04-25T10:17:00Z</time></trkpt><trkpt lat="46.05060747855292" lon="8.743428355651458"><ele>571.75</ele><time>2026-04-25T10:17:01Z</time></trkpt><trkpt lat="46.050689858228615" lon="8.743285399605421"><ele>570.5</ele><time>2026-04-25T10:17:02Z</time></trkpt><trkpt lat="46.05076156925891" lon="8.74311214409504"><ele>569.25</ele><time>2026-04-25T10:17:03Z</time></trkpt><trkpt lat="46.05083310344105" lon="8.742945750912668"><ele>568.0</ele><time>2026-04-25T10:17:04Z</time></trkpt><trkpt lat="46.0508898589358" lon="8.742779548051862"><ele>574.0</ele><time>2026-04-25T10:17:05Z</time></trkpt><trkpt lat="46.050937658513924" lon="8.74261297379092"><ele>580.0</ele><time>2026-04-25T10:17:06Z</time></trkpt><trkpt lat="46.050989585325084" lon="8.742443889792058"><ele>586.0</ele><time>2026-04-25T10:17:07Z</time></trkpt><trkpt lat="46.05103924586552" lon="8.742280449679198"><ele>592.0</ele><time>2026-04-25T10:17:08Z</time></trkpt><trkpt lat="46.05107453881639" lon="8.742145175649041"><ele>592.0</ele><time>2026-04-25T10:17:09Z</time></trkpt><trkpt lat="46.05111785244187" lon="8.742058471146063"><ele>592.0</ele><time>2026-04-25T10:17:10Z</time></trkpt><trkpt lat="46.05116667270486" lon="8.741955333981446"><ele>592.0</ele><time>2026-04-25T10:17:12Z</time></trkpt><trkpt lat="46.05125329695356" lon="8.742016793733255"><ele>592.0</ele><time>2026-04-25T10:17:14Z</time></trkpt><trkpt lat="46.051251654804396" lon="8.74210835249129"><ele>592.0</ele><time>2026-04-25T10:17:15Z</time></trkpt><trkpt lat="46.05118871993182" lon="8.742198017170598"><ele>592.0</ele><time>2026-04-25T10:17:16Z</time></trkpt><trkpt lat="46.05116003861841" lon="8.742332024451123"><ele>592.0</ele><time>2026-04-25T10:17:17Z</time></trkpt><trkpt lat="46.05113082246648" lon="8.742496232330241"><ele>592.0</ele><time>2026-04-25T10:17:18Z</time></trkpt><trkpt lat="46.05112374497131" lon="8.74266985532902"><ele>592.0</ele><time>2026-04-25T10:17:19Z</time></trkpt><trkpt lat="46.051117076502976" lon="8.74281730160142"><ele>592.0</ele><time>2026-04-25T10:17:20Z</time></trkpt><trkpt lat="46.0511053448277" lon="8.742952151581049"><ele>592.0</ele><time>2026-04-25T10:17:21Z</time></trkpt><trkpt lat="46.051093760681454" lon="8.743071277748939"><ele>593.2857142857143</ele><time>2026-04-25T10:17:22Z</time></trkpt><trkpt lat="46.05108637076483" lon="8.743171709356488"><ele>594.5714285714286</ele><time>2026-04-25T10:17:23Z</time></trkpt><trkpt lat="46.051071654536074" lon="8.743265784256693"><ele>595.8571428571429</ele><time>2026-04-25T10:17:24Z</time></trkpt><trkpt lat="46.05105938710038" lon="8.743361414913581"><ele>597.1428571428571</ele><time>2026-04-25T10:17:25Z</time></trkpt><trkpt lat="46.05104715945457" lon="8.74346313760751"><ele>598.4285714285714</ele><time>2026-04-25T10:17:26Z</time></trkpt><trkpt lat="46.05103757514154" lon="8.743568432450424"><ele>599.7142857142857</ele><time>2026-04-25T10:17:27Z</time></trkpt><trkpt lat="46.05102412760352" lon="8.743675064272741"><ele>601.0</ele><time>2026-04-25T10:17:28Z</time></trkpt><trkpt lat="46.05101015451243" lon="8.743783685323432"><ele>602.0</ele><time>2026-04-25T10:17:29Z</time></trkpt><trkpt lat="46.050994923702476" lon="8.743889303635559"><ele>603.0</ele><time>2026-04-25T10:17:30Z</time></trkpt><trkpt lat="46.05097894339448" lon="8.743985075244291"><ele>604.0</ele><time>2026-04-25T10:17:31Z</time></trkpt><trkpt lat="46.05095360885757" lon="8.744104048595496"><ele>605.0</ele><time>2026-04-25T10:17:33Z</time></trkpt><trkpt lat="46.05092680892085" lon="8.744193877431657"><ele>606.0</ele><time>2026-04-25T10:17:37Z</time></trkpt><trkpt lat="46.05091238515859" lon="8.744380534100257"><ele>607.0</ele><time>2026-04-25T10:25:56.001Z</time></trkpt><trkpt lat="46.05095658292365" lon="8.744457999389663"><ele>607.0</ele><time>2026-04-25T10:25:58.001Z</time></trkpt><trkpt lat="46.051053211772526" lon="8.744411715840073"><ele>607.0</ele><time>2026-04-25T10:26:00.001Z</time></trkpt><trkpt lat="46.0510813266098" lon="8.744325300988432"><ele>607.0</ele><time>2026-04-25T10:26:01.001Z</time></trkpt><trkpt lat="46.05108898541806" lon="8.744228445197875"><ele>607.0</ele><time>2026-04-25T10:26:02Z</time></trkpt><trkpt lat="46.051093736450845" lon="8.744129128292801"><ele>607.0</ele><time>2026-04-25T10:26:03Z</time></trkpt><trkpt lat="46.05111109860805" lon="8.7440317155521"><ele>607.0</ele><time>2026-04-25T10:26:04Z</time></trkpt><trkpt lat="46.051137259098766" lon="8.743903973355591"><ele>607.0</ele><time>2026-04-25T10:26:06Z</time></trkpt><trkpt lat="46.05115669998027" lon="8.743745396655427"><ele>607.0</ele><time>2026-04-25T10:26:09Z</time></trkpt><trkpt lat="46.05120497480566" lon="8.743588027228476"><ele>607.0</ele><time>2026-04-25T10:26:11Z</time></trkpt><trkpt lat="46.051238431667784" lon="8.743486344105268"><ele>607.0</ele><time>2026-04-25T10:26:13Z</time></trkpt><trkpt lat="46.05126488659339" lon="8.743397287775647"><ele>607.0</ele><time>2026-04-25T10:26:15Z</time></trkpt><trkpt lat="46.05129627261693" lon="8.743259811382147"><ele>606.0</ele><time>2026-04-25T10:26:17Z</time></trkpt><trkpt lat="46.05135948645065" lon="8.743106789132883"><ele>605.0</ele><time>2026-04-25T10:26:19Z</time></trkpt><trkpt lat="46.05141627114179" lon="8.743031410566804"><ele>604.0</ele><time>2026-04-25T10:26:20Z</time></trkpt><trkpt lat="46.05146038944207" lon="8.742953385991957"><ele>603.0</ele><time>2026-04-25T10:26:21Z</time></trkpt><trkpt lat="46.05149191779797" lon="8.742851256887413"><ele>602.0</ele><time>2026-04-25T10:26:22Z</time></trkpt><trkpt lat="46.05151251784272" lon="8.742744665592202"><ele>601.0</ele><time>2026-04-25T10:26:23Z</time></trkpt><trkpt lat="46.05154568144127" lon="8.742654281263446"><ele>599.5</ele><time>2026-04-25T10:26:24Z</time></trkpt><trkpt lat="46.051561538690486" lon="8.74255907315269"><ele>598.0</ele><time>2026-04-25T10:26:25Z</time></trkpt><trkpt lat="46.05162256166173" lon="8.74250382078764"><ele>596.5</ele><time>2026-04-25T10:26:26Z</time></trkpt><trkpt lat="46.05168506338416" lon="8.742437635854415"><ele>595.0</ele><time>2026-04-25T10:26:27Z</time></trkpt><trkpt lat="46.051750994644465" lon="8.742366118902869"><ele>593.5</ele><time>2026-04-25T10:26:28Z</time></trkpt><trkpt lat="46.05182116887535" lon="8.742322534789997"><ele>592.0</ele><time>2026-04-25T10:26:29Z</time></trkpt><trkpt lat="46.05189305661596" lon="8.742283210353277"><ele>597.1666666666667</ele><time>2026-04-25T10:26:30Z</time></trkpt><trkpt lat="46.05197064509077" lon="8.742285262409716"><ele>602.3333333333334</ele><time>2026-04-25T10:26:31Z</time></trkpt><trkpt lat="46.05203844740368" lon="8.742331173625155"><ele>607.5</ele><time>2026-04-25T10:26:32Z</time></trkpt><trkpt lat="46.05211823827872" lon="8.742328421219426"><ele>612.6666666666666</ele><time>2026-04-25T10:26:33Z</time></trkpt><trkpt lat="46.052193560222214" lon="8.742323216120024"><ele>617.8333333333333</ele><time>2026-04-25T10:26:34Z</time></trkpt><trkpt lat="46.05225813009283" lon="8.74229250469648"><ele>623.0</ele><time>2026-04-25T10:26:35Z</time></trkpt><trkpt lat="46.052332438233" lon="8.742231871731327"><ele>623.0</ele><time>2026-04-25T10:26:37Z</time></trkpt><trkpt lat="46.0523938770388" lon="8.74217584142933"><ele>623.0</ele><time>2026-04-25T10:26:40Z</time></trkpt><trkpt lat="46.05245989140709" lon="8.742146698528318"><ele>643.0</ele><time>2026-04-25T10:26:43Z</time></trkpt></trkseg><trkseg><trkpt lat="46.05295289170337" lon="8.742223650988638"><ele>643.0</ele><time>2026-04-25T10:42:26Z</time></trkpt><trkpt lat="46.05299829879878" lon="8.74228845530081"><ele>643.0</ele><time>2026-04-25T10:42:27Z</time></trkpt><trkpt lat="46.05312786053786" lon="8.742359355621126"><ele>643.0</ele><time>2026-04-25T10:42:29Z</time></trkpt><trkpt lat="46.053223087688146" lon="8.74242816613002"><ele>643.0</ele><time>2026-04-25T10:42:30Z</time></trkpt><trkpt lat="46.05332042788857" lon="8.742373176337868"><ele>643.0</ele><time>2026-04-25T10:42:31Z</time></trkpt><trkpt lat="46.053399522230116" lon="8.742347967256006"><ele>642.5999999999999</ele><time>2026-04-25T10:42:32Z</time></trkpt><trkpt lat="46.053459994783076" lon="8.742414811882586"><ele>642.1999999999999</ele><time>2026-04-25T10:42:33Z</time></trkpt><trkpt lat="46.05352693615849" lon="8.742492034212232"><ele>641.8</ele><time>2026-04-25T10:42:34Z</time></trkpt><trkpt lat="46.05361307143866" lon="8.742564967831598"><ele>641.4</ele><time>2026-04-25T10:42:35Z</time></trkpt><trkpt lat="46.053718896862435" lon="8.742607016039447"><ele>641.0</ele><time>2026-04-25T10:42:36Z</time></trkpt><trkpt lat="46.05381024379555" lon="8.742647166037461"><ele>641.0</ele><time>2026-04-25T10:42:37Z</time></trkpt><trkpt lat="46.053879007316546" lon="8.742712326802819"><ele>641.0</ele><time>2026-04-25T10:42:38Z</time></trkpt><trkpt lat="46.05393738426942" lon="8.742778970146675"><ele>641.0</ele><time>2026-04-25T10:42:39Z</time></trkpt><trkpt lat="46.05399665359062" lon="8.742883752684461"><ele>641.0</ele><time>2026-04-25T10:42:40Z</time></trkpt><trkpt lat="46.05408691304508" lon="8.74297546345111"><ele>641.0</ele><time>2026-04-25T10:42:41Z</time></trkpt><trkpt lat="46.054207019555776" lon="8.743020655727808"><ele>647.25</ele><time>2026-04-25T10:42:42Z</time></trkpt><trkpt lat="46.05431663981499" lon="8.743094578168394"><ele>653.5</ele><time>2026-04-25T10:42:43Z</time></trkpt><trkpt lat="46.054420231182384" lon="8.74315893279976"><ele>659.75</ele><time>2026-04-25T10:42:44Z</time></trkpt><trkpt lat="46.05452023116917" lon="8.74322941930528"><ele>666.0</ele><time>2026-04-25T10:42:45Z</time></trkpt><trkpt lat="46.05461710988174" lon="8.743309867777807"><ele>666.0</ele><time>2026-04-25T10:42:46Z</time></trkpt><trkpt lat="46.05472441058723" lon="8.743438979041892"><ele>666.0</ele><time>2026-04-25T10:42:47Z</time></trkpt><trkpt lat="46.05481219435647" lon="8.743540248779764"><ele>666.0</ele><time>2026-04-25T10:42:48Z</time></trkpt><trkpt lat="46.05490136642766" lon="8.743649647359014"><ele>666.0</ele><time>2026-04-25T10:42:49Z</time></trkpt><trkpt lat="46.054977308283874" lon="8.743741744997363"><ele>668.8</ele><time>2026-04-25T10:42:50Z</time></trkpt><trkpt lat="46.05505533307239" lon="8.743833267441243"><ele>671.5999999999999</ele><time>2026-04-25T10:42:51Z</time></trkpt><trkpt lat="46.055120974907865" lon="8.743910759262945"><ele>674.4</ele><time>2026-04-25T10:42:52Z</time></trkpt><trkpt lat="46.05518791686009" lon="8.74399181212797"><ele>677.2</ele><time>2026-04-25T10:42:53Z</time></trkpt><trkpt lat="46.055262003920674" lon="8.744047435809268"><ele>680.0</ele><time>2026-04-25T10:42:54Z</time></trkpt><trkpt lat="46.05535882975933" lon="8.744059842784571"><ele>680.0</ele><time>2026-04-25T10:42:55Z</time></trkpt><trkpt lat="46.05545508802446" lon="8.74407984152525"><ele>680.0</ele><time>2026-04-25T10:42:56Z</time></trkpt><trkpt lat="46.05555251967796" lon="8.744127905207158"><ele>680.0</ele><time>2026-04-25T10:42:57Z</time></trkpt><trkpt lat="46.055629704242335" lon="8.744147356249623"><ele>680.0</ele><time>2026-04-25T10:42:58Z</time></trkpt><trkpt lat="46.055718362824656" lon="8.744052261985283"><ele>680.0</ele><time>2026-04-25T10:42:59Z</time></trkpt><trkpt lat="46.055794869168366" lon="8.743983870251563"><ele>677.2</ele><time>2026-04-25T10:43:00Z</time></trkpt><trkpt lat="46.05589410078975" lon="8.743936253063511"><ele>674.4</ele><time>2026-04-25T10:43:01Z</time></trkpt><trkpt lat="46.05596211873698" lon="8.743915313559103"><ele>671.5999999999999</ele><time>2026-04-25T10:43:02Z</time></trkpt><trkpt lat="46.056072006490425" lon="8.743967001577131"><ele>668.8</ele><time>2026-04-25T10:43:03Z</time></trkpt><trkpt lat="46.05618425477085" lon="8.743945108626813"><ele>666.0</ele><time>2026-04-25T10:43:04Z</time></trkpt><trkpt lat="46.05629319523858" lon="8.74391714263602"><ele>666.0</ele><time>2026-04-25T10:43:05Z</time></trkpt><trkpt lat="46.056393811456246" lon="8.743883001103297"><ele>666.0</ele><time>2026-04-25T10:43:06Z</time></trkpt><trkpt lat="46.05647776298555" lon="8.743856210715606"><ele>666.0</ele><time>2026-04-25T10:43:07Z</time></trkpt><trkpt lat="46.056570610926954" lon="8.743829203431947"><ele>666.0</ele><time>2026-04-25T10:43:08Z</time></trkpt><trkpt lat="46.056661301102466" lon="8.743810302724507"><ele>666.0</ele><time>2026-04-25T10:43:09Z</time></trkpt><trkpt lat="46.05673807646444" lon="8.743799953178584"><ele>668.5999999999999</ele><time>2026-04-25T10:43:10Z</time></trkpt><trkpt lat="46.05681137493393" lon="8.743790527656373"><ele>671.2</ele><time>2026-04-25T10:43:11Z</time></trkpt><trkpt lat="46.05691133583098" lon="8.743767195547205"><ele>673.8</ele><time>2026-04-25T10:43:12Z</time></trkpt><trkpt lat="46.05700706592348" lon="8.743710211847242"><ele>676.4000000000001</ele><time>2026-04-25T10:43:13Z</time></trkpt><trkpt lat="46.057103680727174" lon="8.743715611790082"><ele>679.0</ele><time>2026-04-25T10:43:14Z</time></trkpt><trkpt lat="46.05719080998136" lon="8.74372106500113"><ele>679.0</ele><time>2026-04-25T10:43:15Z</time></trkpt><trkpt lat="46.05728508140556" lon="8.743708306866223"><ele>679.0</ele><time>2026-04-25T10:43:16Z</time></trkpt><trkpt lat="46.057375642102606" lon="8.743671671124725"><ele>679.0</ele><time>2026-04-25T10:43:17Z</time></trkpt><trkpt lat="46.05746650973715" lon="8.743658451757758"><ele>679.0</ele><time>2026-04-25T10:43:18Z</time></trkpt><trkpt lat="46.05755606606899" lon="8.74363683866015"><ele>679.0</ele><time>2026-04-25T10:43:19Z</time></trkpt><trkpt lat="46.05763121982757" lon="8.743593158940463"><ele>675.6</ele><time>2026-04-25T10:43:20Z</time></trkpt><trkpt lat="46.05770711280176" lon="8.74350002318839"><ele>672.2</ele><time>2026-04-25T10:43:21Z</time></trkpt><trkpt lat="46.05776448322054" lon="8.743378758695979"><ele>668.8000000000001</ele><time>2026-04-25T10:43:22Z</time></trkpt><trkpt lat="46.057839054318606" lon="8.743296256306971"><ele>665.4000000000001</ele><time>2026-04-25T10:43:23Z</time></trkpt><trkpt lat="46.05790571120918" lon="8.743212012591345"><ele>662.0</ele><time>2026-04-25T10:43:24Z</time></trkpt><trkpt lat="46.057961634484" lon="8.74312760288174"><ele>662.0</ele><time>2026-04-25T10:43:25Z</time></trkpt><trkpt lat="46.05803379747959" lon="8.743020959536913"><ele>662.0</ele><time>2026-04-25T10:43:26Z</time></trkpt><trkpt lat="46.05811489149152" lon="8.742936690232183"><ele>662.0</ele><time>2026-04-25T10:43:27Z</time></trkpt><trkpt lat="46.05819638219348" lon="8.742837833813839"><ele>662.0</ele><time>2026-04-25T10:43:28Z</time></trkpt><trkpt lat="46.05828217837202" lon="8.74274813441025"><ele>662.0</ele><time>2026-04-25T10:43:29Z</time></trkpt><trkpt lat="46.05832364938509" lon="8.742641202351708"><ele>663.5</ele><time>2026-04-25T10:43:30Z</time></trkpt><trkpt lat="46.0584392036151" lon="8.74253433972385"><ele>665.0</ele><time>2026-04-25T10:43:32Z</time></trkpt><trkpt lat="46.05855524994262" lon="8.742488572903193"><ele>666.5</ele><time>2026-04-25T10:43:33Z</time></trkpt><trkpt lat="46.05868815556688" lon="8.742397321950914"><ele>668.0</ele><time>2026-04-25T10:43:34Z</time></trkpt><trkpt lat="46.05882099976761" lon="8.742277732451424"><ele>668.0</ele><time>2026-04-25T10:43:35Z</time></trkpt><trkpt lat="46.05896670182188" lon="8.742192091385911"><ele>668.0</ele><time>2026-04-25T10:43:36Z</time></trkpt><trkpt lat="46.059098286304035" lon="8.742098370806872"><ele>668.0</ele><time>2026-04-25T10:43:37Z</time></trkpt><trkpt lat="46.059214715620264" lon="8.742049543649403"><ele>668.0</ele><time>2026-04-25T10:43:38Z</time></trkpt><trkpt lat="46.05929601876046" lon="8.742000917556464"><ele>667.2</ele><time>2026-04-25T10:43:39Z</time></trkpt><trkpt lat="46.0593848338198" lon="8.741951248968142"><ele>666.4</ele><time>2026-04-25T10:43:40Z</time></trkpt><trkpt lat="46.05948436405097" lon="8.741932297716124"><ele>665.6</ele><time>2026-04-25T10:43:41Z</time></trkpt><trkpt lat="46.05959334979754" lon="8.741916033749714"><ele>664.8000000000001</ele><time>2026-04-25T10:43:42Z</time></trkpt><trkpt lat="46.059723632224625" lon="8.741883553460957"><ele>664.0</ele><time>2026-04-25T10:43:43Z</time></trkpt><trkpt lat="46.059865156160605" lon="8.741853561236097"><ele>669.5</ele><time>2026-04-25T10:43:44Z</time></trkpt><trkpt lat="46.06001697741666" lon="8.7418361112732"><ele>675.0</ele><time>2026-04-25T10:43:45Z</time></trkpt><trkpt lat="46.06014116110497" lon="8.74180481642121"><ele>680.5</ele><time>2026-04-25T10:43:46Z</time></trkpt><trkpt lat="46.06025846765837" lon="8.741790180992359"><ele>686.0</ele><time>2026-04-25T10:43:47Z</time></trkpt><trkpt lat="46.060376646245686" lon="8.74176894524243"><ele>686.0</ele><time>2026-04-25T10:43:48Z</time></trkpt><trkpt lat="46.06049585010844" lon="8.741748921860859"><ele>686.0</ele><time>2026-04-25T10:43:49Z</time></trkpt><trkpt lat="46.06060996238507" lon="8.741748272208506"><ele>686.0</ele><time>2026-04-25T10:43:50Z</time></trkpt><trkpt lat="46.060723047276085" lon="8.741787139089631"><ele>686.0</ele><time>2026-04-25T10:43:51Z</time></trkpt><trkpt lat="46.06083649319795" lon="8.741801883778402"><ele>689.0</ele><time>2026-04-25T10:43:52Z</time></trkpt><trkpt lat="46.060956357902754" lon="8.741852547083939"><ele>692.0</ele><time>2026-04-25T10:43:53Z</time></trkpt><trkpt lat="46.0610801073336" lon="8.741892442615999"><ele>695.0</ele><time>2026-04-25T10:43:54Z</time></trkpt><trkpt lat="46.06121487147209" lon="8.741969008269987"><ele>698.0</ele><time>2026-04-25T10:43:55Z</time></trkpt><trkpt lat="46.06135738983737" lon="8.742024443042252"><ele>704.0</ele><time>2026-04-25T10:43:56Z</time></trkpt><trkpt lat="46.06150575228762" lon="8.742075056551302"><ele>710.0</ele><time>2026-04-25T10:43:57Z</time></trkpt><trkpt lat="46.06165130987115" lon="8.742089205954104"><ele>716.0</ele><time>2026-04-25T10:43:58Z</time></trkpt><trkpt lat="46.06178544959745" lon="8.74211115693422"><ele>722.0</ele><time>2026-04-25T10:43:59Z</time></trkpt><trkpt lat="46.06189517492425" lon="8.742146443844307"><ele>722.0</ele><time>2026-04-25T10:44:00Z</time></trkpt><trkpt lat="46.061990289140404" lon="8.742158900804602"><ele>722.0</ele><time>2026-04-25T10:44:01Z</time></trkpt><trkpt lat="46.06206869441789" lon="8.742171120166297"><ele>722.0</ele><time>2026-04-25T10:44:02Z</time></trkpt><trkpt lat="46.06214484964601" lon="8.7422088493669"><ele>722.0</ele><time>2026-04-25T10:44:03Z</time></trkpt><trkpt lat="46.06222632975966" lon="8.742303927916405"><ele>722.0</ele><time>2026-04-25T10:44:04Z</time></trkpt><trkpt lat="46.062342845721865" lon="8.742379718291678"><ele>720.25</ele><time>2026-04-25T10:44:05Z</time></trkpt><trkpt lat="46.06247285833358" lon="8.742477679218277"><ele>718.5</ele><time>2026-04-25T10:44:06Z</time></trkpt><trkpt lat="46.06260240609621" lon="8.742588502927648"><ele>716.75</ele><time>2026-04-25T10:44:07Z</time></trkpt><trkpt lat="46.062743498489155" lon="8.742661692736112"><ele>715.0</ele><time>2026-04-25T10:44:08Z</time></trkpt><trkpt lat="46.06286248551345" lon="8.742714374883072"><ele>719.25</ele><time>2026-04-25T10:44:09Z</time></trkpt><trkpt lat="46.06298792692912" lon="8.742769400101864"><ele>723.5</ele><time>2026-04-25T10:44:10Z</time></trkpt><trkpt lat="46.06309685793995" lon="8.742832744279601"><ele>727.75</ele><time>2026-04-25T10:44:11Z</time></trkpt><trkpt lat="46.06320470114307" lon="8.742915775558583"><ele>732.0</ele><time>2026-04-25T10:44:12Z</time></trkpt><trkpt lat="46.06329959187181" lon="8.74301193594599"><ele>732.0</ele><time>2026-04-25T10:44:13Z</time></trkpt><trkpt lat="46.06339658992515" lon="8.74311853225564"><ele>732.0</ele><time>2026-04-25T10:44:14Z</time></trkpt><trkpt lat="46.0634905704858" lon="8.743240608480365"><ele>732.0</ele><time>2026-04-25T10:44:15Z</time></trkpt><trkpt lat="46.06355814981421" lon="8.743363167176657"><ele>732.0</ele><time>2026-04-25T10:44:16Z</time></trkpt><trkpt lat="46.063623081242554" lon="8.743507460174017"><ele>737.75</ele><time>2026-04-25T10:44:17Z</time></trkpt><trkpt lat="46.06369563210885" lon="8.743667790223757"><ele>743.5</ele><time>2026-04-25T10:44:18Z</time></trkpt><trkpt lat="46.06379143471294" lon="8.74381231511501"><ele>749.25</ele><time>2026-04-25T10:44:19Z</time></trkpt><trkpt lat="46.06385373106606" lon="8.74392518990155"><ele>755.0</ele><time>2026-04-25T10:44:20Z</time></trkpt><trkpt lat="46.06391054853396" lon="8.744020863744499"><ele>755.0</ele><time>2026-04-25T10:44:21Z</time></trkpt><trkpt lat="46.064007045349356" lon="8.744128684149263"><ele>755.0</ele><time>2026-04-25T10:44:22Z</time></trkpt><trkpt lat="46.064127432443264" lon="8.744213351673597"><ele>755.0</ele><time>2026-04-25T10:44:23Z</time></trkpt><trkpt lat="46.064262858968554" lon="8.744282841581741"><ele>755.0</ele><time>2026-04-25T10:44:24Z</time></trkpt><trkpt lat="46.06441209227376" lon="8.744363016935502"><ele>756.6666666666666</ele><time>2026-04-25T10:44:25Z</time></trkpt><trkpt lat="46.064561965344815" lon="8.744451155350664"><ele>758.3333333333334</ele><time>2026-04-25T10:44:26Z</time></trkpt><trkpt lat="46.06471015218217" lon="8.744539545450886"><ele>760.0</ele><time>2026-04-25T10:44:27Z</time></trkpt><trkpt lat="46.064854354032995" lon="8.74462555869036"><ele>756.0</ele><time>2026-04-25T10:44:28Z</time></trkpt><trkpt lat="46.064995593240134" lon="8.744709804858504"><ele>752.0</ele><time>2026-04-25T10:44:29Z</time></trkpt><trkpt lat="46.065125100236834" lon="8.7447870529721"><ele>748.0</ele><time>2026-04-25T10:44:30Z</time></trkpt><trkpt lat="46.06524073451472" lon="8.744858172720352"><ele>744.0</ele><time>2026-04-25T10:44:31Z</time></trkpt><trkpt lat="46.065343700928864" lon="8.744910548472532"><ele>744.0</ele><time>2026-04-25T10:44:32Z</time></trkpt><trkpt lat="46.06544128466064" lon="8.744945348922885"><ele>744.0</ele><time>2026-04-25T10:44:33Z</time></trkpt><trkpt lat="46.065539413509136" lon="8.744930077472134"><ele>744.0</ele><time>2026-04-25T10:44:34Z</time></trkpt><trkpt lat="46.065623974584334" lon="8.744879040823669"><ele>744.0</ele><time>2026-04-25T10:44:35Z</time></trkpt><trkpt lat="46.065732707683594" lon="8.744842912894805"><ele>744.0</ele><time>2026-04-25T10:44:36Z</time></trkpt><trkpt lat="46.06584257841045" lon="8.744779960359436"><ele>744.2</ele><time>2026-04-25T10:44:37Z</time></trkpt><trkpt lat="46.06596536972861" lon="8.744703470350412"><ele>744.4000000000001</ele><time>2026-04-25T10:44:38Z</time></trkpt><trkpt lat="46.06605594165121" lon="8.744634357500397"><ele>744.6</ele><time>2026-04-25T10:44:39Z</time></trkpt><trkpt lat="46.066135217969034" lon="8.744578739792933"><ele>744.8</ele><time>2026-04-25T10:44:40Z</time></trkpt><trkpt lat="46.06619712180148" lon="8.744541836028324"><ele>745.0</ele><time>2026-04-25T10:44:41Z</time></trkpt><trkpt lat="46.06629596452503" lon="8.744561514579331"><ele>745.0</ele><time>2026-04-25T10:44:43Z</time></trkpt><trkpt lat="46.06633980387803" lon="8.74463255380948"><ele>745.0</ele><time>2026-04-25T10:44:44Z</time></trkpt><trkpt lat="46.06635226990086" lon="8.744728747519648"><ele>745.0</ele><time>2026-04-25T10:44:45Z</time></trkpt><trkpt lat="46.06633546069993" lon="8.74482140847573"><ele>745.0</ele><time>2026-04-25T10:44:46Z</time></trkpt><trkpt lat="46.066234697145845" lon="8.744875625353199"><ele>745.0</ele><time>2026-04-25T10:44:48Z</time></trkpt><trkpt lat="46.06613085003624" lon="8.744914812848938"><ele>745.0</ele><time>2026-04-25T10:44:49Z</time></trkpt><trkpt lat="46.06607622682796" lon="8.745043868692537"><ele>745.0</ele><time>2026-04-25T10:44:50Z</time></trkpt><trkpt lat="46.066006409550596" lon="8.745163691538785"><ele>745.0</ele><time>2026-04-25T10:44:51Z</time></trkpt><trkpt lat="46.06592625468783" lon="8.745261926338909"><ele>745.0</ele><time>2026-04-25T10:44:52Z</time></trkpt><trkpt lat="46.065794154906264" lon="8.745450245332659"><ele>745.0</ele><time>2026-04-25T10:44:54Z</time></trkpt><trkpt lat="46.065714973194936" lon="8.745551855203903"><ele>749.5</ele><time>2026-04-25T10:44:55Z</time></trkpt><trkpt lat="46.06565133065467" lon="8.745648336763821"><ele>754.0</ele><time>2026-04-25T10:44:56Z</time></trkpt><trkpt lat="46.0655010613021" lon="8.745832368228594"><ele>758.5</ele><time>2026-04-25T10:44:57Z</time></trkpt><trkpt lat="46.06539654427717" lon="8.74597132612428"><ele>763.0</ele><time>2026-04-25T10:44:58Z</time></trkpt><trkpt lat="46.06530312029435" lon="8.746067247181935"><ele>763.0</ele><time>2026-04-25T10:44:59Z</time></trkpt><trkpt lat="46.06522300100724" lon="8.746106671786363"><ele>763.0</ele><time>2026-04-25T10:45:00Z</time></trkpt><trkpt lat="46.06509491470117" lon="8.746079668159506"><ele>763.0</ele><time>2026-04-25T10:45:02Z</time></trkpt><trkpt lat="46.065008773441114" lon="8.74601854079802"><ele>763.0</ele><time>2026-04-25T10:45:03Z</time></trkpt><trkpt lat="46.06489724978382" lon="8.745972554747457"><ele>763.0</ele><time>2026-04-25T10:45:04Z</time></trkpt><trkpt lat="46.064817359035914" lon="8.745929448582588"><ele>766.2</ele><time>2026-04-25T10:45:05Z</time></trkpt><trkpt lat="46.06475112753415" lon="8.745876061498425"><ele>769.4</ele><time>2026-04-25T10:45:06Z</time></trkpt><trkpt lat="46.064678661509554" lon="8.74583863717131"><ele>772.6</ele><time>2026-04-25T10:45:08Z</time></trkpt><trkpt lat="46.064615987661206" lon="8.745916739237648"><ele>775.8000000000001</ele><time>2026-04-25T10:45:10Z</time></trkpt><trkpt lat="46.064629772085645" lon="8.746097897207502"><ele>779.0</ele><time>2026-04-25T10:45:12Z</time></trkpt><trkpt lat="46.06471417647932" lon="8.746176686816145"><ele>780.4000000000001</ele><time>2026-04-25T10:45:13Z</time></trkpt><trkpt lat="46.06479812959447" lon="8.746309406732799"><ele>781.8</ele><time>2026-04-25T10:45:14Z</time></trkpt><trkpt lat="46.06487416321638" lon="8.746411445956564"><ele>783.2</ele><time>2026-04-25T10:45:15Z</time></trkpt><trkpt lat="46.0649604460717" lon="8.746504692271227"><ele>784.5999999999999</ele><time>2026-04-25T10:45:16Z</time></trkpt><trkpt lat="46.06504139030118" lon="8.746556911083077"><ele>786.0</ele><time>2026-04-25T10:45:17Z</time></trkpt><trkpt lat="46.06511298859207" lon="8.746611951834046"><ele>786.0</ele><time>2026-04-25T10:45:18Z</time></trkpt><trkpt lat="46.065193597051426" lon="8.746647491255459"><ele>786.0</ele><time>2026-04-25T10:45:19Z</time></trkpt><trkpt lat="46.06528845299764" lon="8.746652844689367"><ele>786.0</ele><time>2026-04-25T10:45:20Z</time></trkpt><trkpt lat="46.065422557605054" lon="8.746669223129809"><ele>786.0</ele><time>2026-04-25T10:45:21Z</time></trkpt><trkpt lat="46.065557879795946" lon="8.74668626877927"><ele>786.0</ele><time>2026-04-25T10:45:22Z</time></trkpt><trkpt lat="46.065700679435736" lon="8.746710071948446"><ele>786.0</ele><time>2026-04-25T10:45:23Z</time></trkpt><trkpt lat="46.065832740408204" lon="8.746720399247533"><ele>786.0</ele><time>2026-04-25T10:45:24Z</time></trkpt><trkpt lat="46.065957990092805" lon="8.746695612288747"><ele>786.0</ele><time>2026-04-25T10:45:25Z</time></trkpt><trkpt lat="46.06605587169635" lon="8.746651439903058"><ele>786.1666666666666</ele><time>2026-04-25T10:45:26Z</time></trkpt><trkpt lat="46.06612039775237" lon="8.746596181925863"><ele>786.3333333333333</ele><time>2026-04-25T10:45:27Z</time></trkpt><trkpt lat="46.06621085284132" lon="8.746586434412961"><ele>786.5</ele><time>2026-04-25T10:45:29Z</time></trkpt><trkpt lat="46.066270574979136" lon="8.746617260954782"><ele>786.6666666666666</ele><time>2026-04-25T10:45:31Z</time></trkpt><trkpt lat="46.06627110362298" lon="8.746742373582652"><ele>786.8333333333333</ele><time>2026-04-25T10:45:33Z</time></trkpt><trkpt lat="46.06621276878862" lon="8.746796980422205"><ele>787.0</ele><time>2026-04-25T10:45:34Z</time></trkpt><trkpt lat="46.0661268936158" lon="8.746797964144312"><ele>787.0</ele><time>2026-04-25T10:45:35Z</time></trkpt><trkpt lat="46.066048998153256" lon="8.746846448066444"><ele>787.0</ele><time>2026-04-25T10:45:36Z</time></trkpt><trkpt lat="46.06597730274562" lon="8.746917034750489"><ele>787.0</ele><time>2026-04-25T10:45:37Z</time></trkpt><trkpt lat="46.065924273089585" lon="8.747035324788069"><ele>787.0</ele><time>2026-04-25T10:45:38Z</time></trkpt><trkpt lat="46.06588300849267" lon="8.747185411317556"><ele>787.0</ele><time>2026-04-25T10:45:39Z</time></trkpt><trkpt lat="46.065843472974294" lon="8.747282246853676"><ele>790.4000000000001</ele><time>2026-04-25T10:45:40Z</time></trkpt><trkpt lat="46.06582587628365" lon="8.747396695807089"><ele>793.8000000000001</ele><time>2026-04-25T10:45:43Z</time></trkpt><trkpt lat="46.06583296087455" lon="8.747521920329449"><ele>797.2</ele><time>2026-04-25T10:45:45Z</time></trkpt><trkpt lat="46.06584278480184" lon="8.747691283107466"><ele>800.6</ele><time>2026-04-25T10:45:46Z</time></trkpt><trkpt lat="46.06587158309386" lon="8.747834463452715"><ele>804.0</ele><time>2026-04-25T10:45:47Z</time></trkpt><trkpt lat="46.06593346355777" lon="8.747932849599314"><ele>806.3333333333334</ele><time>2026-04-25T10:45:48Z</time></trkpt><trkpt lat="46.06599492270875" lon="8.748001820590376"><ele>808.6666666666667</ele><time>2026-04-25T10:45:49Z</time></trkpt><trkpt lat="46.06608455924736" lon="8.7481191446675"><ele>811.0</ele><time>2026-04-25T10:45:51Z</time></trkpt><trkpt lat="46.066156379871146" lon="8.748186253083666"><ele>813.3333333333334</ele><time>2026-04-25T10:45:52Z</time></trkpt><trkpt lat="46.06621683664344" lon="8.748259288584727"><ele>815.6666666666667</ele><time>2026-04-25T10:45:53Z</time></trkpt><trkpt lat="46.06628057170661" lon="8.74831694493861"><ele>818.0</ele><time>2026-04-25T10:45:54Z</time></trkpt><trkpt lat="46.066351260724964" lon="8.748372573756265"><ele>818.0</ele><time>2026-04-25T10:45:55Z</time></trkpt><trkpt lat="46.06643659599837" lon="8.748408773096124"><ele>818.0</ele><time>2026-04-25T10:45:56Z</time></trkpt><trkpt lat="46.06653033404317" lon="8.74842332672535"><ele>818.0</ele><time>2026-04-25T10:45:57Z</time></trkpt><trkpt lat="46.06660414658047" lon="8.748396901794065"><ele>818.0</ele><time>2026-04-25T10:45:58Z</time></trkpt><trkpt lat="46.0666919203251" lon="8.748403424970432"><ele>818.0</ele><time>2026-04-25T10:46:00Z</time></trkpt><trkpt lat="46.06671644973257" lon="8.748555105713692"><ele>818.8333333333334</ele><time>2026-04-25T10:46:02Z</time></trkpt><trkpt lat="46.066698725565516" lon="8.748681515212905"><ele>819.6666666666667</ele><time>2026-04-25T10:46:03Z</time></trkpt><trkpt lat="46.066682112733986" lon="8.748787722907155"><ele>820.5</ele><time>2026-04-25T10:46:04Z</time></trkpt><trkpt lat="46.06668940847677" lon="8.748880206289043"><ele>821.3333333333333</ele><time>2026-04-25T10:46:05Z</time></trkpt><trkpt lat="46.066731969422705" lon="8.748971698086203"><ele>822.1666666666666</ele><time>2026-04-25T10:46:06Z</time></trkpt><trkpt lat="46.066813295471235" lon="8.749053325563072"><ele>823.0</ele><time>2026-04-25T10:46:07Z</time></trkpt><trkpt lat="46.0669105393143" lon="8.749089291507556"><ele>823.0</ele><time>2026-04-25T10:46:08Z</time></trkpt><trkpt lat="46.06698941492472" lon="8.749074372134478"><ele>823.0</ele><time>2026-04-25T10:46:09Z</time></trkpt><trkpt lat="46.06709326737174" lon="8.74897578254336"><ele>823.0</ele><time>2026-04-25T10:46:11Z</time></trkpt><trkpt lat="46.06712870499526" lon="8.748826879628071"><ele>823.0</ele><time>2026-04-25T10:46:12Z</time></trkpt><trkpt lat="46.0671707613787" lon="8.748717119344263"><ele>823.0</ele><time>2026-04-25T10:46:13Z</time></trkpt><trkpt lat="46.0672227777356" lon="8.748629629865006"><ele>822.4</ele><time>2026-04-25T10:46:14Z</time></trkpt><trkpt lat="46.06730159369113" lon="8.748537127989602"><ele>821.8</ele><time>2026-04-25T10:46:15Z</time></trkpt><trkpt lat="46.06738947005423" lon="8.74847350534987"><ele>821.2</ele><time>2026-04-25T10:46:16Z</time></trkpt><trkpt lat="46.067487942725144" lon="8.748414795835757"><ele>820.6</ele><time>2026-04-25T10:46:17Z</time></trkpt><trkpt lat="46.067568442524454" lon="8.748350166193218"><ele>820.0</ele><time>2026-04-25T10:46:18Z</time></trkpt><trkpt lat="46.06768529200369" lon="8.748355403423647"><ele>821.6</ele><time>2026-04-25T10:46:20Z</time></trkpt><trkpt lat="46.06772257960872" lon="8.748273315410247"><ele>823.2</ele><time>2026-04-25T10:46:21Z</time></trkpt><trkpt lat="46.06775499533171" lon="8.748068866875682"><ele>824.8</ele><time>2026-04-25T10:46:23Z</time></trkpt><trkpt lat="46.06772937420653" lon="8.747891288838337"><ele>826.4</ele><time>2026-04-25T10:46:24Z</time></trkpt><trkpt lat="46.06771668931265" lon="8.74775478744259"><ele>828.0</ele><time>2026-04-25T10:46:25Z</time></trkpt><trkpt lat="46.06773396244228" lon="8.747617193108873"><ele>828.2</ele><time>2026-04-25T10:46:27Z</time></trkpt><trkpt lat="46.06778848553427" lon="8.747536681172114"><ele>828.4</ele><time>2026-04-25T10:46:28Z</time></trkpt><trkpt lat="46.06787033236266" lon="8.747470478642503"><ele>828.6</ele><time>2026-04-25T10:46:29Z</time></trkpt><trkpt lat="46.06798244708671" lon="8.747400237885406"><ele>828.8000000000001</ele><time>2026-04-25T10:46:30Z</time></trkpt><trkpt lat="46.06811916087139" lon="8.747321132268397"><ele>829.0</ele><time>2026-04-25T10:46:31Z</time></trkpt><trkpt lat="46.06826033895217" lon="8.747248461731997"><ele>831.0</ele><time>2026-04-25T10:46:32Z</time></trkpt><trkpt lat="46.0683895389319" lon="8.74717199238195"><ele>833.0</ele><time>2026-04-25T10:46:33Z</time></trkpt><trkpt lat="46.068491057499" lon="8.747106228576287"><ele>835.0</ele><time>2026-04-25T10:46:34Z</time></trkpt><trkpt lat="46.068571501683984" lon="8.74705133090617"><ele>837.0</ele><time>2026-04-25T10:46:35Z</time></trkpt><trkpt lat="46.06864053750643" lon="8.747011093661477"><ele>839.0</ele><time>2026-04-25T10:46:36Z</time></trkpt><trkpt lat="46.06871265156024" lon="8.746947852646533"><ele>838.0</ele><time>2026-04-25T10:46:37Z</time></trkpt><trkpt lat="46.06879206308884" lon="8.74685414154715"><ele>837.0</ele><time>2026-04-25T10:46:38Z</time></trkpt><trkpt lat="46.0688659482255" lon="8.746745148177665"><ele>836.0</ele><time>2026-04-25T10:46:39Z</time></trkpt><trkpt lat="46.06892576314516" lon="8.746633139121414"><ele>835.0</ele><time>2026-04-25T10:46:40Z</time></trkpt><trkpt lat="46.068967554146155" lon="8.74651171390396"><ele>834.0</ele><time>2026-04-25T10:46:41Z</time></trkpt><trkpt lat="46.068995203612026" lon="8.74637630127268"><ele>834.0</ele><time>2026-04-25T10:46:42Z</time></trkpt><trkpt lat="46.06900700709427" lon="8.746232042459855"><ele>834.0</ele><time>2026-04-25T10:46:43Z</time></trkpt><trkpt lat="46.06902831538543" lon="8.746094416563695"><ele>834.0</ele><time>2026-04-25T10:46:44Z</time></trkpt><trkpt lat="46.06903238330617" lon="8.745996221440802"><ele>834.0</ele><time>2026-04-25T10:46:45Z</time></trkpt><trkpt lat="46.06906509631896" lon="8.745855404302986"><ele>834.0</ele><time>2026-04-25T10:46:47Z</time></trkpt><trkpt lat="46.06914892500517" lon="8.745801889737239"><ele>837.4000000000001</ele><time>2026-04-25T10:46:48Z</time></trkpt><trkpt lat="46.06924142711219" lon="8.745737411622725"><ele>840.8</ele><time>2026-04-25T10:46:49Z</time></trkpt><trkpt lat="46.06931323595245" lon="8.745693075072309"><ele>844.2</ele><time>2026-04-25T10:46:50Z</time></trkpt><trkpt lat="46.069443306454595" lon="8.745757648766498"><ele>847.5999999999999</ele><time>2026-04-25T10:46:52Z</time></trkpt><trkpt lat="46.06953772012985" lon="8.745860222437692"><ele>851.0</ele><time>2026-04-25T10:46:53Z</time></trkpt><trkpt lat="46.06964083544544" lon="8.74597572528586"><ele>851.8</ele><time>2026-04-25T10:46:54Z</time></trkpt><trkpt lat="46.06973847568634" lon="8.746086702268306"><ele>852.5999999999999</ele><time>2026-04-25T10:46:55Z</time></trkpt><trkpt lat="46.06979863448139" lon="8.746168978027223"><ele>853.4</ele><time>2026-04-25T10:46:56Z</time></trkpt><trkpt lat="46.06989085027473" lon="8.746221228402009"><ele>854.2</ele><time>2026-04-25T10:46:58Z</time></trkpt><trkpt lat="46.06998490505137" lon="8.74611334240476"><ele>855.0</ele><time>2026-04-25T10:47:00Z</time></trkpt><trkpt lat="46.07001875861946" lon="8.74600879824351"><ele>854.2</ele><time>2026-04-25T10:47:01Z</time></trkpt><trkpt lat="46.069979680652345" lon="8.745846873570397"><ele>853.4</ele><time>2026-04-25T10:47:02Z</time></trkpt><trkpt lat="46.06991127807936" lon="8.745719125285119"><ele>852.5999999999999</ele><time>2026-04-25T10:47:03Z</time></trkpt><trkpt lat="46.06987001143109" lon="8.74557853293993"><ele>851.8</ele><time>2026-04-25T10:47:04Z</time></trkpt><trkpt lat="46.0698291638084" lon="8.74546068222014"><ele>851.0</ele><time>2026-04-25T10:47:05Z</time></trkpt><trkpt lat="46.06980668003257" lon="8.745362834415427"><ele>851.0000000000001</ele><time>2026-04-25T10:47:06Z</time></trkpt><trkpt lat="46.069796532418934" lon="8.745256113709555"><ele>851.0</ele><time>2026-04-25T10:47:07Z</time></trkpt><trkpt lat="46.069806991445375" lon="8.745136320549047"><ele>851.0</ele><time>2026-04-25T10:47:08Z</time></trkpt><trkpt lat="46.06983940591021" lon="8.745035587452989"><ele>851.0</ele><time>2026-04-25T10:47:09Z</time></trkpt><trkpt lat="46.06988119290951" lon="8.744953811997881"><ele>851.0000000000001</ele><time>2026-04-25T10:47:10Z</time></trkpt><trkpt lat="46.06995161441814" lon="8.744927048466296"><ele>851.0</ele><time>2026-04-25T10:47:11Z</time></trkpt><trkpt lat="46.07002375485536" lon="8.744943393452592"><ele>855.5999999999999</ele><time>2026-04-25T10:47:12Z</time></trkpt><trkpt lat="46.070089614941836" lon="8.744997707898765"><ele>860.2</ele><time>2026-04-25T10:47:13Z</time></trkpt><trkpt lat="46.07014420598213" lon="8.745052161588012"><ele>864.8000000000001</ele><time>2026-04-25T10:47:14Z</time></trkpt><trkpt lat="46.07025752541685" lon="8.745135861861687"><ele>869.4000000000001</ele><time>2026-04-25T10:47:16Z</time></trkpt><trkpt lat="46.070311466622854" lon="8.745274478331975"><ele>874.0</ele><time>2026-04-25T10:47:18Z</time></trkpt><trkpt lat="46.07028804602396" lon="8.745419282795439"><ele>874.2</ele><time>2026-04-25T10:47:20Z</time></trkpt><trkpt lat="46.070251686668556" lon="8.745524192454457"><ele>874.4000000000001</ele><time>2026-04-25T10:47:21Z</time></trkpt><trkpt lat="46.07021933178993" lon="8.745624716933452"><ele>874.6</ele><time>2026-04-25T10:47:22Z</time></trkpt><trkpt lat="46.0702175212841" lon="8.745785596697377"><ele>874.8</ele><time>2026-04-25T10:47:24Z</time></trkpt><trkpt lat="46.07028570018268" lon="8.74592043431819"><ele>875.0</ele><time>2026-04-25T10:47:26Z</time></trkpt><trkpt lat="46.07034106710671" lon="8.745997791628445"><ele>875.0</ele><time>2026-04-25T10:47:27Z</time></trkpt><trkpt lat="46.07038488442445" lon="8.746073923237892"><ele>875.0</ele><time>2026-04-25T10:47:28Z</time></trkpt><trkpt lat="46.070431165010284" lon="8.746150507516454"><ele>875.0</ele><time>2026-04-25T10:47:29Z</time></trkpt><trkpt lat="46.07047716261143" lon="8.74622819380555"><ele>875.0</ele><time>2026-04-25T10:47:30Z</time></trkpt><trkpt lat="46.07051509912491" lon="8.74631547570067"><ele>875.0</ele><time>2026-04-25T10:47:31Z</time></trkpt><trkpt lat="46.070547511836395" lon="8.746409515332807"><ele>875.0</ele><time>2026-04-25T10:47:32Z</time></trkpt><trkpt lat="46.070574420812385" lon="8.746510411925481"><ele>875.0</ele><time>2026-04-25T10:47:33Z</time></trkpt><trkpt lat="46.070600874663555" lon="8.74661222050141"><ele>875.0000000000001</ele><time>2026-04-25T10:47:34Z</time></trkpt><trkpt lat="46.070630166560285" lon="8.746726244550905"><ele>875.0</ele><time>2026-04-25T10:47:35Z</time></trkpt><trkpt lat="46.07062470160749" lon="8.746845765307635"><ele>875.0</ele><time>2026-04-25T10:47:36Z</time></trkpt><trkpt lat="46.07063569055799" lon="8.746965596704579"><ele>875.0</ele><time>2026-04-25T10:47:37Z</time></trkpt><trkpt lat="46.07061610113786" lon="8.747087221762992"><ele>875.0000000000001</ele><time>2026-04-25T10:47:38Z</time></trkpt><trkpt lat="46.07059447069212" lon="8.74720562726965"><ele>875.0</ele><time>2026-04-25T10:47:39Z</time></trkpt><trkpt lat="46.07057557884293" lon="8.747318882599883"><ele>876.2857142857143</ele><time>2026-04-25T10:47:40Z</time></trkpt><trkpt lat="46.07055688510036" lon="8.74742403422434"><ele>877.5714285714286</ele><time>2026-04-25T10:47:41Z</time></trkpt><trkpt lat="46.07053746223973" lon="8.747517867494718"><ele>878.8571428571429</ele><time>2026-04-25T10:47:42Z</time></trkpt><trkpt lat="46.07051532246734" lon="8.747609754868245"><ele>880.1428571428571</ele><time>2026-04-25T10:47:43Z</time></trkpt><trkpt lat="46.07049172727944" lon="8.747700999826371"><ele>881.4285714285714</ele><time>2026-04-25T10:47:44Z</time></trkpt><trkpt lat="46.070469188595105" lon="8.747797222719104"><ele>882.7142857142858</ele><time>2026-04-25T10:47:45Z</time></trkpt><trkpt lat="46.07045688064636" lon="8.747902037199395"><ele>884.0</ele><time>2026-04-25T10:47:46Z</time></trkpt><trkpt lat="46.0704670773727" lon="8.748008775248564"><ele>885.8000000000001</ele><time>2026-04-25T10:47:47Z</time></trkpt><trkpt lat="46.07051417467165" lon="8.748156384949326"><ele>887.6000000000001</ele><time>2026-04-25T10:47:49Z</time></trkpt><trkpt lat="46.0705352459582" lon="8.748264883528083"><ele>889.4</ele><time>2026-04-25T10:47:51Z</time></trkpt><trkpt lat="46.070575910050046" lon="8.748414421155559"><ele>891.2</ele><time>2026-04-25T10:47:53Z</time></trkpt><trkpt lat="46.070609363344296" lon="8.74853061400507"><ele>893.0</ele><time>2026-04-25T10:47:55Z</time></trkpt><trkpt lat="46.07064555501685" lon="8.748648680324138"><ele>893.0</ele><time>2026-04-25T10:47:57Z</time></trkpt><trkpt lat="46.07067419693895" lon="8.74879903900064"><ele>893.0</ele><time>2026-04-25T10:47:59Z</time></trkpt><trkpt lat="46.070733662099066" lon="8.748934241922797"><ele>893.0</ele><time>2026-04-25T10:48:01Z</time></trkpt><trkpt lat="46.070791898632" lon="8.749071906273153"><ele>893.0</ele><time>2026-04-25T10:48:03Z</time></trkpt><trkpt lat="46.07076652013528" lon="8.749178588639088"><ele>893.0</ele><time>2026-04-25T10:48:04Z</time></trkpt><trkpt lat="46.07079847784949" lon="8.74927317266233"><ele>895.4</ele><time>2026-04-25T10:48:06Z</time></trkpt><trkpt lat="46.07083588796194" lon="8.749375370411336"><ele>897.8</ele><time>2026-04-25T10:48:09Z</time></trkpt><trkpt lat="46.07088257634289" lon="8.749471524443056"><ele>900.2</ele><time>2026-04-25T10:48:13Z</time></trkpt><trkpt lat="46.070940680577266" lon="8.749570202837424"><ele>902.6</ele><time>2026-04-25T10:49:39Z</time></trkpt><trkpt lat="46.07103558271743" lon="8.749703598805219"><ele>905.0</ele><time>2026-04-25T10:49:41Z</time></trkpt><trkpt lat="46.071085212371884" lon="8.749765898295502"><ele>905.0</ele><time>2026-04-25T10:49:42Z</time></trkpt><trkpt lat="46.07113829960776" lon="8.74982933728938"><ele>904.9999999999999</ele><time>2026-04-25T10:49:43Z</time></trkpt><trkpt lat="46.071192174700414" lon="8.749897657285672"><ele>905.0</ele><time>2026-04-25T10:49:44Z</time></trkpt><trkpt lat="46.07124873859482" lon="8.749971710883834"><ele>905.0</ele><time>2026-04-25T10:49:45Z</time></trkpt><trkpt lat="46.071299130333415" lon="8.750060878715495"><ele>904.9999999999999</ele><time>2026-04-25T10:49:46Z</time></trkpt><trkpt lat="46.071348650890464" lon="8.750142869718053"><ele>905.0</ele><time>2026-04-25T10:49:47Z</time></trkpt><trkpt lat="46.07138871896312" lon="8.750222675674461"><ele>905.0</ele><time>2026-04-25T10:49:48Z</time></trkpt><trkpt lat="46.07141552839417" lon="8.750305811398118"><ele>904.3333333333334</ele><time>2026-04-25T10:49:49Z</time></trkpt><trkpt lat="46.071414323765836" lon="8.750475301895499"><ele>903.6666666666667</ele><time>2026-04-25T10:49:51Z</time></trkpt><trkpt lat="46.071374740503934" lon="8.750547202830917"><ele>903.0</ele><time>2026-04-25T10:49:52Z</time></trkpt><trkpt lat="46.07131238566321" lon="8.750599227836103"><ele>902.3333333333333</ele><time>2026-04-25T10:49:53Z</time></trkpt><trkpt lat="46.07125443544599" lon="8.750660280029305"><ele>901.6666666666666</ele><time>2026-04-25T10:49:54Z</time></trkpt><trkpt lat="46.07121866923842" lon="8.750765852979237"><ele>901.0</ele><time>2026-04-25T10:49:55Z</time></trkpt><trkpt lat="46.07119867385537" lon="8.750898389211198"><ele>900.9999999999999</ele><time>2026-04-25T10:49:56Z</time></trkpt><trkpt lat="46.07118480554159" lon="8.751035392884859"><ele>901.0</ele><time>2026-04-25T10:49:57Z</time></trkpt><trkpt lat="46.071172546928246" lon="8.75115559295279"><ele>901.0</ele><time>2026-04-25T10:49:58Z</time></trkpt><trkpt lat="46.071145572518645" lon="8.75124741682447"><ele>901.0</ele><time>2026-04-25T10:49:59Z</time></trkpt><trkpt lat="46.07108498649169" lon="8.751355489225793"><ele>900.9999999999999</ele><time>2026-04-25T10:50:01Z</time></trkpt><trkpt lat="46.071041555966495" lon="8.751442062568481"><ele>901.0</ele><time>2026-04-25T10:50:03Z</time></trkpt><trkpt lat="46.071081842295506" lon="8.751543424174287"><ele>903.0</ele><time>2026-04-25T10:50:05Z</time></trkpt><trkpt lat="46.07121205598821" lon="8.751476110380551"><ele>904.9999999999999</ele><time>2026-04-25T10:50:07Z</time></trkpt><trkpt lat="46.07126416648561" lon="8.751407141159511"><ele>906.9999999999999</ele><time>2026-04-25T10:50:08Z</time></trkpt><trkpt lat="46.07131688947417" lon="8.751330826714856"><ele>909.0</ele><time>2026-04-25T10:50:09Z</time></trkpt><trkpt lat="46.07136423267464" lon="8.751246756044624"><ele>911.0</ele><time>2026-04-25T10:50:10Z</time></trkpt><trkpt lat="46.07143278665094" lon="8.75112125955825"><ele>911.0000000000001</ele><time>2026-04-25T10:50:12Z</time></trkpt><trkpt lat="46.071485154835955" lon="8.751042083779517"><ele>911.0</ele><time>2026-04-25T10:50:15Z</time></trkpt><trkpt lat="46.071542105389206" lon="8.75109787419506"><ele>911.0</ele><time>2026-04-25T10:50:18Z</time></trkpt><trkpt lat="46.07147673603239" lon="8.751190484793847"><ele>911.0</ele><time>2026-04-25T10:50:20Z</time></trkpt><trkpt lat="46.07142737240351" lon="8.75133882260764"><ele>911.0000000000001</ele><time>2026-04-25T10:50:22Z</time></trkpt><trkpt lat="46.071413979615244" lon="8.751471590459596"><ele>911.0</ele><time>2026-04-25T10:50:24Z</time></trkpt><trkpt lat="46.07137009091202" lon="8.751563370119115"><ele>911.0</ele><time>2026-04-25T10:50:26Z</time></trkpt><trkpt lat="46.071289546598706" lon="8.751628532559804"><ele>910.9999999999999</ele><time>2026-04-25T10:50:28Z</time></trkpt><trkpt lat="46.071269467854734" lon="8.75173369526781"><ele>910.9999999999999</ele><time>2026-04-25T10:50:30Z</time></trkpt><trkpt lat="46.071377988123835" lon="8.75178949481315"><ele>911.0</ele><time>2026-04-25T10:50:32Z</time></trkpt><trkpt lat="46.07145102559744" lon="8.75175297706575"><ele>911.0</ele><time>2026-04-25T10:50:33Z</time></trkpt><trkpt lat="46.07152451323385" lon="8.751662576155221"><ele>911.0000000000001</ele><time>2026-04-25T10:50:35Z</time></trkpt><trkpt lat="46.071562889699614" lon="8.751566554709864"><ele>911.0</ele><time>2026-04-25T10:50:37Z</time></trkpt><trkpt lat="46.07158222008441" lon="8.751463312260313"><ele>911.0</ele><time>2026-04-25T10:50:39Z</time></trkpt><trkpt lat="46.07167233051134" lon="8.751503281823604"><ele>911.0</ele><time>2026-04-25T10:50:41Z</time></trkpt><trkpt lat="46.07170581647942" lon="8.751586412895655"><ele>911.0000000000001</ele><time>2026-04-25T10:50:42Z</time></trkpt><trkpt lat="46.07177618761084" lon="8.751701679984016"><ele>911.0</ele><time>2026-04-25T10:50:44Z</time></trkpt><trkpt lat="46.07183428444267" lon="8.751771413888422"><ele>917.1999999999999</ele><time>2026-04-25T10:50:46Z</time></trkpt><trkpt lat="46.07187667408604" lon="8.751899786169107"><ele>923.3999999999999</ele><time>2026-04-25T10:50:48Z</time></trkpt><trkpt lat="46.07186088836689" lon="8.752031806805396"><ele>929.6</ele><time>2026-04-25T10:50:50Z</time></trkpt><trkpt lat="46.071753835442124" lon="8.752123010293117"><ele>935.8</ele><time>2026-04-25T10:50:52Z</time></trkpt><trkpt lat="46.071692473529644" lon="8.752181725229262"><ele>942.0</ele><time>2026-04-25T10:50:53Z</time></trkpt><trkpt lat="46.07163175627517" lon="8.752241557000024"><ele>940.8</ele><time>2026-04-25T10:50:54Z</time></trkpt><trkpt lat="46.07156630155498" lon="8.75234509066599"><ele>939.6</ele><time>2026-04-25T10:50:55Z</time></trkpt><trkpt lat="46.07153858513701" lon="8.752489689608511"><ele>938.3999999999999</ele><time>2026-04-25T10:50:56Z</time></trkpt><trkpt lat="46.07148904635025" lon="8.752616445086968"><ele>937.1999999999999</ele><time>2026-04-25T10:50:57Z</time></trkpt><trkpt lat="46.07142540492404" lon="8.752703891283595"><ele>936.0</ele><time>2026-04-25T10:50:58Z</time></trkpt><trkpt lat="46.07133829374705" lon="8.752745098456318"><ele>936.0</ele><time>2026-04-25T10:50:59Z</time></trkpt><trkpt lat="46.07121937152567" lon="8.752767568551441"><ele>935.9999999999999</ele><time>2026-04-25T10:51:00Z</time></trkpt><trkpt lat="46.07110795166741" lon="8.752793506506931"><ele>935.9999999999999</ele><time>2026-04-25T10:51:01Z</time></trkpt><trkpt lat="46.07101356652585" lon="8.752800955275067"><ele>936.0</ele><time>2026-04-25T10:51:02Z</time></trkpt><trkpt lat="46.07094359762437" lon="8.752908001247025"><ele>936.0</ele><time>2026-04-25T10:51:03Z</time></trkpt><trkpt lat="46.07087196003975" lon="8.753031636782115"><ele>936.0</ele><time>2026-04-25T10:51:04Z</time></trkpt><trkpt lat="46.0707963372276" lon="8.753165086190956"><ele>936.0</ele><time>2026-04-25T10:51:05Z</time></trkpt><trkpt lat="46.07072121649517" lon="8.753320456593098"><ele>936.0</ele><time>2026-04-25T10:51:06Z</time></trkpt><trkpt lat="46.07065345706652" lon="8.753487215081519"><ele>936.0</ele><time>2026-04-25T10:51:07Z</time></trkpt><trkpt lat="46.07059940480481" lon="8.753671663965157"><ele>934.75</ele><time>2026-04-25T10:51:08Z</time></trkpt><trkpt lat="46.07055856847783" lon="8.753871165283996"><ele>933.5</ele><time>2026-04-25T10:51:09Z</time></trkpt><trkpt lat="46.07051701131067" lon="8.754068750385912"><ele>932.25</ele><time>2026-04-25T10:51:10Z</time></trkpt><trkpt lat="46.07046882260049" lon="8.754247843810065"><ele>931.0</ele><time>2026-04-25T10:51:11Z</time></trkpt><trkpt lat="46.07042716109582" lon="8.754413143786955"><ele>931.0</ele><time>2026-04-25T10:51:12Z</time></trkpt><trkpt lat="46.07040276836577" lon="8.7545590113379"><ele>930.9999999999999</ele><time>2026-04-25T10:51:13Z</time></trkpt><trkpt lat="46.070352223607166" lon="8.754670770365475"><ele>930.9999999999999</ele><time>2026-04-25T10:51:14Z</time></trkpt><trkpt lat="46.07027187518883" lon="8.754714400862"><ele>931.0</ele><time>2026-04-25T10:51:15Z</time></trkpt><trkpt lat="46.070177142382505" lon="8.754883878308606"><ele>931.0</ele><time>2026-04-25T10:51:17Z</time></trkpt><trkpt lat="46.07011318944148" lon="8.75497938130937"><ele>931.0</ele><time>2026-04-25T10:51:18Z</time></trkpt><trkpt lat="46.070054552172344" lon="8.755173882128767"><ele>931.0</ele><time>2026-04-25T10:51:19Z</time></trkpt><trkpt lat="46.07002286365507" lon="8.755405485102862"><ele>931.0</ele><time>2026-04-25T10:51:20Z</time></trkpt><trkpt lat="46.069987705713096" lon="8.755667515359713"><ele>929.3333333333333</ele><time>2026-04-25T10:51:21Z</time></trkpt><trkpt lat="46.069951834616845" lon="8.75591424056767"><ele>927.6666666666667</ele><time>2026-04-25T10:51:22Z</time></trkpt><trkpt lat="46.06990602893912" lon="8.756157112512662"><ele>926.0</ele><time>2026-04-25T10:51:23Z</time></trkpt><trkpt lat="46.06984543576407" lon="8.756388129640206"><ele>926.0</ele><time>2026-04-25T10:51:24Z</time></trkpt><trkpt lat="46.069766875916244" lon="8.756573433541575"><ele>926.0</ele><time>2026-04-25T10:51:25Z</time></trkpt><trkpt lat="46.06971020505631" lon="8.756739855311517"><ele>926.0</ele><time>2026-04-25T10:51:26Z</time></trkpt><trkpt lat="46.069684406301356" lon="8.756873225699191"><ele>926.0</ele><time>2026-04-25T10:51:27Z</time></trkpt><trkpt lat="46.069663767438456" lon="8.756976945538668"><ele>930.1999999999999</ele><time>2026-04-25T10:51:28Z</time></trkpt><trkpt lat="46.06959183091826" lon="8.75708554307349"><ele>934.3999999999999</ele><time>2026-04-25T10:51:30Z</time></trkpt><trkpt lat="46.0695159037579" lon="8.75703016946736"><ele>938.6</ele><time>2026-04-25T10:51:31Z</time></trkpt><trkpt lat="46.06943056042898" lon="8.757070867368686"><ele>942.8</ele><time>2026-04-25T10:51:32Z</time></trkpt><trkpt lat="46.06933785702823" lon="8.757181264479634"><ele>947.0</ele><time>2026-04-25T10:51:33Z</time></trkpt><trkpt lat="46.06925028761575" lon="8.757313129647475"><ele>947.0</ele><time>2026-04-25T10:51:34Z</time></trkpt><trkpt lat="46.069171892089685" lon="8.757483642750614"><ele>947.0</ele><time>2026-04-25T10:51:35Z</time></trkpt><trkpt lat="46.069051537003" lon="8.75763108315356"><ele>947.0</ele><time>2026-04-25T10:51:36Z</time></trkpt><trkpt lat="46.06894496657051" lon="8.757791402413844"><ele>944.75</ele><time>2026-04-25T10:51:37Z</time></trkpt><trkpt lat="46.06884047719499" lon="8.757963653942255"><ele>942.5</ele><time>2026-04-25T10:51:38Z</time></trkpt><trkpt lat="46.06877881688484" lon="8.758146060161376"><ele>940.25</ele><time>2026-04-25T10:51:39Z</time></trkpt><trkpt lat="46.06872630580011" lon="8.758292359508221"><ele>938.0</ele><time>2026-04-25T10:51:40Z</time></trkpt><trkpt lat="46.06860985959852" lon="8.758324027920159"><ele>938.0</ele><time>2026-04-25T10:51:41Z</time></trkpt><trkpt lat="46.068527255643964" lon="8.758464614721802"><ele>938.0</ele><time>2026-04-25T10:51:43Z</time></trkpt><trkpt lat="46.06848035905357" lon="8.75856256230289"><ele>938.0</ele><time>2026-04-25T10:51:44Z</time></trkpt><trkpt lat="46.06846070317193" lon="8.758711045242121"><ele>938.0</ele><time>2026-04-25T10:51:45Z</time></trkpt><trkpt lat="46.06848923218469" lon="8.75886372434507"><ele>938.0</ele><time>2026-04-25T10:51:46Z</time></trkpt><trkpt lat="46.06848801573701" lon="8.75898662825238"><ele>944.0</ele><time>2026-04-25T10:51:47Z</time></trkpt><trkpt lat="46.068401097148005" lon="8.759037315350596"><ele>950.0</ele><time>2026-04-25T10:51:48Z</time></trkpt><trkpt lat="46.06836000846406" lon="8.759140068945163"><ele>956.0</ele><time>2026-04-25T10:51:49Z</time></trkpt><trkpt lat="46.06831914806075" lon="8.759259832600273"><ele>962.0</ele><time>2026-04-25T10:51:50Z</time></trkpt><trkpt lat="46.068264117125544" lon="8.759376772079777"><ele>968.0</ele><time>2026-04-25T10:51:51Z</time></trkpt><trkpt lat="46.068177590171764" lon="8.759417252945001"><ele>968.2</ele><time>2026-04-25T10:51:52Z</time></trkpt><trkpt lat="46.06812456851802" lon="8.759502111870473"><ele>968.4</ele><time>2026-04-25T10:51:53Z</time></trkpt><trkpt lat="46.06805252886983" lon="8.759594047163759"><ele>968.6000000000001</ele><time>2026-04-25T10:51:54Z</time></trkpt><trkpt lat="46.06796468033255" lon="8.759675516516127"><ele>968.8000000000001</ele><time>2026-04-25T10:51:55Z</time></trkpt><trkpt lat="46.06786467414442" lon="8.759760687173905"><ele>969.0</ele><time>2026-04-25T10:51:56Z</time></trkpt><trkpt lat="46.067765230103845" lon="8.759852249844764"><ele>969.0</ele><time>2026-04-25T10:51:57Z</time></trkpt><trkpt lat="46.0676639093558" lon="8.759941759134403"><ele>969.0</ele><time>2026-04-25T10:51:58Z</time></trkpt><trkpt lat="46.0675751136521" lon="8.760047224327511"><ele>969.0</ele><time>2026-04-25T10:51:59Z</time></trkpt><trkpt lat="46.06746303145451" lon="8.760204863120899"><ele>969.0</ele><time>2026-04-25T10:52:00Z</time></trkpt><trkpt lat="46.06736390374626" lon="8.760338229745972"><ele>971.4000000000001</ele><time>2026-04-25T10:52:01Z</time></trkpt><trkpt lat="46.06727284313037" lon="8.760486326568104"><ele>973.8000000000001</ele><time>2026-04-25T10:52:02Z</time></trkpt><trkpt lat="46.06719138831081" lon="8.760588971785353"><ele>976.1999999999999</ele><time>2026-04-25T10:52:03Z</time></trkpt><trkpt lat="46.067094558121774" lon="8.76058967880761"><ele>978.5999999999999</ele><time>2026-04-25T10:52:04Z</time></trkpt><trkpt lat="46.06700987117296" lon="8.760648781270069"><ele>981.0</ele><time>2026-04-25T10:52:05Z</time></trkpt><trkpt lat="46.06691253089677" lon="8.760748638233993"><ele>981.0</ele><time>2026-04-25T10:52:06Z</time></trkpt><trkpt lat="46.06680782227079" lon="8.760869011319693"><ele>981.0</ele><time>2026-04-25T10:52:07Z</time></trkpt><trkpt lat="46.06668292705371" lon="8.761005633284487"><ele>981.0</ele><time>2026-04-25T10:52:08Z</time></trkpt><trkpt lat="46.066580417040704" lon="8.761204961636896"><ele>980.6666666666667</ele><time>2026-04-25T10:52:09Z</time></trkpt><trkpt lat="46.06643800509322" lon="8.761365533596159"><ele>980.3333333333334</ele><time>2026-04-25T10:52:10Z</time></trkpt><trkpt lat="46.06631662767944" lon="8.761531913216398"><ele>980.0</ele><time>2026-04-25T10:52:11Z</time></trkpt><trkpt lat="46.06621572350728" lon="8.761665554676187"><ele>980.0000000000001</ele><time>2026-04-25T10:52:12Z</time></trkpt><trkpt lat="46.06615937413646" lon="8.761759214547485"><ele>980.0</ele><time>2026-04-25T10:52:13Z</time></trkpt><trkpt lat="46.066072385146924" lon="8.761838433786213"><ele>980.0</ele><time>2026-04-25T10:52:15Z</time></trkpt><trkpt lat="46.066004797252894" lon="8.761925504166259"><ele>980.0</ele><time>2026-04-25T10:52:17Z</time></trkpt><trkpt lat="46.066053807646114" lon="8.762038975376885"><ele>980.0000000000001</ele><time>2026-04-25T10:52:19Z</time></trkpt><trkpt lat="46.06612546899615" lon="8.762026472382354"><ele>980.0</ele><time>2026-04-25T10:52:20Z</time></trkpt><trkpt lat="46.06620089359871" lon="8.76195037703387"><ele>980.0</ele><time>2026-04-25T10:52:21Z</time></trkpt><trkpt lat="46.06629454780948" lon="8.761862436542257"><ele>980.0</ele><time>2026-04-25T10:52:22Z</time></trkpt><trkpt lat="46.066428494580904" lon="8.761780893979811"><ele>980.0</ele><time>2026-04-25T10:52:23Z</time></trkpt><trkpt lat="46.066584091811244" lon="8.761695673177048"><ele>980.0</ele><time>2026-04-25T10:52:24Z</time></trkpt><trkpt lat="46.06673860838343" lon="8.761610642177732"><ele>986.2</ele><time>2026-04-25T10:52:25Z</time></trkpt><trkpt lat="46.06688125161814" lon="8.76153625858166"><ele>992.4</ele><time>2026-04-25T10:52:26Z</time></trkpt><trkpt lat="46.06698958726041" lon="8.761483902254255"><ele>998.5999999999999</ele><time>2026-04-25T10:52:27Z</time></trkpt><trkpt lat="46.06706490149523" lon="8.76144641360164"><ele>1004.8</ele><time>2026-04-25T10:52:28Z</time></trkpt><trkpt lat="46.06714163368818" lon="8.761471886957873"><ele>1011.0</ele><time>2026-04-25T10:52:31Z</time></trkpt><trkpt lat="46.0670817392106" lon="8.761588370940888"><ele>1011.0</ele><time>2026-04-25T10:52:33Z</time></trkpt><trkpt lat="46.06697899576834" lon="8.761584508138625"><ele>1011.0</ele><time>2026-04-25T10:52:34Z</time></trkpt><trkpt lat="46.066870928185416" lon="8.761663747166194"><ele>1011.0</ele><time>2026-04-25T10:52:35Z</time></trkpt><trkpt lat="46.066742235402664" lon="8.761796186876957"><ele>1011.0</ele><time>2026-04-25T10:52:36Z</time></trkpt><trkpt lat="46.066595575916544" lon="8.761976347618663"><ele>1011.0</ele><time>2026-04-25T10:52:37Z</time></trkpt><trkpt lat="46.06645298052961" lon="8.76214526375485"><ele>1011.0</ele><time>2026-04-25T10:52:38Z</time></trkpt><trkpt lat="46.06631741537967" lon="8.762294213787"><ele>1011.0</ele><time>2026-04-25T10:52:39Z</time></trkpt><trkpt lat="46.06620246100764" lon="8.762427642029138"><ele>1011.0</ele><time>2026-04-25T10:52:40Z</time></trkpt><trkpt lat="46.066106224770444" lon="8.76254334835986"><ele>1010.9999999999999</ele><time>2026-04-25T10:52:41Z</time></trkpt><trkpt lat="46.066029519863" lon="8.76264663684389"><ele>1010.9999999999999</ele><time>2026-04-25T10:52:42Z</time></trkpt><trkpt lat="46.06597560683266" lon="8.762761637592602"><ele>1011.0</ele><time>2026-04-25T10:52:43Z</time></trkpt><trkpt lat="46.06593775925285" lon="8.762904100830987"><ele>1011.0</ele><time>2026-04-25T10:52:44Z</time></trkpt><trkpt lat="46.06591877809425" lon="8.763079840545112"><ele>1011.5</ele><time>2026-04-25T10:52:45Z</time></trkpt><trkpt lat="46.06588537830747" lon="8.76325742204053"><ele>1012.0</ele><time>2026-04-25T10:52:46Z</time></trkpt><trkpt lat="46.0658355682153" lon="8.763414358127987"><ele>1012.5</ele><time>2026-04-25T10:52:47Z</time></trkpt><trkpt lat="46.065784481059104" lon="8.763569166165599"><ele>1013.0</ele><time>2026-04-25T10:52:48Z</time></trkpt><trkpt lat="46.06570538060121" lon="8.763726065521448"><ele>1013.0</ele><time>2026-04-25T10:52:49Z</time></trkpt><trkpt lat="46.06560198479936" lon="8.763839020127376"><ele>1013.0</ele><time>2026-04-25T10:52:50Z</time></trkpt><trkpt lat="46.065531114158944" lon="8.763954082143844"><ele>1013.0</ele><time>2026-04-25T10:52:51Z</time></trkpt><trkpt lat="46.06546561653374" lon="8.764025267665705"><ele>1013.0</ele><time>2026-04-25T10:52:52Z</time></trkpt><trkpt lat="46.06543770922924" lon="8.764169522259659"><ele>1013.0</ele><time>2026-04-25T10:52:54Z</time></trkpt><trkpt lat="46.06552516538692" lon="8.764255708240835"><ele>1013.0</ele><time>2026-04-25T10:52:56Z</time></trkpt><trkpt lat="46.06557975175882" lon="8.764185528469765"><ele>1013.0</ele><time>2026-04-25T10:52:57Z</time></trkpt><trkpt lat="46.06560671912762" lon="8.764097170462021"><ele>1013.0</ele><time>2026-04-25T10:52:58Z</time></trkpt><trkpt lat="46.06565142153412" lon="8.763992287435"><ele>1013.0</ele><time>2026-04-25T10:52:59Z</time></trkpt><trkpt lat="46.06575305961075" lon="8.76391910783477"><ele>1013.0</ele><time>2026-04-25T10:53:00Z</time></trkpt><trkpt lat="46.065855022929696" lon="8.763789516345772"><ele>1019.3333333333334</ele><time>2026-04-25T10:53:01Z</time></trkpt><trkpt lat="46.06598644016463" lon="8.763639192951906"><ele>1025.6666666666667</ele><time>2026-04-25T10:53:02Z</time></trkpt><trkpt lat="46.06611196360519" lon="8.763475433870926"><ele>1032.0</ele><time>2026-04-25T10:53:03Z</time></trkpt><trkpt lat="46.06620364170658" lon="8.763334655236156"><ele>1032.0</ele><time>2026-04-25T10:53:04Z</time></trkpt><trkpt lat="46.066285653094845" lon="8.763230405860973"><ele>1032.0</ele><time>2026-04-25T10:53:05Z</time></trkpt><trkpt lat="46.06637430524077" lon="8.763139799513327"><ele>1032.0</ele><time>2026-04-25T10:53:06Z</time></trkpt><trkpt lat="46.066485224364655" lon="8.763045810013415"><ele>1032.0</ele><time>2026-04-25T10:53:07Z</time></trkpt><trkpt lat="46.066604313065056" lon="8.762981322076705"><ele>1034.2</ele><time>2026-04-25T10:53:08Z</time></trkpt><trkpt lat="46.066719971227954" lon="8.762922422630519"><ele>1036.4</ele><time>2026-04-25T10:53:09Z</time></trkpt><trkpt lat="46.066843647231934" lon="8.762865994858148"><ele>1038.6</ele><time>2026-04-25T10:53:10Z</time></trkpt><trkpt lat="46.06693645516464" lon="8.762796627011365"><ele>1040.8</ele><time>2026-04-25T10:53:11Z</time></trkpt><trkpt lat="46.06700213846277" lon="8.762720826287532"><ele>1043.0</ele><time>2026-04-25T10:53:12Z</time></trkpt><trkpt lat="46.06706574911805" lon="8.762662785569892"><ele>1048.0</ele><time>2026-04-25T10:53:14Z</time></trkpt><trkpt lat="46.06710661972238" lon="8.76276104155974"><ele>1053.0</ele><time>2026-04-25T10:53:17Z</time></trkpt><trkpt lat="46.06704533072595" lon="8.762804300493992"><ele>1058.0</ele><time>2026-04-25T10:53:18Z</time></trkpt><trkpt lat="46.066960004106754" lon="8.762864093493226"><ele>1063.0</ele><time>2026-04-25T10:53:19Z</time></trkpt><trkpt lat="46.06686502919039" lon="8.762994370221419"><ele>1068.0</ele><time>2026-04-25T10:53:20Z</time></trkpt><trkpt lat="46.06676480677496" lon="8.763137911280998"><ele>1068.0</ele><time>2026-04-25T10:53:21Z</time></trkpt><trkpt lat="46.06666718909824" lon="8.763299706224803"><ele>1068.0</ele><time>2026-04-25T10:53:22Z</time></trkpt><trkpt lat="46.066567158334124" lon="8.763499747312146"><ele>1068.0</ele><time>2026-04-25T10:53:23Z</time></trkpt><trkpt lat="46.066481858825355" lon="8.763702264222141"><ele>1063.0</ele><time>2026-04-25T10:53:24Z</time></trkpt><trkpt lat="46.066398545069816" lon="8.763913321523974"><ele>1058.0</ele><time>2026-04-25T10:53:25Z</time></trkpt><trkpt lat="46.066314310031224" lon="8.764123521676527"><ele>1053.0</ele><time>2026-04-25T10:53:26Z</time></trkpt><trkpt lat="46.06624278277507" lon="8.764297644838672"><ele>1057.0</ele><time>2026-04-25T10:53:27Z</time></trkpt><trkpt lat="46.06619153572803" lon="8.764455447301804"><ele>1061.0</ele><time>2026-04-25T10:53:28Z</time></trkpt><trkpt lat="46.06616899671622" lon="8.764624589309616"><ele>1065.0</ele><time>2026-04-25T10:53:29Z</time></trkpt><trkpt lat="46.06614009271368" lon="8.764761602211937"><ele>1069.0</ele><time>2026-04-25T10:53:30Z</time></trkpt><trkpt lat="46.06612129528546" lon="8.764878990765355"><ele>1073.0</ele><time>2026-04-25T10:53:31Z</time></trkpt><trkpt lat="46.066028225343274" lon="8.764912214137054"><ele>1073.0</ele><time>2026-04-25T10:53:32Z</time></trkpt><trkpt lat="46.065955752335924" lon="8.765008847594196"><ele>1073.0</ele><time>2026-04-25T10:53:33Z</time></trkpt><trkpt lat="46.06589004487602" lon="8.76513488479161"><ele>1073.0</ele><time>2026-04-25T10:53:34Z</time></trkpt><trkpt lat="46.06583793514924" lon="8.765277674955122"><ele>1073.0</ele><time>2026-04-25T10:53:35Z</time></trkpt><trkpt lat="46.06580448508325" lon="8.765430009986881"><ele>1073.0</ele><time>2026-04-25T10:53:36Z</time></trkpt><trkpt lat="46.065773264941896" lon="8.765568601320785"><ele>1069.8333333333335</ele><time>2026-04-25T10:53:37Z</time></trkpt><trkpt lat="46.06576594587172" lon="8.765679562136844"><ele>1066.6666666666667</ele><time>2026-04-25T10:53:38Z</time></trkpt><trkpt lat="46.06577153311952" lon="8.765781419925535"><ele>1063.5</ele><time>2026-04-25T10:53:39Z</time></trkpt><trkpt lat="46.065729560910725" lon="8.765875738871642"><ele>1060.3333333333333</ele><time>2026-04-25T10:53:40Z</time></trkpt><trkpt lat="46.06568697909917" lon="8.76596981985645"><ele>1057.1666666666665</ele><time>2026-04-25T10:53:41Z</time></trkpt><trkpt lat="46.0656427782882" lon="8.766076820630902"><ele>1054.0</ele><time>2026-04-25T10:53:42Z</time></trkpt><trkpt lat="46.0656194753115" lon="8.766199090139612"><ele>1054.0</ele><time>2026-04-25T10:53:43Z</time></trkpt><trkpt lat="46.065576601041805" lon="8.76630584314533"><ele>1054.0</ele><time>2026-04-25T10:53:44Z</time></trkpt><trkpt lat="46.065534955685955" lon="8.766392442497496"><ele>1054.0</ele><time>2026-04-25T10:53:45Z</time></trkpt><trkpt lat="46.06551062645421" lon="8.76649897505085"><ele>1054.0</ele><time>2026-04-25T10:53:47Z</time></trkpt><trkpt lat="46.06548665905878" lon="8.766622310812052"><ele>1054.0</ele><time>2026-04-25T10:53:50Z</time></trkpt><trkpt lat="46.065589566115484" lon="8.766642630061934"><ele>1054.0</ele><time>2026-04-25T10:53:52Z</time></trkpt><trkpt lat="46.065665755113734" lon="8.766465077748812"><ele>1054.0</ele><time>2026-04-25T10:53:54Z</time></trkpt><trkpt lat="46.065711694041305" lon="8.766339073487158"><ele>1054.0</ele><time>2026-04-25T10:53:55Z</time></trkpt><trkpt lat="46.06575465916355" lon="8.766194694354601"><ele>1054.0</ele><time>2026-04-25T10:53:56Z</time></trkpt><trkpt lat="46.06584082360275" lon="8.766048573200303"><ele>1054.0</ele><time>2026-04-25T10:53:57Z</time></trkpt><trkpt lat="46.06594058423244" lon="8.765903864759105"><ele>1060.6000000000001</ele><time>2026-04-25T10:53:58Z</time></trkpt><trkpt lat="46.06599285249164" lon="8.765720605232769"><ele>1067.2</ele><time>2026-04-25T10:53:59Z</time></trkpt><trkpt lat="46.066048763703094" lon="8.765557043589805"><ele>1073.8000000000002</ele><time>2026-04-25T10:54:00Z</time></trkpt><trkpt lat="46.06611433916354" lon="8.765443108721708"><ele>1080.4</ele><time>2026-04-25T10:54:01Z</time></trkpt><trkpt lat="46.06615658976165" lon="8.765363451481859"><ele>1087.0</ele><time>2026-04-25T10:54:02Z</time></trkpt><trkpt lat="46.0662253686219" lon="8.765326652817166"><ele>1087.0</ele><time>2026-04-25T10:54:04Z</time></trkpt><trkpt lat="46.06624417634899" lon="8.765471679785579"><ele>1087.0</ele><time>2026-04-25T10:54:06Z</time></trkpt><trkpt lat="46.06615923320302" lon="8.765547531691306"><ele>1087.0</ele><time>2026-04-25T10:54:07Z</time></trkpt><trkpt lat="46.06611368744914" lon="8.765682424891835"><ele>1087.0</ele><time>2026-04-25T10:54:08Z</time></trkpt><trkpt lat="46.06610010000627" lon="8.765884983694344"><ele>1087.0</ele><time>2026-04-25T10:54:09Z</time></trkpt><trkpt lat="46.06605847197351" lon="8.766103349526563"><ele>1088.75</ele><time>2026-04-25T10:54:10Z</time></trkpt><trkpt lat="46.06599468444977" lon="8.766307635304045"><ele>1090.5</ele><time>2026-04-25T10:54:11Z</time></trkpt><trkpt lat="46.06594890960547" lon="8.76650700581729"><ele>1092.25</ele><time>2026-04-25T10:54:12Z</time></trkpt><trkpt lat="46.065906553737335" lon="8.766711693571208"><ele>1094.0</ele><time>2026-04-25T10:54:13Z</time></trkpt><trkpt lat="46.065916580131514" lon="8.76694721473538"><ele>1094.0</ele><time>2026-04-25T10:54:14Z</time></trkpt><trkpt lat="46.065911524670966" lon="8.76712672657459"><ele>1094.0</ele><time>2026-04-25T10:54:15Z</time></trkpt><trkpt lat="46.06591324879741" lon="8.767280881598346"><ele>1094.0</ele><time>2026-04-25T10:54:16Z</time></trkpt><trkpt lat="46.06592851142272" lon="8.767455238990925"><ele>1094.0</ele><time>2026-04-25T10:54:17Z</time></trkpt><trkpt lat="46.065977331895375" lon="8.767617586688381"><ele>1094.0</ele><time>2026-04-25T10:54:18Z</time></trkpt><trkpt lat="46.066057997919586" lon="8.767782002599105"><ele>1094.0</ele><time>2026-04-25T10:54:19Z</time></trkpt><trkpt lat="46.06615167126446" lon="8.767935438879027"><ele>1094.0</ele><time>2026-04-25T10:54:20Z</time></trkpt><trkpt lat="46.06618823542413" lon="8.768063480946934"><ele>1094.0</ele><time>2026-04-25T10:54:21Z</time></trkpt><trkpt lat="46.066203206835496" lon="8.768205822500951"><ele>1094.0</ele><time>2026-04-25T10:54:22Z</time></trkpt><trkpt lat="46.06617875346947" lon="8.76834580969948"><ele>1094.0</ele><time>2026-04-25T10:54:23Z</time></trkpt><trkpt lat="46.06615203518366" lon="8.768588672795502"><ele>1094.0</ele><time>2026-04-25T10:54:24Z</time></trkpt><trkpt lat="46.06614126130597" lon="8.768816850683566"><ele>1094.0</ele><time>2026-04-25T10:54:25Z</time></trkpt><trkpt lat="46.06612568412652" lon="8.7690370730799"><ele>1094.25</ele><time>2026-04-25T10:54:26Z</time></trkpt><trkpt lat="46.06613603152621" lon="8.769244576710966"><ele>1094.5</ele><time>2026-04-25T10:54:27Z</time></trkpt><trkpt lat="46.06616546088086" lon="8.769450521133278"><ele>1094.75</ele><time>2026-04-25T10:54:28Z</time></trkpt><trkpt lat="46.066214096009" lon="8.769623847413607"><ele>1095.0</ele><time>2026-04-25T10:54:29Z</time></trkpt><trkpt lat="46.06626547405335" lon="8.769747575797702"><ele>1095.0</ele><time>2026-04-25T10:54:30Z</time></trkpt><trkpt lat="46.06636011568467" lon="8.769893336287394"><ele>1095.0</ele><time>2026-04-25T10:54:31Z</time></trkpt><trkpt lat="46.06642366403718" lon="8.769960710355665"><ele>1095.0</ele><time>2026-04-25T10:54:32Z</time></trkpt><trkpt lat="46.06651652332228" lon="8.77001060692895"><ele>1095.0</ele><time>2026-04-25T10:54:33Z</time></trkpt><trkpt lat="46.06653158093055" lon="8.770110654710038"><ele>1095.0</ele><time>2026-04-25T10:54:34Z</time></trkpt><trkpt lat="46.06642882084077" lon="8.770226641958672"><ele>1094.0</ele><time>2026-04-25T10:54:36Z</time></trkpt><trkpt lat="46.06637406712123" lon="8.770320288879871"><ele>1093.0</ele><time>2026-04-25T10:54:37Z</time></trkpt><trkpt lat="46.06632589111621" lon="8.770434946714278"><ele>1092.0</ele><time>2026-04-25T10:54:38Z</time></trkpt><trkpt lat="46.066322609572325" lon="8.770589226330987"><ele>1091.0</ele><time>2026-04-25T10:54:39Z</time></trkpt><trkpt lat="46.06634409600506" lon="8.770742977305924"><ele>1090.0</ele><time>2026-04-25T10:54:40Z</time></trkpt><trkpt lat="46.06639639311681" lon="8.770893216059957"><ele>1089.0</ele><time>2026-04-25T10:54:41Z</time></trkpt><trkpt lat="46.066489328745554" lon="8.771035625725043"><ele>1088.0</ele><time>2026-04-25T10:54:42Z</time></trkpt><trkpt lat="46.06657984164647" lon="8.771183731128117"><ele>1087.0</ele><time>2026-04-25T10:54:43Z</time></trkpt><trkpt lat="46.06660399851564" lon="8.771365334944646"><ele>1086.0</ele><time>2026-04-25T10:54:44Z</time></trkpt><trkpt lat="46.066656257805825" lon="8.771519984377315"><ele>1093.25</ele><time>2026-04-25T10:54:45Z</time></trkpt><trkpt lat="46.06670305580283" lon="8.771681720944791"><ele>1100.5</ele><time>2026-04-25T10:54:46Z</time></trkpt><trkpt lat="46.066791785179596" lon="8.77183830584992"><ele>1107.75</ele><time>2026-04-25T10:54:47Z</time></trkpt><trkpt lat="46.06688106909552" lon="8.77199906805066"><ele>1115.0</ele><time>2026-04-25T10:54:48Z</time></trkpt><trkpt lat="46.06697177219661" lon="8.772140458903959"><ele>1115.0</ele><time>2026-04-25T10:54:49Z</time></trkpt><trkpt lat="46.067065527075115" lon="8.772272057009136"><ele>1115.0</ele><time>2026-04-25T10:54:50Z</time></trkpt><trkpt lat="46.067164711277606" lon="8.772380167097781"><ele>1115.0</ele><time>2026-04-25T10:54:51Z</time></trkpt><trkpt lat="46.06726981571517" lon="8.772447187943268"><ele>1115.0</ele><time>2026-04-25T10:54:52Z</time></trkpt><trkpt lat="46.067374822000616" lon="8.772492743198004"><ele>1122.6666666666667</ele><time>2026-04-25T10:54:53Z</time></trkpt><trkpt lat="46.0675195180345" lon="8.772541301013076"><ele>1130.3333333333333</ele><time>2026-04-25T10:54:54Z</time></trkpt><trkpt lat="46.06768830192567" lon="8.772553763128329"><ele>1138.0</ele><time>2026-04-25T10:54:55Z</time></trkpt><trkpt lat="46.06782686646609" lon="8.772592870564747"><ele>1138.0</ele><time>2026-04-25T10:54:56Z</time></trkpt><trkpt lat="46.06794091961186" lon="8.772626755287494"><ele>1138.0</ele><time>2026-04-25T10:54:57Z</time></trkpt><trkpt lat="46.06803313441327" lon="8.772668757698504"><ele>1138.0</ele><time>2026-04-25T10:54:58Z</time></trkpt><trkpt lat="46.0681059147136" lon="8.772738439578498"><ele>1138.0</ele><time>2026-04-25T10:54:59Z</time></trkpt><trkpt lat="46.06814211562953" lon="8.772861102298172"><ele>1138.0</ele><time>2026-04-25T10:55:00Z</time></trkpt><trkpt lat="46.068205649971475" lon="8.772965977086486"><ele>1138.6</ele><time>2026-04-25T10:55:01Z</time></trkpt><trkpt lat="46.06827898436827" lon="8.773052211279438"><ele>1139.1999999999998</ele><time>2026-04-25T10:55:02Z</time></trkpt><trkpt lat="46.068386011080065" lon="8.773097421334084"><ele>1139.8</ele><time>2026-04-25T10:55:03Z</time></trkpt><trkpt lat="46.06849206439058" lon="8.773095186513324"><ele>1140.3999999999999</ele><time>2026-04-25T10:55:04Z</time></trkpt><trkpt lat="46.068554173792904" lon="8.773147368374053"><ele>1141.0</ele><time>2026-04-25T10:55:05Z</time></trkpt><trkpt lat="46.06857217237739" lon="8.77328705429294"><ele>1141.0</ele><time>2026-04-25T10:55:07Z</time></trkpt><trkpt lat="46.06850395333123" lon="8.773341803943334"><ele>1141.0</ele><time>2026-04-25T10:55:08Z</time></trkpt><trkpt lat="46.068451195503954" lon="8.773442648930853"><ele>1141.0</ele><time>2026-04-25T10:55:09Z</time></trkpt><trkpt lat="46.06842159071809" lon="8.773594278753377"><ele>1141.0</ele><time>2026-04-25T10:55:10Z</time></trkpt><trkpt lat="46.068425549107275" lon="8.773785031330746"><ele>1141.0</ele><time>2026-04-25T10:55:11Z</time></trkpt><trkpt lat="46.06845444773681" lon="8.773993881566808"><ele>1140.0</ele><time>2026-04-25T10:55:12Z</time></trkpt><trkpt lat="46.068490356419346" lon="8.774191153005585"><ele>1139.0</ele><time>2026-04-25T10:55:13Z</time></trkpt><trkpt lat="46.06853891290514" lon="8.774379552149126"><ele>1138.0</ele><time>2026-04-25T10:55:14Z</time></trkpt><trkpt lat="46.06862318652993" lon="8.774571829276331"><ele>1137.0</ele><time>2026-04-25T10:55:15Z</time></trkpt><trkpt lat="46.06873206832385" lon="8.774759892246065"><ele>1135.0</ele><time>2026-04-25T10:55:16Z</time></trkpt><trkpt lat="46.06884046229406" lon="8.77492524625674"><ele>1133.0</ele><time>2026-04-25T10:55:17Z</time></trkpt><trkpt lat="46.06892542502801" lon="8.775053698633053"><ele>1131.0</ele><time>2026-04-25T10:55:18Z</time></trkpt><trkpt lat="46.068950746661415" lon="8.775197796450179"><ele>1129.0</ele><time>2026-04-25T10:55:19Z</time></trkpt><trkpt lat="46.068950307291736" lon="8.775326845987918"><ele>1126.8</ele><time>2026-04-25T10:55:20Z</time></trkpt><trkpt lat="46.06896114013993" lon="8.775477747023873"><ele>1124.6000000000001</ele><time>2026-04-25T10:55:21Z</time></trkpt><trkpt lat="46.06895160687075" lon="8.775592720462582"><ele>1122.4</ele><time>2026-04-25T10:55:22Z</time></trkpt><trkpt lat="46.0690570154112" lon="8.77571430239627"><ele>1120.2</ele><time>2026-04-25T10:55:24Z</time></trkpt><trkpt lat="46.06917464574263" lon="8.775732891896247"><ele>1118.0</ele><time>2026-04-25T10:55:25Z</time></trkpt><trkpt lat="46.069309246730434" lon="8.775776548808787"><ele>1127.3333333333335</ele><time>2026-04-25T10:55:26Z</time></trkpt><trkpt lat="46.069466450818446" lon="8.775830055399982"><ele>1136.6666666666667</ele><time>2026-04-25T10:55:27Z</time></trkpt><trkpt lat="46.06961378550004" lon="8.77590362892713"><ele>1146.0</ele><time>2026-04-25T10:55:28Z</time></trkpt><trkpt lat="46.06976038160259" lon="8.775977835316306"><ele>1145.3333333333333</ele><time>2026-04-25T10:55:29Z</time></trkpt><trkpt lat="46.069907300871115" lon="8.776046433397525"><ele>1144.6666666666665</ele><time>2026-04-25T10:55:30Z</time></trkpt><trkpt lat="46.070060890174766" lon="8.77610036989609"><ele>1144.0</ele><time>2026-04-25T10:55:31Z</time></trkpt><trkpt lat="46.0702170621547" lon="8.77615016162952"><ele>1144.0</ele><time>2026-04-25T10:55:32Z</time></trkpt><trkpt lat="46.07036841121794" lon="8.776212803566322"><ele>1144.0</ele><time>2026-04-25T10:55:33Z</time></trkpt><trkpt lat="46.07051639417819" lon="8.776263988540016"><ele>1144.0</ele><time>2026-04-25T10:55:34Z</time></trkpt><trkpt lat="46.070681518186774" lon="8.776278040599506"><ele>1146.0</ele><time>2026-04-25T10:55:35Z</time></trkpt><trkpt lat="46.07085406835728" lon="8.776272187019302"><ele>1148.0</ele><time>2026-04-25T10:55:36Z</time></trkpt><trkpt lat="46.071000682737605" lon="8.776263189853733"><ele>1150.0</ele><time>2026-04-25T10:55:37Z</time></trkpt><trkpt lat="46.07112179684236" lon="8.77626921762321"><ele>1152.0</ele><time>2026-04-25T10:55:38Z</time></trkpt><trkpt lat="46.0712176349487" lon="8.776293430524445"><ele>1152.0</ele><time>2026-04-25T10:55:39Z</time></trkpt><trkpt lat="46.07130121106944" lon="8.776346709289845"><ele>1152.0</ele><time>2026-04-25T10:55:40Z</time></trkpt><trkpt lat="46.07136478460762" lon="8.77643938258419"><ele>1152.0</ele><time>2026-04-25T10:55:41Z</time></trkpt><trkpt lat="46.07143377772657" lon="8.776579633655162"><ele>1152.0</ele><time>2026-04-25T10:55:42Z</time></trkpt><trkpt lat="46.071515865788314" lon="8.776740286350186"><ele>1152.0</ele><time>2026-04-25T10:55:43Z</time></trkpt><trkpt lat="46.07159788354588" lon="8.776870037342096"><ele>1151.0</ele><time>2026-04-25T10:55:44Z</time></trkpt><trkpt lat="46.07165206403748" lon="8.776971287478176"><ele>1150.0</ele><time>2026-04-25T10:55:45Z</time></trkpt><trkpt lat="46.071732667687655" lon="8.777027226846734"><ele>1149.0</ele><time>2026-04-25T10:55:46Z</time></trkpt><trkpt lat="46.0718340029366" lon="8.777030622965171"><ele>1148.0</ele><time>2026-04-25T10:55:47Z</time></trkpt><trkpt lat="46.071956024083775" lon="8.777005154434098"><ele>1147.0</ele><time>2026-04-25T10:55:48Z</time></trkpt><trkpt lat="46.072076577231" lon="8.77700527693656"><ele>1147.0</ele><time>2026-04-25T10:55:49Z</time></trkpt><trkpt lat="46.07217858328803" lon="8.777079877610461"><ele>1147.0</ele><time>2026-04-25T10:55:50Z</time></trkpt><trkpt lat="46.07225589899252" lon="8.777206495243306"><ele>1147.0</ele><time>2026-04-25T10:55:51Z</time></trkpt><trkpt lat="46.07233651600856" lon="8.777375227006214"><ele>1147.0</ele><time>2026-04-25T10:55:52Z</time></trkpt><trkpt lat="46.072444289838906" lon="8.777563785182366"><ele>1148.6666666666665</ele><time>2026-04-25T10:55:53Z</time></trkpt><trkpt lat="46.07256918711109" lon="8.777745727004858"><ele>1150.3333333333333</ele><time>2026-04-25T10:55:54Z</time></trkpt><trkpt lat="46.07269478184301" lon="8.777910644053557"><ele>1152.0</ele><time>2026-04-25T10:55:55Z</time></trkpt><trkpt lat="46.072804116298386" lon="8.778041267879646"><ele>1152.0</ele><time>2026-04-25T10:55:56Z</time></trkpt><trkpt lat="46.07289727431643" lon="8.778155411989061"><ele>1152.0</ele><time>2026-04-25T10:55:57Z</time></trkpt><trkpt lat="46.07299521664802" lon="8.7782348761883"><ele>1152.0</ele><time>2026-04-25T10:55:58Z</time></trkpt><trkpt lat="46.07310832615389" lon="8.778311948720328"><ele>1152.0</ele><time>2026-04-25T10:55:59Z</time></trkpt><trkpt lat="46.073247924476966" lon="8.778361386940603"><ele>1155.6</ele><time>2026-04-25T10:56:00Z</time></trkpt><trkpt lat="46.07338237400904" lon="8.778392987549745"><ele>1159.2</ele><time>2026-04-25T10:56:01Z</time></trkpt><trkpt lat="46.073489364162214" lon="8.778404847395487"><ele>1162.8</ele><time>2026-04-25T10:56:02Z</time></trkpt><trkpt lat="46.07357819078113" lon="8.778390805704639"><ele>1166.4</ele><time>2026-04-25T10:56:03Z</time></trkpt><trkpt lat="46.073670630443104" lon="8.778334949950226"><ele>1170.0</ele><time>2026-04-25T10:56:04Z</time></trkpt><trkpt lat="46.07376115286614" lon="8.77825570823259"><ele>1170.0</ele><time>2026-04-25T10:56:05Z</time></trkpt><trkpt lat="46.07383814207609" lon="8.778125675006947"><ele>1170.0</ele><time>2026-04-25T10:56:06Z</time></trkpt><trkpt lat="46.07390413254077" lon="8.777977709301652"><ele>1170.0</ele><time>2026-04-25T10:56:07Z</time></trkpt><trkpt lat="46.07395642645295" lon="8.77780447583675"><ele>1170.0</ele><time>2026-04-25T10:56:08Z</time></trkpt><trkpt lat="46.07403748507465" lon="8.77765012495242"><ele>1171.3333333333333</ele><time>2026-04-25T10:56:09Z</time></trkpt><trkpt lat="46.0740775753939" lon="8.777532947812567"><ele>1172.6666666666667</ele><time>2026-04-25T10:56:10Z</time></trkpt><trkpt lat="46.07413534319339" lon="8.777455416192469"><ele>1174.0</ele><time>2026-04-25T10:56:11Z</time></trkpt><trkpt lat="46.07418569059236" lon="8.777388915824945"><ele>1175.3333333333335</ele><time>2026-04-25T10:56:12Z</time></trkpt><trkpt lat="46.07427647036506" lon="8.777343645831557"><ele>1176.6666666666667</ele><time>2026-04-25T10:56:13Z</time></trkpt><trkpt lat="46.07438459265675" lon="8.777375640665182"><ele>1178.0</ele><time>2026-04-25T10:56:14Z</time></trkpt><trkpt lat="46.07449260679583" lon="8.777443307601153"><ele>1178.0</ele><time>2026-04-25T10:56:15Z</time></trkpt><trkpt lat="46.07458441922035" lon="8.777513211066168"><ele>1178.0</ele><time>2026-04-25T10:56:16Z</time></trkpt><trkpt lat="46.07464933823364" lon="8.77758291336609"><ele>1178.0</ele><time>2026-04-25T10:56:17Z</time></trkpt><trkpt lat="46.07470515160125" lon="8.777644300422415"><ele>1178.0</ele><time>2026-04-25T10:56:18Z</time></trkpt><trkpt lat="46.074773498867266" lon="8.777726742305433"><ele>1178.0</ele><time>2026-04-25T10:56:20Z</time></trkpt><trkpt lat="46.07485315757285" lon="8.77765187263723"><ele>1178.0</ele><time>2026-04-25T10:56:23Z</time></trkpt><trkpt lat="46.074953800158006" lon="8.777514913056288"><ele>1178.6</ele><time>2026-04-25T10:56:25Z</time></trkpt><trkpt lat="46.07505718234665" lon="8.777460316273599"><ele>1179.1999999999998</ele><time>2026-04-25T10:56:27Z</time></trkpt><trkpt lat="46.07512986542153" lon="8.777420036602216"><ele>1179.8</ele><time>2026-04-25T10:56:29Z</time></trkpt><trkpt lat="46.07524767561911" lon="8.777418260074183"><ele>1180.3999999999999</ele><time>2026-04-25T10:56:31Z</time></trkpt><trkpt lat="46.075298716217645" lon="8.777482076160293"><ele>1181.0</ele><time>2026-04-25T10:56:32Z</time></trkpt><trkpt lat="46.07537399674521" lon="8.777525240096178"><ele>1181.0</ele><time>2026-04-25T10:56:35Z</time></trkpt><trkpt lat="46.07543375781035" lon="8.777570204180659"><ele>1181.0</ele><time>2026-04-25T10:56:38Z</time></trkpt><trkpt lat="46.07548014280843" lon="8.777648695118426"><ele>1181.0</ele><time>2026-04-25T10:56:41Z</time></trkpt><trkpt lat="46.07555271418502" lon="8.777552498675615"><ele>1181.0</ele><time>2026-04-25T10:56:45Z</time></trkpt><trkpt lat="46.075488583242915" lon="8.777484312569571"><ele>1181.0</ele><time>2026-04-25T10:56:50Z</time></trkpt><trkpt lat="46.075421603354" lon="8.77748430121515"><ele>1181.0</ele><time>2026-04-25T10:57:02Z</time></trkpt></trkseg><trkseg><trkpt lat="46.075045839142454" lon="8.777435173767786"><ele>1181.0</ele><time>2026-04-25T12:58:47Z</time></trkpt><trkpt lat="46.0749684986802" lon="8.7774909146575"><ele>1181.0</ele><time>2026-04-25T12:58:48Z</time></trkpt><trkpt lat="46.07489362056352" lon="8.777540269772317"><ele>1181.0</ele><time>2026-04-25T12:58:49Z</time></trkpt><trkpt lat="46.07483338067315" lon="8.77760478558426"><ele>1181.0</ele><time>2026-04-25T12:58:50Z</time></trkpt><trkpt lat="46.074761905159036" lon="8.777684864170883"><ele>1181.0</ele><time>2026-04-25T12:58:51.999Z</time></trkpt><trkpt lat="46.07476431809361" lon="8.777841472888705"><ele>1181.0</ele><time>2026-04-25T12:58:52.999Z</time></trkpt><trkpt lat="46.07474963178303" lon="8.777943535064692"><ele>1179.1666666666667</ele><time>2026-04-25T12:58:53.999Z</time></trkpt><trkpt lat="46.074737682898046" lon="8.778049210193926"><ele>1177.3333333333335</ele><time>2026-04-25T12:58:54.999Z</time></trkpt><trkpt lat="46.074729298249245" lon="8.778159328724808"><ele>1175.5</ele><time>2026-04-25T12:58:55.999Z</time></trkpt><trkpt lat="46.07472087525437" lon="8.778272168606058"><ele>1173.6666666666667</ele><time>2026-04-25T12:58:56.999Z</time></trkpt><trkpt lat="46.07471203519337" lon="8.778388061657983"><ele>1171.8333333333333</ele><time>2026-04-25T12:58:57.999Z</time></trkpt><trkpt lat="46.07470146242175" lon="8.778503652229022"><ele>1170.0</ele><time>2026-04-25T12:58:58.999Z</time></trkpt><trkpt lat="46.07467989265101" lon="8.778616974516718"><ele>1169.1666666666667</ele><time>2026-04-25T12:58:59.999Z</time></trkpt><trkpt lat="46.07464954547924" lon="8.778726606544609"><ele>1168.3333333333333</ele><time>2026-04-25T12:59:00.999Z</time></trkpt><trkpt lat="46.074638729213525" lon="8.778859355719913"><ele>1167.5</ele><time>2026-04-25T12:59:01.999Z</time></trkpt><trkpt lat="46.07460629947181" lon="8.778959208941265"><ele>1166.6666666666665</ele><time>2026-04-25T12:59:02.999Z</time></trkpt><trkpt lat="46.0745659834646" lon="8.779049532008266"><ele>1165.8333333333333</ele><time>2026-04-25T12:59:03.999Z</time></trkpt><trkpt lat="46.074523158076076" lon="8.779128196922517"><ele>1165.0</ele><time>2026-04-25T12:59:04.999Z</time></trkpt><trkpt lat="46.074478055002544" lon="8.779207822006944"><ele>1164.9999999999998</ele><time>2026-04-25T12:59:05.999Z</time></trkpt><trkpt lat="46.074435795239125" lon="8.779278193317214"><ele>1165.0</ele><time>2026-04-25T12:59:06.999Z</time></trkpt><trkpt lat="46.07440129846197" lon="8.77935738409889"><ele>1165.0</ele><time>2026-04-25T12:59:07.999Z</time></trkpt><trkpt lat="46.07435989298338" lon="8.779434933845767"><ele>1165.0</ele><time>2026-04-25T12:59:08.999Z</time></trkpt><trkpt lat="46.07432401499711" lon="8.779514012416193"><ele>1165.0</ele><time>2026-04-25T12:59:09.999Z</time></trkpt><trkpt lat="46.07427877634511" lon="8.779612026560173"><ele>1164.9999999999998</ele><time>2026-04-25T12:59:10.999Z</time></trkpt><trkpt lat="46.07422680903044" lon="8.779727097960093"><ele>1165.0</ele><time>2026-04-25T12:59:11.999Z</time></trkpt><trkpt lat="46.074164527114725" lon="8.779868070164207"><ele>1158.75</ele><time>2026-04-25T12:59:12.999Z</time></trkpt><trkpt lat="46.074103622298814" lon="8.780013720359957"><ele>1152.5</ele><time>2026-04-25T12:59:13.999Z</time></trkpt><trkpt lat="46.074046654765404" lon="8.780181636019693"><ele>1146.25</ele><time>2026-04-25T12:59:14.999Z</time></trkpt><trkpt lat="46.073997517062494" lon="8.780364759846975"><ele>1140.0</ele><time>2026-04-25T12:59:15.999Z</time></trkpt><trkpt lat="46.07395091837507" lon="8.78052179966521"><ele>1140.0</ele><time>2026-04-25T12:59:16.999Z</time></trkpt><trkpt lat="46.07389422096035" lon="8.780653075282808"><ele>1140.0</ele><time>2026-04-25T12:59:17.999Z</time></trkpt><trkpt lat="46.07382560505706" lon="8.780784363053233"><ele>1140.0</ele><time>2026-04-25T12:59:18.999Z</time></trkpt><trkpt lat="46.073754925081154" lon="8.780908768665482"><ele>1140.0</ele><time>2026-04-25T12:59:19.999Z</time></trkpt><trkpt lat="46.07366067826561" lon="8.780987652874892"><ele>1140.0</ele><time>2026-04-25T12:59:20.999Z</time></trkpt><trkpt lat="46.07359087816268" lon="8.781076686589035"><ele>1140.2</ele><time>2026-04-25T12:59:21.999Z</time></trkpt><trkpt lat="46.073527108952874" lon="8.78115030692292"><ele>1140.4</ele><time>2026-04-25T12:59:22.999Z</time></trkpt><trkpt lat="46.07351759018296" lon="8.781270912801133"><ele>1140.6</ele><time>2026-04-25T12:59:23.999Z</time></trkpt><trkpt lat="46.07352280758813" lon="8.781400487379127"><ele>1140.8</ele><time>2026-04-25T12:59:24.999Z</time></trkpt><trkpt lat="46.073529847672546" lon="8.781557753926123"><ele>1141.0</ele><time>2026-04-25T12:59:25.999Z</time></trkpt><trkpt lat="46.07357214577252" lon="8.781726650762268"><ele>1140.75</ele><time>2026-04-25T12:59:26.999Z</time></trkpt><trkpt lat="46.07359842119711" lon="8.781902774791252"><ele>1140.5</ele><time>2026-04-25T12:59:27.999Z</time></trkpt><trkpt lat="46.073567882200436" lon="8.78206955564369"><ele>1140.25</ele><time>2026-04-25T12:59:28.999Z</time></trkpt><trkpt lat="46.073550615555575" lon="8.782241586325066"><ele>1140.0</ele><time>2026-04-25T12:59:29.999Z</time></trkpt><trkpt lat="46.073501401228114" lon="8.782394167838536"><ele>1140.0</ele><time>2026-04-25T12:59:30.999Z</time></trkpt><trkpt lat="46.07345290669936" lon="8.782518329451388"><ele>1140.0</ele><time>2026-04-25T12:59:31.999Z</time></trkpt><trkpt lat="46.0734241172917" lon="8.782621819536569"><ele>1140.0</ele><time>2026-04-25T12:59:32.999Z</time></trkpt><trkpt lat="46.07343405684478" lon="8.782735807079836"><ele>1140.0</ele><time>2026-04-25T12:59:33.999Z</time></trkpt><trkpt lat="46.07350387070204" lon="8.78283004686106"><ele>1140.0</ele><time>2026-04-25T12:59:34.999Z</time></trkpt><trkpt lat="46.07353797118371" lon="8.782938029875552"><ele>1140.0</ele><time>2026-04-25T12:59:35.999Z</time></trkpt><trkpt lat="46.0735334098722" lon="8.783063400717447"><ele>1139.5</ele><time>2026-04-25T12:59:36.999Z</time></trkpt><trkpt lat="46.073463958731" lon="8.783161591226783"><ele>1139.0</ele><time>2026-04-25T12:59:37.999Z</time></trkpt><trkpt lat="46.073383735844764" lon="8.78325396645778"><ele>1138.5</ele><time>2026-04-25T12:59:38.999Z</time></trkpt><trkpt lat="46.073292152383964" lon="8.7833851176355"><ele>1138.0</ele><time>2026-04-25T12:59:39.999Z</time></trkpt><trkpt lat="46.073199242359955" lon="8.783533683294616"><ele>1131.8333333333333</ele><time>2026-04-25T12:59:40.999Z</time></trkpt><trkpt lat="46.073126320233925" lon="8.783653825069706"><ele>1125.6666666666665</ele><time>2026-04-25T12:59:41.999Z</time></trkpt><trkpt lat="46.07307132766209" lon="8.783756455295963"><ele>1119.5</ele><time>2026-04-25T12:59:42.999Z</time></trkpt><trkpt lat="46.07303435672891" lon="8.783844309233945"><ele>1113.3333333333333</ele><time>2026-04-25T12:59:43.999Z</time></trkpt><trkpt lat="46.07302492094601" lon="8.78394678887396"><ele>1107.1666666666667</ele><time>2026-04-25T12:59:44.999Z</time></trkpt><trkpt lat="46.07305266688609" lon="8.784070517134984"><ele>1101.0</ele><time>2026-04-25T12:59:45.999Z</time></trkpt><trkpt lat="46.073100447833355" lon="8.784211161788065"><ele>1100.2</ele><time>2026-04-25T12:59:46.999Z</time></trkpt><trkpt lat="46.07314067950957" lon="8.784358440007992"><ele>1099.3999999999999</ele><time>2026-04-25T12:59:47.999Z</time></trkpt><trkpt lat="46.0731520640787" lon="8.784512901466211"><ele>1098.6</ele><time>2026-04-25T12:59:48.999Z</time></trkpt><trkpt lat="46.07313378375828" lon="8.784632298909147"><ele>1097.8</ele><time>2026-04-25T12:59:49.999Z</time></trkpt><trkpt lat="46.07312240349024" lon="8.784744776172811"><ele>1097.0</ele><time>2026-04-25T12:59:50.999Z</time></trkpt><trkpt lat="46.07302960679556" lon="8.784866102387673"><ele>1097.0</ele><time>2026-04-25T12:59:52.999Z</time></trkpt><trkpt lat="46.072960107930896" lon="8.784883736141564"><ele>1097.0</ele><time>2026-04-25T12:59:53.999Z</time></trkpt><trkpt lat="46.07290487731313" lon="8.784802341191297"><ele>1097.0</ele><time>2026-04-25T12:59:54.999Z</time></trkpt><trkpt lat="46.072820117245705" lon="8.784678695865058"><ele>1097.0</ele><time>2026-04-25T12:59:56.999Z</time></trkpt><trkpt lat="46.072804177935375" lon="8.784499434752979"><ele>1097.0</ele><time>2026-04-25T12:59:59Z</time></trkpt><trkpt lat="46.07286888579178" lon="8.784415730341422"><ele>1097.8</ele><time>2026-04-25T13:00:00Z</time></trkpt><trkpt lat="46.07288518154099" lon="8.78430618068943"><ele>1098.6</ele><time>2026-04-25T13:00:01Z</time></trkpt><trkpt lat="46.07285386779747" lon="8.784168058687097"><ele>1099.3999999999999</ele><time>2026-04-25T13:00:02Z</time></trkpt><trkpt lat="46.07278860794074" lon="8.784055186836943"><ele>1100.2</ele><time>2026-04-25T13:00:03Z</time></trkpt><trkpt lat="46.07274520103216" lon="8.783927516150996"><ele>1101.0</ele><time>2026-04-25T13:00:04Z</time></trkpt><trkpt lat="46.072732252663094" lon="8.78381447997955"><ele>1101.0</ele><time>2026-04-25T13:00:05Z</time></trkpt><trkpt lat="46.072739240882065" lon="8.783692635842733"><ele>1101.0</ele><time>2026-04-25T13:00:06Z</time></trkpt><trkpt lat="46.07274768787259" lon="8.783570952492854"><ele>1101.0</ele><time>2026-04-25T13:00:07Z</time></trkpt><trkpt lat="46.07276669895804" lon="8.78345368988603"><ele>1101.0</ele><time>2026-04-25T13:00:08Z</time></trkpt><trkpt lat="46.07277358942351" lon="8.783344978069964"><ele>1101.0</ele><time>2026-04-25T13:00:09Z</time></trkpt><trkpt lat="46.072810840886774" lon="8.783212668744655"><ele>1101.0</ele><time>2026-04-25T13:00:11Z</time></trkpt><trkpt lat="46.07269204172194" lon="8.783144638967313"><ele>1101.0</ele><time>2026-04-25T13:00:13Z</time></trkpt><trkpt lat="46.07264029450068" lon="8.783237970208786"><ele>1101.0</ele><time>2026-04-25T13:00:14Z</time></trkpt><trkpt lat="46.07259531309081" lon="8.783433092598502"><ele>1101.0</ele><time>2026-04-25T13:00:16Z</time></trkpt><trkpt lat="46.072574780352475" lon="8.783579881722286"><ele>1101.0</ele><time>2026-04-25T13:00:17Z</time></trkpt><trkpt lat="46.07255512798088" lon="8.783743577367265"><ele>1101.0</ele><time>2026-04-25T13:00:18Z</time></trkpt><trkpt lat="46.07253549501328" lon="8.783892323987471"><ele>1101.0</ele><time>2026-04-25T13:00:19Z</time></trkpt><trkpt lat="46.07248928450066" lon="8.784012559843308"><ele>1101.0</ele><time>2026-04-25T13:00:20Z</time></trkpt><trkpt lat="46.07242161812685" lon="8.784142913815836"><ele>1101.0</ele><time>2026-04-25T13:00:21Z</time></trkpt><trkpt lat="46.07233957687425" lon="8.78426357872078"><ele>1101.0</ele><time>2026-04-25T13:00:22Z</time></trkpt><trkpt lat="46.07229270218112" lon="8.784431718589815"><ele>1093.75</ele><time>2026-04-25T13:00:23Z</time></trkpt><trkpt lat="46.07225442858488" lon="8.78461726293549"><ele>1086.5</ele><time>2026-04-25T13:00:24Z</time></trkpt><trkpt lat="46.07221683560549" lon="8.784803920990392"><ele>1079.25</ele><time>2026-04-25T13:00:25Z</time></trkpt><trkpt lat="46.07216823413098" lon="8.78500962784879"><ele>1072.0</ele><time>2026-04-25T13:00:26Z</time></trkpt><trkpt lat="46.072135969626586" lon="8.785130994926973"><ele>1071.5</ele><time>2026-04-25T13:00:27Z</time></trkpt><trkpt lat="46.07210661168041" lon="8.785280101760227"><ele>1071.0</ele><time>2026-04-25T13:00:28Z</time></trkpt><trkpt lat="46.07209376034739" lon="8.78547310503621"><ele>1070.5</ele><time>2026-04-25T13:00:29Z</time></trkpt><trkpt lat="46.07209627500953" lon="8.78568942814694"><ele>1070.0</ele><time>2026-04-25T13:00:30Z</time></trkpt><trkpt lat="46.072110798844804" lon="8.785915209887692"><ele>1068.5</ele><time>2026-04-25T13:00:31Z</time></trkpt><trkpt lat="46.07211461027256" lon="8.786135170832313"><ele>1067.0</ele><time>2026-04-25T13:00:32Z</time></trkpt><trkpt lat="46.072121122542434" lon="8.786330706463692"><ele>1065.5</ele><time>2026-04-25T13:00:33Z</time></trkpt><trkpt lat="46.07211145244395" lon="8.786517015862891"><ele>1064.0</ele><time>2026-04-25T13:00:34Z</time></trkpt><trkpt lat="46.07208581202375" lon="8.786692151667625"><ele>1061.75</ele><time>2026-04-25T13:00:35Z</time></trkpt><trkpt lat="46.07204994966371" lon="8.786864363465748"><ele>1059.5</ele><time>2026-04-25T13:00:36Z</time></trkpt><trkpt lat="46.072025875215566" lon="8.787064208588005"><ele>1057.25</ele><time>2026-04-25T13:00:37Z</time></trkpt><trkpt lat="46.072017987862864" lon="8.787278743182204"><ele>1055.0</ele><time>2026-04-25T13:00:38Z</time></trkpt><trkpt lat="46.07201381893697" lon="8.787482696471457"><ele>1055.0</ele><time>2026-04-25T13:00:39Z</time></trkpt><trkpt lat="46.07201116192421" lon="8.787652305028978"><ele>1055.0</ele><time>2026-04-25T13:00:40Z</time></trkpt><trkpt lat="46.07200587074923" lon="8.78781533224989"><ele>1055.0</ele><time>2026-04-25T13:00:41Z</time></trkpt><trkpt lat="46.07200146452492" lon="8.787950620969205"><ele>1055.0</ele><time>2026-04-25T13:00:42Z</time></trkpt><trkpt lat="46.07199371580065" lon="8.78805962943657"><ele>1055.0</ele><time>2026-04-25T13:00:43Z</time></trkpt><trkpt lat="46.07197373358523" lon="8.78816678991097"><ele>1054.0</ele><time>2026-04-25T13:00:44Z</time></trkpt><trkpt lat="46.07192834059171" lon="8.788238466170029"><ele>1053.0</ele><time>2026-04-25T13:00:45Z</time></trkpt><trkpt lat="46.07185133266" lon="8.78823711121187"><ele>1052.0</ele><time>2026-04-25T13:00:46Z</time></trkpt><trkpt lat="46.071744079187184" lon="8.788334957041304"><ele>1051.0</ele><time>2026-04-25T13:00:47.999Z</time></trkpt><trkpt lat="46.071702419493555" lon="8.788424021103777"><ele>1050.0</ele><time>2026-04-25T13:00:48.999Z</time></trkpt><trkpt lat="46.07169669318609" lon="8.78854305847636"><ele>1049.0</ele><time>2026-04-25T13:00:49.999Z</time></trkpt><trkpt lat="46.071715165055245" lon="8.788676159737859"><ele>1047.8</ele><time>2026-04-25T13:00:50.999Z</time></trkpt><trkpt lat="46.07175699662277" lon="8.788812358337665"><ele>1046.6000000000001</ele><time>2026-04-25T13:00:51.999Z</time></trkpt><trkpt lat="46.071814279136404" lon="8.788940180867556"><ele>1045.4</ele><time>2026-04-25T13:00:52.999Z</time></trkpt><trkpt lat="46.07187723302578" lon="8.789067619114476"><ele>1044.2</ele><time>2026-04-25T13:00:53.999Z</time></trkpt><trkpt lat="46.07192324656902" lon="8.78919191081262"><ele>1043.0</ele><time>2026-04-25T13:00:54.999Z</time></trkpt><trkpt lat="46.071935574654326" lon="8.789330502981525"><ele>1041.2</ele><time>2026-04-25T13:00:55.999Z</time></trkpt><trkpt lat="46.07191607995014" lon="8.789489558365709"><ele>1039.4</ele><time>2026-04-25T13:00:56.999Z</time></trkpt><trkpt lat="46.0718746487481" lon="8.78962774290812"><ele>1037.6000000000001</ele><time>2026-04-25T13:00:57.999Z</time></trkpt><trkpt lat="46.07184105612264" lon="8.789763538723358"><ele>1035.8</ele><time>2026-04-25T13:00:58.999Z</time></trkpt><trkpt lat="46.071823911478766" lon="8.789880500922006"><ele>1034.0</ele><time>2026-04-25T13:00:59.999Z</time></trkpt><trkpt lat="46.07178323891471" lon="8.790018998951181"><ele>1034.0</ele><time>2026-04-25T13:01:00.999Z</time></trkpt><trkpt lat="46.071738634534064" lon="8.790153171895058"><ele>1034.0</ele><time>2026-04-25T13:01:01.999Z</time></trkpt><trkpt lat="46.07168853784326" lon="8.790272872207485"><ele>1034.0</ele><time>2026-04-25T13:01:02.999Z</time></trkpt><trkpt lat="46.07163242797545" lon="8.790384280127242"><ele>1034.0</ele><time>2026-04-25T13:01:03.999Z</time></trkpt><trkpt lat="46.07158626004622" lon="8.790516217748493"><ele>1034.0</ele><time>2026-04-25T13:01:04.999Z</time></trkpt><trkpt lat="46.07156927359297" lon="8.790650193531437"><ele>1030.8</ele><time>2026-04-25T13:01:05.999Z</time></trkpt><trkpt lat="46.07156165535938" lon="8.790777648015677"><ele>1027.6000000000001</ele><time>2026-04-25T13:01:06.999Z</time></trkpt><trkpt lat="46.07157197738957" lon="8.790907987807604"><ele>1024.4</ele><time>2026-04-25T13:01:07.999Z</time></trkpt><trkpt lat="46.07158881631474" lon="8.791056549466903"><ele>1021.2</ele><time>2026-04-25T13:01:08.999Z</time></trkpt><trkpt lat="46.07163003555863" lon="8.791230425033612"><ele>1018.0</ele><time>2026-04-25T13:01:09.999Z</time></trkpt><trkpt lat="46.071673706487374" lon="8.791400735583215"><ele>1017.9999999999999</ele><time>2026-04-25T13:01:10.999Z</time></trkpt><trkpt lat="46.071715026512905" lon="8.79156202528397"><ele>1018.0</ele><time>2026-04-25T13:01:11.999Z</time></trkpt><trkpt lat="46.07176161459133" lon="8.791695430913483"><ele>1018.0</ele><time>2026-04-25T13:01:12.999Z</time></trkpt><trkpt lat="46.07179869875322" lon="8.791802399581623"><ele>1018.0</ele><time>2026-04-25T13:01:13.999Z</time></trkpt><trkpt lat="46.07182229151607" lon="8.79189648158816"><ele>1017.9999999999999</ele><time>2026-04-25T13:01:14.999Z</time></trkpt><trkpt lat="46.071813131069796" lon="8.791994821303671"><ele>1018.0</ele><time>2026-04-25T13:01:15.999Z</time></trkpt><trkpt lat="46.07171919938504" lon="8.792054875747551"><ele>1016.8333333333333</ele><time>2026-04-25T13:01:16.999Z</time></trkpt><trkpt lat="46.07168567794426" lon="8.792147113062732"><ele>1015.6666666666666</ele><time>2026-04-25T13:01:17.999Z</time></trkpt><trkpt lat="46.071663766305946" lon="8.79224246208877"><ele>1014.5</ele><time>2026-04-25T13:01:18.999Z</time></trkpt><trkpt lat="46.07167254842786" lon="8.792360029072258"><ele>1013.3333333333333</ele><time>2026-04-25T13:01:19.999Z</time></trkpt><trkpt lat="46.071680609967814" lon="8.79247177772176"><ele>1012.1666666666666</ele><time>2026-04-25T13:01:20.999Z</time></trkpt><trkpt lat="46.0716815645511" lon="8.792583614201137"><ele>1011.0</ele><time>2026-04-25T13:01:21.999Z</time></trkpt><trkpt lat="46.0716621919705" lon="8.792697372172425"><ele>1010.6666666666666</ele><time>2026-04-25T13:01:22.999Z</time></trkpt><trkpt lat="46.07160716767319" lon="8.792789877788975"><ele>1010.3333333333333</ele><time>2026-04-25T13:01:23.999Z</time></trkpt><trkpt lat="46.07154426964547" lon="8.792869478973053"><ele>1010.0</ele><time>2026-04-25T13:01:24.999Z</time></trkpt><trkpt lat="46.071490336408615" lon="8.792952144630135"><ele>1009.6666666666666</ele><time>2026-04-25T13:01:25.999Z</time></trkpt><trkpt lat="46.07146070135412" lon="8.793048876495405"><ele>1009.3333333333333</ele><time>2026-04-25T13:01:26.999Z</time></trkpt><trkpt lat="46.071473454349025" lon="8.793146868398116"><ele>1009.0</ele><time>2026-04-25T13:01:27.999Z</time></trkpt><trkpt lat="46.07150401959746" lon="8.79329090317371"><ele>1004.3333333333333</ele><time>2026-04-25T13:01:29.999Z</time></trkpt><trkpt lat="46.071410768622556" lon="8.793337549349163"><ele>999.6666666666666</ele><time>2026-04-25T13:01:31.999Z</time></trkpt><trkpt lat="46.071363499271065" lon="8.793263089966421"><ele>995.0</ele><time>2026-04-25T13:01:32.999Z</time></trkpt><trkpt lat="46.071351656456706" lon="8.793157604443605"><ele>990.3333333333333</ele><time>2026-04-25T13:01:33.999Z</time></trkpt><trkpt lat="46.0713042237741" lon="8.793063283626164"><ele>985.6666666666666</ele><time>2026-04-25T13:01:34.999Z</time></trkpt><trkpt lat="46.07126266070697" lon="8.79296976414561"><ele>981.0</ele><time>2026-04-25T13:01:35.999Z</time></trkpt><trkpt lat="46.07124256761782" lon="8.792875101823793"><ele>981.0</ele><time>2026-04-25T13:01:36.999Z</time></trkpt><trkpt lat="46.07124028432131" lon="8.792769142339674"><ele>980.9999999999999</ele><time>2026-04-25T13:01:37.999Z</time></trkpt><trkpt lat="46.07128775836558" lon="8.792679899985012"><ele>980.9999999999999</ele><time>2026-04-25T13:01:38.999Z</time></trkpt><trkpt lat="46.07137412918316" lon="8.792588351699028"><ele>981.0</ele><time>2026-04-25T13:01:40.999Z</time></trkpt><trkpt lat="46.07135391144984" lon="8.79244898209639"><ele>981.0</ele><time>2026-04-25T13:01:42.999Z</time></trkpt><trkpt lat="46.071250595758755" lon="8.792438236450321"><ele>981.0</ele><time>2026-04-25T13:01:43.999Z</time></trkpt><trkpt lat="46.071171000320255" lon="8.792497707648048"><ele>981.0</ele><time>2026-04-25T13:01:44.999Z</time></trkpt><trkpt lat="46.07109343725662" lon="8.792511195444133"><ele>981.0</ele><time>2026-04-25T13:01:45.999Z</time></trkpt><trkpt lat="46.071027313036666" lon="8.79254794240904"><ele>981.0</ele><time>2026-04-25T13:01:46.999Z</time></trkpt><trkpt lat="46.07096767894193" lon="8.79262914074393"><ele>981.0</ele><time>2026-04-25T13:01:47.999Z</time></trkpt><trkpt lat="46.070922013566864" lon="8.792722828102832"><ele>981.0</ele><time>2026-04-25T13:01:48.999Z</time></trkpt><trkpt lat="46.070881915733025" lon="8.792840940149281"><ele>981.0</ele><time>2026-04-25T13:01:49.999Z</time></trkpt><trkpt lat="46.0708135995882" lon="8.792952448496937"><ele>980.9999999999999</ele><time>2026-04-25T13:01:50.999Z</time></trkpt><trkpt lat="46.07073077450658" lon="8.79304420289159"><ele>980.9999999999999</ele><time>2026-04-25T13:01:51.999Z</time></trkpt><trkpt lat="46.07066358317542" lon="8.793138515666813"><ele>981.0</ele><time>2026-04-25T13:01:52.999Z</time></trkpt><trkpt lat="46.07061916413677" lon="8.793231789652626"><ele>981.0</ele><time>2026-04-25T13:01:53.999Z</time></trkpt><trkpt lat="46.07059196056938" lon="8.793337387349922"><ele>975.3333333333334</ele><time>2026-04-25T13:01:54.999Z</time></trkpt><trkpt lat="46.070587194282425" lon="8.79345519768288"><ele>969.6666666666667</ele><time>2026-04-25T13:01:55.999Z</time></trkpt><trkpt lat="46.0705695830992" lon="8.793595144606437"><ele>964.0</ele><time>2026-04-25T13:01:56.999Z</time></trkpt><trkpt lat="46.07056356591505" lon="8.793726757844693"><ele>958.3333333333334</ele><time>2026-04-25T13:01:57.999Z</time></trkpt><trkpt lat="46.070560942487596" lon="8.79385229205458"><ele>952.6666666666667</ele><time>2026-04-25T13:01:58.999Z</time></trkpt><trkpt lat="46.07057435880781" lon="8.793980791662879"><ele>947.0</ele><time>2026-04-25T13:01:59.999Z</time></trkpt><trkpt lat="46.070607282273535" lon="8.794089865169934"><ele>946.2</ele><time>2026-04-25T13:02:00.999Z</time></trkpt><trkpt lat="46.07065571137416" lon="8.794232513014567"><ele>945.4000000000001</ele><time>2026-04-25T13:02:01.999Z</time></trkpt><trkpt lat="46.07069844295734" lon="8.794362255764293"><ele>944.5999999999999</ele><time>2026-04-25T13:02:02.999Z</time></trkpt><trkpt lat="46.07073373744701" lon="8.794487449322098"><ele>943.8</ele><time>2026-04-25T13:02:04Z</time></trkpt><trkpt lat="46.070762201004136" lon="8.794656115611124"><ele>943.0</ele><time>2026-04-25T13:02:05.999Z</time></trkpt><trkpt lat="46.070748727792044" lon="8.794746068538483"><ele>942.9999999999999</ele><time>2026-04-25T13:02:08Z</time></trkpt><trkpt lat="46.07067445669316" lon="8.794741392546998"><ele>943.0</ele><time>2026-04-25T13:02:08.999Z</time></trkpt><trkpt lat="46.07065164214226" lon="8.794632417595823"><ele>943.0</ele><time>2026-04-25T13:02:10Z</time></trkpt><trkpt lat="46.07065760451464" lon="8.794541886230597"><ele>943.0</ele><time>2026-04-25T13:02:11Z</time></trkpt><trkpt lat="46.07061940768349" lon="8.794410113761773"><ele>942.9999999999999</ele><time>2026-04-25T13:02:12Z</time></trkpt><trkpt lat="46.07056925606723" lon="8.794289082416624"><ele>943.0</ele><time>2026-04-25T13:02:13Z</time></trkpt><trkpt lat="46.070501532702096" lon="8.794141704082254"><ele>943.0</ele><time>2026-04-25T13:02:14Z</time></trkpt><trkpt lat="46.07042290367928" lon="8.794016170916485"><ele>943.0</ele><time>2026-04-25T13:02:15Z</time></trkpt><trkpt lat="46.07036655655505" lon="8.793962392567744"><ele>943.0</ele><time>2026-04-25T13:02:16Z</time></trkpt><trkpt lat="46.07029552802645" lon="8.793848795477128"><ele>943.0</ele><time>2026-04-25T13:02:17Z</time></trkpt><trkpt lat="46.070237926112405" lon="8.79372044194105"><ele>943.0</ele><time>2026-04-25T13:02:18Z</time></trkpt><trkpt lat="46.07019894986637" lon="8.793592760109622"><ele>943.8</ele><time>2026-04-25T13:02:19Z</time></trkpt><trkpt lat="46.07017572713463" lon="8.793450159278935"><ele>944.5999999999999</ele><time>2026-04-25T13:02:20Z</time></trkpt><trkpt lat="46.070159223223946" lon="8.793303802686141"><ele>945.4000000000001</ele><time>2026-04-25T13:02:21Z</time></trkpt><trkpt lat="46.07014700265024" lon="8.793136080379364"><ele>946.2</ele><time>2026-04-25T13:02:22Z</time></trkpt><trkpt lat="46.07013055023717" lon="8.792966258203025"><ele>947.0</ele><time>2026-04-25T13:02:23Z</time></trkpt><trkpt lat="46.07010329132912" lon="8.792809437655276"><ele>945.6</ele><time>2026-04-25T13:02:24Z</time></trkpt><trkpt lat="46.07007590012226" lon="8.79266260817232"><ele>944.2</ele><time>2026-04-25T13:02:25Z</time></trkpt><trkpt lat="46.070055666795845" lon="8.792526813629852"><ele>942.8</ele><time>2026-04-25T13:02:26Z</time></trkpt><trkpt lat="46.070045434090325" lon="8.792393832499375"><ele>941.4</ele><time>2026-04-25T13:02:27Z</time></trkpt><trkpt lat="46.07005233119947" lon="8.792287720432249"><ele>940.0</ele><time>2026-04-25T13:02:28Z</time></trkpt><trkpt lat="46.07009425289239" lon="8.792172773565996"><ele>939.9999999999999</ele><time>2026-04-25T13:02:30Z</time></trkpt><trkpt lat="46.070051765397885" lon="8.792062582599312"><ele>940.0</ele><time>2026-04-25T13:02:32Z</time></trkpt><trkpt lat="46.069978334285864" lon="8.792084354293435"><ele>940.0</ele><time>2026-04-25T13:02:33Z</time></trkpt><trkpt lat="46.06993898697328" lon="8.792157917397683"><ele>940.0</ele><time>2026-04-25T13:02:34Z</time></trkpt><trkpt lat="46.0699210703468" lon="8.79225739539867"><ele>939.9999999999999</ele><time>2026-04-25T13:02:35Z</time></trkpt><trkpt lat="46.06991510947408" lon="8.792358763401321"><ele>940.0</ele><time>2026-04-25T13:02:36Z</time></trkpt><trkpt lat="46.06989454932042" lon="8.792501109795106"><ele>934.6666666666666</ele><time>2026-04-25T13:02:37Z</time></trkpt><trkpt lat="46.06988372017137" lon="8.792630068208958"><ele>929.3333333333333</ele><time>2026-04-25T13:02:38Z</time></trkpt><trkpt lat="46.069888196320726" lon="8.79274398549242"><ele>924.0</ele><time>2026-04-25T13:02:39Z</time></trkpt><trkpt lat="46.06988545135706" lon="8.792857406665698"><ele>918.6666666666667</ele><time>2026-04-25T13:02:40Z</time></trkpt><trkpt lat="46.06985178480048" lon="8.792973013218592"><ele>913.3333333333334</ele><time>2026-04-25T13:02:41Z</time></trkpt><trkpt lat="46.06979925076093" lon="8.793077964032907"><ele>908.0</ele><time>2026-04-25T13:02:42Z</time></trkpt><trkpt lat="46.06973803810864" lon="8.79319291559149"><ele>908.0</ele><time>2026-04-25T13:02:43Z</time></trkpt><trkpt lat="46.06968525931663" lon="8.793322311518358"><ele>908.0</ele><time>2026-04-25T13:02:44Z</time></trkpt><trkpt lat="46.06963688190907" lon="8.793453722593677"><ele>908.0</ele><time>2026-04-25T13:02:45Z</time></trkpt><trkpt lat="46.06961195622482" lon="8.793591117612024"><ele>908.0</ele><time>2026-04-25T13:02:46Z</time></trkpt><trkpt lat="46.06960252810335" lon="8.793730919265903"><ele>908.0</ele><time>2026-04-25T13:02:47Z</time></trkpt><trkpt lat="46.0696007882738" lon="8.793872217477228"><ele>908.1666666666667</ele><time>2026-04-25T13:02:48Z</time></trkpt><trkpt lat="46.06959992792478" lon="8.79401323285353"><ele>908.3333333333334</ele><time>2026-04-25T13:02:48.999Z</time></trkpt><trkpt lat="46.06960389058908" lon="8.794141888056044"><ele>908.5</ele><time>2026-04-25T13:02:49.999Z</time></trkpt><trkpt lat="46.0696291657924" lon="8.794255567694949"><ele>908.6666666666667</ele><time>2026-04-25T13:02:50.999Z</time></trkpt><trkpt lat="46.06965572498487" lon="8.794351951802296"><ele>908.8333333333334</ele><time>2026-04-25T13:02:51.999Z</time></trkpt><trkpt lat="46.06969617549769" lon="8.794460242502039"><ele>909.0</ele><time>2026-04-25T13:02:53.999Z</time></trkpt><trkpt lat="46.06963850305848" lon="8.794537700055887"><ele>909.0</ele><time>2026-04-25T13:02:56.999Z</time></trkpt><trkpt lat="46.06960715532205" lon="8.794431344958154"><ele>909.0000000000001</ele><time>2026-04-25T13:02:58.999Z</time></trkpt><trkpt lat="46.06957058975801" lon="8.79431056722093"><ele>909.0000000000001</ele><time>2026-04-25T13:02:59.999Z</time></trkpt><trkpt lat="46.06953023942448" lon="8.79415799654406"><ele>909.0</ele><time>2026-04-25T13:03:00.999Z</time></trkpt><trkpt lat="46.0694830263309" lon="8.794006909306162"><ele>909.0</ele><time>2026-04-25T13:03:01.999Z</time></trkpt><trkpt lat="46.06946998901537" lon="8.793847033206124"><ele>909.0</ele><time>2026-04-25T13:03:02.999Z</time></trkpt><trkpt lat="46.069446894767594" lon="8.793699820380768"><ele>909.0000000000001</ele><time>2026-04-25T13:03:03.999Z</time></trkpt><trkpt lat="46.069408763798954" lon="8.793558317573657"><ele>909.0000000000001</ele><time>2026-04-25T13:03:04.999Z</time></trkpt><trkpt lat="46.06938627210609" lon="8.7933956862504"><ele>909.0</ele><time>2026-04-25T13:03:05.999Z</time></trkpt><trkpt lat="46.0693689307624" lon="8.793244776326961"><ele>909.0</ele><time>2026-04-25T13:03:06.999Z</time></trkpt><trkpt lat="46.06935748482581" lon="8.793116113698586"><ele>908.8000000000001</ele><time>2026-04-25T13:03:07.999Z</time></trkpt><trkpt lat="46.069361533479295" lon="8.793004109049944"><ele>908.6000000000001</ele><time>2026-04-25T13:03:08.999Z</time></trkpt><trkpt lat="46.06938910706956" lon="8.792891395901009"><ele>908.4</ele><time>2026-04-25T13:03:09.999Z</time></trkpt><trkpt lat="46.06943512497562" lon="8.792766312703108"><ele>908.2</ele><time>2026-04-25T13:03:10.999Z</time></trkpt><trkpt lat="46.06952385560778" lon="8.792641527181999"><ele>908.0</ele><time>2026-04-25T13:03:11.999Z</time></trkpt><trkpt lat="46.069597279232646" lon="8.792491808333121"><ele>905.5</ele><time>2026-04-25T13:03:12.999Z</time></trkpt><trkpt lat="46.06965965975859" lon="8.792304397502928"><ele>903.0</ele><time>2026-04-25T13:03:13.999Z</time></trkpt><trkpt lat="46.06968257720272" lon="8.792103571726383"><ele>900.5</ele><time>2026-04-25T13:03:14.999Z</time></trkpt><trkpt lat="46.0697489815094" lon="8.791950020654724"><ele>898.0</ele><time>2026-04-25T13:03:15.999Z</time></trkpt><trkpt lat="46.06979760680021" lon="8.79181218470508"><ele>893.8</ele><time>2026-04-25T13:03:16.999Z</time></trkpt><trkpt lat="46.06983134328402" lon="8.791682644006748"><ele>889.5999999999999</ele><time>2026-04-25T13:03:17.999Z</time></trkpt><trkpt lat="46.06987051678235" lon="8.791572292630072"><ele>885.4000000000001</ele><time>2026-04-25T13:03:18.999Z</time></trkpt><trkpt lat="46.06990829304539" lon="8.79147922113931"><ele>881.2</ele><time>2026-04-25T13:03:19.999Z</time></trkpt><trkpt lat="46.069962475584056" lon="8.791419830525552"><ele>877.0</ele><time>2026-04-25T13:03:20.999Z</time></trkpt><trkpt lat="46.07001539174809" lon="8.791234401391055"><ele>877.0</ele><time>2026-04-25T13:03:22.999Z</time></trkpt><trkpt lat="46.069921532844056" lon="8.791102550212807"><ele>877.0</ele><time>2026-04-25T13:03:23.999Z</time></trkpt><trkpt lat="46.06981201448237" lon="8.790942137121599"><ele>877.0</ele><time>2026-04-25T13:03:24.999Z</time></trkpt><trkpt lat="46.069691671722886" lon="8.790777998347098"><ele>881.6666666666666</ele><time>2026-04-25T13:03:25.999Z</time></trkpt><trkpt lat="46.06955927919585" lon="8.790618020938139"><ele>886.3333333333333</ele><time>2026-04-25T13:03:26.999Z</time></trkpt><trkpt lat="46.06944043594553" lon="8.790468667614592"><ele>891.0</ele><time>2026-04-25T13:03:27.999Z</time></trkpt><trkpt lat="46.069336137842" lon="8.79033074551773"><ele>891.0</ele><time>2026-04-25T13:03:28.999Z</time></trkpt><trkpt lat="46.06923145950221" lon="8.790226550224018"><ele>891.0</ele><time>2026-04-25T13:03:29.999Z</time></trkpt><trkpt lat="46.06913032832679" lon="8.790100290315351"><ele>891.0</ele><time>2026-04-25T13:03:30.999Z</time></trkpt><trkpt lat="46.06904982667309" lon="8.789956339900652"><ele>891.0</ele><time>2026-04-25T13:03:31.999Z</time></trkpt><trkpt lat="46.068969018533494" lon="8.789834933779762"><ele>892.5</ele><time>2026-04-25T13:03:32.999Z</time></trkpt><trkpt lat="46.068924169966614" lon="8.789663344899177"><ele>894.0</ele><time>2026-04-25T13:03:33.999Z</time></trkpt><trkpt lat="46.06887722581873" lon="8.789496696801804"><ele>895.5</ele><time>2026-04-25T13:03:34.999Z</time></trkpt><trkpt lat="46.06886285785797" lon="8.789320433685903"><ele>897.0</ele><time>2026-04-25T13:03:35.999Z</time></trkpt><trkpt lat="46.068838976040986" lon="8.789203751872655"><ele>897.0</ele><time>2026-04-25T13:03:36.999Z</time></trkpt><trkpt lat="46.06878090022963" lon="8.789053025913066"><ele>897.0</ele><time>2026-04-25T13:03:37.999Z</time></trkpt><trkpt lat="46.0686616307931" lon="8.78900102167096"><ele>897.0</ele><time>2026-04-25T13:03:38.999Z</time></trkpt><trkpt lat="46.06853337357193" lon="8.788899777067225"><ele>897.0</ele><time>2026-04-25T13:03:39.999Z</time></trkpt><trkpt lat="46.0683886304523" lon="8.788803069433849"><ele>892.75</ele><time>2026-04-25T13:03:40.999Z</time></trkpt><trkpt lat="46.068246804483664" lon="8.78870943870502"><ele>888.5</ele><time>2026-04-25T13:03:41.999Z</time></trkpt><trkpt lat="46.068129109611405" lon="8.788629837024649"><ele>884.25</ele><time>2026-04-25T13:03:42.999Z</time></trkpt><trkpt lat="46.068029671778" lon="8.788541654118857"><ele>880.0</ele><time>2026-04-25T13:03:43.999Z</time></trkpt><trkpt lat="46.06794926794827" lon="8.788427943550909"><ele>880.0</ele><time>2026-04-25T13:03:44.999Z</time></trkpt><trkpt lat="46.06784574510403" lon="8.788272522283812"><ele>880.0</ele><time>2026-04-25T13:03:45.999Z</time></trkpt><trkpt lat="46.067720723095285" lon="8.788089499084334"><ele>880.0</ele><time>2026-04-25T13:03:46.999Z</time></trkpt><trkpt lat="46.06761129074105" lon="8.787929904862201"><ele>880.0</ele><time>2026-04-25T13:03:47.999Z</time></trkpt><trkpt lat="46.067512062308566" lon="8.787774575561393"><ele>880.0</ele><time>2026-04-25T13:03:48.999Z</time></trkpt><trkpt lat="46.06742452435487" lon="8.78761599787184"><ele>880.0</ele><time>2026-04-25T13:03:49.999Z</time></trkpt><trkpt lat="46.06733685108178" lon="8.787452707919208"><ele>880.0</ele><time>2026-04-25T13:03:50.999Z</time></trkpt><trkpt lat="46.06723508044002" lon="8.787263609130987"><ele>878.0</ele><time>2026-04-25T13:03:51.999Z</time></trkpt><trkpt lat="46.06713932231541" lon="8.78708581509995"><ele>876.0</ele><time>2026-04-25T13:03:52.999Z</time></trkpt><trkpt lat="46.06704980949629" lon="8.78693866937176"><ele>874.0</ele><time>2026-04-25T13:03:53.999Z</time></trkpt><trkpt lat="46.06698672008649" lon="8.78676037156682"><ele>872.0</ele><time>2026-04-25T13:03:54.999Z</time></trkpt><trkpt lat="46.066908202214876" lon="8.786617850156112"><ele>872.0</ele><time>2026-04-25T13:03:55.999Z</time></trkpt><trkpt lat="46.06685080998159" lon="8.786469604274373"><ele>872.0</ele><time>2026-04-25T13:03:56.999Z</time></trkpt><trkpt lat="46.066806588990005" lon="8.786315164108899"><ele>872.0</ele><time>2026-04-25T13:03:57.999Z</time></trkpt><trkpt lat="46.06680044288573" lon="8.786135949536149"><ele>872.0</ele><time>2026-04-25T13:03:58.999Z</time></trkpt><trkpt lat="46.06678739295573" lon="8.78593771532451"><ele>873.75</ele><time>2026-04-25T13:03:59.999Z</time></trkpt><trkpt lat="46.06676523246405" lon="8.785721603168613"><ele>875.5</ele><time>2026-04-25T13:04:00.999Z</time></trkpt><trkpt lat="46.06676843211455" lon="8.785531819948261"><ele>877.25</ele><time>2026-04-25T13:04:01.999Z</time></trkpt><trkpt lat="46.06673628319311" lon="8.785368338704425"><ele>879.0</ele><time>2026-04-25T13:04:02.999Z</time></trkpt><trkpt lat="46.0666355989025" lon="8.785209128948601"><ele>871.25</ele><time>2026-04-25T13:04:03.999Z</time></trkpt><trkpt lat="46.066524472416084" lon="8.785086414069992"><ele>863.5</ele><time>2026-04-25T13:04:04.999Z</time></trkpt><trkpt lat="46.0664450852746" lon="8.784908388768507"><ele>855.75</ele><time>2026-04-25T13:04:05.999Z</time></trkpt><trkpt lat="46.0663704149348" lon="8.78476054783194"><ele>848.0</ele><time>2026-04-25T13:04:06.999Z</time></trkpt><trkpt lat="46.066282495198784" lon="8.78458374414158"><ele>848.0</ele><time>2026-04-25T13:04:07.999Z</time></trkpt><trkpt lat="46.06619570296748" lon="8.784409208230805"><ele>848.0</ele><time>2026-04-25T13:04:08.999Z</time></trkpt><trkpt lat="46.06611600604681" lon="8.784248940539213"><ele>848.0</ele><time>2026-04-25T13:04:10Z</time></trkpt><trkpt lat="46.06603936754323" lon="8.784099071194625"><ele>848.0</ele><time>2026-04-25T13:04:11Z</time></trkpt><trkpt lat="46.06598292355551" lon="8.783976666274627"><ele>846.8</ele><time>2026-04-25T13:04:12Z</time></trkpt><trkpt lat="46.065958671628024" lon="8.783838187278661"><ele>845.5999999999999</ele><time>2026-04-25T13:04:13Z</time></trkpt><trkpt lat="46.06594545757923" lon="8.783689948549172"><ele>844.4000000000001</ele><time>2026-04-25T13:04:14Z</time></trkpt><trkpt lat="46.06592057769265" lon="8.78356709352196"><ele>843.2</ele><time>2026-04-25T13:04:15Z</time></trkpt><trkpt lat="46.06587221605631" lon="8.783455459734585"><ele>842.0</ele><time>2026-04-25T13:04:16Z</time></trkpt><trkpt lat="46.06577703911646" lon="8.78337911352531"><ele>842.0</ele><time>2026-04-25T13:04:17Z</time></trkpt><trkpt lat="46.06569672825693" lon="8.783244618771368"><ele>842.0</ele><time>2026-04-25T13:04:18Z</time></trkpt><trkpt lat="46.06560207736572" lon="8.783108321766866"><ele>842.0</ele><time>2026-04-25T13:04:19Z</time></trkpt><trkpt lat="46.06548070642822" lon="8.782984826791754"><ele>842.0</ele><time>2026-04-25T13:04:20Z</time></trkpt><trkpt lat="46.065372079332306" lon="8.782865704134597"><ele>842.0</ele><time>2026-04-25T13:04:21Z</time></trkpt><trkpt lat="46.06527005502745" lon="8.782767964390246"><ele>842.0</ele><time>2026-04-25T13:04:22Z</time></trkpt><trkpt lat="46.065169003176095" lon="8.78270465775055"><ele>842.0</ele><time>2026-04-25T13:04:23Z</time></trkpt><trkpt lat="46.06503684249753" lon="8.782670290669794"><ele>842.0</ele><time>2026-04-25T13:04:24Z</time></trkpt><trkpt lat="46.064982638184496" lon="8.782601174929486"><ele>842.0</ele><time>2026-04-25T13:04:25Z</time></trkpt><trkpt lat="46.06492251432823" lon="8.782551627478258"><ele>839.4000000000001</ele><time>2026-04-25T13:04:26Z</time></trkpt><trkpt lat="46.06490035732504" lon="8.782381351652909"><ele>836.8000000000001</ele><time>2026-04-25T13:04:28Z</time></trkpt><trkpt lat="46.06494955029803" lon="8.782275186065451"><ele>834.2</ele><time>2026-04-25T13:04:29Z</time></trkpt><trkpt lat="46.06499014576487" lon="8.78211461267544"><ele>831.6</ele><time>2026-04-25T13:04:30Z</time></trkpt><trkpt lat="46.06500990870141" lon="8.781978606850124"><ele>829.0</ele><time>2026-04-25T13:04:31Z</time></trkpt><trkpt lat="46.06502969655896" lon="8.781870165158779"><ele>836.5</ele><time>2026-04-25T13:04:32Z</time></trkpt><trkpt lat="46.065009231331835" lon="8.781696980515633"><ele>844.0</ele><time>2026-04-25T13:04:34Z</time></trkpt><trkpt lat="46.06490389564915" lon="8.78164525120605"><ele>851.5</ele><time>2026-04-25T13:04:35Z</time></trkpt><trkpt lat="46.06478966907631" lon="8.781646177511103"><ele>859.0</ele><time>2026-04-25T13:04:36Z</time></trkpt><trkpt lat="46.06466286762992" lon="8.781620330677997"><ele>859.0</ele><time>2026-04-25T13:04:37Z</time></trkpt><trkpt lat="46.06451329318004" lon="8.781610587861607"><ele>859.0</ele><time>2026-04-25T13:04:38Z</time></trkpt><trkpt lat="46.06437174154661" lon="8.781568186845892"><ele>859.0</ele><time>2026-04-25T13:04:39Z</time></trkpt><trkpt lat="46.064256577021055" lon="8.781546558380322"><ele>859.0</ele><time>2026-04-25T13:04:40Z</time></trkpt><trkpt lat="46.064164417371266" lon="8.781493117146885"><ele>855.2</ele><time>2026-04-25T13:04:41Z</time></trkpt><trkpt lat="46.0640758588775" lon="8.781486623855475"><ele>851.4000000000001</ele><time>2026-04-25T13:04:42Z</time></trkpt><trkpt lat="46.06399375608283" lon="8.781499918217657"><ele>847.6</ele><time>2026-04-25T13:04:43Z</time></trkpt><trkpt lat="46.06389825686176" lon="8.781585327005518"><ele>843.8</ele><time>2026-04-25T13:04:44Z</time></trkpt><trkpt lat="46.06380983619741" lon="8.781683647619072"><ele>840.0</ele><time>2026-04-25T13:04:45Z</time></trkpt><trkpt lat="46.06371656340081" lon="8.781725146068618"><ele>840.0</ele><time>2026-04-25T13:04:46Z</time></trkpt><trkpt lat="46.06365782711325" lon="8.781786393717772"><ele>840.0</ele><time>2026-04-25T13:04:47Z</time></trkpt><trkpt lat="46.06358126646426" lon="8.781780589032481"><ele>840.0</ele><time>2026-04-25T13:04:48Z</time></trkpt><trkpt lat="46.06350609057254" lon="8.781708428991807"><ele>840.0</ele><time>2026-04-25T13:04:49Z</time></trkpt><trkpt lat="46.06342126881715" lon="8.781589457122701"><ele>840.0</ele><time>2026-04-25T13:04:50Z</time></trkpt><trkpt lat="46.06331606530502" lon="8.781480719007702"><ele>836.0</ele><time>2026-04-25T13:04:51Z</time></trkpt><trkpt lat="46.06323430409418" lon="8.781383012493558"><ele>832.0</ele><time>2026-04-25T13:04:52Z</time></trkpt><trkpt lat="46.06317261963089" lon="8.781280912902796"><ele>828.0</ele><time>2026-04-25T13:04:53Z</time></trkpt><trkpt lat="46.063141580100684" lon="8.781163757633866"><ele>824.0</ele><time>2026-04-25T13:04:54Z</time></trkpt><trkpt lat="46.063135493197485" lon="8.781039434502201"><ele>820.0</ele><time>2026-04-25T13:04:55Z</time></trkpt><trkpt lat="46.06317387995213" lon="8.780940433718104"><ele>819.9999999999999</ele><time>2026-04-25T13:04:56Z</time></trkpt><trkpt lat="46.06317991864578" lon="8.780831617389424"><ele>820.0</ele><time>2026-04-25T13:04:57Z</time></trkpt><trkpt lat="46.06319750959585" lon="8.780741542358871"><ele>820.0</ele><time>2026-04-25T13:04:58Z</time></trkpt><trkpt lat="46.06314184882999" lon="8.78065381826893"><ele>820.0</ele><time>2026-04-25T13:04:59Z</time></trkpt><trkpt lat="46.063060418241726" lon="8.780594569652509"><ele>819.9999999999999</ele><time>2026-04-25T13:05:00Z</time></trkpt><trkpt lat="46.062954035126424" lon="8.78064975505452"><ele>820.0</ele><time>2026-04-25T13:05:01Z</time></trkpt><trkpt lat="46.06288022632534" lon="8.780644248581973"><ele>820.0</ele><time>2026-04-25T13:05:02Z</time></trkpt><trkpt lat="46.062800797340266" lon="8.780557312156189"><ele>820.0</ele><time>2026-04-25T13:05:03Z</time></trkpt><trkpt lat="46.06270954194107" lon="8.780449029654859"><ele>820.0</ele><time>2026-04-25T13:05:04Z</time></trkpt><trkpt lat="46.062647727945574" lon="8.780316490697668"><ele>820.0</ele><time>2026-04-25T13:05:05Z</time></trkpt><trkpt lat="46.06259540861391" lon="8.780204996551053"><ele>820.0</ele><time>2026-04-25T13:05:06Z</time></trkpt><trkpt lat="46.062548804297535" lon="8.780107831708817"><ele>822.4999999999999</ele><time>2026-04-25T13:05:07Z</time></trkpt><trkpt lat="46.06253427154092" lon="8.779997622930935"><ele>825.0</ele><time>2026-04-25T13:05:07.999Z</time></trkpt><trkpt lat="46.0625590297449" lon="8.779908901771774"><ele>827.5</ele><time>2026-04-25T13:05:08.999Z</time></trkpt><trkpt lat="46.06263083760704" lon="8.779794041420248"><ele>830.0</ele><time>2026-04-25T13:05:10.999Z</time></trkpt><trkpt lat="46.06266571598708" lon="8.7797143969816"><ele>832.4999999999999</ele><time>2026-04-25T13:05:11.999Z</time></trkpt><trkpt lat="46.062655441622766" lon="8.779603053120674"><ele>835.0</ele><time>2026-04-25T13:05:12.999Z</time></trkpt><trkpt lat="46.06260242900955" lon="8.779518120514103"><ele>835.0</ele><time>2026-04-25T13:05:13.999Z</time></trkpt><trkpt lat="46.06250877033559" lon="8.779477152218059"><ele>835.0</ele><time>2026-04-25T13:05:14.999Z</time></trkpt><trkpt lat="46.062382039197374" lon="8.779465415562763"><ele>835.0</ele><time>2026-04-25T13:05:15.999Z</time></trkpt><trkpt lat="46.062264470493815" lon="8.779414167359057"><ele>835.0</ele><time>2026-04-25T13:05:16.999Z</time></trkpt><trkpt lat="46.062208430697936" lon="8.77936009179909"><ele>835.0</ele><time>2026-04-25T13:05:17.999Z</time></trkpt><trkpt lat="46.062147613520224" lon="8.779276602132988"><ele>831.0</ele><time>2026-04-25T13:05:18.999Z</time></trkpt><trkpt lat="46.062065698802925" lon="8.779138221523905"><ele>827.0</ele><time>2026-04-25T13:05:19.999Z</time></trkpt><trkpt lat="46.062001881977174" lon="8.779006955372262"><ele>823.0</ele><time>2026-04-25T13:05:20.999Z</time></trkpt><trkpt lat="46.061975089717734" lon="8.778897463293752"><ele>819.0</ele><time>2026-04-25T13:05:21.999Z</time></trkpt><trkpt lat="46.061983611178924" lon="8.778777281627868"><ele>815.0</ele><time>2026-04-25T13:05:22.999Z</time></trkpt><trkpt lat="46.061963917289205" lon="8.778644738360125"><ele>815.0</ele><time>2026-04-25T13:05:23.999Z</time></trkpt><trkpt lat="46.06193716556089" lon="8.77855265526511"><ele>815.0</ele><time>2026-04-25T13:05:24.999Z</time></trkpt><trkpt lat="46.06188485626088" lon="8.778469005263753"><ele>815.0</ele><time>2026-04-25T13:05:25.999Z</time></trkpt><trkpt lat="46.06173160133425" lon="8.778454505303724"><ele>815.0</ele><time>2026-04-25T13:05:26.999Z</time></trkpt><trkpt lat="46.06167326641647" lon="8.778390929920036"><ele>815.0</ele><time>2026-04-25T13:05:27.999Z</time></trkpt><trkpt lat="46.061648909449545" lon="8.778283301576954"><ele>817.8</ele><time>2026-04-25T13:05:28.999Z</time></trkpt><trkpt lat="46.06167809057831" lon="8.778175139163908"><ele>820.6</ele><time>2026-04-25T13:05:29.999Z</time></trkpt><trkpt lat="46.06171107729528" lon="8.77802816611984"><ele>823.4000000000001</ele><time>2026-04-25T13:05:30.999Z</time></trkpt><trkpt lat="46.06173407513019" lon="8.777873060615493"><ele>826.2</ele><time>2026-04-25T13:05:31.999Z</time></trkpt><trkpt lat="46.06171197894181" lon="8.777754421404678"><ele>829.0</ele><time>2026-04-25T13:05:32.999Z</time></trkpt><trkpt lat="46.061658222307045" lon="8.777655928646068"><ele>825.1666666666666</ele><time>2026-04-25T13:05:33.999Z</time></trkpt><trkpt lat="46.06160086324732" lon="8.777618055952303"><ele>821.3333333333333</ele><time>2026-04-25T13:05:34.999Z</time></trkpt><trkpt lat="46.06150759048914" lon="8.777608746696137"><ele>817.5</ele><time>2026-04-25T13:05:35.999Z</time></trkpt><trkpt lat="46.0614237706082" lon="8.777634940578672"><ele>813.6666666666667</ele><time>2026-04-25T13:05:36.999Z</time></trkpt><trkpt lat="46.06133602728875" lon="8.777695619750988"><ele>809.8333333333334</ele><time>2026-04-25T13:05:37.999Z</time></trkpt><trkpt lat="46.061253303195926" lon="8.777687215913733"><ele>806.0</ele><time>2026-04-25T13:05:38.999Z</time></trkpt><trkpt lat="46.06121631261176" lon="8.777577824563318"><ele>806.0</ele><time>2026-04-25T13:05:39.999Z</time></trkpt><trkpt lat="46.061181307872" lon="8.777464643119627"><ele>806.0</ele><time>2026-04-25T13:05:40.999Z</time></trkpt><trkpt lat="46.06116230361465" lon="8.777345683852655"><ele>806.0</ele><time>2026-04-25T13:05:41.999Z</time></trkpt><trkpt lat="46.061188548514785" lon="8.777247122657544"><ele>806.0</ele><time>2026-04-25T13:05:42.999Z</time></trkpt><trkpt lat="46.06126618066903" lon="8.777160833504357"><ele>806.0</ele><time>2026-04-25T13:05:43.999Z</time></trkpt><trkpt lat="46.0613480521407" lon="8.777032155308643"><ele>806.0</ele><time>2026-04-25T13:05:44.999Z</time></trkpt><trkpt lat="46.06144169856529" lon="8.77687836004592"><ele>806.0</ele><time>2026-04-25T13:05:45.999Z</time></trkpt><trkpt lat="46.06149894033442" lon="8.776762938580987"><ele>806.0</ele><time>2026-04-25T13:05:46.999Z</time></trkpt><trkpt lat="46.061496219642386" lon="8.77659428063296"><ele>806.0</ele><time>2026-04-25T13:05:48.999Z</time></trkpt><trkpt lat="46.06137906908453" lon="8.776582085502035"><ele>806.0</ele><time>2026-04-25T13:05:50.999Z</time></trkpt><trkpt lat="46.06133202015419" lon="8.77665636907144"><ele>806.0</ele><time>2026-04-25T13:05:51.999Z</time></trkpt><trkpt lat="46.061308916184366" lon="8.776758817622266"><ele>806.0</ele><time>2026-04-25T13:05:52.999Z</time></trkpt><trkpt lat="46.06125929253102" lon="8.776956886487984"><ele>806.0</ele><time>2026-04-25T13:05:53.999Z</time></trkpt><trkpt lat="46.061192290911414" lon="8.7770557929108"><ele>806.0</ele><time>2026-04-25T13:05:54.999Z</time></trkpt><trkpt lat="46.06111876664651" lon="8.777106644704618"><ele>806.0</ele><time>2026-04-25T13:05:55.999Z</time></trkpt><trkpt lat="46.06103480262789" lon="8.777188049901927"><ele>806.0</ele><time>2026-04-25T13:05:56.999Z</time></trkpt><trkpt lat="46.06096345129852" lon="8.777294811033888"><ele>806.0</ele><time>2026-04-25T13:05:57.999Z</time></trkpt><trkpt lat="46.06089101011806" lon="8.777386046976302"><ele>806.0</ele><time>2026-04-25T13:05:58.999Z</time></trkpt><trkpt lat="46.06084433921394" lon="8.77749624873378"><ele>806.0</ele><time>2026-04-25T13:05:59.999Z</time></trkpt><trkpt lat="46.06086701660682" lon="8.777606975441053"><ele>802.8</ele><time>2026-04-25T13:06:00.999Z</time></trkpt><trkpt lat="46.0609155029831" lon="8.777715943412243"><ele>799.5999999999999</ele><time>2026-04-25T13:06:01.999Z</time></trkpt><trkpt lat="46.060972254677694" lon="8.777871618400116"><ele>796.4</ele><time>2026-04-25T13:06:02.999Z</time></trkpt><trkpt lat="46.061041295068556" lon="8.77797801694561"><ele>793.2</ele><time>2026-04-25T13:06:03.999Z</time></trkpt><trkpt lat="46.061109976505335" lon="8.778056258740241"><ele>790.0</ele><time>2026-04-25T13:06:04.999Z</time></trkpt><trkpt lat="46.0611852890174" lon="8.778126645205878"><ele>789.9999999999999</ele><time>2026-04-25T13:06:05.999Z</time></trkpt><trkpt lat="46.06125171620469" lon="8.778202340112866"><ele>790.0</ele><time>2026-04-25T13:06:06.999Z</time></trkpt><trkpt lat="46.06130479528869" lon="8.778289234034252"><ele>790.0</ele><time>2026-04-25T13:06:07.999Z</time></trkpt><trkpt lat="46.06130794775675" lon="8.778409014661726"><ele>790.0</ele><time>2026-04-25T13:06:08.999Z</time></trkpt><trkpt lat="46.06123393753302" lon="8.77847755152189"><ele>789.9999999999999</ele><time>2026-04-25T13:06:09.999Z</time></trkpt><trkpt lat="46.06119714930586" lon="8.778578696630705"><ele>790.0</ele><time>2026-04-25T13:06:10.999Z</time></trkpt><trkpt lat="46.06117789107353" lon="8.778720242206237"><ele>787.0</ele><time>2026-04-25T13:06:11.999Z</time></trkpt><trkpt lat="46.06119712125419" lon="8.778868900425044"><ele>784.0</ele><time>2026-04-25T13:06:12.999Z</time></trkpt><trkpt lat="46.061275101095966" lon="8.779034216109572"><ele>781.0</ele><time>2026-04-25T13:06:13.999Z</time></trkpt><trkpt lat="46.06134883206177" lon="8.77918404510982"><ele>778.0</ele><time>2026-04-25T13:06:14.999Z</time></trkpt><trkpt lat="46.06138479472285" lon="8.779323732041428"><ele>775.2</ele><time>2026-04-25T13:06:16Z</time></trkpt><trkpt lat="46.06139974476094" lon="8.779467016942391"><ele>772.4</ele><time>2026-04-25T13:06:17Z</time></trkpt><trkpt lat="46.0614165861642" lon="8.779644343284353"><ele>769.6</ele><time>2026-04-25T13:06:18Z</time></trkpt><trkpt lat="46.061443319260704" lon="8.779803567315396"><ele>766.8000000000001</ele><time>2026-04-25T13:06:19Z</time></trkpt><trkpt lat="46.06148265372835" lon="8.779937285848986"><ele>764.0</ele><time>2026-04-25T13:06:20Z</time></trkpt><trkpt lat="46.061530311524415" lon="8.78007261201202"><ele>761.1666666666666</ele><time>2026-04-25T13:06:21Z</time></trkpt><trkpt lat="46.06158666345" lon="8.780185639086259"><ele>758.3333333333333</ele><time>2026-04-25T13:06:22Z</time></trkpt><trkpt lat="46.06166965057044" lon="8.780269869446734"><ele>755.5</ele><time>2026-04-25T13:06:23Z</time></trkpt><trkpt lat="46.0617337824628" lon="8.780365857738948"><ele>752.6666666666666</ele><time>2026-04-25T13:06:24Z</time></trkpt><trkpt lat="46.06178899206889" lon="8.780426114502621"><ele>749.8333333333334</ele><time>2026-04-25T13:06:25Z</time></trkpt><trkpt lat="46.061778057514395" lon="8.78055053492624"><ele>747.0</ele><time>2026-04-25T13:06:28Z</time></trkpt><trkpt lat="46.06170488856758" lon="8.780573354655289"><ele>747.0</ele><time>2026-04-25T13:06:29Z</time></trkpt><trkpt lat="46.06165160486571" lon="8.780501418649695"><ele>747.0</ele><time>2026-04-25T13:06:30Z</time></trkpt><trkpt lat="46.0615699146777" lon="8.780408507139013"><ele>747.0</ele><time>2026-04-25T13:06:31Z</time></trkpt><trkpt lat="46.061480300569364" lon="8.780285229217025"><ele>747.0</ele><time>2026-04-25T13:06:32Z</time></trkpt><trkpt lat="46.0614044372969" lon="8.78016015455659"><ele>747.0</ele><time>2026-04-25T13:06:33Z</time></trkpt><trkpt lat="46.0613463290005" lon="8.780035621863975"><ele>750.4000000000001</ele><time>2026-04-25T13:06:34Z</time></trkpt><trkpt lat="46.06128782519337" lon="8.779880185722662"><ele>753.8000000000001</ele><time>2026-04-25T13:06:35Z</time></trkpt><trkpt lat="46.06123294924967" lon="8.77972530515751"><ele>757.2</ele><time>2026-04-25T13:06:36Z</time></trkpt><trkpt lat="46.06117448176275" lon="8.77961436089727"><ele>760.6</ele><time>2026-04-25T13:06:37Z</time></trkpt><trkpt lat="46.06111956000106" lon="8.779489736668332"><ele>764.0</ele><time>2026-04-25T13:06:38Z</time></trkpt><trkpt lat="46.06101149565637" lon="8.779409632444777"><ele>767.5</ele><time>2026-04-25T13:06:39Z</time></trkpt><trkpt lat="46.060910984102286" lon="8.779311360194326"><ele>771.0</ele><time>2026-04-25T13:06:40Z</time></trkpt><trkpt lat="46.060823532728264" lon="8.77918320974245"><ele>774.5</ele><time>2026-04-25T13:06:41Z</time></trkpt><trkpt lat="46.06075200849689" lon="8.779031689985837"><ele>778.0</ele><time>2026-04-25T13:06:42Z</time></trkpt><trkpt lat="46.06070679917314" lon="8.778893483107337"><ele>772.8</ele><time>2026-04-25T13:06:43Z</time></trkpt><trkpt lat="46.06068292609998" lon="8.778752588093349"><ele>767.5999999999999</ele><time>2026-04-25T13:06:44Z</time></trkpt><trkpt lat="46.060657216607076" lon="8.778601102071423"><ele>762.4000000000001</ele><time>2026-04-25T13:06:45Z</time></trkpt><trkpt lat="46.0606265142426" lon="8.778480856425755"><ele>757.2</ele><time>2026-04-25T13:06:46Z</time></trkpt><trkpt lat="46.060553187502194" lon="8.778374683101596"><ele>752.0</ele><time>2026-04-25T13:06:47Z</time></trkpt><trkpt lat="46.06041193312065" lon="8.778280336218458"><ele>752.0</ele><time>2026-04-25T13:06:48Z</time></trkpt><trkpt lat="46.06033013517116" lon="8.77817017169435"><ele>752.0</ele><time>2026-04-25T13:06:49Z</time></trkpt><trkpt lat="46.06028273240529" lon="8.778038637078936"><ele>752.0</ele><time>2026-04-25T13:06:50Z</time></trkpt><trkpt lat="46.06023142749779" lon="8.777841862991119"><ele>752.0</ele><time>2026-04-25T13:06:51Z</time></trkpt><trkpt lat="46.06017151630291" lon="8.777605004213044"><ele>754.75</ele><time>2026-04-25T13:06:52Z</time></trkpt><trkpt lat="46.060112005803916" lon="8.777403393818812"><ele>757.5</ele><time>2026-04-25T13:06:53Z</time></trkpt><trkpt lat="46.060057339791456" lon="8.777238258623306"><ele>760.25</ele><time>2026-04-25T13:06:54Z</time></trkpt><trkpt lat="46.06003776769232" lon="8.777090188311057"><ele>763.0</ele><time>2026-04-25T13:06:55Z</time></trkpt><trkpt lat="46.06001282535355" lon="8.776986902437992"><ele>763.0</ele><time>2026-04-25T13:06:56Z</time></trkpt><trkpt lat="46.05998923909808" lon="8.77689610200393"><ele>763.0</ele><time>2026-04-25T13:06:57Z</time></trkpt><trkpt lat="46.06002314412278" lon="8.77679526668577"><ele>763.0</ele><time>2026-04-25T13:06:58Z</time></trkpt><trkpt lat="46.060093242174126" lon="8.776682264643371"><ele>763.0</ele><time>2026-04-25T13:06:59Z</time></trkpt><trkpt lat="46.06021561549205" lon="8.77660521693229"><ele>763.0</ele><time>2026-04-25T13:07:00Z</time></trkpt><trkpt lat="46.060310323184964" lon="8.776502785920737"><ele>760.5</ele><time>2026-04-25T13:07:01Z</time></trkpt><trkpt lat="46.060384252847506" lon="8.776420185455018"><ele>758.0</ele><time>2026-04-25T13:07:02Z</time></trkpt><trkpt lat="46.06040384896221" lon="8.776280691042412"><ele>755.5</ele><time>2026-04-25T13:07:03Z</time></trkpt><trkpt lat="46.060354960966755" lon="8.776145059799783"><ele>753.0</ele><time>2026-04-25T13:07:04Z</time></trkpt><trkpt lat="46.06033272035455" lon="8.77604794698935"><ele>750.5</ele><time>2026-04-25T13:07:05Z</time></trkpt><trkpt lat="46.06036063512695" lon="8.775950159603305"><ele>748.0</ele><time>2026-04-25T13:07:06Z</time></trkpt><trkpt lat="46.06040172433567" lon="8.77584256078361"><ele>745.2</ele><time>2026-04-25T13:07:07Z</time></trkpt><trkpt lat="46.06042519291977" lon="8.775737121447726"><ele>742.4</ele><time>2026-04-25T13:07:08Z</time></trkpt><trkpt lat="46.06041631059335" lon="8.775604936318926"><ele>739.6</ele><time>2026-04-25T13:07:09Z</time></trkpt><trkpt lat="46.060325370888044" lon="8.77556760031186"><ele>736.8000000000001</ele><time>2026-04-25T13:07:10Z</time></trkpt><trkpt lat="46.06024560596949" lon="8.775674074993006"><ele>734.0</ele><time>2026-04-25T13:07:12Z</time></trkpt><trkpt lat="46.06023525398028" lon="8.7757895635246"><ele>734.0</ele><time>2026-04-25T13:07:13Z</time></trkpt><trkpt lat="46.06026080235622" lon="8.775941737853747"><ele>734.0</ele><time>2026-04-25T13:07:14Z</time></trkpt><trkpt lat="46.06024589967216" lon="8.776146086513483"><ele>734.0</ele><time>2026-04-25T13:07:15Z</time></trkpt><trkpt lat="46.06024804001196" lon="8.77626459656359"><ele>734.0</ele><time>2026-04-25T13:07:16Z</time></trkpt><trkpt lat="46.060214329992164" lon="8.776374723703771"><ele>734.0</ele><time>2026-04-25T13:07:17Z</time></trkpt><trkpt lat="46.06014032374912" lon="8.776439125211198"><ele>736.8000000000001</ele><time>2026-04-25T13:07:18Z</time></trkpt><trkpt lat="46.060033003675926" lon="8.776416917852936"><ele>739.6</ele><time>2026-04-25T13:07:19Z</time></trkpt><trkpt lat="46.059948262415354" lon="8.776485520135239"><ele>742.4</ele><time>2026-04-25T13:07:20Z</time></trkpt><trkpt lat="46.05982534043749" lon="8.77654121301477"><ele>745.2</ele><time>2026-04-25T13:07:21Z</time></trkpt><trkpt lat="46.0597286250176" lon="8.776617254813164"><ele>748.0</ele><time>2026-04-25T13:07:22Z</time></trkpt><trkpt lat="46.05964729138105" lon="8.776688495036364"><ele>740.2</ele><time>2026-04-25T13:07:23Z</time></trkpt><trkpt lat="46.059604962768105" lon="8.77678041964909"><ele>732.4</ele><time>2026-04-25T13:07:24Z</time></trkpt><trkpt lat="46.059603580660124" lon="8.776889560899571"><ele>724.6</ele><time>2026-04-25T13:07:25Z</time></trkpt><trkpt lat="46.05963720273252" lon="8.777047018037978"><ele>716.8000000000001</ele><time>2026-04-25T13:07:26Z</time></trkpt><trkpt lat="46.05965036270863" lon="8.777220587472435"><ele>709.0</ele><time>2026-04-25T13:07:27Z</time></trkpt><trkpt lat="46.05965734367696" lon="8.7774701124208"><ele>705.75</ele><time>2026-04-25T13:07:28Z</time></trkpt><trkpt lat="46.059670375653596" lon="8.777698090274281"><ele>702.5</ele><time>2026-04-25T13:07:29Z</time></trkpt><trkpt lat="46.05968501418447" lon="8.777890492291595"><ele>699.25</ele><time>2026-04-25T13:07:29.999Z</time></trkpt><trkpt lat="46.059712987962584" lon="8.778065561113422"><ele>696.0</ele><time>2026-04-25T13:07:30.999Z</time></trkpt><trkpt lat="46.05973753350942" lon="8.778212076665733"><ele>696.0</ele><time>2026-04-25T13:07:31.999Z</time></trkpt><trkpt lat="46.05978806575552" lon="8.77832621301203"><ele>696.0</ele><time>2026-04-25T13:07:32.999Z</time></trkpt><trkpt lat="46.05983692979481" lon="8.778475718390236"><ele>696.0</ele><time>2026-04-25T13:07:33.999Z</time></trkpt><trkpt lat="46.05987996693437" lon="8.778598866420605"><ele>696.0</ele><time>2026-04-25T13:07:34.999Z</time></trkpt><trkpt lat="46.05991666637554" lon="8.778682717642113"><ele>696.0</ele><time>2026-04-25T13:07:35.999Z</time></trkpt><trkpt lat="46.05982595250928" lon="8.778781995089028"><ele>696.0</ele><time>2026-04-25T13:07:38.999Z</time></trkpt><trkpt lat="46.059780393347424" lon="8.778709690945123"><ele>696.0</ele><time>2026-04-25T13:07:39.999Z</time></trkpt><trkpt lat="46.05979122795299" lon="8.778602343220207"><ele>696.0</ele><time>2026-04-25T13:07:40.999Z</time></trkpt><trkpt lat="46.05977473359848" lon="8.778457940513709"><ele>696.0</ele><time>2026-04-25T13:07:41.999Z</time></trkpt><trkpt lat="46.05971532228008" lon="8.778246030800611"><ele>696.0</ele><time>2026-04-25T13:07:42.999Z</time></trkpt><trkpt lat="46.059645443450094" lon="8.778059818869947"><ele>696.0</ele><time>2026-04-25T13:07:43.999Z</time></trkpt><trkpt lat="46.0595796097296" lon="8.777875603717755"><ele>696.0</ele><time>2026-04-25T13:07:44.999Z</time></trkpt><trkpt lat="46.05951622460627" lon="8.777674798287121"><ele>696.0</ele><time>2026-04-25T13:07:45.999Z</time></trkpt><trkpt lat="46.05945298698486" lon="8.777462041393145"><ele>699.25</ele><time>2026-04-25T13:07:46.999Z</time></trkpt><trkpt lat="46.059386566150245" lon="8.777284590492624"><ele>702.5</ele><time>2026-04-25T13:07:47.999Z</time></trkpt><trkpt lat="46.059332339625556" lon="8.777094923712454"><ele>705.75</ele><time>2026-04-25T13:07:48.999Z</time></trkpt><trkpt lat="46.05928944679301" lon="8.776924086372212"><ele>709.0</ele><time>2026-04-25T13:07:49.999Z</time></trkpt><trkpt lat="46.05928121284787" lon="8.776803110622131"><ele>709.0</ele><time>2026-04-25T13:07:50.999Z</time></trkpt><trkpt lat="46.059317348173224" lon="8.776623189337823"><ele>709.0</ele><time>2026-04-25T13:07:51.999Z</time></trkpt><trkpt lat="46.05934507124704" lon="8.776495284067892"><ele>709.0</ele><time>2026-04-25T13:07:52.999Z</time></trkpt><trkpt lat="46.05935149079583" lon="8.776386790297558"><ele>709.0</ele><time>2026-04-25T13:07:53.999Z</time></trkpt><trkpt lat="46.05933427785382" lon="8.776289247317099"><ele>709.0</ele><time>2026-04-25T13:07:55.999Z</time></trkpt><trkpt lat="46.05927004887696" lon="8.776285749010071"><ele>709.0</ele><time>2026-04-25T13:07:56.999Z</time></trkpt><trkpt lat="46.05920736164735" lon="8.77634677711628"><ele>709.0</ele><time>2026-04-25T13:07:57.999Z</time></trkpt><trkpt lat="46.059180967930345" lon="8.77647489567244"><ele>709.0</ele><time>2026-04-25T13:07:58.999Z</time></trkpt><trkpt lat="46.05918967226991" lon="8.77664350227047"><ele>709.0</ele><time>2026-04-25T13:07:59.999Z</time></trkpt><trkpt lat="46.05919019097452" lon="8.776837159240147"><ele>709.0</ele><time>2026-04-25T13:08:00.999Z</time></trkpt><trkpt lat="46.059193914664284" lon="8.777037833436772"><ele>709.0</ele><time>2026-04-25T13:08:01.999Z</time></trkpt><trkpt lat="46.05921272017558" lon="8.777240096815076"><ele>709.0</ele><time>2026-04-25T13:08:02.999Z</time></trkpt><trkpt lat="46.059258397455814" lon="8.777424755938158"><ele>709.0</ele><time>2026-04-25T13:08:03.999Z</time></trkpt><trkpt lat="46.05928945240475" lon="8.777612691376564"><ele>709.0</ele><time>2026-04-25T13:08:04.999Z</time></trkpt><trkpt lat="46.059319677623606" lon="8.777803341942947"><ele>705.75</ele><time>2026-04-25T13:08:05.999Z</time></trkpt><trkpt lat="46.05934583270607" lon="8.777993577204928"><ele>702.5</ele><time>2026-04-25T13:08:06.999Z</time></trkpt><trkpt lat="46.059376128017846" lon="8.778170688047235"><ele>699.25</ele><time>2026-04-25T13:08:07.999Z</time></trkpt><trkpt lat="46.059401579539006" lon="8.77833979965885"><ele>696.0</ele><time>2026-04-25T13:08:08.999Z</time></trkpt><trkpt lat="46.05942367256169" lon="8.778493022341573"><ele>693.5999999999999</ele><time>2026-04-25T13:08:09.999Z</time></trkpt><trkpt lat="46.05944759347348" lon="8.778627070015258"><ele>691.2</ele><time>2026-04-25T13:08:10.999Z</time></trkpt><trkpt lat="46.059464679988814" lon="8.778760835937963"><ele>688.8</ele><time>2026-04-25T13:08:11.999Z</time></trkpt><trkpt lat="46.05947960169531" lon="8.778895356117593"><ele>686.4000000000001</ele><time>2026-04-25T13:08:12.999Z</time></trkpt><trkpt lat="46.05949778848223" lon="8.7790529483137"><ele>684.0</ele><time>2026-04-25T13:08:13.999Z</time></trkpt><trkpt lat="46.0595271087833" lon="8.779184128735915"><ele>684.0</ele><time>2026-04-25T13:08:14.999Z</time></trkpt><trkpt lat="46.05955829385307" lon="8.779277969519372"><ele>684.0</ele><time>2026-04-25T13:08:15.999Z</time></trkpt><trkpt lat="46.05962273204675" lon="8.779316394104926"><ele>684.0</ele><time>2026-04-25T13:08:16.999Z</time></trkpt><trkpt lat="46.05970129897344" lon="8.779319070769809"><ele>684.0</ele><time>2026-04-25T13:08:17.999Z</time></trkpt><trkpt lat="46.05981375467933" lon="8.779296377874939"><ele>684.0</ele><time>2026-04-25T13:08:18.999Z</time></trkpt><trkpt lat="46.059887920867894" lon="8.779306322331506"><ele>684.0</ele><time>2026-04-25T13:08:19.999Z</time></trkpt><trkpt lat="46.0599108366191" lon="8.779403824821685"><ele>680.2</ele><time>2026-04-25T13:08:21Z</time></trkpt><trkpt lat="46.05991442932951" lon="8.779520973634405"><ele>676.4000000000001</ele><time>2026-04-25T13:08:22Z</time></trkpt><trkpt lat="46.05986931063765" lon="8.77966106817371"><ele>672.6</ele><time>2026-04-25T13:08:23Z</time></trkpt><trkpt lat="46.05979613672543" lon="8.779797466050006"><ele>668.8</ele><time>2026-04-25T13:08:24Z</time></trkpt><trkpt lat="46.05979452567887" lon="8.779909511666709"><ele>665.0</ele><time>2026-04-25T13:08:25Z</time></trkpt><trkpt lat="46.05978071789637" lon="8.78005334655463"><ele>661.0</ele><time>2026-04-25T13:08:26Z</time></trkpt><trkpt lat="46.05981718626615" lon="8.780188438055408"><ele>657.0</ele><time>2026-04-25T13:08:27Z</time></trkpt><trkpt lat="46.05990993321792" lon="8.780400174111087"><ele>653.0</ele><time>2026-04-25T13:08:28Z</time></trkpt><trkpt lat="46.05997273397441" lon="8.78057406987443"><ele>649.0</ele><time>2026-04-25T13:08:29Z</time></trkpt><trkpt lat="46.0600260718879" lon="8.780683014633238"><ele>655.0</ele><time>2026-04-25T13:08:30Z</time></trkpt><trkpt lat="46.06010719219981" lon="8.780785993573804"><ele>661.0</ele><time>2026-04-25T13:08:31Z</time></trkpt><trkpt lat="46.06018039286517" lon="8.780854927426079"><ele>667.0</ele><time>2026-04-25T13:08:32Z</time></trkpt><trkpt lat="46.06016704367779" lon="8.780977317119621"><ele>673.0</ele><time>2026-04-25T13:08:33Z</time></trkpt><trkpt lat="46.0601310933109" lon="8.781084325277003"><ele>679.0</ele><time>2026-04-25T13:08:34Z</time></trkpt><trkpt lat="46.06014158641758" lon="8.78121273394975"><ele>679.0</ele><time>2026-04-25T13:08:35Z</time></trkpt><trkpt lat="46.06017860794215" lon="8.781356248190729"><ele>679.0</ele><time>2026-04-25T13:08:36Z</time></trkpt><trkpt lat="46.060232192589986" lon="8.78157321605175"><ele>679.0</ele><time>2026-04-25T13:08:37Z</time></trkpt><trkpt lat="46.060316562450005" lon="8.781765744785723"><ele>679.0</ele><time>2026-04-25T13:08:38Z</time></trkpt><trkpt lat="46.06039077115549" lon="8.781938699640037"><ele>676.4000000000001</ele><time>2026-04-25T13:08:39Z</time></trkpt><trkpt lat="46.06046302203851" lon="8.782106578850911"><ele>673.8</ele><time>2026-04-25T13:08:40Z</time></trkpt><trkpt lat="46.06055251688259" lon="8.782251769069655"><ele>671.2</ele><time>2026-04-25T13:08:41Z</time></trkpt><trkpt lat="46.06051630566381" lon="8.782377124689818"><ele>668.5999999999999</ele><time>2026-04-25T13:08:42Z</time></trkpt><trkpt lat="46.06054344420192" lon="8.782473887642379"><ele>666.0</ele><time>2026-04-25T13:08:43Z</time></trkpt><trkpt lat="46.06061192430599" lon="8.782616217149538"><ele>666.0</ele><time>2026-04-25T13:08:45Z</time></trkpt><trkpt lat="46.06069055692367" lon="8.782663319405613"><ele>666.0</ele><time>2026-04-25T13:08:46Z</time></trkpt><trkpt lat="46.06078105269259" lon="8.782717444427767"><ele>666.0</ele><time>2026-04-25T13:08:47Z</time></trkpt><trkpt lat="46.06076268640478" lon="8.782842264195493"><ele>666.0</ele><time>2026-04-25T13:08:48Z</time></trkpt><trkpt lat="46.06074252418777" lon="8.782976354094792"><ele>666.0</ele><time>2026-04-25T13:08:49Z</time></trkpt><trkpt lat="46.06072595115946" lon="8.783153521030437"><ele>668.75</ele><time>2026-04-25T13:08:50Z</time></trkpt><trkpt lat="46.060721972394816" lon="8.7833407454384"><ele>671.5</ele><time>2026-04-25T13:08:51Z</time></trkpt><trkpt lat="46.06072362535703" lon="8.783492606460293"><ele>674.25</ele><time>2026-04-25T13:08:52Z</time></trkpt><trkpt lat="46.06075474411305" lon="8.783677967261537"><ele>677.0</ele><time>2026-04-25T13:08:53Z</time></trkpt><trkpt lat="46.06081919966613" lon="8.783858854412731"><ele>677.0</ele><time>2026-04-25T13:08:54Z</time></trkpt><trkpt lat="46.060877905792445" lon="8.784007652019726"><ele>677.0</ele><time>2026-04-25T13:08:55Z</time></trkpt><trkpt lat="46.060935695447554" lon="8.784114776330597"><ele>677.0</ele><time>2026-04-25T13:08:56Z</time></trkpt><trkpt lat="46.060957830186915" lon="8.784237065150666"><ele>677.0</ele><time>2026-04-25T13:08:58Z</time></trkpt><trkpt lat="46.06087089240715" lon="8.784278622748166"><ele>677.0</ele><time>2026-04-25T13:09:00Z</time></trkpt><trkpt lat="46.06081581557799" lon="8.784199310725024"><ele>677.0</ele><time>2026-04-25T13:09:01Z</time></trkpt><trkpt lat="46.06082702960735" lon="8.784090686751066"><ele>677.0</ele><time>2026-04-25T13:09:02Z</time></trkpt><trkpt lat="46.06078341601752" lon="8.783906739408494"><ele>677.0</ele><time>2026-04-25T13:09:03Z</time></trkpt><trkpt lat="46.06069822987016" lon="8.783717122834169"><ele>677.0</ele><time>2026-04-25T13:09:04Z</time></trkpt><trkpt lat="46.0606105581612" lon="8.783544528318977"><ele>671.4000000000001</ele><time>2026-04-25T13:09:05Z</time></trkpt><trkpt lat="46.060549135959924" lon="8.783393620828315"><ele>665.8000000000001</ele><time>2026-04-25T13:09:06Z</time></trkpt><trkpt lat="46.06057071757742" lon="8.783220173327779"><ele>660.2</ele><time>2026-04-25T13:09:07Z</time></trkpt><trkpt lat="46.06054745242251" lon="8.783076804486035"><ele>654.6</ele><time>2026-04-25T13:09:08Z</time></trkpt><trkpt lat="46.0605007662582" lon="8.782952809193148"><ele>649.0</ele><time>2026-04-25T13:09:09Z</time></trkpt><trkpt lat="46.06043623713186" lon="8.782841543807095"><ele>649.0</ele><time>2026-04-25T13:09:10Z</time></trkpt><trkpt lat="46.06034591162535" lon="8.782770647123622"><ele>649.0</ele><time>2026-04-25T13:09:11Z</time></trkpt><trkpt lat="46.060232936615115" lon="8.782725097563334"><ele>649.0</ele><time>2026-04-25T13:09:12Z</time></trkpt><trkpt lat="46.06019309984593" lon="8.782583301526474"><ele>649.0</ele><time>2026-04-25T13:09:13Z</time></trkpt><trkpt lat="46.060161805897614" lon="8.782411709293232"><ele>649.0</ele><time>2026-04-25T13:09:14Z</time></trkpt><trkpt lat="46.060109848836866" lon="8.782234224375834"><ele>647.0</ele><time>2026-04-25T13:09:15Z</time></trkpt><trkpt lat="46.060041546561315" lon="8.782077616449273"><ele>645.0</ele><time>2026-04-25T13:09:16Z</time></trkpt><trkpt lat="46.05993862131046" lon="8.781944151063794"><ele>643.0</ele><time>2026-04-25T13:09:17Z</time></trkpt><trkpt lat="46.05983417761788" lon="8.781821401869685"><ele>641.0</ele><time>2026-04-25T13:09:18Z</time></trkpt><trkpt lat="46.05976941653248" lon="8.781694996687076"><ele>641.0</ele><time>2026-04-25T13:09:19Z</time></trkpt><trkpt lat="46.05972746095546" lon="8.781553395888766"><ele>641.0</ele><time>2026-04-25T13:09:20Z</time></trkpt><trkpt lat="46.05971736593706" lon="8.781435231874326"><ele>641.0</ele><time>2026-04-25T13:09:21Z</time></trkpt><trkpt lat="46.059686147817615" lon="8.78131275684699"><ele>641.0</ele><time>2026-04-25T13:09:22Z</time></trkpt><trkpt lat="46.059621425037946" lon="8.781205740845895"><ele>641.0</ele><time>2026-04-25T13:09:23Z</time></trkpt><trkpt lat="46.05950363125859" lon="8.78117654833214"><ele>641.0</ele><time>2026-04-25T13:09:24Z</time></trkpt><trkpt lat="46.05939032270079" lon="8.781164461876347"><ele>641.0</ele><time>2026-04-25T13:09:25Z</time></trkpt><trkpt lat="46.05930560381265" lon="8.781133070531673"><ele>641.0</ele><time>2026-04-25T13:09:26Z</time></trkpt><trkpt lat="46.05928438326361" lon="8.780990084893991"><ele>641.0</ele><time>2026-04-25T13:09:27Z</time></trkpt><trkpt lat="46.05926749239408" lon="8.780879949182216"><ele>641.0</ele><time>2026-04-25T13:09:28Z</time></trkpt><trkpt lat="46.059242019065906" lon="8.780672635395524"><ele>643.0</ele><time>2026-04-25T13:09:29Z</time></trkpt><trkpt lat="46.05920306959305" lon="8.780424521628138"><ele>645.0</ele><time>2026-04-25T13:09:30Z</time></trkpt><trkpt lat="46.05916936108787" lon="8.780244358408657"><ele>647.0</ele><time>2026-04-25T13:09:31Z</time></trkpt><trkpt lat="46.05914122358217" lon="8.780124057160307"><ele>649.0</ele><time>2026-04-25T13:09:32Z</time></trkpt><trkpt lat="46.05909393289263" lon="8.780032052746744"><ele>640.0</ele><time>2026-04-25T13:09:33Z</time></trkpt><trkpt lat="46.05899276274119" lon="8.780024480713253"><ele>631.0</ele><time>2026-04-25T13:09:34Z</time></trkpt><trkpt lat="46.05892034029624" lon="8.779953934582382"><ele>622.0</ele><time>2026-04-25T13:09:35Z</time></trkpt><trkpt lat="46.058833904313595" lon="8.779743192344322"><ele>613.0</ele><time>2026-04-25T13:09:37Z</time></trkpt><trkpt lat="46.058765233649225" lon="8.77956572022799"><ele>613.0</ele><time>2026-04-25T13:09:38Z</time></trkpt><trkpt lat="46.058688496644166" lon="8.77936391663468"><ele>613.0</ele><time>2026-04-25T13:09:39Z</time></trkpt><trkpt lat="46.05861043068543" lon="8.779157673773572"><ele>613.0</ele><time>2026-04-25T13:09:40Z</time></trkpt><trkpt lat="46.05853416959491" lon="8.778942116243964"><ele>618.25</ele><time>2026-04-25T13:09:41Z</time></trkpt><trkpt lat="46.05846418946818" lon="8.778729299839823"><ele>623.5</ele><time>2026-04-25T13:09:42Z</time></trkpt><trkpt lat="46.05840042265027" lon="8.778534165634827"><ele>628.75</ele><time>2026-04-25T13:09:43Z</time></trkpt><trkpt lat="46.05834449596846" lon="8.778361847746956"><ele>634.0</ele><time>2026-04-25T13:09:44Z</time></trkpt><trkpt lat="46.05828946654449" lon="8.778193911998915"><ele>627.4</ele><time>2026-04-25T13:09:45Z</time></trkpt><trkpt lat="46.058234351873686" lon="8.778044414565393"><ele>620.8</ele><time>2026-04-25T13:09:46Z</time></trkpt><trkpt lat="46.05819020985066" lon="8.777913733031724"><ele>614.2</ele><time>2026-04-25T13:09:47Z</time></trkpt><trkpt lat="46.0581731567677" lon="8.777804676855737"><ele>607.6</ele><time>2026-04-25T13:09:48Z</time></trkpt><trkpt lat="46.05823084217146" lon="8.77769326642856"><ele>601.0</ele><time>2026-04-25T13:09:49Z</time></trkpt><trkpt lat="46.05823325850175" lon="8.777568431719152"><ele>601.0</ele><time>2026-04-25T13:09:50Z</time></trkpt><trkpt lat="46.05821601805278" lon="8.777367694666374"><ele>601.0</ele><time>2026-04-25T13:09:51Z</time></trkpt><trkpt lat="46.05816680794061" lon="8.777226404498279"><ele>601.0</ele><time>2026-04-25T13:09:52Z</time></trkpt><trkpt lat="46.05813109802559" lon="8.777052601362962"><ele>601.0</ele><time>2026-04-25T13:09:53Z</time></trkpt><trkpt lat="46.05809321514379" lon="8.776877609569203"><ele>600.75</ele><time>2026-04-25T13:09:54Z</time></trkpt><trkpt lat="46.05805769230134" lon="8.776701513061408"><ele>600.5</ele><time>2026-04-25T13:09:54.999Z</time></trkpt><trkpt lat="46.0580217853349" lon="8.77650919827667"><ele>600.25</ele><time>2026-04-25T13:09:56Z</time></trkpt><trkpt lat="46.057987433057576" lon="8.77632161053793"><ele>600.0</ele><time>2026-04-25T13:09:56.999Z</time></trkpt><trkpt lat="46.057951944830215" lon="8.776128782384168"><ele>600.4</ele><time>2026-04-25T13:09:57.999Z</time></trkpt><trkpt lat="46.05791973500166" lon="8.7759567930635"><ele>600.8</ele><time>2026-04-25T13:09:58.999Z</time></trkpt><trkpt lat="46.05789183099354" lon="8.775811504522395"><ele>601.2</ele><time>2026-04-25T13:09:59.999Z</time></trkpt><trkpt lat="46.05786520779253" lon="8.775681577123295"><ele>601.6</ele><time>2026-04-25T13:10:00.999Z</time></trkpt><trkpt lat="46.057851429779376" lon="8.775578804704152"><ele>602.0</ele><time>2026-04-25T13:10:01.999Z</time></trkpt><trkpt lat="46.05784875844609" lon="8.775478413413985"><ele>602.0</ele><time>2026-04-25T13:10:02.999Z</time></trkpt><trkpt lat="46.05789895742186" lon="8.775391205534687"><ele>602.0</ele><time>2026-04-25T13:10:03.999Z</time></trkpt><trkpt lat="46.05799067861689" lon="8.77536164755764"><ele>602.0</ele><time>2026-04-25T13:10:04.999Z</time></trkpt><trkpt lat="46.05808979656485" lon="8.775288996683829"><ele>602.0</ele><time>2026-04-25T13:10:05.999Z</time></trkpt><trkpt lat="46.058177325708805" lon="8.775210102616358"><ele>602.0</ele><time>2026-04-25T13:10:06.999Z</time></trkpt><trkpt lat="46.05822845814609" lon="8.77514840223196"><ele>603.6</ele><time>2026-04-25T13:10:07.999Z</time></trkpt><trkpt lat="46.05827505719166" lon="8.775071064690763"><ele>605.2</ele><time>2026-04-25T13:10:08.999Z</time></trkpt><trkpt lat="46.05823508696005" lon="8.774937728077642"><ele>606.8</ele><time>2026-04-25T13:10:09.999Z</time></trkpt><trkpt lat="46.05821626176962" lon="8.774830295388204"><ele>608.4</ele><time>2026-04-25T13:10:10.999Z</time></trkpt><trkpt lat="46.05813832296021" lon="8.774741152464625"><ele>610.0</ele><time>2026-04-25T13:10:11.999Z</time></trkpt><trkpt lat="46.05802429075887" lon="8.774754802702816"><ele>610.0</ele><time>2026-04-25T13:10:12.999Z</time></trkpt><trkpt lat="46.05790415959457" lon="8.77477324758375"><ele>610.0</ele><time>2026-04-25T13:10:13.999Z</time></trkpt><trkpt lat="46.05778028745668" lon="8.774842246778343"><ele>610.0</ele><time>2026-04-25T13:10:14.999Z</time></trkpt><trkpt lat="46.05766854261077" lon="8.774916398366793"><ele>610.0</ele><time>2026-04-25T13:10:15.999Z</time></trkpt><trkpt lat="46.0575482843336" lon="8.774965409835856"><ele>605.2</ele><time>2026-04-25T13:10:16.999Z</time></trkpt><trkpt lat="46.057445429614816" lon="8.774966422277005"><ele>600.4</ele><time>2026-04-25T13:10:17.999Z</time></trkpt><trkpt lat="46.05736756834153" lon="8.774892598905618"><ele>595.6</ele><time>2026-04-25T13:10:18.999Z</time></trkpt><trkpt lat="46.0573603264013" lon="8.774754287003486"><ele>590.8</ele><time>2026-04-25T13:10:20.999Z</time></trkpt><trkpt lat="46.05734111916225" lon="8.774607820825901"><ele>586.0</ele><time>2026-04-25T13:10:21.999Z</time></trkpt><trkpt lat="46.057296339033456" lon="8.77443642266793"><ele>591.25</ele><time>2026-04-25T13:10:22.999Z</time></trkpt><trkpt lat="46.05720886824943" lon="8.774295172126768"><ele>596.5</ele><time>2026-04-25T13:10:23.999Z</time></trkpt><trkpt lat="46.05707865918343" lon="8.774227512993273"><ele>601.75</ele><time>2026-04-25T13:10:25.999Z</time></trkpt><trkpt lat="46.05695762315822" lon="8.774196684109993"><ele>607.0</ele><time>2026-04-25T13:10:27Z</time></trkpt><trkpt lat="46.05684110828856" lon="8.774200140904872"><ele>607.0</ele><time>2026-04-25T13:10:28Z</time></trkpt><trkpt lat="46.05672542750876" lon="8.774257996693942"><ele>607.0</ele><time>2026-04-25T13:10:29Z</time></trkpt><trkpt lat="46.056612571695" lon="8.774311447472398"><ele>607.0</ele><time>2026-04-25T13:10:30Z</time></trkpt><trkpt lat="46.05652989732262" lon="8.774341243997814"><ele>607.0</ele><time>2026-04-25T13:10:31Z</time></trkpt><trkpt lat="46.05644319649936" lon="8.774316763936294"><ele>607.0</ele><time>2026-04-25T13:10:32Z</time></trkpt><trkpt lat="46.05637498502801" lon="8.774295576955664"><ele>600.8000000000001</ele><time>2026-04-25T13:10:33Z</time></trkpt><trkpt lat="46.05632717841693" lon="8.774145603434492"><ele>594.6</ele><time>2026-04-25T13:10:35Z</time></trkpt><trkpt lat="46.05630442905116" lon="8.774039193803178"><ele>588.4000000000001</ele><time>2026-04-25T13:10:36Z</time></trkpt><trkpt lat="46.05628865590211" lon="8.773918585982484"><ele>582.2</ele><time>2026-04-25T13:10:37Z</time></trkpt><trkpt lat="46.05629013199598" lon="8.773773833429907"><ele>576.0</ele><time>2026-04-25T13:10:38Z</time></trkpt><trkpt lat="46.056270573334636" lon="8.773644937803477"><ele>576.0</ele><time>2026-04-25T13:10:39Z</time></trkpt><trkpt lat="46.05627776496876" lon="8.773526708340809"><ele>576.0</ele><time>2026-04-25T13:10:40Z</time></trkpt><trkpt lat="46.056276720928" lon="8.773418477646459"><ele>576.0</ele><time>2026-04-25T13:10:41Z</time></trkpt><trkpt lat="46.056262231344725" lon="8.773308818552724"><ele>576.0</ele><time>2026-04-25T13:10:42Z</time></trkpt><trkpt lat="46.05625092613971" lon="8.77317799815276"><ele>576.0</ele><time>2026-04-25T13:10:43Z</time></trkpt><trkpt lat="46.056233530250864" lon="8.77301746963229"><ele>576.0</ele><time>2026-04-25T13:10:44Z</time></trkpt><trkpt lat="46.05622143379466" lon="8.772852002252353"><ele>577.4</ele><time>2026-04-25T13:10:45Z</time></trkpt><trkpt lat="46.056199480566434" lon="8.772678625541419"><ele>578.8</ele><time>2026-04-25T13:10:46Z</time></trkpt><trkpt lat="46.05617029805399" lon="8.77252135725235"><ele>580.1999999999999</ele><time>2026-04-25T13:10:47Z</time></trkpt><trkpt lat="46.0561533623778" lon="8.772377861388204"><ele>581.6</ele><time>2026-04-25T13:10:48Z</time></trkpt><trkpt lat="46.05616209492499" lon="8.772247314997605"><ele>583.0</ele><time>2026-04-25T13:10:49Z</time></trkpt><trkpt lat="46.056220464108684" lon="8.772131694955641"><ele>583.0</ele><time>2026-04-25T13:10:50Z</time></trkpt><trkpt lat="46.056266861340966" lon="8.77203373768516"><ele>583.0</ele><time>2026-04-25T13:10:51Z</time></trkpt><trkpt lat="46.05634271686078" lon="8.771938604248952"><ele>583.0</ele><time>2026-04-25T13:10:52Z</time></trkpt><trkpt lat="46.05642497841281" lon="8.771850526051749"><ele>583.0</ele><time>2026-04-25T13:10:53Z</time></trkpt><trkpt lat="46.056473341141256" lon="8.77175058692679"><ele>583.0</ele><time>2026-04-25T13:10:54Z</time></trkpt><trkpt lat="46.0565075327625" lon="8.771647444658589"><ele>583.0</ele><time>2026-04-25T13:10:55Z</time></trkpt><trkpt lat="46.05646611131106" lon="8.771515442382832"><ele>580.75</ele><time>2026-04-25T13:10:56Z</time></trkpt><trkpt lat="46.05639391008634" lon="8.771377355371714"><ele>578.5</ele><time>2026-04-25T13:10:57Z</time></trkpt><trkpt lat="46.056332147893634" lon="8.771201844492193"><ele>576.25</ele><time>2026-04-25T13:10:58Z</time></trkpt><trkpt lat="46.05626958681213" lon="8.771050439994214"><ele>574.0</ele><time>2026-04-25T13:10:59Z</time></trkpt><trkpt lat="46.05621972811343" lon="8.770918321249308"><ele>574.0</ele><time>2026-04-25T13:11:00Z</time></trkpt><trkpt lat="46.056193677606245" lon="8.770789651721902"><ele>574.0</ele><time>2026-04-25T13:11:01Z</time></trkpt><trkpt lat="46.05618044301585" lon="8.770659149802649"><ele>574.0</ele><time>2026-04-25T13:11:02Z</time></trkpt><trkpt lat="46.05622508425672" lon="8.77049340696855"><ele>574.0</ele><time>2026-04-25T13:11:03Z</time></trkpt><trkpt lat="46.056265039556465" lon="8.77032323936699"><ele>574.0</ele><time>2026-04-25T13:11:04Z</time></trkpt><trkpt lat="46.056289886289946" lon="8.770158148343052"><ele>571.2</ele><time>2026-04-25T13:11:05Z</time></trkpt><trkpt lat="46.05631395176356" lon="8.770037168926173"><ele>568.4</ele><time>2026-04-25T13:11:06Z</time></trkpt><trkpt lat="46.056341250438685" lon="8.769875554160002"><ele>565.6</ele><time>2026-04-25T13:11:07Z</time></trkpt><trkpt lat="46.05641613737962" lon="8.769759540133391"><ele>562.8</ele><time>2026-04-25T13:11:08Z</time></trkpt><trkpt lat="46.0564989556503" lon="8.769619596222503"><ele>560.0</ele><time>2026-04-25T13:11:09Z</time></trkpt><trkpt lat="46.056587683107736" lon="8.76944259489877"><ele>568.6666666666666</ele><time>2026-04-25T13:11:10Z</time></trkpt><trkpt lat="46.05666011927518" lon="8.769225855821386"><ele>577.3333333333334</ele><time>2026-04-25T13:11:11Z</time></trkpt><trkpt lat="46.05671386121398" lon="8.768998589814133"><ele>586.0</ele><time>2026-04-25T13:11:12Z</time></trkpt><trkpt lat="46.05673969583781" lon="8.768795140994328"><ele>586.0</ele><time>2026-04-25T13:11:13Z</time></trkpt><trkpt lat="46.05677109923194" lon="8.768621091176074"><ele>586.0</ele><time>2026-04-25T13:11:14Z</time></trkpt><trkpt lat="46.05678537539412" lon="8.768473795064102"><ele>586.0</ele><time>2026-04-25T13:11:15Z</time></trkpt><trkpt lat="46.0568078025897" lon="8.768327765989135"><ele>586.0</ele><time>2026-04-25T13:11:16Z</time></trkpt><trkpt lat="46.05686494959723" lon="8.768223395886318"><ele>586.0</ele><time>2026-04-25T13:11:17Z</time></trkpt><trkpt lat="46.05693958622803" lon="8.768192555924118"><ele>582.0</ele><time>2026-04-25T13:11:18Z</time></trkpt><trkpt lat="46.05702262317743" lon="8.768230059394584"><ele>578.0</ele><time>2026-04-25T13:11:19Z</time></trkpt><trkpt lat="46.05709708937164" lon="8.76821318326137"><ele>574.0</ele><time>2026-04-25T13:11:20Z</time></trkpt><trkpt lat="46.05715459765128" lon="8.768155961783382"><ele>570.0</ele><time>2026-04-25T13:11:21Z</time></trkpt><trkpt lat="46.057178925706786" lon="8.767991819439493"><ele>566.0</ele><time>2026-04-25T13:11:22Z</time></trkpt><trkpt lat="46.05720151436051" lon="8.76782174683759"><ele>563.0</ele><time>2026-04-25T13:11:23Z</time></trkpt><trkpt lat="46.05726460107677" lon="8.767656001077228"><ele>560.0</ele><time>2026-04-25T13:11:24Z</time></trkpt><trkpt lat="46.057315371723845" lon="8.767466374509821"><ele>557.0</ele><time>2026-04-25T13:11:25Z</time></trkpt><trkpt lat="46.05737286301502" lon="8.767319635928262"><ele>554.0</ele><time>2026-04-25T13:11:26Z</time></trkpt><trkpt lat="46.057411090174426" lon="8.767185680379692"><ele>554.0</ele><time>2026-04-25T13:11:27Z</time></trkpt><trkpt lat="46.05743757248649" lon="8.767060597909257"><ele>554.0</ele><time>2026-04-25T13:11:28Z</time></trkpt><trkpt lat="46.05738083350734" lon="8.766926120659326"><ele>554.0</ele><time>2026-04-25T13:11:29Z</time></trkpt><trkpt lat="46.05732359937668" lon="8.766767765624252"><ele>554.0</ele><time>2026-04-25T13:11:30Z</time></trkpt><trkpt lat="46.05723861662308" lon="8.766584307408872"><ele>556.75</ele><time>2026-04-25T13:11:31Z</time></trkpt><trkpt lat="46.0571508669618" lon="8.766389518411769"><ele>559.5</ele><time>2026-04-25T13:11:32Z</time></trkpt><trkpt lat="46.05707598762013" lon="8.766207606423187"><ele>562.25</ele><time>2026-04-25T13:11:33Z</time></trkpt><trkpt lat="46.05700973564014" lon="8.766045257104391"><ele>565.0</ele><time>2026-04-25T13:11:34Z</time></trkpt><trkpt lat="46.05694949745667" lon="8.765905054605017"><ele>573.4</ele><time>2026-04-25T13:11:35Z</time></trkpt><trkpt lat="46.05689381423375" lon="8.765804586224354"><ele>581.8</ele><time>2026-04-25T13:11:36Z</time></trkpt><trkpt lat="46.05678621026476" lon="8.765728953626539"><ele>590.2</ele><time>2026-04-25T13:11:38Z</time></trkpt><trkpt lat="46.05670780132077" lon="8.76577633915798"><ele>598.6</ele><time>2026-04-25T13:11:39Z</time></trkpt><trkpt lat="46.056622070267814" lon="8.76587323124262"><ele>607.0</ele><time>2026-04-25T13:11:40Z</time></trkpt><trkpt lat="46.05654528230516" lon="8.766009877441675"><ele>603.4</ele><time>2026-04-25T13:11:41Z</time></trkpt><trkpt lat="46.05650388489478" lon="8.766148342816187"><ele>599.8000000000001</ele><time>2026-04-25T13:11:42Z</time></trkpt><trkpt lat="46.05650681270324" lon="8.76627765796739"><ele>596.2</ele><time>2026-04-25T13:11:43Z</time></trkpt><trkpt lat="46.05654677779625" lon="8.766427504336347"><ele>592.6</ele><time>2026-04-25T13:11:44Z</time></trkpt><trkpt lat="46.05659854023068" lon="8.76660484457024"><ele>589.0</ele><time>2026-04-25T13:11:45Z</time></trkpt><trkpt lat="46.05659067245262" lon="8.766705566550103"><ele>589.0</ele><time>2026-04-25T13:11:46Z</time></trkpt><trkpt lat="46.05655555956174" lon="8.766804452093265"><ele>589.0</ele><time>2026-04-25T13:11:47Z</time></trkpt><trkpt lat="46.056500294459255" lon="8.766889559005515"><ele>589.0</ele><time>2026-04-25T13:11:48Z</time></trkpt><trkpt lat="46.056425342583225" lon="8.76688634794431"><ele>589.0</ele><time>2026-04-25T13:11:49Z</time></trkpt><trkpt lat="46.056361076850095" lon="8.766804925546829"><ele>589.0</ele><time>2026-04-25T13:11:50Z</time></trkpt><trkpt lat="46.05630073312952" lon="8.766724667216705"><ele>589.0</ele><time>2026-04-25T13:11:51Z</time></trkpt><trkpt lat="46.05620498809938" lon="8.766618612501317"><ele>589.0</ele><time>2026-04-25T13:11:52Z</time></trkpt><trkpt lat="46.05609139428593" lon="8.76652231350828"><ele>589.0</ele><time>2026-04-25T13:11:53Z</time></trkpt><trkpt lat="46.056012426737894" lon="8.766584268298097"><ele>589.0</ele><time>2026-04-25T13:11:54Z</time></trkpt><trkpt lat="46.055882781200516" lon="8.766611236727577"><ele>589.0</ele><time>2026-04-25T13:11:54.999Z</time></trkpt><trkpt lat="46.05576571734385" lon="8.76667459455754"><ele>589.2</ele><time>2026-04-25T13:11:55.999Z</time></trkpt><trkpt lat="46.05565217290526" lon="8.766763660783196"><ele>589.4</ele><time>2026-04-25T13:11:56.999Z</time></trkpt><trkpt lat="46.05554766927974" lon="8.766848744305065"><ele>589.6</ele><time>2026-04-25T13:11:57.999Z</time></trkpt><trkpt lat="46.055471414902314" lon="8.766936664795486"><ele>589.8</ele><time>2026-04-25T13:11:58.999Z</time></trkpt><trkpt lat="46.05540869505637" lon="8.766961974260115"><ele>590.0</ele><time>2026-04-25T13:11:59.999Z</time></trkpt><trkpt lat="46.05533715189971" lon="8.766936303696092"><ele>590.0</ele><time>2026-04-25T13:12:00.999Z</time></trkpt><trkpt lat="46.05525815216864" lon="8.766823779172661"><ele>590.0</ele><time>2026-04-25T13:12:01.999Z</time></trkpt><trkpt lat="46.05513586392159" lon="8.766808007892811"><ele>590.0</ele><time>2026-04-25T13:12:02.999Z</time></trkpt><trkpt lat="46.054995201554384" lon="8.766813579985056"><ele>590.0</ele><time>2026-04-25T13:12:03.999Z</time></trkpt><trkpt lat="46.054866874989614" lon="8.766804394800257"><ele>586.6666666666666</ele><time>2026-04-25T13:12:04.999Z</time></trkpt><trkpt lat="46.05476492608407" lon="8.766801876676361"><ele>583.3333333333333</ele><time>2026-04-25T13:12:05.999Z</time></trkpt><trkpt lat="46.05467989143583" lon="8.76678893263631"><ele>580.0</ele><time>2026-04-25T13:12:06.999Z</time></trkpt><trkpt lat="46.054605574212175" lon="8.766752080413228"><ele>576.6666666666666</ele><time>2026-04-25T13:12:07.999Z</time></trkpt><trkpt lat="46.054523947502815" lon="8.766717218578258"><ele>573.3333333333334</ele><time>2026-04-25T13:12:08.999Z</time></trkpt><trkpt lat="46.0544447953621" lon="8.766661095230974"><ele>570.0</ele><time>2026-04-25T13:12:09.999Z</time></trkpt><trkpt lat="46.054366983772795" lon="8.766615016597642"><ele>570.0</ele><time>2026-04-25T13:12:10.999Z</time></trkpt><trkpt lat="46.05428264672293" lon="8.766578702197695"><ele>570.0</ele><time>2026-04-25T13:12:11.999Z</time></trkpt><trkpt lat="46.05419532165411" lon="8.766552575357805"><ele>570.0</ele><time>2026-04-25T13:12:12.999Z</time></trkpt><trkpt lat="46.05411495549173" lon="8.766529795809882"><ele>570.0</ele><time>2026-04-25T13:12:13.999Z</time></trkpt><trkpt lat="46.05404460256938" lon="8.766503688275716"><ele>570.0</ele><time>2026-04-25T13:12:14.999Z</time></trkpt><trkpt lat="46.054005904842285" lon="8.766408550896788"><ele>570.0</ele><time>2026-04-25T13:12:15.999Z</time></trkpt><trkpt lat="46.05393172927698" lon="8.766335461833268"><ele>568.2</ele><time>2026-04-25T13:12:16.999Z</time></trkpt><trkpt lat="46.053848220257464" lon="8.766268096124362"><ele>566.4</ele><time>2026-04-25T13:12:17.999Z</time></trkpt><trkpt lat="46.05378206523653" lon="8.766194998733388"><ele>564.6</ele><time>2026-04-25T13:12:18.999Z</time></trkpt><trkpt lat="46.05375768775854" lon="8.765998764295501"><ele>562.8</ele><time>2026-04-25T13:12:20.999Z</time></trkpt><trkpt lat="46.05372288739091" lon="8.765879240292417"><ele>561.0</ele><time>2026-04-25T13:12:21.999Z</time></trkpt><trkpt lat="46.05370287839226" lon="8.765759191031881"><ele>561.0</ele><time>2026-04-25T13:12:22.999Z</time></trkpt><trkpt lat="46.0536291788201" lon="8.76567538863622"><ele>561.0</ele><time>2026-04-25T13:12:23.999Z</time></trkpt><trkpt lat="46.05357511005377" lon="8.765589429736718"><ele>561.0</ele><time>2026-04-25T13:12:24.999Z</time></trkpt><trkpt lat="46.05354807245022" lon="8.76548607416125"><ele>561.0</ele><time>2026-04-25T13:12:25.999Z</time></trkpt><trkpt lat="46.05350132848792" lon="8.765333354644177"><ele>561.0</ele><time>2026-04-25T13:12:27.999Z</time></trkpt><trkpt lat="46.05347670617648" lon="8.765195677738191"><ele>562.2857142857142</ele><time>2026-04-25T13:12:29.999Z</time></trkpt><trkpt lat="46.053450172713774" lon="8.765110838989676"><ele>563.5714285714286</ele><time>2026-04-25T13:12:30.999Z</time></trkpt><trkpt lat="46.05340662733081" lon="8.765038466375433"><ele>564.8571428571429</ele><time>2026-04-25T13:12:32Z</time></trkpt><trkpt lat="46.05335616245688" lon="8.764948618571605"><ele>566.1428571428571</ele><time>2026-04-25T13:12:33Z</time></trkpt><trkpt lat="46.05331901454442" lon="8.764860254641563"><ele>567.4285714285714</ele><time>2026-04-25T13:12:34Z</time></trkpt><trkpt lat="46.053259999946086" lon="8.764797629480984"><ele>568.7142857142857</ele><time>2026-04-25T13:12:35Z</time></trkpt><trkpt lat="46.053183028199655" lon="8.764770752268934"><ele>570.0</ele><time>2026-04-25T13:12:36Z</time></trkpt><trkpt lat="46.05310103380861" lon="8.764702400845799"><ele>567.4</ele><time>2026-04-25T13:12:37Z</time></trkpt><trkpt lat="46.0530375385978" lon="8.764572061557807"><ele>564.8</ele><time>2026-04-25T13:12:38Z</time></trkpt><trkpt lat="46.05296339016318" lon="8.764442662782189"><ele>562.2</ele><time>2026-04-25T13:12:39Z</time></trkpt><trkpt lat="46.052899529695694" lon="8.764324717477946"><ele>559.6</ele><time>2026-04-25T13:12:40Z</time></trkpt><trkpt lat="46.052838524406305" lon="8.764228019909089"><ele>557.0</ele><time>2026-04-25T13:12:41Z</time></trkpt><trkpt lat="46.05278662427783" lon="8.764142619476198"><ele>557.0</ele><time>2026-04-25T13:12:42Z</time></trkpt><trkpt lat="46.05273605121508" lon="8.764039721557896"><ele>557.0</ele><time>2026-04-25T13:12:43Z</time></trkpt><trkpt lat="46.05268420245738" lon="8.763937690276848"><ele>557.0</ele><time>2026-04-25T13:12:44Z</time></trkpt><trkpt lat="46.052625532974545" lon="8.763835807548219"><ele>557.0</ele><time>2026-04-25T13:12:45Z</time></trkpt><trkpt lat="46.05257130591635" lon="8.76372882338982"><ele>557.0</ele><time>2026-04-25T13:12:46Z</time></trkpt><trkpt lat="46.05251837786732" lon="8.76362813027419"><ele>557.0</ele><time>2026-04-25T13:12:47Z</time></trkpt><trkpt lat="46.05247050231435" lon="8.763531434467073"><ele>556.0</ele><time>2026-04-25T13:12:48Z</time></trkpt><trkpt lat="46.052420352032094" lon="8.763452444112549"><ele>555.0</ele><time>2026-04-25T13:12:49Z</time></trkpt><trkpt lat="46.05235769001278" lon="8.76337721757845"><ele>554.0</ele><time>2026-04-25T13:12:50Z</time></trkpt><trkpt lat="46.05228262244346" lon="8.76330211489409"><ele>553.0</ele><time>2026-04-25T13:12:51Z</time></trkpt><trkpt lat="46.05220327621475" lon="8.763228692854872"><ele>552.0</ele><time>2026-04-25T13:12:52Z</time></trkpt><trkpt lat="46.0521305830788" lon="8.763159653891643"><ele>551.0</ele><time>2026-04-25T13:12:53Z</time></trkpt><trkpt lat="46.052063110333336" lon="8.763088484133187"><ele>551.0</ele><time>2026-04-25T13:12:54Z</time></trkpt><trkpt lat="46.05200018463304" lon="8.763025248206503"><ele>551.0</ele><time>2026-04-25T13:12:55Z</time></trkpt><trkpt lat="46.051932987975924" lon="8.762957903017098"><ele>551.0</ele><time>2026-04-25T13:12:56Z</time></trkpt><trkpt lat="46.051865300383774" lon="8.762884038646742"><ele>551.0</ele><time>2026-04-25T13:12:57Z</time></trkpt><trkpt lat="46.05179634206845" lon="8.762799450600324"><ele>551.0</ele><time>2026-04-25T13:12:58Z</time></trkpt><trkpt lat="46.051757861387195" lon="8.7626952227395"><ele>551.0</ele><time>2026-04-25T13:12:59Z</time></trkpt><trkpt lat="46.051735777727934" lon="8.762590840243204"><ele>551.0</ele><time>2026-04-25T13:13:00Z</time></trkpt><trkpt lat="46.0517108189053" lon="8.76243836420021"><ele>551.0</ele><time>2026-04-25T13:13:01Z</time></trkpt><trkpt lat="46.05169182776301" lon="8.762240973312544"><ele>551.0</ele><time>2026-04-25T13:13:02Z</time></trkpt><trkpt lat="46.05165194810886" lon="8.762005950879544"><ele>551.0</ele><time>2026-04-25T13:13:03Z</time></trkpt><trkpt lat="46.05163340741152" lon="8.761814158632644"><ele>551.0</ele><time>2026-04-25T13:13:04Z</time></trkpt><trkpt lat="46.05163064773601" lon="8.7616456790447"><ele>551.0</ele><time>2026-04-25T13:13:05Z</time></trkpt><trkpt lat="46.05161991244998" lon="8.761489078395766"><ele>551.0</ele><time>2026-04-25T13:13:06Z</time></trkpt><trkpt lat="46.05163451306652" lon="8.761340678432205"><ele>551.0</ele><time>2026-04-25T13:13:07Z</time></trkpt><trkpt lat="46.05165577591643" lon="8.761175882145531"><ele>551.0</ele><time>2026-04-25T13:13:08Z</time></trkpt><trkpt lat="46.051681429685495" lon="8.76098853888402"><ele>548.0</ele><time>2026-04-25T13:13:09Z</time></trkpt><trkpt lat="46.051726663698915" lon="8.76083026020907"><ele>545.0</ele><time>2026-04-25T13:13:10Z</time></trkpt><trkpt lat="46.05177139656193" lon="8.760639249477615"><ele>542.0</ele><time>2026-04-25T13:13:11Z</time></trkpt><trkpt lat="46.051832673961954" lon="8.7604581677696"><ele>539.0</ele><time>2026-04-25T13:13:12Z</time></trkpt><trkpt lat="46.051865475931216" lon="8.760249879475573"><ele>536.25</ele><time>2026-04-25T13:13:13Z</time></trkpt><trkpt lat="46.0518880152193" lon="8.76004139981901"><ele>533.5</ele><time>2026-04-25T13:13:14Z</time></trkpt><trkpt lat="46.05190923604945" lon="8.759866071675638"><ele>530.75</ele><time>2026-04-25T13:13:15Z</time></trkpt><trkpt lat="46.051943871322074" lon="8.75971650876645"><ele>528.0</ele><time>2026-04-25T13:13:16Z</time></trkpt><trkpt lat="46.05199313432753" lon="8.759578701629378"><ele>528.0</ele><time>2026-04-25T13:13:17Z</time></trkpt><trkpt lat="46.05205374189464" lon="8.759452618819214"><ele>528.0</ele><time>2026-04-25T13:13:18Z</time></trkpt><trkpt lat="46.052106616297046" lon="8.759318923886745"><ele>528.0</ele><time>2026-04-25T13:13:19Z</time></trkpt><trkpt lat="46.05214142413926" lon="8.75915441160122"><ele>528.0</ele><time>2026-04-25T13:13:20Z</time></trkpt><trkpt lat="46.05213771688907" lon="8.758970755310926"><ele>525.25</ele><time>2026-04-25T13:13:21Z</time></trkpt><trkpt lat="46.05210494217261" lon="8.758783322939907"><ele>522.5</ele><time>2026-04-25T13:13:22Z</time></trkpt><trkpt lat="46.05205701574351" lon="8.758617156261455"><ele>519.75</ele><time>2026-04-25T13:13:23Z</time></trkpt><trkpt lat="46.0520287469143" lon="8.758485714274563"><ele>517.0</ele><time>2026-04-25T13:13:24Z</time></trkpt><trkpt lat="46.05202714245014" lon="8.758319481775702"><ele>517.5</ele><time>2026-04-25T13:13:25Z</time></trkpt><trkpt lat="46.05204087804013" lon="8.758154417939993"><ele>518.0</ele><time>2026-04-25T13:13:26Z</time></trkpt><trkpt lat="46.05202582036861" lon="8.757953743252775"><ele>518.5</ele><time>2026-04-25T13:13:27Z</time></trkpt><trkpt lat="46.0519877958739" lon="8.75774219132644"><ele>519.0</ele><time>2026-04-25T13:13:28Z</time></trkpt><trkpt lat="46.051922531479484" lon="8.757528267090375"><ele>519.0</ele><time>2026-04-25T13:13:29Z</time></trkpt><trkpt lat="46.05186188432504" lon="8.757306814722853"><ele>519.0</ele><time>2026-04-25T13:13:30Z</time></trkpt><trkpt lat="46.051804069810366" lon="8.757094083614536"><ele>519.0</ele><time>2026-04-25T13:13:31Z</time></trkpt><trkpt lat="46.0517538524153" lon="8.756920043944046"><ele>521.4</ele><time>2026-04-25T13:13:32Z</time></trkpt><trkpt lat="46.051750472024615" lon="8.756776189187233"><ele>523.8</ele><time>2026-04-25T13:13:33Z</time></trkpt><trkpt lat="46.05173208883969" lon="8.756657360443674"><ele>526.2</ele><time>2026-04-25T13:13:34Z</time></trkpt><trkpt lat="46.05168814619467" lon="8.756529843216654"><ele>528.6</ele><time>2026-04-25T13:13:35Z</time></trkpt><trkpt lat="46.05156439650467" lon="8.756468965000424"><ele>531.0</ele><time>2026-04-25T13:13:36Z</time></trkpt><trkpt lat="46.05144569850574" lon="8.756392545539727"><ele>523.5</ele><time>2026-04-25T13:13:37Z</time></trkpt><trkpt lat="46.051385137070895" lon="8.756287088025363"><ele>516.0</ele><time>2026-04-25T13:13:38Z</time></trkpt><trkpt lat="46.051353272723645" lon="8.756182241570457"><ele>508.5</ele><time>2026-04-25T13:13:39Z</time></trkpt><trkpt lat="46.051247506630894" lon="8.755942581453194"><ele>501.0</ele><time>2026-04-25T13:13:40Z</time></trkpt><trkpt lat="46.051186351644965" lon="8.755793096550423"><ele>501.0</ele><time>2026-04-25T13:13:41Z</time></trkpt><trkpt lat="46.05112655781624" lon="8.755617956816643"><ele>501.0</ele><time>2026-04-25T13:13:42Z</time></trkpt><trkpt lat="46.05108280320199" lon="8.755442929600045"><ele>501.0</ele><time>2026-04-25T13:13:43Z</time></trkpt><trkpt lat="46.051060772970786" lon="8.755273077070743"><ele>501.0</ele><time>2026-04-25T13:13:44Z</time></trkpt><trkpt lat="46.05105760166721" lon="8.755115099649226"><ele>501.0</ele><time>2026-04-25T13:13:45Z</time></trkpt><trkpt lat="46.05105062229731" lon="8.754884128204246"><ele>501.0</ele><time>2026-04-25T13:13:46Z</time></trkpt><trkpt lat="46.051043618967135" lon="8.754652363867033"><ele>501.0</ele><time>2026-04-25T13:13:47Z</time></trkpt><trkpt lat="46.05103718171577" lon="8.754434193213175"><ele>500.4</ele><time>2026-04-25T13:13:48Z</time></trkpt><trkpt lat="46.05103776066799" lon="8.754252569560864"><ele>499.8</ele><time>2026-04-25T13:13:49Z</time></trkpt><trkpt lat="46.0510654844157" lon="8.75413462445928"><ele>499.19999999999993</ele><time>2026-04-25T13:13:50Z</time></trkpt><trkpt lat="46.05109266755364" lon="8.754020729603711"><ele>498.59999999999997</ele><time>2026-04-25T13:13:51Z</time></trkpt><trkpt lat="46.05109943634359" lon="8.75387361954835"><ele>498.0</ele><time>2026-04-25T13:13:52Z</time></trkpt><trkpt lat="46.05102040501674" lon="8.753740675919632"><ele>498.0</ele><time>2026-04-25T13:13:53Z</time></trkpt><trkpt lat="46.05093794495134" lon="8.753641615310908"><ele>498.0</ele><time>2026-04-25T13:13:54Z</time></trkpt><trkpt lat="46.05084162225148" lon="8.753425904058764"><ele>498.0</ele><time>2026-04-25T13:13:55Z</time></trkpt><trkpt lat="46.05071851216792" lon="8.7531954907605"><ele>496.75</ele><time>2026-04-25T13:13:56Z</time></trkpt><trkpt lat="46.05063013306043" lon="8.753016641304482"><ele>495.5</ele><time>2026-04-25T13:13:57Z</time></trkpt><trkpt lat="46.05059352686954" lon="8.752887718221277"><ele>494.25</ele><time>2026-04-25T13:13:58Z</time></trkpt><trkpt lat="46.05060664254221" lon="8.752674163921693"><ele>493.0</ele><time>2026-04-25T13:14:00Z</time></trkpt><trkpt lat="46.05060457610208" lon="8.75249346725411"><ele>493.0</ele><time>2026-04-25T13:14:01Z</time></trkpt><trkpt lat="46.050563212459565" lon="8.752350030118365"><ele>492.99999999999994</ele><time>2026-04-25T13:14:02Z</time></trkpt><trkpt lat="46.05050400826689" lon="8.752236398683833"><ele>492.99999999999994</ele><time>2026-04-25T13:14:03Z</time></trkpt><trkpt lat="46.05041661577713" lon="8.75217655140187"><ele>493.0</ele><time>2026-04-25T13:14:04Z</time></trkpt><trkpt lat="46.05030294722406" lon="8.752167951831424"><ele>493.0</ele><time>2026-04-25T13:14:05Z</time></trkpt><trkpt lat="46.05016847752594" lon="8.752200968665841"><ele>493.0</ele><time>2026-04-25T13:14:06Z</time></trkpt><trkpt lat="46.05003055031508" lon="8.752269796212016"><ele>493.0</ele><time>2026-04-25T13:14:07Z</time></trkpt><trkpt lat="46.04991357947755" lon="8.75229881571364"><ele>493.0</ele><time>2026-04-25T13:14:08Z</time></trkpt><trkpt lat="46.049770433582836" lon="8.752165230916514"><ele>493.0</ele><time>2026-04-25T13:14:10Z</time></trkpt><trkpt lat="46.04968595857876" lon="8.75205016057671"><ele>491.2</ele><time>2026-04-25T13:14:11Z</time></trkpt><trkpt lat="46.04959260060412" lon="8.751953088655526"><ele>489.4</ele><time>2026-04-25T13:14:12Z</time></trkpt><trkpt lat="46.04950421432418" lon="8.751870175111048"><ele>487.59999999999997</ele><time>2026-04-25T13:14:13Z</time></trkpt><trkpt lat="46.04939878355603" lon="8.751897879838195"><ele>485.79999999999995</ele><time>2026-04-25T13:14:14Z</time></trkpt><trkpt lat="46.049311518062765" lon="8.751924955507105"><ele>484.0</ele><time>2026-04-25T13:14:15Z</time></trkpt><trkpt lat="46.0492455778035" lon="8.75193453210357"><ele>484.0</ele><time>2026-04-25T13:14:16Z</time></trkpt><trkpt lat="46.04917154651261" lon="8.751864822106343"><ele>484.0</ele><time>2026-04-25T13:14:16.999Z</time></trkpt><trkpt lat="46.04920647693379" lon="8.751705418331678"><ele>484.0</ele><time>2026-04-25T13:14:18.999Z</time></trkpt><trkpt lat="46.04919207789988" lon="8.75151018795956"><ele>484.0</ele><time>2026-04-25T13:14:19.999Z</time></trkpt><trkpt lat="46.04918089889562" lon="8.751300065870277"><ele>484.0</ele><time>2026-04-25T13:14:20.999Z</time></trkpt><trkpt lat="46.04917100533096" lon="8.751118917507272"><ele>484.0</ele><time>2026-04-25T13:14:21.999Z</time></trkpt><trkpt lat="46.049146328471174" lon="8.750987112128753"><ele>484.0</ele><time>2026-04-25T13:14:22.999Z</time></trkpt><trkpt lat="46.04912780639113" lon="8.75088193387608"><ele>484.0</ele><time>2026-04-25T13:14:23.999Z</time></trkpt><trkpt lat="46.04906910179535" lon="8.750822614400432"><ele>484.0</ele><time>2026-04-25T13:14:24.999Z</time></trkpt><trkpt lat="46.048990472243766" lon="8.750709509793799"><ele>475.6666666666667</ele><time>2026-04-25T13:14:25.999Z</time></trkpt><trkpt lat="46.04888932726758" lon="8.750578039940798"><ele>467.33333333333337</ele><time>2026-04-25T13:14:26.999Z</time></trkpt><trkpt lat="46.04876628074048" lon="8.750409386383271"><ele>459.0</ele><time>2026-04-25T13:14:27.999Z</time></trkpt><trkpt lat="46.04865920296953" lon="8.750267475202854"><ele>461.75</ele><time>2026-04-25T13:14:28.999Z</time></trkpt><trkpt lat="46.04854050831712" lon="8.75019285072773"><ele>464.5</ele><time>2026-04-25T13:14:29.999Z</time></trkpt><trkpt lat="46.04843574012936" lon="8.750127354305304"><ele>467.25</ele><time>2026-04-25T13:14:30.999Z</time></trkpt><trkpt lat="46.04831189484266" lon="8.750126447892"><ele>470.0</ele><time>2026-04-25T13:14:31.999Z</time></trkpt><trkpt lat="46.04820214928707" lon="8.750055190928128"><ele>464.0</ele><time>2026-04-25T13:14:32.999Z</time></trkpt><trkpt lat="46.04811001750822" lon="8.74997527764669"><ele>458.0</ele><time>2026-04-25T13:14:33.999Z</time></trkpt><trkpt lat="46.04803023722498" lon="8.749869386569568"><ele>452.0</ele><time>2026-04-25T13:14:34.999Z</time></trkpt><trkpt lat="46.047940219490954" lon="8.749713664439001"><ele>446.0</ele><time>2026-04-25T13:14:35.999Z</time></trkpt><trkpt lat="46.04784798810397" lon="8.749547654240533"><ele>446.0</ele><time>2026-04-25T13:14:37Z</time></trkpt><trkpt lat="46.047767324557135" lon="8.749404087703399"><ele>446.0</ele><time>2026-04-25T13:14:38Z</time></trkpt><trkpt lat="46.04770089027564" lon="8.749260849326907"><ele>446.0</ele><time>2026-04-25T13:14:39Z</time></trkpt><trkpt lat="46.04765158678052" lon="8.749116900001699"><ele>446.0</ele><time>2026-04-25T13:14:40Z</time></trkpt><trkpt lat="46.04761209913675" lon="8.748964478567833"><ele>446.75</ele><time>2026-04-25T13:14:41Z</time></trkpt><trkpt lat="46.04760218770479" lon="8.748802366969224"><ele>447.5</ele><time>2026-04-25T13:14:42Z</time></trkpt><trkpt lat="46.04761055377829" lon="8.748626846367852"><ele>448.25</ele><time>2026-04-25T13:14:43Z</time></trkpt><trkpt lat="46.04762219399902" lon="8.748457891671583"><ele>449.0</ele><time>2026-04-25T13:14:44Z</time></trkpt><trkpt lat="46.04763955585594" lon="8.748287623058788"><ele>449.0</ele><time>2026-04-25T13:14:45Z</time></trkpt><trkpt lat="46.04766896596429" lon="8.748135631205194"><ele>449.0</ele><time>2026-04-25T13:14:46Z</time></trkpt><trkpt lat="46.04772238037196" lon="8.747981116801443"><ele>449.0</ele><time>2026-04-25T13:14:47Z</time></trkpt><trkpt lat="46.047736806369045" lon="8.747820808451271"><ele>449.0</ele><time>2026-04-25T13:14:48Z</time></trkpt><trkpt lat="46.04772772064324" lon="8.747664685293786"><ele>449.3333333333333</ele><time>2026-04-25T13:14:49Z</time></trkpt><trkpt lat="46.047666611196355" lon="8.747531793004539"><ele>449.66666666666663</ele><time>2026-04-25T13:14:50Z</time></trkpt><trkpt lat="46.047622461242625" lon="8.747402454382023"><ele>450.0</ele><time>2026-04-25T13:14:51Z</time></trkpt><trkpt lat="46.04758347691476" lon="8.747296736751636"><ele>450.33333333333337</ele><time>2026-04-25T13:14:52Z</time></trkpt><trkpt lat="46.047582526621056" lon="8.747196671753613"><ele>450.6666666666667</ele><time>2026-04-25T13:14:53Z</time></trkpt><trkpt lat="46.047589621266965" lon="8.747087317816735"><ele>451.0</ele><time>2026-04-25T13:14:54Z</time></trkpt><trkpt lat="46.04761355497281" lon="8.7469467234408"><ele>451.5</ele><time>2026-04-25T13:14:55Z</time></trkpt><trkpt lat="46.04764051995823" lon="8.746771067055759"><ele>452.0</ele><time>2026-04-25T13:14:56Z</time></trkpt><trkpt lat="46.04763488878725" lon="8.746624618658702"><ele>452.5</ele><time>2026-04-25T13:14:57Z</time></trkpt><trkpt lat="46.04760903186915" lon="8.746486283499054"><ele>453.0</ele><time>2026-04-25T13:14:58Z</time></trkpt><trkpt lat="46.04758449155944" lon="8.746299204145906"><ele>453.0</ele><time>2026-04-25T13:14:59Z</time></trkpt><trkpt lat="46.047531525565326" lon="8.746118305528006"><ele>452.99999999999994</ele><time>2026-04-25T13:15:00Z</time></trkpt><trkpt lat="46.047502127883426" lon="8.745981913731736"><ele>452.99999999999994</ele><time>2026-04-25T13:15:01Z</time></trkpt><trkpt lat="46.04751488358237" lon="8.745861811893525"><ele>453.0</ele><time>2026-04-25T13:15:02Z</time></trkpt><trkpt lat="46.04756449788088" lon="8.745743164616911"><ele>453.0</ele><time>2026-04-25T13:15:03Z</time></trkpt><trkpt lat="46.047633205312046" lon="8.745656298451152"><ele>451.4</ele><time>2026-04-25T13:15:04Z</time></trkpt><trkpt lat="46.04763880212015" lon="8.74551407857838"><ele>449.79999999999995</ele><time>2026-04-25T13:15:06Z</time></trkpt><trkpt lat="46.047584077732104" lon="8.745432113008391"><ele>448.2</ele><time>2026-04-25T13:15:07Z</time></trkpt><trkpt lat="46.04750275591274" lon="8.745438179553178"><ele>446.6</ele><time>2026-04-25T13:15:08Z</time></trkpt><trkpt lat="46.04744643476831" lon="8.7455795136996"><ele>445.0</ele><time>2026-04-25T13:15:09Z</time></trkpt><trkpt lat="46.04741574886907" lon="8.745714508721777"><ele>427.0</ele><time>2026-04-25T13:15:10Z</time></trkpt><trkpt lat="46.04740437474462" lon="8.745888152728392"><ele>409.0</ele><time>2026-04-25T13:15:11Z</time></trkpt><trkpt lat="46.04739289964684" lon="8.746127578668514"><ele>391.0</ele><time>2026-04-25T13:15:12Z</time></trkpt><trkpt lat="46.047361010793075" lon="8.746415666268103"><ele>391.0</ele><time>2026-04-25T13:15:13Z</time></trkpt><trkpt lat="46.04734458904719" lon="8.74669460813666"><ele>391.0</ele><time>2026-04-25T13:15:14Z</time></trkpt><trkpt lat="46.04731522628134" lon="8.746971289371498"><ele>391.0</ele><time>2026-04-25T13:15:15Z</time></trkpt><trkpt lat="46.04730756688119" lon="8.74722065571035"><ele>393.5</ele><time>2026-04-25T13:15:16Z</time></trkpt><trkpt lat="46.04729152388883" lon="8.747468118437473"><ele>396.0</ele><time>2026-04-25T13:15:17Z</time></trkpt><trkpt lat="46.04725616082466" lon="8.747677213939706"><ele>398.5</ele><time>2026-04-25T13:15:18Z</time></trkpt><trkpt lat="46.04723581771354" lon="8.747854933261658"><ele>401.0</ele><time>2026-04-25T13:15:19Z</time></trkpt><trkpt lat="46.047178633850464" lon="8.748029205118119"><ele>403.66666666666663</ele><time>2026-04-25T13:15:20Z</time></trkpt><trkpt lat="46.04710664594947" lon="8.748228391142348"><ele>406.33333333333337</ele><time>2026-04-25T13:15:21Z</time></trkpt><trkpt lat="46.04703392844013" lon="8.748465954720551"><ele>409.0</ele><time>2026-04-25T13:15:22Z</time></trkpt><trkpt lat="46.04698123939913" lon="8.748728101162941"><ele>410.0</ele><time>2026-04-25T13:15:23Z</time></trkpt><trkpt lat="46.046935490281875" lon="8.748966096918664"><ele>411.0</ele><time>2026-04-25T13:15:24Z</time></trkpt><trkpt lat="46.046893173125525" lon="8.749182731871363"><ele>412.0</ele><time>2026-04-25T13:15:25Z</time></trkpt><trkpt lat="46.04686257627279" lon="8.749372790678327"><ele>412.0</ele><time>2026-04-25T13:15:26Z</time></trkpt><trkpt lat="46.046838502387565" lon="8.749562676229669"><ele>412.0</ele><time>2026-04-25T13:15:27Z</time></trkpt><trkpt lat="46.04682922885829" lon="8.749748287941808"><ele>412.0</ele><time>2026-04-25T13:15:28Z</time></trkpt><trkpt lat="46.04683174532706" lon="8.749942439615431"><ele>412.0</ele><time>2026-04-25T13:15:29Z</time></trkpt><trkpt lat="46.046849095983745" lon="8.750172130998727"><ele>409.33333333333337</ele><time>2026-04-25T13:15:30Z</time></trkpt><trkpt lat="46.04686543279663" lon="8.750415435429188"><ele>406.66666666666663</ele><time>2026-04-25T13:15:31Z</time></trkpt><trkpt lat="46.04687466343335" lon="8.750632728598665"><ele>404.0</ele><time>2026-04-25T13:15:32Z</time></trkpt><trkpt lat="46.046887068258606" lon="8.750817863304267"><ele>404.0</ele><time>2026-04-25T13:15:33Z</time></trkpt><trkpt lat="46.04692227748273" lon="8.750967926967382"><ele>404.0</ele><time>2026-04-25T13:15:34Z</time></trkpt><trkpt lat="46.046982832700266" lon="8.751112060293483"><ele>404.0</ele><time>2026-04-25T13:15:35Z</time></trkpt><trkpt lat="46.04706658523427" lon="8.751261851912137"><ele>404.0</ele><time>2026-04-25T13:15:36Z</time></trkpt><trkpt lat="46.047167933362665" lon="8.751425113068915"><ele>403.79999999999995</ele><time>2026-04-25T13:15:37Z</time></trkpt><trkpt lat="46.04726098515377" lon="8.751584040419512"><ele>403.59999999999997</ele><time>2026-04-25T13:15:38Z</time></trkpt><trkpt lat="46.04732669727577" lon="8.751708105332135"><ele>403.4</ele><time>2026-04-25T13:15:39Z</time></trkpt><trkpt lat="46.04737531036454" lon="8.751807216533932"><ele>403.2</ele><time>2026-04-25T13:15:40Z</time></trkpt><trkpt lat="46.04737811003708" lon="8.751940487338503"><ele>403.0</ele><time>2026-04-25T13:15:42Z</time></trkpt><trkpt lat="46.04725027236452" lon="8.751958430337508"><ele>403.0</ele><time>2026-04-25T13:15:44Z</time></trkpt><trkpt lat="46.04716357738986" lon="8.751878641850514"><ele>403.0</ele><time>2026-04-25T13:15:45Z</time></trkpt><trkpt lat="46.047068990297014" lon="8.751814150288315"><ele>403.0</ele><time>2026-04-25T13:15:46Z</time></trkpt><trkpt lat="46.046982149109446" lon="8.75171595736566"><ele>403.0</ele><time>2026-04-25T13:15:47Z</time></trkpt><trkpt lat="46.04690871947724" lon="8.751572819705903"><ele>403.0</ele><time>2026-04-25T13:15:48Z</time></trkpt><trkpt lat="46.04682133773812" lon="8.751401773283314"><ele>403.0</ele><time>2026-04-25T13:15:49Z</time></trkpt><trkpt lat="46.046719130157996" lon="8.751205728910588"><ele>403.0</ele><time>2026-04-25T13:15:50Z</time></trkpt><trkpt lat="46.046614454170346" lon="8.75101053762424"><ele>403.0</ele><time>2026-04-25T13:15:51Z</time></trkpt><trkpt lat="46.04652034339323" lon="8.750832126385452"><ele>394.75</ele><time>2026-04-25T13:15:52Z</time></trkpt><trkpt lat="46.046435562957456" lon="8.750663881347029"><ele>386.5</ele><time>2026-04-25T13:15:53Z</time></trkpt><trkpt lat="46.04635989738569" lon="8.750488699348555"><ele>378.25</ele><time>2026-04-25T13:15:54Z</time></trkpt><trkpt lat="46.046300394737315" lon="8.750297661172825"><ele>370.0</ele><time>2026-04-25T13:15:55Z</time></trkpt><trkpt lat="46.04625803789139" lon="8.75010840792196"><ele>370.0</ele><time>2026-04-25T13:15:56Z</time></trkpt><trkpt lat="46.04623725167624" lon="8.749923124797805"><ele>370.0</ele><time>2026-04-25T13:15:57Z</time></trkpt><trkpt lat="46.04622255476235" lon="8.749710785368352"><ele>370.0</ele><time>2026-04-25T13:15:58Z</time></trkpt><trkpt lat="46.04621193218198" lon="8.749507242027331"><ele>370.0</ele><time>2026-04-25T13:15:59Z</time></trkpt><trkpt lat="46.04620171055849" lon="8.749316333624977"><ele>369.8</ele><time>2026-04-25T13:16:00Z</time></trkpt><trkpt lat="46.046189284184145" lon="8.749144595141365"><ele>369.6</ele><time>2026-04-25T13:16:01Z</time></trkpt><trkpt lat="46.04617756933181" lon="8.748978931611232"><ele>369.4</ele><time>2026-04-25T13:16:02Z</time></trkpt><trkpt lat="46.04617387723287" lon="8.748848523853965"><ele>369.2</ele><time>2026-04-25T13:16:03Z</time></trkpt><trkpt lat="46.046203859642475" lon="8.748728332464879"><ele>369.0</ele><time>2026-04-25T13:16:04Z</time></trkpt><trkpt lat="46.04624963305384" lon="8.748573006794956"><ele>368.5</ele><time>2026-04-25T13:16:05Z</time></trkpt><trkpt lat="46.04627452029321" lon="8.748362052768458"><ele>368.0</ele><time>2026-04-25T13:16:06Z</time></trkpt><trkpt lat="46.046286116146085" lon="8.748172514629452"><ele>367.5</ele><time>2026-04-25T13:16:07Z</time></trkpt><trkpt lat="46.04630599333266" lon="8.747981750272478"><ele>367.0</ele><time>2026-04-25T13:16:08Z</time></trkpt><trkpt lat="46.04632571585905" lon="8.747810078216423"><ele>366.20000000000005</ele><time>2026-04-25T13:16:09Z</time></trkpt><trkpt lat="46.046348377572464" lon="8.747643662387512"><ele>365.4</ele><time>2026-04-25T13:16:10Z</time></trkpt><trkpt lat="46.04639735713061" lon="8.74751471500864"><ele>364.6</ele><time>2026-04-25T13:16:11Z</time></trkpt><trkpt lat="46.04644846690927" lon="8.747423741441798"><ele>363.79999999999995</ele><time>2026-04-25T13:16:12Z</time></trkpt><trkpt lat="46.04651737992292" lon="8.747306160602932"><ele>363.0</ele><time>2026-04-25T13:16:13Z</time></trkpt><trkpt lat="46.046567247091716" lon="8.747172906302852"><ele>363.0</ele><time>2026-04-25T13:16:13.999Z</time></trkpt><trkpt lat="46.04654293397114" lon="8.746992851229379"><ele>363.0</ele><time>2026-04-25T13:16:14.999Z</time></trkpt><trkpt lat="46.046547738636264" lon="8.746758382943423"><ele>363.0</ele><time>2026-04-25T13:16:15.999Z</time></trkpt><trkpt lat="46.04654178869389" lon="8.746491168792083"><ele>361.0</ele><time>2026-04-25T13:16:16.999Z</time></trkpt><trkpt lat="46.04653561460288" lon="8.746262585257387"><ele>359.0</ele><time>2026-04-25T13:16:17.999Z</time></trkpt><trkpt lat="46.04652933635369" lon="8.746058538201732"><ele>357.0</ele><time>2026-04-25T13:16:18.999Z</time></trkpt><trkpt lat="46.046542797610854" lon="8.745884577347738"><ele>355.0</ele><time>2026-04-25T13:16:19.999Z</time></trkpt><trkpt lat="46.046558320917725" lon="8.745711991838423"><ele>353.5</ele><time>2026-04-25T13:16:20.999Z</time></trkpt><trkpt lat="46.04651381207643" lon="8.745533484656892"><ele>352.0</ele><time>2026-04-25T13:16:21.999Z</time></trkpt><trkpt lat="46.046498507080486" lon="8.745329896541255"><ele>350.5</ele><time>2026-04-25T13:16:22.999Z</time></trkpt><trkpt lat="46.04646381385994" lon="8.74510665639452"><ele>349.0</ele><time>2026-04-25T13:16:23.999Z</time></trkpt><trkpt lat="46.046423298310145" lon="8.744872379409196"><ele>348.25</ele><time>2026-04-25T13:16:24.999Z</time></trkpt><trkpt lat="46.04637186875827" lon="8.744654592630768"><ele>347.5</ele><time>2026-04-25T13:16:25.999Z</time></trkpt><trkpt lat="46.04635676360067" lon="8.744450833914957"><ele>346.75</ele><time>2026-04-25T13:16:26.999Z</time></trkpt><trkpt lat="46.0463170967372" lon="8.744295193478013"><ele>346.0</ele><time>2026-04-25T13:16:27.999Z</time></trkpt><trkpt lat="46.04630579022757" lon="8.744154816535517"><ele>346.0</ele><time>2026-04-25T13:16:28.999Z</time></trkpt><trkpt lat="46.04625202231259" lon="8.744040724575372"><ele>346.0</ele><time>2026-04-25T13:16:29.999Z</time></trkpt><trkpt lat="46.04615152205565" lon="8.743962298855955"><ele>346.0</ele><time>2026-04-25T13:16:30.999Z</time></trkpt><trkpt lat="46.04607883959936" lon="8.743832035103292"><ele>346.0</ele><time>2026-04-25T13:16:31.999Z</time></trkpt><trkpt lat="46.04603012341711" lon="8.74371457999117"><ele>346.0</ele><time>2026-04-25T13:16:32.999Z</time></trkpt><trkpt lat="46.04600356328061" lon="8.743565045965413"><ele>347.75</ele><time>2026-04-25T13:16:33.999Z</time></trkpt><trkpt lat="46.04598186765933" lon="8.743356753239265"><ele>349.5</ele><time>2026-04-25T13:16:34.999Z</time></trkpt><trkpt lat="46.0459480089026" lon="8.743134113785564"><ele>351.25</ele><time>2026-04-25T13:16:35.999Z</time></trkpt><trkpt lat="46.04594393448692" lon="8.742942161115893"><ele>353.0</ele><time>2026-04-25T13:16:36.999Z</time></trkpt><trkpt lat="46.04592730987667" lon="8.74275090223968"><ele>351.75</ele><time>2026-04-25T13:16:37.999Z</time></trkpt><trkpt lat="46.045922680939185" lon="8.742566661368857"><ele>350.5</ele><time>2026-04-25T13:16:38.999Z</time></trkpt><trkpt lat="46.045926521103034" lon="8.742388888458686"><ele>349.25</ele><time>2026-04-25T13:16:39.999Z</time></trkpt><trkpt lat="46.045936069345764" lon="8.742221285615237"><ele>348.0</ele><time>2026-04-25T13:16:40.999Z</time></trkpt><trkpt lat="46.045948657574066" lon="8.742068916717185"><ele>348.0</ele><time>2026-04-25T13:16:41.999Z</time></trkpt><trkpt lat="46.045960138321895" lon="8.741967547950606"><ele>348.0</ele><time>2026-04-25T13:16:43Z</time></trkpt><trkpt lat="46.045970520584405" lon="8.741855598390861"><ele>348.0</ele><time>2026-04-25T13:16:44Z</time></trkpt><trkpt lat="46.045959085866286" lon="8.74175230050352"><ele>348.0</ele><time>2026-04-25T13:16:46Z</time></trkpt><trkpt lat="46.04588371633796" lon="8.741630113582508"><ele>348.0</ele><time>2026-04-25T13:16:47Z</time></trkpt><trkpt lat="46.045825175253476" lon="8.741698339255892"><ele>348.0</ele><time>2026-04-25T13:16:48Z</time></trkpt><trkpt lat="46.04578594676123" lon="8.741806662231609"><ele>340.25</ele><time>2026-04-25T13:16:49Z</time></trkpt><trkpt lat="46.04576572140366" lon="8.741953962440984"><ele>332.5</ele><time>2026-04-25T13:16:50Z</time></trkpt><trkpt lat="46.04573355373154" lon="8.7421236037389"><ele>324.75</ele><time>2026-04-25T13:16:51Z</time></trkpt><trkpt lat="46.04569332356379" lon="8.742311459731223"><ele>317.0</ele><time>2026-04-25T13:16:52Z</time></trkpt><trkpt lat="46.04565188896298" lon="8.742489181932767"><ele>317.0</ele><time>2026-04-25T13:16:53Z</time></trkpt><trkpt lat="46.04561246314742" lon="8.742622603866868"><ele>317.0</ele><time>2026-04-25T13:16:54Z</time></trkpt><trkpt lat="46.045579338513846" lon="8.742752632415948"><ele>317.0</ele><time>2026-04-25T13:16:55Z</time></trkpt><trkpt lat="46.04556630736015" lon="8.74288476443323"><ele>317.0</ele><time>2026-04-25T13:16:56Z</time></trkpt><trkpt lat="46.04559244476127" lon="8.743011463270552"><ele>317.0</ele><time>2026-04-25T13:16:57Z</time></trkpt><trkpt lat="46.045643403295536" lon="8.743113219726192"><ele>317.0</ele><time>2026-04-25T13:16:58Z</time></trkpt><trkpt lat="46.04564312816192" lon="8.743235932401284"><ele>317.0</ele><time>2026-04-25T13:17:00Z</time></trkpt><trkpt lat="46.04557906524833" lon="8.743247010193416"><ele>317.0</ele><time>2026-04-25T13:17:01Z</time></trkpt><trkpt lat="46.045536100444274" lon="8.743148181805388"><ele>317.0</ele><time>2026-04-25T13:17:02Z</time></trkpt><trkpt lat="46.045532384275376" lon="8.743036660004668"><ele>317.0</ele><time>2026-04-25T13:17:03Z</time></trkpt><trkpt lat="46.045535452418825" lon="8.742869315624642"><ele>317.0</ele><time>2026-04-25T13:17:04Z</time></trkpt><trkpt lat="46.04551449897683" lon="8.742630624246285"><ele>317.0</ele><time>2026-04-25T13:17:05Z</time></trkpt><trkpt lat="46.045501957675306" lon="8.742405577372358"><ele>317.0</ele><time>2026-04-25T13:17:06Z</time></trkpt><trkpt lat="46.04550906936673" lon="8.742225942827895"><ele>317.0</ele><time>2026-04-25T13:17:07Z</time></trkpt><trkpt lat="46.0455397815937" lon="8.742068729579806"><ele>317.0</ele><time>2026-04-25T13:17:08Z</time></trkpt><trkpt lat="46.04555386185001" lon="8.741908952952356"><ele>314.6666666666667</ele><time>2026-04-25T13:17:09Z</time></trkpt><trkpt lat="46.04552117185234" lon="8.741717347462568"><ele>312.3333333333333</ele><time>2026-04-25T13:17:10Z</time></trkpt><trkpt lat="46.04547849207682" lon="8.741511653332054"><ele>310.0</ele><time>2026-04-25T13:17:11Z</time></trkpt><trkpt lat="46.04541720847136" lon="8.741291996760554"><ele>310.0</ele><time>2026-04-25T13:17:12Z</time></trkpt><trkpt lat="46.04538396158117" lon="8.741101277431236"><ele>310.0</ele><time>2026-04-25T13:17:13Z</time></trkpt><trkpt lat="46.04536652179541" lon="8.740970806194085"><ele>310.0</ele><time>2026-04-25T13:17:14Z</time></trkpt><trkpt lat="46.04537550890122" lon="8.740838805472139"><ele>310.0</ele><time>2026-04-25T13:17:15Z</time></trkpt><trkpt lat="46.04539196762958" lon="8.740677042547608"><ele>310.0</ele><time>2026-04-25T13:17:16Z</time></trkpt><trkpt lat="46.04537849981711" lon="8.740525744393086"><ele>309.66666666666663</ele><time>2026-04-25T13:17:17Z</time></trkpt><trkpt lat="46.04534090670332" lon="8.740409340665371"><ele>309.3333333333333</ele><time>2026-04-25T13:17:18Z</time></trkpt><trkpt lat="46.04530554086348" lon="8.740276790845076"><ele>309.0</ele><time>2026-04-25T13:17:19Z</time></trkpt><trkpt lat="46.045282392307804" lon="8.740152213231426"><ele>308.6666666666667</ele><time>2026-04-25T13:17:20Z</time></trkpt><trkpt lat="46.04528644300404" lon="8.74004660410412"><ele>308.33333333333337</ele><time>2026-04-25T13:17:21Z</time></trkpt><trkpt lat="46.04531512858482" lon="8.739949112998696"><ele>308.0</ele><time>2026-04-25T13:17:22Z</time></trkpt><trkpt lat="46.04536354687924" lon="8.739841944604152"><ele>306.33333333333337</ele><time>2026-04-25T13:17:23Z</time></trkpt><trkpt lat="46.045414441134255" lon="8.739729111953066"><ele>304.6666666666667</ele><time>2026-04-25T13:17:24Z</time></trkpt><trkpt lat="46.04546852321231" lon="8.739643419726377"><ele>303.0</ele><time>2026-04-25T13:17:25Z</time></trkpt><trkpt lat="46.04544197543731" lon="8.739509172872046"><ele>301.3333333333333</ele><time>2026-04-25T13:17:27Z</time></trkpt><trkpt lat="46.045371522434394" lon="8.739475945625287"><ele>299.66666666666663</ele><time>2026-04-25T13:17:28Z</time></trkpt><trkpt lat="46.04530143793075" lon="8.739566698013652"><ele>298.0</ele><time>2026-04-25T13:17:29Z</time></trkpt><trkpt lat="46.045260511503336" lon="8.739655163778595"><ele>298.0</ele><time>2026-04-25T13:17:30Z</time></trkpt><trkpt lat="46.04522406663719" lon="8.739785549311517"><ele>298.0</ele><time>2026-04-25T13:17:31Z</time></trkpt><trkpt lat="46.04519805385471" lon="8.739974890251567"><ele>298.0</ele><time>2026-04-25T13:17:32Z</time></trkpt><trkpt lat="46.045172593199325" lon="8.740220382678034"><ele>298.0</ele><time>2026-04-25T13:17:33Z</time></trkpt><trkpt lat="46.04512817778892" lon="8.740447340616612"><ele>300.5</ele><time>2026-04-25T13:17:34Z</time></trkpt><trkpt lat="46.04507544313091" lon="8.74063278458231"><ele>303.0</ele><time>2026-04-25T13:17:35Z</time></trkpt><trkpt lat="46.04502437121357" lon="8.740802006890421"><ele>305.5</ele><time>2026-04-25T13:17:36Z</time></trkpt><trkpt lat="46.044998956848815" lon="8.740965899465868"><ele>308.0</ele><time>2026-04-25T13:17:37Z</time></trkpt><trkpt lat="46.04497173706988" lon="8.741140389610667"><ele>302.6</ele><time>2026-04-25T13:17:38Z</time></trkpt><trkpt lat="46.04494900387433" lon="8.741343929538138"><ele>297.20000000000005</ele><time>2026-04-25T13:17:39Z</time></trkpt><trkpt lat="46.04493796265204" lon="8.741522361265021"><ele>291.8</ele><time>2026-04-25T13:17:40Z</time></trkpt><trkpt lat="46.044926812764345" lon="8.741662963947428"><ele>286.40000000000003</ele><time>2026-04-25T13:17:41Z</time></trkpt><trkpt lat="46.0449084681839" lon="8.741764043118012"><ele>281.0</ele><time>2026-04-25T13:17:42Z</time></trkpt><trkpt lat="46.04485828809288" lon="8.741841769387003"><ele>281.0</ele><time>2026-04-25T13:17:44Z</time></trkpt><trkpt lat="46.04478774152647" lon="8.741739314470397"><ele>281.0</ele><time>2026-04-25T13:17:46Z</time></trkpt><trkpt lat="46.04478093409712" lon="8.741622539444895"><ele>281.0</ele><time>2026-04-25T13:17:47Z</time></trkpt><trkpt lat="46.04482042574778" lon="8.741400941190756"><ele>281.0</ele><time>2026-04-25T13:17:49Z</time></trkpt><trkpt lat="46.04483349789726" lon="8.74119327734226"><ele>278.0</ele><time>2026-04-25T13:17:50Z</time></trkpt><trkpt lat="46.04483451564415" lon="8.740922366083423"><ele>275.0</ele><time>2026-04-25T13:17:51Z</time></trkpt><trkpt lat="46.04483323389733" lon="8.740631003404157"><ele>272.0</ele><time>2026-04-25T13:17:52Z</time></trkpt><trkpt lat="46.04484116654754" lon="8.740380635484408"><ele>268.0</ele><time>2026-04-25T13:17:53Z</time></trkpt><trkpt lat="46.0448557451906" lon="8.740155744432254"><ele>264.0</ele><time>2026-04-25T13:17:54Z</time></trkpt><trkpt lat="46.04487383622531" lon="8.739960622129805"><ele>260.0</ele><time>2026-04-25T13:17:55Z</time></trkpt><trkpt lat="46.0449057099636" lon="8.739810687130733"><ele>256.0</ele><time>2026-04-25T13:17:56Z</time></trkpt><trkpt lat="46.04495027581806" lon="8.739660994641886"><ele>262.25</ele><time>2026-04-25T13:17:57Z</time></trkpt><trkpt lat="46.04500625024241" lon="8.739475077096142"><ele>268.5</ele><time>2026-04-25T13:17:58Z</time></trkpt><trkpt lat="46.04507122120289" lon="8.739302856231244"><ele>274.75</ele><time>2026-04-25T13:17:59Z</time></trkpt><trkpt lat="46.04514056763144" lon="8.739146271476208"><ele>281.0</ele><time>2026-04-25T13:18:00Z</time></trkpt><trkpt lat="46.04520134836391" lon="8.739017560332822"><ele>281.0</ele><time>2026-04-25T13:18:01Z</time></trkpt><trkpt lat="46.04525692325319" lon="8.738939854246151"><ele>281.0</ele><time>2026-04-25T13:18:02Z</time></trkpt><trkpt lat="46.04530225927094" lon="8.73884521670005"><ele>281.0</ele><time>2026-04-25T13:18:04Z</time></trkpt><trkpt lat="46.045234869689146" lon="8.738783512468398"><ele>281.0</ele><time>2026-04-25T13:18:05Z</time></trkpt><trkpt lat="46.045133449628544" lon="8.738877276519734"><ele>281.0</ele><time>2026-04-25T13:18:07Z</time></trkpt><trkpt lat="46.04508748675063" lon="8.739004038345552"><ele>281.0</ele><time>2026-04-25T13:18:08Z</time></trkpt><trkpt lat="46.04502384046397" lon="8.739161325460417"><ele>281.0</ele><time>2026-04-25T13:18:09Z</time></trkpt><trkpt lat="46.04491582468541" lon="8.739322574212046"><ele>281.0</ele><time>2026-04-25T13:18:10Z</time></trkpt><trkpt lat="46.04478227494682" lon="8.739534018840377"><ele>272.6666666666667</ele><time>2026-04-25T13:18:11Z</time></trkpt><trkpt lat="46.04466441864129" lon="8.739761733594527"><ele>264.3333333333333</ele><time>2026-04-25T13:18:12Z</time></trkpt><trkpt lat="46.04454300044762" lon="8.739971876345233"><ele>256.0</ele><time>2026-04-25T13:18:13Z</time></trkpt><trkpt lat="46.0444516668333" lon="8.740174423524497"><ele>259.2</ele><time>2026-04-25T13:18:14Z</time></trkpt><trkpt lat="46.04437426956684" lon="8.74031749517595"><ele>262.40000000000003</ele><time>2026-04-25T13:18:15Z</time></trkpt><trkpt lat="46.04432230451324" lon="8.740420996727146"><ele>265.6</ele><time>2026-04-25T13:18:16Z</time></trkpt><trkpt lat="46.044231027007775" lon="8.740423704014095"><ele>268.8</ele><time>2026-04-25T13:18:17Z</time></trkpt><trkpt lat="46.04416836183644" lon="8.740493359895268"><ele>272.0</ele><time>2026-04-25T13:18:18Z</time></trkpt><trkpt lat="46.04409224266256" lon="8.74057429490597"><ele>263.75</ele><time>2026-04-25T13:18:19Z</time></trkpt><trkpt lat="46.04403861787903" lon="8.740688996052482"><ele>255.5</ele><time>2026-04-25T13:18:20Z</time></trkpt><trkpt lat="46.04399252030044" lon="8.740861294452737"><ele>247.25</ele><time>2026-04-25T13:18:21Z</time></trkpt><trkpt lat="46.043913890629796" lon="8.741036101714178"><ele>239.0</ele><time>2026-04-25T13:18:22Z</time></trkpt><trkpt lat="46.043844320929644" lon="8.741219586813608"><ele>239.00000000000003</ele><time>2026-04-25T13:18:23Z</time></trkpt><trkpt lat="46.04378191384775" lon="8.741343825381604"><ele>239.0</ele><time>2026-04-25T13:18:24Z</time></trkpt><trkpt lat="46.04374282692623" lon="8.741429923672376"><ele>239.0</ele><time>2026-04-25T13:18:25Z</time></trkpt><trkpt lat="46.043675794071994" lon="8.741490493589664"><ele>239.0</ele><time>2026-04-25T13:18:27Z</time></trkpt><trkpt lat="46.04361348461539" lon="8.741382531553013"><ele>239.00000000000003</ele><time>2026-04-25T13:18:28.999Z</time></trkpt><trkpt lat="46.04365978938334" lon="8.741317630757361"><ele>239.0</ele><time>2026-04-25T13:18:29.999Z</time></trkpt><trkpt lat="46.0437144655971" lon="8.741266180012067"><ele>239.0</ele><time>2026-04-25T13:18:30.999Z</time></trkpt><trkpt lat="46.04377504377141" lon="8.74115762748317"><ele>239.0</ele><time>2026-04-25T13:18:31.999Z</time></trkpt><trkpt lat="46.04385106885682" lon="8.741019306360508"><ele>239.0</ele><time>2026-04-25T13:18:32.999Z</time></trkpt><trkpt lat="46.04391688768991" lon="8.740848895189291"><ele>239.0</ele><time>2026-04-25T13:18:33.999Z</time></trkpt><trkpt lat="46.04396888857798" lon="8.740671466488411"><ele>238.33333333333334</ele><time>2026-04-25T13:18:34.999Z</time></trkpt><trkpt lat="46.04402069970587" lon="8.740549106161192"><ele>237.66666666666669</ele><time>2026-04-25T13:18:35.999Z</time></trkpt><trkpt lat="46.0440792835811" lon="8.740468274707503"><ele>237.0</ele><time>2026-04-25T13:18:36.999Z</time></trkpt><trkpt lat="46.04411589154783" lon="8.740384874450777"><ele>236.33333333333331</ele><time>2026-04-25T13:18:37.999Z</time></trkpt><trkpt lat="46.04416126178461" lon="8.740320268366814"><ele>235.66666666666666</ele><time>2026-04-25T13:18:39.999Z</time></trkpt><trkpt lat="46.04406156615343" lon="8.740241906505355"><ele>235.0</ele><time>2026-04-25T13:18:40.999Z</time></trkpt><trkpt lat="46.044003248420445" lon="8.740283684089087"><ele>235.0</ele><time>2026-04-25T13:18:41.999Z</time></trkpt><trkpt lat="46.043964273775096" lon="8.740372660929538"><ele>235.0</ele><time>2026-04-25T13:18:42.999Z</time></trkpt><trkpt lat="46.04390597619564" lon="8.740507446142207"><ele>235.0</ele><time>2026-04-25T13:18:43.999Z</time></trkpt><trkpt lat="46.043808767769576" lon="8.74065474307503"><ele>235.0</ele><time>2026-04-25T13:18:44.999Z</time></trkpt><trkpt lat="46.04371276441804" lon="8.740808929147166"><ele>235.0</ele><time>2026-04-25T13:18:45.999Z</time></trkpt><trkpt lat="46.043644581566234" lon="8.740937061479785"><ele>235.0</ele><time>2026-04-25T13:18:46.999Z</time></trkpt><trkpt lat="46.04354463986568" lon="8.74100833832586"><ele>235.0</ele><time>2026-04-25T13:18:47.999Z</time></trkpt><trkpt lat="46.043475736830935" lon="8.741101576756408"><ele>235.0</ele><time>2026-04-25T13:18:49Z</time></trkpt><trkpt lat="46.04343261331952" lon="8.7411989720943"><ele>235.0</ele><time>2026-04-25T13:18:50Z</time></trkpt><trkpt lat="46.043432166960606" lon="8.741313178534984"><ele>234.99999999999997</ele><time>2026-04-25T13:18:51Z</time></trkpt><trkpt lat="46.04343888811801" lon="8.741438557833872"><ele>235.0</ele><time>2026-04-25T13:18:53Z</time></trkpt><trkpt lat="46.043351459774044" lon="8.741389712494092"><ele>235.0</ele><time>2026-04-25T13:18:55Z</time></trkpt><trkpt lat="46.04338071564412" lon="8.741290445396775"><ele>235.0</ele><time>2026-04-25T13:18:56Z</time></trkpt><trkpt lat="46.043395337963695" lon="8.741172794733343"><ele>234.99999999999997</ele><time>2026-04-25T13:18:57Z</time></trkpt><trkpt lat="46.043431390887726" lon="8.74102330903056"><ele>235.0</ele><time>2026-04-25T13:18:58Z</time></trkpt><trkpt lat="46.04347065802816" lon="8.740875023880397"><ele>235.0</ele><time>2026-04-25T13:18:59Z</time></trkpt><trkpt lat="46.04351395596262" lon="8.740744930951278"><ele>235.0</ele><time>2026-04-25T13:19:00Z</time></trkpt><trkpt lat="46.04357359247544" lon="8.740633365828748"><ele>235.0</ele><time>2026-04-25T13:19:01Z</time></trkpt><trkpt lat="46.04364172064288" lon="8.740533009058446"><ele>235.0</ele><time>2026-04-25T13:19:02Z</time></trkpt><trkpt lat="46.04369953191499" lon="8.740421875945742"><ele>235.0</ele><time>2026-04-25T13:19:03Z</time></trkpt><trkpt lat="46.043739030069" lon="8.740317985761013"><ele>233.4</ele><time>2026-04-25T13:19:04Z</time></trkpt><trkpt lat="46.04374786238589" lon="8.740191003252963"><ele>231.8</ele><time>2026-04-25T13:19:05Z</time></trkpt><trkpt lat="46.04375491663766" lon="8.740058602553642"><ele>230.2</ele><time>2026-04-25T13:19:06Z</time></trkpt><trkpt lat="46.04378555832853" lon="8.739940944654974"><ele>228.6</ele><time>2026-04-25T13:19:07Z</time></trkpt><trkpt lat="46.04383200365647" lon="8.73980373304536"><ele>227.0</ele><time>2026-04-25T13:19:08Z</time></trkpt><trkpt lat="46.043882361228825" lon="8.739667277261828"><ele>227.00000000000003</ele><time>2026-04-25T13:19:09Z</time></trkpt><trkpt lat="46.043948754178594" lon="8.73956530000385"><ele>227.0</ele><time>2026-04-25T13:19:10Z</time></trkpt><trkpt lat="46.04399576027349" lon="8.739470575796963"><ele>227.0</ele><time>2026-04-25T13:19:11Z</time></trkpt><trkpt lat="46.04403669010323" lon="8.739365940703925"><ele>227.0</ele><time>2026-04-25T13:19:12Z</time></trkpt><trkpt lat="46.04408447007529" lon="8.73928665829548"><ele>227.00000000000003</ele><time>2026-04-25T13:19:13Z</time></trkpt><trkpt lat="46.04409440633171" lon="8.739188316197872"><ele>227.0</ele><time>2026-04-25T13:19:14Z</time></trkpt><trkpt lat="46.044125830888746" lon="8.739024477323976"><ele>226.66666666666669</ele><time>2026-04-25T13:19:16Z</time></trkpt><trkpt lat="46.044162514294385" lon="8.738919193537225"><ele>226.33333333333334</ele><time>2026-04-25T13:19:18Z</time></trkpt><trkpt lat="46.044174456193765" lon="8.738788970198984"><ele>226.0</ele><time>2026-04-25T13:19:21Z</time></trkpt><trkpt lat="46.04416370231259" lon="8.738686993243784"><ele>225.66666666666669</ele><time>2026-04-25T13:19:23Z</time></trkpt><trkpt lat="46.04408992226965" lon="8.73859676772778"><ele>225.33333333333334</ele><time>2026-04-25T13:19:25Z</time></trkpt><trkpt lat="46.04403138865886" lon="8.738545849446215"><ele>225.0</ele><time>2026-04-25T13:19:27Z</time></trkpt><trkpt lat="46.043958552789" lon="8.738490402022075"><ele>224.6</ele><time>2026-04-25T13:19:30Z</time></trkpt><trkpt lat="46.0438859880706" lon="8.738421502614258"><ele>224.2</ele><time>2026-04-25T13:19:33Z</time></trkpt><trkpt lat="46.043821773690375" lon="8.738351444938855"><ele>223.8</ele><time>2026-04-25T13:19:36Z</time></trkpt><trkpt lat="46.043768978191515" lon="8.738278738959574"><ele>223.4</ele><time>2026-04-25T13:19:39Z</time></trkpt><trkpt lat="46.043653418382966" lon="8.738243534175785"><ele>223.0</ele><time>2026-04-25T13:19:41Z</time></trkpt><trkpt lat="46.0435587731997" lon="8.738217331389214"><ele>223.0</ele><time>2026-04-25T13:19:42Z</time></trkpt><trkpt lat="46.04346636901766" lon="8.738215696558331"><ele>223.0</ele><time>2026-04-25T13:19:43Z</time></trkpt><trkpt lat="46.04338199898472" lon="8.738254330806633"><ele>223.0</ele><time>2026-04-25T13:19:44Z</time></trkpt><trkpt lat="46.04331671359137" lon="8.738341877890116"><ele>223.0</ele><time>2026-04-25T13:19:45Z</time></trkpt><trkpt lat="46.04324926696431" lon="8.738362334603558"><ele>223.0</ele><time>2026-04-25T13:19:46Z</time></trkpt><trkpt lat="46.04308965399616" lon="8.738477165287437"><ele>222.83333333333331</ele><time>2026-04-25T13:19:48Z</time></trkpt><trkpt lat="46.04301979605446" lon="8.738495867059857"><ele>222.66666666666666</ele><time>2026-04-25T13:19:49Z</time></trkpt><trkpt lat="46.042936094181854" lon="8.738542526716829"><ele>222.5</ele><time>2026-04-25T13:19:50Z</time></trkpt><trkpt lat="46.04285215634937" lon="8.738611462302918"><ele>222.33333333333331</ele><time>2026-04-25T13:19:51Z</time></trkpt><trkpt lat="46.04275927122482" lon="8.73860980857192"><ele>222.16666666666666</ele><time>2026-04-25T13:19:52Z</time></trkpt><trkpt lat="46.04267228331894" lon="8.738648675580462"><ele>222.0</ele><time>2026-04-25T13:19:53Z</time></trkpt><trkpt lat="46.04259900019315" lon="8.738745055543077"><ele>222.0</ele><time>2026-04-25T13:19:54Z</time></trkpt><trkpt lat="46.04250773178792" lon="8.738833563318503"><ele>222.0</ele><time>2026-04-25T13:19:55Z</time></trkpt><trkpt lat="46.04241128133371" lon="8.738926039866172"><ele>222.0</ele><time>2026-04-25T13:19:56Z</time></trkpt><trkpt lat="46.04231625845829" lon="8.739014613601904"><ele>222.0</ele><time>2026-04-25T13:19:57Z</time></trkpt><trkpt lat="46.042234361650515" lon="8.739096721966149"><ele>222.0</ele><time>2026-04-25T13:19:58Z</time></trkpt><trkpt lat="46.04216135048705" lon="8.739169243696459"><ele>220.8</ele><time>2026-04-25T13:19:59Z</time></trkpt><trkpt lat="46.04207683491264" lon="8.739250805168831"><ele>219.6</ele><time>2026-04-25T13:20:00Z</time></trkpt><trkpt lat="46.041983329287696" lon="8.739336174486981"><ele>218.40000000000003</ele><time>2026-04-25T13:20:01Z</time></trkpt><trkpt lat="46.04188715705556" lon="8.739433680944034"><ele>217.20000000000002</ele><time>2026-04-25T13:20:02Z</time></trkpt><trkpt lat="46.041789865300196" lon="8.73952922334818"><ele>216.0</ele><time>2026-04-25T13:20:03Z</time></trkpt><trkpt lat="46.04169022096182" lon="8.739624656212275"><ele>216.0</ele><time>2026-04-25T13:20:04Z</time></trkpt><trkpt lat="46.04160541707046" lon="8.739710137002607"><ele>216.0</ele><time>2026-04-25T13:20:05Z</time></trkpt><trkpt lat="46.041533713613106" lon="8.739780596310256"><ele>216.0</ele><time>2026-04-25T13:20:06Z</time></trkpt><trkpt lat="46.04147429897551" lon="8.739846263242827"><ele>216.0</ele><time>2026-04-25T13:20:07Z</time></trkpt><trkpt lat="46.04141911704545" lon="8.73990406933699"><ele>216.0</ele><time>2026-04-25T13:20:08Z</time></trkpt><trkpt lat="46.04136224937671" lon="8.73996152991889"><ele>216.0</ele><time>2026-04-25T13:20:09Z</time></trkpt><trkpt lat="46.04129510330392" lon="8.740027191204277"><ele>216.0</ele><time>2026-04-25T13:20:10Z</time></trkpt><trkpt lat="46.04122191533032" lon="8.740100733182356"><ele>216.00000000000003</ele><time>2026-04-25T13:20:11Z</time></trkpt><trkpt lat="46.041149825598644" lon="8.740162155812136"><ele>216.00000000000003</ele><time>2026-04-25T13:20:12Z</time></trkpt><trkpt lat="46.04106077720316" lon="8.74018906101619"><ele>216.0</ele><time>2026-04-25T13:20:13Z</time></trkpt><trkpt lat="46.040962603261235" lon="8.740224449008638"><ele>216.0</ele><time>2026-04-25T13:20:14Z</time></trkpt><trkpt lat="46.04084575993122" lon="8.74025806512773"><ele>215.5</ele><time>2026-04-25T13:20:15Z</time></trkpt><trkpt lat="46.040718819798506" lon="8.74031128751465"><ele>215.0</ele><time>2026-04-25T13:20:16Z</time></trkpt><trkpt lat="46.04060734856532" lon="8.740334284966655"><ele>214.5</ele><time>2026-04-25T13:20:17Z</time></trkpt><trkpt lat="46.04050326651506" lon="8.740364639565692"><ele>214.0</ele><time>2026-04-25T13:20:18Z</time></trkpt><trkpt lat="46.04039794352163" lon="8.740384998207839"><ele>214.0</ele><time>2026-04-25T13:20:19Z</time></trkpt><trkpt lat="46.04028875728517" lon="8.740407986749243"><ele>213.99999999999997</ele><time>2026-04-25T13:20:20Z</time></trkpt><trkpt lat="46.04018508893429" lon="8.740440426041811"><ele>213.99999999999997</ele><time>2026-04-25T13:20:21Z</time></trkpt><trkpt lat="46.040076738818016" lon="8.740459225640254"><ele>214.0</ele><time>2026-04-25T13:20:22Z</time></trkpt><trkpt lat="46.039975416029854" lon="8.74048927225026"><ele>214.0</ele><time>2026-04-25T13:20:23Z</time></trkpt><trkpt lat="46.039879262248704" lon="8.740522795675748"><ele>213.39999999999998</ele><time>2026-04-25T13:20:24Z</time></trkpt><trkpt lat="46.03978030984669" lon="8.740538598914986"><ele>212.79999999999998</ele><time>2026-04-25T13:20:25Z</time></trkpt><trkpt lat="46.03968274602508" lon="8.74056582008511"><ele>212.2</ele><time>2026-04-25T13:20:26Z</time></trkpt><trkpt lat="46.03959001517563" lon="8.740594107265967"><ele>211.60000000000002</ele><time>2026-04-25T13:20:26.999Z</time></trkpt><trkpt lat="46.03949624650858" lon="8.740617718166511"><ele>211.0</ele><time>2026-04-25T13:20:27.999Z</time></trkpt><trkpt lat="46.039405395914386" lon="8.740643892329494"><ele>211.0</ele><time>2026-04-25T13:20:28.999Z</time></trkpt><trkpt lat="46.03931174397105" lon="8.740665803369604"><ele>211.0</ele><time>2026-04-25T13:20:29.999Z</time></trkpt><trkpt lat="46.0392205714384" lon="8.740689849385317"><ele>211.0</ele><time>2026-04-25T13:20:30.999Z</time></trkpt><trkpt lat="46.03912921440105" lon="8.740715915770947"><ele>211.0</ele><time>2026-04-25T13:20:31.999Z</time></trkpt><trkpt lat="46.03902869882744" lon="8.740734395760272"><ele>211.0</ele><time>2026-04-25T13:20:32.999Z</time></trkpt><trkpt lat="46.03891795013643" lon="8.740765936000416"><ele>210.25</ele><time>2026-04-25T13:20:33.999Z</time></trkpt><trkpt lat="46.03880394475986" lon="8.740798416011254"><ele>209.5</ele><time>2026-04-25T13:20:34.999Z</time></trkpt><trkpt lat="46.0386883284646" lon="8.740830309930164"><ele>208.75</ele><time>2026-04-25T13:20:35.999Z</time></trkpt><trkpt lat="46.038576625962456" lon="8.740857430810168"><ele>208.0</ele><time>2026-04-25T13:20:36.999Z</time></trkpt><trkpt lat="46.03846628681862" lon="8.740885336936914"><ele>208.0</ele><time>2026-04-25T13:20:37.999Z</time></trkpt><trkpt lat="46.03834700031055" lon="8.740919348514476"><ele>208.0</ele><time>2026-04-25T13:20:38.999Z</time></trkpt><trkpt lat="46.03821478941211" lon="8.740952222959686"><ele>208.0</ele><time>2026-04-25T13:20:39.999Z</time></trkpt><trkpt lat="46.03806910251725" lon="8.740989750631408"><ele>208.0</ele><time>2026-04-25T13:20:40.999Z</time></trkpt><trkpt lat="46.037936661518906" lon="8.741025438431578"><ele>207.8</ele><time>2026-04-25T13:20:41.999Z</time></trkpt><trkpt lat="46.03780506569383" lon="8.741069718551817"><ele>207.60000000000002</ele><time>2026-04-25T13:20:42.999Z</time></trkpt><trkpt lat="46.03770355512226" lon="8.74107761881281"><ele>207.39999999999998</ele><time>2026-04-25T13:20:43.999Z</time></trkpt><trkpt lat="46.037610854899974" lon="8.741126913852348"><ele>207.2</ele><time>2026-04-25T13:20:44.999Z</time></trkpt><trkpt lat="46.0375220095584" lon="8.741172918722274"><ele>207.0</ele><time>2026-04-25T13:20:45.999Z</time></trkpt><trkpt lat="46.03742629933029" lon="8.741231206363791"><ele>205.8</ele><time>2026-04-25T13:20:46.999Z</time></trkpt><trkpt lat="46.037322103067" lon="8.741303702149843"><ele>204.6</ele><time>2026-04-25T13:20:47.999Z</time></trkpt><trkpt lat="46.03723555035202" lon="8.741393746711873"><ele>203.4</ele><time>2026-04-25T13:20:48.999Z</time></trkpt><trkpt lat="46.03716188927119" lon="8.7414805669916"><ele>202.20000000000002</ele><time>2026-04-25T13:20:49.999Z</time></trkpt><trkpt lat="46.03709365190994" lon="8.741563356673293"><ele>201.0</ele><time>2026-04-25T13:20:50.999Z</time></trkpt><trkpt lat="46.03702466509783" lon="8.741638514913973"><ele>201.0</ele><time>2026-04-25T13:20:51.999Z</time></trkpt><trkpt lat="46.03694511325043" lon="8.741717485811048"><ele>201.0</ele><time>2026-04-25T13:20:52.999Z</time></trkpt><trkpt lat="46.036863247360095" lon="8.741790010649515"><ele>201.0</ele><time>2026-04-25T13:20:53.999Z</time></trkpt><trkpt lat="46.036778196336215" lon="8.741862479126944"><ele>201.0</ele><time>2026-04-25T13:20:55Z</time></trkpt><trkpt lat="46.03668484387425" lon="8.741911914113738"><ele>201.0</ele><time>2026-04-25T13:20:56Z</time></trkpt><trkpt lat="46.03659127811553" lon="8.741981777321222"><ele>200.0</ele><time>2026-04-25T13:20:57Z</time></trkpt><trkpt lat="46.03650167268997" lon="8.742044999888405"><ele>199.0</ele><time>2026-04-25T13:20:58Z</time></trkpt><trkpt lat="46.03641709904775" lon="8.742166321384598"><ele>198.0</ele><time>2026-04-25T13:20:59Z</time></trkpt><trkpt lat="46.03631275152356" lon="8.742283446079233"><ele>197.0</ele><time>2026-04-25T13:21:00Z</time></trkpt><trkpt lat="46.036202706494876" lon="8.742362815177616"><ele>197.0</ele><time>2026-04-25T13:21:01Z</time></trkpt><trkpt lat="46.03609404614229" lon="8.742457128064641"><ele>197.0</ele><time>2026-04-25T13:21:02Z</time></trkpt><trkpt lat="46.035990604645114" lon="8.742544024712716"><ele>197.0</ele><time>2026-04-25T13:21:03Z</time></trkpt><trkpt lat="46.03589270361353" lon="8.742633608947894"><ele>197.0</ele><time>2026-04-25T13:21:04Z</time></trkpt><trkpt lat="46.03579453342226" lon="8.742725677414159"><ele>201.0</ele><time>2026-04-25T13:21:05Z</time></trkpt><trkpt lat="46.035696105305725" lon="8.742820499975691"><ele>205.0</ele><time>2026-04-25T13:21:06Z</time></trkpt><trkpt lat="46.035600830912635" lon="8.742923839669565"><ele>209.0</ele><time>2026-04-25T13:21:07Z</time></trkpt><trkpt lat="46.03550485354184" lon="8.74304356146308"><ele>213.0</ele><time>2026-04-25T13:21:08Z</time></trkpt><trkpt lat="46.03538957710472" lon="8.74321326770485"><ele>213.0</ele><time>2026-04-25T13:21:09Z</time></trkpt><trkpt lat="46.03525787811859" lon="8.743405743134659"><ele>213.0</ele><time>2026-04-25T13:21:10Z</time></trkpt><trkpt lat="46.035131590290874" lon="8.74359485388693"><ele>213.0</ele><time>2026-04-25T13:21:11Z</time></trkpt><trkpt lat="46.03500659819333" lon="8.74378028733801"><ele>212.33333333333331</ele><time>2026-04-25T13:21:12Z</time></trkpt><trkpt lat="46.03488146643358" lon="8.743971039804704"><ele>211.66666666666666</ele><time>2026-04-25T13:21:13Z</time></trkpt><trkpt lat="46.03476866454692" lon="8.744151656778792"><ele>211.0</ele><time>2026-04-25T13:21:14Z</time></trkpt><trkpt lat="46.03471265290695" lon="8.744302821308136"><ele>221.0</ele><time>2026-04-25T13:21:15.066Z</time></trkpt><trkpt lat="46.03461553181955" lon="8.744447626969292"><ele>231.0</ele><time>2026-04-25T13:21:16.055Z</time></trkpt><trkpt lat="46.034509807651084" lon="8.744599645734603"><ele>241.0</ele><time>2026-04-25T13:21:17.063Z</time></trkpt><trkpt lat="46.03439215109295" lon="8.74476638578423"><ele>241.0</ele><time>2026-04-25T13:21:18.058Z</time></trkpt><trkpt lat="46.034283284362346" lon="8.744940221837501"><ele>241.0</ele><time>2026-04-25T13:21:19.046Z</time></trkpt><trkpt lat="46.03418657056222" lon="8.745104506455808"><ele>241.0</ele><time>2026-04-25T13:21:20.037Z</time></trkpt><trkpt lat="46.03304233054326" lon="8.746739650498874"><ele>239.0</ele><time>2026-04-25T13:21:23.641Z</time></trkpt><trkpt lat="46.03219226914194" lon="8.747148299175139"><ele>213.0</ele><time>2026-04-25T13:21:25.637Z</time></trkpt><trkpt lat="46.03141501173536" lon="8.747474852183906"><ele>213.0</ele><time>2026-04-25T13:21:26.64Z</time></trkpt><trkpt lat="46.03098565903779" lon="8.747530055984976"><ele>213.0</ele><time>2026-04-25T13:21:36Z</time></trkpt><trkpt lat="46.03082400157588" lon="8.747560600156575"><ele>221.33333333333331</ele><time>2026-04-25T13:21:37Z</time></trkpt><trkpt lat="46.030713575553605" lon="8.74776225330621"><ele>229.66666666666666</ele><time>2026-04-25T13:21:38Z</time></trkpt><trkpt lat="46.030531965298664" lon="8.747857611955812"><ele>238.0</ele><time>2026-04-25T13:21:39Z</time></trkpt><trkpt lat="46.03036553325039" lon="8.747977928233732"><ele>238.0</ele><time>2026-04-25T13:21:40Z</time></trkpt><trkpt lat="46.03021215525824" lon="8.748094698437367"><ele>238.0</ele><time>2026-04-25T13:21:41Z</time></trkpt><trkpt lat="46.0301109140311" lon="8.748185929121863"><ele>238.0</ele><time>2026-04-25T13:21:42Z</time></trkpt><trkpt lat="46.02997237075044" lon="8.748235893062338"><ele>238.0</ele><time>2026-04-25T13:21:43Z</time></trkpt><trkpt lat="46.02980049863371" lon="8.748274060515348"><ele>235.25</ele><time>2026-04-25T13:21:44Z</time></trkpt><trkpt lat="46.02964852811413" lon="8.748344499167095"><ele>232.5</ele><time>2026-04-25T13:21:45Z</time></trkpt><trkpt lat="46.029530747657" lon="8.748429617655308"><ele>229.75</ele><time>2026-04-25T13:21:46Z</time></trkpt><trkpt lat="46.02941217914735" lon="8.748496633124889"><ele>227.0</ele><time>2026-04-25T13:21:47Z</time></trkpt><trkpt lat="46.02928443305321" lon="8.7485473864259"><ele>227.0</ele><time>2026-04-25T13:21:48Z</time></trkpt><trkpt lat="46.02915330860808" lon="8.748536153380597"><ele>227.0</ele><time>2026-04-25T13:21:49Z</time></trkpt><trkpt lat="46.029018541051364" lon="8.748498140816924"><ele>227.0</ele><time>2026-04-25T13:21:50Z</time></trkpt><trkpt lat="46.02888661496903" lon="8.748480388718079"><ele>227.0</ele><time>2026-04-25T13:21:51Z</time></trkpt><trkpt lat="46.02874626970887" lon="8.748474865316075"><ele>224.75</ele><time>2026-04-25T13:21:52Z</time></trkpt><trkpt lat="46.02860426515768" lon="8.74848990926493"><ele>222.5</ele><time>2026-04-25T13:21:53Z</time></trkpt><trkpt lat="46.028466051850295" lon="8.74852127058996"><ele>220.25</ele><time>2026-04-25T13:21:54Z</time></trkpt><trkpt lat="46.02833325940569" lon="8.748592615762183"><ele>218.0</ele><time>2026-04-25T13:21:55Z</time></trkpt><trkpt lat="46.028196444019876" lon="8.748645759593193"><ele>225.25</ele><time>2026-04-25T13:21:56Z</time></trkpt><trkpt lat="46.028060945873165" lon="8.748705642512457"><ele>232.5</ele><time>2026-04-25T13:21:57Z</time></trkpt><trkpt lat="46.0279313741779" lon="8.748756674240065"><ele>239.75</ele><time>2026-04-25T13:21:58Z</time></trkpt><trkpt lat="46.02779303698346" lon="8.748829933032326"><ele>247.0</ele><time>2026-04-25T13:21:59Z</time></trkpt><trkpt lat="46.02762962720302" lon="8.748927954220855"><ele>246.5</ele><time>2026-04-25T13:22:00.074Z</time></trkpt><trkpt lat="46.02747301453477" lon="8.748998892787434"><ele>246.0</ele><time>2026-04-25T13:22:01.054Z</time></trkpt><trkpt lat="46.02702584094538" lon="8.749390412371893"><ele>246.0</ele><time>2026-04-25T13:22:04.641Z</time></trkpt><trkpt lat="46.026894095796415" lon="8.749476256145849"><ele>246.0</ele><time>2026-04-25T13:22:05.641Z</time></trkpt><trkpt lat="46.026762574265256" lon="8.74956195186651"><ele>246.0</ele><time>2026-04-25T13:22:06.64Z</time></trkpt><trkpt lat="46.0266307730339" lon="8.749647829680637"><ele>246.0</ele><time>2026-04-25T13:22:07.641Z</time></trkpt><trkpt lat="46.02650598184562" lon="8.749755379469475"><ele>235.5</ele><time>2026-04-25T13:22:08.641Z</time></trkpt><trkpt lat="46.02636766022386" lon="8.749819628549963"><ele>225.0</ele><time>2026-04-25T13:22:09.638Z</time></trkpt><trkpt lat="46.02623700699452" lon="8.74991012964402"><ele>214.5</ele><time>2026-04-25T13:22:10.639Z</time></trkpt><trkpt lat="46.02610968869402" lon="8.750012679364024"><ele>204.0</ele><time>2026-04-25T13:22:11.638Z</time></trkpt><trkpt lat="46.025718410076664" lon="8.750474138049729"><ele>202.25</ele><time>2026-04-25T13:22:13Z</time></trkpt><trkpt lat="46.02566493909018" lon="8.750691752371983"><ele>200.5</ele><time>2026-04-25T13:22:14Z</time></trkpt><trkpt lat="46.0255929520014" lon="8.750824860456001"><ele>198.75</ele><time>2026-04-25T13:22:15Z</time></trkpt><trkpt lat="46.025533774885176" lon="8.750915672205947"><ele>197.0</ele><time>2026-04-25T13:22:16Z</time></trkpt><trkpt lat="46.02548318801813" lon="8.751019213924598"><ele>198.00000000000003</ele><time>2026-04-25T13:22:18Z</time></trkpt><trkpt lat="46.0254146908928" lon="8.751061218379558"><ele>199.0</ele><time>2026-04-25T13:22:19Z</time></trkpt><trkpt lat="46.02534877109587" lon="8.75110891400669"><ele>200.0</ele><time>2026-04-25T13:22:20Z</time></trkpt><trkpt lat="46.02526912674538" lon="8.751150891950049"><ele>201.0</ele><time>2026-04-25T13:22:21Z</time></trkpt><trkpt lat="46.02517794695105" lon="8.751192417951877"><ele>202.00000000000003</ele><time>2026-04-25T13:22:22Z</time></trkpt><trkpt lat="46.02507157661718" lon="8.751249809789059"><ele>203.0</ele><time>2026-04-25T13:22:23Z</time></trkpt><trkpt lat="46.02496377124785" lon="8.751300115055129"><ele>203.0</ele><time>2026-04-25T13:22:24Z</time></trkpt><trkpt lat="46.02485325304607" lon="8.751357643684239"><ele>203.0</ele><time>2026-04-25T13:22:25Z</time></trkpt><trkpt lat="46.0247320908476" lon="8.751389299831464"><ele>203.0</ele><time>2026-04-25T13:22:26Z</time></trkpt><trkpt lat="46.02462505689372" lon="8.751430094467455"><ele>203.0</ele><time>2026-04-25T13:22:27Z</time></trkpt><trkpt lat="46.02452651002782" lon="8.751467397722118"><ele>203.0</ele><time>2026-04-25T13:22:28Z</time></trkpt><trkpt lat="46.02443497548932" lon="8.751516431989447"><ele>203.0</ele><time>2026-04-25T13:22:29Z</time></trkpt><trkpt lat="46.02434965503655" lon="8.751570404968671"><ele>203.0</ele><time>2026-04-25T13:22:30Z</time></trkpt><trkpt lat="46.02428223095109" lon="8.751671290710798"><ele>203.0</ele><time>2026-04-25T13:22:31Z</time></trkpt><trkpt lat="46.02421905639137" lon="8.75176718685483"><ele>203.0</ele><time>2026-04-25T13:22:32Z</time></trkpt><trkpt lat="46.024153951957885" lon="8.751869567767871"><ele>205.4</ele><time>2026-04-25T13:22:33Z</time></trkpt><trkpt lat="46.02407976112439" lon="8.751957040026623"><ele>207.8</ele><time>2026-04-25T13:22:33.999Z</time></trkpt><trkpt lat="46.02398976355341" lon="8.751978367280678"><ele>210.2</ele><time>2026-04-25T13:22:34.999Z</time></trkpt><trkpt lat="46.023895839077625" lon="8.75196541133226"><ele>212.6</ele><time>2026-04-25T13:22:35.999Z</time></trkpt><trkpt lat="46.02379527836483" lon="8.751949947317536"><ele>215.0</ele><time>2026-04-25T13:22:36.999Z</time></trkpt><trkpt lat="46.0237018531803" lon="8.751919742846672"><ele>212.8</ele><time>2026-04-25T13:22:37.999Z</time></trkpt><trkpt lat="46.02357378231741" lon="8.751869970803783"><ele>210.6</ele><time>2026-04-25T13:22:38.999Z</time></trkpt><trkpt lat="46.02346939256727" lon="8.75182252302103"><ele>208.39999999999998</ele><time>2026-04-25T13:22:39.999Z</time></trkpt><trkpt lat="46.02338206313655" lon="8.751791193306815"><ele>206.2</ele><time>2026-04-25T13:22:40.999Z</time></trkpt><trkpt lat="46.023296504735846" lon="8.751789163987558"><ele>204.0</ele><time>2026-04-25T13:22:41.999Z</time></trkpt><trkpt lat="46.023205296118796" lon="8.751803413561682"><ele>204.0</ele><time>2026-04-25T13:22:42.999Z</time></trkpt><trkpt lat="46.02310294504898" lon="8.751864363282346"><ele>204.0</ele><time>2026-04-25T13:22:43.999Z</time></trkpt><trkpt lat="46.02297910062069" lon="8.751915011254276"><ele>204.0</ele><time>2026-04-25T13:22:44.999Z</time></trkpt><trkpt lat="46.022849952688325" lon="8.751925364112678"><ele>204.0</ele><time>2026-04-25T13:22:45.999Z</time></trkpt><trkpt lat="46.02269158580129" lon="8.751917849749487"><ele>235.0</ele><time>2026-04-25T13:22:46.999Z</time></trkpt><trkpt lat="46.022480540388116" lon="8.751912025153086"><ele>266.0</ele><time>2026-04-25T13:22:47.999Z</time></trkpt><trkpt lat="46.02223893715904" lon="8.751930157372994"><ele>266.0</ele><time>2026-04-25T13:22:48.999Z</time></trkpt><trkpt lat="46.0220179375779" lon="8.751905624811398"><ele>266.0</ele><time>2026-04-25T13:22:49.999Z</time></trkpt><trkpt lat="46.021795165393364" lon="8.751932878682725"><ele>266.0</ele><time>2026-04-25T13:22:50.999Z</time></trkpt><trkpt lat="46.021557486252725" lon="8.75194272534325"><ele>271.0</ele><time>2026-04-25T13:22:51.999Z</time></trkpt><trkpt lat="46.0213256905863" lon="8.751949494539057"><ele>276.0</ele><time>2026-04-25T13:22:52.999Z</time></trkpt><trkpt lat="46.02109218266988" lon="8.751955518239606"><ele>276.0</ele><time>2026-04-25T13:22:53.999Z</time></trkpt><trkpt lat="46.020860281474974" lon="8.751961784679237"><ele>276.0</ele><time>2026-04-25T13:22:54.999Z</time></trkpt><trkpt lat="46.02062175389733" lon="8.752005118674312"><ele>270.0</ele><time>2026-04-25T13:22:55.999Z</time></trkpt><trkpt lat="46.02037069816317" lon="8.752035939719708"><ele>264.0</ele><time>2026-04-25T13:22:57.064Z</time></trkpt><trkpt lat="46.020138679958194" lon="8.752055078413706"><ele>255.0</ele><time>2026-04-25T13:22:58.055Z</time></trkpt><trkpt lat="46.019904871070125" lon="8.752074196529529"><ele>246.0</ele><time>2026-04-25T13:22:59.054Z</time></trkpt><trkpt lat="46.018458471037945" lon="8.752393468345256"><ele>236.5</ele><time>2026-04-25T13:23:04.999Z</time></trkpt><trkpt lat="46.01827291330679" lon="8.752413794834117"><ele>227.0</ele><time>2026-04-25T13:23:05.999Z</time></trkpt><trkpt lat="46.0180165143843" lon="8.75230857706835"><ele>227.0</ele><time>2026-04-25T13:23:06.999Z</time></trkpt><trkpt lat="46.01781326203037" lon="8.752265501371195"><ele>227.0</ele><time>2026-04-25T13:23:07.999Z</time></trkpt><trkpt lat="46.01761164894242" lon="8.752201796217198"><ele>227.0</ele><time>2026-04-25T13:23:09Z</time></trkpt><trkpt lat="46.01737643607924" lon="8.752126321781605"><ele>238.0</ele><time>2026-04-25T13:23:10Z</time></trkpt><trkpt lat="46.017153395546465" lon="8.752053471827105"><ele>249.0</ele><time>2026-04-25T13:23:11Z</time></trkpt><trkpt lat="46.01690974336217" lon="8.75197543116095"><ele>249.0</ele><time>2026-04-25T13:23:12Z</time></trkpt><trkpt lat="46.01666805763086" lon="8.751876901781936"><ele>249.0</ele><time>2026-04-25T13:23:13Z</time></trkpt><trkpt lat="46.01640009876607" lon="8.751743846428953"><ele>237.0</ele><time>2026-04-25T13:23:14Z</time></trkpt><trkpt lat="46.016146382605896" lon="8.751640941688075"><ele>225.0</ele><time>2026-04-25T13:23:15Z</time></trkpt><trkpt lat="46.01592522013081" lon="8.751521472815881"><ele>231.0</ele><time>2026-04-25T13:23:16Z</time></trkpt><trkpt lat="46.015725867341686" lon="8.751399717534069"><ele>237.0</ele><time>2026-04-25T13:23:17Z</time></trkpt><trkpt lat="46.01553739226381" lon="8.751292543606871"><ele>243.0</ele><time>2026-04-25T13:23:18Z</time></trkpt><trkpt lat="46.015337008147334" lon="8.751224175644525"><ele>243.0</ele><time>2026-04-25T13:23:19Z</time></trkpt><trkpt lat="46.015134703638324" lon="8.75114193792546"><ele>243.0</ele><time>2026-04-25T13:23:20Z</time></trkpt><trkpt lat="46.01492989567129" lon="8.751030753419778"><ele>243.0</ele><time>2026-04-25T13:23:21Z</time></trkpt><trkpt lat="46.01469919539604" lon="8.750895144030887"><ele>239.0</ele><time>2026-04-25T13:23:22Z</time></trkpt><trkpt lat="46.014455809213466" lon="8.750747997941874"><ele>235.0</ele><time>2026-04-25T13:23:23Z</time></trkpt><trkpt lat="46.014242004513434" lon="8.750618734530178"><ele>247.0</ele><time>2026-04-25T13:23:24Z</time></trkpt><trkpt lat="46.01405081378163" lon="8.750499372261189"><ele>259.0</ele><time>2026-04-25T13:23:25Z</time></trkpt><trkpt lat="46.01388954826211" lon="8.7503720523696"><ele>271.0</ele><time>2026-04-25T13:23:26Z</time></trkpt><trkpt lat="46.013757589895924" lon="8.750210139883624"><ele>255.0</ele><time>2026-04-25T13:23:27Z</time></trkpt><trkpt lat="46.013642193870126" lon="8.750037066328929"><ele>239.0</ele><time>2026-04-25T13:23:28Z</time></trkpt><trkpt lat="46.01351942784755" lon="8.749904099766745"><ele>223.0</ele><time>2026-04-25T13:23:29Z</time></trkpt><trkpt lat="46.01337511159715" lon="8.749815704130581"><ele>230.33333333333331</ele><time>2026-04-25T13:23:30Z</time></trkpt><trkpt lat="46.01318857492411" lon="8.749746886752023"><ele>237.66666666666669</ele><time>2026-04-25T13:23:31Z</time></trkpt><trkpt lat="46.01296761274567" lon="8.749712906501967"><ele>245.0</ele><time>2026-04-25T13:23:32Z</time></trkpt><trkpt lat="46.01272948195686" lon="8.749634872577598"><ele>247.5</ele><time>2026-04-25T13:23:33Z</time></trkpt><trkpt lat="46.01247191898476" lon="8.749537490258515"><ele>250.0</ele><time>2026-04-25T13:23:34Z</time></trkpt><trkpt lat="46.01221401835415" lon="8.749413666537654"><ele>230.0</ele><time>2026-04-25T13:23:35Z</time></trkpt><trkpt lat="46.011993234952655" lon="8.749287456722268"><ele>210.0</ele><time>2026-04-25T13:23:36Z</time></trkpt><trkpt lat="46.011788948090526" lon="8.749185160181506"><ele>212.33333333333331</ele><time>2026-04-25T13:23:37Z</time></trkpt><trkpt lat="46.01158218878396" lon="8.749127907587944"><ele>214.66666666666666</ele><time>2026-04-25T13:23:38Z</time></trkpt><trkpt lat="46.01135990083431" lon="8.749056483764058"><ele>217.0</ele><time>2026-04-25T13:23:39Z</time></trkpt><trkpt lat="46.01110997339167" lon="8.74900506581964"><ele>217.0</ele><time>2026-04-25T13:23:40Z</time></trkpt><trkpt lat="46.010875673623204" lon="8.748925461058034"><ele>217.0</ele><time>2026-04-25T13:23:41Z</time></trkpt><trkpt lat="46.010664530959815" lon="8.748855518164955"><ele>218.66666666666666</ele><time>2026-04-25T13:23:42Z</time></trkpt><trkpt lat="46.01047692376187" lon="8.748784362676608"><ele>220.33333333333331</ele><time>2026-04-25T13:23:43Z</time></trkpt><trkpt lat="46.01029638014707" lon="8.748736724111001"><ele>222.0</ele><time>2026-04-25T13:23:44Z</time></trkpt><trkpt lat="46.010132967823616" lon="8.748671900291313"><ele>218.33333333333331</ele><time>2026-04-25T13:23:45Z</time></trkpt><trkpt lat="46.00996264794839" lon="8.748605229665042"><ele>214.66666666666666</ele><time>2026-04-25T13:23:46Z</time></trkpt><trkpt lat="46.009779701600124" lon="8.748534201090532"><ele>211.0</ele><time>2026-04-25T13:23:47Z</time></trkpt><trkpt lat="46.009586723796346" lon="8.748465319497798"><ele>211.0</ele><time>2026-04-25T13:23:48Z</time></trkpt><trkpt lat="46.00938882824368" lon="8.74840388986963"><ele>211.0</ele><time>2026-04-25T13:23:49Z</time></trkpt><trkpt lat="46.00919883115489" lon="8.74831303797947"><ele>211.0</ele><time>2026-04-25T13:23:50Z</time></trkpt><trkpt lat="46.009023486223775" lon="8.748240782027981"><ele>220.0</ele><time>2026-04-25T13:23:51Z</time></trkpt><trkpt lat="46.008872638549484" lon="8.748169078902244"><ele>229.0</ele><time>2026-04-25T13:23:52Z</time></trkpt><trkpt lat="46.0087288797241" lon="8.748111997029627"><ele>238.0</ele><time>2026-04-25T13:23:53Z</time></trkpt><trkpt lat="46.00859840671308" lon="8.74800320954321"><ele>238.0</ele><time>2026-04-25T13:23:54Z</time></trkpt><trkpt lat="46.008483445891954" lon="8.747847677450276"><ele>238.0</ele><time>2026-04-25T13:23:55Z</time></trkpt><trkpt lat="46.00836860094005" lon="8.747686211434946"><ele>238.0</ele><time>2026-04-25T13:23:56Z</time></trkpt><trkpt lat="46.00825366409784" lon="8.747488520510021"><ele>238.66666666666666</ele><time>2026-04-25T13:23:57Z</time></trkpt><trkpt lat="46.00813201631791" lon="8.747277636728672"><ele>239.33333333333331</ele><time>2026-04-25T13:23:58Z</time></trkpt><trkpt lat="46.00799789209723" lon="8.747083659938466"><ele>240.0</ele><time>2026-04-25T13:23:59Z</time></trkpt><trkpt lat="46.00787609236281" lon="8.74690349341161"><ele>239.0</ele><time>2026-04-25T13:24:00Z</time></trkpt><trkpt lat="46.007735200287634" lon="8.746754505018622"><ele>238.0</ele><time>2026-04-25T13:24:01Z</time></trkpt><trkpt lat="46.00759392424747" lon="8.746593580483013"><ele>237.0</ele><time>2026-04-25T13:24:02Z</time></trkpt><trkpt lat="46.00745992155358" lon="8.746429786757986"><ele>237.0</ele><time>2026-04-25T13:24:03Z</time></trkpt><trkpt lat="46.007352993249114" lon="8.746286889130445"><ele>237.0</ele><time>2026-04-25T13:24:04Z</time></trkpt><trkpt lat="46.00724631009763" lon="8.746148247607072"><ele>237.0</ele><time>2026-04-25T13:24:05Z</time></trkpt><trkpt lat="46.00714863559892" lon="8.746011153723888"><ele>237.0</ele><time>2026-04-25T13:24:06Z</time></trkpt><trkpt lat="46.00704746351628" lon="8.745898202601536"><ele>233.0</ele><time>2026-04-25T13:24:07Z</time></trkpt><trkpt lat="46.0069202573106" lon="8.745812591965752"><ele>229.0</ele><time>2026-04-25T13:24:08Z</time></trkpt><trkpt lat="46.006750729784216" lon="8.745745642135647"><ele>225.0</ele><time>2026-04-25T13:24:09Z</time></trkpt><trkpt lat="46.00655696818399" lon="8.745678591400976"><ele>225.0</ele><time>2026-04-25T13:24:10Z</time></trkpt><trkpt lat="46.006395500975245" lon="8.745563131026202"><ele>225.0</ele><time>2026-04-25T13:24:11Z</time></trkpt><trkpt lat="46.00626456999938" lon="8.745389012984717"><ele>225.0</ele><time>2026-04-25T13:24:12Z</time></trkpt><trkpt lat="46.006106495022635" lon="8.745212628742399"><ele>221.0</ele><time>2026-04-25T13:24:13Z</time></trkpt><trkpt lat="46.0059314522879" lon="8.745055684509573"><ele>217.0</ele><time>2026-04-25T13:24:14Z</time></trkpt><trkpt lat="46.00574977645314" lon="8.744921985706753"><ele>213.0</ele><time>2026-04-25T13:24:15Z</time></trkpt><trkpt lat="46.005561686145796" lon="8.74475893810953"><ele>213.0</ele><time>2026-04-25T13:24:16Z</time></trkpt><trkpt lat="46.00541504827641" lon="8.744620733673484"><ele>213.0</ele><time>2026-04-25T13:24:17Z</time></trkpt><trkpt lat="46.00527676600208" lon="8.744526487090813"><ele>213.0</ele><time>2026-04-25T13:24:18Z</time></trkpt><trkpt lat="46.00516513803812" lon="8.744419450029161"><ele>211.0</ele><time>2026-04-25T13:24:19Z</time></trkpt><trkpt lat="46.005060241687474" lon="8.7443147340934"><ele>209.0</ele><time>2026-04-25T13:24:20Z</time></trkpt><trkpt lat="46.00496436390717" lon="8.744209331471213"><ele>207.0</ele><time>2026-04-25T13:24:21Z</time></trkpt><trkpt lat="46.00488247842278" lon="8.744106081112772"><ele>205.0</ele><time>2026-04-25T13:24:22Z</time></trkpt><trkpt lat="46.00481480126451" lon="8.744004189172177"><ele>205.0</ele><time>2026-04-25T13:24:23Z</time></trkpt><trkpt lat="46.004759851618694" lon="8.743910135634113"><ele>205.0</ele><time>2026-04-25T13:24:24Z</time></trkpt><trkpt lat="46.00470479509282" lon="8.743807822974"><ele>205.0</ele><time>2026-04-25T13:24:25Z</time></trkpt><trkpt lat="46.00462597315274" lon="8.743686933845654"><ele>205.0</ele><time>2026-04-25T13:24:26Z</time></trkpt><trkpt lat="46.004518603033695" lon="8.743587394100398"><ele>205.0</ele><time>2026-04-25T13:24:27Z</time></trkpt><trkpt lat="46.00442225656227" lon="8.743450581539891"><ele>205.0</ele><time>2026-04-25T13:24:28Z</time></trkpt><trkpt lat="46.00432472622733" lon="8.743312584653513"><ele>205.0</ele><time>2026-04-25T13:24:29Z</time></trkpt><trkpt lat="46.00422504305131" lon="8.743218705315062"><ele>205.0</ele><time>2026-04-25T13:24:30Z</time></trkpt><trkpt lat="46.004123421237175" lon="8.743163475059701"><ele>205.0</ele><time>2026-04-25T13:24:31Z</time></trkpt><trkpt lat="46.00400433520579" lon="8.743158095447875"><ele>205.0</ele><time>2026-04-25T13:24:32Z</time></trkpt><trkpt lat="46.003875416293724" lon="8.743186105659301"><ele>205.0</ele><time>2026-04-25T13:24:33Z</time></trkpt><trkpt lat="46.00374923992726" lon="8.743178632817742"><ele>205.0</ele><time>2026-04-25T13:24:34Z</time></trkpt><trkpt lat="46.00362416439015" lon="8.743101406191132"><ele>205.0</ele><time>2026-04-25T13:24:35Z</time></trkpt><trkpt lat="46.003517267275065" lon="8.742990057251365"><ele>205.0</ele><time>2026-04-25T13:24:36Z</time></trkpt><trkpt lat="46.00342028794461" lon="8.742879013499572"><ele>205.0</ele><time>2026-04-25T13:24:37Z</time></trkpt><trkpt lat="46.00329463112224" lon="8.742783653094346"><ele>205.0</ele><time>2026-04-25T13:24:38Z</time></trkpt><trkpt lat="46.00320465465359" lon="8.742719854779864"><ele>205.0</ele><time>2026-04-25T13:24:39Z</time></trkpt><trkpt lat="46.00311748660256" lon="8.742640848128397"><ele>204.49999999999997</ele><time>2026-04-25T13:24:40Z</time></trkpt><trkpt lat="46.003041502816764" lon="8.742568490721654"><ele>204.0</ele><time>2026-04-25T13:24:41Z</time></trkpt><trkpt lat="46.002968080437434" lon="8.742503808639903"><ele>203.5</ele><time>2026-04-25T13:24:42Z</time></trkpt><trkpt lat="46.002901424879724" lon="8.742444494413757"><ele>203.0</ele><time>2026-04-25T13:24:43Z</time></trkpt><trkpt lat="46.00283668853413" lon="8.74238374362657"><ele>202.49999999999997</ele><time>2026-04-25T13:24:44Z</time></trkpt><trkpt lat="46.00275975981424" lon="8.742298057781918"><ele>202.0</ele><time>2026-04-25T13:24:45Z</time></trkpt><trkpt lat="46.00267691087925" lon="8.74219483184003"><ele>201.99999999999997</ele><time>2026-04-25T13:24:46Z</time></trkpt><trkpt lat="46.0026029354039" lon="8.742098686077743"><ele>202.0</ele><time>2026-04-25T13:24:47Z</time></trkpt><trkpt lat="46.002539049953626" lon="8.74201624608067"><ele>202.0</ele><time>2026-04-25T13:24:48Z</time></trkpt><trkpt lat="46.00248171749983" lon="8.74194451956066"><ele>202.0</ele><time>2026-04-25T13:24:49Z</time></trkpt><trkpt lat="46.002423026601605" lon="8.741875001854948"><ele>201.99999999999997</ele><time>2026-04-25T13:24:50Z</time></trkpt><trkpt lat="46.00236139638666" lon="8.741802709711475"><ele>202.0</ele><time>2026-04-25T13:24:51Z</time></trkpt><trkpt lat="46.0022979390486" lon="8.741723885076208"><ele>202.16666666666666</ele><time>2026-04-25T13:24:52Z</time></trkpt><trkpt lat="46.00223179452691" lon="8.741647796244358"><ele>202.33333333333331</ele><time>2026-04-25T13:24:53Z</time></trkpt><trkpt lat="46.002179948907994" lon="8.741553319174526"><ele>202.5</ele><time>2026-04-25T13:24:54Z</time></trkpt><trkpt lat="46.00212573289412" lon="8.741486031235683"><ele>202.66666666666669</ele><time>2026-04-25T13:24:55Z</time></trkpt><trkpt lat="46.0020750586578" lon="8.741423139029724"><ele>202.83333333333334</ele><time>2026-04-25T13:24:57Z</time></trkpt><trkpt lat="46.002008831946085" lon="8.741338683354506"><ele>203.0</ele><time>2026-04-25T13:25:00Z</time></trkpt><trkpt lat="46.001954408479605" lon="8.741264120402459"><ele>203.00000000000003</ele><time>2026-04-25T13:25:02Z</time></trkpt><trkpt lat="46.00190230191206" lon="8.74120086967661"><ele>203.0</ele><time>2026-04-25T13:25:05Z</time></trkpt><trkpt lat="46.001806900156154" lon="8.741128714862086"><ele>203.0</ele><time>2026-04-25T13:25:09Z</time></trkpt><trkpt lat="46.001767554380585" lon="8.741048730525765"><ele>203.0</ele><time>2026-04-25T13:25:10Z</time></trkpt><trkpt lat="46.00172119925547" lon="8.74094891853184"><ele>203.00000000000003</ele><time>2026-04-25T13:25:11Z</time></trkpt><trkpt lat="46.00167391027811" lon="8.740847994862964"><ele>203.0</ele><time>2026-04-25T13:25:12Z</time></trkpt><trkpt lat="46.00163363447554" lon="8.740759929448165"><ele>203.16666666666669</ele><time>2026-04-25T13:25:13Z</time></trkpt><trkpt lat="46.00159073184531" lon="8.740669626400269"><ele>203.33333333333334</ele><time>2026-04-25T13:25:14Z</time></trkpt><trkpt lat="46.00154996970064" lon="8.740579898008779"><ele>203.5</ele><time>2026-04-25T13:25:15Z</time></trkpt><trkpt lat="46.00149264337102" lon="8.74048493734625"><ele>203.66666666666669</ele><time>2026-04-25T13:25:16Z</time></trkpt><trkpt lat="46.00142874781291" lon="8.740373770805256"><ele>203.83333333333334</ele><time>2026-04-25T13:25:17Z</time></trkpt><trkpt lat="46.00136519646367" lon="8.740248822634696"><ele>204.0</ele><time>2026-04-25T13:25:18Z</time></trkpt><trkpt lat="46.0013046185685" lon="8.74011251697912"><ele>204.0</ele><time>2026-04-25T13:25:19Z</time></trkpt><trkpt lat="46.00124293650698" lon="8.740021220287138"><ele>204.0</ele><time>2026-04-25T13:25:20Z</time></trkpt><trkpt lat="46.001193269928436" lon="8.739916107290922"><ele>204.0</ele><time>2026-04-25T13:25:21Z</time></trkpt><trkpt lat="46.00114294094735" lon="8.739820200183336"><ele>204.0</ele><time>2026-04-25T13:25:22Z</time></trkpt><trkpt lat="46.0010938398003" lon="8.739729159508117"><ele>204.0</ele><time>2026-04-25T13:25:23Z</time></trkpt><trkpt lat="46.001044700325984" lon="8.739638135713188"><ele>204.0</ele><time>2026-04-25T13:25:24Z</time></trkpt><trkpt lat="46.00099587452111" lon="8.739540851293462"><ele>204.0</ele><time>2026-04-25T13:25:25Z</time></trkpt><trkpt lat="46.000944433310345" lon="8.73942946023457"><ele>204.0</ele><time>2026-04-25T13:25:26Z</time></trkpt><trkpt lat="46.000906731168456" lon="8.739291430749578"><ele>204.0</ele><time>2026-04-25T13:25:27Z</time></trkpt><trkpt lat="46.000854329234606" lon="8.739162395711961"><ele>204.0</ele><time>2026-04-25T13:25:28Z</time></trkpt><trkpt lat="46.00079274984205" lon="8.739048933077214"><ele>204.0</ele><time>2026-04-25T13:25:29Z</time></trkpt><trkpt lat="46.00075584967673" lon="8.738915256016083"><ele>204.25</ele><time>2026-04-25T13:25:30Z</time></trkpt><trkpt lat="46.00069845146764" lon="8.738772925002117"><ele>204.5</ele><time>2026-04-25T13:25:31Z</time></trkpt><trkpt lat="46.000635106178" lon="8.738615845899393"><ele>204.75</ele><time>2026-04-25T13:25:32Z</time></trkpt><trkpt lat="46.000571745861315" lon="8.73845606375628"><ele>205.0</ele><time>2026-04-25T13:25:33Z</time></trkpt><trkpt lat="46.000517216981955" lon="8.738319201834193"><ele>205.0</ele><time>2026-04-25T13:25:34Z</time></trkpt><trkpt lat="46.0004690898826" lon="8.738199067970191"><ele>205.0</ele><time>2026-04-25T13:25:35Z</time></trkpt><trkpt lat="46.0004210442581" lon="8.738079781797666"><ele>205.0</ele><time>2026-04-25T13:25:36Z</time></trkpt><trkpt lat="46.00036878625788" lon="8.737950037150176"><ele>205.0</ele><time>2026-04-25T13:25:37Z</time></trkpt><trkpt lat="46.000317143484914" lon="8.73782182005286"><ele>205.0</ele><time>2026-04-25T13:25:38Z</time></trkpt><trkpt lat="46.00025947439637" lon="8.73767864094216"><ele>205.4</ele><time>2026-04-25T13:25:39Z</time></trkpt><trkpt lat="46.00019961151289" lon="8.73753001520934"><ele>205.8</ele><time>2026-04-25T13:25:40Z</time></trkpt><trkpt lat="46.00015120124713" lon="8.737411048453563"><ele>206.2</ele><time>2026-04-25T13:25:41Z</time></trkpt><trkpt lat="46.00009966583156" lon="8.737289524250285"><ele>206.6</ele><time>2026-04-25T13:25:42Z</time></trkpt><trkpt lat="46.00005032545931" lon="8.737175173229772"><ele>207.0</ele><time>2026-04-25T13:25:43Z</time></trkpt><trkpt lat="46.00000497227895" lon="8.737068232191817"><ele>207.0</ele><time>2026-04-25T13:25:44Z</time></trkpt><trkpt lat="45.999964239597304" lon="8.736972482654824"><ele>207.0</ele><time>2026-04-25T13:25:45Z</time></trkpt><trkpt lat="45.99991925454833" lon="8.736867475869891"><ele>207.0</ele><time>2026-04-25T13:25:46Z</time></trkpt><trkpt lat="45.99987562686139" lon="8.736765637456735"><ele>207.0</ele><time>2026-04-25T13:25:47Z</time></trkpt><trkpt lat="45.999837419411996" lon="8.736681913809699"><ele>207.0</ele><time>2026-04-25T13:25:48Z</time></trkpt><trkpt lat="45.99979756728153" lon="8.736597146311276"><ele>207.0</ele><time>2026-04-25T13:25:49Z</time></trkpt><trkpt lat="45.99975898864372" lon="8.736516571365671"><ele>206.0</ele><time>2026-04-25T13:25:50Z</time></trkpt><trkpt lat="45.99968845884571" lon="8.73637416158762"><ele>205.0</ele><time>2026-04-25T13:25:52Z</time></trkpt><trkpt lat="45.99962605663459" lon="8.736248952410893"><ele>204.0</ele><time>2026-04-25T13:25:54Z</time></trkpt><trkpt lat="45.99956438152051" lon="8.736129426138247"><ele>203.0</ele><time>2026-04-25T13:25:56Z</time></trkpt><trkpt lat="45.999508442106766" lon="8.736024298677906"><ele>202.0</ele><time>2026-04-25T13:25:58Z</time></trkpt><trkpt lat="45.999440820506834" lon="8.735925975708406"><ele>202.49999999999997</ele><time>2026-04-25T13:26:00Z</time></trkpt><trkpt lat="45.999398393644434" lon="8.735760453785097"><ele>203.0</ele><time>2026-04-25T13:26:02Z</time></trkpt><trkpt lat="45.99935883235471" lon="8.73568533810165"><ele>203.5</ele><time>2026-04-25T13:26:03Z</time></trkpt><trkpt lat="45.99931057386972" lon="8.735607742759099"><ele>204.0</ele><time>2026-04-25T13:26:04Z</time></trkpt><trkpt lat="45.999252766295974" lon="8.735556680922079"><ele>204.49999999999997</ele><time>2026-04-25T13:26:05Z</time></trkpt><trkpt lat="45.99920158098757" lon="8.735456619406579"><ele>205.0</ele><time>2026-04-25T13:26:06Z</time></trkpt><trkpt lat="45.99914282937352" lon="8.735355048724973"><ele>205.0</ele><time>2026-04-25T13:26:07Z</time></trkpt><trkpt lat="45.999070301783256" lon="8.735277708397831"><ele>205.0</ele><time>2026-04-25T13:26:08Z</time></trkpt><trkpt lat="45.999002403084084" lon="8.735192754561103"><ele>205.0</ele><time>2026-04-25T13:26:09Z</time></trkpt><trkpt lat="45.998919371394734" lon="8.735114628209159"><ele>205.0</ele><time>2026-04-25T13:26:10Z</time></trkpt><trkpt lat="45.99882665722564" lon="8.735059432383567"><ele>205.0</ele><time>2026-04-25T13:26:11Z</time></trkpt><trkpt lat="45.99873537605073" lon="8.735004354493322"><ele>204.0</ele><time>2026-04-25T13:26:12Z</time></trkpt><trkpt lat="45.99863774456247" lon="8.734965394978966"><ele>203.0</ele><time>2026-04-25T13:26:13Z</time></trkpt><trkpt lat="45.99855429614275" lon="8.734898728229789"><ele>202.0</ele><time>2026-04-25T13:26:14Z</time></trkpt><trkpt lat="45.99848450470877" lon="8.734859365341041"><ele>201.0</ele><time>2026-04-25T13:26:15Z</time></trkpt><trkpt lat="45.99840683671697" lon="8.734815560014024"><ele>200.0</ele><time>2026-04-25T13:26:16Z</time></trkpt><trkpt lat="45.998317912780344" lon="8.734765406263984"><ele>200.0</ele><time>2026-04-25T13:26:17Z</time></trkpt><trkpt lat="45.99822142457532" lon="8.734712027364601"><ele>200.0</ele><time>2026-04-25T13:26:18Z</time></trkpt><trkpt lat="45.99812130800758" lon="8.734656936013263"><ele>200.0</ele><time>2026-04-25T13:26:19Z</time></trkpt><trkpt lat="45.9980114339541" lon="8.734596475504844"><ele>200.0</ele><time>2026-04-25T13:26:20Z</time></trkpt><trkpt lat="45.99790225977373" lon="8.73453708012911"><ele>200.0</ele><time>2026-04-25T13:26:21Z</time></trkpt><trkpt lat="45.99778959250958" lon="8.734477943974326"><ele>200.0</ele><time>2026-04-25T13:26:22Z</time></trkpt><trkpt lat="45.9976823282361" lon="8.734421405512263"><ele>200.0</ele><time>2026-04-25T13:26:23Z</time></trkpt><trkpt lat="45.99757781307013" lon="8.734353218105845"><ele>200.0</ele><time>2026-04-25T13:26:24Z</time></trkpt><trkpt lat="45.99747981048597" lon="8.734277345753577"><ele>200.0</ele><time>2026-04-25T13:26:25Z</time></trkpt><trkpt lat="45.997390664703154" lon="8.734197011034444"><ele>200.0</ele><time>2026-04-25T13:26:26Z</time></trkpt><trkpt lat="45.99729212465166" lon="8.73410452901161"><ele>199.75</ele><time>2026-04-25T13:26:27Z</time></trkpt><trkpt lat="45.99718884675999" lon="8.734003968864352"><ele>199.5</ele><time>2026-04-25T13:26:28Z</time></trkpt><trkpt lat="45.9970912452374" lon="8.733908631055684"><ele>199.25</ele><time>2026-04-25T13:26:29Z</time></trkpt><trkpt lat="45.99698918864359" lon="8.733806290709758"><ele>199.0</ele><time>2026-04-25T13:26:30Z</time></trkpt><trkpt lat="45.99687339430615" lon="8.733686784859387"><ele>198.33333333333331</ele><time>2026-04-25T13:26:31Z</time></trkpt><trkpt lat="45.996735653969466" lon="8.7335433179931"><ele>197.66666666666669</ele><time>2026-04-25T13:26:32Z</time></trkpt><trkpt lat="45.996593141649235" lon="8.733394218202745"><ele>197.0</ele><time>2026-04-25T13:26:33Z</time></trkpt><trkpt lat="45.996476936574055" lon="8.733272641805735"><ele>198.2</ele><time>2026-04-25T13:26:34Z</time></trkpt><trkpt lat="45.99637259429265" lon="8.733191662040836"><ele>199.39999999999998</ele><time>2026-04-25T13:26:35Z</time></trkpt><trkpt lat="45.99628343901072" lon="8.733095964816908"><ele>200.60000000000002</ele><time>2026-04-25T13:26:36Z</time></trkpt><trkpt lat="45.9962001411952" lon="8.732999492524847"><ele>201.8</ele><time>2026-04-25T13:26:37Z</time></trkpt><trkpt lat="45.9961105000759" lon="8.732902453038362"><ele>203.0</ele><time>2026-04-25T13:26:38Z</time></trkpt><trkpt lat="45.996034364830095" lon="8.732814116277286"><ele>203.0</ele><time>2026-04-25T13:26:39Z</time></trkpt><trkpt lat="45.99596591250828" lon="8.732732685855186"><ele>203.0</ele><time>2026-04-25T13:26:40Z</time></trkpt><trkpt lat="45.99590824202291" lon="8.73265427204158"><ele>203.0</ele><time>2026-04-25T13:26:41Z</time></trkpt><trkpt lat="45.99586200575201" lon="8.732568909592825"><ele>203.0</ele><time>2026-04-25T13:26:42Z</time></trkpt><trkpt lat="45.99582713862813" lon="8.7324765490405"><ele>203.0</ele><time>2026-04-25T13:26:43Z</time></trkpt><trkpt lat="45.99579368194506" lon="8.732399367617369"><ele>203.0</ele><time>2026-04-25T13:26:44Z</time></trkpt><trkpt lat="45.99574616145099" lon="8.732338644465166"><ele>203.0</ele><time>2026-04-25T13:26:45Z</time></trkpt><trkpt lat="45.995671353513316" lon="8.732362230744476"><ele>202.5</ele><time>2026-04-25T13:26:46Z</time></trkpt><trkpt lat="45.995592185930924" lon="8.732434094798784"><ele>202.0</ele><time>2026-04-25T13:26:47Z</time></trkpt><trkpt lat="45.99548079776558" lon="8.732494933484789"><ele>201.5</ele><time>2026-04-25T13:26:48Z</time></trkpt><trkpt lat="45.995357181167016" lon="8.732515779908143"><ele>201.0</ele><time>2026-04-25T13:26:49Z</time></trkpt><trkpt lat="45.99522897626209" lon="8.732533694309645"><ele>201.0</ele><time>2026-04-25T13:26:50Z</time></trkpt><trkpt lat="45.995129044728095" lon="8.732577656766637"><ele>201.0</ele><time>2026-04-25T13:26:51Z</time></trkpt><trkpt lat="45.995059857102056" lon="8.732636225658355"><ele>201.0</ele><time>2026-04-25T13:26:52Z</time></trkpt><trkpt lat="45.99498153163746" lon="8.732699543108145"><ele>201.0</ele><time>2026-04-25T13:26:53Z</time></trkpt><trkpt lat="45.99488991835651" lon="8.732712549850563"><ele>201.0</ele><time>2026-04-25T13:26:54Z</time></trkpt><trkpt lat="45.99480565950082" lon="8.732734187255224"><ele>201.14285714285714</ele><time>2026-04-25T13:26:55Z</time></trkpt><trkpt lat="45.99472352745098" lon="8.732746088418246"><ele>201.2857142857143</ele><time>2026-04-25T13:26:56Z</time></trkpt><trkpt lat="45.99464960735774" lon="8.7327385797719"><ele>201.42857142857144</ele><time>2026-04-25T13:26:57Z</time></trkpt><trkpt lat="45.99457325522228" lon="8.73273077896669"><ele>201.57142857142856</ele><time>2026-04-25T13:26:58Z</time></trkpt><trkpt lat="45.99450534950026" lon="8.732723256334838"><ele>201.71428571428572</ele><time>2026-04-25T13:26:59Z</time></trkpt><trkpt lat="45.994437784615585" lon="8.73271521468541"><ele>201.85714285714286</ele><time>2026-04-25T13:27:00Z</time></trkpt><trkpt lat="45.99436951839885" lon="8.732707051586978"><ele>202.0</ele><time>2026-04-25T13:27:01Z</time></trkpt><trkpt lat="45.99430610547481" lon="8.732699468977977"><ele>202.0</ele><time>2026-04-25T13:27:02Z</time></trkpt><trkpt lat="45.99422795704622" lon="8.732690753342634"><ele>202.0</ele><time>2026-04-25T13:27:04Z</time></trkpt><trkpt lat="45.9941253278153" lon="8.732677688354734"><ele>202.0</ele><time>2026-04-25T13:27:07Z</time></trkpt><trkpt lat="45.9939953577652" lon="8.732665786556256"><ele>202.0</ele><time>2026-04-25T13:27:09Z</time></trkpt><trkpt lat="45.99393439597829" lon="8.73270051100708"><ele>202.0</ele><time>2026-04-25T13:27:10Z</time></trkpt><trkpt lat="45.99380602879986" lon="8.732705127118157"><ele>202.0</ele><time>2026-04-25T13:27:12Z</time></trkpt><trkpt lat="45.993714142522414" lon="8.732713334660245"><ele>202.0</ele><time>2026-04-25T13:27:13Z</time></trkpt><trkpt lat="45.99360500434261" lon="8.732726670773884"><ele>202.0</ele><time>2026-04-25T13:27:14Z</time></trkpt><trkpt lat="45.99348741398263" lon="8.732749653955553"><ele>202.0</ele><time>2026-04-25T13:27:15Z</time></trkpt><trkpt lat="45.99337636154143" lon="8.73278619646429"><ele>202.0</ele><time>2026-04-25T13:27:16Z</time></trkpt><trkpt lat="45.99326198996291" lon="8.732828433323425"><ele>201.0</ele><time>2026-04-25T13:27:17Z</time></trkpt><trkpt lat="45.99315642175989" lon="8.732862721153943"><ele>200.0</ele><time>2026-04-25T13:27:18Z</time></trkpt><trkpt lat="45.993054408749934" lon="8.732894458986534"><ele>199.0</ele><time>2026-04-25T13:27:19Z</time></trkpt><trkpt lat="45.99294416194522" lon="8.732936406808454"><ele>198.0</ele><time>2026-04-25T13:27:20.001Z</time></trkpt><trkpt lat="45.99282342316847" lon="8.732977188281861"><ele>198.0</ele><time>2026-04-25T13:27:21.001Z</time></trkpt><trkpt lat="45.99271109784406" lon="8.733020404070029"><ele>198.0</ele><time>2026-04-25T13:27:22.001Z</time></trkpt><trkpt lat="45.99261866275429" lon="8.733051905653815"><ele>198.0</ele><time>2026-04-25T13:27:23.001Z</time></trkpt><trkpt lat="45.99252651670439" lon="8.73308621788682"><ele>198.0</ele><time>2026-04-25T13:27:24.001Z</time></trkpt><trkpt lat="45.992453701167115" lon="8.733113545413225"><ele>198.0</ele><time>2026-04-25T13:27:25.001Z</time></trkpt><trkpt lat="45.99237609532098" lon="8.73313942651196"><ele>198.2</ele><time>2026-04-25T13:27:26.001Z</time></trkpt><trkpt lat="45.99228642534621" lon="8.733168321888504"><ele>198.4</ele><time>2026-04-25T13:27:27.001Z</time></trkpt><trkpt lat="45.99219076509622" lon="8.733199778414738"><ele>198.6</ele><time>2026-04-25T13:27:28.001Z</time></trkpt><trkpt lat="45.99210037457724" lon="8.733231077387195"><ele>198.79999999999998</ele><time>2026-04-25T13:27:29.001Z</time></trkpt><trkpt lat="45.99201064672389" lon="8.733264325757473"><ele>199.0</ele><time>2026-04-25T13:27:30.001Z</time></trkpt><trkpt lat="45.99191573947819" lon="8.733298678838267"><ele>199.0</ele><time>2026-04-25T13:27:31.001Z</time></trkpt><trkpt lat="45.99181788587032" lon="8.733334877309916"><ele>199.0</ele><time>2026-04-25T13:27:32Z</time></trkpt><trkpt lat="45.9917176406556" lon="8.733349397292464"><ele>199.0</ele><time>2026-04-25T13:27:33Z</time></trkpt><trkpt lat="45.99163839965095" lon="8.733454689315796"><ele>199.0</ele><time>2026-04-25T13:27:34Z</time></trkpt><trkpt lat="45.99156630249209" lon="8.733539558786582"><ele>199.0</ele><time>2026-04-25T13:27:35Z</time></trkpt><trkpt lat="45.99149059830439" lon="8.733630852472585"><ele>198.75</ele><time>2026-04-25T13:27:36Z</time></trkpt><trkpt lat="45.99141058004586" lon="8.733731822771942"><ele>198.5</ele><time>2026-04-25T13:27:37Z</time></trkpt><trkpt lat="45.99132616180257" lon="8.733845005266378"><ele>198.25</ele><time>2026-04-25T13:27:38Z</time></trkpt><trkpt lat="45.99123689957246" lon="8.733964645475323"><ele>198.0</ele><time>2026-04-25T13:27:39Z</time></trkpt><trkpt lat="45.99113978110559" lon="8.734085839076936"><ele>198.0</ele><time>2026-04-25T13:27:40Z</time></trkpt><trkpt lat="45.99104036351368" lon="8.734207320634065"><ele>198.0</ele><time>2026-04-25T13:27:41Z</time></trkpt><trkpt lat="45.99093849390543" lon="8.734325630138057"><ele>198.0</ele><time>2026-04-25T13:27:42Z</time></trkpt><trkpt lat="45.99084838127887" lon="8.734433413533429"><ele>198.0</ele><time>2026-04-25T13:27:43Z</time></trkpt><trkpt lat="45.990763983703864" lon="8.734532783089193"><ele>198.0</ele><time>2026-04-25T13:27:44Z</time></trkpt><trkpt lat="45.990661445470856" lon="8.734656749897658"><ele>198.0</ele><time>2026-04-25T13:27:45Z</time></trkpt><trkpt lat="45.9905214691177" lon="8.734820272357563"><ele>198.0</ele><time>2026-04-25T13:27:46Z</time></trkpt><trkpt lat="45.990389359078776" lon="8.734969394943729"><ele>198.0</ele><time>2026-04-25T13:27:47Z</time></trkpt><trkpt lat="45.99028018008031" lon="8.735089421491363"><ele>198.0</ele><time>2026-04-25T13:27:48Z</time></trkpt><trkpt lat="45.99018279084209" lon="8.735197108090503"><ele>198.0</ele><time>2026-04-25T13:27:49Z</time></trkpt><trkpt lat="45.99007490650176" lon="8.735311875453302"><ele>198.0</ele><time>2026-04-25T13:27:50Z</time></trkpt><trkpt lat="45.98995012325935" lon="8.735430174672327"><ele>198.66666666666669</ele><time>2026-04-25T13:27:51Z</time></trkpt><trkpt lat="45.98980460621049" lon="8.735569590890389"><ele>199.33333333333334</ele><time>2026-04-25T13:27:52Z</time></trkpt><trkpt lat="45.989652605613216" lon="8.735712321866721"><ele>200.0</ele><time>2026-04-25T13:27:53Z</time></trkpt><trkpt lat="45.98952050071204" lon="8.735832762275432"><ele>200.0</ele><time>2026-04-25T13:27:54Z</time></trkpt><trkpt lat="45.98940008495988" lon="8.735938798747842"><ele>200.0</ele><time>2026-04-25T13:27:55Z</time></trkpt><trkpt lat="45.98928059801593" lon="8.736047189311467"><ele>200.0</ele><time>2026-04-25T13:27:56Z</time></trkpt><trkpt lat="45.98916473814324" lon="8.736153805827026"><ele>200.0</ele><time>2026-04-25T13:27:57Z</time></trkpt><trkpt lat="45.989046336357326" lon="8.736258490740763"><ele>200.0</ele><time>2026-04-25T13:27:58Z</time></trkpt><trkpt lat="45.98892879076997" lon="8.736350557376541"><ele>200.0</ele><time>2026-04-25T13:27:59Z</time></trkpt><trkpt lat="45.98879556050555" lon="8.736415567666304"><ele>200.0</ele><time>2026-04-25T13:28:00Z</time></trkpt><trkpt lat="45.98867158325945" lon="8.736476037196669"><ele>200.0</ele><time>2026-04-25T13:28:01Z</time></trkpt><trkpt lat="45.98853571226912" lon="8.73653059717746"><ele>200.0</ele><time>2026-04-25T13:28:02Z</time></trkpt><trkpt lat="45.988384322854664" lon="8.736585611448838"><ele>200.0</ele><time>2026-04-25T13:28:03Z</time></trkpt><trkpt lat="45.98823091818951" lon="8.736640551170076"><ele>200.0</ele><time>2026-04-25T13:28:04Z</time></trkpt><trkpt lat="45.98809127901894" lon="8.73671484927425"><ele>201.66666666666669</ele><time>2026-04-25T13:28:05Z</time></trkpt><trkpt lat="45.98794092199524" lon="8.736770440276098"><ele>203.33333333333331</ele><time>2026-04-25T13:28:06Z</time></trkpt><trkpt lat="45.9877535629549" lon="8.736813888905974"><ele>205.0</ele><time>2026-04-25T13:28:07Z</time></trkpt><trkpt lat="45.98755413551277" lon="8.73688362782515"><ele>203.66666666666666</ele><time>2026-04-25T13:28:08Z</time></trkpt><trkpt lat="45.987347496059066" lon="8.736982184105635"><ele>202.33333333333331</ele><time>2026-04-25T13:28:09Z</time></trkpt><trkpt lat="45.9871315730311" lon="8.737042561135459"><ele>201.0</ele><time>2026-04-25T13:28:10Z</time></trkpt><trkpt lat="45.98693125810206" lon="8.737102320373523"><ele>201.0</ele><time>2026-04-25T13:28:11Z</time></trkpt><trkpt lat="45.98674941749967" lon="8.737147476659015"><ele>201.0</ele><time>2026-04-25T13:28:12Z</time></trkpt><trkpt lat="45.986565733242095" lon="8.73718720266964"><ele>201.0</ele><time>2026-04-25T13:28:13Z</time></trkpt><trkpt lat="45.98638412894294" lon="8.737242979087412"><ele>201.66666666666669</ele><time>2026-04-25T13:28:14Z</time></trkpt><trkpt lat="45.986214033636216" lon="8.737322252985999"><ele>202.33333333333334</ele><time>2026-04-25T13:28:15Z</time></trkpt><trkpt lat="45.986051226567376" lon="8.737424013736963"><ele>203.0</ele><time>2026-04-25T13:28:16Z</time></trkpt><trkpt lat="45.98590286946917" lon="8.737531777753741"><ele>203.0</ele><time>2026-04-25T13:28:17Z</time></trkpt><trkpt lat="45.98575579311303" lon="8.737650772920679"><ele>203.0</ele><time>2026-04-25T13:28:18Z</time></trkpt><trkpt lat="45.985589081274256" lon="8.737753522370284"><ele>203.0</ele><time>2026-04-25T13:28:19Z</time></trkpt><trkpt lat="45.985408862064254" lon="8.737865980457677"><ele>203.0</ele><time>2026-04-25T13:28:20Z</time></trkpt><trkpt lat="45.98519640982405" lon="8.73798238348479"><ele>203.0</ele><time>2026-04-25T13:28:21Z</time></trkpt><trkpt lat="45.984983711888795" lon="8.738096055049217"><ele>206.0</ele><time>2026-04-25T13:28:22Z</time></trkpt><trkpt lat="45.98479995400383" lon="8.73818989815774"><ele>209.0</ele><time>2026-04-25T13:28:23Z</time></trkpt><trkpt lat="45.984634000724995" lon="8.738273180786553"><ele>212.0</ele><time>2026-04-25T13:28:24Z</time></trkpt><trkpt lat="45.98447940111345" lon="8.738352493588609"><ele>212.0</ele><time>2026-04-25T13:28:25Z</time></trkpt><trkpt lat="45.98433678339079" lon="8.738433851343347"><ele>212.0</ele><time>2026-04-25T13:28:26Z</time></trkpt><trkpt lat="45.98419864991821" lon="8.738536189805632"><ele>212.0</ele><time>2026-04-25T13:28:27Z</time></trkpt><trkpt lat="45.9840669495281" lon="8.738672736920993"><ele>210.5</ele><time>2026-04-25T13:28:28Z</time></trkpt><trkpt lat="45.98393139962198" lon="8.738767584217296"><ele>209.0</ele><time>2026-04-25T13:28:29Z</time></trkpt><trkpt lat="45.983808460517324" lon="8.738870694444621"><ele>207.5</ele><time>2026-04-25T13:28:30Z</time></trkpt><trkpt lat="45.983681984095234" lon="8.73897203458415"><ele>206.0</ele><time>2026-04-25T13:28:31Z</time></trkpt><trkpt lat="45.98355967072737" lon="8.739051518153428"><ele>206.0</ele><time>2026-04-25T13:28:32Z</time></trkpt><trkpt lat="45.98342706238905" lon="8.739112669936286"><ele>206.0</ele><time>2026-04-25T13:28:33Z</time></trkpt><trkpt lat="45.983282145315314" lon="8.739170652222086"><ele>206.0</ele><time>2026-04-25T13:28:34Z</time></trkpt><trkpt lat="45.98313934195046" lon="8.739242076049901"><ele>206.0</ele><time>2026-04-25T13:28:35Z</time></trkpt><trkpt lat="45.98302129564007" lon="8.739339132763993"><ele>204.5</ele><time>2026-04-25T13:28:36Z</time></trkpt><trkpt lat="45.98289504914508" lon="8.739408674576753"><ele>203.0</ele><time>2026-04-25T13:28:37Z</time></trkpt><trkpt lat="45.98277295489159" lon="8.73952286114763"><ele>201.5</ele><time>2026-04-25T13:28:38Z</time></trkpt><trkpt lat="45.98268123656665" lon="8.739667828436582"><ele>200.0</ele><time>2026-04-25T13:28:39Z</time></trkpt><trkpt lat="45.98258818185372" lon="8.739805148027969"><ele>201.0</ele><time>2026-04-25T13:28:40Z</time></trkpt><trkpt lat="45.98249585462942" lon="8.739959988877356"><ele>202.0</ele><time>2026-04-25T13:28:41Z</time></trkpt><trkpt lat="45.982400888359095" lon="8.74012673640857"><ele>203.0</ele><time>2026-04-25T13:28:42Z</time></trkpt><trkpt lat="45.98228269180816" lon="8.74029647904086"><ele>203.0</ele><time>2026-04-25T13:28:43Z</time></trkpt><trkpt lat="45.982171803005656" lon="8.740481328158529"><ele>203.0</ele><time>2026-04-25T13:28:44Z</time></trkpt><trkpt lat="45.98208307365505" lon="8.740663430013443"><ele>203.0</ele><time>2026-04-25T13:28:45Z</time></trkpt><trkpt lat="45.98198808157905" lon="8.740808953712513"><ele>203.0</ele><time>2026-04-25T13:28:46Z</time></trkpt><trkpt lat="45.9818972561267" lon="8.740939917325221"><ele>203.0</ele><time>2026-04-25T13:28:47Z</time></trkpt><trkpt lat="45.9818097952255" lon="8.741048364817082"><ele>203.0</ele><time>2026-04-25T13:28:48Z</time></trkpt><trkpt lat="45.98171830004225" lon="8.741134540065307"><ele>203.0</ele><time>2026-04-25T13:28:49Z</time></trkpt><trkpt lat="45.981625669075335" lon="8.741198831357565"><ele>203.5</ele><time>2026-04-25T13:28:50Z</time></trkpt><trkpt lat="45.98152733632966" lon="8.741235563506411"><ele>204.0</ele><time>2026-04-25T13:28:51Z</time></trkpt><trkpt lat="45.98141297806242" lon="8.741233549814206"><ele>204.5</ele><time>2026-04-25T13:28:52Z</time></trkpt><trkpt lat="45.981287930837105" lon="8.741227456887533"><ele>205.0</ele><time>2026-04-25T13:28:53Z</time></trkpt><trkpt lat="45.98116389284988" lon="8.741283698772762"><ele>205.0</ele><time>2026-04-25T13:28:54Z</time></trkpt><trkpt lat="45.9810469047785" lon="8.741385668930683"><ele>205.0</ele><time>2026-04-25T13:28:55Z</time></trkpt><trkpt lat="45.98092361000786" lon="8.741483168020368"><ele>205.0</ele><time>2026-04-25T13:28:56Z</time></trkpt><trkpt lat="45.98077306856051" lon="8.741521708869355"><ele>205.0</ele><time>2026-04-25T13:28:57Z</time></trkpt><trkpt lat="45.980610675015356" lon="8.741528187107306"><ele>205.66666666666666</ele><time>2026-04-25T13:28:58Z</time></trkpt><trkpt lat="45.98044252086105" lon="8.741536519015323"><ele>206.33333333333331</ele><time>2026-04-25T13:28:59Z</time></trkpt><trkpt lat="45.980271877429544" lon="8.741572789574523"><ele>207.0</ele><time>2026-04-25T13:29:00Z</time></trkpt><trkpt lat="45.98010638820458" lon="8.74163329962855"><ele>209.66666666666669</ele><time>2026-04-25T13:29:01Z</time></trkpt><trkpt lat="45.979941895047496" lon="8.741665139467525"><ele>212.33333333333334</ele><time>2026-04-25T13:29:02Z</time></trkpt><trkpt lat="45.97978423515248" lon="8.741724405620603"><ele>215.0</ele><time>2026-04-25T13:29:03Z</time></trkpt><trkpt lat="45.97963213021567" lon="8.741773055722211"><ele>215.0</ele><time>2026-04-25T13:29:04Z</time></trkpt><trkpt lat="45.979495502099226" lon="8.741824576769188"><ele>215.0</ele><time>2026-04-25T13:29:05Z</time></trkpt><trkpt lat="45.97936424659762" lon="8.741891874616881"><ele>215.0</ele><time>2026-04-25T13:29:06Z</time></trkpt><trkpt lat="45.979205710410426" lon="8.74198437723863"><ele>212.33333333333334</ele><time>2026-04-25T13:29:07Z</time></trkpt><trkpt lat="45.97902816027215" lon="8.742080657000093"><ele>209.66666666666669</ele><time>2026-04-25T13:29:08Z</time></trkpt><trkpt lat="45.978869774949125" lon="8.742182741245871"><ele>207.0</ele><time>2026-04-25T13:29:09Z</time></trkpt><trkpt lat="45.978715990010166" lon="8.742305980044028"><ele>207.0</ele><time>2026-04-25T13:29:10Z</time></trkpt><trkpt lat="45.97855700853443" lon="8.74245050605172"><ele>207.0</ele><time>2026-04-25T13:29:11Z</time></trkpt><trkpt lat="45.978375551901244" lon="8.742625881880597"><ele>207.0</ele><time>2026-04-25T13:29:12Z</time></trkpt><trkpt lat="45.97818239473623" lon="8.742818304414765"><ele>207.5</ele><time>2026-04-25T13:29:13Z</time></trkpt><trkpt lat="45.97799091428234" lon="8.743010313420312"><ele>208.0</ele><time>2026-04-25T13:29:14Z</time></trkpt><trkpt lat="45.977796046192076" lon="8.743201734535058"><ele>208.0</ele><time>2026-04-25T13:29:15Z</time></trkpt><trkpt lat="45.977594583470776" lon="8.743386646892652"><ele>208.0</ele><time>2026-04-25T13:29:16Z</time></trkpt><trkpt lat="45.97738567794986" lon="8.743516797919217"><ele>207.0</ele><time>2026-04-25T13:29:17Z</time></trkpt><trkpt lat="45.977188719062404" lon="8.743680592888186"><ele>206.0</ele><time>2026-04-25T13:29:18Z</time></trkpt><trkpt lat="45.976988079456646" lon="8.743820619799195"><ele>206.0</ele><time>2026-04-25T13:29:19Z</time></trkpt><trkpt lat="45.97680671019332" lon="8.743974144314194"><ele>206.0</ele><time>2026-04-25T13:29:20Z</time></trkpt><trkpt lat="45.97663997826841" lon="8.74413928706418"><ele>206.0</ele><time>2026-04-25T13:29:21Z</time></trkpt><trkpt lat="45.97647279465368" lon="8.744324958791362"><ele>205.66666666666669</ele><time>2026-04-25T13:29:22Z</time></trkpt><trkpt lat="45.976319400455125" lon="8.744511977204857"><ele>205.33333333333331</ele><time>2026-04-25T13:29:23Z</time></trkpt><trkpt lat="45.976181629844156" lon="8.744677209581793"><ele>205.0</ele><time>2026-04-25T13:29:24Z</time></trkpt><trkpt lat="45.9760616578584" lon="8.744824729164831"><ele>205.0</ele><time>2026-04-25T13:29:25Z</time></trkpt><trkpt lat="45.97593518852963" lon="8.74497096992823"><ele>205.0</ele><time>2026-04-25T13:29:26Z</time></trkpt><trkpt lat="45.975799790432184" lon="8.74512321741652"><ele>205.0</ele><time>2026-04-25T13:29:27Z</time></trkpt><trkpt lat="45.97566286190724" lon="8.745276205920616"><ele>206.33333333333331</ele><time>2026-04-25T13:29:28Z</time></trkpt><trkpt lat="45.97553149133544" lon="8.745421030031922"><ele>207.66666666666669</ele><time>2026-04-25T13:29:29Z</time></trkpt><trkpt lat="45.97540885882751" lon="8.745548828162642"><ele>209.0</ele><time>2026-04-25T13:29:30Z</time></trkpt><trkpt lat="45.97528045124673" lon="8.745668782653734"><ele>209.0</ele><time>2026-04-25T13:29:31Z</time></trkpt><trkpt lat="45.975133045730935" lon="8.745778485117366"><ele>209.0</ele><time>2026-04-25T13:29:32Z</time></trkpt><trkpt lat="45.97497439100887" lon="8.745883003570244"><ele>209.0</ele><time>2026-04-25T13:29:33Z</time></trkpt><trkpt lat="45.97480368892735" lon="8.745990971458127"><ele>207.66666666666669</ele><time>2026-04-25T13:29:34Z</time></trkpt><trkpt lat="45.974628217771" lon="8.74609945799669"><ele>206.33333333333331</ele><time>2026-04-25T13:29:35Z</time></trkpt><trkpt lat="45.97444947103689" lon="8.746224928766875"><ele>205.0</ele><time>2026-04-25T13:29:36Z</time></trkpt><trkpt lat="45.9742434256919" lon="8.746331561677833"><ele>209.5</ele><time>2026-04-25T13:29:37Z</time></trkpt><trkpt lat="45.97404105430865" lon="8.746487053423396"><ele>214.0</ele><time>2026-04-25T13:29:38Z</time></trkpt><trkpt lat="45.973851309133636" lon="8.746671773253958"><ele>214.0</ele><time>2026-04-25T13:29:39Z</time></trkpt><trkpt lat="45.97368589263219" lon="8.746860184596382"><ele>214.0</ele><time>2026-04-25T13:29:40Z</time></trkpt><trkpt lat="45.97353742791142" lon="8.7470063720545"><ele>214.0</ele><time>2026-04-25T13:29:41Z</time></trkpt><trkpt lat="45.973379416540695" lon="8.7471380926038"><ele>214.66666666666666</ele><time>2026-04-25T13:29:42Z</time></trkpt><trkpt lat="45.97320307913409" lon="8.747279917626631"><ele>215.33333333333331</ele><time>2026-04-25T13:29:43Z</time></trkpt><trkpt lat="45.973028731104165" lon="8.747420142769055"><ele>216.0</ele><time>2026-04-25T13:29:44Z</time></trkpt><trkpt lat="45.97287562091886" lon="8.747543599944029"><ele>216.0</ele><time>2026-04-25T13:29:45Z</time></trkpt><trkpt lat="45.972737026636395" lon="8.747656665192729"><ele>216.0</ele><time>2026-04-25T13:29:46Z</time></trkpt><trkpt lat="45.97260933117769" lon="8.747759115420722"><ele>216.0</ele><time>2026-04-25T13:29:47Z</time></trkpt><trkpt lat="45.972487503341284" lon="8.747848387431034"><ele>216.0</ele><time>2026-04-25T13:29:48Z</time></trkpt><trkpt lat="45.972367599495676" lon="8.747920206398074"><ele>214.66666666666669</ele><time>2026-04-25T13:29:49Z</time></trkpt><trkpt lat="45.97223113960194" lon="8.747989811441022"><ele>213.33333333333334</ele><time>2026-04-25T13:29:50Z</time></trkpt><trkpt lat="45.972080014110475" lon="8.748062983368051"><ele>212.0</ele><time>2026-04-25T13:29:51Z</time></trkpt><trkpt lat="45.97193820371539" lon="8.748126229962002"><ele>212.0</ele><time>2026-04-25T13:29:52Z</time></trkpt><trkpt lat="45.97181307338107" lon="8.748164094382517"><ele>212.0</ele><time>2026-04-25T13:29:53Z</time></trkpt><trkpt lat="45.97168520785835" lon="8.748192708113997"><ele>212.0</ele><time>2026-04-25T13:29:54Z</time></trkpt><trkpt lat="45.97155567162505" lon="8.748210933591707"><ele>212.0</ele><time>2026-04-25T13:29:55Z</time></trkpt><trkpt lat="45.97139867632757" lon="8.7482348846867"><ele>214.0</ele><time>2026-04-25T13:29:56Z</time></trkpt><trkpt lat="45.97124133969465" lon="8.748260556354621"><ele>216.0</ele><time>2026-04-25T13:29:57Z</time></trkpt><trkpt lat="45.97110085894315" lon="8.748291583419807"><ele>218.0</ele><time>2026-04-25T13:29:58Z</time></trkpt><trkpt lat="45.970953077639145" lon="8.748346971247614"><ele>218.0</ele><time>2026-04-25T13:29:59Z</time></trkpt><trkpt lat="45.970805584327884" lon="8.74842148232428"><ele>218.0</ele><time>2026-04-25T13:30:00Z</time></trkpt><trkpt lat="45.97064210389806" lon="8.748514566892371"><ele>218.0</ele><time>2026-04-25T13:30:01Z</time></trkpt><trkpt lat="45.97046801700095" lon="8.74861242989475"><ele>215.66666666666669</ele><time>2026-04-25T13:30:02Z</time></trkpt><trkpt lat="45.97028934894783" lon="8.748712868000824"><ele>213.33333333333331</ele><time>2026-04-25T13:30:03Z</time></trkpt><trkpt lat="45.97009333280179" lon="8.748824785569205"><ele>211.0</ele><time>2026-04-25T13:30:04Z</time></trkpt><trkpt lat="45.969885154920796" lon="8.74894591328799"><ele>211.0</ele><time>2026-04-25T13:30:05Z</time></trkpt><trkpt lat="45.96966780014087" lon="8.749075054170119"><ele>211.0</ele><time>2026-04-25T13:30:06Z</time></trkpt><trkpt lat="45.96945530843953" lon="8.749240872974047"><ele>210.0</ele><time>2026-04-25T13:30:07Z</time></trkpt><trkpt lat="45.96922148353101" lon="8.749383358497658"><ele>209.0</ele><time>2026-04-25T13:30:08Z</time></trkpt><trkpt lat="45.96897875930594" lon="8.749543140518142"><ele>209.0</ele><time>2026-04-25T13:30:09Z</time></trkpt><trkpt lat="45.968741966007336" lon="8.749703749282036"><ele>209.0</ele><time>2026-04-25T13:30:10Z</time></trkpt><trkpt lat="45.96851259916865" lon="8.74986351965618"><ele>209.5</ele><time>2026-04-25T13:30:11Z</time></trkpt><trkpt lat="45.96829477809423" lon="8.750018632004876"><ele>210.0</ele><time>2026-04-25T13:30:12Z</time></trkpt><trkpt lat="45.96808461868551" lon="8.750166829707075"><ele>210.5</ele><time>2026-04-25T13:30:13Z</time></trkpt><trkpt lat="45.967876913208" lon="8.750314446103197"><ele>211.0</ele><time>2026-04-25T13:30:14Z</time></trkpt><trkpt lat="45.96767805445455" lon="8.750454572074416"><ele>210.66666666666666</ele><time>2026-04-25T13:30:15Z</time></trkpt><trkpt lat="45.96748168633347" lon="8.7505895375265"><ele>210.33333333333331</ele><time>2026-04-25T13:30:16Z</time></trkpt><trkpt lat="45.96728880588219" lon="8.750729002557152"><ele>210.0</ele><time>2026-04-25T13:30:17Z</time></trkpt><trkpt lat="45.96709983317223" lon="8.750865388408029"><ele>210.0</ele><time>2026-04-25T13:30:18Z</time></trkpt><trkpt lat="45.96691441519168" lon="8.75099728041098"><ele>210.0</ele><time>2026-04-25T13:30:19Z</time></trkpt><trkpt lat="45.966730345405566" lon="8.751128997945784"><ele>210.0</ele><time>2026-04-25T13:30:20Z</time></trkpt><trkpt lat="45.966543752072404" lon="8.75126292912151"><ele>210.66666666666669</ele><time>2026-04-25T13:30:21Z</time></trkpt><trkpt lat="45.96635829424311" lon="8.75140180891245"><ele>211.33333333333334</ele><time>2026-04-25T13:30:22Z</time></trkpt><trkpt lat="45.966176453393174" lon="8.751547144336877"><ele>212.0</ele><time>2026-04-25T13:30:23Z</time></trkpt><trkpt lat="45.965995665192594" lon="8.751700707159271"><ele>213.0</ele><time>2026-04-25T13:30:24Z</time></trkpt><trkpt lat="45.96582044518813" lon="8.751870277208353"><ele>214.0</ele><time>2026-04-25T13:30:25Z</time></trkpt><trkpt lat="45.96564809671872" lon="8.75204326343044"><ele>215.0</ele><time>2026-04-25T13:30:26Z</time></trkpt><trkpt lat="45.965467899216954" lon="8.752231767120392"><ele>215.0</ele><time>2026-04-25T13:30:27Z</time></trkpt><trkpt lat="45.96527770459819" lon="8.75241800595905"><ele>215.0</ele><time>2026-04-25T13:30:28Z</time></trkpt><trkpt lat="45.965081261886105" lon="8.752612588146471"><ele>215.5</ele><time>2026-04-25T13:30:29Z</time></trkpt><trkpt lat="45.96488446314806" lon="8.75280393829366"><ele>216.0</ele><time>2026-04-25T13:30:30Z</time></trkpt><trkpt lat="45.96469044687525" lon="8.752994655756314"><ele>216.0</ele><time>2026-04-25T13:30:31Z</time></trkpt><trkpt lat="45.964491839051384" lon="8.753179372438003"><ele>216.0</ele><time>2026-04-25T13:30:32Z</time></trkpt><trkpt lat="45.9642942452025" lon="8.75335813134895"><ele>217.0</ele><time>2026-04-25T13:30:33Z</time></trkpt><trkpt lat="45.964093729646244" lon="8.753533364191265"><ele>218.0</ele><time>2026-04-25T13:30:34Z</time></trkpt><trkpt lat="45.96389340202162" lon="8.753698494701215"><ele>218.0</ele><time>2026-04-25T13:30:35Z</time></trkpt><trkpt lat="45.9637161472714" lon="8.753843698802388"><ele>218.0</ele><time>2026-04-25T13:30:36Z</time></trkpt><trkpt lat="45.963548103019" lon="8.753975553682594"><ele>218.0</ele><time>2026-04-25T13:30:37Z</time></trkpt><trkpt lat="45.963405726628544" lon="8.754083572432668"><ele>218.75</ele><time>2026-04-25T13:30:38Z</time></trkpt><trkpt lat="45.96326539269527" lon="8.754197156807763"><ele>219.5</ele><time>2026-04-25T13:30:39Z</time></trkpt><trkpt lat="45.963138494148154" lon="8.754304669931475"><ele>220.25</ele><time>2026-04-25T13:30:40Z</time></trkpt><trkpt lat="45.96302407026519" lon="8.754400178929679"><ele>221.0</ele><time>2026-04-25T13:30:41Z</time></trkpt><trkpt lat="45.96292297535814" lon="8.754482450769375"><ele>221.0</ele><time>2026-04-25T13:30:42Z</time></trkpt><trkpt lat="45.96283162130119" lon="8.7545423982385"><ele>221.00000000000003</ele><time>2026-04-25T13:30:43Z</time></trkpt><trkpt lat="45.96276437078002" lon="8.754583536402462"><ele>221.00000000000003</ele><time>2026-04-25T13:30:44Z</time></trkpt><trkpt lat="45.96264908871012" lon="8.75462099262362"><ele>221.0</ele><time>2026-04-25T13:30:46Z</time></trkpt><trkpt lat="45.96257728948715" lon="8.754660969445332"><ele>221.0</ele><time>2026-04-25T13:30:47Z</time></trkpt><trkpt lat="45.96248637014351" lon="8.754765176719403"><ele>221.66666666666669</ele><time>2026-04-25T13:30:48Z</time></trkpt><trkpt lat="45.962379721755795" lon="8.75490596757182"><ele>222.33333333333331</ele><time>2026-04-25T13:30:49Z</time></trkpt><trkpt lat="45.96223057313877" lon="8.755022007153999"><ele>223.0</ele><time>2026-04-25T13:30:50Z</time></trkpt><trkpt lat="45.96206120607603" lon="8.755147321354157"><ele>223.0</ele><time>2026-04-25T13:30:51Z</time></trkpt><trkpt lat="45.96188487705196" lon="8.755277015853304"><ele>223.0</ele><time>2026-04-25T13:30:52Z</time></trkpt><trkpt lat="45.96170142800897" lon="8.755424761141908"><ele>223.0</ele><time>2026-04-25T13:30:53Z</time></trkpt><trkpt lat="45.96149946696368" lon="8.755585164430379"><ele>223.0</ele><time>2026-04-25T13:30:54Z</time></trkpt><trkpt lat="45.96129386944121" lon="8.755744398148522"><ele>223.0</ele><time>2026-04-25T13:30:55Z</time></trkpt><trkpt lat="45.96110537525325" lon="8.755892566040654"><ele>223.0</ele><time>2026-04-25T13:30:56Z</time></trkpt><trkpt lat="45.96093622217849" lon="8.756028889832066"><ele>222.33333333333331</ele><time>2026-04-25T13:30:57Z</time></trkpt><trkpt lat="45.960787926228306" lon="8.756164326028356"><ele>221.66666666666669</ele><time>2026-04-25T13:30:58Z</time></trkpt><trkpt lat="45.96065882275564" lon="8.7563158147376"><ele>221.0</ele><time>2026-04-25T13:30:59Z</time></trkpt><trkpt lat="45.96053588815956" lon="8.756501438658091"><ele>221.0</ele><time>2026-04-25T13:31:00Z</time></trkpt><trkpt lat="45.96039683101604" lon="8.756727703001063"><ele>221.0</ele><time>2026-04-25T13:31:01Z</time></trkpt><trkpt lat="45.96024277205828" lon="8.756948650365022"><ele>221.0</ele><time>2026-04-25T13:31:02Z</time></trkpt><trkpt lat="45.960103341648725" lon="8.757148431299171"><ele>221.0</ele><time>2026-04-25T13:31:03Z</time></trkpt><trkpt lat="45.95997573702156" lon="8.75732637099268"><ele>221.0</ele><time>2026-04-25T13:31:04Z</time></trkpt><trkpt lat="45.95985713988683" lon="8.75749459834337"><ele>221.0</ele><time>2026-04-25T13:31:05Z</time></trkpt><trkpt lat="45.95974742119776" lon="8.75765294758432"><ele>220.33333333333334</ele><time>2026-04-25T13:31:06Z</time></trkpt><trkpt lat="45.959640807044885" lon="8.757800420250508"><ele>219.66666666666669</ele><time>2026-04-25T13:31:07Z</time></trkpt><trkpt lat="45.95952939570505" lon="8.757949819483635"><ele>219.0</ele><time>2026-04-25T13:31:08Z</time></trkpt><trkpt lat="45.95941236609392" lon="8.75811364474731"><ele>219.0</ele><time>2026-04-25T13:31:09Z</time></trkpt><trkpt lat="45.95929241512351" lon="8.75828740370817"><ele>219.0</ele><time>2026-04-25T13:31:10Z</time></trkpt><trkpt lat="45.959159031781816" lon="8.758484085826723"><ele>219.0</ele><time>2026-04-25T13:31:11Z</time></trkpt><trkpt lat="45.959008082150454" lon="8.758706394559255"><ele>220.66666666666669</ele><time>2026-04-25T13:31:12Z</time></trkpt><trkpt lat="45.95885510910882" lon="8.758923712567547"><ele>222.33333333333334</ele><time>2026-04-25T13:31:13Z</time></trkpt><trkpt lat="45.9587088081732" lon="8.759098317788018"><ele>224.0</ele><time>2026-04-25T13:31:14Z</time></trkpt><trkpt lat="45.95858574264286" lon="8.759271097859246"><ele>223.33333333333334</ele><time>2026-04-25T13:31:15Z</time></trkpt><trkpt lat="45.95845556448302" lon="8.759447969682812"><ele>222.66666666666669</ele><time>2026-04-25T13:31:16Z</time></trkpt><trkpt lat="45.95833124194123" lon="8.759611331951712"><ele>222.0</ele><time>2026-04-25T13:31:17Z</time></trkpt><trkpt lat="45.9582092874466" lon="8.75976490663096"><ele>222.0</ele><time>2026-04-25T13:31:18Z</time></trkpt><trkpt lat="45.95807744270687" lon="8.759930576866642"><ele>222.0</ele><time>2026-04-25T13:31:19Z</time></trkpt><trkpt lat="45.95796396934288" lon="8.760099361610088"><ele>222.0</ele><time>2026-04-25T13:31:20Z</time></trkpt><trkpt lat="45.9578514004715" lon="8.760223904212364"><ele>221.8</ele><time>2026-04-25T13:31:21Z</time></trkpt><trkpt lat="45.957748888536585" lon="8.760350105921365"><ele>221.6</ele><time>2026-04-25T13:31:22Z</time></trkpt><trkpt lat="45.957659933068385" lon="8.76046384529244"><ele>221.40000000000003</ele><time>2026-04-25T13:31:23Z</time></trkpt><trkpt lat="45.95758695877424" lon="8.76055773402235"><ele>221.20000000000002</ele><time>2026-04-25T13:31:24Z</time></trkpt><trkpt lat="45.957522316621514" lon="8.76063679849415"><ele>221.0</ele><time>2026-04-25T13:31:25Z</time></trkpt><trkpt lat="45.9574708567877" lon="8.760692429443408"><ele>221.60000000000002</ele><time>2026-04-25T13:31:26Z</time></trkpt><trkpt lat="45.95738404336038" lon="8.760758269052081"><ele>222.20000000000002</ele><time>2026-04-25T13:31:28Z</time></trkpt><trkpt lat="45.95727676823213" lon="8.760790473395522"><ele>222.79999999999998</ele><time>2026-04-25T13:31:30Z</time></trkpt><trkpt lat="45.95719362390604" lon="8.760804297384622"><ele>223.39999999999998</ele><time>2026-04-25T13:31:31Z</time></trkpt><trkpt lat="45.957114001865214" lon="8.760855804917307"><ele>224.0</ele><time>2026-04-25T13:31:32Z</time></trkpt><trkpt lat="45.957065374743536" lon="8.760947452980188"><ele>224.16666666666669</ele><time>2026-04-25T13:31:33Z</time></trkpt><trkpt lat="45.9570367258452" lon="8.761060821732418"><ele>224.33333333333334</ele><time>2026-04-25T13:31:34Z</time></trkpt><trkpt lat="45.957004934657924" lon="8.76118172529207"><ele>224.5</ele><time>2026-04-25T13:31:35Z</time></trkpt><trkpt lat="45.95695048438614" lon="8.761281678848968"><ele>224.66666666666669</ele><time>2026-04-25T13:31:36Z</time></trkpt><trkpt lat="45.956877360320505" lon="8.7613579041017"><ele>224.83333333333334</ele><time>2026-04-25T13:31:37Z</time></trkpt><trkpt lat="45.95679479825132" lon="8.76142891285746"><ele>225.0</ele><time>2026-04-25T13:31:38Z</time></trkpt><trkpt lat="45.956706019946196" lon="8.761503095086837"><ele>225.0</ele><time>2026-04-25T13:31:39Z</time></trkpt><trkpt lat="45.956614787558664" lon="8.761584595121658"><ele>225.0</ele><time>2026-04-25T13:31:40Z</time></trkpt><trkpt lat="45.956531956466435" lon="8.761643465779047"><ele>225.0</ele><time>2026-04-25T13:31:41Z</time></trkpt><trkpt lat="45.95645586078191" lon="8.761699597885176"><ele>225.0</ele><time>2026-04-25T13:31:42Z</time></trkpt><trkpt lat="45.95637249696649" lon="8.761766739626387"><ele>225.0</ele><time>2026-04-25T13:31:43Z</time></trkpt><trkpt lat="45.956285043461634" lon="8.761840438309633"><ele>225.25</ele><time>2026-04-25T13:31:44Z</time></trkpt><trkpt lat="45.95619281407334" lon="8.761914005499081"><ele>225.5</ele><time>2026-04-25T13:31:45Z</time></trkpt><trkpt lat="45.95609953169225" lon="8.761998256948122"><ele>225.75</ele><time>2026-04-25T13:31:46Z</time></trkpt><trkpt lat="45.955982511252806" lon="8.762110398174622"><ele>226.0</ele><time>2026-04-25T13:31:47Z</time></trkpt><trkpt lat="45.95582748908121" lon="8.762246073506146"><ele>226.66666666666666</ele><time>2026-04-25T13:31:48Z</time></trkpt><trkpt lat="45.955632174143986" lon="8.762414276740278"><ele>227.33333333333331</ele><time>2026-04-25T13:31:49Z</time></trkpt><trkpt lat="45.95544813692959" lon="8.762568607647083"><ele>228.0</ele><time>2026-04-25T13:31:50Z</time></trkpt><trkpt lat="45.955284529649525" lon="8.762701154128115"><ele>228.0</ele><time>2026-04-25T13:31:51Z</time></trkpt><trkpt lat="45.95512625042536" lon="8.762854270997034"><ele>228.0</ele><time>2026-04-25T13:31:52Z</time></trkpt><trkpt lat="45.95498691413738" lon="8.763031902881412"><ele>228.0</ele><time>2026-04-25T13:31:53Z</time></trkpt><trkpt lat="45.95487006307878" lon="8.763219828880018"><ele>228.25</ele><time>2026-04-25T13:31:54Z</time></trkpt><trkpt lat="45.95476922331434" lon="8.76339352331854"><ele>228.5</ele><time>2026-04-25T13:31:55Z</time></trkpt><trkpt lat="45.95468095358119" lon="8.763552529353797"><ele>228.75</ele><time>2026-04-25T13:31:56Z</time></trkpt><trkpt lat="45.954595779730575" lon="8.763705506079186"><ele>229.0</ele><time>2026-04-25T13:31:57Z</time></trkpt><trkpt lat="45.954502819138064" lon="8.763862089203256"><ele>228.5</ele><time>2026-04-25T13:31:58Z</time></trkpt><trkpt lat="45.954417992578946" lon="8.764004067709672"><ele>228.0</ele><time>2026-04-25T13:31:59Z</time></trkpt><trkpt lat="45.95434184768122" lon="8.764140038252984"><ele>227.5</ele><time>2026-04-25T13:32:00Z</time></trkpt><trkpt lat="45.95426892673257" lon="8.764266669022721"><ele>227.0</ele><time>2026-04-25T13:32:01Z</time></trkpt><trkpt lat="45.95419760903438" lon="8.764383429665257"><ele>227.8</ele><time>2026-04-25T13:32:02Z</time></trkpt><trkpt lat="45.95412597885611" lon="8.764497596569496"><ele>228.6</ele><time>2026-04-25T13:32:03Z</time></trkpt><trkpt lat="45.95404742093391" lon="8.76459921318771"><ele>229.40000000000003</ele><time>2026-04-25T13:32:04Z</time></trkpt><trkpt lat="45.95396313716765" lon="8.764666540369989"><ele>230.20000000000002</ele><time>2026-04-25T13:32:05Z</time></trkpt><trkpt lat="45.95388545123777" lon="8.764725287001474"><ele>231.0</ele><time>2026-04-25T13:32:06Z</time></trkpt><trkpt lat="45.953810272796105" lon="8.76474240945488"><ele>231.0</ele><time>2026-04-25T13:32:07Z</time></trkpt><trkpt lat="45.953740275226956" lon="8.764727594697778"><ele>231.00000000000003</ele><time>2026-04-25T13:32:08Z</time></trkpt><trkpt lat="45.95367502077435" lon="8.764717154230032"><ele>231.00000000000003</ele><time>2026-04-25T13:32:09Z</time></trkpt><trkpt lat="45.953588224862884" lon="8.764745658939681"><ele>231.0</ele><time>2026-04-25T13:32:10Z</time></trkpt><trkpt lat="45.95349107684818" lon="8.764833231161731"><ele>231.0</ele><time>2026-04-25T13:32:11Z</time></trkpt><trkpt lat="45.953395999303076" lon="8.764959080115297"><ele>231.4</ele><time>2026-04-25T13:32:12Z</time></trkpt><trkpt lat="45.95330299092126" lon="8.765067781966179"><ele>231.8</ele><time>2026-04-25T13:32:13Z</time></trkpt><trkpt lat="45.953213115125436" lon="8.765136698231103"><ele>232.20000000000002</ele><time>2026-04-25T13:32:14Z</time></trkpt><trkpt lat="45.95310986904506" lon="8.765185362933336"><ele>232.60000000000002</ele><time>2026-04-25T13:32:15Z</time></trkpt><trkpt lat="45.953000041745334" lon="8.765210205204584"><ele>233.0</ele><time>2026-04-25T13:32:16Z</time></trkpt><trkpt lat="45.95287809348232" lon="8.765223777083088"><ele>233.0</ele><time>2026-04-25T13:32:17Z</time></trkpt><trkpt lat="45.95274383678941" lon="8.765220606182245"><ele>233.0</ele><time>2026-04-25T13:32:18Z</time></trkpt><trkpt lat="45.952604403038045" lon="8.76521234783651"><ele>233.0</ele><time>2026-04-25T13:32:19Z</time></trkpt><trkpt lat="45.952463758146216" lon="8.765192061131144"><ele>233.0</ele><time>2026-04-25T13:32:20Z</time></trkpt><trkpt lat="45.952324594991886" lon="8.76517408288693"><ele>234.5</ele><time>2026-04-25T13:32:21Z</time></trkpt><trkpt lat="45.95220512227497" lon="8.765168510037588"><ele>236.0</ele><time>2026-04-25T13:32:22Z</time></trkpt><trkpt lat="45.95209313917125" lon="8.765165126765838"><ele>237.5</ele><time>2026-04-25T13:32:23Z</time></trkpt><trkpt lat="45.95198788347299" lon="8.765157541801422"><ele>239.0</ele><time>2026-04-25T13:32:24Z</time></trkpt><trkpt lat="45.95187468010584" lon="8.765151455838653"><ele>239.0</ele><time>2026-04-25T13:32:25Z</time></trkpt><trkpt lat="45.95175479235495" lon="8.765153587671719"><ele>239.0</ele><time>2026-04-25T13:32:26Z</time></trkpt><trkpt lat="45.9516329941993" lon="8.765159859462571"><ele>239.0</ele><time>2026-04-25T13:32:27Z</time></trkpt><trkpt lat="45.95149859125427" lon="8.765188345292376"><ele>239.0</ele><time>2026-04-25T13:32:28Z</time></trkpt><trkpt lat="45.95136440592555" lon="8.76525063010145"><ele>239.25</ele><time>2026-04-25T13:32:29Z</time></trkpt><trkpt lat="45.95122320071206" lon="8.765319196543178"><ele>239.5</ele><time>2026-04-25T13:32:30Z</time></trkpt><trkpt lat="45.951086001466166" lon="8.76538980477988"><ele>239.75</ele><time>2026-04-25T13:32:31Z</time></trkpt><trkpt lat="45.95096175370059" lon="8.765448895427452"><ele>240.0</ele><time>2026-04-25T13:32:32Z</time></trkpt><trkpt lat="45.95084481198725" lon="8.7655090774546"><ele>240.0</ele><time>2026-04-25T13:32:33Z</time></trkpt><trkpt lat="45.95073527080498" lon="8.765563295141158"><ele>240.0</ele><time>2026-04-25T13:32:34Z</time></trkpt><trkpt lat="45.95062857824136" lon="8.765615877324608"><ele>240.0</ele><time>2026-04-25T13:32:35Z</time></trkpt><trkpt lat="45.950519982351615" lon="8.76566540868158"><ele>240.0</ele><time>2026-04-25T13:32:36Z</time></trkpt><trkpt lat="45.95041082532307" lon="8.765708159786582"><ele>240.0</ele><time>2026-04-25T13:32:37Z</time></trkpt><trkpt lat="45.950301886086315" lon="8.765745002314663"><ele>240.0</ele><time>2026-04-25T13:32:38Z</time></trkpt><trkpt lat="45.95019221331088" lon="8.76577185435985"><ele>240.0</ele><time>2026-04-25T13:32:39Z</time></trkpt><trkpt lat="45.95008038497047" lon="8.76579724188827"><ele>240.0</ele><time>2026-04-25T13:32:40Z</time></trkpt><trkpt lat="45.949967320862676" lon="8.765823450329275"><ele>240.75</ele><time>2026-04-25T13:32:41Z</time></trkpt><trkpt lat="45.94985072782722" lon="8.76585120125727"><ele>241.5</ele><time>2026-04-25T13:32:42Z</time></trkpt><trkpt lat="45.94973497838646" lon="8.765883212712838"><ele>242.25</ele><time>2026-04-25T13:32:43Z</time></trkpt><trkpt lat="45.949620139719634" lon="8.765938929442267"><ele>243.0</ele><time>2026-04-25T13:32:44Z</time></trkpt><trkpt lat="45.94951234813371" lon="8.766021167397078"><ele>243.0</ele><time>2026-04-25T13:32:45Z</time></trkpt><trkpt lat="45.949409094511026" lon="8.76612094661033"><ele>243.0</ele><time>2026-04-25T13:32:46Z</time></trkpt><trkpt lat="45.9493135135727" lon="8.766223878564944"><ele>243.0</ele><time>2026-04-25T13:32:47Z</time></trkpt><trkpt lat="45.949226983379106" lon="8.766314986168547"><ele>243.0</ele><time>2026-04-25T13:32:48Z</time></trkpt><trkpt lat="45.949148309119984" lon="8.766397168005932"><ele>243.0</ele><time>2026-04-25T13:32:49Z</time></trkpt><trkpt lat="45.949069055208305" lon="8.766473088148235"><ele>243.0</ele><time>2026-04-25T13:32:50Z</time></trkpt><trkpt lat="45.948979496981345" lon="8.766564687719764"><ele>243.0</ele><time>2026-04-25T13:32:51Z</time></trkpt><trkpt lat="45.94888552461215" lon="8.766655581745722"><ele>243.0</ele><time>2026-04-25T13:32:52Z</time></trkpt><trkpt lat="45.94878805238654" lon="8.766752936104453"><ele>243.0</ele><time>2026-04-25T13:32:53Z</time></trkpt><trkpt lat="45.94869701617381" lon="8.76684077341806"><ele>242.60000000000002</ele><time>2026-04-25T13:32:54Z</time></trkpt><trkpt lat="45.948608079589825" lon="8.766917798091619"><ele>242.20000000000002</ele><time>2026-04-25T13:32:55Z</time></trkpt><trkpt lat="45.948510039725406" lon="8.76698753302564"><ele>241.8</ele><time>2026-04-25T13:32:56Z</time></trkpt><trkpt lat="45.948410584164066" lon="8.767057334730769"><ele>241.4</ele><time>2026-04-25T13:32:57Z</time></trkpt><trkpt lat="45.94832808907562" lon="8.767116332540448"><ele>241.0</ele><time>2026-04-25T13:32:58Z</time></trkpt><trkpt lat="45.94825207564837" lon="8.767169665565952"><ele>241.0</ele><time>2026-04-25T13:32:59Z</time></trkpt><trkpt lat="45.948184993984455" lon="8.767211623923393"><ele>241.00000000000003</ele><time>2026-04-25T13:33:00Z</time></trkpt><trkpt lat="45.94811661264857" lon="8.767249142861763"><ele>241.0</ele><time>2026-04-25T13:33:01Z</time></trkpt><trkpt lat="45.948053722686616" lon="8.767283555558018"><ele>241.0</ele><time>2026-04-25T13:33:02Z</time></trkpt><trkpt lat="45.947985830447124" lon="8.767309395658593"><ele>241.00000000000003</ele><time>2026-04-25T13:33:03Z</time></trkpt><trkpt lat="45.94791271827771" lon="8.767324628051705"><ele>241.0</ele><time>2026-04-25T13:33:04Z</time></trkpt><trkpt lat="45.94784280146837" lon="8.76734454007923"><ele>241.0</ele><time>2026-04-25T13:33:05Z</time></trkpt><trkpt lat="45.94777722012282" lon="8.767458027302183"><ele>240.99999999999997</ele><time>2026-04-25T13:33:07Z</time></trkpt><trkpt lat="45.947848118122536" lon="8.76759866208739"><ele>241.0</ele><time>2026-04-25T13:33:09Z</time></trkpt><trkpt lat="45.94791278325504" lon="8.767618636197831"><ele>241.0</ele><time>2026-04-25T13:33:10Z</time></trkpt><trkpt lat="45.94798196138763" lon="8.767600165271444"><ele>241.0</ele><time>2026-04-25T13:33:11Z</time></trkpt><trkpt lat="45.94805304426043" lon="8.767586385419651"><ele>240.99999999999997</ele><time>2026-04-25T13:33:12Z</time></trkpt><trkpt lat="45.94812188496647" lon="8.767628847489428"><ele>241.0</ele><time>2026-04-25T13:33:13Z</time></trkpt><trkpt lat="45.94815840953943" lon="8.767745460906166"><ele>240.20000000000002</ele><time>2026-04-25T13:33:14Z</time></trkpt><trkpt lat="45.94819389232985" lon="8.76784555166413"><ele>239.40000000000003</ele><time>2026-04-25T13:33:15Z</time></trkpt><trkpt lat="45.94820366688056" lon="8.767981814439787"><ele>238.6</ele><time>2026-04-25T13:33:16Z</time></trkpt><trkpt lat="45.94820877571485" lon="8.768145809324063"><ele>237.8</ele><time>2026-04-25T13:33:17Z</time></trkpt><trkpt lat="45.948217578156694" lon="8.768331229178937"><ele>237.0</ele><time>2026-04-25T13:33:18Z</time></trkpt><trkpt lat="45.948234574806136" lon="8.768551167220267"><ele>236.33333333333331</ele><time>2026-04-25T13:33:19Z</time></trkpt><trkpt lat="45.948248997249074" lon="8.768806396875544"><ele>235.66666666666666</ele><time>2026-04-25T13:33:20Z</time></trkpt><trkpt lat="45.94826765366503" lon="8.769081472838552"><ele>235.0</ele><time>2026-04-25T13:33:21Z</time></trkpt><trkpt lat="45.94829086527986" lon="8.769380966509058"><ele>235.0</ele><time>2026-04-25T13:33:22Z</time></trkpt><trkpt lat="45.94830192252309" lon="8.769662990438295"><ele>235.0</ele><time>2026-04-25T13:33:23Z</time></trkpt><trkpt lat="45.9483203503326" lon="8.769936085112109"><ele>235.0</ele><time>2026-04-25T13:33:24Z</time></trkpt><trkpt lat="45.94832876024246" lon="8.770183028662194"><ele>236.0</ele><time>2026-04-25T13:33:25Z</time></trkpt><trkpt lat="45.94834585380421" lon="8.770427928297439"><ele>237.0</ele><time>2026-04-25T13:33:26Z</time></trkpt><trkpt lat="45.94835531793138" lon="8.770688420795448"><ele>238.0</ele><time>2026-04-25T13:33:27Z</time></trkpt><trkpt lat="45.948366537742864" lon="8.770951440601392"><ele>239.0</ele><time>2026-04-25T13:33:28Z</time></trkpt><trkpt lat="45.94837937924289" lon="8.771215274341746"><ele>240.0</ele><time>2026-04-25T13:33:29Z</time></trkpt><trkpt lat="45.948391862932624" lon="8.77147972735866"><ele>241.0</ele><time>2026-04-25T13:33:30Z</time></trkpt><trkpt lat="45.948404807573034" lon="8.771722164652745"><ele>241.33333333333331</ele><time>2026-04-25T13:33:31Z</time></trkpt><trkpt lat="45.948417881904305" lon="8.771933962095423"><ele>241.66666666666669</ele><time>2026-04-25T13:33:32Z</time></trkpt><trkpt lat="45.94842982948492" lon="8.772145209447874"><ele>242.0</ele><time>2026-04-25T13:33:33Z</time></trkpt><trkpt lat="45.948436756312034" lon="8.772368589843953"><ele>242.0</ele><time>2026-04-25T13:33:34Z</time></trkpt><trkpt lat="45.94844822875624" lon="8.772597166739166"><ele>242.0</ele><time>2026-04-25T13:33:35Z</time></trkpt><trkpt lat="45.94846052258322" lon="8.772821571067091"><ele>242.0</ele><time>2026-04-25T13:33:36Z</time></trkpt><trkpt lat="45.948472624433386" lon="8.773043264898948"><ele>243.0</ele><time>2026-04-25T13:33:37Z</time></trkpt><trkpt lat="45.948484728269555" lon="8.773263893097774"><ele>244.0</ele><time>2026-04-25T13:33:38Z</time></trkpt><trkpt lat="45.948494654153684" lon="8.773469307622154"><ele>245.0</ele><time>2026-04-25T13:33:39Z</time></trkpt><trkpt lat="45.94850258730286" lon="8.773659355352402"><ele>246.0</ele><time>2026-04-25T13:33:40Z</time></trkpt><trkpt lat="45.94851108629874" lon="8.773841792404333"><ele>246.60000000000002</ele><time>2026-04-25T13:33:41Z</time></trkpt><trkpt lat="45.94851906048717" lon="8.774002003410299"><ele>247.20000000000002</ele><time>2026-04-25T13:33:42Z</time></trkpt><trkpt lat="45.94852444779897" lon="8.774126396872507"><ele>247.79999999999998</ele><time>2026-04-25T13:33:43Z</time></trkpt><trkpt lat="45.94852574456297" lon="8.774270233476585"><ele>248.39999999999998</ele><time>2026-04-25T13:33:44Z</time></trkpt><trkpt lat="45.94853647732061" lon="8.774395027414291"><ele>249.0</ele><time>2026-04-25T13:33:45Z</time></trkpt><trkpt lat="45.94854413046906" lon="8.774548379159286"><ele>249.5</ele><time>2026-04-25T13:33:46Z</time></trkpt><trkpt lat="45.948554425291576" lon="8.77470153666265"><ele>250.0</ele><time>2026-04-25T13:33:47Z</time></trkpt><trkpt lat="45.94856637869729" lon="8.774870777265486"><ele>250.5</ele><time>2026-04-25T13:33:48Z</time></trkpt><trkpt lat="45.94858333338273" lon="8.77505209440561"><ele>251.0</ele><time>2026-04-25T13:33:49Z</time></trkpt><trkpt lat="45.94860927293815" lon="8.775241346506148"><ele>251.25</ele><time>2026-04-25T13:33:50Z</time></trkpt><trkpt lat="45.94865222961194" lon="8.77543091241562"><ele>251.5</ele><time>2026-04-25T13:33:51Z</time></trkpt><trkpt lat="45.94870142529679" lon="8.775617556512435"><ele>251.75</ele><time>2026-04-25T13:33:52Z</time></trkpt><trkpt lat="45.94874641894332" lon="8.775781488687832"><ele>252.0</ele><time>2026-04-25T13:33:53Z</time></trkpt><trkpt lat="45.94879872549839" lon="8.775934853407518"><ele>252.8</ele><time>2026-04-25T13:33:54Z</time></trkpt><trkpt lat="45.94887410829216" lon="8.776071774044098"><ele>253.6</ele><time>2026-04-25T13:33:55Z</time></trkpt><trkpt lat="45.948966385029514" lon="8.776181086445185"><ele>254.40000000000003</ele><time>2026-04-25T13:33:56Z</time></trkpt><trkpt lat="45.94903049390328" lon="8.776290074167484"><ele>255.20000000000002</ele><time>2026-04-25T13:33:57Z</time></trkpt><trkpt lat="45.949063458951336" lon="8.77641449086366"><ele>256.0</ele><time>2026-04-25T13:33:58Z</time></trkpt><trkpt lat="45.9490515660013" lon="8.776568669543638"><ele>256.0</ele><time>2026-04-25T13:33:59Z</time></trkpt><trkpt lat="45.94900138012005" lon="8.776734571831508"><ele>256.0</ele><time>2026-04-25T13:34:00Z</time></trkpt><trkpt lat="45.94894031628624" lon="8.776924473395042"><ele>256.0</ele><time>2026-04-25T13:34:01Z</time></trkpt><trkpt lat="45.948849435886906" lon="8.77709927740105"><ele>256.0</ele><time>2026-04-25T13:34:02Z</time></trkpt><trkpt lat="45.94876514224476" lon="8.777270327963947"><ele>259.75</ele><time>2026-04-25T13:34:03Z</time></trkpt><trkpt lat="45.94867885203809" lon="8.77741504273875"><ele>263.5</ele><time>2026-04-25T13:34:04Z</time></trkpt><trkpt lat="45.9485999407607" lon="8.777558462468383"><ele>267.25</ele><time>2026-04-25T13:34:05Z</time></trkpt><trkpt lat="45.94852399188773" lon="8.777693839050318"><ele>271.0</ele><time>2026-04-25T13:34:06Z</time></trkpt><trkpt lat="45.948448093020325" lon="8.777823964011919"><ele>270.0</ele><time>2026-04-25T13:34:07Z</time></trkpt><trkpt lat="45.94837555798014" lon="8.777952468645346"><ele>269.0</ele><time>2026-04-25T13:34:08Z</time></trkpt><trkpt lat="45.94830450645833" lon="8.778077128905268"><ele>268.0</ele><time>2026-04-25T13:34:09Z</time></trkpt><trkpt lat="45.948230191278924" lon="8.778198932890179"><ele>267.0</ele><time>2026-04-25T13:34:10Z</time></trkpt><trkpt lat="45.94812012892407" lon="8.778270978303155"><ele>267.0</ele><time>2026-04-25T13:34:11Z</time></trkpt><trkpt lat="45.94799740384238" lon="8.77836275943513"><ele>267.0</ele><time>2026-04-25T13:34:12Z</time></trkpt><trkpt lat="45.947868804155156" lon="8.778436801635985"><ele>267.0</ele><time>2026-04-25T13:34:13Z</time></trkpt><trkpt lat="45.94773097909732" lon="8.77847151180107"><ele>267.0</ele><time>2026-04-25T13:34:14Z</time></trkpt><trkpt lat="45.94758762301487" lon="8.778518455507415"><ele>270.75</ele><time>2026-04-25T13:34:15Z</time></trkpt><trkpt lat="45.947447319899645" lon="8.778538033582812"><ele>274.5</ele><time>2026-04-25T13:34:16Z</time></trkpt><trkpt lat="45.947316442785066" lon="8.77858530958139"><ele>278.25</ele><time>2026-04-25T13:34:17Z</time></trkpt><trkpt lat="45.947191802330785" lon="8.778637338900877"><ele>282.0</ele><time>2026-04-25T13:34:18Z</time></trkpt><trkpt lat="45.947064588028994" lon="8.778645235091382"><ele>282.0</ele><time>2026-04-25T13:34:19Z</time></trkpt><trkpt lat="45.94695601163021" lon="8.778634099409862"><ele>282.0</ele><time>2026-04-25T13:34:20Z</time></trkpt><trkpt lat="45.946838695524335" lon="8.778644070528903"><ele>282.0</ele><time>2026-04-25T13:34:21Z</time></trkpt><trkpt lat="45.94672660508974" lon="8.77866121054337"><ele>282.0</ele><time>2026-04-25T13:34:22Z</time></trkpt><trkpt lat="45.946616851054486" lon="8.778718548535268"><ele>282.75</ele><time>2026-04-25T13:34:23Z</time></trkpt><trkpt lat="45.94650739065095" lon="8.778785534299606"><ele>283.5</ele><time>2026-04-25T13:34:24Z</time></trkpt><trkpt lat="45.94639311912093" lon="8.778849541288663"><ele>284.25</ele><time>2026-04-25T13:34:25Z</time></trkpt><trkpt lat="45.946276774568126" lon="8.778910575073693"><ele>285.0</ele><time>2026-04-25T13:34:26Z</time></trkpt><trkpt lat="45.94618088347149" lon="8.778963402101159"><ele>285.0</ele><time>2026-04-25T13:34:27Z</time></trkpt><trkpt lat="45.946099354762" lon="8.779005063752194"><ele>285.0</ele><time>2026-04-25T13:34:28Z</time></trkpt><trkpt lat="45.946025979023105" lon="8.779044593398869"><ele>285.0</ele><time>2026-04-25T13:34:29Z</time></trkpt><trkpt lat="45.94595170175409" lon="8.779086210677693"><ele>285.0</ele><time>2026-04-25T13:34:30Z</time></trkpt><trkpt lat="45.94587124035696" lon="8.779133106337941"><ele>285.0</ele><time>2026-04-25T13:34:31Z</time></trkpt><trkpt lat="45.945787537257026" lon="8.77917986363729"><ele>285.0</ele><time>2026-04-25T13:34:32Z</time></trkpt><trkpt lat="45.94571453954876" lon="8.779215063780153"><ele>284.6666666666667</ele><time>2026-04-25T13:34:33Z</time></trkpt><trkpt lat="45.94564687781675" lon="8.779238259478344"><ele>284.3333333333333</ele><time>2026-04-25T13:34:34Z</time></trkpt><trkpt lat="45.945581203025895" lon="8.779255678980146"><ele>284.0</ele><time>2026-04-25T13:34:35Z</time></trkpt><trkpt lat="45.94552974604944" lon="8.779386380540243"><ele>283.66666666666663</ele><time>2026-04-25T13:34:37Z</time></trkpt><trkpt lat="45.94556795767393" lon="8.779473061060077"><ele>283.3333333333333</ele><time>2026-04-25T13:34:38Z</time></trkpt><trkpt lat="45.945643922166674" lon="8.779504187858773"><ele>283.0</ele><time>2026-04-25T13:34:39Z</time></trkpt><trkpt lat="45.945741364977735" lon="8.779467654798424"><ele>283.5</ele><time>2026-04-25T13:34:40Z</time></trkpt><trkpt lat="45.94587186079044" lon="8.779388947688304"><ele>284.0</ele><time>2026-04-25T13:34:41Z</time></trkpt><trkpt lat="45.9460183083011" lon="8.779318903506228"><ele>284.5</ele><time>2026-04-25T13:34:42Z</time></trkpt><trkpt lat="45.94615577679331" lon="8.779269157143169"><ele>285.0</ele><time>2026-04-25T13:34:43Z</time></trkpt><trkpt lat="45.94628940540354" lon="8.779244352279893"><ele>285.0</ele><time>2026-04-25T13:34:44Z</time></trkpt><trkpt lat="45.94641839648988" lon="8.779266195249965"><ele>285.0</ele><time>2026-04-25T13:34:45Z</time></trkpt><trkpt lat="45.94655123407253" lon="8.779322475045"><ele>285.0</ele><time>2026-04-25T13:34:46Z</time></trkpt><trkpt lat="45.94669888215195" lon="8.779371611556956"><ele>285.0</ele><time>2026-04-25T13:34:47Z</time></trkpt><trkpt lat="45.94684361666481" lon="8.779398363706905"><ele>290.75</ele><time>2026-04-25T13:34:48Z</time></trkpt><trkpt lat="45.946969272480274" lon="8.7794178811469"><ele>296.5</ele><time>2026-04-25T13:34:49Z</time></trkpt><trkpt lat="45.947091430674206" lon="8.779433441719686"><ele>302.25</ele><time>2026-04-25T13:34:50Z</time></trkpt><trkpt lat="45.94720742886034" lon="8.779471303792935"><ele>308.0</ele><time>2026-04-25T13:34:51Z</time></trkpt><trkpt lat="45.94731025432099" lon="8.779545796600738"><ele>308.0</ele><time>2026-04-25T13:34:52Z</time></trkpt><trkpt lat="45.947415495367416" lon="8.77963479540366"><ele>308.0</ele><time>2026-04-25T13:34:53Z</time></trkpt><trkpt lat="45.94753160287944" lon="8.779703114654737"><ele>308.0</ele><time>2026-04-25T13:34:54Z</time></trkpt><trkpt lat="45.947653819806035" lon="8.779750129301531"><ele>308.0</ele><time>2026-04-25T13:34:55Z</time></trkpt><trkpt lat="45.947764061182106" lon="8.779790830855477"><ele>307.1666666666667</ele><time>2026-04-25T13:34:56Z</time></trkpt><trkpt lat="45.947858442278665" lon="8.779827270351275"><ele>306.33333333333337</ele><time>2026-04-25T13:34:57Z</time></trkpt><trkpt lat="45.94794618245024" lon="8.779861841755482"><ele>305.5</ele><time>2026-04-25T13:34:58Z</time></trkpt><trkpt lat="45.94802017078039" lon="8.77988000394808"><ele>304.6666666666667</ele><time>2026-04-25T13:34:59Z</time></trkpt><trkpt lat="45.94808330558254" lon="8.779887253354074"><ele>303.8333333333333</ele><time>2026-04-25T13:35:00Z</time></trkpt><trkpt lat="45.94818558418393" lon="8.779901383678332"><ele>303.0</ele><time>2026-04-25T13:35:02Z</time></trkpt><trkpt lat="45.94825598955148" lon="8.779963239425914"><ele>303.0</ele><time>2026-04-25T13:35:04Z</time></trkpt><trkpt lat="45.9482257104974" lon="8.780092610720317"><ele>303.0</ele><time>2026-04-25T13:35:06Z</time></trkpt><trkpt lat="45.94807833126123" lon="8.780060052820687"><ele>303.0</ele><time>2026-04-25T13:35:08Z</time></trkpt><trkpt lat="45.94795910379704" lon="8.7800165022394"><ele>303.0</ele><time>2026-04-25T13:35:09Z</time></trkpt><trkpt lat="45.94785750528162" lon="8.780011199381725"><ele>303.0</ele><time>2026-04-25T13:35:10Z</time></trkpt><trkpt lat="45.94776525661896" lon="8.78000908704339"><ele>303.0</ele><time>2026-04-25T13:35:11Z</time></trkpt><trkpt lat="45.94767045589746" lon="8.779997559219522"><ele>303.0</ele><time>2026-04-25T13:35:12Z</time></trkpt><trkpt lat="45.94756395558093" lon="8.779972534104127"><ele>303.0</ele><time>2026-04-25T13:35:13Z</time></trkpt><trkpt lat="45.94745487493179" lon="8.779936346181247"><ele>303.0</ele><time>2026-04-25T13:35:14Z</time></trkpt><trkpt lat="45.9473488002812" lon="8.77988646109033"><ele>304.25</ele><time>2026-04-25T13:35:15Z</time></trkpt><trkpt lat="45.94723925586868" lon="8.779826825522829"><ele>305.5</ele><time>2026-04-25T13:35:16Z</time></trkpt><trkpt lat="45.94713097392712" lon="8.779771337952655"><ele>306.75</ele><time>2026-04-25T13:35:17Z</time></trkpt><trkpt lat="45.9470258874378" lon="8.77973747961"><ele>308.0</ele><time>2026-04-25T13:35:18Z</time></trkpt><trkpt lat="45.946912274381695" lon="8.77973987913071"><ele>308.0</ele><time>2026-04-25T13:35:19Z</time></trkpt><trkpt lat="45.94678354813507" lon="8.779776848565486"><ele>308.0</ele><time>2026-04-25T13:35:20Z</time></trkpt><trkpt lat="45.94666635582646" lon="8.779825251621165"><ele>308.0</ele><time>2026-04-25T13:35:21Z</time></trkpt><trkpt lat="45.946560499340805" lon="8.779873399397728"><ele>308.0</ele><time>2026-04-25T13:35:22Z</time></trkpt><trkpt lat="45.946463694471895" lon="8.779916221794508"><ele>309.33333333333337</ele><time>2026-04-25T13:35:23Z</time></trkpt><trkpt lat="45.946371181852534" lon="8.779946956957795"><ele>310.6666666666667</ele><time>2026-04-25T13:35:24Z</time></trkpt><trkpt lat="45.94628521531592" lon="8.779966751963372"><ele>312.0</ele><time>2026-04-25T13:35:25Z</time></trkpt><trkpt lat="45.946204992094636" lon="8.77997651609263"><ele>313.3333333333333</ele><time>2026-04-25T13:35:26Z</time></trkpt><trkpt lat="45.94613492359538" lon="8.779988730185012"><ele>314.66666666666663</ele><time>2026-04-25T13:35:27Z</time></trkpt><trkpt lat="45.94604597992044" lon="8.78007758962354"><ele>316.0</ele><time>2026-04-25T13:35:29Z</time></trkpt><trkpt lat="45.94604055116525" lon="8.780174711588705"><ele>316.0</ele><time>2026-04-25T13:35:30Z</time></trkpt><trkpt lat="45.94608643879395" lon="8.780252789980304"><ele>316.0</ele><time>2026-04-25T13:35:31Z</time></trkpt><trkpt lat="45.94616014088161" lon="8.78027562145319"><ele>316.0</ele><time>2026-04-25T13:35:32Z</time></trkpt><trkpt lat="45.9462584773096" lon="8.780224166238952"><ele>316.0</ele><time>2026-04-25T13:35:33Z</time></trkpt><trkpt lat="45.946362874238055" lon="8.780139481497688"><ele>316.0</ele><time>2026-04-25T13:35:34Z</time></trkpt><trkpt lat="45.946435365529574" lon="8.780097451277106"><ele>316.0</ele><time>2026-04-25T13:35:35Z</time></trkpt><trkpt lat="45.94652353622315" lon="8.780082087582018"><ele>316.0</ele><time>2026-04-25T13:35:36Z</time></trkpt><trkpt lat="45.94661532526654" lon="8.780065904841752"><ele>316.0</ele><time>2026-04-25T13:35:37Z</time></trkpt><trkpt lat="45.946716991038265" lon="8.780052290914425"><ele>316.0</ele><time>2026-04-25T13:35:38Z</time></trkpt><trkpt lat="45.94681503983887" lon="8.78005025794897"><ele>316.0</ele><time>2026-04-25T13:35:39Z</time></trkpt><trkpt lat="45.9469079153345" lon="8.78007258321956"><ele>316.0</ele><time>2026-04-25T13:35:40Z</time></trkpt><trkpt lat="45.94700263825565" lon="8.780119564234182"><ele>319.5</ele><time>2026-04-25T13:35:41Z</time></trkpt><trkpt lat="45.947052307429544" lon="8.78028608446666"><ele>323.0</ele><time>2026-04-25T13:35:42Z</time></trkpt><trkpt lat="45.94714204219875" lon="8.780431186099555"><ele>326.5</ele><time>2026-04-25T13:35:43Z</time></trkpt><trkpt lat="45.94724628571679" lon="8.780565106780267"><ele>330.0</ele><time>2026-04-25T13:35:44Z</time></trkpt><trkpt lat="45.94737304959165" lon="8.780675785696689"><ele>330.0</ele><time>2026-04-25T13:35:45Z</time></trkpt><trkpt lat="45.94752161576139" lon="8.780791222392237"><ele>330.0</ele><time>2026-04-25T13:35:46Z</time></trkpt><trkpt lat="45.94765845819422" lon="8.780909008639146"><ele>330.0</ele><time>2026-04-25T13:35:47Z</time></trkpt><trkpt lat="45.94777521681951" lon="8.781010073256798"><ele>331.0</ele><time>2026-04-25T13:35:48Z</time></trkpt><trkpt lat="45.94787011928263" lon="8.781089472168539"><ele>332.0</ele><time>2026-04-25T13:35:49Z</time></trkpt><trkpt lat="45.94794108508576" lon="8.78117673546253"><ele>333.0</ele><time>2026-04-25T13:35:50Z</time></trkpt><trkpt lat="45.948016485495614" lon="8.78123848573339"><ele>334.0</ele><time>2026-04-25T13:35:51Z</time></trkpt><trkpt lat="45.94809961209605" lon="8.781276703691494"><ele>335.0</ele><time>2026-04-25T13:35:52Z</time></trkpt><trkpt lat="45.94816504781486" lon="8.781354798442042"><ele>335.0</ele><time>2026-04-25T13:35:53Z</time></trkpt><trkpt lat="45.94822070971312" lon="8.781405533718447"><ele>335.0</ele><time>2026-04-25T13:35:54Z</time></trkpt><trkpt lat="45.94828736847558" lon="8.781485926793076"><ele>335.0</ele><time>2026-04-25T13:35:56Z</time></trkpt><trkpt lat="45.94825864091063" lon="8.781603791059524"><ele>335.0</ele><time>2026-04-25T13:35:59Z</time></trkpt><trkpt lat="45.948172271423864" lon="8.781597406714802"><ele>335.0</ele><time>2026-04-25T13:36:00Z</time></trkpt><trkpt lat="45.948112223369435" lon="8.781472543087053"><ele>335.0</ele><time>2026-04-25T13:36:01Z</time></trkpt><trkpt lat="45.94801471942153" lon="8.781359531559234"><ele>335.0</ele><time>2026-04-25T13:36:02Z</time></trkpt><trkpt lat="45.947887819573495" lon="8.781268048003513"><ele>335.0</ele><time>2026-04-25T13:36:03Z</time></trkpt><trkpt lat="45.94775953216516" lon="8.781184857929079"><ele>335.0</ele><time>2026-04-25T13:36:04Z</time></trkpt><trkpt lat="45.94764243527778" lon="8.781124333463731"><ele>335.0</ele><time>2026-04-25T13:36:05Z</time></trkpt><trkpt lat="45.947528063655845" lon="8.781110919336347"><ele>339.25</ele><time>2026-04-25T13:36:06Z</time></trkpt><trkpt lat="45.94739650358022" lon="8.781137669758397"><ele>343.5</ele><time>2026-04-25T13:36:07Z</time></trkpt><trkpt lat="45.94726361207331" lon="8.78115582442731"><ele>347.75</ele><time>2026-04-25T13:36:08Z</time></trkpt><trkpt lat="45.94715683991513" lon="8.78116050985236"><ele>352.0</ele><time>2026-04-25T13:36:09Z</time></trkpt><trkpt lat="45.94705696516251" lon="8.781160035905689"><ele>352.0</ele><time>2026-04-25T13:36:10Z</time></trkpt><trkpt lat="45.94695294692436" lon="8.781177111603874"><ele>352.0</ele><time>2026-04-25T13:36:11Z</time></trkpt><trkpt lat="45.94685084672255" lon="8.781237940470795"><ele>352.0</ele><time>2026-04-25T13:36:12Z</time></trkpt><trkpt lat="45.946755824786955" lon="8.781350107048317"><ele>352.0</ele><time>2026-04-25T13:36:13Z</time></trkpt><trkpt lat="45.94665660293838" lon="8.781485364886127"><ele>351.5</ele><time>2026-04-25T13:36:14Z</time></trkpt><trkpt lat="45.94657156653545" lon="8.781622829851795"><ele>351.0</ele><time>2026-04-25T13:36:15Z</time></trkpt><trkpt lat="45.94648547481702" lon="8.781746613728462"><ele>350.5</ele><time>2026-04-25T13:36:16Z</time></trkpt><trkpt lat="45.94640609876316" lon="8.781863597783499"><ele>350.0</ele><time>2026-04-25T13:36:17Z</time></trkpt><trkpt lat="45.94633982951603" lon="8.781968949326275"><ele>352.0</ele><time>2026-04-25T13:36:18Z</time></trkpt><trkpt lat="45.946285430282174" lon="8.782072136264526"><ele>354.0</ele><time>2026-04-25T13:36:19Z</time></trkpt><trkpt lat="45.94624880268928" lon="8.782193372242043"><ele>356.0</ele><time>2026-04-25T13:36:20Z</time></trkpt><trkpt lat="45.94624721685644" lon="8.782333685409371"><ele>358.0</ele><time>2026-04-25T13:36:21Z</time></trkpt><trkpt lat="45.94627007137261" lon="8.782476339109424"><ele>360.0</ele><time>2026-04-25T13:36:22Z</time></trkpt><trkpt lat="45.94629278243112" lon="8.782617261661075"><ele>360.4</ele><time>2026-04-25T13:36:23Z</time></trkpt><trkpt lat="45.94632274553439" lon="8.782748710258184"><ele>360.8</ele><time>2026-04-25T13:36:24Z</time></trkpt><trkpt lat="45.94634334253276" lon="8.782880684440254"><ele>361.20000000000005</ele><time>2026-04-25T13:36:25Z</time></trkpt><trkpt lat="45.946356657822996" lon="8.783013573677461"><ele>361.6</ele><time>2026-04-25T13:36:26Z</time></trkpt><trkpt lat="45.94634238622231" lon="8.78314514476539"><ele>362.0</ele><time>2026-04-25T13:36:27Z</time></trkpt><trkpt lat="45.94629054891449" lon="8.783272332897772"><ele>362.0</ele><time>2026-04-25T13:36:28Z</time></trkpt><trkpt lat="45.94619751932548" lon="8.78335609512956"><ele>362.0</ele><time>2026-04-25T13:36:29Z</time></trkpt><trkpt lat="45.94610666456094" lon="8.78343241041566"><ele>362.0</ele><time>2026-04-25T13:36:30Z</time></trkpt><trkpt lat="45.946005090864546" lon="8.783474097063857"><ele>362.0</ele><time>2026-04-25T13:36:31Z</time></trkpt><trkpt lat="45.945895334159026" lon="8.783509380644725"><ele>362.0</ele><time>2026-04-25T13:36:32Z</time></trkpt><trkpt lat="45.945799710527155" lon="8.783568959929656"><ele>364.6</ele><time>2026-04-25T13:36:33Z</time></trkpt><trkpt lat="45.94572578719261" lon="8.783636773387396"><ele>367.20000000000005</ele><time>2026-04-25T13:36:34Z</time></trkpt><trkpt lat="45.945658441490316" lon="8.783726683544549"><ele>369.8</ele><time>2026-04-25T13:36:35Z</time></trkpt><trkpt lat="45.94558610507409" lon="8.783835139338901"><ele>372.4</ele><time>2026-04-25T13:36:36Z</time></trkpt><trkpt lat="45.94549994180053" lon="8.783931632415614"><ele>375.0</ele><time>2026-04-25T13:36:37Z</time></trkpt><trkpt lat="45.945400516913196" lon="8.783982959781717"><ele>375.0</ele><time>2026-04-25T13:36:38Z</time></trkpt><trkpt lat="45.945282775332004" lon="8.783969131987895"><ele>375.0</ele><time>2026-04-25T13:36:39Z</time></trkpt><trkpt lat="45.9451625266349" lon="8.783940302153754"><ele>375.0</ele><time>2026-04-25T13:36:40Z</time></trkpt><trkpt lat="45.94504117676405" lon="8.783928048922977"><ele>375.0</ele><time>2026-04-25T13:36:41Z</time></trkpt><trkpt lat="45.94493051360017" lon="8.78390757161157"><ele>373.75</ele><time>2026-04-25T13:36:42Z</time></trkpt><trkpt lat="45.944822770898924" lon="8.783903719335155"><ele>372.5</ele><time>2026-04-25T13:36:43Z</time></trkpt><trkpt lat="45.94471477885432" lon="8.783933208237364"><ele>371.25</ele><time>2026-04-25T13:36:44Z</time></trkpt><trkpt lat="45.94461150097811" lon="8.784017272153292"><ele>370.0</ele><time>2026-04-25T13:36:45Z</time></trkpt><trkpt lat="45.94451829518028" lon="8.784130951646244"><ele>370.0</ele><time>2026-04-25T13:36:46Z</time></trkpt><trkpt lat="45.94442659539243" lon="8.78423055708377"><ele>370.0</ele><time>2026-04-25T13:36:47Z</time></trkpt><trkpt lat="45.94432101941603" lon="8.784331233067144"><ele>370.0</ele><time>2026-04-25T13:36:48Z</time></trkpt><trkpt lat="45.94422490636006" lon="8.784443656192703"><ele>370.0</ele><time>2026-04-25T13:36:49Z</time></trkpt><trkpt lat="45.944135912265516" lon="8.784564516792104"><ele>372.0</ele><time>2026-04-25T13:36:50Z</time></trkpt><trkpt lat="45.94406786862472" lon="8.78470398913773"><ele>374.0</ele><time>2026-04-25T13:36:51Z</time></trkpt><trkpt lat="45.944027923875474" lon="8.784861967996653"><ele>376.0</ele><time>2026-04-25T13:36:52Z</time></trkpt><trkpt lat="45.94400840088275" lon="8.785030312863906"><ele>378.0</ele><time>2026-04-25T13:36:53Z</time></trkpt><trkpt lat="45.944015994431155" lon="8.785225653913983"><ele>379.3333333333333</ele><time>2026-04-25T13:36:54Z</time></trkpt><trkpt lat="45.944048760004044" lon="8.78544767454268"><ele>380.66666666666663</ele><time>2026-04-25T13:36:55Z</time></trkpt><trkpt lat="45.94407318393989" lon="8.78566939187313"><ele>382.0</ele><time>2026-04-25T13:36:56Z</time></trkpt><trkpt lat="45.944102724865644" lon="8.785877623694866"><ele>383.0</ele><time>2026-04-25T13:36:57Z</time></trkpt><trkpt lat="45.94410662021812" lon="8.786118019872772"><ele>384.0</ele><time>2026-04-25T13:36:58Z</time></trkpt><trkpt lat="45.94408205393489" lon="8.786374992713137"><ele>385.0</ele><time>2026-04-25T13:36:59Z</time></trkpt><trkpt lat="45.94405131686001" lon="8.786640672264008"><ele>388.0</ele><time>2026-04-25T13:37:00Z</time></trkpt><trkpt lat="45.944015058933225" lon="8.78694809485546"><ele>391.0</ele><time>2026-04-25T13:37:01Z</time></trkpt><trkpt lat="45.94397625859818" lon="8.787273375534173"><ele>394.0</ele><time>2026-04-25T13:37:02Z</time></trkpt><trkpt lat="45.94395026010043" lon="8.787570085139661"><ele>395.33333333333337</ele><time>2026-04-25T13:37:03Z</time></trkpt><trkpt lat="45.94393421952481" lon="8.787810494735123"><ele>396.66666666666663</ele><time>2026-04-25T13:37:04Z</time></trkpt><trkpt lat="45.94395405759261" lon="8.788065245630726"><ele>398.0</ele><time>2026-04-25T13:37:05Z</time></trkpt><trkpt lat="45.943995964482944" lon="8.788355324294946"><ele>398.3333333333333</ele><time>2026-04-25T13:37:06Z</time></trkpt><trkpt lat="45.94401454518233" lon="8.788652469499244"><ele>398.66666666666663</ele><time>2026-04-25T13:37:07Z</time></trkpt><trkpt lat="45.94398243807015" lon="8.788930117015246"><ele>399.0</ele><time>2026-04-25T13:37:08Z</time></trkpt><trkpt lat="45.9439511963751" lon="8.78921295596559"><ele>401.0</ele><time>2026-04-25T13:37:09Z</time></trkpt><trkpt lat="45.94392360501108" lon="8.789457743674019"><ele>403.0</ele><time>2026-04-25T13:37:10Z</time></trkpt><trkpt lat="45.94391516147034" lon="8.789677092385219"><ele>405.0</ele><time>2026-04-25T13:37:11Z</time></trkpt><trkpt lat="45.94389087826236" lon="8.789863510947905"><ele>405.0</ele><time>2026-04-25T13:37:12Z</time></trkpt><trkpt lat="45.94386762408995" lon="8.790034385812316"><ele>405.0</ele><time>2026-04-25T13:37:13Z</time></trkpt><trkpt lat="45.94384053412473" lon="8.79021219805558"><ele>405.0</ele><time>2026-04-25T13:37:14Z</time></trkpt><trkpt lat="45.943801717611585" lon="8.790394531896176"><ele>405.0</ele><time>2026-04-25T13:37:15Z</time></trkpt><trkpt lat="45.9437392110954" lon="8.790571817253218"><ele>406.0</ele><time>2026-04-25T13:37:16Z</time></trkpt><trkpt lat="45.943640445154855" lon="8.790734059692785"><ele>407.0</ele><time>2026-04-25T13:37:17Z</time></trkpt><trkpt lat="45.943531430405606" lon="8.790886048513231"><ele>408.0</ele><time>2026-04-25T13:37:18Z</time></trkpt><trkpt lat="45.94342106100256" lon="8.791022745356766"><ele>409.0</ele><time>2026-04-25T13:37:19Z</time></trkpt><trkpt lat="45.943319693994056" lon="8.79116151911037"><ele>409.0</ele><time>2026-04-25T13:37:20Z</time></trkpt><trkpt lat="45.94321170935652" lon="8.79128212204903"><ele>409.0</ele><time>2026-04-25T13:37:21Z</time></trkpt><trkpt lat="45.943103064571496" lon="8.791409752393584"><ele>409.0</ele><time>2026-04-25T13:37:22Z</time></trkpt><trkpt lat="45.94298818995644" lon="8.791549780407712"><ele>409.0</ele><time>2026-04-25T13:37:23Z</time></trkpt><trkpt lat="45.94286966234137" lon="8.79169048888589"><ele>409.0</ele><time>2026-04-25T13:37:24Z</time></trkpt><trkpt lat="45.94274708212041" lon="8.791835953483961"><ele>409.0</ele><time>2026-04-25T13:37:25Z</time></trkpt><trkpt lat="45.94261208407764" lon="8.792021724922472"><ele>409.0</ele><time>2026-04-25T13:37:26Z</time></trkpt><trkpt lat="45.94246951879912" lon="8.792251771827193"><ele>410.5</ele><time>2026-04-25T13:37:27Z</time></trkpt><trkpt lat="45.94232512723168" lon="8.792512068928222"><ele>412.0</ele><time>2026-04-25T13:37:28Z</time></trkpt><trkpt lat="45.94219272818899" lon="8.7927780078859"><ele>415.33333333333337</ele><time>2026-04-25T13:37:29Z</time></trkpt><trkpt lat="45.942051692162764" lon="8.793030333266497"><ele>418.66666666666663</ele><time>2026-04-25T13:37:30Z</time></trkpt><trkpt lat="45.94192363488495" lon="8.793278605725193"><ele>422.0</ele><time>2026-04-25T13:37:31Z</time></trkpt><trkpt lat="45.9418074678103" lon="8.79349097741528"><ele>420.3333333333333</ele><time>2026-04-25T13:37:32Z</time></trkpt><trkpt lat="45.94170248846131" lon="8.793686477512187"><ele>418.66666666666663</ele><time>2026-04-25T13:37:33Z</time></trkpt><trkpt lat="45.94160512827231" lon="8.793876960586934"><ele>417.0</ele><time>2026-04-25T13:37:34Z</time></trkpt><trkpt lat="45.94151591397223" lon="8.794084091309248"><ele>417.0</ele><time>2026-04-25T13:37:35Z</time></trkpt><trkpt lat="45.941437153048376" lon="8.794309981593623"><ele>417.0</ele><time>2026-04-25T13:37:36Z</time></trkpt><trkpt lat="45.94133997693797" lon="8.79452992583383"><ele>417.0</ele><time>2026-04-25T13:37:37Z</time></trkpt><trkpt lat="45.94125601410933" lon="8.794763294048364"><ele>420.0</ele><time>2026-04-25T13:37:38Z</time></trkpt><trkpt lat="45.941195399041035" lon="8.794973000268216"><ele>423.0</ele><time>2026-04-25T13:37:39Z</time></trkpt><trkpt lat="45.9411185923399" lon="8.795136445146229"><ele>426.0</ele><time>2026-04-25T13:37:40Z</time></trkpt><trkpt lat="45.941002170800004" lon="8.795253183392731"><ele>429.0</ele><time>2026-04-25T13:37:41Z</time></trkpt><trkpt lat="45.940907716024824" lon="8.795438392311823"><ele>429.33333333333337</ele><time>2026-04-25T13:37:42Z</time></trkpt><trkpt lat="45.940737517860306" lon="8.795533292831355"><ele>429.6666666666667</ele><time>2026-04-25T13:37:43Z</time></trkpt><trkpt lat="45.94057665859815" lon="8.79567015716213"><ele>430.0</ele><time>2026-04-25T13:37:44Z</time></trkpt><trkpt lat="45.94041081022546" lon="8.79579870500339"><ele>430.0</ele><time>2026-04-25T13:37:45Z</time></trkpt><trkpt lat="45.9402453325886" lon="8.79589768338334"><ele>430.0</ele><time>2026-04-25T13:37:46Z</time></trkpt><trkpt lat="45.940092788619936" lon="8.795980285196324"><ele>430.0</ele><time>2026-04-25T13:37:47Z</time></trkpt><trkpt lat="45.93995965356697" lon="8.796053416229647"><ele>431.0</ele><time>2026-04-25T13:37:48Z</time></trkpt><trkpt lat="45.93983409971992" lon="8.796126288482151"><ele>432.0</ele><time>2026-04-25T13:37:49Z</time></trkpt><trkpt lat="45.93972150284142" lon="8.796203301986255"><ele>433.0</ele><time>2026-04-25T13:37:50Z</time></trkpt><trkpt lat="45.93960579933663" lon="8.796306429889972"><ele>434.0</ele><time>2026-04-25T13:37:51Z</time></trkpt><trkpt lat="45.93948011107166" lon="8.796447757158925"><ele>434.0</ele><time>2026-04-25T13:37:52Z</time></trkpt><trkpt lat="45.9393473574002" lon="8.796617055575952"><ele>434.0</ele><time>2026-04-25T13:37:53Z</time></trkpt><trkpt lat="45.93923802071284" lon="8.796778463863339"><ele>434.0</ele><time>2026-04-25T13:37:54Z</time></trkpt><trkpt lat="45.93913833728471" lon="8.796925774951328"><ele>433.75</ele><time>2026-04-25T13:37:55Z</time></trkpt><trkpt lat="45.93904187858403" lon="8.797063464570526"><ele>433.5</ele><time>2026-04-25T13:37:56Z</time></trkpt><trkpt lat="45.9389459941592" lon="8.79719954282862"><ele>433.25</ele><time>2026-04-25T13:37:57Z</time></trkpt><trkpt lat="45.938860035514345" lon="8.797346901171005"><ele>433.0</ele><time>2026-04-25T13:37:58Z</time></trkpt><trkpt lat="45.938791479486206" lon="8.797511175231977"><ele>433.4</ele><time>2026-04-25T13:37:59Z</time></trkpt><trkpt lat="45.93873374785366" lon="8.797674662195833"><ele>433.79999999999995</ele><time>2026-04-25T13:38:00Z</time></trkpt><trkpt lat="45.93867807513921" lon="8.797817856692342"><ele>434.2</ele><time>2026-04-25T13:38:01Z</time></trkpt><trkpt lat="45.93862689973731" lon="8.79794596297554"><ele>434.6</ele><time>2026-04-25T13:38:02Z</time></trkpt><trkpt lat="45.938581085328536" lon="8.798076010639258"><ele>435.0</ele><time>2026-04-25T13:38:03Z</time></trkpt><trkpt lat="45.93855369062239" lon="8.79821684586838"><ele>435.0</ele><time>2026-04-25T13:38:04Z</time></trkpt><trkpt lat="45.9385384550278" lon="8.798373585222375"><ele>435.0</ele><time>2026-04-25T13:38:05Z</time></trkpt><trkpt lat="45.93852436744469" lon="8.798533467846422"><ele>435.0</ele><time>2026-04-25T13:38:06Z</time></trkpt><trkpt lat="45.93849162828739" lon="8.798695615856326"><ele>435.0</ele><time>2026-04-25T13:38:07Z</time></trkpt><trkpt lat="45.93842916242305" lon="8.798858799806126"><ele>433.25</ele><time>2026-04-25T13:38:08Z</time></trkpt><trkpt lat="45.938331638374564" lon="8.798981186748945"><ele>431.5</ele><time>2026-04-25T13:38:09Z</time></trkpt><trkpt lat="45.9382335384504" lon="8.799084170062818"><ele>429.75</ele><time>2026-04-25T13:38:10Z</time></trkpt><trkpt lat="45.93812929285757" lon="8.799166685100419"><ele>428.0</ele><time>2026-04-25T13:38:11Z</time></trkpt><trkpt lat="45.93802500269494" lon="8.799236375530231"><ele>428.0</ele><time>2026-04-25T13:38:12Z</time></trkpt><trkpt lat="45.93789819156639" lon="8.79932566361238"><ele>428.0</ele><time>2026-04-25T13:38:13Z</time></trkpt><trkpt lat="45.93773491555659" lon="8.799444430217408"><ele>428.0</ele><time>2026-04-25T13:38:14Z</time></trkpt><trkpt lat="45.93753841009687" lon="8.799590053730345"><ele>429.0</ele><time>2026-04-25T13:38:15Z</time></trkpt><trkpt lat="45.93737325828745" lon="8.79971188137307"><ele>430.0</ele><time>2026-04-25T13:38:16Z</time></trkpt><trkpt lat="45.93720199870765" lon="8.799837753351268"><ele>431.0</ele><time>2026-04-25T13:38:17Z</time></trkpt><trkpt lat="45.93700227729587" lon="8.79998424515296"><ele>431.0</ele><time>2026-04-25T13:38:18Z</time></trkpt><trkpt lat="45.93678393237074" lon="8.800144023353756"><ele>431.0</ele><time>2026-04-25T13:38:19Z</time></trkpt><trkpt lat="45.93655665035429" lon="8.800308574339835"><ele>431.3333333333333</ele><time>2026-04-25T13:38:20Z</time></trkpt><trkpt lat="45.936359667115255" lon="8.80045327313914"><ele>431.66666666666663</ele><time>2026-04-25T13:38:21Z</time></trkpt><trkpt lat="45.93618120484801" lon="8.80058487868554"><ele>432.0</ele><time>2026-04-25T13:38:22Z</time></trkpt><trkpt lat="45.93601324862978" lon="8.80070950990053"><ele>432.0</ele><time>2026-04-25T13:38:23Z</time></trkpt><trkpt lat="45.935862147716314" lon="8.800839766577635"><ele>432.0</ele><time>2026-04-25T13:38:24Z</time></trkpt><trkpt lat="45.93571630366264" lon="8.800942883953974"><ele>432.0</ele><time>2026-04-25T13:38:25Z</time></trkpt><trkpt lat="45.93557870963363" lon="8.801032385631668"><ele>432.0</ele><time>2026-04-25T13:38:26Z</time></trkpt><trkpt lat="45.93544926418673" lon="8.80113897423693"><ele>432.0</ele><time>2026-04-25T13:38:27Z</time></trkpt><trkpt lat="45.93531175697112" lon="8.801248098668767"><ele>432.0</ele><time>2026-04-25T13:38:28Z</time></trkpt><trkpt lat="45.93517541654091" lon="8.801362904911793"><ele>432.0</ele><time>2026-04-25T13:38:29Z</time></trkpt><trkpt lat="45.935092033658634" lon="8.801474224972594"><ele>432.00000000000006</ele><time>2026-04-25T13:38:30Z</time></trkpt><trkpt lat="45.93500495637084" lon="8.80160541061767"><ele>432.00000000000006</ele><time>2026-04-25T13:38:31Z</time></trkpt><trkpt lat="45.93494110346372" lon="8.801727790878116"><ele>432.0</ele><time>2026-04-25T13:38:32Z</time></trkpt><trkpt lat="45.934893484867374" lon="8.801838406203101"><ele>432.0</ele><time>2026-04-25T13:38:33Z</time></trkpt><trkpt lat="45.9348645755513" lon="8.801926505200539"><ele>431.8333333333333</ele><time>2026-04-25T13:38:34Z</time></trkpt><trkpt lat="45.934826434690706" lon="8.80205992265325"><ele>431.66666666666663</ele><time>2026-04-25T13:38:36Z</time></trkpt><trkpt lat="45.93479749173699" lon="8.80217541482432"><ele>431.5</ele><time>2026-04-25T13:38:38Z</time></trkpt><trkpt lat="45.9347682018652" lon="8.802278294659068"><ele>431.3333333333333</ele><time>2026-04-25T13:38:40Z</time></trkpt><trkpt lat="45.934745655916714" lon="8.802367308566101"><ele>431.16666666666663</ele><time>2026-04-25T13:38:42Z</time></trkpt><trkpt lat="45.934718922697286" lon="8.802473977146528"><ele>431.0</ele><time>2026-04-25T13:38:45Z</time></trkpt><trkpt lat="45.93466634789102" lon="8.802571878064155"><ele>430.99999999999994</ele><time>2026-04-25T13:38:53Z</time></trkpt><trkpt lat="45.93460357431369" lon="8.802619426633644"><ele>431.0</ele><time>2026-04-25T13:38:55Z</time></trkpt><trkpt lat="45.934541400005806" lon="8.802645565998056"><ele>431.0</ele><time>2026-04-25T13:38:56Z</time></trkpt><trkpt lat="45.93447177304488" lon="8.80276287212674"><ele>431.0</ele><time>2026-04-25T13:38:58Z</time></trkpt><trkpt lat="45.934464890076676" lon="8.802866407830379"><ele>430.99999999999994</ele><time>2026-04-25T13:38:59Z</time></trkpt><trkpt lat="45.93446481926826" lon="8.802973570643912"><ele>431.0</ele><time>2026-04-25T13:39:00Z</time></trkpt><trkpt lat="45.93446294080075" lon="8.803064585673532"><ele>431.49999999999994</ele><time>2026-04-25T13:39:01Z</time></trkpt><trkpt lat="45.93445881362854" lon="8.80316918284936"><ele>432.0</ele><time>2026-04-25T13:39:02Z</time></trkpt><trkpt lat="45.93445126180832" lon="8.803286588529458"><ele>432.5</ele><time>2026-04-25T13:39:03Z</time></trkpt><trkpt lat="45.93444348713244" lon="8.803403368509338"><ele>433.0</ele><time>2026-04-25T13:39:04Z</time></trkpt><trkpt lat="45.9344338730878" lon="8.803519995922723"><ele>433.49999999999994</ele><time>2026-04-25T13:39:05Z</time></trkpt><trkpt lat="45.93441883673719" lon="8.803645792845623"><ele>434.0</ele><time>2026-04-25T13:39:06Z</time></trkpt><trkpt lat="45.93439400403989" lon="8.803790331039439"><ele>435.0</ele><time>2026-04-25T13:39:07Z</time></trkpt><trkpt lat="45.93436385758887" lon="8.803949780378927"><ele>436.0</ele><time>2026-04-25T13:39:08Z</time></trkpt><trkpt lat="45.9343273437238" lon="8.804116900333472"><ele>437.0</ele><time>2026-04-25T13:39:09Z</time></trkpt><trkpt lat="45.9342884830759" lon="8.804287582964838"><ele>438.0</ele><time>2026-04-25T13:39:10Z</time></trkpt><trkpt lat="45.93424880775128" lon="8.804457601616827"><ele>437.0</ele><time>2026-04-25T13:39:11Z</time></trkpt><trkpt lat="45.93420780464668" lon="8.804630921641099"><ele>436.0</ele><time>2026-04-25T13:39:12Z</time></trkpt><trkpt lat="45.93416083670162" lon="8.804809246543577"><ele>435.0</ele><time>2026-04-25T13:39:13Z</time></trkpt><trkpt lat="45.93410292682783" lon="8.804988605137678"><ele>434.0</ele><time>2026-04-25T13:39:14Z</time></trkpt><trkpt lat="45.93404376041905" lon="8.805171486300146"><ele>434.0</ele><time>2026-04-25T13:39:15Z</time></trkpt><trkpt lat="45.93403788256768" lon="8.805344241514627"><ele>434.0</ele><time>2026-04-25T13:39:16Z</time></trkpt><trkpt lat="45.933999008039216" lon="8.805510481722973"><ele>434.0</ele><time>2026-04-25T13:39:17Z</time></trkpt><trkpt lat="45.933963714630934" lon="8.80568003142757"><ele>434.0</ele><time>2026-04-25T13:39:18Z</time></trkpt><trkpt lat="45.933923662150875" lon="8.805836193711189"><ele>434.5</ele><time>2026-04-25T13:39:19Z</time></trkpt><trkpt lat="45.93388680955222" lon="8.805997679777034"><ele>435.0</ele><time>2026-04-25T13:39:20Z</time></trkpt><trkpt lat="45.933848616577215" lon="8.806166713873024"><ele>435.5</ele><time>2026-04-25T13:39:21Z</time></trkpt><trkpt lat="45.93380937087585" lon="8.8063382682978"><ele>436.0</ele><time>2026-04-25T13:39:22Z</time></trkpt><trkpt lat="45.9337666039437" lon="8.80651634635097"><ele>436.0</ele><time>2026-04-25T13:39:23Z</time></trkpt><trkpt lat="45.93372166871011" lon="8.806692334380092"><ele>436.0</ele><time>2026-04-25T13:39:24Z</time></trkpt><trkpt lat="45.933673468633124" lon="8.806872392004172"><ele>436.0</ele><time>2026-04-25T13:39:25Z</time></trkpt><trkpt lat="45.93362761464508" lon="8.80705533484348"><ele>436.0</ele><time>2026-04-25T13:39:26Z</time></trkpt><trkpt lat="45.93358847595429" lon="8.807247408607447"><ele>436.33333333333337</ele><time>2026-04-25T13:39:27Z</time></trkpt><trkpt lat="45.933541126672694" lon="8.807453272391049"><ele>436.66666666666663</ele><time>2026-04-25T13:39:28Z</time></trkpt><trkpt lat="45.933491259624276" lon="8.807667324793988"><ele>437.0</ele><time>2026-04-25T13:39:29Z</time></trkpt><trkpt lat="45.933439919983584" lon="8.80788897966527"><ele>437.3333333333333</ele><time>2026-04-25T13:39:30Z</time></trkpt><trkpt lat="45.93339083373664" lon="8.808101881410426"><ele>437.66666666666663</ele><time>2026-04-25T13:39:31Z</time></trkpt><trkpt lat="45.93334350951061" lon="8.808307030319899"><ele>438.0</ele><time>2026-04-25T13:39:32Z</time></trkpt><trkpt lat="45.933292249142895" lon="8.808523203226827"><ele>435.5</ele><time>2026-04-25T13:39:33Z</time></trkpt><trkpt lat="45.933237331126556" lon="8.808736129738024"><ele>433.0</ele><time>2026-04-25T13:39:34Z</time></trkpt><trkpt lat="45.93319099414976" lon="8.808928132671891"><ele>430.5</ele><time>2026-04-25T13:39:35Z</time></trkpt><trkpt lat="45.93314087382699" lon="8.809112486315549"><ele>428.0</ele><time>2026-04-25T13:39:36Z</time></trkpt><trkpt lat="45.933096222757065" lon="8.809286376135315"><ele>428.25</ele><time>2026-04-25T13:39:37Z</time></trkpt><trkpt lat="45.93305669630896" lon="8.809474765472428"><ele>428.5</ele><time>2026-04-25T13:39:38Z</time></trkpt><trkpt lat="45.93301309262029" lon="8.80966660374992"><ele>428.75</ele><time>2026-04-25T13:39:39Z</time></trkpt><trkpt lat="45.932966509941814" lon="8.809859728009608"><ele>429.0</ele><time>2026-04-25T13:39:40Z</time></trkpt><trkpt lat="45.93292235354849" lon="8.810042157914532"><ele>429.5</ele><time>2026-04-25T13:39:41Z</time></trkpt><trkpt lat="45.9328797109872" lon="8.810216000773266"><ele>430.0</ele><time>2026-04-25T13:39:42Z</time></trkpt><trkpt lat="45.93283926989428" lon="8.810382027067156"><ele>430.5</ele><time>2026-04-25T13:39:43Z</time></trkpt><trkpt lat="45.932796971536746" lon="8.810556237279972"><ele>431.0</ele><time>2026-04-25T13:39:44Z</time></trkpt><trkpt lat="45.93275655504783" lon="8.810737872296409"><ele>431.0</ele><time>2026-04-25T13:39:45Z</time></trkpt><trkpt lat="45.93271297578435" lon="8.810928340057163"><ele>431.0</ele><time>2026-04-25T13:39:46Z</time></trkpt><trkpt lat="45.93266505642259" lon="8.811120186560721"><ele>431.0</ele><time>2026-04-25T13:39:47Z</time></trkpt><trkpt lat="45.93261714489575" lon="8.811317666686936"><ele>431.0</ele><time>2026-04-25T13:39:48Z</time></trkpt><trkpt lat="45.93257125320108" lon="8.81151934370641"><ele>431.3333333333333</ele><time>2026-04-25T13:39:49Z</time></trkpt><trkpt lat="45.932523523840125" lon="8.811725378649024"><ele>431.66666666666663</ele><time>2026-04-25T13:39:50Z</time></trkpt><trkpt lat="45.93247339329688" lon="8.811935478188495"><ele>432.0</ele><time>2026-04-25T13:39:51Z</time></trkpt><trkpt lat="45.93242388645429" lon="8.812144219770568"><ele>432.0</ele><time>2026-04-25T13:39:52Z</time></trkpt><trkpt lat="45.932373744190684" lon="8.812343778853911"><ele>432.0</ele><time>2026-04-25T13:39:53Z</time></trkpt><trkpt lat="45.93233349168347" lon="8.812521515815321"><ele>432.0</ele><time>2026-04-25T13:39:54Z</time></trkpt><trkpt lat="45.93229120312122" lon="8.812698088643517"><ele>432.0</ele><time>2026-04-25T13:39:55Z</time></trkpt><trkpt lat="45.9322476568351" lon="8.812879545790793"><ele>433.5</ele><time>2026-04-25T13:39:56Z</time></trkpt><trkpt lat="45.93220513525645" lon="8.813064289050855"><ele>435.0</ele><time>2026-04-25T13:39:57Z</time></trkpt><trkpt lat="45.93216051194576" lon="8.813251518519321"><ele>436.5</ele><time>2026-04-25T13:39:58Z</time></trkpt><trkpt lat="45.93211522334867" lon="8.813440736380455"><ele>438.0</ele><time>2026-04-25T13:39:59Z</time></trkpt><trkpt lat="45.93206545330854" lon="8.813635517435308"><ele>438.66666666666663</ele><time>2026-04-25T13:40:00Z</time></trkpt><trkpt lat="45.93201748596464" lon="8.81384263896826"><ele>439.3333333333333</ele><time>2026-04-25T13:40:01Z</time></trkpt><trkpt lat="45.93196643131766" lon="8.814054966971623"><ele>440.0</ele><time>2026-04-25T13:40:02Z</time></trkpt><trkpt lat="45.93191480786491" lon="8.814273058033717"><ele>439.66666666666663</ele><time>2026-04-25T13:40:03Z</time></trkpt><trkpt lat="45.93186222668117" lon="8.814499162843456"><ele>439.33333333333337</ele><time>2026-04-25T13:40:04Z</time></trkpt><trkpt lat="45.9318075216871" lon="8.814724275729564"><ele>439.0</ele><time>2026-04-25T13:40:05Z</time></trkpt><trkpt lat="45.93175487934533" lon="8.814954344877242"><ele>435.6666666666667</ele><time>2026-04-25T13:40:06Z</time></trkpt><trkpt lat="45.93169838298" lon="8.81518980244364"><ele>432.33333333333337</ele><time>2026-04-25T13:40:07Z</time></trkpt><trkpt lat="45.931645003401" lon="8.815423069425362"><ele>429.0</ele><time>2026-04-25T13:40:08Z</time></trkpt><trkpt lat="45.93158812377827" lon="8.815653808847582"><ele>429.0</ele><time>2026-04-25T13:40:09Z</time></trkpt><trkpt lat="45.9315232940627" lon="8.815879401795126"><ele>429.0</ele><time>2026-04-25T13:40:10Z</time></trkpt><trkpt lat="45.93144917583128" lon="8.816087410521549"><ele>429.0</ele><time>2026-04-25T13:40:11Z</time></trkpt><trkpt lat="45.93135800376038" lon="8.816274338793022"><ele>430.0</ele><time>2026-04-25T13:40:12Z</time></trkpt><trkpt lat="45.93125452458613" lon="8.816444490533021"><ele>431.0</ele><time>2026-04-25T13:40:13Z</time></trkpt><trkpt lat="45.931127041764455" lon="8.816588237273578"><ele>432.0</ele><time>2026-04-25T13:40:14Z</time></trkpt><trkpt lat="45.93099327163092" lon="8.816724169574364"><ele>432.0</ele><time>2026-04-25T13:40:15Z</time></trkpt><trkpt lat="45.93085428943108" lon="8.816861250907918"><ele>432.0</ele><time>2026-04-25T13:40:16Z</time></trkpt><trkpt lat="45.930715342782094" lon="8.817002932124954"><ele>432.0</ele><time>2026-04-25T13:40:17Z</time></trkpt><trkpt lat="45.93057389612094" lon="8.817152818813241"><ele>432.0</ele><time>2026-04-25T13:40:18Z</time></trkpt><trkpt lat="45.93043263347265" lon="8.817299640364391"><ele>432.0</ele><time>2026-04-25T13:40:19Z</time></trkpt><trkpt lat="45.93027787876971" lon="8.817460072435885"><ele>432.0</ele><time>2026-04-25T13:40:20Z</time></trkpt><trkpt lat="45.93012233777738" lon="8.8176196794853"><ele>432.0</ele><time>2026-04-25T13:40:21Z</time></trkpt><trkpt lat="45.9299837989035" lon="8.817763307016802"><ele>432.0</ele><time>2026-04-25T13:40:22Z</time></trkpt><trkpt lat="45.92985059671086" lon="8.817897825868135"><ele>432.0</ele><time>2026-04-25T13:40:23Z</time></trkpt><trkpt lat="45.929727750633205" lon="8.818024766270288"><ele>432.0</ele><time>2026-04-25T13:40:24Z</time></trkpt><trkpt lat="45.92960781048067" lon="8.818151375484469"><ele>432.0</ele><time>2026-04-25T13:40:25Z</time></trkpt><trkpt lat="45.9294928684102" lon="8.818272311569519"><ele>432.0</ele><time>2026-04-25T13:40:26Z</time></trkpt><trkpt lat="45.92937327011483" lon="8.81839729861978"><ele>432.0</ele><time>2026-04-25T13:40:27Z</time></trkpt><trkpt lat="45.92925305086689" lon="8.818519554669635"><ele>432.0</ele><time>2026-04-25T13:40:28Z</time></trkpt><trkpt lat="45.92913259944147" lon="8.818637137510233"><ele>432.0</ele><time>2026-04-25T13:40:29Z</time></trkpt><trkpt lat="45.92901522037205" lon="8.818751697952072"><ele>432.0</ele><time>2026-04-25T13:40:30Z</time></trkpt><trkpt lat="45.928899158993225" lon="8.818865472658947"><ele>432.0</ele><time>2026-04-25T13:40:31Z</time></trkpt><trkpt lat="45.92878757136924" lon="8.818977359427453"><ele>432.0</ele><time>2026-04-25T13:40:32Z</time></trkpt><trkpt lat="45.928673462733265" lon="8.81909330482329"><ele>432.0</ele><time>2026-04-25T13:40:33Z</time></trkpt><trkpt lat="45.928557453280796" lon="8.819212209481156"><ele>432.0</ele><time>2026-04-25T13:40:34Z</time></trkpt><trkpt lat="45.92844192496141" lon="8.819334199064327"><ele>432.0</ele><time>2026-04-25T13:40:35Z</time></trkpt><trkpt lat="45.928322328867914" lon="8.819457054558711"><ele>432.5</ele><time>2026-04-25T13:40:36Z</time></trkpt><trkpt lat="45.92820234371031" lon="8.819583283397723"><ele>433.0</ele><time>2026-04-25T13:40:37Z</time></trkpt><trkpt lat="45.928083277461695" lon="8.819707797927142"><ele>433.5</ele><time>2026-04-25T13:40:38Z</time></trkpt><trkpt lat="45.927971729228084" lon="8.819825238768301"><ele>434.0</ele><time>2026-04-25T13:40:39Z</time></trkpt><trkpt lat="45.927861117409336" lon="8.819936625600334"><ele>434.0</ele><time>2026-04-25T13:40:40Z</time></trkpt><trkpt lat="45.92775457327016" lon="8.820037084994677"><ele>434.0</ele><time>2026-04-25T13:40:41Z</time></trkpt><trkpt lat="45.92764496005056" lon="8.820129547715458"><ele>434.0</ele><time>2026-04-25T13:40:42Z</time></trkpt><trkpt lat="45.9275368485504" lon="8.820209919848317"><ele>434.0</ele><time>2026-04-25T13:40:43Z</time></trkpt><trkpt lat="45.92743103798282" lon="8.82028497159153"><ele>434.4</ele><time>2026-04-25T13:40:44Z</time></trkpt><trkpt lat="45.92733744437229" lon="8.82035148131088"><ele>434.79999999999995</ele><time>2026-04-25T13:40:45Z</time></trkpt><trkpt lat="45.927259457000304" lon="8.82040684363897"><ele>435.20000000000005</ele><time>2026-04-25T13:40:46Z</time></trkpt><trkpt lat="45.92719431896439" lon="8.820458918362565"><ele>435.6</ele><time>2026-04-25T13:40:47Z</time></trkpt><trkpt lat="45.927117356674046" lon="8.82053896694987"><ele>436.0</ele><time>2026-04-25T13:40:49Z</time></trkpt><trkpt lat="45.92703464149096" lon="8.820616188142187"><ele>436.0</ele><time>2026-04-25T13:40:54Z</time></trkpt><trkpt lat="45.92691121719424" lon="8.820674812893515"><ele>436.0</ele><time>2026-04-25T13:40:56Z</time></trkpt><trkpt lat="45.92683558885243" lon="8.820712196951131"><ele>436.0</ele><time>2026-04-25T13:40:57Z</time></trkpt><trkpt lat="45.92676196974134" lon="8.820752787416424"><ele>436.0</ele><time>2026-04-25T13:40:58Z</time></trkpt><trkpt lat="45.92669623587282" lon="8.820783655480335"><ele>436.0</ele><time>2026-04-25T13:40:59Z</time></trkpt><trkpt lat="45.926561586308175" lon="8.820818780717222"><ele>437.20000000000005</ele><time>2026-04-25T13:41:01Z</time></trkpt><trkpt lat="45.92648101218564" lon="8.820814246463446"><ele>438.40000000000003</ele><time>2026-04-25T13:41:02Z</time></trkpt><trkpt lat="45.92639225795447" lon="8.820811543493722"><ele>439.6</ele><time>2026-04-25T13:41:03Z</time></trkpt><trkpt lat="45.926293703750126" lon="8.820812302830712"><ele>440.8</ele><time>2026-04-25T13:41:04Z</time></trkpt><trkpt lat="45.926192066403935" lon="8.820815274211126"><ele>442.0</ele><time>2026-04-25T13:41:05Z</time></trkpt><trkpt lat="45.92609025825127" lon="8.820830556457887"><ele>442.0</ele><time>2026-04-25T13:41:06Z</time></trkpt><trkpt lat="45.92599486338045" lon="8.820829948794307"><ele>442.00000000000006</ele><time>2026-04-25T13:41:07Z</time></trkpt><trkpt lat="45.9259031331034" lon="8.82084521940348"><ele>442.00000000000006</ele><time>2026-04-25T13:41:08Z</time></trkpt><trkpt lat="45.925807242690766" lon="8.820863877104719"><ele>442.0</ele><time>2026-04-25T13:41:09Z</time></trkpt><trkpt lat="45.92570684361296" lon="8.820876807846345"><ele>442.0</ele><time>2026-04-25T13:41:10Z</time></trkpt><trkpt lat="45.9256042386665" lon="8.820904317168173"><ele>442.8</ele><time>2026-04-25T13:41:11Z</time></trkpt><trkpt lat="45.92549897217185" lon="8.820940921271411"><ele>443.6</ele><time>2026-04-25T13:41:12Z</time></trkpt><trkpt lat="45.92538916229183" lon="8.820976929742955"><ele>444.40000000000003</ele><time>2026-04-25T13:41:13Z</time></trkpt><trkpt lat="45.925279899280206" lon="8.821013946712691"><ele>445.20000000000005</ele><time>2026-04-25T13:41:14Z</time></trkpt><trkpt lat="45.9251733038391" lon="8.821050377176812"><ele>446.0</ele><time>2026-04-25T13:41:15Z</time></trkpt><trkpt lat="45.925071412632484" lon="8.821086719844775"><ele>447.0</ele><time>2026-04-25T13:41:16Z</time></trkpt><trkpt lat="45.92496532889694" lon="8.821117565618241"><ele>448.0</ele><time>2026-04-25T13:41:17Z</time></trkpt><trkpt lat="45.92485831089974" lon="8.8211489389109"><ele>449.0</ele><time>2026-04-25T13:41:18Z</time></trkpt><trkpt lat="45.92474809138465" lon="8.82118594629367"><ele>450.0</ele><time>2026-04-25T13:41:19Z</time></trkpt><trkpt lat="45.92463664439686" lon="8.821209974594513"><ele>451.0</ele><time>2026-04-25T13:41:20Z</time></trkpt><trkpt lat="45.92451933815311" lon="8.821204088656886"><ele>451.0</ele><time>2026-04-25T13:41:21Z</time></trkpt><trkpt lat="45.924402175406144" lon="8.821180898223373"><ele>451.0</ele><time>2026-04-25T13:41:22Z</time></trkpt><trkpt lat="45.924282641686474" lon="8.821159817025938"><ele>451.0</ele><time>2026-04-25T13:41:23Z</time></trkpt><trkpt lat="45.92416020186952" lon="8.821142183571911"><ele>451.0</ele><time>2026-04-25T13:41:24Z</time></trkpt><trkpt lat="45.924040162768364" lon="8.821133870488643"><ele>451.8</ele><time>2026-04-25T13:41:25Z</time></trkpt><trkpt lat="45.92392074273745" lon="8.821136947701854"><ele>452.6</ele><time>2026-04-25T13:41:26Z</time></trkpt><trkpt lat="45.923812963871846" lon="8.821154596045456"><ele>453.4</ele><time>2026-04-25T13:41:27Z</time></trkpt><trkpt lat="45.92371574841145" lon="8.821185128389988"><ele>454.2</ele><time>2026-04-25T13:41:28Z</time></trkpt><trkpt lat="45.92363452472819" lon="8.821218729330091"><ele>455.0</ele><time>2026-04-25T13:41:29Z</time></trkpt><trkpt lat="45.92355327285495" lon="8.821259988342035"><ele>455.0</ele><time>2026-04-25T13:41:30Z</time></trkpt><trkpt lat="45.923457654472" lon="8.821313903731859"><ele>455.0</ele><time>2026-04-25T13:41:31Z</time></trkpt><trkpt lat="45.923364214613876" lon="8.821366053328621"><ele>455.0</ele><time>2026-04-25T13:41:32Z</time></trkpt><trkpt lat="45.92328106170767" lon="8.82140970417004"><ele>455.0</ele><time>2026-04-25T13:41:33Z</time></trkpt><trkpt lat="45.9232154472063" lon="8.82143905357125"><ele>455.0</ele><time>2026-04-25T13:41:34Z</time></trkpt><trkpt lat="45.92309638755761" lon="8.821491368309815"><ele>455.0</ele><time>2026-04-25T13:41:36Z</time></trkpt><trkpt lat="45.92303073942858" lon="8.82151553044091"><ele>455.0</ele><time>2026-04-25T13:41:37Z</time></trkpt><trkpt lat="45.922945663707985" lon="8.821551958511922"><ele>455.0</ele><time>2026-04-25T13:41:38Z</time></trkpt><trkpt lat="45.92285180517881" lon="8.821593266811181"><ele>455.0</ele><time>2026-04-25T13:41:39Z</time></trkpt><trkpt lat="45.92275037173783" lon="8.821642084445942"><ele>455.0</ele><time>2026-04-25T13:41:40Z</time></trkpt><trkpt lat="45.922638543672434" lon="8.821694629785926"><ele>455.0</ele><time>2026-04-25T13:41:41Z</time></trkpt><trkpt lat="45.92252040084713" lon="8.821746990958282"><ele>455.0</ele><time>2026-04-25T13:41:42Z</time></trkpt><trkpt lat="45.92239913093908" lon="8.821793541262737"><ele>455.0</ele><time>2026-04-25T13:41:43Z</time></trkpt><trkpt lat="45.922276391829584" lon="8.821835484882032"><ele>455.0</ele><time>2026-04-25T13:41:44Z</time></trkpt><trkpt lat="45.922154692287236" lon="8.821875618588647"><ele>455.0</ele><time>2026-04-25T13:41:45Z</time></trkpt><trkpt lat="45.92203461769077" lon="8.821923127808544"><ele>455.0</ele><time>2026-04-25T13:41:46Z</time></trkpt><trkpt lat="45.92191744556083" lon="8.821975304110461"><ele>455.0</ele><time>2026-04-25T13:41:47Z</time></trkpt><trkpt lat="45.92180165324502" lon="8.822028493702506"><ele>455.0</ele><time>2026-04-25T13:41:48Z</time></trkpt><trkpt lat="45.92169113413637" lon="8.82208610980951"><ele>454.5</ele><time>2026-04-25T13:41:49Z</time></trkpt><trkpt lat="45.92157904788166" lon="8.82216254663593"><ele>454.0</ele><time>2026-04-25T13:41:50Z</time></trkpt><trkpt lat="45.92145330724499" lon="8.822244911275003"><ele>453.5</ele><time>2026-04-25T13:41:51Z</time></trkpt><trkpt lat="45.92133104419725" lon="8.82234447432941"><ele>453.0</ele><time>2026-04-25T13:41:52Z</time></trkpt><trkpt lat="45.92120718777421" lon="8.822427073713685"><ele>453.0</ele><time>2026-04-25T13:41:53Z</time></trkpt><trkpt lat="45.9210747526672" lon="8.822507672253556"><ele>453.0</ele><time>2026-04-25T13:41:54Z</time></trkpt><trkpt lat="45.92094448087101" lon="8.822571095522854"><ele>453.0</ele><time>2026-04-25T13:41:55Z</time></trkpt><trkpt lat="45.920815217683575" lon="8.82261449048355"><ele>453.0</ele><time>2026-04-25T13:41:56Z</time></trkpt><trkpt lat="45.92067589866123" lon="8.822641849032339"><ele>452.25</ele><time>2026-04-25T13:41:57Z</time></trkpt><trkpt lat="45.920539863186505" lon="8.822647504529177"><ele>451.5</ele><time>2026-04-25T13:41:58Z</time></trkpt><trkpt lat="45.92040102208732" lon="8.822636610664377"><ele>450.75</ele><time>2026-04-25T13:41:59Z</time></trkpt><trkpt lat="45.92026256155161" lon="8.82261970334208"><ele>450.0</ele><time>2026-04-25T13:42:00Z</time></trkpt><trkpt lat="45.92014037853826" lon="8.822606125722487"><ele>450.4</ele><time>2026-04-25T13:42:01Z</time></trkpt><trkpt lat="45.9200305906811" lon="8.82259824877252"><ele>450.8</ele><time>2026-04-25T13:42:02Z</time></trkpt><trkpt lat="45.91992861905468" lon="8.822608843911784"><ele>451.20000000000005</ele><time>2026-04-25T13:42:03Z</time></trkpt><trkpt lat="45.91983073508794" lon="8.822639571390912"><ele>451.6</ele><time>2026-04-25T13:42:04Z</time></trkpt><trkpt lat="45.91973119811596" lon="8.822688905142037"><ele>452.0</ele><time>2026-04-25T13:42:05Z</time></trkpt><trkpt lat="45.91963060763987" lon="8.82275346650573"><ele>451.0</ele><time>2026-04-25T13:42:06Z</time></trkpt><trkpt lat="45.91953047391505" lon="8.822842415692174"><ele>450.0</ele><time>2026-04-25T13:42:07Z</time></trkpt><trkpt lat="45.91942111228242" lon="8.822943409846209"><ele>449.0</ele><time>2026-04-25T13:42:08Z</time></trkpt><trkpt lat="45.919307123477324" lon="8.823116130926895"><ele>448.0</ele><time>2026-04-25T13:42:09Z</time></trkpt><trkpt lat="45.91917769903757" lon="8.823322959704496"><ele>453.33333333333337</ele><time>2026-04-25T13:42:10Z</time></trkpt><trkpt lat="45.919053551640076" lon="8.823526353272078"><ele>458.66666666666663</ele><time>2026-04-25T13:42:11Z</time></trkpt><trkpt lat="45.918951370166624" lon="8.823714795162902"><ele>464.0</ele><time>2026-04-25T13:42:12Z</time></trkpt><trkpt lat="45.918849961378825" lon="8.823864630221657"><ele>464.0</ele><time>2026-04-25T13:42:13Z</time></trkpt><trkpt lat="45.918761485888425" lon="8.823996733483359"><ele>464.0</ele><time>2026-04-25T13:42:14Z</time></trkpt><trkpt lat="45.91867357416835" lon="8.824110769479203"><ele>464.0</ele><time>2026-04-25T13:42:15Z</time></trkpt><trkpt lat="45.918576524126685" lon="8.824204078093572"><ele>464.0</ele><time>2026-04-25T13:42:16Z</time></trkpt><trkpt lat="45.918468161999954" lon="8.82430591966167"><ele>470.66666666666663</ele><time>2026-04-25T13:42:17Z</time></trkpt><trkpt lat="45.91835365541205" lon="8.824386271601762"><ele>477.33333333333337</ele><time>2026-04-25T13:42:18Z</time></trkpt><trkpt lat="45.91821465879563" lon="8.824444619216614"><ele>484.0</ele><time>2026-04-25T13:42:19Z</time></trkpt><trkpt lat="45.91803590582512" lon="8.82449135478371"><ele>484.0</ele><time>2026-04-25T13:42:20Z</time></trkpt><trkpt lat="45.91791499702021" lon="8.824592024962731"><ele>484.0</ele><time>2026-04-25T13:42:21Z</time></trkpt><trkpt lat="45.917717034325634" lon="8.824653891595638"><ele>484.0</ele><time>2026-04-25T13:42:22Z</time></trkpt><trkpt lat="45.91747179438211" lon="8.824731346544636"><ele>475.5</ele><time>2026-04-25T13:42:23Z</time></trkpt><trkpt lat="45.91721183557561" lon="8.824814889852806"><ele>467.0</ele><time>2026-04-25T13:42:24Z</time></trkpt><trkpt lat="45.91697016695762" lon="8.824892200186444"><ele>467.0</ele><time>2026-04-25T13:42:25Z</time></trkpt><trkpt lat="45.916767180868554" lon="8.824954086444116"><ele>467.0</ele><time>2026-04-25T13:42:26Z</time></trkpt><trkpt lat="45.91658250914364" lon="8.82498130448571"><ele>467.0</ele><time>2026-04-25T13:42:27Z</time></trkpt><trkpt lat="45.91639264983812" lon="8.824954603346841"><ele>462.0</ele><time>2026-04-25T13:42:28Z</time></trkpt><trkpt lat="45.916184952495335" lon="8.824881305464922"><ele>457.0</ele><time>2026-04-25T13:42:29Z</time></trkpt><trkpt lat="45.91595130162414" lon="8.824789403468332"><ele>455.6666666666667</ele><time>2026-04-25T13:42:30Z</time></trkpt><trkpt lat="45.91571943277613" lon="8.824699336845468"><ele>454.33333333333337</ele><time>2026-04-25T13:42:31Z</time></trkpt><trkpt lat="45.91551813187786" lon="8.824651158317254"><ele>453.0</ele><time>2026-04-25T13:42:32Z</time></trkpt><trkpt lat="45.91535639607238" lon="8.82459411468172"><ele>453.0</ele><time>2026-04-25T13:42:33Z</time></trkpt><trkpt lat="45.915209480579" lon="8.824570925865192"><ele>453.0</ele><time>2026-04-25T13:42:34Z</time></trkpt><trkpt lat="45.91507926991647" lon="8.824589420629694"><ele>453.0</ele><time>2026-04-25T13:42:35Z</time></trkpt><trkpt lat="45.91496375335512" lon="8.82464094703646"><ele>453.0</ele><time>2026-04-25T13:42:36Z</time></trkpt><trkpt lat="45.91483795916582" lon="8.824714664385562"><ele>453.66666666666663</ele><time>2026-04-25T13:42:37Z</time></trkpt><trkpt lat="45.91469933274438" lon="8.824823699153269"><ele>454.3333333333333</ele><time>2026-04-25T13:42:38Z</time></trkpt><trkpt lat="45.91456778898368" lon="8.824963554982295"><ele>455.0</ele><time>2026-04-25T13:42:39Z</time></trkpt><trkpt lat="45.91442493040556" lon="8.82515364667169"><ele>458.0</ele><time>2026-04-25T13:42:40Z</time></trkpt><trkpt lat="45.914282441938894" lon="8.825378098305688"><ele>461.0</ele><time>2026-04-25T13:42:41Z</time></trkpt><trkpt lat="45.91416205209059" lon="8.825566461358678"><ele>464.0</ele><time>2026-04-25T13:42:42Z</time></trkpt><trkpt lat="45.914032898002745" lon="8.825725043605017"><ele>464.0</ele><time>2026-04-25T13:42:43Z</time></trkpt><trkpt lat="45.91386937052912" lon="8.825816071696702"><ele>464.0</ele><time>2026-04-25T13:42:44Z</time></trkpt><trkpt lat="45.91368706320794" lon="8.825877731269571"><ele>464.0</ele><time>2026-04-25T13:42:45Z</time></trkpt><trkpt lat="45.91350927484991" lon="8.825896755047626"><ele>460.66666666666663</ele><time>2026-04-25T13:42:46Z</time></trkpt><trkpt lat="45.9133275262247" lon="8.825864923454889"><ele>457.33333333333337</ele><time>2026-04-25T13:42:47Z</time></trkpt><trkpt lat="45.913130589096255" lon="8.82581353723674"><ele>454.0</ele><time>2026-04-25T13:42:48Z</time></trkpt><trkpt lat="45.91291705393003" lon="8.825757074831765"><ele>454.0</ele><time>2026-04-25T13:42:49Z</time></trkpt><trkpt lat="45.91274086680875" lon="8.82572356081959"><ele>454.0</ele><time>2026-04-25T13:42:50Z</time></trkpt><trkpt lat="45.91259419982539" lon="8.825681181836211"><ele>454.0</ele><time>2026-04-25T13:42:51Z</time></trkpt><trkpt lat="45.91246642955832" lon="8.825696383190857"><ele>453.5</ele><time>2026-04-25T13:42:52Z</time></trkpt><trkpt lat="45.912337705411545" lon="8.82573573846111"><ele>453.0</ele><time>2026-04-25T13:42:53Z</time></trkpt><trkpt lat="45.91221497780103" lon="8.825805088495084"><ele>452.5</ele><time>2026-04-25T13:42:54Z</time></trkpt><trkpt lat="45.91210969423202" lon="8.825889094140821"><ele>452.0</ele><time>2026-04-25T13:42:55Z</time></trkpt><trkpt lat="45.91201692417002" lon="8.826002502921586"><ele>453.0</ele><time>2026-04-25T13:42:56Z</time></trkpt><trkpt lat="45.91191156672189" lon="8.82613352354003"><ele>454.0</ele><time>2026-04-25T13:42:57Z</time></trkpt><trkpt lat="45.91179854073701" lon="8.826267612868907"><ele>455.0</ele><time>2026-04-25T13:42:58Z</time></trkpt><trkpt lat="45.91168080096403" lon="8.826396789778713"><ele>456.0</ele><time>2026-04-25T13:42:59Z</time></trkpt><trkpt lat="45.91155827790345" lon="8.826529547187839"><ele>456.0</ele><time>2026-04-25T13:43:00Z</time></trkpt><trkpt lat="45.911428398190374" lon="8.826657849497218"><ele>456.0</ele><time>2026-04-25T13:43:01Z</time></trkpt><trkpt lat="45.91128654392313" lon="8.826784199578562"><ele>456.0</ele><time>2026-04-25T13:43:02Z</time></trkpt><trkpt lat="45.91114838189798" lon="8.826892294649355"><ele>457.66666666666663</ele><time>2026-04-25T13:43:03Z</time></trkpt><trkpt lat="45.911011806945325" lon="8.826992787396254"><ele>459.3333333333333</ele><time>2026-04-25T13:43:04Z</time></trkpt><trkpt lat="45.91087336751351" lon="8.827087011728567"><ele>461.0</ele><time>2026-04-25T13:43:05Z</time></trkpt><trkpt lat="45.9107234682131" lon="8.827163984703686"><ele>461.0</ele><time>2026-04-25T13:43:06Z</time></trkpt><trkpt lat="45.91057533684645" lon="8.827221539381577"><ele>461.0</ele><time>2026-04-25T13:43:07Z</time></trkpt><trkpt lat="45.910430259571946" lon="8.827260039533979"><ele>461.0</ele><time>2026-04-25T13:43:08Z</time></trkpt><trkpt lat="45.91028826826139" lon="8.827287943589377"><ele>461.0</ele><time>2026-04-25T13:43:09Z</time></trkpt><trkpt lat="45.91012617005816" lon="8.827300687345268"><ele>459.3333333333333</ele><time>2026-04-25T13:43:10Z</time></trkpt><trkpt lat="45.909943494201165" lon="8.827304253819936"><ele>457.66666666666663</ele><time>2026-04-25T13:43:11Z</time></trkpt><trkpt lat="45.90975934626521" lon="8.8273000653204"><ele>456.0</ele><time>2026-04-25T13:43:12Z</time></trkpt><trkpt lat="45.90957740904282" lon="8.827297515710528"><ele>456.0</ele><time>2026-04-25T13:43:13Z</time></trkpt><trkpt lat="45.90939075336115" lon="8.827301110554172"><ele>456.0</ele><time>2026-04-25T13:43:14Z</time></trkpt><trkpt lat="45.909201876725504" lon="8.82729793558247"><ele>456.0</ele><time>2026-04-25T13:43:15Z</time></trkpt><trkpt lat="45.909011259497696" lon="8.827298710157752"><ele>456.0</ele><time>2026-04-25T13:43:16Z</time></trkpt><trkpt lat="45.90881710395326" lon="8.827299875409249"><ele>456.0</ele><time>2026-04-25T13:43:17Z</time></trkpt><trkpt lat="45.9086057300482" lon="8.827283811134816"><ele>456.0</ele><time>2026-04-25T13:43:18Z</time></trkpt><trkpt lat="45.90839459943526" lon="8.827282430697835"><ele>456.0</ele><time>2026-04-25T13:43:19Z</time></trkpt><trkpt lat="45.908198570161325" lon="8.827281148995942"><ele>456.0</ele><time>2026-04-25T13:43:20Z</time></trkpt><trkpt lat="45.908024894928765" lon="8.827276045742964"><ele>456.0</ele><time>2026-04-25T13:43:21Z</time></trkpt><trkpt lat="45.90784321370735" lon="8.827269281017712"><ele>456.0</ele><time>2026-04-25T13:43:22Z</time></trkpt><trkpt lat="45.90765516944985" lon="8.827288610479636"><ele>456.0</ele><time>2026-04-25T13:43:23Z</time></trkpt><trkpt lat="45.90746448873193" lon="8.827277835006843"><ele>456.0</ele><time>2026-04-25T13:43:24Z</time></trkpt><trkpt lat="45.907276685190595" lon="8.827257700081265"><ele>457.33333333333337</ele><time>2026-04-25T13:43:25Z</time></trkpt><trkpt lat="45.907089473234066" lon="8.82722991839827"><ele>458.6666666666667</ele><time>2026-04-25T13:43:26Z</time></trkpt><trkpt lat="45.90688105319962" lon="8.827186383648801"><ele>460.0</ele><time>2026-04-25T13:43:27Z</time></trkpt><trkpt lat="45.906664660841535" lon="8.827134266958808"><ele>460.6666666666667</ele><time>2026-04-25T13:43:28Z</time></trkpt><trkpt lat="45.90643900740448" lon="8.827076309010845"><ele>461.33333333333337</ele><time>2026-04-25T13:43:29Z</time></trkpt><trkpt lat="45.90622646903986" lon="8.826994609139968"><ele>462.0</ele><time>2026-04-25T13:43:30Z</time></trkpt><trkpt lat="45.90599828157926" lon="8.826929287803676"><ele>461.0</ele><time>2026-04-25T13:43:31Z</time></trkpt><trkpt lat="45.90579167839358" lon="8.82686606080816"><ele>460.0</ele><time>2026-04-25T13:43:32Z</time></trkpt><trkpt lat="45.905595898622785" lon="8.826804362312119"><ele>459.0</ele><time>2026-04-25T13:43:33Z</time></trkpt><trkpt lat="45.90541303488033" lon="8.826766375444603"><ele>459.0</ele><time>2026-04-25T13:43:34Z</time></trkpt><trkpt lat="45.90522938825555" lon="8.826692058628273"><ele>459.0</ele><time>2026-04-25T13:43:35Z</time></trkpt><trkpt lat="45.905039241865445" lon="8.826605931422916"><ele>459.0</ele><time>2026-04-25T13:43:36Z</time></trkpt><trkpt lat="45.90487428147535" lon="8.826520711715576"><ele>460.66666666666663</ele><time>2026-04-25T13:43:37Z</time></trkpt><trkpt lat="45.90471954566762" lon="8.826443676835076"><ele>462.3333333333333</ele><time>2026-04-25T13:43:38Z</time></trkpt><trkpt lat="45.90457599946883" lon="8.826376041091972"><ele>464.0</ele><time>2026-04-25T13:43:39Z</time></trkpt><trkpt lat="45.90442331846921" lon="8.826317469591404"><ele>464.0</ele><time>2026-04-25T13:43:40Z</time></trkpt><trkpt lat="45.904268742625476" lon="8.826280747643358"><ele>464.0</ele><time>2026-04-25T13:43:41Z</time></trkpt><trkpt lat="45.90410650477102" lon="8.826276684203364"><ele>464.0</ele><time>2026-04-25T13:43:42Z</time></trkpt><trkpt lat="45.903933235231875" lon="8.826296759747512"><ele>465.5</ele><time>2026-04-25T13:43:43Z</time></trkpt><trkpt lat="45.90379646141236" lon="8.826329880907759"><ele>467.0</ele><time>2026-04-25T13:43:44Z</time></trkpt><trkpt lat="45.90368596784571" lon="8.826325685190746"><ele>468.5</ele><time>2026-04-25T13:43:45Z</time></trkpt><trkpt lat="45.90357799289229" lon="8.826316640589392"><ele>470.0</ele><time>2026-04-25T13:43:46Z</time></trkpt><trkpt lat="45.903475696344465" lon="8.82628792785977"><ele>470.0</ele><time>2026-04-25T13:43:47Z</time></trkpt><trkpt lat="45.90336900851696" lon="8.82623633662462"><ele>470.0</ele><time>2026-04-25T13:43:48Z</time></trkpt><trkpt lat="45.90326261728552" lon="8.826173175886531"><ele>470.0</ele><time>2026-04-25T13:43:49Z</time></trkpt><trkpt lat="45.903173609640405" lon="8.826122394826456"><ele>470.0</ele><time>2026-04-25T13:43:50Z</time></trkpt><trkpt lat="45.90309177252433" lon="8.826075704647884"><ele>470.0</ele><time>2026-04-25T13:43:51Z</time></trkpt><trkpt lat="45.90301406488305" lon="8.826031370515315"><ele>470.0</ele><time>2026-04-25T13:43:52Z</time></trkpt><trkpt lat="45.902934318795765" lon="8.825985873349683"><ele>470.0</ele><time>2026-04-25T13:43:53Z</time></trkpt><trkpt lat="45.902848867498136" lon="8.825937120975654"><ele>470.0</ele><time>2026-04-25T13:43:54Z</time></trkpt><trkpt lat="45.902759436574414" lon="8.825884816649687"><ele>470.0</ele><time>2026-04-25T13:43:55Z</time></trkpt><trkpt lat="45.90266411113628" lon="8.825830639643037"><ele>470.0</ele><time>2026-04-25T13:43:56Z</time></trkpt><trkpt lat="45.90256260045707" lon="8.825773087452186"><ele>469.6</ele><time>2026-04-25T13:43:57Z</time></trkpt><trkpt lat="45.902458070559334" lon="8.825713823475082"><ele>469.2</ele><time>2026-04-25T13:43:58Z</time></trkpt><trkpt lat="45.90235128601171" lon="8.82565067979145"><ele>468.79999999999995</ele><time>2026-04-25T13:43:59Z</time></trkpt><trkpt lat="45.90224734428706" lon="8.825596503795216"><ele>468.4</ele><time>2026-04-25T13:44:00Z</time></trkpt><trkpt lat="45.90214450104939" lon="8.825564098067693"><ele>468.0</ele><time>2026-04-25T13:44:01Z</time></trkpt><trkpt lat="45.9020493166644" lon="8.82555876148028"><ele>468.0</ele><time>2026-04-25T13:44:02Z</time></trkpt><trkpt lat="45.90193946395937" lon="8.82559344626518"><ele>468.0</ele><time>2026-04-25T13:44:03Z</time></trkpt><trkpt lat="45.90182213686013" lon="8.82564165358016"><ele>468.0</ele><time>2026-04-25T13:44:04Z</time></trkpt><trkpt lat="45.90169686763136" lon="8.825700452858817"><ele>468.0</ele><time>2026-04-25T13:44:05Z</time></trkpt><trkpt lat="45.90158675608429" lon="8.825790781447202"><ele>468.5</ele><time>2026-04-25T13:44:06Z</time></trkpt><trkpt lat="45.9014708253284" lon="8.825875588465024"><ele>469.0</ele><time>2026-04-25T13:44:07Z</time></trkpt><trkpt lat="45.90134858831619" lon="8.825942431979694"><ele>469.5</ele><time>2026-04-25T13:44:08Z</time></trkpt><trkpt lat="45.9012443752433" lon="8.826011672912866"><ele>470.0</ele><time>2026-04-25T13:44:09Z</time></trkpt><trkpt lat="45.90115344159472" lon="8.826086003911119"><ele>469.99999999999994</ele><time>2026-04-25T13:44:10Z</time></trkpt><trkpt lat="45.90105549468375" lon="8.826106642684087"><ele>470.0</ele><time>2026-04-25T13:44:11Z</time></trkpt><trkpt lat="45.9009563907355" lon="8.826092009735657"><ele>470.0</ele><time>2026-04-25T13:44:12Z</time></trkpt><trkpt lat="45.90087175108061" lon="8.826044181830497"><ele>470.0</ele><time>2026-04-25T13:44:13Z</time></trkpt><trkpt lat="45.900802347170135" lon="8.825982561143872"><ele>469.99999999999994</ele><time>2026-04-25T13:44:14Z</time></trkpt><trkpt lat="45.90073439935668" lon="8.825960835160373"><ele>470.0</ele><time>2026-04-25T13:44:15Z</time></trkpt><trkpt lat="45.90065043240314" lon="8.826020199491357"><ele>468.66666666666663</ele><time>2026-04-25T13:44:16Z</time></trkpt><trkpt lat="45.90054271428079" lon="8.826137811617095"><ele>467.33333333333337</ele><time>2026-04-25T13:44:17Z</time></trkpt><trkpt lat="45.900396553792554" lon="8.826284746724745"><ele>466.0</ele><time>2026-04-25T13:44:18Z</time></trkpt><trkpt lat="45.900215127979656" lon="8.826384905185249"><ele>465.0</ele><time>2026-04-25T13:44:19Z</time></trkpt><trkpt lat="45.9000422767855" lon="8.826511444889038"><ele>464.0</ele><time>2026-04-25T13:44:20Z</time></trkpt><trkpt lat="45.89987301843429" lon="8.826606534357566"><ele>463.0</ele><time>2026-04-25T13:44:21Z</time></trkpt><trkpt lat="45.89971813507635" lon="8.8267094051961"><ele>463.0</ele><time>2026-04-25T13:44:22Z</time></trkpt><trkpt lat="45.89957519396585" lon="8.826800135479658"><ele>463.0</ele><time>2026-04-25T13:44:23Z</time></trkpt><trkpt lat="45.899441976005335" lon="8.826883672082435"><ele>463.0</ele><time>2026-04-25T13:44:24Z</time></trkpt><trkpt lat="45.89930488278513" lon="8.826978590281566"><ele>463.0</ele><time>2026-04-25T13:44:25Z</time></trkpt><trkpt lat="45.89914426879961" lon="8.827061561546445"><ele>463.0</ele><time>2026-04-25T13:44:26Z</time></trkpt><trkpt lat="45.898993257775125" lon="8.827181857763293"><ele>463.0</ele><time>2026-04-25T13:44:27Z</time></trkpt><trkpt lat="45.89883020549793" lon="8.827262169129147"><ele>463.0</ele><time>2026-04-25T13:44:28Z</time></trkpt><trkpt lat="45.898684108842176" lon="8.82735566985887"><ele>463.0</ele><time>2026-04-25T13:44:29Z</time></trkpt><trkpt lat="45.89856057545507" lon="8.827460515486917"><ele>463.0</ele><time>2026-04-25T13:44:30Z</time></trkpt><trkpt lat="45.89844318111482" lon="8.827532013823822"><ele>463.0</ele><time>2026-04-25T13:44:31Z</time></trkpt><trkpt lat="45.89832940301003" lon="8.827582489866131"><ele>463.75</ele><time>2026-04-25T13:44:32Z</time></trkpt><trkpt lat="45.898217689253606" lon="8.82765383851866"><ele>464.5</ele><time>2026-04-25T13:44:33Z</time></trkpt><trkpt lat="45.898103845275486" lon="8.827725461892102"><ele>465.25</ele><time>2026-04-25T13:44:34Z</time></trkpt><trkpt lat="45.897993305159325" lon="8.827794004259285"><ele>466.0</ele><time>2026-04-25T13:44:35Z</time></trkpt><trkpt lat="45.89787538104945" lon="8.827862439916606"><ele>466.0</ele><time>2026-04-25T13:44:36Z</time></trkpt><trkpt lat="45.89774634322504" lon="8.827933431919863"><ele>466.0</ele><time>2026-04-25T13:44:37Z</time></trkpt><trkpt lat="45.89757826745903" lon="8.828014819497724"><ele>466.0</ele><time>2026-04-25T13:44:38Z</time></trkpt><trkpt lat="45.897387838901075" lon="8.828086913261926"><ele>465.6666666666667</ele><time>2026-04-25T13:44:39Z</time></trkpt><trkpt lat="45.89717169013703" lon="8.828155076307842"><ele>465.33333333333337</ele><time>2026-04-25T13:44:40Z</time></trkpt><trkpt lat="45.896945294677316" lon="8.828185159871884"><ele>465.0</ele><time>2026-04-25T13:44:41Z</time></trkpt><trkpt lat="45.89674386091536" lon="8.82822736931997"><ele>464.66666666666663</ele><time>2026-04-25T13:44:42Z</time></trkpt><trkpt lat="45.896567409119605" lon="8.828291682506114"><ele>464.3333333333333</ele><time>2026-04-25T13:44:43Z</time></trkpt><trkpt lat="45.89639530689264" lon="8.828389315379813"><ele>464.0</ele><time>2026-04-25T13:44:44Z</time></trkpt><trkpt lat="45.89622646802489" lon="8.828516713948266"><ele>464.66666666666663</ele><time>2026-04-25T13:44:45Z</time></trkpt><trkpt lat="45.89606811379568" lon="8.828675830699234"><ele>465.33333333333337</ele><time>2026-04-25T13:44:46Z</time></trkpt><trkpt lat="45.89592095950668" lon="8.828866682339855"><ele>466.0</ele><time>2026-04-25T13:44:47Z</time></trkpt><trkpt lat="45.89575345139636" lon="8.828999143770297"><ele>466.0</ele><time>2026-04-25T13:44:48Z</time></trkpt><trkpt lat="45.89556719916893" lon="8.829091546586826"><ele>466.0</ele><time>2026-04-25T13:44:49Z</time></trkpt><trkpt lat="45.895377312023754" lon="8.829135713153466"><ele>466.0</ele><time>2026-04-25T13:44:50Z</time></trkpt><trkpt lat="45.89515136796729" lon="8.82917718417262"><ele>464.6666666666667</ele><time>2026-04-25T13:44:51Z</time></trkpt><trkpt lat="45.8949340783832" lon="8.829236023644373"><ele>463.33333333333337</ele><time>2026-04-25T13:44:52Z</time></trkpt><trkpt lat="45.89474527964336" lon="8.829286582439506"><ele>462.0</ele><time>2026-04-25T13:44:53Z</time></trkpt><trkpt lat="45.89458039329789" lon="8.829355957848273"><ele>465.0</ele><time>2026-04-25T13:44:54Z</time></trkpt><trkpt lat="45.894450311868724" lon="8.8294325868734"><ele>468.0</ele><time>2026-04-25T13:44:55Z</time></trkpt><trkpt lat="45.894295922790704" lon="8.829552909942377"><ele>471.0</ele><time>2026-04-25T13:44:56Z</time></trkpt><trkpt lat="45.89415463393512" lon="8.829658867691085"><ele>471.0</ele><time>2026-04-25T13:44:57Z</time></trkpt><trkpt lat="45.89401433068052" lon="8.829751622734152"><ele>471.0</ele><time>2026-04-25T13:44:58Z</time></trkpt><trkpt lat="45.89387813587585" lon="8.829830926292209"><ele>471.0</ele><time>2026-04-25T13:44:59Z</time></trkpt><trkpt lat="45.8937127750735" lon="8.82991158527096"><ele>471.0</ele><time>2026-04-25T13:45:00Z</time></trkpt><trkpt lat="45.893542182453864" lon="8.829983366660747"><ele>471.0</ele><time>2026-04-25T13:45:01Z</time></trkpt><trkpt lat="45.89337698969388" lon="8.830067866427852"><ele>471.0</ele><time>2026-04-25T13:45:02Z</time></trkpt><trkpt lat="45.89320366126891" lon="8.830126069892918"><ele>473.66666666666663</ele><time>2026-04-25T13:45:03Z</time></trkpt><trkpt lat="45.893024899960736" lon="8.83017155132381"><ele>476.3333333333333</ele><time>2026-04-25T13:45:04Z</time></trkpt><trkpt lat="45.892850294401185" lon="8.830214854480207"><ele>479.0</ele><time>2026-04-25T13:45:05Z</time></trkpt><trkpt lat="45.892676812106934" lon="8.830247989739684"><ele>477.3333333333333</ele><time>2026-04-25T13:45:06Z</time></trkpt><trkpt lat="45.89249939376365" lon="8.830248765409909"><ele>475.66666666666663</ele><time>2026-04-25T13:45:07Z</time></trkpt><trkpt lat="45.89232030788877" lon="8.830270231996545"><ele>474.0</ele><time>2026-04-25T13:45:08Z</time></trkpt><trkpt lat="45.8921439812746" lon="8.83029136783043"><ele>474.0</ele><time>2026-04-25T13:45:09Z</time></trkpt><trkpt lat="45.891970943192405" lon="8.830312109469386"><ele>474.0</ele><time>2026-04-25T13:45:10Z</time></trkpt><trkpt lat="45.891805753086466" lon="8.830332964511614"><ele>474.0</ele><time>2026-04-25T13:45:11Z</time></trkpt><trkpt lat="45.891644581293434" lon="8.830353584551695"><ele>474.0</ele><time>2026-04-25T13:45:12Z</time></trkpt><trkpt lat="45.89148435243093" lon="8.830375643592426"><ele>474.0</ele><time>2026-04-25T13:45:13Z</time></trkpt><trkpt lat="45.89132151833073" lon="8.83039866964542"><ele>474.0</ele><time>2026-04-25T13:45:14Z</time></trkpt><trkpt lat="45.89115573119215" lon="8.830422113280475"><ele>474.0</ele><time>2026-04-25T13:45:15Z</time></trkpt><trkpt lat="45.89099068996186" lon="8.830471014322752"><ele>474.0</ele><time>2026-04-25T13:45:16Z</time></trkpt><trkpt lat="45.8908272667912" lon="8.830501212505528"><ele>474.0</ele><time>2026-04-25T13:45:17Z</time></trkpt><trkpt lat="45.890665257973474" lon="8.83053533911887"><ele>474.0</ele><time>2026-04-25T13:45:18Z</time></trkpt><trkpt lat="45.89050576342529" lon="8.83059486604675"><ele>474.0</ele><time>2026-04-25T13:45:19Z</time></trkpt><trkpt lat="45.890347542194306" lon="8.83066972338071"><ele>474.0</ele><time>2026-04-25T13:45:20Z</time></trkpt><trkpt lat="45.89018207621775" lon="8.830745207431258"><ele>474.66666666666663</ele><time>2026-04-25T13:45:21Z</time></trkpt><trkpt lat="45.890016796070455" lon="8.830860939304987"><ele>475.3333333333333</ele><time>2026-04-25T13:45:22Z</time></trkpt><trkpt lat="45.88984341595124" lon="8.830997438512822"><ele>476.0</ele><time>2026-04-25T13:45:23Z</time></trkpt><trkpt lat="45.88966328117863" lon="8.8311418596768"><ele>476.0</ele><time>2026-04-25T13:45:24Z</time></trkpt><trkpt lat="45.88949248789346" lon="8.831279891552489"><ele>476.0</ele><time>2026-04-25T13:45:25Z</time></trkpt><trkpt lat="45.889343681355214" lon="8.831423079419473"><ele>476.0</ele><time>2026-04-25T13:45:26Z</time></trkpt><trkpt lat="45.88919790393195" lon="8.831539086758402"><ele>473.3333333333333</ele><time>2026-04-25T13:45:27Z</time></trkpt><trkpt lat="45.889060546421476" lon="8.831650795539023"><ele>470.66666666666663</ele><time>2026-04-25T13:45:28Z</time></trkpt><trkpt lat="45.88891679078611" lon="8.831770907518976"><ele>468.0</ele><time>2026-04-25T13:45:29Z</time></trkpt><trkpt lat="45.888756832047285" lon="8.831872981762446"><ele>468.0</ele><time>2026-04-25T13:45:30Z</time></trkpt><trkpt lat="45.888606252708726" lon="8.831993968143063"><ele>468.0</ele><time>2026-04-25T13:45:31Z</time></trkpt><trkpt lat="45.88846283525007" lon="8.832110424497989"><ele>468.0</ele><time>2026-04-25T13:45:32Z</time></trkpt><trkpt lat="45.88832666038714" lon="8.832220999924767"><ele>467.66666666666663</ele><time>2026-04-25T13:45:33Z</time></trkpt><trkpt lat="45.88818443975974" lon="8.832336271990748"><ele>467.3333333333333</ele><time>2026-04-25T13:45:34Z</time></trkpt><trkpt lat="45.88801826753129" lon="8.832469676192325"><ele>467.0</ele><time>2026-04-25T13:45:35Z</time></trkpt><trkpt lat="45.88782496857286" lon="8.832624857875155"><ele>471.0</ele><time>2026-04-25T13:45:36Z</time></trkpt><trkpt lat="45.88761058826664" lon="8.832796965588974"><ele>475.0</ele><time>2026-04-25T13:45:37Z</time></trkpt><trkpt lat="45.887413412673936" lon="8.832955259622679"><ele>475.0</ele><time>2026-04-25T13:45:38Z</time></trkpt><trkpt lat="45.88723476789425" lon="8.833098651481825"><ele>475.0</ele><time>2026-04-25T13:45:39Z</time></trkpt><trkpt lat="45.88706626053401" lon="8.833233899753873"><ele>475.0</ele><time>2026-04-25T13:45:40Z</time></trkpt><trkpt lat="45.88690847894299" lon="8.833361699841452"><ele>476.0</ele><time>2026-04-25T13:45:41Z</time></trkpt><trkpt lat="45.886753527138566" lon="8.833488200756127"><ele>477.0</ele><time>2026-04-25T13:45:42Z</time></trkpt><trkpt lat="45.88658832189795" lon="8.833621491425946"><ele>478.0</ele><time>2026-04-25T13:45:43Z</time></trkpt><trkpt lat="45.886434910144324" lon="8.833743113665713"><ele>478.0</ele><time>2026-04-25T13:45:44Z</time></trkpt><trkpt lat="45.88629162986009" lon="8.833853211491506"><ele>478.0</ele><time>2026-04-25T13:45:45Z</time></trkpt><trkpt lat="45.886151782365204" lon="8.83395511966032"><ele>478.0</ele><time>2026-04-25T13:45:46Z</time></trkpt><trkpt lat="45.88600615280293" lon="8.834054441825662"><ele>475.0</ele><time>2026-04-25T13:45:47Z</time></trkpt><trkpt lat="45.88585925038631" lon="8.834139878725454"><ele>472.0</ele><time>2026-04-25T13:45:48Z</time></trkpt><trkpt lat="45.885694787279554" lon="8.834217791187031"><ele>469.0</ele><time>2026-04-25T13:45:49Z</time></trkpt><trkpt lat="45.88550990979733" lon="8.834280092525406"><ele>472.33333333333337</ele><time>2026-04-25T13:45:50Z</time></trkpt><trkpt lat="45.88531576495234" lon="8.834329056752951"><ele>475.66666666666663</ele><time>2026-04-25T13:45:51Z</time></trkpt><trkpt lat="45.885128057684916" lon="8.834369333189708"><ele>479.0</ele><time>2026-04-25T13:45:52Z</time></trkpt><trkpt lat="45.884956467690486" lon="8.834424939043457"><ele>479.0</ele><time>2026-04-25T13:45:53Z</time></trkpt><trkpt lat="45.88478191549664" lon="8.834461120401308"><ele>479.0</ele><time>2026-04-25T13:45:54Z</time></trkpt><trkpt lat="45.8846079194282" lon="8.834497182885853"><ele>479.0</ele><time>2026-04-25T13:45:55Z</time></trkpt><trkpt lat="45.88443490402108" lon="8.834530605461085"><ele>479.0</ele><time>2026-04-25T13:45:56Z</time></trkpt><trkpt lat="45.884263713877" lon="8.834570956569838"><ele>479.0</ele><time>2026-04-25T13:45:57Z</time></trkpt><trkpt lat="45.88409523587493" lon="8.834623495826328"><ele>479.0</ele><time>2026-04-25T13:45:58Z</time></trkpt><trkpt lat="45.8839291153755" lon="8.83469502729542"><ele>475.66666666666663</ele><time>2026-04-25T13:45:59Z</time></trkpt><trkpt lat="45.883766738042574" lon="8.834785638981769"><ele>472.33333333333337</ele><time>2026-04-25T13:46:00Z</time></trkpt><trkpt lat="45.88359503909016" lon="8.834895663264"><ele>469.0</ele><time>2026-04-25T13:46:01Z</time></trkpt><trkpt lat="45.883407699614075" lon="8.834982974981143"><ele>468.6666666666667</ele><time>2026-04-25T13:46:02Z</time></trkpt><trkpt lat="45.883221904542495" lon="8.835092429463003"><ele>468.33333333333337</ele><time>2026-04-25T13:46:03Z</time></trkpt><trkpt lat="45.88304036129868" lon="8.835199379618594"><ele>468.0</ele><time>2026-04-25T13:46:04Z</time></trkpt><trkpt lat="45.8828399322801" lon="8.83531882078313"><ele>468.0</ele><time>2026-04-25T13:46:05Z</time></trkpt><trkpt lat="45.882633265456064" lon="8.835442439900152"><ele>468.0</ele><time>2026-04-25T13:46:06Z</time></trkpt><trkpt lat="45.88242244962086" lon="8.835568538795874"><ele>467.66666666666663</ele><time>2026-04-25T13:46:07Z</time></trkpt><trkpt lat="45.88222116655602" lon="8.835689447769951"><ele>467.3333333333333</ele><time>2026-04-25T13:46:08Z</time></trkpt><trkpt lat="45.88202123474803" lon="8.835809805669385"><ele>467.0</ele><time>2026-04-25T13:46:09Z</time></trkpt><trkpt lat="45.8818050298596" lon="8.835938421077742"><ele>470.5</ele><time>2026-04-25T13:46:10Z</time></trkpt><trkpt lat="45.881580165355096" lon="8.836071088624196"><ele>474.0</ele><time>2026-04-25T13:46:11Z</time></trkpt><trkpt lat="45.88136241917171" lon="8.836199430267225"><ele>474.0</ele><time>2026-04-25T13:46:12Z</time></trkpt><trkpt lat="45.88116525628591" lon="8.836314848038636"><ele>474.0</ele><time>2026-04-25T13:46:13Z</time></trkpt><trkpt lat="45.880981834494584" lon="8.836422221850324"><ele>474.0</ele><time>2026-04-25T13:46:14.001Z</time></trkpt><trkpt lat="45.880815262253506" lon="8.836534531903805"><ele>471.33333333333337</ele><time>2026-04-25T13:46:15.001Z</time></trkpt><trkpt lat="45.88064721808416" lon="8.836601315344945"><ele>468.6666666666667</ele><time>2026-04-25T13:46:16.001Z</time></trkpt><trkpt lat="45.88047842349423" lon="8.83666768108908"><ele>466.0</ele><time>2026-04-25T13:46:17.001Z</time></trkpt><trkpt lat="45.88029675123621" lon="8.836742978451888"><ele>466.0</ele><time>2026-04-25T13:46:18.001Z</time></trkpt><trkpt lat="45.8801133879979" lon="8.836764029124065"><ele>466.0</ele><time>2026-04-25T13:46:19.001Z</time></trkpt><trkpt lat="45.87992739636508" lon="8.836786896119493"><ele>466.0</ele><time>2026-04-25T13:46:20.001Z</time></trkpt><trkpt lat="45.87973882469479" lon="8.83677900531531"><ele>465.6666666666667</ele><time>2026-04-25T13:46:21.001Z</time></trkpt><trkpt lat="45.879546377417995" lon="8.836755710711687"><ele>465.33333333333337</ele><time>2026-04-25T13:46:22.001Z</time></trkpt><trkpt lat="45.87937014299162" lon="8.83672808159335"><ele>465.0</ele><time>2026-04-25T13:46:23.001Z</time></trkpt><trkpt lat="45.87919445467104" lon="8.836726232199803"><ele>467.0</ele><time>2026-04-25T13:46:24.001Z</time></trkpt><trkpt lat="45.87901571813204" lon="8.836707339028477"><ele>469.0</ele><time>2026-04-25T13:46:25.001Z</time></trkpt><trkpt lat="45.878862487709206" lon="8.83670147271702"><ele>471.0</ele><time>2026-04-25T13:46:26.001Z</time></trkpt><trkpt lat="45.87870268212251" lon="8.836672364303558"><ele>471.0</ele><time>2026-04-25T13:46:27.001Z</time></trkpt><trkpt lat="45.87855232288828" lon="8.836646479577599"><ele>471.0</ele><time>2026-04-25T13:46:28.001Z</time></trkpt><trkpt lat="45.87839901059222" lon="8.83662822117934"><ele>471.0</ele><time>2026-04-25T13:46:29.001Z</time></trkpt><trkpt lat="45.878250720185534" lon="8.836599816221028"><ele>470.0</ele><time>2026-04-25T13:46:30.001Z</time></trkpt><trkpt lat="45.87809894002903" lon="8.83657745528703"><ele>469.0</ele><time>2026-04-25T13:46:31.001Z</time></trkpt><trkpt lat="45.87793709738158" lon="8.836553358034651"><ele>468.0</ele><time>2026-04-25T13:46:32.001Z</time></trkpt><trkpt lat="45.87777563344298" lon="8.836502896420201"><ele>468.33333333333337</ele><time>2026-04-25T13:46:33.001Z</time></trkpt><trkpt lat="45.877589866100784" lon="8.836494983732697"><ele>468.6666666666667</ele><time>2026-04-25T13:46:34.001Z</time></trkpt><trkpt lat="45.8774228808472" lon="8.836461689303995"><ele>469.0</ele><time>2026-04-25T13:46:35.001Z</time></trkpt><trkpt lat="45.87727326679962" lon="8.83644116680814"><ele>469.0</ele><time>2026-04-25T13:46:36.001Z</time></trkpt><trkpt lat="45.877113099882024" lon="8.8363918930071"><ele>469.0</ele><time>2026-04-25T13:46:37.001Z</time></trkpt><trkpt lat="45.87693602573142" lon="8.836382133926381"><ele>469.0</ele><time>2026-04-25T13:46:38.001Z</time></trkpt><trkpt lat="45.876753195715914" lon="8.836331897331652"><ele>469.0</ele><time>2026-04-25T13:46:39.001Z</time></trkpt><trkpt lat="45.876535224017964" lon="8.83629556507554"><ele>469.0</ele><time>2026-04-25T13:46:40.001Z</time></trkpt><trkpt lat="45.876286085670976" lon="8.836254042011035"><ele>469.0</ele><time>2026-04-25T13:46:41.001Z</time></trkpt><trkpt lat="45.87601642300363" lon="8.836209111176018"><ele>469.0</ele><time>2026-04-25T13:46:42.001Z</time></trkpt><trkpt lat="45.87573821568994" lon="8.83616284114193"><ele>471.5</ele><time>2026-04-25T13:46:43.001Z</time></trkpt><trkpt lat="45.8754897831826" lon="8.836121523098132"><ele>474.0</ele><time>2026-04-25T13:46:44.001Z</time></trkpt><trkpt lat="45.87524907796779" lon="8.836100793660368"><ele>477.0</ele><time>2026-04-25T13:46:45.001Z</time></trkpt><trkpt lat="45.87501129134511" lon="8.836039802655714"><ele>480.0</ele><time>2026-04-25T13:46:46.001Z</time></trkpt><trkpt lat="45.874765388602334" lon="8.83599853502137"><ele>481.5</ele><time>2026-04-25T13:46:47.001Z</time></trkpt><trkpt lat="45.87452018930848" lon="8.835957247781556"><ele>483.0</ele><time>2026-04-25T13:46:48.001Z</time></trkpt><trkpt lat="45.87426325678537" lon="8.835913946767718"><ele>483.0</ele><time>2026-04-25T13:46:49.001Z</time></trkpt><trkpt lat="45.87402758679663" lon="8.835874236986275"><ele>483.0</ele><time>2026-04-25T13:46:50.001Z</time></trkpt><trkpt lat="45.873801847861344" lon="8.835836245413246"><ele>483.0</ele><time>2026-04-25T13:46:51.001Z</time></trkpt><trkpt lat="45.87359301765472" lon="8.835801489013598"><ele>483.0</ele><time>2026-04-25T13:46:52.001Z</time></trkpt><trkpt lat="45.87339709934744" lon="8.835792934624632"><ele>483.0</ele><time>2026-04-25T13:46:53.001Z</time></trkpt><trkpt lat="45.873229124380586" lon="8.835740371066759"><ele>482.66666666666663</ele><time>2026-04-25T13:46:54.001Z</time></trkpt><trkpt lat="45.87307398225815" lon="8.835706669907129"><ele>482.3333333333333</ele><time>2026-04-25T13:46:55.001Z</time></trkpt><trkpt lat="45.87291645846084" lon="8.83565895848475"><ele>482.0</ele><time>2026-04-25T13:46:56.001Z</time></trkpt><trkpt lat="45.87273130748783" lon="8.835581325578035"><ele>484.0</ele><time>2026-04-25T13:46:57.001Z</time></trkpt><trkpt lat="45.872523626960145" lon="8.835465334653032"><ele>486.0</ele><time>2026-04-25T13:46:58.001Z</time></trkpt><trkpt lat="45.872298752113664" lon="8.835326999572263"><ele>486.0</ele><time>2026-04-25T13:46:59.001Z</time></trkpt><trkpt lat="45.87208844136023" lon="8.835137987411033"><ele>486.0</ele><time>2026-04-25T13:47:00.001Z</time></trkpt><trkpt lat="45.871912818705" lon="8.834918283701166"><ele>487.0</ele><time>2026-04-25T13:47:01.001Z</time></trkpt><trkpt lat="45.871735410978886" lon="8.834673917799812"><ele>488.0</ele><time>2026-04-25T13:47:02.001Z</time></trkpt><trkpt lat="45.87156038388919" lon="8.834407704625443"><ele>487.0</ele><time>2026-04-25T13:47:03.001Z</time></trkpt><trkpt lat="45.871387630301435" lon="8.83414709290036"><ele>486.0</ele><time>2026-04-25T13:47:04.001Z</time></trkpt><trkpt lat="45.8712406301911" lon="8.833932760120266"><ele>486.0</ele><time>2026-04-25T13:47:05.001Z</time></trkpt><trkpt lat="45.87109270562046" lon="8.833736042078066"><ele>486.0</ele><time>2026-04-25T13:47:06.001Z</time></trkpt><trkpt lat="45.870941701443726" lon="8.833576997285189"><ele>486.0</ele><time>2026-04-25T13:47:07.001Z</time></trkpt><trkpt lat="45.870764414041936" lon="8.833444416228177"><ele>483.5</ele><time>2026-04-25T13:47:08.001Z</time></trkpt><trkpt lat="45.87055404046742" lon="8.833342997664033"><ele>481.0</ele><time>2026-04-25T13:47:09.001Z</time></trkpt><trkpt lat="45.870313405673365" lon="8.833273527077683"><ele>479.5</ele><time>2026-04-25T13:47:10.001Z</time></trkpt><trkpt lat="45.87002358567987" lon="8.833232239529071"><ele>478.0</ele><time>2026-04-25T13:47:11.001Z</time></trkpt><trkpt lat="45.869740546720216" lon="8.833185963399885"><ele>478.0</ele><time>2026-04-25T13:47:12.001Z</time></trkpt><trkpt lat="45.8694376334957" lon="8.83313867681173"><ele>478.0</ele><time>2026-04-25T13:47:13.001Z</time></trkpt><trkpt lat="45.869149004898595" lon="8.833079432351235"><ele>478.0</ele><time>2026-04-25T13:47:14.001Z</time></trkpt><trkpt lat="45.86886530706379" lon="8.833024855181826"><ele>478.0</ele><time>2026-04-25T13:47:15.001Z</time></trkpt><trkpt lat="45.868579332546474" lon="8.83296900357518"><ele>477.0</ele><time>2026-04-25T13:47:16.001Z</time></trkpt><trkpt lat="45.86827902394803" lon="8.832922371453552"><ele>476.0</ele><time>2026-04-25T13:47:17.001Z</time></trkpt><trkpt lat="45.867955057797474" lon="8.83286518626085"><ele>476.0</ele><time>2026-04-25T13:47:18.001Z</time></trkpt><trkpt lat="45.867629035569074" lon="8.832805161634365"><ele>476.0</ele><time>2026-04-25T13:47:19.001Z</time></trkpt><trkpt lat="45.86729838505335" lon="8.832743480958333"><ele>475.5</ele><time>2026-04-25T13:47:20.001Z</time></trkpt><trkpt lat="45.86695514124199" lon="8.83267803340443"><ele>475.0</ele><time>2026-04-25T13:47:21.001Z</time></trkpt><trkpt lat="45.866640328827806" lon="8.83262272905071"><ele>477.0</ele><time>2026-04-25T13:47:22.001Z</time></trkpt><trkpt lat="45.86634197576712" lon="8.83257226507149"><ele>479.0</ele><time>2026-04-25T13:47:23.001Z</time></trkpt><trkpt lat="45.86603055642886" lon="8.832513220780958"><ele>476.5</ele><time>2026-04-25T13:47:24.001Z</time></trkpt><trkpt lat="45.86571512996817" lon="8.832454738062184"><ele>474.0</ele><time>2026-04-25T13:47:25.001Z</time></trkpt><trkpt lat="45.865418174441814" lon="8.83239848328185"><ele>474.0</ele><time>2026-04-25T13:47:26.001Z</time></trkpt><trkpt lat="45.86515596346742" lon="8.832344943450801"><ele>474.0</ele><time>2026-04-25T13:47:27.001Z</time></trkpt><trkpt lat="45.86491755843322" lon="8.832301327723037"><ele>473.33333333333337</ele><time>2026-04-25T13:47:28.001Z</time></trkpt><trkpt lat="45.864712308552875" lon="8.832262288180399"><ele>472.6666666666667</ele><time>2026-04-25T13:47:29.001Z</time></trkpt><trkpt lat="45.86451252578143" lon="8.832242032190074"><ele>472.0</ele><time>2026-04-25T13:47:30.001Z</time></trkpt><trkpt lat="45.864295324625125" lon="8.832252269884384"><ele>472.0</ele><time>2026-04-25T13:47:31.001Z</time></trkpt><trkpt lat="45.86405992814523" lon="8.832307865524045"><ele>472.0</ele><time>2026-04-25T13:47:32.001Z</time></trkpt><trkpt lat="45.86383124087295" lon="8.832374796097083"><ele>472.0</ele><time>2026-04-25T13:47:33.001Z</time></trkpt><trkpt lat="45.86362124837813" lon="8.832432155502081"><ele>472.0</ele><time>2026-04-25T13:47:34.001Z</time></trkpt><trkpt lat="45.86342232046263" lon="8.832480204584355"><ele>472.0</ele><time>2026-04-25T13:47:35.001Z</time></trkpt><trkpt lat="45.863246725051376" lon="8.832502191544048"><ele>472.33333333333337</ele><time>2026-04-25T13:47:36.001Z</time></trkpt><trkpt lat="45.86308238270187" lon="8.832478500344818"><ele>472.66666666666663</ele><time>2026-04-25T13:47:37.001Z</time></trkpt><trkpt lat="45.8629254610833" lon="8.832408862350078"><ele>473.0</ele><time>2026-04-25T13:47:38.001Z</time></trkpt><trkpt lat="45.86277943916351" lon="8.83228914310758"><ele>473.0</ele><time>2026-04-25T13:47:39.001Z</time></trkpt><trkpt lat="45.86264502556158" lon="8.832135550825026"><ele>473.0</ele><time>2026-04-25T13:47:40.001Z</time></trkpt><trkpt lat="45.862528288984834" lon="8.83194760882881"><ele>473.0</ele><time>2026-04-25T13:47:41.001Z</time></trkpt><trkpt lat="45.86243503312286" lon="8.831711297515678"><ele>471.3333333333333</ele><time>2026-04-25T13:47:42.001Z</time></trkpt><trkpt lat="45.86235351318504" lon="8.831435552920691"><ele>469.66666666666663</ele><time>2026-04-25T13:47:43.001Z</time></trkpt><trkpt lat="45.86228558592997" lon="8.831109700249511"><ele>468.0</ele><time>2026-04-25T13:47:44.001Z</time></trkpt><trkpt lat="45.86221219584336" lon="8.830771351951288"><ele>473.0</ele><time>2026-04-25T13:47:45.001Z</time></trkpt><trkpt lat="45.862137524932194" lon="8.830434588959376"><ele>478.0</ele><time>2026-04-25T13:47:46.001Z</time></trkpt><trkpt lat="45.86207988131813" lon="8.830119155576499"><ele>489.0</ele><time>2026-04-25T13:47:47.001Z</time></trkpt><trkpt lat="45.86201273492071" lon="8.829818548156668"><ele>500.0</ele><time>2026-04-25T13:47:48.001Z</time></trkpt><trkpt lat="45.86183722749525" lon="8.829603827313353"><ele>491.5</ele><time>2026-04-25T13:47:49.001Z</time></trkpt><trkpt lat="45.86166396890719" lon="8.82936941036839"><ele>483.0</ele><time>2026-04-25T13:47:50.001Z</time></trkpt><trkpt lat="45.861463187127555" lon="8.829136592017992"><ele>483.0</ele><time>2026-04-25T13:47:51.001Z</time></trkpt><trkpt lat="45.86124661880891" lon="8.828901657719067"><ele>483.0</ele><time>2026-04-25T13:47:52.001Z</time></trkpt><trkpt lat="45.86104583862717" lon="8.828671878468292"><ele>475.5</ele><time>2026-04-25T13:47:53.001Z</time></trkpt><trkpt lat="45.860864059194824" lon="8.828451330566747"><ele>468.0</ele><time>2026-04-25T13:47:54.001Z</time></trkpt><trkpt lat="45.860692860951254" lon="8.828243544432654"><ele>468.0</ele><time>2026-04-25T13:47:55.001Z</time></trkpt><trkpt lat="45.86052312027537" lon="8.828051851815175"><ele>468.0</ele><time>2026-04-25T13:47:56.001Z</time></trkpt><trkpt lat="45.8603569929593" lon="8.827877127480358"><ele>468.0</ele><time>2026-04-25T13:47:57.001Z</time></trkpt><trkpt lat="45.86017862771029" lon="8.827730328407172"><ele>466.66666666666663</ele><time>2026-04-25T13:47:58.001Z</time></trkpt><trkpt lat="45.85997878165379" lon="8.82760570420107"><ele>465.3333333333333</ele><time>2026-04-25T13:47:59.001Z</time></trkpt><trkpt lat="45.859777711090125" lon="8.827507959971859"><ele>464.0</ele><time>2026-04-25T13:48:00.001Z</time></trkpt><trkpt lat="45.85959238356881" lon="8.827404908895462"><ele>464.0</ele><time>2026-04-25T13:48:01.001Z</time></trkpt><trkpt lat="45.85942432492549" lon="8.827274812017858"><ele>464.0</ele><time>2026-04-25T13:48:02.001Z</time></trkpt><trkpt lat="45.85927858701753" lon="8.827083222384772"><ele>464.0</ele><time>2026-04-25T13:48:03.001Z</time></trkpt><trkpt lat="45.859150750065254" lon="8.82685651927038"><ele>464.3333333333333</ele><time>2026-04-25T13:48:04.001Z</time></trkpt><trkpt lat="45.859036832311624" lon="8.82663990569538"><ele>464.66666666666663</ele><time>2026-04-25T13:48:05.001Z</time></trkpt><trkpt lat="45.85891743862018" lon="8.82642379882571"><ele>465.0</ele><time>2026-04-25T13:48:06.001Z</time></trkpt><trkpt lat="45.85879755623122" lon="8.826211024835514"><ele>465.0</ele><time>2026-04-25T13:48:07.001Z</time></trkpt><trkpt lat="45.8586840199524" lon="8.826011377490223"><ele>465.0</ele><time>2026-04-25T13:48:08.001Z</time></trkpt><trkpt lat="45.85857768717439" lon="8.82581358509002"><ele>465.0</ele><time>2026-04-25T13:48:09.001Z</time></trkpt><trkpt lat="45.85846253438809" lon="8.825646517698253"><ele>468.66666666666663</ele><time>2026-04-25T13:48:10.001Z</time></trkpt><trkpt lat="45.85833524623462" lon="8.825500712056714"><ele>472.3333333333333</ele><time>2026-04-25T13:48:11.001Z</time></trkpt><trkpt lat="45.85820450317584" lon="8.825392496579198"><ele>476.0</ele><time>2026-04-25T13:48:12.001Z</time></trkpt><trkpt lat="45.858062948469296" lon="8.825294326823078"><ele>476.0</ele><time>2026-04-25T13:48:13.001Z</time></trkpt><trkpt lat="45.85790654176041" lon="8.82522097696912"><ele>476.0</ele><time>2026-04-25T13:48:14.001Z</time></trkpt><trkpt lat="45.857740560680334" lon="8.825136247130201"><ele>476.0</ele><time>2026-04-25T13:48:15.001Z</time></trkpt><trkpt lat="45.857584464587255" lon="8.825051843821395"><ele>472.66666666666663</ele><time>2026-04-25T13:48:16.001Z</time></trkpt><trkpt lat="45.85745718398472" lon="8.824970076515436"><ele>469.33333333333337</ele><time>2026-04-25T13:48:17.001Z</time></trkpt><trkpt lat="45.85730749056336" lon="8.824897246260837"><ele>466.0</ele><time>2026-04-25T13:48:18.001Z</time></trkpt><trkpt lat="45.857140114381174" lon="8.824845953410975"><ele>466.0</ele><time>2026-04-25T13:48:19.001Z</time></trkpt><trkpt lat="45.85698472967449" lon="8.824779637981695"><ele>466.0</ele><time>2026-04-25T13:48:20.001Z</time></trkpt><trkpt lat="45.856738940157285" lon="8.824910868513571"><ele>466.0</ele><time>2026-04-25T13:48:21.001Z</time></trkpt><trkpt lat="45.856584867443104" lon="8.824860698464747"><ele>462.0</ele><time>2026-04-25T13:48:22.001Z</time></trkpt><trkpt lat="45.85644296223946" lon="8.824771110507575"><ele>458.0</ele><time>2026-04-25T13:48:23.001Z</time></trkpt><trkpt lat="45.856300247391324" lon="8.82464082417414"><ele>454.0</ele><time>2026-04-25T13:48:24.001Z</time></trkpt><trkpt lat="45.85617586514689" lon="8.824470789805122"><ele>454.6666666666667</ele><time>2026-04-25T13:48:25.001Z</time></trkpt><trkpt lat="45.85605525174032" lon="8.824269761988964"><ele>455.33333333333337</ele><time>2026-04-25T13:48:26.001Z</time></trkpt><trkpt lat="45.85593765136989" lon="8.82404991378246"><ele>456.0</ele><time>2026-04-25T13:48:27.001Z</time></trkpt><trkpt lat="45.85584105964457" lon="8.82384355042741"><ele>456.75</ele><time>2026-04-25T13:48:28.001Z</time></trkpt><trkpt lat="45.85574705106413" lon="8.823673844439881"><ele>457.5</ele><time>2026-04-25T13:48:29.001Z</time></trkpt><trkpt lat="45.85566135523649" lon="8.82350208054112"><ele>458.25</ele><time>2026-04-25T13:48:30.001Z</time></trkpt><trkpt lat="45.855576139511875" lon="8.823350975699096"><ele>459.0</ele><time>2026-04-25T13:48:31.001Z</time></trkpt><trkpt lat="45.85548290699957" lon="8.823221510978753"><ele>456.25</ele><time>2026-04-25T13:48:32.001Z</time></trkpt><trkpt lat="45.85537798737326" lon="8.823124108770173"><ele>453.5</ele><time>2026-04-25T13:48:33.001Z</time></trkpt><trkpt lat="45.85525982188248" lon="8.823057836509244"><ele>450.75</ele><time>2026-04-25T13:48:34.001Z</time></trkpt><trkpt lat="45.85512378547798" lon="8.823033184611171"><ele>448.0</ele><time>2026-04-25T13:48:35.001Z</time></trkpt><trkpt lat="45.8549784184001" lon="8.823008205471933"><ele>447.6666666666667</ele><time>2026-04-25T13:48:36.001Z</time></trkpt><trkpt lat="45.854843078156186" lon="8.82302267441427"><ele>447.33333333333337</ele><time>2026-04-25T13:48:37.001Z</time></trkpt><trkpt lat="45.8546500090917" lon="8.823071836901653"><ele>447.0</ele><time>2026-04-25T13:48:38.001Z</time></trkpt><trkpt lat="45.854458846638806" lon="8.823109169748113"><ele>442.0</ele><time>2026-04-25T13:48:39.001Z</time></trkpt><trkpt lat="45.85422604815541" lon="8.823176382660746"><ele>437.0</ele><time>2026-04-25T13:48:40.001Z</time></trkpt><trkpt lat="45.8539757137565" lon="8.823262245250337"><ele>437.0</ele><time>2026-04-25T13:48:41.001Z</time></trkpt><trkpt lat="45.85370044345448" lon="8.823264722073695"><ele>437.0</ele><time>2026-04-25T13:48:42.001Z</time></trkpt><trkpt lat="45.85340435602635" lon="8.823237769202313"><ele>436.0</ele><time>2026-04-25T13:48:43.001Z</time></trkpt><trkpt lat="45.85312020849683" lon="8.823201776152269"><ele>435.0</ele><time>2026-04-25T13:48:44.001Z</time></trkpt><trkpt lat="45.85286535849879" lon="8.823176447068642"><ele>435.0</ele><time>2026-04-25T13:48:45.001Z</time></trkpt><trkpt lat="45.852625493151834" lon="8.823152545983568"><ele>435.0</ele><time>2026-04-25T13:48:46.001Z</time></trkpt><trkpt lat="45.85241455805674" lon="8.823123829303238"><ele>438.33333333333337</ele><time>2026-04-25T13:48:47.001Z</time></trkpt><trkpt lat="45.85221588328577" lon="8.823071957862842"><ele>441.6666666666667</ele><time>2026-04-25T13:48:48.001Z</time></trkpt><trkpt lat="45.85202975491682" lon="8.823003891827955"><ele>445.0</ele><time>2026-04-25T13:48:49.001Z</time></trkpt><trkpt lat="45.85187388235709" lon="8.822932105503146"><ele>442.8</ele><time>2026-04-25T13:48:50.001Z</time></trkpt><trkpt lat="45.85177152414169" lon="8.822873630775057"><ele>440.6</ele><time>2026-04-25T13:48:51.001Z</time></trkpt><trkpt lat="45.85166924873666" lon="8.822845056589099"><ele>438.4</ele><time>2026-04-25T13:48:52.001Z</time></trkpt><trkpt lat="45.85156278992143" lon="8.822852089792592"><ele>436.2</ele><time>2026-04-25T13:48:53.001Z</time></trkpt><trkpt lat="45.85146270687521" lon="8.822925127932232"><ele>434.0</ele><time>2026-04-25T13:48:54.001Z</time></trkpt><trkpt lat="45.85135831073038" lon="8.8230695304608"><ele>434.0</ele><time>2026-04-25T13:48:55.001Z</time></trkpt><trkpt lat="45.85124753610101" lon="8.823262637165056"><ele>434.0</ele><time>2026-04-25T13:48:56.001Z</time></trkpt><trkpt lat="45.85114973677369" lon="8.823457178292013"><ele>434.0</ele><time>2026-04-25T13:48:57.001Z</time></trkpt><trkpt lat="45.851088271892934" lon="8.823644344351303"><ele>432.5</ele><time>2026-04-25T13:48:58.001Z</time></trkpt><trkpt lat="45.851044372824035" lon="8.82384122450679"><ele>431.0</ele><time>2026-04-25T13:48:59.001Z</time></trkpt><trkpt lat="45.85101742310249" lon="8.824028166253328"><ele>429.5</ele><time>2026-04-25T13:49:00.001Z</time></trkpt><trkpt lat="45.850991359089235" lon="8.82421019396038"><ele>428.0</ele><time>2026-04-25T13:49:01.001Z</time></trkpt><trkpt lat="45.85095658903373" lon="8.824402996375303"><ele>428.0</ele><time>2026-04-25T13:49:02.001Z</time></trkpt><trkpt lat="45.85091999538192" lon="8.82460826594138"><ele>428.0</ele><time>2026-04-25T13:49:03.001Z</time></trkpt><trkpt lat="45.85087935152072" lon="8.824808492688755"><ele>428.0</ele><time>2026-04-25T13:49:04.001Z</time></trkpt><trkpt lat="45.85084062005345" lon="8.825024783077916"><ele>428.0</ele><time>2026-04-25T13:49:05.001Z</time></trkpt><trkpt lat="45.850786752745435" lon="8.825171922529046"><ele>431.75</ele><time>2026-04-25T13:49:06.001Z</time></trkpt><trkpt lat="45.85077817658486" lon="8.825375617637992"><ele>435.5</ele><time>2026-04-25T13:49:07.001Z</time></trkpt><trkpt lat="45.85076936130088" lon="8.825581507757033"><ele>439.25</ele><time>2026-04-25T13:49:08.001Z</time></trkpt><trkpt lat="45.85076412659695" lon="8.825794477859898"><ele>443.0</ele><time>2026-04-25T13:49:09.001Z</time></trkpt><trkpt lat="45.850752478693614" lon="8.826012248754726"><ele>443.75</ele><time>2026-04-25T13:49:10.001Z</time></trkpt><trkpt lat="45.85073638732352" lon="8.826230943589788"><ele>444.5</ele><time>2026-04-25T13:49:11.001Z</time></trkpt><trkpt lat="45.85071968571527" lon="8.826404393482779"><ele>445.25</ele><time>2026-04-25T13:49:12.051Z</time></trkpt><trkpt lat="45.85072012600811" lon="8.82658656992945"><ele>446.0</ele><time>2026-04-25T13:49:13.001Z</time></trkpt><trkpt lat="45.85060589431056" lon="8.826721030615458"><ele>446.0</ele><time>2026-04-25T13:49:14.001Z</time></trkpt><trkpt lat="45.8504587804703" lon="8.82670445558743"><ele>446.0</ele><time>2026-04-25T13:49:15.001Z</time></trkpt><trkpt lat="45.850359363513206" lon="8.826703369017476"><ele>446.0</ele><time>2026-04-25T13:49:16.001Z</time></trkpt><trkpt lat="45.85024112508128" lon="8.826729577833088"><ele>446.0</ele><time>2026-04-25T13:49:17.001Z</time></trkpt><trkpt lat="45.85012037174375" lon="8.826735350927258"><ele>437.75</ele><time>2026-04-25T13:49:18.001Z</time></trkpt><trkpt lat="45.849992732799514" lon="8.826712391069487"><ele>429.5</ele><time>2026-04-25T13:49:19.001Z</time></trkpt><trkpt lat="45.84986515861553" lon="8.826683601298702"><ele>421.25</ele><time>2026-04-25T13:49:20.001Z</time></trkpt><trkpt lat="45.84973881010726" lon="8.826658387229772"><ele>413.0</ele><time>2026-04-25T13:49:21.001Z</time></trkpt><trkpt lat="45.84961947471273" lon="8.826646138773548"><ele>413.0</ele><time>2026-04-25T13:49:22.001Z</time></trkpt><trkpt lat="45.84950069993663" lon="8.826632052118091"><ele>413.0</ele><time>2026-04-25T13:49:23.001Z</time></trkpt><trkpt lat="45.849393481314976" lon="8.82661600486941"><ele>413.0</ele><time>2026-04-25T13:49:24.001Z</time></trkpt><trkpt lat="45.84929661402125" lon="8.826605640988179"><ele>413.0</ele><time>2026-04-25T13:49:25.001Z</time></trkpt><trkpt lat="45.84920467835432" lon="8.826582701767824"><ele>413.0</ele><time>2026-04-25T13:49:26.001Z</time></trkpt><trkpt lat="45.84911451849532" lon="8.826559170241094"><ele>414.0</ele><time>2026-04-25T13:49:27.001Z</time></trkpt><trkpt lat="45.84902328746893" lon="8.826504861523892"><ele>415.0</ele><time>2026-04-25T13:49:28.001Z</time></trkpt><trkpt lat="45.84892161162017" lon="8.826439588814054"><ele>416.0</ele><time>2026-04-25T13:49:29.001Z</time></trkpt><trkpt lat="45.848809352597826" lon="8.826358525736707"><ele>417.0</ele><time>2026-04-25T13:49:30.001Z</time></trkpt><trkpt lat="45.848694177511064" lon="8.826269946931784"><ele>417.0</ele><time>2026-04-25T13:49:31.001Z</time></trkpt><trkpt lat="45.84859252668834" lon="8.826185658909314"><ele>417.0</ele><time>2026-04-25T13:49:32.001Z</time></trkpt><trkpt lat="45.84850750899158" lon="8.826109505382544"><ele>417.0</ele><time>2026-04-25T13:49:33.001Z</time></trkpt><trkpt lat="45.84842179197591" lon="8.826028593870795"><ele>417.0</ele><time>2026-04-25T13:49:34.001Z</time></trkpt><trkpt lat="45.84831046768822" lon="8.825910964003189"><ele>414.25</ele><time>2026-04-25T13:49:35.001Z</time></trkpt><trkpt lat="45.848190682401594" lon="8.8257685190333"><ele>411.5</ele><time>2026-04-25T13:49:36.001Z</time></trkpt><trkpt lat="45.84808431066579" lon="8.825636590111834"><ele>408.75</ele><time>2026-04-25T13:49:37.001Z</time></trkpt><trkpt lat="45.84799265955092" lon="8.825522918610188"><ele>406.0</ele><time>2026-04-25T13:49:38.001Z</time></trkpt><trkpt lat="45.8479008843705" lon="8.825421152648936"><ele>406.0</ele><time>2026-04-25T13:49:39.001Z</time></trkpt><trkpt lat="45.84780660499448" lon="8.825317663906581"><ele>406.0</ele><time>2026-04-25T13:49:40.001Z</time></trkpt><trkpt lat="45.84770482450971" lon="8.825222631625614"><ele>406.0</ele><time>2026-04-25T13:49:41.001Z</time></trkpt><trkpt lat="45.8476001857387" lon="8.825179077482984"><ele>406.0</ele><time>2026-04-25T13:49:42.001Z</time></trkpt><trkpt lat="45.84751079800921" lon="8.825140701921475"><ele>406.0</ele><time>2026-04-25T13:49:43.001Z</time></trkpt><trkpt lat="45.84742009594097" lon="8.825134742137614"><ele>407.8</ele><time>2026-04-25T13:49:44.001Z</time></trkpt><trkpt lat="45.84732544462333" lon="8.825157769927932"><ele>409.6</ele><time>2026-04-25T13:49:45.001Z</time></trkpt><trkpt lat="45.84723512594088" lon="8.825221984972062"><ele>411.4</ele><time>2026-04-25T13:49:46.001Z</time></trkpt><trkpt lat="45.84716013157357" lon="8.825317926295048"><ele>413.2</ele><time>2026-04-25T13:49:47.001Z</time></trkpt><trkpt lat="45.84710933887279" lon="8.825442904780711"><ele>415.0</ele><time>2026-04-25T13:49:48.001Z</time></trkpt><trkpt lat="45.847076769460415" lon="8.825584496615802"><ele>415.0</ele><time>2026-04-25T13:49:49.001Z</time></trkpt><trkpt lat="45.8470590089099" lon="8.82573807121399"><ele>415.0</ele><time>2026-04-25T13:49:50.001Z</time></trkpt><trkpt lat="45.847054498519434" lon="8.825908742046057"><ele>415.0</ele><time>2026-04-25T13:49:51.001Z</time></trkpt><trkpt lat="45.847060145461185" lon="8.826089769151812"><ele>415.0</ele><time>2026-04-25T13:49:52.001Z</time></trkpt><trkpt lat="45.84705642880671" lon="8.826270947314141"><ele>414.75</ele><time>2026-04-25T13:49:53.001Z</time></trkpt><trkpt lat="45.84702032457904" lon="8.826445593413528"><ele>414.5</ele><time>2026-04-25T13:49:54.001Z</time></trkpt><trkpt lat="45.84695927923546" lon="8.826606693797835"><ele>414.25</ele><time>2026-04-25T13:49:55.001Z</time></trkpt><trkpt lat="45.846892077861575" lon="8.826756276702238"><ele>414.0</ele><time>2026-04-25T13:49:56.001Z</time></trkpt><trkpt lat="45.846828382102224" lon="8.826889742860674"><ele>411.79999999999995</ele><time>2026-04-25T13:49:57.001Z</time></trkpt><trkpt lat="45.84677290503008" lon="8.827020260393665"><ele>409.59999999999997</ele><time>2026-04-25T13:49:58.001Z</time></trkpt><trkpt lat="45.846722339007655" lon="8.827132391234024"><ele>407.4</ele><time>2026-04-25T13:49:59.001Z</time></trkpt><trkpt lat="45.84666657007419" lon="8.82723539001259"><ele>405.2</ele><time>2026-04-25T13:50:00.001Z</time></trkpt><trkpt lat="45.846605229601735" lon="8.827324495491352"><ele>403.0</ele><time>2026-04-25T13:50:01.001Z</time></trkpt><trkpt lat="45.84654155196562" lon="8.827400249262025"><ele>403.00000000000006</ele><time>2026-04-25T13:50:02.001Z</time></trkpt><trkpt lat="45.846476224628965" lon="8.827471146441098"><ele>403.0</ele><time>2026-04-25T13:50:03.001Z</time></trkpt><trkpt lat="45.846408765288786" lon="8.827540358510507"><ele>403.0</ele><time>2026-04-25T13:50:04.001Z</time></trkpt><trkpt lat="45.84634896022432" lon="8.827593078197705"><ele>403.0</ele><time>2026-04-25T13:50:05.001Z</time></trkpt><trkpt lat="45.846263927212874" lon="8.82766096889473"><ele>403.00000000000006</ele><time>2026-04-25T13:50:07.001Z</time></trkpt><trkpt lat="45.84620654721016" lon="8.827703999268797"><ele>403.0</ele><time>2026-04-25T13:50:09.001Z</time></trkpt><trkpt lat="45.84614322155063" lon="8.8277509123639"><ele>403.00000000000006</ele><time>2026-04-25T13:50:11.001Z</time></trkpt><trkpt lat="45.84607213241633" lon="8.827805640490121"><ele>403.0</ele><time>2026-04-25T13:50:13.001Z</time></trkpt><trkpt lat="45.84598187322179" lon="8.82788376380937"><ele>403.0</ele><time>2026-04-25T13:50:15.001Z</time></trkpt><trkpt lat="45.84592340972586" lon="8.82793140585962"><ele>403.0</ele><time>2026-04-25T13:50:16.001Z</time></trkpt><trkpt lat="45.84586157088855" lon="8.827981683820612"><ele>403.00000000000006</ele><time>2026-04-25T13:50:17.001Z</time></trkpt><trkpt lat="45.84580420345619" lon="8.828029303181415"><ele>403.0</ele><time>2026-04-25T13:50:18.001Z</time></trkpt><trkpt lat="45.845702375411996" lon="8.82811939449172"><ele>402.33333333333337</ele><time>2026-04-25T13:50:20.001Z</time></trkpt><trkpt lat="45.845589121746706" lon="8.82820205773301"><ele>401.6666666666667</ele><time>2026-04-25T13:50:22.001Z</time></trkpt><trkpt lat="45.84552650030022" lon="8.828238484217824"><ele>401.0</ele><time>2026-04-25T13:50:23.001Z</time></trkpt><trkpt lat="45.84546147292355" lon="8.828268990585661"><ele>400.33333333333337</ele><time>2026-04-25T13:50:24.001Z</time></trkpt><trkpt lat="45.845392524446495" lon="8.82828271848227"><ele>399.6666666666667</ele><time>2026-04-25T13:50:25.001Z</time></trkpt><trkpt lat="45.84532195569037" lon="8.828281039872031"><ele>399.0</ele><time>2026-04-25T13:50:26.001Z</time></trkpt><trkpt lat="45.845210799138165" lon="8.82825343116491"><ele>398.5</ele><time>2026-04-25T13:50:28.001Z</time></trkpt><trkpt lat="45.845093447925116" lon="8.828196037503174"><ele>398.0</ele><time>2026-04-25T13:50:30.001Z</time></trkpt><trkpt lat="45.84500954807568" lon="8.828107309657108"><ele>397.5</ele><time>2026-04-25T13:50:31.001Z</time></trkpt><trkpt lat="45.84488201731817" lon="8.828040632603187"><ele>397.0</ele><time>2026-04-25T13:50:32.001Z</time></trkpt><trkpt lat="45.844755614163276" lon="8.827977872952854"><ele>397.0</ele><time>2026-04-25T13:50:33.001Z</time></trkpt><trkpt lat="45.84462646967332" lon="8.827913229705183"><ele>397.0</ele><time>2026-04-25T13:50:34.001Z</time></trkpt><trkpt lat="45.84449428575928" lon="8.82784280743468"><ele>397.0</ele><time>2026-04-25T13:50:35.001Z</time></trkpt><trkpt lat="45.844377278622154" lon="8.827768301176453"><ele>397.0</ele><time>2026-04-25T13:50:36.001Z</time></trkpt><trkpt lat="45.844259067240486" lon="8.827668502823853"><ele>393.6666666666667</ele><time>2026-04-25T13:50:37.001Z</time></trkpt><trkpt lat="45.84412111972027" lon="8.827526484478843"><ele>390.33333333333337</ele><time>2026-04-25T13:50:38.001Z</time></trkpt><trkpt lat="45.843954830514754" lon="8.827349880826626"><ele>387.0</ele><time>2026-04-25T13:50:39.001Z</time></trkpt><trkpt lat="45.84378163524279" lon="8.827165831510356"><ele>387.0</ele><time>2026-04-25T13:50:40.001Z</time></trkpt><trkpt lat="45.84363463142383" lon="8.82700961585382"><ele>387.0</ele><time>2026-04-25T13:50:41.001Z</time></trkpt><trkpt lat="45.84349472521597" lon="8.826885437620787"><ele>387.0</ele><time>2026-04-25T13:50:42.001Z</time></trkpt><trkpt lat="45.84336700259065" lon="8.82674531544573"><ele>387.5</ele><time>2026-04-25T13:50:43.001Z</time></trkpt><trkpt lat="45.84326242331157" lon="8.826593303921234"><ele>388.0</ele><time>2026-04-25T13:50:44.001Z</time></trkpt><trkpt lat="45.84317119707725" lon="8.82644816482594"><ele>388.5</ele><time>2026-04-25T13:50:45.001Z</time></trkpt><trkpt lat="45.84308452914641" lon="8.826300272453116"><ele>389.0</ele><time>2026-04-25T13:50:46.001Z</time></trkpt><trkpt lat="45.84302650774133" lon="8.82613929125942"><ele>386.25</ele><time>2026-04-25T13:50:47.001Z</time></trkpt><trkpt lat="45.84298113897273" lon="8.82597118613934"><ele>383.5</ele><time>2026-04-25T13:50:48.001Z</time></trkpt><trkpt lat="45.84292250677015" lon="8.825793512119791"><ele>380.75</ele><time>2026-04-25T13:50:49.001Z</time></trkpt><trkpt lat="45.842869919314744" lon="8.825602907986063"><ele>378.0</ele><time>2026-04-25T13:50:50.001Z</time></trkpt><trkpt lat="45.842810945851895" lon="8.825434380313226"><ele>378.0</ele><time>2026-04-25T13:50:51.001Z</time></trkpt><trkpt lat="45.84275109113255" lon="8.825276698637845"><ele>378.0</ele><time>2026-04-25T13:50:52.001Z</time></trkpt><trkpt lat="45.842677887422084" lon="8.825122894226517"><ele>378.0</ele><time>2026-04-25T13:50:53.001Z</time></trkpt><trkpt lat="45.842603032076575" lon="8.824962640674125"><ele>378.0</ele><time>2026-04-25T13:50:54.001Z</time></trkpt><trkpt lat="45.842520601146106" lon="8.824799946863608"><ele>377.0</ele><time>2026-04-25T13:50:55.001Z</time></trkpt><trkpt lat="45.842432078930536" lon="8.824642257916134"><ele>376.0</ele><time>2026-04-25T13:50:56.001Z</time></trkpt><trkpt lat="45.84234426573264" lon="8.824501655207333"><ele>375.0</ele><time>2026-04-25T13:50:57.001Z</time></trkpt><trkpt lat="45.84225367552201" lon="8.82439068747048"><ele>374.0</ele><time>2026-04-25T13:50:58.001Z</time></trkpt><trkpt lat="45.84215695039002" lon="8.824303015719686"><ele>374.0</ele><time>2026-04-25T13:50:59.001Z</time></trkpt><trkpt lat="45.84205666447628" lon="8.824241797948492"><ele>374.0</ele><time>2026-04-25T13:51:00.001Z</time></trkpt><trkpt lat="45.841942921601756" lon="8.824224980811854"><ele>374.0</ele><time>2026-04-25T13:51:01.001Z</time></trkpt><trkpt lat="45.841816500006345" lon="8.824268837620451"><ele>374.0</ele><time>2026-04-25T13:51:02.001Z</time></trkpt><trkpt lat="45.84169800553888" lon="8.824341003729543"><ele>375.75</ele><time>2026-04-25T13:51:03.001Z</time></trkpt><trkpt lat="45.84158949163424" lon="8.82443461263651"><ele>377.5</ele><time>2026-04-25T13:51:04.001Z</time></trkpt><trkpt lat="45.841467073846815" lon="8.82451757861979"><ele>379.25</ele><time>2026-04-25T13:51:05.001Z</time></trkpt><trkpt lat="45.84136499221868" lon="8.824618028590981"><ele>381.0</ele><time>2026-04-25T13:51:06.001Z</time></trkpt><trkpt lat="45.84123454355369" lon="8.824711506294383"><ele>381.0</ele><time>2026-04-25T13:51:07.001Z</time></trkpt><trkpt lat="45.841119146389524" lon="8.824818078341776"><ele>381.0</ele><time>2026-04-25T13:51:08.001Z</time></trkpt><trkpt lat="45.84100901776036" lon="8.824914507929035"><ele>381.0</ele><time>2026-04-25T13:51:09.001Z</time></trkpt><trkpt lat="45.8408964996748" lon="8.825003835101953"><ele>381.0</ele><time>2026-04-25T13:51:10.001Z</time></trkpt><trkpt lat="45.84079662689584" lon="8.825089247662063"><ele>377.6666666666667</ele><time>2026-04-25T13:51:11.001Z</time></trkpt><trkpt lat="45.840685567606656" lon="8.825184227042474"><ele>374.33333333333337</ele><time>2026-04-25T13:51:12.001Z</time></trkpt><trkpt lat="45.84057225218774" lon="8.825281136724785"><ele>371.0</ele><time>2026-04-25T13:51:13.001Z</time></trkpt><trkpt lat="45.840408844942054" lon="8.825416600907898"><ele>371.0</ele><time>2026-04-25T13:51:14.001Z</time></trkpt><trkpt lat="45.840290417153184" lon="8.825538911692401"><ele>371.0</ele><time>2026-04-25T13:51:15.001Z</time></trkpt><trkpt lat="45.84018084741257" lon="8.825626187717134"><ele>371.0</ele><time>2026-04-25T13:51:16.001Z</time></trkpt><trkpt lat="45.84006260118709" lon="8.82572170881149"><ele>371.0</ele><time>2026-04-25T13:51:17.001Z</time></trkpt><trkpt lat="45.8399428870154" lon="8.825817455635537"><ele>370.0</ele><time>2026-04-25T13:51:18.001Z</time></trkpt><trkpt lat="45.839836909660896" lon="8.825919188172742"><ele>369.0</ele><time>2026-04-25T13:51:19.001Z</time></trkpt><trkpt lat="45.839741832294735" lon="8.825989736511094"><ele>368.0</ele><time>2026-04-25T13:51:20.001Z</time></trkpt><trkpt lat="45.83965510184964" lon="8.826080671555982"><ele>367.0</ele><time>2026-04-25T13:51:21.001Z</time></trkpt><trkpt lat="45.83954452634059" lon="8.826209702377826"><ele>367.0</ele><time>2026-04-25T13:51:22.001Z</time></trkpt><trkpt lat="45.83943228770042" lon="8.826381528274693"><ele>367.0</ele><time>2026-04-25T13:51:23.001Z</time></trkpt><trkpt lat="45.83931726770494" lon="8.826525278592685"><ele>367.0</ele><time>2026-04-25T13:51:24.001Z</time></trkpt><trkpt lat="45.83922266167404" lon="8.826646767248974"><ele>367.0</ele><time>2026-04-25T13:51:25.001Z</time></trkpt><trkpt lat="45.83914406206813" lon="8.82674496954292"><ele>366.8333333333333</ele><time>2026-04-25T13:51:26.001Z</time></trkpt><trkpt lat="45.839075387740785" lon="8.826828909973486"><ele>366.66666666666663</ele><time>2026-04-25T13:51:27.001Z</time></trkpt><trkpt lat="45.83901512403286" lon="8.826910236494516"><ele>366.5</ele><time>2026-04-25T13:51:28.001Z</time></trkpt><trkpt lat="45.83896700642356" lon="8.82698691817346"><ele>366.3333333333333</ele><time>2026-04-25T13:51:29.001Z</time></trkpt><trkpt lat="45.838926330045425" lon="8.827055920627624"><ele>366.1666666666667</ele><time>2026-04-25T13:51:30.001Z</time></trkpt><trkpt lat="45.83886149410436" lon="8.827184006064206"><ele>366.0</ele><time>2026-04-25T13:51:32.001Z</time></trkpt><trkpt lat="45.838788396942086" lon="8.827303772272682"><ele>366.0</ele><time>2026-04-25T13:51:34.001Z</time></trkpt><trkpt lat="45.83871479005046" lon="8.827408159665216"><ele>366.0</ele><time>2026-04-25T13:51:35.001Z</time></trkpt><trkpt lat="45.838602195600444" lon="8.827547329388517"><ele>366.0</ele><time>2026-04-25T13:51:36.001Z</time></trkpt><trkpt lat="45.83847344845651" lon="8.827720271526932"><ele>366.0</ele><time>2026-04-25T13:51:37.001Z</time></trkpt><trkpt lat="45.838341779494705" lon="8.827923885690822"><ele>364.3333333333333</ele><time>2026-04-25T13:51:38.001Z</time></trkpt><trkpt lat="45.83821568364546" lon="8.828134694912654"><ele>362.66666666666663</ele><time>2026-04-25T13:51:39.001Z</time></trkpt><trkpt lat="45.83805336378114" lon="8.828358562099158"><ele>361.0</ele><time>2026-04-25T13:51:40.001Z</time></trkpt><trkpt lat="45.837900287371646" lon="8.828628779908067"><ele>361.0</ele><time>2026-04-25T13:51:41.001Z</time></trkpt><trkpt lat="45.837755203841425" lon="8.828860919704107"><ele>361.0</ele><time>2026-04-25T13:51:42.001Z</time></trkpt><trkpt lat="45.83762633033953" lon="8.829072274076484"><ele>361.0</ele><time>2026-04-25T13:51:43.001Z</time></trkpt><trkpt lat="45.83750967397829" lon="8.829267819278867"><ele>364.3333333333333</ele><time>2026-04-25T13:51:44.001Z</time></trkpt><trkpt lat="45.837401179323805" lon="8.829454091036059"><ele>367.6666666666667</ele><time>2026-04-25T13:51:45.001Z</time></trkpt><trkpt lat="45.837287756285434" lon="8.829651133364171"><ele>371.0</ele><time>2026-04-25T13:51:46.001Z</time></trkpt><trkpt lat="45.837163761295145" lon="8.829860171834413"><ele>371.0</ele><time>2026-04-25T13:51:47.001Z</time></trkpt><trkpt lat="45.8370476748009" lon="8.830065177535237"><ele>371.0</ele><time>2026-04-25T13:51:48.001Z</time></trkpt><trkpt lat="45.836930838735704" lon="8.830261703753537"><ele>371.0</ele><time>2026-04-25T13:51:49.001Z</time></trkpt><trkpt lat="45.83681801433513" lon="8.830447486722912"><ele>373.33333333333337</ele><time>2026-04-25T13:51:50.001Z</time></trkpt><trkpt lat="45.83670151385743" lon="8.830632372221363"><ele>375.6666666666667</ele><time>2026-04-25T13:51:51.001Z</time></trkpt><trkpt lat="45.83655572771022" lon="8.830781036159728"><ele>378.0</ele><time>2026-04-25T13:51:52.001Z</time></trkpt><trkpt lat="45.83641018990121" lon="8.830928696224523"><ele>374.6666666666667</ele><time>2026-04-25T13:51:53.001Z</time></trkpt><trkpt lat="45.836269647609804" lon="8.831086520132875"><ele>371.33333333333337</ele><time>2026-04-25T13:51:54.001Z</time></trkpt><trkpt lat="45.83614075304779" lon="8.831213408788543"><ele>368.0</ele><time>2026-04-25T13:51:55.001Z</time></trkpt><trkpt lat="45.83603177223172" lon="8.83135005078423"><ele>369.5</ele><time>2026-04-25T13:51:56.001Z</time></trkpt><trkpt lat="45.835943177057494" lon="8.831485569315094"><ele>371.0</ele><time>2026-04-25T13:51:57.001Z</time></trkpt><trkpt lat="45.835875556868544" lon="8.83162455490522"><ele>372.5</ele><time>2026-04-25T13:51:58.001Z</time></trkpt><trkpt lat="45.83580335221999" lon="8.831765625466947"><ele>374.0</ele><time>2026-04-25T13:51:59.001Z</time></trkpt><trkpt lat="45.83572227360011" lon="8.831917039858896"><ele>374.0</ele><time>2026-04-25T13:52:00.001Z</time></trkpt><trkpt lat="45.83563870441915" lon="8.83206553084984"><ele>374.0</ele><time>2026-04-25T13:52:01.001Z</time></trkpt><trkpt lat="45.8355595014347" lon="8.832205529996177"><ele>374.0</ele><time>2026-04-25T13:52:02.001Z</time></trkpt><trkpt lat="45.835465372983045" lon="8.832369090536957"><ele>374.0</ele><time>2026-04-25T13:52:03.001Z</time></trkpt><trkpt lat="45.835357066739306" lon="8.832562860353251"><ele>373.33333333333337</ele><time>2026-04-25T13:52:04.001Z</time></trkpt><trkpt lat="45.83523009286282" lon="8.832800907367258"><ele>372.6666666666667</ele><time>2026-04-25T13:52:05.001Z</time></trkpt><trkpt lat="45.83513231872047" lon="8.833009658554818"><ele>372.0</ele><time>2026-04-25T13:52:06.001Z</time></trkpt><trkpt lat="45.8350481542773" lon="8.8332305634989"><ele>375.3333333333333</ele><time>2026-04-25T13:52:07.001Z</time></trkpt><trkpt lat="45.834973789511515" lon="8.833495986472478"><ele>378.66666666666663</ele><time>2026-04-25T13:52:08.001Z</time></trkpt><trkpt lat="45.83491298197897" lon="8.833713540395628"><ele>382.0</ele><time>2026-04-25T13:52:09.001Z</time></trkpt><trkpt lat="45.83485453477483" lon="8.833902289210837"><ele>382.0</ele><time>2026-04-25T13:52:10.001Z</time></trkpt><trkpt lat="45.83478063497306" lon="8.834050500577167"><ele>382.0</ele><time>2026-04-25T13:52:11.001Z</time></trkpt><trkpt lat="45.83470316067971" lon="8.834157437184597"><ele>382.0</ele><time>2026-04-25T13:52:12.001Z</time></trkpt><trkpt lat="45.834627033339245" lon="8.834296305492627"><ele>382.0</ele><time>2026-04-25T13:52:13.001Z</time></trkpt><trkpt lat="45.83448568746413" lon="8.83430760595883"><ele>381.66666666666663</ele><time>2026-04-25T13:52:14.001Z</time></trkpt><trkpt lat="45.83433425496016" lon="8.834333208814718"><ele>381.3333333333333</ele><time>2026-04-25T13:52:15.001Z</time></trkpt><trkpt lat="45.83413937781629" lon="8.834346476406886"><ele>381.0</ele><time>2026-04-25T13:52:16.001Z</time></trkpt><trkpt lat="45.83395229528516" lon="8.83436676067094"><ele>384.0</ele><time>2026-04-25T13:52:17.001Z</time></trkpt><trkpt lat="45.833791479643324" lon="8.834385033812255"><ele>387.0</ele><time>2026-04-25T13:52:18.001Z</time></trkpt><trkpt lat="45.833661443903075" lon="8.834399408615958"><ele>390.0</ele><time>2026-04-25T13:52:19Z</time></trkpt><trkpt lat="45.83353372480142" lon="8.834412727261407"><ele>393.0</ele><time>2026-04-25T13:52:20Z</time></trkpt><trkpt lat="45.83342240406697" lon="8.834423488921859"><ele>393.0</ele><time>2026-04-25T13:52:21Z</time></trkpt><trkpt lat="45.83331324480317" lon="8.834433549505388"><ele>393.0</ele><time>2026-04-25T13:52:22Z</time></trkpt><trkpt lat="45.83320858547503" lon="8.834442745511716"><ele>393.0</ele><time>2026-04-25T13:52:23Z</time></trkpt><trkpt lat="45.83312200003002" lon="8.834449732370182"><ele>393.0</ele><time>2026-04-25T13:52:24Z</time></trkpt><trkpt lat="45.833017577427114" lon="8.834458475314689"><ele>393.0</ele><time>2026-04-25T13:52:25Z</time></trkpt><trkpt lat="45.83292009526169" lon="8.834483561580981"><ele>393.0</ele><time>2026-04-25T13:52:26Z</time></trkpt><trkpt lat="45.83281801273693" lon="8.834487608039053"><ele>393.0</ele><time>2026-04-25T13:52:27Z</time></trkpt><trkpt lat="45.83271729473703" lon="8.834495596944972"><ele>393.0</ele><time>2026-04-25T13:52:28Z</time></trkpt><trkpt lat="45.83262827228776" lon="8.834509653702693"><ele>393.0</ele><time>2026-04-25T13:52:29Z</time></trkpt><trkpt lat="45.83252689504617" lon="8.834525324591198"><ele>393.0</ele><time>2026-04-25T13:52:30Z</time></trkpt><trkpt lat="45.83242014635699" lon="8.83454739882753"><ele>392.79999999999995</ele><time>2026-04-25T13:52:31Z</time></trkpt><trkpt lat="45.832313727066484" lon="8.834560775504409"><ele>392.6</ele><time>2026-04-25T13:52:32.001Z</time></trkpt><trkpt lat="45.832200732791925" lon="8.834576656922831"><ele>392.4</ele><time>2026-04-25T13:52:33.001Z</time></trkpt><trkpt lat="45.832086793546175" lon="8.834582099697942"><ele>392.20000000000005</ele><time>2026-04-25T13:52:34.001Z</time></trkpt><trkpt lat="45.83198362601891" lon="8.834598140017283"><ele>392.0</ele><time>2026-04-25T13:52:35.001Z</time></trkpt><trkpt lat="45.831886514168204" lon="8.834593974851805"><ele>391.75</ele><time>2026-04-25T13:52:36.001Z</time></trkpt><trkpt lat="45.8317865823484" lon="8.834605483990135"><ele>391.5</ele><time>2026-04-25T13:52:37.001Z</time></trkpt><trkpt lat="45.83166495791453" lon="8.834619988605018"><ele>391.25</ele><time>2026-04-25T13:52:38.001Z</time></trkpt><trkpt lat="45.83153656639437" lon="8.834635524447236"><ele>391.0</ele><time>2026-04-25T13:52:39.001Z</time></trkpt><trkpt lat="45.831400852762336" lon="8.834649556119645"><ele>391.0</ele><time>2026-04-25T13:52:40.001Z</time></trkpt><trkpt lat="45.83128228768669" lon="8.834681103636056"><ele>391.0</ele><time>2026-04-25T13:52:41.001Z</time></trkpt><trkpt lat="45.83118179220772" lon="8.834682802204359"><ele>391.0</ele><time>2026-04-25T13:52:42.001Z</time></trkpt><trkpt lat="45.8310853174968" lon="8.834692682845683"><ele>391.0</ele><time>2026-04-25T13:52:43.001Z</time></trkpt><trkpt lat="45.83099654040929" lon="8.834708468458293"><ele>391.0</ele><time>2026-04-25T13:52:44.001Z</time></trkpt><trkpt lat="45.8309185276882" lon="8.834718394304012"><ele>390.8</ele><time>2026-04-25T13:52:45.001Z</time></trkpt><trkpt lat="45.83085315378582" lon="8.834718686455238"><ele>390.6</ele><time>2026-04-25T13:52:46.001Z</time></trkpt><trkpt lat="45.83078979019033" lon="8.834717472508293"><ele>390.4</ele><time>2026-04-25T13:52:49.001Z</time></trkpt><trkpt lat="45.83069585965279" lon="8.834686185107703"><ele>390.2</ele><time>2026-04-25T13:52:53.001Z</time></trkpt><trkpt lat="45.830580240271914" lon="8.83462969992612"><ele>390.0</ele><time>2026-04-25T13:52:55.001Z</time></trkpt><trkpt lat="45.83046187416959" lon="8.834700571724396"><ele>390.0</ele><time>2026-04-25T13:52:57.001Z</time></trkpt><trkpt lat="45.83040335338796" lon="8.834739789385107"><ele>390.0</ele><time>2026-04-25T13:52:58.001Z</time></trkpt><trkpt lat="45.830290555733484" lon="8.834751839861145"><ele>390.0</ele><time>2026-04-25T13:52:59.001Z</time></trkpt><trkpt lat="45.83013950022067" lon="8.834769095498967"><ele>390.0</ele><time>2026-04-25T13:53:00.001Z</time></trkpt><trkpt lat="45.829971820598175" lon="8.834788547801535"><ele>390.0</ele><time>2026-04-25T13:53:01.001Z</time></trkpt><trkpt lat="45.82982889788842" lon="8.83482051960184"><ele>390.0</ele><time>2026-04-25T13:53:02.001Z</time></trkpt><trkpt lat="45.82970481868536" lon="8.834833962594303"><ele>390.0</ele><time>2026-04-25T13:53:03.001Z</time></trkpt><trkpt lat="45.829557863869844" lon="8.83485092532171"><ele>390.0</ele><time>2026-04-25T13:53:04.001Z</time></trkpt><trkpt lat="45.82945690928444" lon="8.834828918654207"><ele>390.0</ele><time>2026-04-25T13:53:05.001Z</time></trkpt><trkpt lat="45.82939307011746" lon="8.834876804140679"><ele>390.0</ele><time>2026-04-25T13:53:10.001Z</time></trkpt><trkpt lat="45.82929579222432" lon="8.83486661751846"><ele>390.0</ele><time>2026-04-25T13:53:11.001Z</time></trkpt><trkpt lat="45.829125337913105" lon="8.834908338355806"><ele>390.0</ele><time>2026-04-25T13:53:12.001Z</time></trkpt><trkpt lat="45.828945884533276" lon="8.834930578238064"><ele>389.66666666666663</ele><time>2026-04-25T13:53:13.001Z</time></trkpt><trkpt lat="45.8287589296201" lon="8.834954029903507"><ele>389.3333333333333</ele><time>2026-04-25T13:53:14.001Z</time></trkpt><trkpt lat="45.82854835959822" lon="8.83497634500684"><ele>389.0</ele><time>2026-04-25T13:53:15.001Z</time></trkpt><trkpt lat="45.82833925874253" lon="8.835004587950893"><ele>389.0</ele><time>2026-04-25T13:53:16.001Z</time></trkpt><trkpt lat="45.82813529853116" lon="8.835027090984022"><ele>389.0</ele><time>2026-04-25T13:53:17.001Z</time></trkpt><trkpt lat="45.82794353541522" lon="8.835047703965982"><ele>389.0</ele><time>2026-04-25T13:53:18.001Z</time></trkpt><trkpt lat="45.82777134467079" lon="8.835067109244562"><ele>388.75</ele><time>2026-04-25T13:53:19.001Z</time></trkpt><trkpt lat="45.827615203181246" lon="8.83508303567355"><ele>388.5</ele><time>2026-04-25T13:53:20.001Z</time></trkpt><trkpt lat="45.827463338265616" lon="8.835097426050886"><ele>388.25</ele><time>2026-04-25T13:53:21.001Z</time></trkpt><trkpt lat="45.827330457318666" lon="8.835085018949496"><ele>388.0</ele><time>2026-04-25T13:53:22.001Z</time></trkpt><trkpt lat="45.82720624377065" lon="8.835119708021834"><ele>388.0</ele><time>2026-04-25T13:53:23.001Z</time></trkpt><trkpt lat="45.82709073670772" lon="8.835131749224493"><ele>388.0</ele><time>2026-04-25T13:53:24.001Z</time></trkpt><trkpt lat="45.826980145095376" lon="8.835146511724659"><ele>388.0</ele><time>2026-04-25T13:53:25.001Z</time></trkpt><trkpt lat="45.82685741954601" lon="8.835155329864085"><ele>388.0</ele><time>2026-04-25T13:53:26.001Z</time></trkpt><trkpt lat="45.826727729091004" lon="8.83517136983114"><ele>387.0</ele><time>2026-04-25T13:53:27.001Z</time></trkpt><trkpt lat="45.82659075704035" lon="8.835185020000635"><ele>386.0</ele><time>2026-04-25T13:53:28.001Z</time></trkpt><trkpt lat="45.82647340990609" lon="8.83518164093643"><ele>385.0</ele><time>2026-04-25T13:53:29.001Z</time></trkpt><trkpt lat="45.82636973120249" lon="8.835211374433749"><ele>384.0</ele><time>2026-04-25T13:53:30.001Z</time></trkpt><trkpt lat="45.826286059791876" lon="8.835223964360601"><ele>383.0</ele><time>2026-04-25T13:53:31.001Z</time></trkpt><trkpt lat="45.82621926307675" lon="8.835211225422196"><ele>383.0</ele><time>2026-04-25T13:53:32.001Z</time></trkpt><trkpt lat="45.82613331004896" lon="8.835221230962304"><ele>383.0</ele><time>2026-04-25T13:53:34.001Z</time></trkpt><trkpt lat="45.82606445948108" lon="8.835228048929771"><ele>383.0</ele><time>2026-04-25T13:53:37.001Z</time></trkpt><trkpt lat="45.825955075127574" lon="8.835236874136701"><ele>383.0</ele><time>2026-04-25T13:54:37Z</time></trkpt><trkpt lat="45.82585891848093" lon="8.835241337229695"><ele>383.0</ele><time>2026-04-25T13:54:38.001Z</time></trkpt><trkpt lat="45.82573594660831" lon="8.835244197050418"><ele>382.75</ele><time>2026-04-25T13:54:39.001Z</time></trkpt><trkpt lat="45.82561689353151" lon="8.835267656922941"><ele>382.5</ele><time>2026-04-25T13:54:40.001Z</time></trkpt><trkpt lat="45.825502389031094" lon="8.835266150564687"><ele>382.25</ele><time>2026-04-25T13:54:41.001Z</time></trkpt><trkpt lat="45.825379812628896" lon="8.835271384056284"><ele>382.0</ele><time>2026-04-25T13:54:42.001Z</time></trkpt><trkpt lat="45.82525600861818" lon="8.83527328041038"><ele>382.5</ele><time>2026-04-25T13:54:43.001Z</time></trkpt><trkpt lat="45.82513769395108" lon="8.835283428849202"><ele>383.0</ele><time>2026-04-25T13:54:44.001Z</time></trkpt><trkpt lat="45.82500287744893" lon="8.835292652326336"><ele>383.5</ele><time>2026-04-25T13:54:45.001Z</time></trkpt><trkpt lat="45.82487062001176" lon="8.835309369172172"><ele>384.0</ele><time>2026-04-25T13:54:46.001Z</time></trkpt><trkpt lat="45.82473395621191" lon="8.835317091787868"><ele>384.0</ele><time>2026-04-25T13:54:47.001Z</time></trkpt><trkpt lat="45.82461736959439" lon="8.835329584472145"><ele>384.0</ele><time>2026-04-25T13:54:48.001Z</time></trkpt><trkpt lat="45.82451057550377" lon="8.835334468884595"><ele>384.0</ele><time>2026-04-25T13:54:49.001Z</time></trkpt><trkpt lat="45.82441931454987" lon="8.83532857155661"><ele>384.0</ele><time>2026-04-25T13:54:50.001Z</time></trkpt><trkpt lat="45.82434201511347" lon="8.835334315984868"><ele>384.0</ele><time>2026-04-25T13:54:51.001Z</time></trkpt><trkpt lat="45.824253695458594" lon="8.835340879209173"><ele>383.79999999999995</ele><time>2026-04-25T13:54:52.001Z</time></trkpt><trkpt lat="45.82415442959776" lon="8.83535339326965"><ele>383.59999999999997</ele><time>2026-04-25T13:54:53.001Z</time></trkpt><trkpt lat="45.82404747779566" lon="8.835366657440925"><ele>383.4</ele><time>2026-04-25T13:54:54.001Z</time></trkpt><trkpt lat="45.823937215612695" lon="8.83537985671346"><ele>383.2</ele><time>2026-04-25T13:54:55.001Z</time></trkpt><trkpt lat="45.823839918192014" lon="8.835408897265818"><ele>383.0</ele><time>2026-04-25T13:54:56.001Z</time></trkpt><trkpt lat="45.82374664428664" lon="8.835399631909057"><ele>383.0</ele><time>2026-04-25T13:54:57.001Z</time></trkpt><trkpt lat="45.82366406817236" lon="8.83542823341613"><ele>383.0</ele><time>2026-04-25T13:54:58.001Z</time></trkpt><trkpt lat="45.82358457064508" lon="8.835435044852128"><ele>383.0</ele><time>2026-04-25T13:54:59.001Z</time></trkpt><trkpt lat="45.823515116484955" lon="8.835433302700087"><ele>383.0</ele><time>2026-04-25T13:55:00.001Z</time></trkpt><trkpt lat="45.82341750303756" lon="8.835444906510073"><ele>383.0</ele><time>2026-04-25T13:55:02.001Z</time></trkpt><trkpt lat="45.82334714822814" lon="8.835453094024842"><ele>383.0</ele><time>2026-04-25T13:55:04.001Z</time></trkpt><trkpt lat="45.82326310397395" lon="8.835441856977306"><ele>383.2</ele><time>2026-04-25T13:55:43Z</time></trkpt><trkpt lat="45.82314864693527" lon="8.835443893981443"><ele>383.4</ele><time>2026-04-25T13:55:45Z</time></trkpt><trkpt lat="45.823018284068034" lon="8.83544389398201"><ele>383.59999999999997</ele><time>2026-04-25T13:55:47Z</time></trkpt><trkpt lat="45.82293767602458" lon="8.835443893981802"><ele>383.79999999999995</ele><time>2026-04-25T13:55:48Z</time></trkpt><trkpt lat="45.822845625559886" lon="8.835512564464764"><ele>384.0</ele><time>2026-04-25T13:55:49Z</time></trkpt><trkpt lat="45.82274339226593" lon="8.835496810292417"><ele>383.5</ele><time>2026-04-25T13:55:50Z</time></trkpt><trkpt lat="45.82263404958942" lon="8.835474542276373"><ele>383.0</ele><time>2026-04-25T13:55:51Z</time></trkpt><trkpt lat="45.8225150784265" lon="8.835458175911397"><ele>382.5</ele><time>2026-04-25T13:55:52Z</time></trkpt><trkpt lat="45.82239575572447" lon="8.835453574506559"><ele>382.0</ele><time>2026-04-25T13:55:53Z</time></trkpt><trkpt lat="45.8222852426141" lon="8.835444080068378"><ele>382.0</ele><time>2026-04-25T13:55:54Z</time></trkpt><trkpt lat="45.82218362790502" lon="8.83543230241233"><ele>382.0</ele><time>2026-04-25T13:55:55Z</time></trkpt><trkpt lat="45.82209245874533" lon="8.835414181078038"><ele>382.0</ele><time>2026-04-25T13:55:56Z</time></trkpt><trkpt lat="45.82200946657489" lon="8.835404162984542"><ele>382.0</ele><time>2026-04-25T13:55:57Z</time></trkpt><trkpt lat="45.82193406370876" lon="8.835391482886623"><ele>382.0</ele><time>2026-04-25T13:55:58Z</time></trkpt><trkpt lat="45.8218640772089" lon="8.835374382914898"><ele>382.0</ele><time>2026-04-25T13:55:59Z</time></trkpt><trkpt lat="45.82179756399401" lon="8.835355611124651"><ele>382.6</ele><time>2026-04-25T13:56:00Z</time></trkpt><trkpt lat="45.82167156894032" lon="8.835376654347133"><ele>383.20000000000005</ele><time>2026-04-25T13:56:02Z</time></trkpt><trkpt lat="45.82155164066857" lon="8.835368327344732"><ele>383.8</ele><time>2026-04-25T13:56:04Z</time></trkpt><trkpt lat="45.8214877847111" lon="8.835319504865678"><ele>384.4</ele><time>2026-04-25T13:56:05Z</time></trkpt><trkpt lat="45.82142453063129" lon="8.835314238721285"><ele>385.0</ele><time>2026-04-25T13:56:06Z</time></trkpt><trkpt lat="45.82135525547689" lon="8.835305143057973"><ele>385.00000000000006</ele><time>2026-04-25T13:56:07Z</time></trkpt><trkpt lat="45.8212287230192" lon="8.835318721552358"><ele>385.0</ele><time>2026-04-25T13:56:09Z</time></trkpt><trkpt lat="45.82112925320693" lon="8.835336763300138"><ele>385.0</ele><time>2026-04-25T13:56:11Z</time></trkpt><trkpt lat="45.82106232526259" lon="8.835340953099687"><ele>385.0</ele><time>2026-04-25T13:56:14Z</time></trkpt><trkpt lat="45.820999121142805" lon="8.835388643343347"><ele>385.00000000000006</ele><time>2026-04-25T13:58:33Z</time></trkpt><trkpt lat="45.820916579634336" lon="8.835404363448351"><ele>385.0</ele><time>2026-04-25T13:58:35Z</time></trkpt><trkpt lat="45.82083397484086" lon="8.835421864714075"><ele>384.4</ele><time>2026-04-25T13:58:36Z</time></trkpt><trkpt lat="45.8207231298569" lon="8.83544450106404"><ele>383.8</ele><time>2026-04-25T13:58:37Z</time></trkpt><trkpt lat="45.8206110265911" lon="8.83546830725135"><ele>383.20000000000005</ele><time>2026-04-25T13:58:38Z</time></trkpt><trkpt lat="45.82051707646969" lon="8.835479411646702"><ele>382.6</ele><time>2026-04-25T13:58:39Z</time></trkpt><trkpt lat="45.82043314135994" lon="8.835495792511022"><ele>382.0</ele><time>2026-04-25T13:58:40Z</time></trkpt><trkpt lat="45.82034504715892" lon="8.835509915863888"><ele>382.0</ele><time>2026-04-25T13:58:41Z</time></trkpt><trkpt lat="45.82027210574194" lon="8.83552562065225"><ele>382.0</ele><time>2026-04-25T13:58:42Z</time></trkpt><trkpt lat="45.82019272361676" lon="8.835539245547134"><ele>382.0</ele><time>2026-04-25T13:58:43Z</time></trkpt><trkpt lat="45.82011873458248" lon="8.8355554916178"><ele>382.0</ele><time>2026-04-25T13:58:44Z</time></trkpt><trkpt lat="45.8200489230756" lon="8.835569912084228"><ele>382.0</ele><time>2026-04-25T13:58:45Z</time></trkpt><trkpt lat="45.81994248091442" lon="8.835628843787225"><ele>382.0</ele><time>2026-04-25T13:58:47Z</time></trkpt><trkpt lat="45.8198648684132" lon="8.835563279640244"><ele>381.6</ele><time>2026-04-25T13:58:49.001Z</time></trkpt><trkpt lat="45.81977096901205" lon="8.835503870584077"><ele>381.20000000000005</ele><time>2026-04-25T13:58:51.001Z</time></trkpt><trkpt lat="45.819702866803624" lon="8.835418985531664"><ele>380.8</ele><time>2026-04-25T13:58:52.001Z</time></trkpt><trkpt lat="45.819624931476646" lon="8.835288189956245"><ele>380.4</ele><time>2026-04-25T13:58:53.001Z</time></trkpt><trkpt lat="45.81955672936599" lon="8.835158571517157"><ele>380.0</ele><time>2026-04-25T13:58:54.001Z</time></trkpt><trkpt lat="45.81948887423416" lon="8.83500742078302"><ele>380.0</ele><time>2026-04-25T13:58:55.001Z</time></trkpt><trkpt lat="45.81941766342957" lon="8.834843497306169"><ele>380.0</ele><time>2026-04-25T13:58:56.001Z</time></trkpt><trkpt lat="45.81934447209797" lon="8.834683292961952"><ele>380.0</ele><time>2026-04-25T13:58:57.001Z</time></trkpt><trkpt lat="45.81927324292288" lon="8.834530464987386"><ele>380.0</ele><time>2026-04-25T13:58:58.001Z</time></trkpt><trkpt lat="45.81920677493341" lon="8.834386083897929"><ele>379.2</ele><time>2026-04-25T13:58:59.001Z</time></trkpt><trkpt lat="45.819146036458896" lon="8.834252189011842"><ele>378.4</ele><time>2026-04-25T13:59:00.001Z</time></trkpt><trkpt lat="45.819089312653404" lon="8.834128439371787"><ele>377.6</ele><time>2026-04-25T13:59:01.001Z</time></trkpt><trkpt lat="45.819039090609564" lon="8.834015030980549"><ele>376.8</ele><time>2026-04-25T13:59:02.001Z</time></trkpt><trkpt lat="45.81898376680501" lon="8.833900732230346"><ele>376.0</ele><time>2026-04-25T13:59:03.001Z</time></trkpt><trkpt lat="45.81892811621828" lon="8.833784034460589"><ele>376.0</ele><time>2026-04-25T13:59:04.001Z</time></trkpt><trkpt lat="45.81887339725234" lon="8.833669379042425"><ele>376.0</ele><time>2026-04-25T13:59:05.001Z</time></trkpt><trkpt lat="45.81881913420161" lon="8.833550761524057"><ele>376.0</ele><time>2026-04-25T13:59:06.001Z</time></trkpt><trkpt lat="45.8187650991092" lon="8.83343285396845"><ele>376.0</ele><time>2026-04-25T13:59:07.001Z</time></trkpt><trkpt lat="45.81870956052372" lon="8.833315650505027"><ele>376.0</ele><time>2026-04-25T13:59:08.001Z</time></trkpt><trkpt lat="45.81865581296986" lon="8.833199275697684"><ele>376.3333333333333</ele><time>2026-04-25T13:59:09.001Z</time></trkpt><trkpt lat="45.81860432070466" lon="8.83308379485423"><ele>376.66666666666663</ele><time>2026-04-25T13:59:10.001Z</time></trkpt><trkpt lat="45.81855261885391" lon="8.832969827333455"><ele>377.0</ele><time>2026-04-25T13:59:11.001Z</time></trkpt><trkpt lat="45.81850214104699" lon="8.832858518584409"><ele>377.3333333333333</ele><time>2026-04-25T13:59:12.001Z</time></trkpt><trkpt lat="45.818456570014426" lon="8.832753479136208"><ele>377.6666666666667</ele><time>2026-04-25T13:59:13.001Z</time></trkpt><trkpt lat="45.81842071253032" lon="8.832661569748282"><ele>378.0</ele><time>2026-04-25T13:59:14.001Z</time></trkpt><trkpt lat="45.81837684127285" lon="8.832525882756983"><ele>378.5</ele><time>2026-04-25T13:59:16.001Z</time></trkpt><trkpt lat="45.81830563391423" lon="8.832456831735692"><ele>379.0</ele><time>2026-04-25T13:59:18.001Z</time></trkpt><trkpt lat="45.81821715634918" lon="8.832428747781263"><ele>379.5</ele><time>2026-04-25T13:59:20.001Z</time></trkpt><trkpt lat="45.81815058162894" lon="8.832411271267404"><ele>380.0</ele><time>2026-04-25T13:59:22Z</time></trkpt><trkpt lat="45.818057916366584" lon="8.83238480991323"><ele>380.5</ele><time>2026-04-25T13:59:25Z</time></trkpt><trkpt lat="45.817988969934426" lon="8.832389929436006"><ele>381.0</ele><time>2026-04-25T14:00:02Z</time></trkpt><trkpt lat="45.81790111928677" lon="8.83238497326011"><ele>381.0</ele><time>2026-04-25T14:00:17Z</time></trkpt><trkpt lat="45.81779296574805" lon="8.832373548691024"><ele>381.0</ele><time>2026-04-25T14:00:19Z</time></trkpt><trkpt lat="45.817668692473305" lon="8.832349162922368"><ele>381.0</ele><time>2026-04-25T14:00:21Z</time></trkpt><trkpt lat="45.81758950824457" lon="8.832334521050534"><ele>381.0</ele><time>2026-04-25T14:00:22Z</time></trkpt><trkpt lat="45.81751240173562" lon="8.83232477522328"><ele>381.0</ele><time>2026-04-25T14:00:23Z</time></trkpt><trkpt lat="45.817426247367514" lon="8.832313065829878"><ele>381.0</ele><time>2026-04-25T14:00:24Z</time></trkpt><trkpt lat="45.81733141424411" lon="8.83230387432332"><ele>381.0</ele><time>2026-04-25T14:00:25Z</time></trkpt><trkpt lat="45.817239832785624" lon="8.832295394015617"><ele>381.0</ele><time>2026-04-25T14:00:26Z</time></trkpt><trkpt lat="45.817143827558866" lon="8.832286501515867"><ele>381.0</ele><time>2026-04-25T14:00:27Z</time></trkpt><trkpt lat="45.81704265648943" lon="8.832276177122694"><ele>381.0</ele><time>2026-04-25T14:00:28Z</time></trkpt><trkpt lat="45.81695020780716" lon="8.832266880829577"><ele>381.0</ele><time>2026-04-25T14:00:29Z</time></trkpt><trkpt lat="45.816866258645426" lon="8.832259956513523"><ele>381.0</ele><time>2026-04-25T14:00:30Z</time></trkpt><trkpt lat="45.816787544547765" lon="8.832253667858902"><ele>381.0</ele><time>2026-04-25T14:00:31Z</time></trkpt><trkpt lat="45.81670491691915" lon="8.832246690104697"><ele>381.0</ele><time>2026-04-25T14:00:32Z</time></trkpt><trkpt lat="45.81662895880184" lon="8.832236686578531"><ele>381.0</ele><time>2026-04-25T14:00:33Z</time></trkpt><trkpt lat="45.81655721556976" lon="8.832223967642621"><ele>381.0</ele><time>2026-04-25T14:00:34Z</time></trkpt><trkpt lat="45.81649007884052" lon="8.832210192169702"><ele>381.1666666666667</ele><time>2026-04-25T14:00:35Z</time></trkpt><trkpt lat="45.816378293443805" lon="8.83219450386399"><ele>381.3333333333333</ele><time>2026-04-25T14:00:37Z</time></trkpt><trkpt lat="45.81630219578769" lon="8.832179648555131"><ele>381.5</ele><time>2026-04-25T14:00:39Z</time></trkpt><trkpt lat="45.81623345104214" lon="8.832139979297908"><ele>381.66666666666663</ele><time>2026-04-25T14:00:46Z</time></trkpt><trkpt lat="45.81616612090331" lon="8.832092180426518"><ele>381.8333333333333</ele><time>2026-04-25T14:00:47Z</time></trkpt><trkpt lat="45.81611140039816" lon="8.832024367082248"><ele>382.0</ele><time>2026-04-25T14:00:48Z</time></trkpt><trkpt lat="45.81605041779507" lon="8.831933722711504"><ele>382.25</ele><time>2026-04-25T14:00:49Z</time></trkpt><trkpt lat="45.815983614685415" lon="8.831807538837664"><ele>382.5</ele><time>2026-04-25T14:00:50Z</time></trkpt><trkpt lat="45.81589769875338" lon="8.831648586253793"><ele>382.75</ele><time>2026-04-25T14:00:51Z</time></trkpt><trkpt lat="45.815790808512176" lon="8.831457342487111"><ele>383.0</ele><time>2026-04-25T14:00:52Z</time></trkpt><trkpt lat="45.81566679219889" lon="8.83124264913948"><ele>384.33333333333337</ele><time>2026-04-25T14:00:53Z</time></trkpt><trkpt lat="45.81555599854545" lon="8.831045662348066"><ele>385.6666666666667</ele><time>2026-04-25T14:00:54Z</time></trkpt><trkpt lat="45.81545483777824" lon="8.830870566195367"><ele>387.0</ele><time>2026-04-25T14:00:55Z</time></trkpt><trkpt lat="45.81536181521879" lon="8.830706955889704"><ele>387.0</ele><time>2026-04-25T14:00:56Z</time></trkpt><trkpt lat="45.815276140128994" lon="8.83055537210107"><ele>387.0</ele><time>2026-04-25T14:00:57Z</time></trkpt><trkpt lat="45.81519394337683" lon="8.830416477744595"><ele>387.0</ele><time>2026-04-25T14:00:58Z</time></trkpt><trkpt lat="45.815121745539315" lon="8.830294536490744"><ele>387.0</ele><time>2026-04-25T14:00:59Z</time></trkpt><trkpt lat="45.81507311296449" lon="8.83020837021825"><ele>387.0</ele><time>2026-04-25T14:01:00Z</time></trkpt><trkpt lat="45.81503021071369" lon="8.830132195320644"><ele>387.0</ele><time>2026-04-25T14:01:02Z</time></trkpt><trkpt lat="45.814960169904495" lon="8.830049194740322"><ele>387.0</ele><time>2026-04-25T14:02:40Z</time></trkpt><trkpt lat="45.81490994659891" lon="8.829993280817483"><ele>387.0</ele><time>2026-04-25T14:02:42Z</time></trkpt><trkpt lat="45.81474725019991" lon="8.830178163350944"><ele>387.0</ele><time>2026-04-25T14:02:43Z</time></trkpt><trkpt lat="45.814679909633035" lon="8.830278442664765"><ele>387.5</ele><time>2026-04-25T14:02:44Z</time></trkpt><trkpt lat="45.81460957574452" lon="8.830419594157853"><ele>388.0</ele><time>2026-04-25T14:02:45Z</time></trkpt><trkpt lat="45.81455027580865" lon="8.830570019188688"><ele>388.5</ele><time>2026-04-25T14:02:46Z</time></trkpt><trkpt lat="45.814481856906724" lon="8.83070192711069"><ele>389.0</ele><time>2026-04-25T14:02:47Z</time></trkpt><trkpt lat="45.81441825856954" lon="8.830832369267299"><ele>389.0</ele><time>2026-04-25T14:02:48Z</time></trkpt><trkpt lat="45.81435227571043" lon="8.830956443650383"><ele>389.0</ele><time>2026-04-25T14:02:49Z</time></trkpt><trkpt lat="45.814285938013725" lon="8.831075068632593"><ele>389.0</ele><time>2026-04-25T14:02:50Z</time></trkpt><trkpt lat="45.81421982071549" lon="8.831190280245604"><ele>389.0</ele><time>2026-04-25T14:02:51Z</time></trkpt><trkpt lat="45.8141443233841" lon="8.831309136634584"><ele>389.0</ele><time>2026-04-25T14:02:52Z</time></trkpt><trkpt lat="45.81404606869612" lon="8.83144704837762"><ele>388.66666666666663</ele><time>2026-04-25T14:02:53Z</time></trkpt><trkpt lat="45.813941729999804" lon="8.831590154954506"><ele>388.33333333333337</ele><time>2026-04-25T14:02:54Z</time></trkpt><trkpt lat="45.81381797456198" lon="8.831749152920487"><ele>388.0</ele><time>2026-04-25T14:02:55Z</time></trkpt><trkpt lat="45.81368256481698" lon="8.831934800903095"><ele>387.6666666666667</ele><time>2026-04-25T14:02:56Z</time></trkpt><trkpt lat="45.81355008201157" lon="8.83210815439964"><ele>387.33333333333337</ele><time>2026-04-25T14:02:57Z</time></trkpt><trkpt lat="45.813428814224686" lon="8.832261476116823"><ele>387.0</ele><time>2026-04-25T14:02:58Z</time></trkpt><trkpt lat="45.81331810551469" lon="8.832406504239842"><ele>387.0</ele><time>2026-04-25T14:02:59Z</time></trkpt><trkpt lat="45.81319937136018" lon="8.832574065515566"><ele>387.0</ele><time>2026-04-25T14:03:00Z</time></trkpt><trkpt lat="45.81306963750884" lon="8.832754974539112"><ele>387.0</ele><time>2026-04-25T14:03:01Z</time></trkpt><trkpt lat="45.81295107509976" lon="8.832913339366774"><ele>387.66666666666663</ele><time>2026-04-25T14:03:02Z</time></trkpt><trkpt lat="45.812839676565936" lon="8.83305706056392"><ele>388.3333333333333</ele><time>2026-04-25T14:03:03Z</time></trkpt><trkpt lat="45.812720286569295" lon="8.833204053626634"><ele>389.0</ele><time>2026-04-25T14:03:04Z</time></trkpt><trkpt lat="45.81260770521846" lon="8.83333980577602"><ele>389.0</ele><time>2026-04-25T14:03:05Z</time></trkpt><trkpt lat="45.81250340502147" lon="8.833461991596492"><ele>389.0</ele><time>2026-04-25T14:03:06Z</time></trkpt><trkpt lat="45.81240003966856" lon="8.833589118802927"><ele>389.0</ele><time>2026-04-25T14:03:07Z</time></trkpt><trkpt lat="45.812280438257844" lon="8.83371829574853"><ele>389.0</ele><time>2026-04-25T14:03:08Z</time></trkpt><trkpt lat="45.81216759533607" lon="8.833812353277457"><ele>389.25</ele><time>2026-04-25T14:03:09Z</time></trkpt><trkpt lat="45.81204193961198" lon="8.833865032233794"><ele>389.5</ele><time>2026-04-25T14:03:10Z</time></trkpt><trkpt lat="45.81191996200577" lon="8.833929363983033"><ele>389.75</ele><time>2026-04-25T14:03:11Z</time></trkpt><trkpt lat="45.81178474582631" lon="8.834008465778629"><ele>390.0</ele><time>2026-04-25T14:03:12Z</time></trkpt><trkpt lat="45.81165301946407" lon="8.834090227025191"><ele>390.2</ele><time>2026-04-25T14:03:13Z</time></trkpt><trkpt lat="45.811549377088085" lon="8.834158003392949"><ele>390.4</ele><time>2026-04-25T14:03:14Z</time></trkpt><trkpt lat="45.811450671953025" lon="8.834226158113278"><ele>390.6</ele><time>2026-04-25T14:03:15Z</time></trkpt><trkpt lat="45.811361811225936" lon="8.834296549657559"><ele>390.8</ele><time>2026-04-25T14:03:16Z</time></trkpt><trkpt lat="45.81128971575679" lon="8.834365076045657"><ele>391.0</ele><time>2026-04-25T14:03:17Z</time></trkpt><trkpt lat="45.811241379758584" lon="8.83446176115744"><ele>391.0</ele><time>2026-04-25T14:03:18Z</time></trkpt><trkpt lat="45.811188015276905" lon="8.834530397663006"><ele>391.0</ele><time>2026-04-25T14:03:19Z</time></trkpt><trkpt lat="45.81112262351487" lon="8.83459410127847"><ele>391.0</ele><time>2026-04-25T14:03:20Z</time></trkpt><trkpt lat="45.81101650105316" lon="8.834658254681006"><ele>391.0</ele><time>2026-04-25T14:03:21Z</time></trkpt><trkpt lat="45.81089351126959" lon="8.834707713007598"><ele>391.0</ele><time>2026-04-25T14:03:22Z</time></trkpt><trkpt lat="45.81078441802537" lon="8.834751647520093"><ele>391.1666666666667</ele><time>2026-04-25T14:03:23Z</time></trkpt><trkpt lat="45.810697182763114" lon="8.834800689807663"><ele>391.33333333333337</ele><time>2026-04-25T14:03:24Z</time></trkpt><trkpt lat="45.81062822200016" lon="8.834804023155865"><ele>391.5</ele><time>2026-04-25T14:03:25Z</time></trkpt><trkpt lat="45.81062392329362" lon="8.834969567798076"><ele>391.66666666666663</ele><time>2026-04-25T14:03:26Z</time></trkpt><trkpt lat="45.810623579050706" lon="8.835091353268087"><ele>391.8333333333333</ele><time>2026-04-25T14:03:27Z</time></trkpt><trkpt lat="45.81061919222514" lon="8.835209896895126"><ele>392.0</ele><time>2026-04-25T14:03:28Z</time></trkpt><trkpt lat="45.810574119441746" lon="8.835307211335014"><ele>392.0</ele><time>2026-04-25T14:03:29Z</time></trkpt><trkpt lat="45.810528814796044" lon="8.835381595951509"><ele>392.0</ele><time>2026-04-25T14:03:30Z</time></trkpt><trkpt lat="45.810432372395695" lon="8.835366733389238"><ele>392.0</ele><time>2026-04-25T14:03:31Z</time></trkpt><trkpt lat="45.81033453026283" lon="8.835438489710794"><ele>392.0</ele><time>2026-04-25T14:03:32Z</time></trkpt><trkpt lat="45.81022118338764" lon="8.83549470307493"><ele>392.0</ele><time>2026-04-25T14:03:33Z</time></trkpt><trkpt lat="45.810096453269374" lon="8.83557722096858"><ele>391.66666666666663</ele><time>2026-04-25T14:03:34Z</time></trkpt><trkpt lat="45.8099683112973" lon="8.835668611382246"><ele>391.33333333333337</ele><time>2026-04-25T14:03:35Z</time></trkpt><trkpt lat="45.80983304932412" lon="8.83579075410053"><ele>391.0</ele><time>2026-04-25T14:03:36Z</time></trkpt><trkpt lat="45.80968336041414" lon="8.835917195348843"><ele>391.33333333333337</ele><time>2026-04-25T14:03:37Z</time></trkpt><trkpt lat="45.80953462114182" lon="8.83603555121146"><ele>391.66666666666663</ele><time>2026-04-25T14:03:38Z</time></trkpt><trkpt lat="45.809391011074645" lon="8.836131162739592"><ele>392.0</ele><time>2026-04-25T14:03:39Z</time></trkpt><trkpt lat="45.809267799953695" lon="8.836205591943086"><ele>392.0</ele><time>2026-04-25T14:03:40Z</time></trkpt><trkpt lat="45.80916446077961" lon="8.836278851838166"><ele>392.0</ele><time>2026-04-25T14:03:41Z</time></trkpt><trkpt lat="45.80908027353569" lon="8.83633719082663"><ele>392.0</ele><time>2026-04-25T14:03:42Z</time></trkpt><trkpt lat="45.80901300419403" lon="8.836371490552464"><ele>392.0</ele><time>2026-04-25T14:03:43Z</time></trkpt><trkpt lat="45.80892878880949" lon="8.836392542814401"><ele>392.0</ele><time>2026-04-25T14:03:45Z</time></trkpt><trkpt lat="45.80883692513936" lon="8.836403792959043"><ele>392.0</ele><time>2026-04-25T14:04:42Z</time></trkpt><trkpt lat="45.80875815683948" lon="8.836462445006852"><ele>392.0</ele><time>2026-04-25T14:04:43Z</time></trkpt><trkpt lat="45.80864426375505" lon="8.836551757298105"><ele>392.0</ele><time>2026-04-25T14:04:44Z</time></trkpt><trkpt lat="45.80849930942938" lon="8.836674319836364"><ele>392.0</ele><time>2026-04-25T14:04:45Z</time></trkpt><trkpt lat="45.80835413057906" lon="8.836806437140329"><ele>393.66666666666663</ele><time>2026-04-25T14:04:46Z</time></trkpt><trkpt lat="45.80820695766344" lon="8.836938092477316"><ele>395.33333333333337</ele><time>2026-04-25T14:04:47Z</time></trkpt><trkpt lat="45.80806015239412" lon="8.837066838991461"><ele>397.0</ele><time>2026-04-25T14:04:48Z</time></trkpt><trkpt lat="45.8079406864678" lon="8.837167485462004"><ele>397.0</ele><time>2026-04-25T14:04:49Z</time></trkpt><trkpt lat="45.80783158951943" lon="8.837272345235343"><ele>397.0</ele><time>2026-04-25T14:04:50Z</time></trkpt><trkpt lat="45.80773832609049" lon="8.83735864683437"><ele>397.0</ele><time>2026-04-25T14:04:51Z</time></trkpt><trkpt lat="45.80764381684184" lon="8.837441537926107"><ele>397.0</ele><time>2026-04-25T14:04:52Z</time></trkpt><trkpt lat="45.807563262836055" lon="8.837518577429723"><ele>397.20000000000005</ele><time>2026-04-25T14:04:53Z</time></trkpt><trkpt lat="45.80748480634295" lon="8.837583916781973"><ele>397.4</ele><time>2026-04-25T14:04:54Z</time></trkpt><trkpt lat="45.807400678555496" lon="8.837655413969348"><ele>397.6</ele><time>2026-04-25T14:04:55Z</time></trkpt><trkpt lat="45.80731113693561" lon="8.837738146655349"><ele>397.79999999999995</ele><time>2026-04-25T14:04:56Z</time></trkpt><trkpt lat="45.80721501057839" lon="8.837834019194824"><ele>398.0</ele><time>2026-04-25T14:04:57Z</time></trkpt><trkpt lat="45.80710012285119" lon="8.837948487059018"><ele>398.0</ele><time>2026-04-25T14:04:58Z</time></trkpt><trkpt lat="45.806956248208905" lon="8.838079783790521"><ele>398.0</ele><time>2026-04-25T14:04:59Z</time></trkpt><trkpt lat="45.80679524296411" lon="8.838217140613517"><ele>398.0</ele><time>2026-04-25T14:05:00Z</time></trkpt><trkpt lat="45.806624668719834" lon="8.838388852612027"><ele>399.66666666666663</ele><time>2026-04-25T14:05:01Z</time></trkpt><trkpt lat="45.80644540673016" lon="8.838538060615011"><ele>401.33333333333337</ele><time>2026-04-25T14:05:02Z</time></trkpt><trkpt lat="45.80626378379536" lon="8.838697826539821"><ele>403.0</ele><time>2026-04-25T14:05:03Z</time></trkpt><trkpt lat="45.80609411978636" lon="8.838857001689231"><ele>404.0</ele><time>2026-04-25T14:05:04Z</time></trkpt><trkpt lat="45.80593699641347" lon="8.838985512613446"><ele>405.0</ele><time>2026-04-25T14:05:05Z</time></trkpt><trkpt lat="45.805793724359354" lon="8.839115517152985"><ele>406.0</ele><time>2026-04-25T14:05:06Z</time></trkpt><trkpt lat="45.80564481570626" lon="8.839249670768194"><ele>405.33333333333337</ele><time>2026-04-25T14:05:07Z</time></trkpt><trkpt lat="45.805495370405765" lon="8.83937408292028"><ele>404.66666666666663</ele><time>2026-04-25T14:05:08Z</time></trkpt><trkpt lat="45.805347013319796" lon="8.8394883141721"><ele>404.0</ele><time>2026-04-25T14:05:09Z</time></trkpt><trkpt lat="45.80520347903946" lon="8.839600120920519"><ele>405.0</ele><time>2026-04-25T14:05:10Z</time></trkpt><trkpt lat="45.805057914594514" lon="8.839705910457546"><ele>406.0</ele><time>2026-04-25T14:05:11Z</time></trkpt><trkpt lat="45.80491614073246" lon="8.839803535257952"><ele>407.0</ele><time>2026-04-25T14:05:12Z</time></trkpt><trkpt lat="45.80479158696112" lon="8.839892590321256"><ele>407.0</ele><time>2026-04-25T14:05:13Z</time></trkpt><trkpt lat="45.804685204507116" lon="8.839971307942646"><ele>407.0</ele><time>2026-04-25T14:05:14Z</time></trkpt><trkpt lat="45.80457363203462" lon="8.840054322300325"><ele>407.0</ele><time>2026-04-25T14:05:15Z</time></trkpt><trkpt lat="45.80445823172682" lon="8.840136334433454"><ele>407.0</ele><time>2026-04-25T14:05:16Z</time></trkpt><trkpt lat="45.80434677789915" lon="8.840216463557514"><ele>407.25</ele><time>2026-04-25T14:05:17Z</time></trkpt><trkpt lat="45.80424016475642" lon="8.84029493280811"><ele>407.5</ele><time>2026-04-25T14:05:18Z</time></trkpt><trkpt lat="45.80414655476" lon="8.840364098409262"><ele>407.75</ele><time>2026-04-25T14:05:19Z</time></trkpt><trkpt lat="45.8040617883242" lon="8.84044868672555"><ele>408.0</ele><time>2026-04-25T14:05:20Z</time></trkpt><trkpt lat="45.80395716563434" lon="8.840560902611521"><ele>408.0</ele><time>2026-04-25T14:05:21Z</time></trkpt><trkpt lat="45.803837349742295" lon="8.840681694709573"><ele>408.0</ele><time>2026-04-25T14:05:22Z</time></trkpt><trkpt lat="45.803651624225886" lon="8.840867946625414"><ele>408.0</ele><time>2026-04-25T14:05:23Z</time></trkpt><trkpt lat="45.80346465149798" lon="8.841053049379834"><ele>409.0</ele><time>2026-04-25T14:05:24Z</time></trkpt><trkpt lat="45.803304110332824" lon="8.84123368498962"><ele>410.0</ele><time>2026-04-25T14:05:25Z</time></trkpt><trkpt lat="45.80316572350418" lon="8.841388898751674"><ele>411.0</ele><time>2026-04-25T14:05:26Z</time></trkpt><trkpt lat="45.80303575540022" lon="8.841530131294958"><ele>411.0</ele><time>2026-04-25T14:05:27Z</time></trkpt><trkpt lat="45.802909651278895" lon="8.841664422837212"><ele>411.0</ele><time>2026-04-25T14:05:28Z</time></trkpt><trkpt lat="45.80278387236661" lon="8.841806387188498"><ele>411.0</ele><time>2026-04-25T14:05:29Z</time></trkpt><trkpt lat="45.80265722070108" lon="8.841946803653398"><ele>411.0</ele><time>2026-04-25T14:05:30Z</time></trkpt><trkpt lat="45.80253397036946" lon="8.84207408831239"><ele>411.0</ele><time>2026-04-25T14:05:31Z</time></trkpt><trkpt lat="45.80241326240529" lon="8.842189355275213"><ele>411.0</ele><time>2026-04-25T14:05:32Z</time></trkpt><trkpt lat="45.802277654748565" lon="8.842292855913133"><ele>411.0</ele><time>2026-04-25T14:05:33Z</time></trkpt><trkpt lat="45.802120300405306" lon="8.842378626412824"><ele>411.0</ele><time>2026-04-25T14:05:34Z</time></trkpt><trkpt lat="45.80192860470679" lon="8.842450833368384"><ele>411.0</ele><time>2026-04-25T14:05:35Z</time></trkpt><trkpt lat="45.80172396927386" lon="8.84251124202111"><ele>411.0</ele><time>2026-04-25T14:05:36Z</time></trkpt><trkpt lat="45.80155262747673" lon="8.842557512340658"><ele>411.0</ele><time>2026-04-25T14:05:37Z</time></trkpt><trkpt lat="45.801388377708065" lon="8.842618234276282"><ele>411.0</ele><time>2026-04-25T14:05:38Z</time></trkpt><trkpt lat="45.80121706113689" lon="8.842669728133536"><ele>410.66666666666663</ele><time>2026-04-25T14:05:39Z</time></trkpt><trkpt lat="45.80103917838808" lon="8.842731946078567"><ele>410.3333333333333</ele><time>2026-04-25T14:05:40Z</time></trkpt><trkpt lat="45.80087388479776" lon="8.842785716033916"><ele>410.0</ele><time>2026-04-25T14:05:41Z</time></trkpt><trkpt lat="45.800723546089316" lon="8.842829329387195"><ele>410.0</ele><time>2026-04-25T14:05:42Z</time></trkpt><trkpt lat="45.800609571094405" lon="8.84286262589461"><ele>410.0</ele><time>2026-04-25T14:05:43Z</time></trkpt><trkpt lat="45.80052627437885" lon="8.842885449946499"><ele>410.0</ele><time>2026-04-25T14:05:44Z</time></trkpt><trkpt lat="45.800375804729846" lon="8.842939144269867"><ele>410.0</ele><time>2026-04-25T14:06:12Z</time></trkpt><trkpt lat="45.80023444583252" lon="8.842986433628692"><ele>408.66666666666663</ele><time>2026-04-25T14:06:13Z</time></trkpt><trkpt lat="45.80007705867699" lon="8.843039768968966"><ele>407.33333333333337</ele><time>2026-04-25T14:06:14Z</time></trkpt><trkpt lat="45.799914980365074" lon="8.843095767958966"><ele>406.0</ele><time>2026-04-25T14:06:15Z</time></trkpt><trkpt lat="45.799758214534265" lon="8.84315109886289"><ele>406.0</ele><time>2026-04-25T14:06:16Z</time></trkpt><trkpt lat="45.79961974821118" lon="8.843201424528546"><ele>406.0</ele><time>2026-04-25T14:06:17Z</time></trkpt><trkpt lat="45.79948225432024" lon="8.843246299464912"><ele>406.0</ele><time>2026-04-25T14:06:18Z</time></trkpt><trkpt lat="45.799348690155576" lon="8.8432900625137"><ele>406.0</ele><time>2026-04-25T14:06:19Z</time></trkpt><trkpt lat="45.799199856418944" lon="8.843344653019988"><ele>405.0</ele><time>2026-04-25T14:06:20Z</time></trkpt><trkpt lat="45.79904424997233" lon="8.843397554575283"><ele>404.0</ele><time>2026-04-25T14:06:21Z</time></trkpt><trkpt lat="45.79889016816803" lon="8.843445229833335"><ele>403.0</ele><time>2026-04-25T14:06:22Z</time></trkpt><trkpt lat="45.79873536978246" lon="8.843488325849338"><ele>402.75</ele><time>2026-04-25T14:06:23Z</time></trkpt><trkpt lat="45.79859343168515" lon="8.843537455830267"><ele>402.5</ele><time>2026-04-25T14:06:24Z</time></trkpt><trkpt lat="45.79846297597753" lon="8.843576686538912"><ele>402.25</ele><time>2026-04-25T14:06:25Z</time></trkpt><trkpt lat="45.798337351895825" lon="8.843614332038705"><ele>402.0</ele><time>2026-04-25T14:06:26Z</time></trkpt><trkpt lat="45.79822059054968" lon="8.843651277880898"><ele>401.25</ele><time>2026-04-25T14:06:27Z</time></trkpt><trkpt lat="45.79809372400552" lon="8.843697437618125"><ele>400.5</ele><time>2026-04-25T14:06:28Z</time></trkpt><trkpt lat="45.79795678871417" lon="8.843742340923296"><ele>399.75</ele><time>2026-04-25T14:06:29Z</time></trkpt><trkpt lat="45.79781403771766" lon="8.843791300219504"><ele>399.0</ele><time>2026-04-25T14:06:30Z</time></trkpt><trkpt lat="45.79767647887297" lon="8.84384274813129"><ele>400.0</ele><time>2026-04-25T14:06:31Z</time></trkpt><trkpt lat="45.79754238848635" lon="8.843888012330824"><ele>401.0</ele><time>2026-04-25T14:06:32Z</time></trkpt><trkpt lat="45.797405943817694" lon="8.843933880049734"><ele>402.0</ele><time>2026-04-25T14:06:33Z</time></trkpt><trkpt lat="45.797265075137354" lon="8.843981642403717"><ele>403.0</ele><time>2026-04-25T14:06:34Z</time></trkpt><trkpt lat="45.797120674148694" lon="8.84403265453276"><ele>403.0</ele><time>2026-04-25T14:06:35Z</time></trkpt><trkpt lat="45.796989353543324" lon="8.844075666496881"><ele>403.0</ele><time>2026-04-25T14:06:36Z</time></trkpt><trkpt lat="45.796863099734104" lon="8.844119145308778"><ele>403.0</ele><time>2026-04-25T14:06:37Z</time></trkpt><trkpt lat="45.796705081372224" lon="8.844174382210653"><ele>403.0</ele><time>2026-04-25T14:06:38Z</time></trkpt><trkpt lat="45.796516740849036" lon="8.844202777568924"><ele>402.33333333333337</ele><time>2026-04-25T14:06:39Z</time></trkpt><trkpt lat="45.796313876092654" lon="8.844286900298274"><ele>401.66666666666663</ele><time>2026-04-25T14:06:40Z</time></trkpt><trkpt lat="45.796120312672336" lon="8.844340579342939"><ele>401.0</ele><time>2026-04-25T14:06:41Z</time></trkpt><trkpt lat="45.79595095865796" lon="8.844394683739758"><ele>400.66666666666663</ele><time>2026-04-25T14:06:42Z</time></trkpt><trkpt lat="45.79578141469859" lon="8.844446487742427"><ele>400.33333333333337</ele><time>2026-04-25T14:06:43Z</time></trkpt><trkpt lat="45.7956121111096" lon="8.84449774070491"><ele>400.0</ele><time>2026-04-25T14:06:44Z</time></trkpt><trkpt lat="45.795444268621026" lon="8.844550644132173"><ele>400.0</ele><time>2026-04-25T14:06:45Z</time></trkpt><trkpt lat="45.795290538714745" lon="8.844604112551325"><ele>400.0</ele><time>2026-04-25T14:06:46Z</time></trkpt><trkpt lat="45.79514750645969" lon="8.8446658130744"><ele>400.0</ele><time>2026-04-25T14:06:47Z</time></trkpt><trkpt lat="45.79501724129564" lon="8.844745604518065"><ele>400.0</ele><time>2026-04-25T14:06:48Z</time></trkpt><trkpt lat="45.794908453182565" lon="8.844845131825199"><ele>399.5</ele><time>2026-04-25T14:06:49Z</time></trkpt><trkpt lat="45.7948226992368" lon="8.844968436275273"><ele>399.0</ele><time>2026-04-25T14:06:50Z</time></trkpt><trkpt lat="45.79474695092002" lon="8.845123457492871"><ele>398.5</ele><time>2026-04-25T14:06:51Z</time></trkpt><trkpt lat="45.79467676048839" lon="8.845321563749362"><ele>398.0</ele><time>2026-04-25T14:06:52Z</time></trkpt><trkpt lat="45.79461658006183" lon="8.845543438264848"><ele>396.66666666666663</ele><time>2026-04-25T14:06:53Z</time></trkpt><trkpt lat="45.79455401363741" lon="8.845784623019643"><ele>395.33333333333337</ele><time>2026-04-25T14:06:54Z</time></trkpt><trkpt lat="45.7944737866699" lon="8.846042533303878"><ele>394.0</ele><time>2026-04-25T14:06:55Z</time></trkpt><trkpt lat="45.79439920096918" lon="8.846287501485708"><ele>393.33333333333337</ele><time>2026-04-25T14:06:56Z</time></trkpt><trkpt lat="45.79433313769134" lon="8.846527311948792"><ele>392.66666666666663</ele><time>2026-04-25T14:06:57Z</time></trkpt><trkpt lat="45.794241850440876" lon="8.846825289865198"><ele>392.0</ele><time>2026-04-25T14:06:58Z</time></trkpt><trkpt lat="45.79417122886759" lon="8.847073053328584"><ele>392.0</ele><time>2026-04-25T14:06:59Z</time></trkpt><trkpt lat="45.79409831718838" lon="8.847308367756945"><ele>392.0</ele><time>2026-04-25T14:07:00Z</time></trkpt><trkpt lat="45.79402073953675" lon="8.847528700946592"><ele>392.0</ele><time>2026-04-25T14:07:01Z</time></trkpt><trkpt lat="45.793919768719974" lon="8.847753731006334"><ele>392.0</ele><time>2026-04-25T14:07:02Z</time></trkpt><trkpt lat="45.79380329601705" lon="8.847983644474589"><ele>392.0</ele><time>2026-04-25T14:07:03Z</time></trkpt><trkpt lat="45.793683443793256" lon="8.848212932517646"><ele>392.0</ele><time>2026-04-25T14:07:04Z</time></trkpt><trkpt lat="45.793562282879506" lon="8.848453619906646"><ele>390.0</ele><time>2026-04-25T14:07:05Z</time></trkpt><trkpt lat="45.79343209780215" lon="8.848708311145684"><ele>388.0</ele><time>2026-04-25T14:07:06Z</time></trkpt><trkpt lat="45.79332190998347" lon="8.848934374801846"><ele>386.0</ele><time>2026-04-25T14:07:07Z</time></trkpt><trkpt lat="45.79322090613743" lon="8.84914913299865"><ele>384.3333333333333</ele><time>2026-04-25T14:07:08Z</time></trkpt><trkpt lat="45.793118943287894" lon="8.84933209376546"><ele>382.66666666666663</ele><time>2026-04-25T14:07:09Z</time></trkpt><trkpt lat="45.79298654782955" lon="8.849459882183533"><ele>381.0</ele><time>2026-04-25T14:07:10Z</time></trkpt><trkpt lat="45.79287129126523" lon="8.84958082783012"><ele>381.0</ele><time>2026-04-25T14:07:11Z</time></trkpt><trkpt lat="45.79275677596364" lon="8.84969268841415"><ele>381.0</ele><time>2026-04-25T14:07:12Z</time></trkpt><trkpt lat="45.79264078487491" lon="8.849786826616386"><ele>381.0</ele><time>2026-04-25T14:07:13Z</time></trkpt><trkpt lat="45.792528754982264" lon="8.849878716330913"><ele>381.0</ele><time>2026-04-25T14:07:14Z</time></trkpt><trkpt lat="45.7924259850293" lon="8.84996371827573"><ele>381.5</ele><time>2026-04-25T14:07:15Z</time></trkpt><trkpt lat="45.79231467645849" lon="8.850020289530073"><ele>382.0</ele><time>2026-04-25T14:07:16Z</time></trkpt><trkpt lat="45.792186045722545" lon="8.850047277793088"><ele>382.5</ele><time>2026-04-25T14:07:17Z</time></trkpt><trkpt lat="45.79204892483185" lon="8.849964424175548"><ele>383.0</ele><time>2026-04-25T14:07:18Z</time></trkpt><trkpt lat="45.791879799666475" lon="8.849913440388008"><ele>381.33333333333337</ele><time>2026-04-25T14:07:19Z</time></trkpt><trkpt lat="45.79169122583539" lon="8.849878409513046"><ele>379.6666666666667</ele><time>2026-04-25T14:07:20Z</time></trkpt><trkpt lat="45.791522289630294" lon="8.849814411217418"><ele>378.0</ele><time>2026-04-25T14:07:21Z</time></trkpt><trkpt lat="45.79137791276769" lon="8.84976669590735"><ele>378.0</ele><time>2026-04-25T14:07:22Z</time></trkpt><trkpt lat="45.79125009658318" lon="8.849724126238801"><ele>378.0</ele><time>2026-04-25T14:07:23Z</time></trkpt><trkpt lat="45.79114355872935" lon="8.849682456963393"><ele>378.0</ele><time>2026-04-25T14:07:24Z</time></trkpt><trkpt lat="45.79103775069474" lon="8.84957225769692"><ele>378.0</ele><time>2026-04-25T14:07:25Z</time></trkpt><trkpt lat="45.79091107732307" lon="8.849431748006719"><ele>377.75</ele><time>2026-04-25T14:07:26Z</time></trkpt><trkpt lat="45.79077628557126" lon="8.849323075824358"><ele>377.5</ele><time>2026-04-25T14:07:27Z</time></trkpt><trkpt lat="45.79066526381696" lon="8.849228809474582"><ele>377.25</ele><time>2026-04-25T14:07:28Z</time></trkpt><trkpt lat="45.79054182411879" lon="8.84919607569549"><ele>377.0</ele><time>2026-04-25T14:07:29Z</time></trkpt><trkpt lat="45.79035044321616" lon="8.84924559788817"><ele>377.6666666666667</ele><time>2026-04-25T14:07:30Z</time></trkpt><trkpt lat="45.790144655807886" lon="8.849308521740353"><ele>378.3333333333333</ele><time>2026-04-25T14:07:31Z</time></trkpt><trkpt lat="45.789922016256135" lon="8.849386159065897"><ele>379.0</ele><time>2026-04-25T14:07:32Z</time></trkpt><trkpt lat="45.78968163490198" lon="8.849453145530724"><ele>379.0</ele><time>2026-04-25T14:07:33Z</time></trkpt><trkpt lat="45.78944341000923" lon="8.849512874549358"><ele>379.0</ele><time>2026-04-25T14:07:34Z</time></trkpt><trkpt lat="45.78921451040389" lon="8.84956103877447"><ele>378.0</ele><time>2026-04-25T14:07:35Z</time></trkpt><trkpt lat="45.7890028645735" lon="8.849590434591978"><ele>377.0</ele><time>2026-04-25T14:07:36Z</time></trkpt><trkpt lat="45.78882032831791" lon="8.849588470325761"><ele>376.0</ele><time>2026-04-25T14:07:37Z</time></trkpt><trkpt lat="45.788648410919116" lon="8.849585349808654"><ele>375.3333333333333</ele><time>2026-04-25T14:07:38Z</time></trkpt><trkpt lat="45.78847059401341" lon="8.849620013298116"><ele>374.6666666666667</ele><time>2026-04-25T14:07:39Z</time></trkpt><trkpt lat="45.78828683370958" lon="8.849693672940923"><ele>374.0</ele><time>2026-04-25T14:07:40Z</time></trkpt><trkpt lat="45.7880934313803" lon="8.849796503813709"><ele>374.0</ele><time>2026-04-25T14:07:41Z</time></trkpt><trkpt lat="45.787926625300464" lon="8.849902617481908"><ele>374.0</ele><time>2026-04-25T14:07:42Z</time></trkpt><trkpt lat="45.78778149536724" lon="8.850002762979988"><ele>374.0</ele><time>2026-04-25T14:07:43Z</time></trkpt><trkpt lat="45.78765177146635" lon="8.850108168660674"><ele>375.33333333333337</ele><time>2026-04-25T14:07:44Z</time></trkpt><trkpt lat="45.78753130664759" lon="8.850245437491647"><ele>376.6666666666667</ele><time>2026-04-25T14:07:45Z</time></trkpt><trkpt lat="45.78741705132938" lon="8.85038867808711"><ele>378.0</ele><time>2026-04-25T14:07:46Z</time></trkpt><trkpt lat="45.7872960051171" lon="8.850512141230203"><ele>378.0</ele><time>2026-04-25T14:07:47Z</time></trkpt><trkpt lat="45.78716871900884" lon="8.850604651625801"><ele>378.0</ele><time>2026-04-25T14:07:48Z</time></trkpt><trkpt lat="45.78704255716103" lon="8.850677818770388"><ele>378.0</ele><time>2026-04-25T14:07:49Z</time></trkpt><trkpt lat="45.78691565394569" lon="8.850714073116313"><ele>378.0</ele><time>2026-04-25T14:07:50Z</time></trkpt><trkpt lat="45.786787090740695" lon="8.850772382565887"><ele>377.75</ele><time>2026-04-25T14:07:51Z</time></trkpt><trkpt lat="45.78666176760808" lon="8.8508279817791"><ele>377.5</ele><time>2026-04-25T14:07:52Z</time></trkpt><trkpt lat="45.786536317898744" lon="8.850880893533729"><ele>377.25</ele><time>2026-04-25T14:07:53Z</time></trkpt><trkpt lat="45.78641383796982" lon="8.850957342281344"><ele>377.0</ele><time>2026-04-25T14:07:54Z</time></trkpt><trkpt lat="45.78628506513451" lon="8.850986866110038"><ele>377.0</ele><time>2026-04-25T14:07:55Z</time></trkpt><trkpt lat="45.786174683422814" lon="8.851033530863445"><ele>377.0</ele><time>2026-04-25T14:07:56Z</time></trkpt><trkpt lat="45.78608394339859" lon="8.85107318141189"><ele>377.0</ele><time>2026-04-25T14:07:57Z</time></trkpt><trkpt lat="45.78599794289282" lon="8.851112312991797"><ele>377.0</ele><time>2026-04-25T14:07:58Z</time></trkpt><trkpt lat="45.78591024019471" lon="8.851154419577155"><ele>377.0</ele><time>2026-04-25T14:07:59Z</time></trkpt><trkpt lat="45.785815051867026" lon="8.851221980718163"><ele>376.75</ele><time>2026-04-25T14:08:00Z</time></trkpt><trkpt lat="45.78573761126785" lon="8.851352427007345"><ele>376.5</ele><time>2026-04-25T14:08:01Z</time></trkpt><trkpt lat="45.78563820917124" lon="8.851459918254877"><ele>376.25</ele><time>2026-04-25T14:08:02Z</time></trkpt><trkpt lat="45.78558430942221" lon="8.851632102890633"><ele>376.0</ele><time>2026-04-25T14:08:03Z</time></trkpt><trkpt lat="45.785529637810036" lon="8.851778241929651"><ele>375.25</ele><time>2026-04-25T14:08:04Z</time></trkpt><trkpt lat="45.78547301729771" lon="8.85193721732775"><ele>374.5</ele><time>2026-04-25T14:08:05Z</time></trkpt><trkpt lat="45.7854159574042" lon="8.852099101132119"><ele>373.75</ele><time>2026-04-25T14:08:06Z</time></trkpt><trkpt lat="45.78536165259803" lon="8.852254000817114"><ele>373.0</ele><time>2026-04-25T14:08:06.999Z</time></trkpt><trkpt lat="45.785303963071" lon="8.852418555076168"><ele>373.0</ele><time>2026-04-25T14:08:07.999Z</time></trkpt><trkpt lat="45.785238620855274" lon="8.852603302151739"><ele>373.0</ele><time>2026-04-25T14:08:08.999Z</time></trkpt><trkpt lat="45.78515646185289" lon="8.852834507342147"><ele>373.0</ele><time>2026-04-25T14:08:09.999Z</time></trkpt><trkpt lat="45.78506311255516" lon="8.853099688765834"><ele>372.0</ele><time>2026-04-25T14:08:10.999Z</time></trkpt><trkpt lat="45.78495606437805" lon="8.853405103560542"><ele>371.0</ele><time>2026-04-25T14:08:11.999Z</time></trkpt><trkpt lat="45.78484996435602" lon="8.85370292390101"><ele>368.0</ele><time>2026-04-25T14:08:12.999Z</time></trkpt><trkpt lat="45.7847512161674" lon="8.853980944592013"><ele>365.0</ele><time>2026-04-25T14:08:13.999Z</time></trkpt><trkpt lat="45.78467483223945" lon="8.854244055215915"><ele>362.0</ele><time>2026-04-25T14:08:14.999Z</time></trkpt><trkpt lat="45.78458697600098" lon="8.854489431907666"><ele>363.33333333333337</ele><time>2026-04-25T14:08:15.999Z</time></trkpt><trkpt lat="45.784492145557024" lon="8.854742046380773"><ele>364.6666666666667</ele><time>2026-04-25T14:08:16.999Z</time></trkpt><trkpt lat="45.78440238872796" lon="8.855002552293021"><ele>366.0</ele><time>2026-04-25T14:08:17.999Z</time></trkpt><trkpt lat="45.78431289840573" lon="8.855241710786942"><ele>366.0</ele><time>2026-04-25T14:08:18.999Z</time></trkpt><trkpt lat="45.78422784580449" lon="8.855466573809736"><ele>366.0</ele><time>2026-04-25T14:08:19.999Z</time></trkpt><trkpt lat="45.78414312985071" lon="8.855682875410738"><ele>366.0</ele><time>2026-04-25T14:08:20.999Z</time></trkpt><trkpt lat="45.78405284390419" lon="8.855899955529514"><ele>362.0</ele><time>2026-04-25T14:08:21.999Z</time></trkpt><trkpt lat="45.7839639200861" lon="8.856110452590896"><ele>358.0</ele><time>2026-04-25T14:08:22.999Z</time></trkpt><trkpt lat="45.783888646655456" lon="8.85631198335664"><ele>354.0</ele><time>2026-04-25T14:08:23.999Z</time></trkpt><trkpt lat="45.783829380199805" lon="8.856531090812293"><ele>354.0</ele><time>2026-04-25T14:08:24.999Z</time></trkpt><trkpt lat="45.78378055566586" lon="8.856759715751327"><ele>354.0</ele><time>2026-04-25T14:08:25.999Z</time></trkpt><trkpt lat="45.7837567964274" lon="8.85699288662105"><ele>354.0</ele><time>2026-04-25T14:08:26.999Z</time></trkpt><trkpt lat="45.78374684798182" lon="8.857270721884264"><ele>352.5</ele><time>2026-04-25T14:08:27.999Z</time></trkpt><trkpt lat="45.78371535978205" lon="8.857588031245964"><ele>351.0</ele><time>2026-04-25T14:08:28.999Z</time></trkpt><trkpt lat="45.783699472579734" lon="8.857928493861484"><ele>350.3333333333333</ele><time>2026-04-25T14:08:29.999Z</time></trkpt><trkpt lat="45.78368602257634" lon="8.858252197156375"><ele>349.66666666666663</ele><time>2026-04-25T14:08:30.999Z</time></trkpt><trkpt lat="45.78367284430709" lon="8.858558789394296"><ele>349.0</ele><time>2026-04-25T14:08:31.999Z</time></trkpt><trkpt lat="45.78366126331029" lon="8.85889189764809"><ele>347.5</ele><time>2026-04-25T14:08:32.999Z</time></trkpt><trkpt lat="45.783649298533064" lon="8.859252828621528"><ele>346.0</ele><time>2026-04-25T14:08:33.999Z</time></trkpt><trkpt lat="45.78363701909677" lon="8.85962446508424"><ele>343.0</ele><time>2026-04-25T14:08:34.999Z</time></trkpt><trkpt lat="45.78362825018277" lon="8.859965308852768"><ele>340.0</ele><time>2026-04-25T14:08:35.999Z</time></trkpt><trkpt lat="45.78363501492744" lon="8.86027247739289"><ele>337.0</ele><time>2026-04-25T14:08:36.999Z</time></trkpt><trkpt lat="45.783621535863524" lon="8.860569334592363"><ele>334.0</ele><time>2026-04-25T14:08:37.999Z</time></trkpt><trkpt lat="45.783598093523096" lon="8.860846009104709"><ele>331.0</ele><time>2026-04-25T14:08:38.999Z</time></trkpt><trkpt lat="45.78355298451289" lon="8.861102056652744"><ele>332.3333333333333</ele><time>2026-04-25T14:08:39.999Z</time></trkpt><trkpt lat="45.78347780613515" lon="8.861359377855154"><ele>333.6666666666667</ele><time>2026-04-25T14:08:40.999Z</time></trkpt><trkpt lat="45.78337611338047" lon="8.861646400972731"><ele>335.0</ele><time>2026-04-25T14:08:41.999Z</time></trkpt><trkpt lat="45.78327121675678" lon="8.861919136870785"><ele>335.0</ele><time>2026-04-25T14:08:42.999Z</time></trkpt><trkpt lat="45.783179422284825" lon="8.862164429183977"><ele>335.0</ele><time>2026-04-25T14:08:43.999Z</time></trkpt><trkpt lat="45.7830987186907" lon="8.862370373105058"><ele>335.0</ele><time>2026-04-25T14:08:44.999Z</time></trkpt><trkpt lat="45.78300046123683" lon="8.862537618215407"><ele>334.33333333333337</ele><time>2026-04-25T14:08:45.999Z</time></trkpt><trkpt lat="45.782891530363166" lon="8.862687837290464"><ele>333.6666666666667</ele><time>2026-04-25T14:08:46.999Z</time></trkpt><trkpt lat="45.782757563335075" lon="8.862811803509993"><ele>333.0</ele><time>2026-04-25T14:08:47.999Z</time></trkpt><trkpt lat="45.78260082627659" lon="8.862946816613242"><ele>333.0</ele><time>2026-04-25T14:08:48.999Z</time></trkpt><trkpt lat="45.78244825852541" lon="8.863045199551506"><ele>333.0</ele><time>2026-04-25T14:08:49.999Z</time></trkpt><trkpt lat="45.782323652007925" lon="8.863132948193332"><ele>333.0</ele><time>2026-04-25T14:08:50.999Z</time></trkpt><trkpt lat="45.78222104956731" lon="8.863216290286777"><ele>333.0</ele><time>2026-04-25T14:08:51.999Z</time></trkpt><trkpt lat="45.78213985756953" lon="8.863318222448902"><ele>333.0</ele><time>2026-04-25T14:08:52.999Z</time></trkpt><trkpt lat="45.78208180671159" lon="8.863443468297728"><ele>333.0</ele><time>2026-04-25T14:08:53.999Z</time></trkpt><trkpt lat="45.782047327531345" lon="8.863581795802935"><ele>333.0</ele><time>2026-04-25T14:08:54.999Z</time></trkpt><trkpt lat="45.78201306334096" lon="8.863728951110001"><ele>333.0</ele><time>2026-04-25T14:08:55.999Z</time></trkpt><trkpt lat="45.78205128816242" lon="8.863920800906193"><ele>331.25</ele><time>2026-04-25T14:08:56.999Z</time></trkpt><trkpt lat="45.782099961996295" lon="8.864105461399532"><ele>329.5</ele><time>2026-04-25T14:08:57.999Z</time></trkpt><trkpt lat="45.78215777499023" lon="8.864294468241432"><ele>327.75</ele><time>2026-04-25T14:08:58.999Z</time></trkpt><trkpt lat="45.782201173174485" lon="8.864478303578705"><ele>326.0</ele><time>2026-04-25T14:08:59.999Z</time></trkpt><trkpt lat="45.782237681113095" lon="8.864657759060963"><ele>326.0</ele><time>2026-04-25T14:09:00.999Z</time></trkpt><trkpt lat="45.7822744088008" lon="8.864826766866324"><ele>326.0</ele><time>2026-04-25T14:09:01.999Z</time></trkpt><trkpt lat="45.78230969646093" lon="8.864991718659025"><ele>326.0</ele><time>2026-04-25T14:09:02.999Z</time></trkpt><trkpt lat="45.78234261207788" lon="8.865154789792685"><ele>326.0</ele><time>2026-04-25T14:09:03.999Z</time></trkpt><trkpt lat="45.78236480963162" lon="8.865314023355193"><ele>324.75</ele><time>2026-04-25T14:09:04.999Z</time></trkpt><trkpt lat="45.78237126055158" lon="8.865474501288602"><ele>323.5</ele><time>2026-04-25T14:09:05.999Z</time></trkpt><trkpt lat="45.78236031102132" lon="8.86563384372008"><ele>322.25</ele><time>2026-04-25T14:09:06.999Z</time></trkpt><trkpt lat="45.782318965022455" lon="8.865781080334996"><ele>321.0</ele><time>2026-04-25T14:09:07.999Z</time></trkpt><trkpt lat="45.78225388197891" lon="8.865925464950845"><ele>320.25</ele><time>2026-04-25T14:09:08.999Z</time></trkpt><trkpt lat="45.782166873028814" lon="8.866057444399857"><ele>319.5</ele><time>2026-04-25T14:09:09.999Z</time></trkpt><trkpt lat="45.78206263094016" lon="8.866175198782637"><ele>318.75</ele><time>2026-04-25T14:09:10.999Z</time></trkpt><trkpt lat="45.78193966106317" lon="8.866282395897846"><ele>318.0</ele><time>2026-04-25T14:09:11.999Z</time></trkpt><trkpt lat="45.78180065084558" lon="8.866370845140015"><ele>318.0</ele><time>2026-04-25T14:09:12.999Z</time></trkpt><trkpt lat="45.78168189419894" lon="8.86648947904376"><ele>318.0</ele><time>2026-04-25T14:09:13.999Z</time></trkpt><trkpt lat="45.78156813692917" lon="8.866590247513212"><ele>318.0</ele><time>2026-04-25T14:09:14.999Z</time></trkpt><trkpt lat="45.78145246856925" lon="8.866690093120647"><ele>318.0</ele><time>2026-04-25T14:09:15.999Z</time></trkpt><trkpt lat="45.781344673720966" lon="8.866778191168976"><ele>315.0</ele><time>2026-04-25T14:09:16.999Z</time></trkpt><trkpt lat="45.7812332493284" lon="8.866867208322764"><ele>312.0</ele><time>2026-04-25T14:09:17.999Z</time></trkpt><trkpt lat="45.781121157651334" lon="8.866935113486159"><ele>309.0</ele><time>2026-04-25T14:09:18.999Z</time></trkpt><trkpt lat="45.78099796507396" lon="8.866985280957259"><ele>306.0</ele><time>2026-04-25T14:09:19.999Z</time></trkpt><trkpt lat="45.78086479387899" lon="8.867017393723756"><ele>306.0</ele><time>2026-04-25T14:09:20.999Z</time></trkpt><trkpt lat="45.78072118701052" lon="8.867029745181734"><ele>306.0</ele><time>2026-04-25T14:09:21.999Z</time></trkpt><trkpt lat="45.780577999969005" lon="8.86700379141458"><ele>306.0</ele><time>2026-04-25T14:09:22.999Z</time></trkpt><trkpt lat="45.780436272906144" lon="8.866960682486809"><ele>306.0</ele><time>2026-04-25T14:09:23.999Z</time></trkpt><trkpt lat="45.78029805705319" lon="8.86689230143796"><ele>306.0</ele><time>2026-04-25T14:09:24.999Z</time></trkpt><trkpt lat="45.78016299299075" lon="8.866819655700622"><ele>306.0</ele><time>2026-04-25T14:09:25.999Z</time></trkpt><trkpt lat="45.780018413748245" lon="8.866755336523857"><ele>306.0</ele><time>2026-04-25T14:09:26.999Z</time></trkpt><trkpt lat="45.77985652652993" lon="8.86663437565655"><ele>307.3333333333333</ele><time>2026-04-25T14:09:27.999Z</time></trkpt><trkpt lat="45.77966756617552" lon="8.866523004998133"><ele>308.66666666666663</ele><time>2026-04-25T14:09:28.999Z</time></trkpt><trkpt lat="45.77948636048861" lon="8.8664180422978"><ele>310.0</ele><time>2026-04-25T14:09:29.999Z</time></trkpt><trkpt lat="45.77931492896266" lon="8.866350591983352"><ele>310.0</ele><time>2026-04-25T14:09:30.999Z</time></trkpt><trkpt lat="45.7791522174912" lon="8.866317302623385"><ele>310.0</ele><time>2026-04-25T14:09:31.999Z</time></trkpt><trkpt lat="45.77898473358535" lon="8.866318446965971"><ele>310.0</ele><time>2026-04-25T14:09:32.999Z</time></trkpt><trkpt lat="45.77880367342649" lon="8.866353082322115"><ele>310.0</ele><time>2026-04-25T14:09:33.999Z</time></trkpt><trkpt lat="45.77859119475613" lon="8.866430092941409"><ele>310.0</ele><time>2026-04-25T14:09:34.999Z</time></trkpt><trkpt lat="45.77837132876992" lon="8.866524789155665"><ele>310.0</ele><time>2026-04-25T14:09:35.999Z</time></trkpt><trkpt lat="45.77815368387181" lon="8.866605990679222"><ele>307.0</ele><time>2026-04-25T14:09:36.999Z</time></trkpt><trkpt lat="45.77796316498134" lon="8.866677775996463"><ele>304.0</ele><time>2026-04-25T14:09:37.999Z</time></trkpt><trkpt lat="45.777781036504045" lon="8.866744800918964"><ele>301.0</ele><time>2026-04-25T14:09:38.999Z</time></trkpt><trkpt lat="45.77760891109805" lon="8.86680577139971"><ele>296.3333333333333</ele><time>2026-04-25T14:09:39.999Z</time></trkpt><trkpt lat="45.77744342758427" lon="8.866865933099527"><ele>291.6666666666667</ele><time>2026-04-25T14:09:40.999Z</time></trkpt><trkpt lat="45.77728555707793" lon="8.866923626852168"><ele>287.0</ele><time>2026-04-25T14:09:41.999Z</time></trkpt><trkpt lat="45.77713247338902" lon="8.86698202876513"><ele>287.0</ele><time>2026-04-25T14:09:42.999Z</time></trkpt><trkpt lat="45.77698124135167" lon="8.867038089083653"><ele>287.0</ele><time>2026-04-25T14:09:43.999Z</time></trkpt><trkpt lat="45.77682907632181" lon="8.867084775196483"><ele>287.0</ele><time>2026-04-25T14:09:44.999Z</time></trkpt><trkpt lat="45.7766652333484" lon="8.867128161064874"><ele>286.25</ele><time>2026-04-25T14:09:45.999Z</time></trkpt><trkpt lat="45.77651289322354" lon="8.867145268143531"><ele>285.5</ele><time>2026-04-25T14:09:46.999Z</time></trkpt><trkpt lat="45.77637173230925" lon="8.86720955808648"><ele>284.75</ele><time>2026-04-25T14:09:47.999Z</time></trkpt><trkpt lat="45.776243324298264" lon="8.867258377901342"><ele>284.0</ele><time>2026-04-25T14:09:48.999Z</time></trkpt><trkpt lat="45.77611195898174" lon="8.867328772609063"><ele>282.75</ele><time>2026-04-25T14:09:49.999Z</time></trkpt><trkpt lat="45.776017232019726" lon="8.867450237748715"><ele>281.5</ele><time>2026-04-25T14:09:50.999Z</time></trkpt><trkpt lat="45.775946628372544" lon="8.867609809499784"><ele>280.25</ele><time>2026-04-25T14:09:51.999Z</time></trkpt><trkpt lat="45.77592997299559" lon="8.867797100130922"><ele>279.0</ele><time>2026-04-25T14:09:52.999Z</time></trkpt><trkpt lat="45.77590765525244" lon="8.867941972651062"><ele>279.0</ele><time>2026-04-25T14:09:53.999Z</time></trkpt><trkpt lat="45.77594049982705" lon="8.868107050930798"><ele>279.0</ele><time>2026-04-25T14:09:54.999Z</time></trkpt><trkpt lat="45.776004780289604" lon="8.868258261183376"><ele>279.0</ele><time>2026-04-25T14:09:55.999Z</time></trkpt><trkpt lat="45.7760844531699" lon="8.868411710945793"><ele>279.0</ele><time>2026-04-25T14:09:56.999Z</time></trkpt><trkpt lat="45.776160257145335" lon="8.868543226729589"><ele>279.1666666666667</ele><time>2026-04-25T14:09:57.999Z</time></trkpt><trkpt lat="45.77622126664588" lon="8.868659883599848"><ele>279.3333333333333</ele><time>2026-04-25T14:09:58.999Z</time></trkpt><trkpt lat="45.776277016835635" lon="8.868763503593925"><ele>279.5</ele><time>2026-04-25T14:09:59.999Z</time></trkpt><trkpt lat="45.776320073595684" lon="8.868846315416711"><ele>279.66666666666663</ele><time>2026-04-25T14:10:00.999Z</time></trkpt><trkpt lat="45.77636258696823" lon="8.86892860530883"><ele>279.8333333333333</ele><time>2026-04-25T14:10:01.999Z</time></trkpt><trkpt lat="45.7764039441916" lon="8.869012001097957"><ele>280.0</ele><time>2026-04-25T14:10:02.999Z</time></trkpt><trkpt lat="45.77644292202353" lon="8.869087289390002"><ele>280.0</ele><time>2026-04-25T14:10:03.999Z</time></trkpt><trkpt lat="45.77648085756994" lon="8.869165608399182"><ele>280.0</ele><time>2026-04-25T14:10:04.999Z</time></trkpt><trkpt lat="45.77648770438142" lon="8.869326065990936"><ele>280.0</ele><time>2026-04-25T14:10:06.999Z</time></trkpt><trkpt lat="45.77640807404907" lon="8.8694506215033"><ele>280.0</ele><time>2026-04-25T14:10:08.999Z</time></trkpt><trkpt lat="45.776340441790204" lon="8.869491377381816"><ele>280.0</ele><time>2026-04-25T14:10:09.999Z</time></trkpt><trkpt lat="45.77625391115666" lon="8.86951380895903"><ele>280.2</ele><time>2026-04-25T14:10:10.999Z</time></trkpt><trkpt lat="45.776162453030054" lon="8.869559991928773"><ele>280.4</ele><time>2026-04-25T14:10:11.999Z</time></trkpt><trkpt lat="45.77607738238112" lon="8.869651525277868"><ele>280.6</ele><time>2026-04-25T14:10:12.999Z</time></trkpt><trkpt lat="45.77602400338797" lon="8.869774469590972"><ele>280.8</ele><time>2026-04-25T14:10:13.999Z</time></trkpt><trkpt lat="45.77600759966505" lon="8.869910744628834"><ele>281.0</ele><time>2026-04-25T14:10:14.999Z</time></trkpt><trkpt lat="45.77601028490152" lon="8.870109960596265"><ele>281.5</ele><time>2026-04-25T14:10:15.999Z</time></trkpt><trkpt lat="45.775989184377465" lon="8.870274934223378"><ele>282.0</ele><time>2026-04-25T14:10:16.999Z</time></trkpt><trkpt lat="45.77592378660841" lon="8.87041053115768"><ele>282.5</ele><time>2026-04-25T14:10:17.999Z</time></trkpt><trkpt lat="45.775820983024936" lon="8.870531199166187"><ele>283.0</ele><time>2026-04-25T14:10:18.999Z</time></trkpt><trkpt lat="45.77570602732344" lon="8.870661114232878"><ele>283.0</ele><time>2026-04-25T14:10:19.999Z</time></trkpt><trkpt lat="45.77558115559118" lon="8.870790913580116"><ele>283.0</ele><time>2026-04-25T14:10:20.999Z</time></trkpt><trkpt lat="45.77544645761662" lon="8.870921348346057"><ele>283.0</ele><time>2026-04-25T14:10:21.999Z</time></trkpt><trkpt lat="45.775314018802206" lon="8.871047751600187"><ele>284.0</ele><time>2026-04-25T14:10:22.999Z</time></trkpt><trkpt lat="45.77517420081652" lon="8.871150995205285"><ele>285.0</ele><time>2026-04-25T14:10:23.999Z</time></trkpt><trkpt lat="45.77504172510045" lon="8.871274866281068"><ele>286.0</ele><time>2026-04-25T14:10:24.999Z</time></trkpt><trkpt lat="45.77490689315773" lon="8.871397681645263"><ele>286.0</ele><time>2026-04-25T14:10:25.999Z</time></trkpt><trkpt lat="45.77478585375996" lon="8.871507638832274"><ele>286.0</ele><time>2026-04-25T14:10:26.999Z</time></trkpt><trkpt lat="45.774685078728076" lon="8.871625807823152"><ele>286.0</ele><time>2026-04-25T14:10:27.999Z</time></trkpt><trkpt lat="45.77457672158245" lon="8.871722741460493"><ele>286.0</ele><time>2026-04-25T14:10:28.999Z</time></trkpt><trkpt lat="45.77446823930443" lon="8.87182594239159"><ele>286.0</ele><time>2026-04-25T14:10:29.999Z</time></trkpt><trkpt lat="45.774363485838194" lon="8.871936871679981"><ele>286.0</ele><time>2026-04-25T14:10:30.999Z</time></trkpt><trkpt lat="45.77428581410944" lon="8.872068710341708"><ele>286.0</ele><time>2026-04-25T14:10:31.999Z</time></trkpt><trkpt lat="45.774245464397076" lon="8.872220939350164"><ele>286.0</ele><time>2026-04-25T14:10:32.999Z</time></trkpt><trkpt lat="45.77423924866625" lon="8.87239579172454"><ele>286.0</ele><time>2026-04-25T14:10:33.999Z</time></trkpt><trkpt lat="45.774243411009635" lon="8.872575918551037"><ele>286.0</ele><time>2026-04-25T14:10:34.999Z</time></trkpt><trkpt lat="45.77423808707101" lon="8.872757860315053"><ele>286.0</ele><time>2026-04-25T14:10:35.999Z</time></trkpt><trkpt lat="45.77420953062376" lon="8.872921586323743"><ele>286.0</ele><time>2026-04-25T14:10:36.999Z</time></trkpt><trkpt lat="45.77418651720791" lon="8.873063357927794"><ele>287.6</ele><time>2026-04-25T14:10:37.999Z</time></trkpt><trkpt lat="45.77414476120829" lon="8.873187966154244"><ele>289.20000000000005</ele><time>2026-04-25T14:10:38.999Z</time></trkpt><trkpt lat="45.774089781026305" lon="8.873283029479019"><ele>290.79999999999995</ele><time>2026-04-25T14:10:39.999Z</time></trkpt><trkpt lat="45.77402214714807" lon="8.873352186150077"><ele>292.4</ele><time>2026-04-25T14:10:40.999Z</time></trkpt><trkpt lat="45.773937851916266" lon="8.873408864358133"><ele>294.0</ele><time>2026-04-25T14:10:41.999Z</time></trkpt><trkpt lat="45.773826550356276" lon="8.873464295768727"><ele>299.6666666666667</ele><time>2026-04-25T14:10:42.999Z</time></trkpt><trkpt lat="45.773672433592985" lon="8.873519859009466"><ele>305.33333333333337</ele><time>2026-04-25T14:10:43.999Z</time></trkpt><trkpt lat="45.77348838633923" lon="8.873576275117607"><ele>311.0</ele><time>2026-04-25T14:10:44.999Z</time></trkpt><trkpt lat="45.77328451446262" lon="8.873642940900302"><ele>311.33333333333337</ele><time>2026-04-25T14:10:45.999Z</time></trkpt><trkpt lat="45.773110787463864" lon="8.873722064964777"><ele>311.6666666666667</ele><time>2026-04-25T14:10:46.999Z</time></trkpt><trkpt lat="45.77295521110825" lon="8.873772772449168"><ele>312.0</ele><time>2026-04-25T14:10:47.999Z</time></trkpt><trkpt lat="45.77276192255388" lon="8.873816198652149"><ele>313.0</ele><time>2026-04-25T14:10:48.999Z</time></trkpt><trkpt lat="45.772532705192596" lon="8.873892311230657"><ele>314.0</ele><time>2026-04-25T14:10:49.999Z</time></trkpt><trkpt lat="45.772285829869084" lon="8.873974783097298"><ele>314.0</ele><time>2026-04-25T14:10:50.999Z</time></trkpt><trkpt lat="45.77205042701355" lon="8.874075285402558"><ele>314.0</ele><time>2026-04-25T14:10:51.999Z</time></trkpt><trkpt lat="45.77183465404153" lon="8.874146418857062"><ele>313.33333333333337</ele><time>2026-04-25T14:10:52.999Z</time></trkpt><trkpt lat="45.77163666974225" lon="8.874210154914227"><ele>312.6666666666667</ele><time>2026-04-25T14:10:53.999Z</time></trkpt><trkpt lat="45.77145008996173" lon="8.874272885722933"><ele>312.0</ele><time>2026-04-25T14:10:54.999Z</time></trkpt><trkpt lat="45.7712720088762" lon="8.87432433794522"><ele>322.6666666666667</ele><time>2026-04-25T14:10:55.999Z</time></trkpt><trkpt lat="45.7711049242667" lon="8.87436268544233"><ele>333.33333333333337</ele><time>2026-04-25T14:10:56.999Z</time></trkpt><trkpt lat="45.77093970887861" lon="8.874333491448683"><ele>344.0</ele><time>2026-04-25T14:10:57.999Z</time></trkpt><trkpt lat="45.77075578825144" lon="8.874317251130341"><ele>344.6666666666667</ele><time>2026-04-25T14:10:58.999Z</time></trkpt><trkpt lat="45.770563744966" lon="8.874298762178585"><ele>345.3333333333333</ele><time>2026-04-25T14:10:59.999Z</time></trkpt><trkpt lat="45.77035909346597" lon="8.874284459986367"><ele>346.0</ele><time>2026-04-25T14:11:00.999Z</time></trkpt><trkpt lat="45.770173911220226" lon="8.874296475631203"><ele>347.66666666666663</ele><time>2026-04-25T14:11:01.999Z</time></trkpt><trkpt lat="45.770012011067344" lon="8.874285954835337"><ele>349.3333333333333</ele><time>2026-04-25T14:11:02.999Z</time></trkpt><trkpt lat="45.769855550250675" lon="8.874283264594572"><ele>351.0</ele><time>2026-04-25T14:11:03.999Z</time></trkpt><trkpt lat="45.769703402868565" lon="8.874277887293378"><ele>351.0</ele><time>2026-04-25T14:11:04.999Z</time></trkpt><trkpt lat="45.76955477215825" lon="8.874275072777133"><ele>351.0</ele><time>2026-04-25T14:11:05.999Z</time></trkpt><trkpt lat="45.769419388693294" lon="8.87425078617532"><ele>351.0</ele><time>2026-04-25T14:11:06.999Z</time></trkpt><trkpt lat="45.76930183990537" lon="8.874254161900328"><ele>351.0</ele><time>2026-04-25T14:11:07.999Z</time></trkpt><trkpt lat="45.76918800567614" lon="8.874257646087498"><ele>344.6</ele><time>2026-04-25T14:11:08.999Z</time></trkpt><trkpt lat="45.7690730308347" lon="8.874260216634648"><ele>338.20000000000005</ele><time>2026-04-25T14:11:09.999Z</time></trkpt><trkpt lat="45.768963369613864" lon="8.8742596525849"><ele>331.79999999999995</ele><time>2026-04-25T14:11:10.999Z</time></trkpt><trkpt lat="45.76887255986245" lon="8.874256782483123"><ele>325.4</ele><time>2026-04-25T14:11:11.999Z</time></trkpt><trkpt lat="45.768793286815146" lon="8.874269877685325"><ele>319.0</ele><time>2026-04-25T14:11:12.999Z</time></trkpt><trkpt lat="45.7687199541086" lon="8.8742436094146"><ele>319.0</ele><time>2026-04-25T14:11:13.999Z</time></trkpt><trkpt lat="45.76865508658712" lon="8.874205323079694"><ele>319.0</ele><time>2026-04-25T14:11:14.999Z</time></trkpt><trkpt lat="45.768586303843236" lon="8.874151124363927"><ele>319.0</ele><time>2026-04-25T14:11:15.999Z</time></trkpt><trkpt lat="45.768508610622966" lon="8.874086335234287"><ele>319.0</ele><time>2026-04-25T14:11:16.999Z</time></trkpt><trkpt lat="45.76843352892319" lon="8.874036470696547"><ele>319.0</ele><time>2026-04-25T14:11:17.999Z</time></trkpt><trkpt lat="45.76834931140693" lon="8.874041336191887"><ele>319.0</ele><time>2026-04-25T14:11:18.999Z</time></trkpt><trkpt lat="45.76826779772914" lon="8.874123822258152"><ele>318.75</ele><time>2026-04-25T14:11:19.999Z</time></trkpt><trkpt lat="45.7681688576284" lon="8.874245698044781"><ele>318.5</ele><time>2026-04-25T14:11:20.999Z</time></trkpt><trkpt lat="45.76803493686895" lon="8.874337734216171"><ele>318.25</ele><time>2026-04-25T14:11:21.999Z</time></trkpt><trkpt lat="45.767877475835405" lon="8.87433520751073"><ele>318.0</ele><time>2026-04-25T14:11:22.999Z</time></trkpt><trkpt lat="45.76770384978212" lon="8.874359519223281"><ele>324.0</ele><time>2026-04-25T14:11:23.999Z</time></trkpt><trkpt lat="45.76751706657524" lon="8.874415726081228"><ele>330.0</ele><time>2026-04-25T14:11:24.999Z</time></trkpt><trkpt lat="45.76734237996995" lon="8.87446815336125"><ele>336.0</ele><time>2026-04-25T14:11:25.999Z</time></trkpt><trkpt lat="45.767189547004925" lon="8.874538618087609"><ele>336.0</ele><time>2026-04-25T14:11:26.999Z</time></trkpt><trkpt lat="45.76705543264674" lon="8.874607098597169"><ele>336.0</ele><time>2026-04-25T14:11:27.999Z</time></trkpt><trkpt lat="45.76693601298218" lon="8.874673660994691"><ele>336.0</ele><time>2026-04-25T14:11:28.999Z</time></trkpt><trkpt lat="45.76682158525592" lon="8.874710391652377"><ele>336.0</ele><time>2026-04-25T14:11:29.999Z</time></trkpt><trkpt lat="45.766719515802066" lon="8.874760096343394"><ele>334.6</ele><time>2026-04-25T14:11:30.999Z</time></trkpt><trkpt lat="45.766625198890154" lon="8.874806167752125"><ele>333.20000000000005</ele><time>2026-04-25T14:11:31.999Z</time></trkpt><trkpt lat="45.76653585151842" lon="8.874850597611443"><ele>331.79999999999995</ele><time>2026-04-25T14:11:32.999Z</time></trkpt><trkpt lat="45.766438129884875" lon="8.874899191725577"><ele>330.4</ele><time>2026-04-25T14:11:33.999Z</time></trkpt><trkpt lat="45.76631212068852" lon="8.874961852429168"><ele>329.0</ele><time>2026-04-25T14:11:34.999Z</time></trkpt><trkpt lat="45.76616200003683" lon="8.87503102682528"><ele>333.0</ele><time>2026-04-25T14:11:35.999Z</time></trkpt><trkpt lat="45.765994943811165" lon="8.875108642877002"><ele>337.0</ele><time>2026-04-25T14:11:36.999Z</time></trkpt><trkpt lat="45.76580903501806" lon="8.875202805649977"><ele>341.0</ele><time>2026-04-25T14:11:37.999Z</time></trkpt><trkpt lat="45.76562062565399" lon="8.87532526002685"><ele>341.0</ele><time>2026-04-25T14:11:38.999Z</time></trkpt><trkpt lat="45.76542490347487" lon="8.87542946001943"><ele>341.0</ele><time>2026-04-25T14:11:39.999Z</time></trkpt><trkpt lat="45.76521960304267" lon="8.875539978237242"><ele>341.0</ele><time>2026-04-25T14:11:40.999Z</time></trkpt><trkpt lat="45.76502128367762" lon="8.875645570403277"><ele>342.33333333333337</ele><time>2026-04-25T14:11:41.999Z</time></trkpt><trkpt lat="45.7648392490677" lon="8.87575221096635"><ele>343.6666666666667</ele><time>2026-04-25T14:11:42.999Z</time></trkpt><trkpt lat="45.764648751691105" lon="8.87588687286227"><ele>345.0</ele><time>2026-04-25T14:11:43.999Z</time></trkpt><trkpt lat="45.764457289595995" lon="8.876022906881136"><ele>342.3333333333333</ele><time>2026-04-25T14:11:44.999Z</time></trkpt><trkpt lat="45.76429379848663" lon="8.87614323196163"><ele>339.66666666666663</ele><time>2026-04-25T14:11:45.999Z</time></trkpt><trkpt lat="45.76413890031786" lon="8.87625964587842"><ele>337.0</ele><time>2026-04-25T14:11:46.999Z</time></trkpt><trkpt lat="45.76398621262229" lon="8.876356234337734"><ele>337.0</ele><time>2026-04-25T14:11:47.999Z</time></trkpt><trkpt lat="45.76382348585677" lon="8.876398754778313"><ele>337.0</ele><time>2026-04-25T14:11:48.999Z</time></trkpt><trkpt lat="45.76364334018073" lon="8.876394838042803"><ele>337.0</ele><time>2026-04-25T14:11:49.999Z</time></trkpt><trkpt lat="45.763429928646026" lon="8.876330499443633"><ele>334.0</ele><time>2026-04-25T14:11:50.999Z</time></trkpt><trkpt lat="45.76317688911613" lon="8.876293527397518"><ele>331.0</ele><time>2026-04-25T14:11:51.999Z</time></trkpt><trkpt lat="45.76293737203767" lon="8.876243031185993"><ele>331.0</ele><time>2026-04-25T14:11:52.999Z</time></trkpt><trkpt lat="45.76270425615521" lon="8.876202191954908"><ele>331.0</ele><time>2026-04-25T14:11:53.999Z</time></trkpt><trkpt lat="45.76245219090536" lon="8.876156093115092"><ele>331.0</ele><time>2026-04-25T14:11:54.999Z</time></trkpt><trkpt lat="45.76221455622647" lon="8.876104003311175"><ele>331.0</ele><time>2026-04-25T14:11:55.999Z</time></trkpt><trkpt lat="45.76199912790911" lon="8.876061135290778"><ele>329.66666666666663</ele><time>2026-04-25T14:11:56.999Z</time></trkpt><trkpt lat="45.76179282225277" lon="8.87602597949168"><ele>328.3333333333333</ele><time>2026-04-25T14:11:57.999Z</time></trkpt><trkpt lat="45.76157101304966" lon="8.875982794749406"><ele>327.0</ele><time>2026-04-25T14:11:58.999Z</time></trkpt><trkpt lat="45.76134848574446" lon="8.875937235545775"><ele>325.5</ele><time>2026-04-25T14:11:59.999Z</time></trkpt><trkpt lat="45.76112389279321" lon="8.875889442357087"><ele>324.0</ele><time>2026-04-25T14:12:00.999Z</time></trkpt><trkpt lat="45.760903288175435" lon="8.875846385107248"><ele>323.6666666666667</ele><time>2026-04-25T14:12:01.999Z</time></trkpt><trkpt lat="45.760683914546746" lon="8.875805204163123"><ele>323.33333333333337</ele><time>2026-04-25T14:12:02.999Z</time></trkpt><trkpt lat="45.760462501267334" lon="8.875762245351869"><ele>323.0</ele><time>2026-04-25T14:12:03.999Z</time></trkpt><trkpt lat="45.76024714763279" lon="8.875719755754094"><ele>324.0</ele><time>2026-04-25T14:12:04.999Z</time></trkpt><trkpt lat="45.76002842554006" lon="8.875675568445095"><ele>325.0</ele><time>2026-04-25T14:12:05.999Z</time></trkpt><trkpt lat="45.7598107560638" lon="8.87563144674273"><ele>326.0</ele><time>2026-04-25T14:12:06.999Z</time></trkpt><trkpt lat="45.759597469877384" lon="8.875590545221899"><ele>326.0</ele><time>2026-04-25T14:12:07.999Z</time></trkpt><trkpt lat="45.7594013846746" lon="8.875557693252258"><ele>326.0</ele><time>2026-04-25T14:12:08.999Z</time></trkpt><trkpt lat="45.759219406991846" lon="8.875522989107365"><ele>326.0</ele><time>2026-04-25T14:12:09.999Z</time></trkpt><trkpt lat="45.7590543648128" lon="8.875467277650984"><ele>326.0</ele><time>2026-04-25T14:12:10.999Z</time></trkpt><trkpt lat="45.75889981476695" lon="8.875443114897461"><ele>326.0</ele><time>2026-04-25T14:12:11.999Z</time></trkpt><trkpt lat="45.75875357313991" lon="8.875427192430928"><ele>326.0</ele><time>2026-04-25T14:12:12.999Z</time></trkpt><trkpt lat="45.75861463194682" lon="8.87545089012588"><ele>326.0</ele><time>2026-04-25T14:12:13.999Z</time></trkpt><trkpt lat="45.758486200520046" lon="8.875472656362456"><ele>326.0</ele><time>2026-04-25T14:12:14.999Z</time></trkpt><trkpt lat="45.75835467392384" lon="8.875514376613687"><ele>326.0</ele><time>2026-04-25T14:12:15.999Z</time></trkpt><trkpt lat="45.75820138119689" lon="8.87553935015793"><ele>326.0</ele><time>2026-04-25T14:12:16.999Z</time></trkpt><trkpt lat="45.75803152214181" lon="8.875613745317656"><ele>326.0</ele><time>2026-04-25T14:12:17.999Z</time></trkpt><trkpt lat="45.7578378044711" lon="8.87567037894085"><ele>326.0</ele><time>2026-04-25T14:12:18.999Z</time></trkpt><trkpt lat="45.75760975376355" lon="8.875750668674366"><ele>326.0</ele><time>2026-04-25T14:12:19.999Z</time></trkpt><trkpt lat="45.757369447062196" lon="8.875837749513714"><ele>326.0</ele><time>2026-04-25T14:12:20.999Z</time></trkpt><trkpt lat="45.757159274863795" lon="8.875914404527032"><ele>326.0</ele><time>2026-04-25T14:12:21.999Z</time></trkpt><trkpt lat="45.756963023938596" lon="8.875987667694538"><ele>326.0</ele><time>2026-04-25T14:12:22.999Z</time></trkpt><trkpt lat="45.75673373939879" lon="8.876067525870901"><ele>326.6666666666667</ele><time>2026-04-25T14:12:23.999Z</time></trkpt><trkpt lat="45.75650457538736" lon="8.876146294204656"><ele>327.3333333333333</ele><time>2026-04-25T14:12:24.999Z</time></trkpt><trkpt lat="45.7563092331138" lon="8.876200922799178"><ele>328.0</ele><time>2026-04-25T14:12:25.999Z</time></trkpt><trkpt lat="45.75611743922811" lon="8.876249835398779"><ele>326.66666666666663</ele><time>2026-04-25T14:12:26.999Z</time></trkpt><trkpt lat="45.75594036787894" lon="8.876299330501954"><ele>325.3333333333333</ele><time>2026-04-25T14:12:27.999Z</time></trkpt><trkpt lat="45.75577983298191" lon="8.876353419637327"><ele>324.0</ele><time>2026-04-25T14:12:28.999Z</time></trkpt><trkpt lat="45.75565137672748" lon="8.876396497518577"><ele>324.0</ele><time>2026-04-25T14:12:29.999Z</time></trkpt><trkpt lat="45.75555177331185" lon="8.876429994323933"><ele>324.0</ele><time>2026-04-25T14:12:30.999Z</time></trkpt><trkpt lat="45.755473272902044" lon="8.876456042773123"><ele>324.0</ele><time>2026-04-25T14:12:31.999Z</time></trkpt><trkpt lat="45.75539995846642" lon="8.876480755337738"><ele>324.0</ele><time>2026-04-25T14:12:33.999Z</time></trkpt><trkpt lat="45.75531385456567" lon="8.876529712915898"><ele>324.0</ele><time>2026-04-25T14:13:09.999Z</time></trkpt><trkpt lat="45.75521785463171" lon="8.876555518973719"><ele>324.0</ele><time>2026-04-25T14:13:10.999Z</time></trkpt><trkpt lat="45.75509749787912" lon="8.876596867169466"><ele>324.0</ele><time>2026-04-25T14:13:11.999Z</time></trkpt><trkpt lat="45.75494496117052" lon="8.87664841654847"><ele>324.0</ele><time>2026-04-25T14:13:12.999Z</time></trkpt><trkpt lat="45.75478870684958" lon="8.876702193998513"><ele>324.0</ele><time>2026-04-25T14:13:13.999Z</time></trkpt><trkpt lat="45.75461937633015" lon="8.876757408317337"><ele>323.3333333333333</ele><time>2026-04-25T14:13:14.999Z</time></trkpt><trkpt lat="45.75444600481002" lon="8.87681513969727"><ele>322.66666666666663</ele><time>2026-04-25T14:13:15.999Z</time></trkpt><trkpt lat="45.75426870100095" lon="8.876871923374495"><ele>322.0</ele><time>2026-04-25T14:13:16.999Z</time></trkpt><trkpt lat="45.75409772874211" lon="8.876930737176751"><ele>322.0</ele><time>2026-04-25T14:13:17.999Z</time></trkpt><trkpt lat="45.75392555661365" lon="8.876992065156434"><ele>322.0</ele><time>2026-04-25T14:13:18.999Z</time></trkpt><trkpt lat="45.75375205439045" lon="8.87705433181363"><ele>322.0</ele><time>2026-04-25T14:13:19.999Z</time></trkpt><trkpt lat="45.75358094690529" lon="8.877110832543194"><ele>321.66666666666663</ele><time>2026-04-25T14:13:20.999Z</time></trkpt><trkpt lat="45.753422212891614" lon="8.87716584778143"><ele>321.3333333333333</ele><time>2026-04-25T14:13:21.999Z</time></trkpt><trkpt lat="45.75326742189583" lon="8.877216551412687"><ele>321.0</ele><time>2026-04-25T14:13:22.999Z</time></trkpt><trkpt lat="45.753121140527625" lon="8.877264897482776"><ele>321.0</ele><time>2026-04-25T14:13:23.999Z</time></trkpt><trkpt lat="45.752987436026054" lon="8.877308449495063"><ele>321.0</ele><time>2026-04-25T14:13:24.999Z</time></trkpt><trkpt lat="45.75286462121151" lon="8.877348648137538"><ele>321.0</ele><time>2026-04-25T14:13:25.999Z</time></trkpt><trkpt lat="45.75274497742144" lon="8.877389279019434"><ele>321.0</ele><time>2026-04-25T14:13:26.999Z</time></trkpt><trkpt lat="45.752617678107235" lon="8.877432929258914"><ele>321.0</ele><time>2026-04-25T14:13:27.999Z</time></trkpt><trkpt lat="45.752490349108186" lon="8.877478546807623"><ele>321.0</ele><time>2026-04-25T14:13:28.999Z</time></trkpt><trkpt lat="45.75237060198324" lon="8.87750624791916"><ele>321.0</ele><time>2026-04-25T14:13:29.999Z</time></trkpt><trkpt lat="45.75225797584474" lon="8.877554663711036"><ele>321.0</ele><time>2026-04-25T14:13:30.999Z</time></trkpt><trkpt lat="45.752161114005865" lon="8.877589366199578"><ele>321.0</ele><time>2026-04-25T14:13:31.999Z</time></trkpt><trkpt lat="45.7520735661901" lon="8.877621289579773"><ele>321.0</ele><time>2026-04-25T14:13:32.999Z</time></trkpt><trkpt lat="45.751991934320515" lon="8.877649531397177"><ele>321.0</ele><time>2026-04-25T14:13:33.999Z</time></trkpt><trkpt lat="45.751913293979925" lon="8.877678077566669"><ele>321.0</ele><time>2026-04-25T14:13:34.999Z</time></trkpt><trkpt lat="45.75182052780961" lon="8.877709861464787"><ele>321.0</ele><time>2026-04-25T14:13:35.999Z</time></trkpt><trkpt lat="45.751709622033445" lon="8.877744708830264"><ele>320.75</ele><time>2026-04-25T14:13:36.999Z</time></trkpt><trkpt lat="45.75159318286127" lon="8.877785948791239"><ele>320.5</ele><time>2026-04-25T14:13:37.999Z</time></trkpt><trkpt lat="45.75146715780661" lon="8.877811536974654"><ele>320.25</ele><time>2026-04-25T14:13:38.999Z</time></trkpt><trkpt lat="45.75133584992384" lon="8.87787811513297"><ele>320.0</ele><time>2026-04-25T14:13:39.999Z</time></trkpt><trkpt lat="45.75119250601167" lon="8.877926886145373"><ele>320.0</ele><time>2026-04-25T14:13:40.999Z</time></trkpt><trkpt lat="45.751041245826585" lon="8.8779561794032"><ele>320.0</ele><time>2026-04-25T14:13:41.999Z</time></trkpt><trkpt lat="45.750867729043804" lon="8.878039646670436"><ele>320.0</ele><time>2026-04-25T14:13:42.999Z</time></trkpt><trkpt lat="45.75068419545604" lon="8.878078231537593"><ele>319.6666666666667</ele><time>2026-04-25T14:13:43.999Z</time></trkpt><trkpt lat="45.75051364596556" lon="8.878136289496494"><ele>319.3333333333333</ele><time>2026-04-25T14:13:44.999Z</time></trkpt><trkpt lat="45.75035006934433" lon="8.878191617336748"><ele>319.0</ele><time>2026-04-25T14:13:45.999Z</time></trkpt><trkpt lat="45.75019810734211" lon="8.878266445258458"><ele>318.75</ele><time>2026-04-25T14:13:46.999Z</time></trkpt><trkpt lat="45.75005059608927" lon="8.878309466433633"><ele>318.5</ele><time>2026-04-25T14:13:47.999Z</time></trkpt><trkpt lat="45.74991827171004" lon="8.87835747537112"><ele>318.25</ele><time>2026-04-25T14:13:48.999Z</time></trkpt><trkpt lat="45.74980128058637" lon="8.878401869242982"><ele>318.0</ele><time>2026-04-25T14:13:49.999Z</time></trkpt><trkpt lat="45.74969066596358" lon="8.878440128295678"><ele>318.0</ele><time>2026-04-25T14:13:50.999Z</time></trkpt><trkpt lat="45.749562952759206" lon="8.878455622887316"><ele>318.0</ele><time>2026-04-25T14:13:51.999Z</time></trkpt><trkpt lat="45.749452240852726" lon="8.878492516684663"><ele>318.0</ele><time>2026-04-25T14:13:52.999Z</time></trkpt><trkpt lat="45.74935981094462" lon="8.878540973826192"><ele>318.0</ele><time>2026-04-25T14:13:53.999Z</time></trkpt><trkpt lat="45.7492591208026" lon="8.878574705875913"><ele>318.0</ele><time>2026-04-25T14:13:54.999Z</time></trkpt><trkpt lat="45.74914907116521" lon="8.878613957356915"><ele>317.5</ele><time>2026-04-25T14:13:55.999Z</time></trkpt><trkpt lat="45.749025759558506" lon="8.878658250628478"><ele>317.0</ele><time>2026-04-25T14:13:56.999Z</time></trkpt><trkpt lat="45.74889312654031" lon="8.87870371362119"><ele>316.5</ele><time>2026-04-25T14:13:57.999Z</time></trkpt><trkpt lat="45.7487545977969" lon="8.87875212982492"><ele>316.0</ele><time>2026-04-25T14:13:58.999Z</time></trkpt><trkpt lat="45.748631671035824" lon="8.8787928907497"><ele>315.75</ele><time>2026-04-25T14:13:59.999Z</time></trkpt><trkpt lat="45.748516377479945" lon="8.878825985799025"><ele>315.5</ele><time>2026-04-25T14:14:00.999Z</time></trkpt><trkpt lat="45.74840023235158" lon="8.87886463311586"><ele>315.25</ele><time>2026-04-25T14:14:01.999Z</time></trkpt><trkpt lat="45.74828142653299" lon="8.878904591607178"><ele>315.0</ele><time>2026-04-25T14:14:02.999Z</time></trkpt><trkpt lat="45.748168424217646" lon="8.878947008336448"><ele>315.0</ele><time>2026-04-25T14:14:03.999Z</time></trkpt><trkpt lat="45.74805122779396" lon="8.87896542466309"><ele>315.0</ele><time>2026-04-25T14:14:05Z</time></trkpt><trkpt lat="45.74791331578263" lon="8.879012588465232"><ele>315.0</ele><time>2026-04-25T14:14:06Z</time></trkpt><trkpt lat="45.74772436064936" lon="8.879076039144545"><ele>315.0</ele><time>2026-04-25T14:14:07Z</time></trkpt><trkpt lat="45.74752417358797" lon="8.879163392841653"><ele>315.0</ele><time>2026-04-25T14:14:08Z</time></trkpt><trkpt lat="45.74733866674803" lon="8.879221288975959"><ele>315.0</ele><time>2026-04-25T14:14:09Z</time></trkpt><trkpt lat="45.74717427668578" lon="8.879276358014996"><ele>315.0</ele><time>2026-04-25T14:14:10Z</time></trkpt><trkpt lat="45.74702657706626" lon="8.87933139407816"><ele>315.0</ele><time>2026-04-25T14:14:11Z</time></trkpt><trkpt lat="45.746887798810384" lon="8.879377292540514"><ele>315.0</ele><time>2026-04-25T14:14:12Z</time></trkpt><trkpt lat="45.74675252732944" lon="8.879425651755941"><ele>315.0</ele><time>2026-04-25T14:14:13Z</time></trkpt><trkpt lat="45.746592421848824" lon="8.879478186153024"><ele>315.3333333333333</ele><time>2026-04-25T14:14:14Z</time></trkpt><trkpt lat="45.74641698987564" lon="8.87952578659922"><ele>315.66666666666663</ele><time>2026-04-25T14:14:15Z</time></trkpt><trkpt lat="45.7462602951065" lon="8.879565805817464"><ele>316.0</ele><time>2026-04-25T14:14:16Z</time></trkpt><trkpt lat="45.7461252229631" lon="8.879608927552132"><ele>316.0</ele><time>2026-04-25T14:14:16.999Z</time></trkpt><trkpt lat="45.74600014329838" lon="8.87965391568532"><ele>316.0</ele><time>2026-04-25T14:14:17.999Z</time></trkpt><trkpt lat="45.74588368686687" lon="8.879699937062375"><ele>316.0</ele><time>2026-04-25T14:14:18.999Z</time></trkpt><trkpt lat="45.74575077128183" lon="8.879742307761667"><ele>316.0</ele><time>2026-04-25T14:14:19.999Z</time></trkpt><trkpt lat="45.745610512847435" lon="8.879794030554608"><ele>316.0</ele><time>2026-04-25T14:14:20.999Z</time></trkpt><trkpt lat="45.745483048791435" lon="8.87983346464989"><ele>316.0</ele><time>2026-04-25T14:14:21.999Z</time></trkpt><trkpt lat="45.745357146320444" lon="8.879873310831849"><ele>316.0</ele><time>2026-04-25T14:14:22.999Z</time></trkpt><trkpt lat="45.74523175263926" lon="8.879914356678583"><ele>316.0</ele><time>2026-04-25T14:14:23.999Z</time></trkpt><trkpt lat="45.74511564036876" lon="8.879947391342563"><ele>315.66666666666663</ele><time>2026-04-25T14:14:24.999Z</time></trkpt><trkpt lat="45.74501397048744" lon="8.879976431330325"><ele>315.3333333333333</ele><time>2026-04-25T14:14:25.999Z</time></trkpt><trkpt lat="45.74491997392005" lon="8.880000148852313"><ele>315.0</ele><time>2026-04-25T14:14:26.999Z</time></trkpt><trkpt lat="45.74483162732026" lon="8.880016865426414"><ele>314.6666666666667</ele><time>2026-04-25T14:14:27.999Z</time></trkpt><trkpt lat="45.74474826498674" lon="8.880031282859942"><ele>314.33333333333337</ele><time>2026-04-25T14:14:28.999Z</time></trkpt><trkpt lat="45.74467562946614" lon="8.880039284095343"><ele>314.0</ele><time>2026-04-25T14:14:29.999Z</time></trkpt><trkpt lat="45.74460476478405" lon="8.880046205364797"><ele>314.0</ele><time>2026-04-25T14:14:30.999Z</time></trkpt><trkpt lat="45.74453269144202" lon="8.880038919506339"><ele>314.0</ele><time>2026-04-25T14:14:31.999Z</time></trkpt><trkpt lat="45.74445100942523" lon="8.880014840315058"><ele>314.0</ele><time>2026-04-25T14:14:32.999Z</time></trkpt><trkpt lat="45.74435574314502" lon="8.879981626128865"><ele>314.0</ele><time>2026-04-25T14:14:33.999Z</time></trkpt><trkpt lat="45.744265070271226" lon="8.879981009271473"><ele>314.0</ele><time>2026-04-25T14:14:34.999Z</time></trkpt><trkpt lat="45.744165303827046" lon="8.88003483581532"><ele>316.0</ele><time>2026-04-25T14:14:35.999Z</time></trkpt><trkpt lat="45.74404625840278" lon="8.880120622880147"><ele>318.0</ele><time>2026-04-25T14:14:36.999Z</time></trkpt><trkpt lat="45.743923268517456" lon="8.880139877725746"><ele>320.0</ele><time>2026-04-25T14:14:37.999Z</time></trkpt><trkpt lat="45.74380515818885" lon="8.880156372542174"><ele>322.0</ele><time>2026-04-25T14:14:38.999Z</time></trkpt><trkpt lat="45.74366266727863" lon="8.880176074812615"><ele>324.66666666666663</ele><time>2026-04-25T14:14:39.999Z</time></trkpt><trkpt lat="45.743494839263235" lon="8.880198178688604"><ele>327.3333333333333</ele><time>2026-04-25T14:14:40.999Z</time></trkpt><trkpt lat="45.743330330459465" lon="8.880217936568116"><ele>330.0</ele><time>2026-04-25T14:14:41.999Z</time></trkpt><trkpt lat="45.74318646218314" lon="8.880235215502346"><ele>330.0</ele><time>2026-04-25T14:14:42.999Z</time></trkpt><trkpt lat="45.74305201168976" lon="8.88025136330005"><ele>330.0</ele><time>2026-04-25T14:14:43.999Z</time></trkpt><trkpt lat="45.74288849077555" lon="8.88027068561569"><ele>330.0</ele><time>2026-04-25T14:14:44.999Z</time></trkpt><trkpt lat="45.74268795961345" lon="8.880290542757866"><ele>329.3333333333333</ele><time>2026-04-25T14:14:45.999Z</time></trkpt><trkpt lat="45.74249853448636" lon="8.880309300161926"><ele>328.66666666666663</ele><time>2026-04-25T14:14:46.999Z</time></trkpt><trkpt lat="45.74233991916043" lon="8.880328635682929"><ele>328.0</ele><time>2026-04-25T14:14:47.999Z</time></trkpt><trkpt lat="45.74220610752647" lon="8.880372943664307"><ele>328.0</ele><time>2026-04-25T14:14:48.999Z</time></trkpt><trkpt lat="45.74208507401797" lon="8.880392798483925"><ele>328.0</ele><time>2026-04-25T14:14:49.999Z</time></trkpt><trkpt lat="45.741983639216215" lon="8.880402532752651"><ele>328.0</ele><time>2026-04-25T14:14:50.999Z</time></trkpt><trkpt lat="45.741892799303805" lon="8.880375224793694"><ele>328.0</ele><time>2026-04-25T14:14:51.999Z</time></trkpt><trkpt lat="45.74180224944129" lon="8.88031276507718"><ele>328.0</ele><time>2026-04-25T14:14:52.999Z</time></trkpt><trkpt lat="45.74170534425818" lon="8.88023768743313"><ele>326.0</ele><time>2026-04-25T14:14:53.999Z</time></trkpt><trkpt lat="45.74159174582158" lon="8.88020894102717"><ele>324.0</ele><time>2026-04-25T14:14:54.999Z</time></trkpt><trkpt lat="45.741508942891855" lon="8.880271843119543"><ele>322.0</ele><time>2026-04-25T14:14:55.999Z</time></trkpt><trkpt lat="45.74142481763371" lon="8.88039949025603"><ele>320.0</ele><time>2026-04-25T14:14:56.999Z</time></trkpt><trkpt lat="45.74133484475041" lon="8.880599916452958"><ele>320.0</ele><time>2026-04-25T14:14:57.999Z</time></trkpt><trkpt lat="45.74121560052247" lon="8.88084446221979"><ele>320.0</ele><time>2026-04-25T14:14:58.999Z</time></trkpt><trkpt lat="45.74107841183733" lon="8.88105903215575"><ele>320.0</ele><time>2026-04-25T14:14:59.999Z</time></trkpt><trkpt lat="45.740951775452466" lon="8.881216296575234"><ele>319.0</ele><time>2026-04-25T14:15:00.999Z</time></trkpt><trkpt lat="45.74083205770006" lon="8.881347413126404"><ele>318.0</ele><time>2026-04-25T14:15:01.999Z</time></trkpt><trkpt lat="45.740714386030305" lon="8.881459862084876"><ele>317.0</ele><time>2026-04-25T14:15:02.999Z</time></trkpt><trkpt lat="45.74059753808052" lon="8.881557702450309"><ele>316.0</ele><time>2026-04-25T14:15:03.999Z</time></trkpt><trkpt lat="45.740489382959915" lon="8.881649299265266"><ele>316.0</ele><time>2026-04-25T14:15:04.999Z</time></trkpt><trkpt lat="45.7403735200054" lon="8.881754499937118"><ele>316.0</ele><time>2026-04-25T14:15:05.999Z</time></trkpt><trkpt lat="45.740264176567386" lon="8.881854858949003"><ele>316.0</ele><time>2026-04-25T14:15:06.999Z</time></trkpt><trkpt lat="45.7401652263791" lon="8.881934697639881"><ele>316.0</ele><time>2026-04-25T14:15:07.999Z</time></trkpt><trkpt lat="45.740076732936124" lon="8.882009227731094"><ele>316.5</ele><time>2026-04-25T14:15:08.999Z</time></trkpt><trkpt lat="45.739990974114534" lon="8.882080976941772"><ele>317.0</ele><time>2026-04-25T14:15:09.999Z</time></trkpt><trkpt lat="45.73989503338766" lon="8.882152559021707"><ele>317.5</ele><time>2026-04-25T14:15:10.999Z</time></trkpt><trkpt lat="45.73978719770014" lon="8.882227667607117"><ele>318.0</ele><time>2026-04-25T14:15:11.999Z</time></trkpt><trkpt lat="45.73966553677506" lon="8.882263525029897"><ele>318.0</ele><time>2026-04-25T14:15:12.999Z</time></trkpt><trkpt lat="45.739540095640606" lon="8.882311828527637"><ele>318.0</ele><time>2026-04-25T14:15:13.999Z</time></trkpt><trkpt lat="45.739416525839026" lon="8.88234604604677"><ele>318.0</ele><time>2026-04-25T14:15:14.999Z</time></trkpt><trkpt lat="45.73930451088347" lon="8.88239421217772"><ele>318.0</ele><time>2026-04-25T14:15:15.999Z</time></trkpt><trkpt lat="45.73917372424772" lon="8.882424287463843"><ele>317.3333333333333</ele><time>2026-04-25T14:15:16.999Z</time></trkpt><trkpt lat="45.73899810478635" lon="8.882468448533155"><ele>316.66666666666663</ele><time>2026-04-25T14:15:17.999Z</time></trkpt><trkpt lat="45.738792665749855" lon="8.882512992412277"><ele>316.0</ele><time>2026-04-25T14:15:18.999Z</time></trkpt><trkpt lat="45.73858268998745" lon="8.882550152010804"><ele>315.3333333333333</ele><time>2026-04-25T14:15:19.999Z</time></trkpt><trkpt lat="45.73839219252669" lon="8.882590309869679"><ele>314.6666666666667</ele><time>2026-04-25T14:15:20.999Z</time></trkpt><trkpt lat="45.73822691325355" lon="8.882630659278727"><ele>314.0</ele><time>2026-04-25T14:15:21.999Z</time></trkpt><trkpt lat="45.73807195497111" lon="8.882666964737828"><ele>314.0</ele><time>2026-04-25T14:15:22.999Z</time></trkpt><trkpt lat="45.737926776903876" lon="8.882699929336505"><ele>314.0</ele><time>2026-04-25T14:15:23.999Z</time></trkpt><trkpt lat="45.73777658245368" lon="8.882737622401718"><ele>314.0</ele><time>2026-04-25T14:15:24.999Z</time></trkpt><trkpt lat="45.73763955534293" lon="8.882767566707864"><ele>314.0</ele><time>2026-04-25T14:15:25.999Z</time></trkpt><trkpt lat="45.73750215615773" lon="8.88279777985901"><ele>314.0</ele><time>2026-04-25T14:15:26.999Z</time></trkpt><trkpt lat="45.73734521919313" lon="8.882836982989172"><ele>314.0</ele><time>2026-04-25T14:15:27.999Z</time></trkpt><trkpt lat="45.73717431470638" lon="8.882880271166735"><ele>314.0</ele><time>2026-04-25T14:15:28.999Z</time></trkpt><trkpt lat="45.73700505939035" lon="8.882919075732676"><ele>314.0</ele><time>2026-04-25T14:15:29.999Z</time></trkpt><trkpt lat="45.73684022723653" lon="8.882954360194995"><ele>314.0</ele><time>2026-04-25T14:15:30.999Z</time></trkpt><trkpt lat="45.73668894127286" lon="8.882986645298619"><ele>314.0</ele><time>2026-04-25T14:15:31.999Z</time></trkpt><trkpt lat="45.73656439265431" lon="8.883015875405404"><ele>314.0</ele><time>2026-04-25T14:15:32.999Z</time></trkpt><trkpt lat="45.73645404378923" lon="8.883041126912662"><ele>314.0</ele><time>2026-04-25T14:15:33.999Z</time></trkpt><trkpt lat="45.7363533711715" lon="8.883059467364449"><ele>314.0</ele><time>2026-04-25T14:15:34.999Z</time></trkpt><trkpt lat="45.73626098776887" lon="8.88307637829796"><ele>314.0</ele><time>2026-04-25T14:15:35.999Z</time></trkpt><trkpt lat="45.73617714388755" lon="8.883082244306296"><ele>314.0</ele><time>2026-04-25T14:15:37Z</time></trkpt><trkpt lat="45.73609590554547" lon="8.883067104635405"><ele>314.0</ele><time>2026-04-25T14:15:38Z</time></trkpt><trkpt lat="45.73600887027046" lon="8.88304826048266"><ele>314.0</ele><time>2026-04-25T14:15:39Z</time></trkpt><trkpt lat="45.73591712432523" lon="8.883061058049673"><ele>313.4</ele><time>2026-04-25T14:15:40Z</time></trkpt><trkpt lat="45.7358209119973" lon="8.883114178892264"><ele>312.79999999999995</ele><time>2026-04-25T14:15:41Z</time></trkpt><trkpt lat="45.735731336951766" lon="8.883189164705557"><ele>312.20000000000005</ele><time>2026-04-25T14:15:42Z</time></trkpt><trkpt lat="45.7356259740361" lon="8.883208267968461"><ele>311.6</ele><time>2026-04-25T14:15:43Z</time></trkpt><trkpt lat="45.73551540327764" lon="8.88323495974715"><ele>311.0</ele><time>2026-04-25T14:15:44Z</time></trkpt><trkpt lat="45.73540261868268" lon="8.883281065992378"><ele>311.0</ele><time>2026-04-25T14:15:45Z</time></trkpt><trkpt lat="45.735283280949766" lon="8.883305301142096"><ele>311.0</ele><time>2026-04-25T14:15:46Z</time></trkpt><trkpt lat="45.735167835027845" lon="8.883329969905974"><ele>311.0</ele><time>2026-04-25T14:15:47Z</time></trkpt><trkpt lat="45.73507728895577" lon="8.883350721404593"><ele>311.0</ele><time>2026-04-25T14:15:48Z</time></trkpt><trkpt lat="45.735014394742564" lon="8.883368056975309"><ele>311.0</ele><time>2026-04-25T14:15:49Z</time></trkpt><trkpt lat="45.73493897474765" lon="8.88338664265649"><ele>311.0</ele><time>2026-04-25T14:15:50Z</time></trkpt><trkpt lat="45.73480168499566" lon="8.883412440168033"><ele>311.0</ele><time>2026-04-25T14:15:51Z</time></trkpt><trkpt lat="45.73461851866114" lon="8.883453387682044"><ele>311.0</ele><time>2026-04-25T14:15:52Z</time></trkpt><trkpt lat="45.73444987066366" lon="8.883495986825295"><ele>312.25</ele><time>2026-04-25T14:15:53Z</time></trkpt><trkpt lat="45.73429503646088" lon="8.883531904019282"><ele>313.5</ele><time>2026-04-25T14:15:54Z</time></trkpt><trkpt lat="45.73415660058303" lon="8.88355876434664"><ele>314.75</ele><time>2026-04-25T14:15:55Z</time></trkpt><trkpt lat="45.73402712506607" lon="8.8835873714355"><ele>316.0</ele><time>2026-04-25T14:15:56Z</time></trkpt><trkpt lat="45.733907809421574" lon="8.88361509445391"><ele>316.0</ele><time>2026-04-25T14:15:57Z</time></trkpt><trkpt lat="45.733785002527256" lon="8.88364604974026"><ele>316.0</ele><time>2026-04-25T14:15:58Z</time></trkpt><trkpt lat="45.73365254958546" lon="8.883671595047481"><ele>316.0</ele><time>2026-04-25T14:15:59Z</time></trkpt><trkpt lat="45.73352132933802" lon="8.883696898221846"><ele>316.0</ele><time>2026-04-25T14:16:00Z</time></trkpt><trkpt lat="45.733395106129585" lon="8.883728915089119"><ele>315.25</ele><time>2026-04-25T14:16:01Z</time></trkpt><trkpt lat="45.733273008070874" lon="8.883762158286352"><ele>314.5</ele><time>2026-04-25T14:16:02Z</time></trkpt><trkpt lat="45.73315656514678" lon="8.883799306149163"><ele>313.75</ele><time>2026-04-25T14:16:03Z</time></trkpt><trkpt lat="45.73304141595417" lon="8.88384509660398"><ele>313.0</ele><time>2026-04-25T14:16:04Z</time></trkpt><trkpt lat="45.732934258788056" lon="8.883902184116735"><ele>313.0</ele><time>2026-04-25T14:16:05Z</time></trkpt><trkpt lat="45.73283148916411" lon="8.883966422353415"><ele>313.0</ele><time>2026-04-25T14:16:06Z</time></trkpt><trkpt lat="45.732727010280946" lon="8.88403546591258"><ele>313.0</ele><time>2026-04-25T14:16:07Z</time></trkpt><trkpt lat="45.732627008734" lon="8.884112561352152"><ele>313.0</ele><time>2026-04-25T14:16:08Z</time></trkpt><trkpt lat="45.73253017597482" lon="8.88419804988881"><ele>313.0</ele><time>2026-04-25T14:16:09Z</time></trkpt><trkpt lat="45.73243096320906" lon="8.884287907337747"><ele>313.0</ele><time>2026-04-25T14:16:10Z</time></trkpt><trkpt lat="45.7323321304546" lon="8.884383366301424"><ele>313.0</ele><time>2026-04-25T14:16:11Z</time></trkpt><trkpt lat="45.73224273780667" lon="8.884473703527574"><ele>313.0</ele><time>2026-04-25T14:16:12Z</time></trkpt><trkpt lat="45.732158555131775" lon="8.884552547770308"><ele>313.0</ele><time>2026-04-25T14:16:13Z</time></trkpt><trkpt lat="45.732085607325864" lon="8.884622718032231"><ele>313.0</ele><time>2026-04-25T14:16:14Z</time></trkpt><trkpt lat="45.73198662547214" lon="8.8847201284956"><ele>313.0</ele><time>2026-04-25T14:16:16Z</time></trkpt><trkpt lat="45.73188115141935" lon="8.884827573039018"><ele>313.0</ele><time>2026-04-25T14:16:18Z</time></trkpt><trkpt lat="45.73179081793616" lon="8.884874917260476"><ele>313.0</ele><time>2026-04-25T14:16:19Z</time></trkpt><trkpt lat="45.731705141143465" lon="8.884953334227655"><ele>313.0</ele><time>2026-04-25T14:16:20Z</time></trkpt><trkpt lat="45.73162226205545" lon="8.885029190731007"><ele>312.2</ele><time>2026-04-25T14:16:21Z</time></trkpt><trkpt lat="45.7315489238514" lon="8.88512514605783"><ele>311.4</ele><time>2026-04-25T14:16:22Z</time></trkpt><trkpt lat="45.73146405912093" lon="8.88520552468819"><ele>310.59999999999997</ele><time>2026-04-25T14:16:23Z</time></trkpt><trkpt lat="45.73138272115493" lon="8.885278237995312"><ele>309.8</ele><time>2026-04-25T14:16:24Z</time></trkpt><trkpt lat="45.73130200742802" lon="8.885347025048937"><ele>309.0</ele><time>2026-04-25T14:16:25Z</time></trkpt><trkpt lat="45.73122075167762" lon="8.885416315790941"><ele>309.0</ele><time>2026-04-25T14:16:26Z</time></trkpt><trkpt lat="45.73113806661954" lon="8.885488380196255"><ele>309.0</ele><time>2026-04-25T14:16:27Z</time></trkpt><trkpt lat="45.731059398696274" lon="8.885558654644141"><ele>309.0</ele><time>2026-04-25T14:16:28Z</time></trkpt><trkpt lat="45.73098392054682" lon="8.885625542707672"><ele>309.0</ele><time>2026-04-25T14:16:29Z</time></trkpt><trkpt lat="45.73091078866763" lon="8.885690045840889"><ele>309.0</ele><time>2026-04-25T14:16:30Z</time></trkpt><trkpt lat="45.730827380582355" lon="8.88576354477592"><ele>309.2</ele><time>2026-04-25T14:16:31Z</time></trkpt><trkpt lat="45.730736466185185" lon="8.885843080947723"><ele>309.4</ele><time>2026-04-25T14:16:32Z</time></trkpt><trkpt lat="45.730643549519336" lon="8.88591657061479"><ele>309.6</ele><time>2026-04-25T14:16:33Z</time></trkpt><trkpt lat="45.73056298413671" lon="8.88597453530439"><ele>309.8</ele><time>2026-04-25T14:16:34Z</time></trkpt><trkpt lat="45.73048418189824" lon="8.886019561289434"><ele>310.0</ele><time>2026-04-25T14:16:35Z</time></trkpt><trkpt lat="45.730418159190364" lon="8.886045956988685"><ele>310.2</ele><time>2026-04-25T14:16:36Z</time></trkpt><trkpt lat="45.7303129330122" lon="8.886059796599422"><ele>310.4</ele><time>2026-04-25T14:16:38Z</time></trkpt><trkpt lat="45.73024146419264" lon="8.886056157185099"><ele>310.6</ele><time>2026-04-25T14:16:40Z</time></trkpt><trkpt lat="45.730127017443266" lon="8.886040645071128"><ele>310.8</ele><time>2026-04-25T14:16:43Z</time></trkpt><trkpt lat="45.72998975527319" lon="8.886045881605577"><ele>311.0</ele><time>2026-04-25T14:16:45Z</time></trkpt><trkpt lat="45.729923076387465" lon="8.886093378284453"><ele>310.40000000000003</ele><time>2026-04-25T14:16:46Z</time></trkpt><trkpt lat="45.72982836297649" lon="8.886005314072111"><ele>309.8</ele><time>2026-04-25T14:16:47Z</time></trkpt><trkpt lat="45.72975507399787" lon="8.885969815727142"><ele>309.20000000000005</ele><time>2026-04-25T14:16:48Z</time></trkpt><trkpt lat="45.72969391763063" lon="8.885838590743184"><ele>308.6</ele><time>2026-04-25T14:16:49Z</time></trkpt><trkpt lat="45.7296218951108" lon="8.885720711674658"><ele>308.0</ele><time>2026-04-25T14:16:50Z</time></trkpt><trkpt lat="45.72956020063767" lon="8.885582383764538"><ele>307.8</ele><time>2026-04-25T14:16:51Z</time></trkpt><trkpt lat="45.72949225192049" lon="8.885486094314206"><ele>307.6</ele><time>2026-04-25T14:16:52Z</time></trkpt><trkpt lat="45.72943755648364" lon="8.885375726148386"><ele>307.4</ele><time>2026-04-25T14:16:53Z</time></trkpt><trkpt lat="45.72937930322316" lon="8.885251852524334"><ele>307.2</ele><time>2026-04-25T14:16:54Z</time></trkpt><trkpt lat="45.72932361600228" lon="8.88513651267196"><ele>307.0</ele><time>2026-04-25T14:16:55Z</time></trkpt><trkpt lat="45.72927284517066" lon="8.885037682324645"><ele>307.3333333333333</ele><time>2026-04-25T14:16:56Z</time></trkpt><trkpt lat="45.729224751340986" lon="8.884934639055064"><ele>307.66666666666663</ele><time>2026-04-25T14:16:56.999Z</time></trkpt><trkpt lat="45.72917254853676" lon="8.884827668305515"><ele>308.0</ele><time>2026-04-25T14:16:57.999Z</time></trkpt><trkpt lat="45.729115743797195" lon="8.884722247763875"><ele>308.3333333333333</ele><time>2026-04-25T14:16:58.999Z</time></trkpt><trkpt lat="45.72906749239686" lon="8.884621247858671"><ele>308.6666666666667</ele><time>2026-04-25T14:16:59.999Z</time></trkpt><trkpt lat="45.72902681169325" lon="8.884532642144366"><ele>309.0</ele><time>2026-04-25T14:17:00.999Z</time></trkpt><trkpt lat="45.72898746232513" lon="8.884447057646256"><ele>309.0</ele><time>2026-04-25T14:17:01.999Z</time></trkpt><trkpt lat="45.7289281382393" lon="8.884318311527403"><ele>309.0</ele><time>2026-04-25T14:17:03.999Z</time></trkpt><trkpt lat="45.72889984612115" lon="8.884199661786575"><ele>309.0</ele><time>2026-04-25T14:17:06.999Z</time></trkpt><trkpt lat="45.728862881204286" lon="8.884080606457553"><ele>309.0</ele><time>2026-04-25T14:17:09.999Z</time></trkpt><trkpt lat="45.7288599101844" lon="8.88398390915042"><ele>309.0</ele><time>2026-04-25T14:17:11.999Z</time></trkpt><trkpt lat="45.728900493752555" lon="8.883748014022528"><ele>308.8</ele><time>2026-04-25T14:17:13.999Z</time></trkpt><trkpt lat="45.72885934704258" lon="8.883662165550499"><ele>308.59999999999997</ele><time>2026-04-25T14:17:14.999Z</time></trkpt><trkpt lat="45.72878856179944" lon="8.883603901118775"><ele>308.4</ele><time>2026-04-25T14:17:15.999Z</time></trkpt><trkpt lat="45.72868823449305" lon="8.883604054790398"><ele>308.2</ele><time>2026-04-25T14:17:16.999Z</time></trkpt><trkpt lat="45.72855377287794" lon="8.883630483516102"><ele>308.0</ele><time>2026-04-25T14:17:17.999Z</time></trkpt><trkpt lat="45.72844578429345" lon="8.883550669239316"><ele>307.5</ele><time>2026-04-25T14:17:18.999Z</time></trkpt><trkpt lat="45.72833156334629" lon="8.883473545913283"><ele>307.0</ele><time>2026-04-25T14:17:19.999Z</time></trkpt><trkpt lat="45.72823051502961" lon="8.883387329407205"><ele>306.5</ele><time>2026-04-25T14:17:20.999Z</time></trkpt><trkpt lat="45.72813216716912" lon="8.883314780891473"><ele>306.0</ele><time>2026-04-25T14:17:21.999Z</time></trkpt><trkpt lat="45.728035660705885" lon="8.883256010812218"><ele>305.6</ele><time>2026-04-25T14:17:22.999Z</time></trkpt><trkpt lat="45.72794259278299" lon="8.883199294612703"><ele>305.20000000000005</ele><time>2026-04-25T14:17:23.999Z</time></trkpt><trkpt lat="45.72784113228361" lon="8.883138568545913"><ele>304.79999999999995</ele><time>2026-04-25T14:17:24.999Z</time></trkpt><trkpt lat="45.727737418077716" lon="8.883060874458362"><ele>304.4</ele><time>2026-04-25T14:17:25.999Z</time></trkpt><trkpt lat="45.72763208033486" lon="8.882989912672214"><ele>304.0</ele><time>2026-04-25T14:17:26.999Z</time></trkpt><trkpt lat="45.727524992997076" lon="8.882921341891441"><ele>303.75</ele><time>2026-04-25T14:17:27.999Z</time></trkpt><trkpt lat="45.727417072546615" lon="8.882852663017026"><ele>303.5</ele><time>2026-04-25T14:17:28.999Z</time></trkpt><trkpt lat="45.72729195760545" lon="8.882770810668402"><ele>303.25</ele><time>2026-04-25T14:17:29.999Z</time></trkpt><trkpt lat="45.727134854584186" lon="8.882664971909799"><ele>303.0</ele><time>2026-04-25T14:17:30.999Z</time></trkpt><trkpt lat="45.72696920765384" lon="8.882553043746258"><ele>303.0</ele><time>2026-04-25T14:17:31.999Z</time></trkpt><trkpt lat="45.72681478436222" lon="8.88244661298279"><ele>303.0</ele><time>2026-04-25T14:17:32.999Z</time></trkpt><trkpt lat="45.72668037486861" lon="8.882351062052397"><ele>303.0</ele><time>2026-04-25T14:17:33.999Z</time></trkpt><trkpt lat="45.72655845343401" lon="8.882267814347491"><ele>303.0</ele><time>2026-04-25T14:17:34.999Z</time></trkpt><trkpt lat="45.72642905116345" lon="8.882186823827974"><ele>303.0</ele><time>2026-04-25T14:17:35.999Z</time></trkpt><trkpt lat="45.72630094609826" lon="8.882106808130661"><ele>303.0</ele><time>2026-04-25T14:17:36.999Z</time></trkpt><trkpt lat="45.72618338249732" lon="8.882020014479902"><ele>303.0</ele><time>2026-04-25T14:17:37.999Z</time></trkpt><trkpt lat="45.726060009862415" lon="8.881939337484226"><ele>303.0</ele><time>2026-04-25T14:17:38.999Z</time></trkpt><trkpt lat="45.72594255879774" lon="8.88185918610532"><ele>303.0</ele><time>2026-04-25T14:17:39.999Z</time></trkpt><trkpt lat="45.72582727762406" lon="8.881780595529651"><ele>303.0</ele><time>2026-04-25T14:17:40.999Z</time></trkpt><trkpt lat="45.72572107565857" lon="8.881711092316733"><ele>303.0</ele><time>2026-04-25T14:17:41.999Z</time></trkpt><trkpt lat="45.72562426425102" lon="8.881645709625193"><ele>303.0</ele><time>2026-04-25T14:17:43Z</time></trkpt><trkpt lat="45.7255359105041" lon="8.881583376783803"><ele>303.0</ele><time>2026-04-25T14:17:44Z</time></trkpt><trkpt lat="45.725454891475266" lon="8.88151994031528"><ele>303.0</ele><time>2026-04-25T14:17:45Z</time></trkpt><trkpt lat="45.72538202256381" lon="8.88145433068839"><ele>303.0</ele><time>2026-04-25T14:17:46Z</time></trkpt><trkpt lat="45.72531746728" lon="8.881384512227651"><ele>303.0</ele><time>2026-04-25T14:17:47Z</time></trkpt><trkpt lat="45.72525834321129" lon="8.88130540730163"><ele>303.0</ele><time>2026-04-25T14:17:48Z</time></trkpt><trkpt lat="45.72520492790791" lon="8.881219403289164"><ele>302.8</ele><time>2026-04-25T14:17:49Z</time></trkpt><trkpt lat="45.7251485840651" lon="8.881123082153758"><ele>302.6</ele><time>2026-04-25T14:17:50Z</time></trkpt><trkpt lat="45.72507530910947" lon="8.881055151601355"><ele>302.4</ele><time>2026-04-25T14:17:51Z</time></trkpt><trkpt lat="45.724972734763966" lon="8.881037513964028"><ele>302.2</ele><time>2026-04-25T14:17:52Z</time></trkpt><trkpt lat="45.72486353165675" lon="8.88105992082745"><ele>302.0</ele><time>2026-04-25T14:17:53Z</time></trkpt><trkpt lat="45.724757767021345" lon="8.881062536152497"><ele>302.0</ele><time>2026-04-25T14:17:54Z</time></trkpt><trkpt lat="45.72464773854826" lon="8.881015331380157"><ele>302.0</ele><time>2026-04-25T14:17:55Z</time></trkpt><trkpt lat="45.7245405466748" lon="8.880903891251581"><ele>302.0</ele><time>2026-04-25T14:17:56Z</time></trkpt><trkpt lat="45.72442612936756" lon="8.880825304970962"><ele>302.0</ele><time>2026-04-25T14:17:57Z</time></trkpt><trkpt lat="45.724294054570294" lon="8.880759564005437"><ele>301.0</ele><time>2026-04-25T14:17:58Z</time></trkpt><trkpt lat="45.72416003547254" lon="8.880666471834319"><ele>300.0</ele><time>2026-04-25T14:17:59Z</time></trkpt><trkpt lat="45.72402751237774" lon="8.88057646826317"><ele>299.0</ele><time>2026-04-25T14:18:00Z</time></trkpt><trkpt lat="45.723899594915544" lon="8.880490512316076"><ele>298.0</ele><time>2026-04-25T14:18:01Z</time></trkpt><trkpt lat="45.72377815836531" lon="8.880383840324553"><ele>298.0</ele><time>2026-04-25T14:18:02Z</time></trkpt><trkpt lat="45.723647578116086" lon="8.88032248727571"><ele>298.0</ele><time>2026-04-25T14:18:03Z</time></trkpt><trkpt lat="45.72352432534225" lon="8.880246300811486"><ele>298.0</ele><time>2026-04-25T14:18:04Z</time></trkpt><trkpt lat="45.72338495667302" lon="8.880172350493563"><ele>298.0</ele><time>2026-04-25T14:18:05Z</time></trkpt><trkpt lat="45.723226330029874" lon="8.880101694615838"><ele>298.66666666666663</ele><time>2026-04-25T14:18:06Z</time></trkpt><trkpt lat="45.72303994965423" lon="8.88000334449259"><ele>299.3333333333333</ele><time>2026-04-25T14:18:07Z</time></trkpt><trkpt lat="45.722819772701364" lon="8.879912852696838"><ele>300.0</ele><time>2026-04-25T14:18:08Z</time></trkpt><trkpt lat="45.72259219847431" lon="8.879823787399546"><ele>300.0</ele><time>2026-04-25T14:18:09Z</time></trkpt><trkpt lat="45.72236792310643" lon="8.879738390737586"><ele>300.0</ele><time>2026-04-25T14:18:10Z</time></trkpt><trkpt lat="45.722147141259306" lon="8.879654913457774"><ele>300.0</ele><time>2026-04-25T14:18:11Z</time></trkpt><trkpt lat="45.72191433113857" lon="8.879561757455903"><ele>300.0</ele><time>2026-04-25T14:18:12Z</time></trkpt><trkpt lat="45.721671854797904" lon="8.879455615028924"><ele>300.0</ele><time>2026-04-25T14:18:13Z</time></trkpt><trkpt lat="45.72142517642145" lon="8.879350073273669"><ele>300.0</ele><time>2026-04-25T14:18:14Z</time></trkpt><trkpt lat="45.72115396381841" lon="8.879237818904045"><ele>299.0</ele><time>2026-04-25T14:18:15Z</time></trkpt><trkpt lat="45.72087881802827" lon="8.879125149604267"><ele>298.0</ele><time>2026-04-25T14:18:16Z</time></trkpt><trkpt lat="45.7206314982891" lon="8.879023294156573"><ele>298.0</ele><time>2026-04-25T14:18:17Z</time></trkpt><trkpt lat="45.72040352809767" lon="8.878939324562845"><ele>298.0</ele><time>2026-04-25T14:18:18Z</time></trkpt><trkpt lat="45.720179785120216" lon="8.878844052874559"><ele>300.0</ele><time>2026-04-25T14:18:19Z</time></trkpt><trkpt lat="45.71994542559872" lon="8.878779574397534"><ele>302.0</ele><time>2026-04-25T14:18:20Z</time></trkpt><trkpt lat="45.71970198994411" lon="8.87873990932683"><ele>302.0</ele><time>2026-04-25T14:18:21Z</time></trkpt><trkpt lat="45.71946189799068" lon="8.878728592411427"><ele>302.0</ele><time>2026-04-25T14:18:22Z</time></trkpt><trkpt lat="45.71922187069832" lon="8.878746480585871"><ele>300.0</ele><time>2026-04-25T14:18:23Z</time></trkpt><trkpt lat="45.71898734207138" lon="8.878788853687965"><ele>298.0</ele><time>2026-04-25T14:18:24Z</time></trkpt><trkpt lat="45.71873974783727" lon="8.878838860337526"><ele>297.5</ele><time>2026-04-25T14:18:25Z</time></trkpt><trkpt lat="45.71846262593157" lon="8.878894025422131"><ele>297.0</ele><time>2026-04-25T14:18:26Z</time></trkpt><trkpt lat="45.71818035670209" lon="8.878947472002475"><ele>297.0</ele><time>2026-04-25T14:18:27Z</time></trkpt><trkpt lat="45.717903597860605" lon="8.87900131706446"><ele>297.0</ele><time>2026-04-25T14:18:28Z</time></trkpt><trkpt lat="45.71761924992582" lon="8.879056587952341"><ele>297.0</ele><time>2026-04-25T14:18:29Z</time></trkpt><trkpt lat="45.71736269081273" lon="8.879105666052123"><ele>297.0</ele><time>2026-04-25T14:18:30Z</time></trkpt><trkpt lat="45.71714270400221" lon="8.879149677313654"><ele>297.0</ele><time>2026-04-25T14:18:31Z</time></trkpt><trkpt lat="45.71695017340225" lon="8.87918596526789"><ele>297.0</ele><time>2026-04-25T14:18:32Z</time></trkpt><trkpt lat="45.716773810388496" lon="8.879218449168967"><ele>297.0</ele><time>2026-04-25T14:18:33Z</time></trkpt><trkpt lat="45.71661405776976" lon="8.879248351673652"><ele>297.0</ele><time>2026-04-25T14:18:34Z</time></trkpt><trkpt lat="45.71648186755748" lon="8.879271086257653"><ele>297.0</ele><time>2026-04-25T14:18:35Z</time></trkpt><trkpt lat="45.716372169504105" lon="8.879277956399406"><ele>297.0</ele><time>2026-04-25T14:18:36Z</time></trkpt><trkpt lat="45.71626963858208" lon="8.879258666056899"><ele>297.0</ele><time>2026-04-25T14:18:37Z</time></trkpt><trkpt lat="45.71616482635674" lon="8.879252144324468"><ele>296.3333333333333</ele><time>2026-04-25T14:18:38Z</time></trkpt><trkpt lat="45.71604989889794" lon="8.87931964980689"><ele>295.66666666666663</ele><time>2026-04-25T14:18:39Z</time></trkpt><trkpt lat="45.71590232770385" lon="8.879410159663916"><ele>295.0</ele><time>2026-04-25T14:18:40Z</time></trkpt><trkpt lat="45.71570385014725" lon="8.879463884128237"><ele>295.0</ele><time>2026-04-25T14:18:41Z</time></trkpt><trkpt lat="45.71548050218037" lon="8.879480574947642"><ele>295.0</ele><time>2026-04-25T14:18:42Z</time></trkpt><trkpt lat="45.715224613279894" lon="8.879531313622234"><ele>294.5</ele><time>2026-04-25T14:18:43Z</time></trkpt><trkpt lat="45.71494849942442" lon="8.879580552436787"><ele>294.0</ele><time>2026-04-25T14:18:44Z</time></trkpt><trkpt lat="45.71465979466734" lon="8.879631819797286"><ele>293.5</ele><time>2026-04-25T14:18:44.999Z</time></trkpt><trkpt lat="45.714389249945796" lon="8.879682152093642"><ele>293.0</ele><time>2026-04-25T14:18:45.999Z</time></trkpt><trkpt lat="45.71412826971628" lon="8.879731864405656"><ele>293.0</ele><time>2026-04-25T14:18:46.999Z</time></trkpt><trkpt lat="45.71384858301391" lon="8.879785818567186"><ele>293.0</ele><time>2026-04-25T14:18:47.999Z</time></trkpt><trkpt lat="45.713541582553425" lon="8.879848472370432"><ele>293.5</ele><time>2026-04-25T14:18:48.999Z</time></trkpt><trkpt lat="45.71324718480417" lon="8.879907943663982"><ele>294.0</ele><time>2026-04-25T14:18:49.999Z</time></trkpt><trkpt lat="45.71298111195001" lon="8.879959858029874"><ele>293.0</ele><time>2026-04-25T14:18:50.999Z</time></trkpt><trkpt lat="45.712733226742436" lon="8.88000572003902"><ele>292.0</ele><time>2026-04-25T14:18:51.999Z</time></trkpt><trkpt lat="45.71249933244866" lon="8.880051779687868"><ele>292.0</ele><time>2026-04-25T14:18:52.999Z</time></trkpt><trkpt lat="45.71227964685076" lon="8.88009529080875"><ele>292.0</ele><time>2026-04-25T14:18:53.999Z</time></trkpt><trkpt lat="45.712068692643946" lon="8.880133239291123"><ele>292.0</ele><time>2026-04-25T14:18:54.999Z</time></trkpt><trkpt lat="45.7118627057178" lon="8.88017509605298"><ele>292.0</ele><time>2026-04-25T14:18:55.999Z</time></trkpt><trkpt lat="45.71164193368296" lon="8.880220333053627"><ele>292.0</ele><time>2026-04-25T14:18:56.999Z</time></trkpt><trkpt lat="45.711401960902144" lon="8.880265962213578"><ele>292.0</ele><time>2026-04-25T14:18:57.999Z</time></trkpt><trkpt lat="45.711146040708364" lon="8.880314892988741"><ele>292.0</ele><time>2026-04-25T14:18:58.999Z</time></trkpt><trkpt lat="45.71090537079648" lon="8.880358027759021"><ele>292.3333333333333</ele><time>2026-04-25T14:18:59.999Z</time></trkpt><trkpt lat="45.71069242075953" lon="8.880395225717177"><ele>292.6666666666667</ele><time>2026-04-25T14:19:00.999Z</time></trkpt><trkpt lat="45.71048915159182" lon="8.880419861832591"><ele>293.0</ele><time>2026-04-25T14:19:01.999Z</time></trkpt><trkpt lat="45.710300623965786" lon="8.880426943563773"><ele>291.33333333333337</ele><time>2026-04-25T14:19:02.999Z</time></trkpt><trkpt lat="45.71012329440843" lon="8.88041516819343"><ele>289.6666666666667</ele><time>2026-04-25T14:19:03.999Z</time></trkpt><trkpt lat="45.709958434033744" lon="8.8803793757477"><ele>288.0</ele><time>2026-04-25T14:19:04.999Z</time></trkpt><trkpt lat="45.70981064022343" lon="8.880325666656143"><ele>288.0</ele><time>2026-04-25T14:19:05.999Z</time></trkpt><trkpt lat="45.70967461038475" lon="8.880256930112864"><ele>288.0</ele><time>2026-04-25T14:19:06.999Z</time></trkpt><trkpt lat="45.70953382260041" lon="8.88017724680975"><ele>288.0</ele><time>2026-04-25T14:19:07.999Z</time></trkpt><trkpt lat="45.70939404214726" lon="8.880046580028623"><ele>289.3333333333333</ele><time>2026-04-25T14:19:08.999Z</time></trkpt><trkpt lat="45.70923055456129" lon="8.87991709213715"><ele>290.66666666666663</ele><time>2026-04-25T14:19:09.999Z</time></trkpt><trkpt lat="45.70905386801941" lon="8.87977516425948"><ele>292.0</ele><time>2026-04-25T14:19:10.999Z</time></trkpt><trkpt lat="45.70886009477393" lon="8.879627702163726"><ele>292.0</ele><time>2026-04-25T14:19:11.999Z</time></trkpt><trkpt lat="45.708698025232614" lon="8.879489414444668"><ele>292.0</ele><time>2026-04-25T14:19:12.999Z</time></trkpt><trkpt lat="45.708548156645925" lon="8.879370114215943"><ele>292.0</ele><time>2026-04-25T14:19:13.999Z</time></trkpt><trkpt lat="45.70841873341702" lon="8.879269482814326"><ele>291.0</ele><time>2026-04-25T14:19:14.999Z</time></trkpt><trkpt lat="45.70832428311858" lon="8.879188011360647"><ele>290.0</ele><time>2026-04-25T14:19:15.999Z</time></trkpt><trkpt lat="45.708261073197285" lon="8.879093524603725"><ele>289.0</ele><time>2026-04-25T14:19:16.999Z</time></trkpt><trkpt lat="45.7082041009999" lon="8.878980545460927"><ele>288.0</ele><time>2026-04-25T14:19:17.999Z</time></trkpt><trkpt lat="45.70811368922213" lon="8.878900159184159"><ele>287.0</ele><time>2026-04-25T14:19:18.999Z</time></trkpt><trkpt lat="45.70796965035922" lon="8.878856379542487"><ele>287.0</ele><time>2026-04-25T14:19:19.999Z</time></trkpt><trkpt lat="45.70781791741278" lon="8.878763878261537"><ele>287.0</ele><time>2026-04-25T14:19:20.999Z</time></trkpt><trkpt lat="45.70763702570539" lon="8.878616585000433"><ele>287.0</ele><time>2026-04-25T14:19:21.999Z</time></trkpt><trkpt lat="45.70742224291915" lon="8.878457186032918"><ele>287.0</ele><time>2026-04-25T14:19:22.999Z</time></trkpt><trkpt lat="45.70720873922154" lon="8.87828367169975"><ele>287.0</ele><time>2026-04-25T14:19:23.999Z</time></trkpt><trkpt lat="45.70702074136643" lon="8.878144126735425"><ele>287.33333333333337</ele><time>2026-04-25T14:19:24.999Z</time></trkpt><trkpt lat="45.706839208570415" lon="8.87802723784407"><ele>287.6666666666667</ele><time>2026-04-25T14:19:25.999Z</time></trkpt><trkpt lat="45.70663989509878" lon="8.877913033503635"><ele>288.0</ele><time>2026-04-25T14:19:26.999Z</time></trkpt><trkpt lat="45.706418996821654" lon="8.877786213846063"><ele>288.0</ele><time>2026-04-25T14:19:27.999Z</time></trkpt><trkpt lat="45.706186074914754" lon="8.877639088193858"><ele>288.0</ele><time>2026-04-25T14:19:28.999Z</time></trkpt><trkpt lat="45.70596361083278" lon="8.877488828161244"><ele>288.3333333333333</ele><time>2026-04-25T14:19:29.999Z</time></trkpt><trkpt lat="45.70576512082525" lon="8.877351305401291"><ele>288.66666666666663</ele><time>2026-04-25T14:19:30.999Z</time></trkpt><trkpt lat="45.705587958382175" lon="8.87723487642982"><ele>289.0</ele><time>2026-04-25T14:19:31.999Z</time></trkpt><trkpt lat="45.70543893192503" lon="8.877134421542436"><ele>289.0</ele><time>2026-04-25T14:19:32.999Z</time></trkpt><trkpt lat="45.7053100762897" lon="8.877040856299688"><ele>289.0</ele><time>2026-04-25T14:19:33.999Z</time></trkpt><trkpt lat="45.70520696193406" lon="8.876957978077758"><ele>289.0</ele><time>2026-04-25T14:19:34.999Z</time></trkpt><trkpt lat="45.70512451434603" lon="8.876900352994854"><ele>289.0</ele><time>2026-04-25T14:19:35.999Z</time></trkpt><trkpt lat="45.70502725303133" lon="8.876831365107392"><ele>289.0</ele><time>2026-04-25T14:19:37.999Z</time></trkpt><trkpt lat="45.70495137114021" lon="8.876795868879706"><ele>289.0</ele><time>2026-04-25T14:20:32Z</time></trkpt><trkpt lat="45.70487537331828" lon="8.876722335442915"><ele>289.0</ele><time>2026-04-25T14:20:34Z</time></trkpt><trkpt lat="45.70481273724597" lon="8.87697131451313"><ele>289.0</ele><time>2026-04-25T14:20:36Z</time></trkpt><trkpt lat="45.704860162833825" lon="8.877083465122224"><ele>289.0</ele><time>2026-04-25T14:20:37Z</time></trkpt><trkpt lat="45.70491967812971" lon="8.87725458147119"><ele>289.0</ele><time>2026-04-25T14:20:38Z</time></trkpt><trkpt lat="45.70498246023066" lon="8.87748694803507"><ele>289.0</ele><time>2026-04-25T14:20:39Z</time></trkpt><trkpt lat="45.7050358453873" lon="8.877670139651466"><ele>289.0</ele><time>2026-04-25T14:20:40Z</time></trkpt><trkpt lat="45.70508245884118" lon="8.877836914499316"><ele>289.0</ele><time>2026-04-25T14:20:41Z</time></trkpt><trkpt lat="45.70512943051978" lon="8.877988328653949"><ele>289.0</ele><time>2026-04-25T14:20:42Z</time></trkpt><trkpt lat="45.70516918080191" lon="8.878116479609202"><ele>289.0</ele><time>2026-04-25T14:20:43Z</time></trkpt><trkpt lat="45.70519323319985" lon="8.878205826984942"><ele>289.0</ele><time>2026-04-25T14:20:44Z</time></trkpt><trkpt lat="45.70515967716461" lon="8.878302895105511"><ele>289.0</ele><time>2026-04-25T14:20:46Z</time></trkpt><trkpt lat="45.704974379895326" lon="8.878354345519169"><ele>289.0</ele><time>2026-04-25T14:20:48Z</time></trkpt><trkpt lat="45.70482291968972" lon="8.878427423423688"><ele>288.75</ele><time>2026-04-25T14:20:49Z</time></trkpt><trkpt lat="45.70466805059272" lon="8.878495513882257"><ele>288.5</ele><time>2026-04-25T14:20:49.999Z</time></trkpt><trkpt lat="45.70451348550881" lon="8.878564638665772"><ele>288.25</ele><time>2026-04-25T14:20:50.999Z</time></trkpt><trkpt lat="45.704425864741644" lon="8.878662802875098"><ele>288.0</ele><time>2026-04-25T14:20:52.999Z</time></trkpt><trkpt lat="45.70434164401111" lon="8.87870321198748"><ele>288.3333333333333</ele><time>2026-04-25T14:20:53.999Z</time></trkpt><trkpt lat="45.7042735778973" lon="8.87873721361628"><ele>288.6666666666667</ele><time>2026-04-25T14:20:54.999Z</time></trkpt><trkpt lat="45.70420810243739" lon="8.878773494997786"><ele>289.0</ele><time>2026-04-25T14:20:55.999Z</time></trkpt><trkpt lat="45.7041320778064" lon="8.87879532780648"><ele>289.33333333333337</ele><time>2026-04-25T14:20:56.999Z</time></trkpt><trkpt lat="45.70404428679836" lon="8.878843208659179"><ele>289.6666666666667</ele><time>2026-04-25T14:20:57.999Z</time></trkpt><trkpt lat="45.7039340204559" lon="8.878932891340966"><ele>290.0</ele><time>2026-04-25T14:20:58.999Z</time></trkpt><trkpt lat="45.70380267103312" lon="8.878999605182875"><ele>290.0</ele><time>2026-04-25T14:20:59.999Z</time></trkpt><trkpt lat="45.70366658920739" lon="8.879084215290458"><ele>290.0</ele><time>2026-04-25T14:21:00.999Z</time></trkpt><trkpt lat="45.70354515381286" lon="8.879174695416744"><ele>290.0</ele><time>2026-04-25T14:21:01.999Z</time></trkpt><trkpt lat="45.70342853458375" lon="8.879239963004197"><ele>290.0</ele><time>2026-04-25T14:21:02.999Z</time></trkpt><trkpt lat="45.70333223435487" lon="8.879312971013892"><ele>289.8</ele><time>2026-04-25T14:21:03.999Z</time></trkpt><trkpt lat="45.70324598690355" lon="8.87936828908128"><ele>289.6</ele><time>2026-04-25T14:21:04.999Z</time></trkpt><trkpt lat="45.70315568978282" lon="8.879422495107812"><ele>289.4</ele><time>2026-04-25T14:21:05.999Z</time></trkpt><trkpt lat="45.70308948759232" lon="8.879471614187274"><ele>289.2</ele><time>2026-04-25T14:21:06.999Z</time></trkpt><trkpt lat="45.70299315319142" lon="8.879507838331644"><ele>289.0</ele><time>2026-04-25T14:21:07.999Z</time></trkpt><trkpt lat="45.70287106874368" lon="8.87958426526213"><ele>288.66666666666663</ele><time>2026-04-25T14:21:08.999Z</time></trkpt><trkpt lat="45.7027271009258" lon="8.879674391464775"><ele>288.3333333333333</ele><time>2026-04-25T14:21:09.999Z</time></trkpt><trkpt lat="45.70257354484618" lon="8.87978719240967"><ele>288.0</ele><time>2026-04-25T14:21:10.999Z</time></trkpt><trkpt lat="45.70241775307644" lon="8.879877453500267"><ele>288.0</ele><time>2026-04-25T14:21:11.999Z</time></trkpt><trkpt lat="45.70226208959789" lon="8.87996797261201"><ele>288.0</ele><time>2026-04-25T14:21:12.999Z</time></trkpt><trkpt lat="45.702101430551004" lon="8.880039095121662"><ele>288.0</ele><time>2026-04-25T14:21:13.999Z</time></trkpt><trkpt lat="45.7019492861089" lon="8.880110413925548"><ele>287.75</ele><time>2026-04-25T14:21:14.999Z</time></trkpt><trkpt lat="45.70181858855556" lon="8.880186721035702"><ele>287.5</ele><time>2026-04-25T14:21:15.999Z</time></trkpt><trkpt lat="45.70168886199678" lon="8.880254098604222"><ele>287.25</ele><time>2026-04-25T14:21:16.999Z</time></trkpt><trkpt lat="45.70154895413906" lon="8.880304709048946"><ele>287.0</ele><time>2026-04-25T14:21:17.999Z</time></trkpt><trkpt lat="45.70142539741636" lon="8.880376099512068"><ele>287.0</ele><time>2026-04-25T14:21:18.999Z</time></trkpt><trkpt lat="45.70131148441289" lon="8.880434408612512"><ele>287.0</ele><time>2026-04-25T14:21:19.999Z</time></trkpt><trkpt lat="45.70121336087644" lon="8.880482957520083"><ele>287.0</ele><time>2026-04-25T14:21:20.999Z</time></trkpt><trkpt lat="45.70113530067199" lon="8.8805195807317"><ele>287.0</ele><time>2026-04-25T14:21:21.999Z</time></trkpt><trkpt lat="45.70106456595093" lon="8.880560338474325"><ele>287.0</ele><time>2026-04-25T14:21:22.999Z</time></trkpt><trkpt lat="45.700982920308846" lon="8.88060107288971"><ele>286.6666666666667</ele><time>2026-04-25T14:21:23.999Z</time></trkpt><trkpt lat="45.70086407609724" lon="8.880655462822974"><ele>286.3333333333333</ele><time>2026-04-25T14:21:24.999Z</time></trkpt><trkpt lat="45.70071819817483" lon="8.880722799932352"><ele>286.0</ele><time>2026-04-25T14:21:25.999Z</time></trkpt><trkpt lat="45.70054562334883" lon="8.88080560472059"><ele>286.0</ele><time>2026-04-25T14:21:26.999Z</time></trkpt><trkpt lat="45.70034195150569" lon="8.880902414730725"><ele>286.0</ele><time>2026-04-25T14:21:27.999Z</time></trkpt><trkpt lat="45.70012271395707" lon="8.881004192783918"><ele>286.0</ele><time>2026-04-25T14:21:28.999Z</time></trkpt><trkpt lat="45.69988090318472" lon="8.881115781084157"><ele>286.5</ele><time>2026-04-25T14:21:29.999Z</time></trkpt><trkpt lat="45.699618103961484" lon="8.881238224899315"><ele>287.0</ele><time>2026-04-25T14:21:30.999Z</time></trkpt><trkpt lat="45.69935662972865" lon="8.881339836710927"><ele>286.0</ele><time>2026-04-25T14:21:31.999Z</time></trkpt><trkpt lat="45.69909678653002" lon="8.881477419926206"><ele>285.0</ele><time>2026-04-25T14:21:32.999Z</time></trkpt><trkpt lat="45.698855062026645" lon="8.881583250979505"><ele>285.0</ele><time>2026-04-25T14:21:33.999Z</time></trkpt><trkpt lat="45.69863164613678" lon="8.881680803365839"><ele>285.0</ele><time>2026-04-25T14:21:34.999Z</time></trkpt><trkpt lat="45.698424685527726" lon="8.881773885928078"><ele>286.0</ele><time>2026-04-25T14:21:35.999Z</time></trkpt><trkpt lat="45.69820379753329" lon="8.88187345362356"><ele>287.0</ele><time>2026-04-25T14:21:36.999Z</time></trkpt><trkpt lat="45.69795880688926" lon="8.881992719863213"><ele>285.5</ele><time>2026-04-25T14:21:37.999Z</time></trkpt><trkpt lat="45.697687355710414" lon="8.88212675017619"><ele>284.0</ele><time>2026-04-25T14:21:38.999Z</time></trkpt><trkpt lat="45.6974214530503" lon="8.882247521945306"><ele>284.0</ele><time>2026-04-25T14:21:39.999Z</time></trkpt><trkpt lat="45.697186990639786" lon="8.882372132607093"><ele>284.0</ele><time>2026-04-25T14:21:40.999Z</time></trkpt><trkpt lat="45.69696394794973" lon="8.882479430176549"><ele>284.33333333333337</ele><time>2026-04-25T14:21:41.999Z</time></trkpt><trkpt lat="45.69675568803734" lon="8.882581744646245"><ele>284.6666666666667</ele><time>2026-04-25T14:21:42.999Z</time></trkpt><trkpt lat="45.696558424692185" lon="8.882683703961082"><ele>285.0</ele><time>2026-04-25T14:21:43.999Z</time></trkpt><trkpt lat="45.69637904714164" lon="8.882801749313586"><ele>285.0</ele><time>2026-04-25T14:21:44.999Z</time></trkpt><trkpt lat="45.69620416336265" lon="8.882962737164428"><ele>285.0</ele><time>2026-04-25T14:21:45.999Z</time></trkpt><trkpt lat="45.69600906689179" lon="8.883171206643361"><ele>286.0</ele><time>2026-04-25T14:21:46.999Z</time></trkpt><trkpt lat="45.69580080054384" lon="8.883390554730466"><ele>287.0</ele><time>2026-04-25T14:21:47.999Z</time></trkpt><trkpt lat="45.695609059255816" lon="8.883581541908953"><ele>287.0</ele><time>2026-04-25T14:21:48.999Z</time></trkpt><trkpt lat="45.695435588027564" lon="8.88375551103441"><ele>287.0</ele><time>2026-04-25T14:21:49.999Z</time></trkpt><trkpt lat="45.69527621840346" lon="8.883922796103098"><ele>287.0</ele><time>2026-04-25T14:21:50.999Z</time></trkpt><trkpt lat="45.69512446234397" lon="8.884082977444372"><ele>286.6666666666667</ele><time>2026-04-25T14:21:51.999Z</time></trkpt><trkpt lat="45.69497861506323" lon="8.884233996650234"><ele>286.3333333333333</ele><time>2026-04-25T14:21:52.999Z</time></trkpt><trkpt lat="45.694837094456" lon="8.884382340900398"><ele>286.0</ele><time>2026-04-25T14:21:53.999Z</time></trkpt><trkpt lat="45.69468819342097" lon="8.884540749361557"><ele>286.0</ele><time>2026-04-25T14:21:55Z</time></trkpt><trkpt lat="45.69452707157474" lon="8.884703626226218"><ele>286.0</ele><time>2026-04-25T14:21:56Z</time></trkpt><trkpt lat="45.69435379929206" lon="8.884887557781704"><ele>286.0</ele><time>2026-04-25T14:21:57Z</time></trkpt><trkpt lat="45.69416115024205" lon="8.885081516822918"><ele>286.0</ele><time>2026-04-25T14:21:58Z</time></trkpt><trkpt lat="45.6939704413478" lon="8.885278860169798"><ele>286.0</ele><time>2026-04-25T14:21:59Z</time></trkpt><trkpt lat="45.693794813335856" lon="8.885458727566064"><ele>286.0</ele><time>2026-04-25T14:22:00Z</time></trkpt><trkpt lat="45.69363218482257" lon="8.885629155930085"><ele>286.0</ele><time>2026-04-25T14:22:01Z</time></trkpt><trkpt lat="45.69346354345001" lon="8.885775818669739"><ele>286.0</ele><time>2026-04-25T14:22:02Z</time></trkpt><trkpt lat="45.69329727515902" lon="8.885947166991661"><ele>286.3333333333333</ele><time>2026-04-25T14:22:03Z</time></trkpt><trkpt lat="45.69314156269054" lon="8.88613678921891"><ele>286.6666666666667</ele><time>2026-04-25T14:22:04Z</time></trkpt><trkpt lat="45.69297343025431" lon="8.886309506030278"><ele>287.0</ele><time>2026-04-25T14:22:05Z</time></trkpt><trkpt lat="45.69282371962444" lon="8.886478508173154"><ele>286.33333333333337</ele><time>2026-04-25T14:22:06Z</time></trkpt><trkpt lat="45.692690333007604" lon="8.886642703597559"><ele>285.6666666666667</ele><time>2026-04-25T14:22:07Z</time></trkpt><trkpt lat="45.69256816081099" lon="8.886811516869955"><ele>285.0</ele><time>2026-04-25T14:22:08Z</time></trkpt><trkpt lat="45.692443797821994" lon="8.886960233886233"><ele>285.0</ele><time>2026-04-25T14:22:09Z</time></trkpt><trkpt lat="45.69232072054786" lon="8.887151598680477"><ele>285.0</ele><time>2026-04-25T14:22:10Z</time></trkpt><trkpt lat="45.692171290330975" lon="8.887338143011766"><ele>285.0</ele><time>2026-04-25T14:22:11Z</time></trkpt><trkpt lat="45.69201460743118" lon="8.887555770039343"><ele>285.6666666666667</ele><time>2026-04-25T14:22:12Z</time></trkpt><trkpt lat="45.69185938360671" lon="8.88779746235723"><ele>286.33333333333337</ele><time>2026-04-25T14:22:13Z</time></trkpt><trkpt lat="45.691706209180005" lon="8.888014741730185"><ele>287.0</ele><time>2026-04-25T14:22:14Z</time></trkpt><trkpt lat="45.69156143980481" lon="8.888210864325607"><ele>287.0</ele><time>2026-04-25T14:22:15Z</time></trkpt><trkpt lat="45.691425890233674" lon="8.888393090828014"><ele>287.0</ele><time>2026-04-25T14:22:16Z</time></trkpt><trkpt lat="45.69129796671391" lon="8.88857397136201"><ele>287.0</ele><time>2026-04-25T14:22:17Z</time></trkpt><trkpt lat="45.691165395460125" lon="8.888759487402892"><ele>286.33333333333337</ele><time>2026-04-25T14:22:18Z</time></trkpt><trkpt lat="45.69102722678391" lon="8.888930294654159"><ele>285.6666666666667</ele><time>2026-04-25T14:22:19Z</time></trkpt><trkpt lat="45.69089092261431" lon="8.889085014667444"><ele>285.0</ele><time>2026-04-25T14:22:20Z</time></trkpt><trkpt lat="45.69075481562105" lon="8.889214044846312"><ele>284.6666666666667</ele><time>2026-04-25T14:22:21Z</time></trkpt><trkpt lat="45.69061504982616" lon="8.889310630541356"><ele>284.33333333333337</ele><time>2026-04-25T14:22:22Z</time></trkpt><trkpt lat="45.69046437152244" lon="8.889376100571495"><ele>284.0</ele><time>2026-04-25T14:22:23Z</time></trkpt><trkpt lat="45.69030347201833" lon="8.889415315161584"><ele>283.0</ele><time>2026-04-25T14:22:24Z</time></trkpt><trkpt lat="45.690138344746806" lon="8.8894556315866"><ele>282.0</ele><time>2026-04-25T14:22:25Z</time></trkpt><trkpt lat="45.68997816516983" lon="8.889494323049831"><ele>281.0</ele><time>2026-04-25T14:22:26Z</time></trkpt><trkpt lat="45.68983211291924" lon="8.889527268236641"><ele>281.0</ele><time>2026-04-25T14:22:27Z</time></trkpt><trkpt lat="45.68969730648866" lon="8.889557185075649"><ele>281.0</ele><time>2026-04-25T14:22:28Z</time></trkpt><trkpt lat="45.689579667676554" lon="8.889588507519731"><ele>281.0</ele><time>2026-04-25T14:22:29Z</time></trkpt><trkpt lat="45.68948345769747" lon="8.88961353894154"><ele>281.0</ele><time>2026-04-25T14:22:30Z</time></trkpt><trkpt lat="45.68940156134357" lon="8.889630606088488"><ele>281.0</ele><time>2026-04-25T14:22:31Z</time></trkpt><trkpt lat="45.68933210498645" lon="8.889640822994231"><ele>280.6666666666667</ele><time>2026-04-25T14:22:32Z</time></trkpt><trkpt lat="45.689217782821046" lon="8.889626167547558"><ele>280.33333333333337</ele><time>2026-04-25T14:22:34Z</time></trkpt><trkpt lat="45.68910071357553" lon="8.889551548377902"><ele>280.0</ele><time>2026-04-25T14:22:36Z</time></trkpt><trkpt lat="45.689041204618924" lon="8.889496628251473"><ele>279.6666666666667</ele><time>2026-04-25T14:22:37Z</time></trkpt><trkpt lat="45.68897555523344" lon="8.889482812156523"><ele>279.3333333333333</ele><time>2026-04-25T14:22:38Z</time></trkpt><trkpt lat="45.68891729768724" lon="8.8895189771559"><ele>279.0</ele><time>2026-04-25T14:22:39Z</time></trkpt><trkpt lat="45.688878953922725" lon="8.889598634052218"><ele>279.0</ele><time>2026-04-25T14:22:40Z</time></trkpt><trkpt lat="45.68886403414638" lon="8.889700590916382"><ele>279.0</ele><time>2026-04-25T14:22:41Z</time></trkpt><trkpt lat="45.688889986375074" lon="8.889807373986638"><ele>279.0</ele><time>2026-04-25T14:22:42Z</time></trkpt><trkpt lat="45.688946636049" lon="8.889896488863625"><ele>279.0</ele><time>2026-04-25T14:22:43Z</time></trkpt><trkpt lat="45.68901275387329" lon="8.889968622264664"><ele>279.0</ele><time>2026-04-25T14:22:44Z</time></trkpt><trkpt lat="45.68908001137024" lon="8.890044511022813"><ele>279.0</ele><time>2026-04-25T14:22:45Z</time></trkpt><trkpt lat="45.689092436173574" lon="8.890244330776211"><ele>279.0</ele><time>2026-04-25T14:22:46Z</time></trkpt><trkpt lat="45.68913475199147" lon="8.89046369888306"><ele>279.0</ele><time>2026-04-25T14:22:47Z</time></trkpt><trkpt lat="45.68918777313729" lon="8.890734870162147"><ele>279.0</ele><time>2026-04-25T14:22:48Z</time></trkpt><trkpt lat="45.6892622708707" lon="8.89105070611295"><ele>278.3333333333333</ele><time>2026-04-25T14:22:49Z</time></trkpt><trkpt lat="45.68929462439023" lon="8.891345846823793"><ele>277.66666666666663</ele><time>2026-04-25T14:22:50Z</time></trkpt><trkpt lat="45.68932026461186" lon="8.891589305043185"><ele>277.0</ele><time>2026-04-25T14:22:51Z</time></trkpt><trkpt lat="45.689334269146535" lon="8.891796234243706"><ele>277.0</ele><time>2026-04-25T14:22:52Z</time></trkpt><trkpt lat="45.68933640614948" lon="8.891961842476254"><ele>277.0</ele><time>2026-04-25T14:22:53Z</time></trkpt><trkpt lat="45.68931152289327" lon="8.892114641167202"><ele>277.0</ele><time>2026-04-25T14:22:54Z</time></trkpt><trkpt lat="45.689248861560664" lon="8.892291419586742"><ele>277.0</ele><time>2026-04-25T14:22:55Z</time></trkpt><trkpt lat="45.689170633681236" lon="8.892447252970545"><ele>277.0</ele><time>2026-04-25T14:22:56Z</time></trkpt><trkpt lat="45.68907762298501" lon="8.89257241649911"><ele>277.0</ele><time>2026-04-25T14:22:57Z</time></trkpt><trkpt lat="45.6889462115952" lon="8.892655662010199"><ele>277.0</ele><time>2026-04-25T14:22:58Z</time></trkpt><trkpt lat="45.68881075142153" lon="8.892687896973127"><ele>277.0</ele><time>2026-04-25T14:22:59Z</time></trkpt><trkpt lat="45.68866291716274" lon="8.892726077569595"><ele>278.25</ele><time>2026-04-25T14:23:00Z</time></trkpt><trkpt lat="45.68853225712252" lon="8.8927488355139"><ele>279.5</ele><time>2026-04-25T14:23:01Z</time></trkpt><trkpt lat="45.688404074615505" lon="8.892770548143009"><ele>280.75</ele><time>2026-04-25T14:23:02Z</time></trkpt><trkpt lat="45.68826385722455" lon="8.892790495561986"><ele>282.0</ele><time>2026-04-25T14:23:03Z</time></trkpt><trkpt lat="45.68811102747388" lon="8.892816690399405"><ele>282.0</ele><time>2026-04-25T14:23:04Z</time></trkpt><trkpt lat="45.687947850740656" lon="8.892848485949578"><ele>282.0</ele><time>2026-04-25T14:23:05Z</time></trkpt><trkpt lat="45.68778166142165" lon="8.892880573258704"><ele>282.0</ele><time>2026-04-25T14:23:06Z</time></trkpt><trkpt lat="45.68762309587234" lon="8.892912797021436"><ele>282.0</ele><time>2026-04-25T14:23:07Z</time></trkpt><trkpt lat="45.68747409907093" lon="8.892944298519225"><ele>282.0</ele><time>2026-04-25T14:23:08Z</time></trkpt><trkpt lat="45.68732485940055" lon="8.892973068498522"><ele>282.0</ele><time>2026-04-25T14:23:09Z</time></trkpt><trkpt lat="45.687173309179606" lon="8.893003192727836"><ele>282.0</ele><time>2026-04-25T14:23:10Z</time></trkpt><trkpt lat="45.68701721315181" lon="8.893035956031053"><ele>282.0</ele><time>2026-04-25T14:23:11Z</time></trkpt><trkpt lat="45.68686041183082" lon="8.893068254511075"><ele>282.0</ele><time>2026-04-25T14:23:12Z</time></trkpt><trkpt lat="45.686705457215766" lon="8.893102903503262"><ele>281.3333333333333</ele><time>2026-04-25T14:23:13Z</time></trkpt><trkpt lat="45.686547804825324" lon="8.893136608664243"><ele>280.66666666666663</ele><time>2026-04-25T14:23:14Z</time></trkpt><trkpt lat="45.68637913891792" lon="8.89318127419196"><ele>280.0</ele><time>2026-04-25T14:23:15Z</time></trkpt><trkpt lat="45.686176617071325" lon="8.893242961023256"><ele>280.0</ele><time>2026-04-25T14:23:16Z</time></trkpt><trkpt lat="45.68594511181137" lon="8.893300024970417"><ele>280.0</ele><time>2026-04-25T14:23:17Z</time></trkpt><trkpt lat="45.685693361528" lon="8.893348940825232"><ele>280.0</ele><time>2026-04-25T14:23:18Z</time></trkpt><trkpt lat="45.68544832093053" lon="8.893403784205587"><ele>280.0</ele><time>2026-04-25T14:23:19Z</time></trkpt><trkpt lat="45.685187689781124" lon="8.893468375885195"><ele>279.0</ele><time>2026-04-25T14:23:20Z</time></trkpt><trkpt lat="45.68490213169546" lon="8.89353816640825"><ele>278.0</ele><time>2026-04-25T14:23:21Z</time></trkpt><trkpt lat="45.68462475965793" lon="8.893605169939338"><ele>278.5</ele><time>2026-04-25T14:23:22Z</time></trkpt><trkpt lat="45.68435723276025" lon="8.893670841022974"><ele>279.0</ele><time>2026-04-25T14:23:23Z</time></trkpt><trkpt lat="45.68408869938821" lon="8.89374096847842"><ele>279.0</ele><time>2026-04-25T14:23:24Z</time></trkpt><trkpt lat="45.68381586680874" lon="8.893805247509173"><ele>279.0</ele><time>2026-04-25T14:23:25Z</time></trkpt><trkpt lat="45.68355065597628" lon="8.893869873442465"><ele>280.0</ele><time>2026-04-25T14:23:26Z</time></trkpt><trkpt lat="45.683279949888956" lon="8.893931545129925"><ele>281.0</ele><time>2026-04-25T14:23:27Z</time></trkpt><trkpt lat="45.68301821741681" lon="8.89399601572423"><ele>280.0</ele><time>2026-04-25T14:23:27.999Z</time></trkpt><trkpt lat="45.68275570113687" lon="8.894061423124997"><ele>279.0</ele><time>2026-04-25T14:23:28.999Z</time></trkpt><trkpt lat="45.6824949921013" lon="8.894121080781625"><ele>279.0</ele><time>2026-04-25T14:23:29.999Z</time></trkpt><trkpt lat="45.68224040432771" lon="8.894181805107396"><ele>279.0</ele><time>2026-04-25T14:23:30.999Z</time></trkpt><trkpt lat="45.68198200955778" lon="8.89424577336719"><ele>276.5</ele><time>2026-04-25T14:23:31.999Z</time></trkpt><trkpt lat="45.681704652745" lon="8.894314063092164"><ele>274.0</ele><time>2026-04-25T14:23:32.999Z</time></trkpt><trkpt lat="45.68141261460258" lon="8.894386323652078"><ele>274.0</ele><time>2026-04-25T14:23:33.999Z</time></trkpt><trkpt lat="45.68112472642192" lon="8.894461471237806"><ele>274.0</ele><time>2026-04-25T14:23:34.999Z</time></trkpt><trkpt lat="45.68088533615268" lon="8.894505502501831"><ele>272.5</ele><time>2026-04-25T14:23:35.999Z</time></trkpt><trkpt lat="45.680645134381244" lon="8.894557727561368"><ele>271.0</ele><time>2026-04-25T14:23:36.999Z</time></trkpt><trkpt lat="45.68040954566648" lon="8.89458325545255"><ele>272.5</ele><time>2026-04-25T14:23:37.999Z</time></trkpt><trkpt lat="45.680159654035855" lon="8.894575223230373"><ele>274.0</ele><time>2026-04-25T14:23:38.999Z</time></trkpt><trkpt lat="45.67989118835016" lon="8.8945390716353"><ele>274.0</ele><time>2026-04-25T14:23:39.999Z</time></trkpt><trkpt lat="45.679605782713814" lon="8.894492331432025"><ele>274.0</ele><time>2026-04-25T14:23:40.999Z</time></trkpt><trkpt lat="45.6793191677494" lon="8.89444942148641"><ele>275.5</ele><time>2026-04-25T14:23:41.999Z</time></trkpt><trkpt lat="45.67904036955388" lon="8.894410867170047"><ele>277.0</ele><time>2026-04-25T14:23:42.999Z</time></trkpt><trkpt lat="45.67876517832132" lon="8.894374208644441"><ele>277.5</ele><time>2026-04-25T14:23:43.999Z</time></trkpt><trkpt lat="45.67850268798526" lon="8.89433238891098"><ele>278.0</ele><time>2026-04-25T14:23:44.999Z</time></trkpt><trkpt lat="45.6782614925453" lon="8.89429780024763"><ele>278.0</ele><time>2026-04-25T14:23:45.999Z</time></trkpt><trkpt lat="45.67803662922278" lon="8.894262955625123"><ele>278.0</ele><time>2026-04-25T14:23:46.999Z</time></trkpt><trkpt lat="45.67782319013639" lon="8.894226521638432"><ele>278.0</ele><time>2026-04-25T14:23:47.999Z</time></trkpt><trkpt lat="45.677620021893496" lon="8.89419462099149"><ele>276.33333333333337</ele><time>2026-04-25T14:23:48.999Z</time></trkpt><trkpt lat="45.6774281140156" lon="8.894174752460996"><ele>274.6666666666667</ele><time>2026-04-25T14:23:49.999Z</time></trkpt><trkpt lat="45.677223851435244" lon="8.894165120040622"><ele>273.0</ele><time>2026-04-25T14:23:50.999Z</time></trkpt><trkpt lat="45.67701263653396" lon="8.894183522894451"><ele>270.5</ele><time>2026-04-25T14:23:51.999Z</time></trkpt><trkpt lat="45.67677665343433" lon="8.894249144145046"><ele>268.0</ele><time>2026-04-25T14:23:52.999Z</time></trkpt><trkpt lat="45.67651520789006" lon="8.894342116716539"><ele>267.5</ele><time>2026-04-25T14:23:53.999Z</time></trkpt><trkpt lat="45.676232432803204" lon="8.894444498963743"><ele>267.0</ele><time>2026-04-25T14:23:54.999Z</time></trkpt><trkpt lat="45.67592640817883" lon="8.894539531315894"><ele>266.0</ele><time>2026-04-25T14:23:55.999Z</time></trkpt><trkpt lat="45.675618255258264" lon="8.894632496605304"><ele>265.0</ele><time>2026-04-25T14:23:56.999Z</time></trkpt><trkpt lat="45.67534439772133" lon="8.894720665715433"><ele>266.0</ele><time>2026-04-25T14:23:57.999Z</time></trkpt><trkpt lat="45.67509113380095" lon="8.894796485079352"><ele>267.0</ele><time>2026-04-25T14:23:58.999Z</time></trkpt><trkpt lat="45.674854100566364" lon="8.89486920365263"><ele>267.0</ele><time>2026-04-25T14:23:59.999Z</time></trkpt><trkpt lat="45.67462902229326" lon="8.894936624701021"><ele>267.0</ele><time>2026-04-25T14:24:01Z</time></trkpt><trkpt lat="45.67441450683124" lon="8.895006367569085"><ele>266.5</ele><time>2026-04-25T14:24:02Z</time></trkpt><trkpt lat="45.67417563291065" lon="8.895087472212145"><ele>266.0</ele><time>2026-04-25T14:24:03Z</time></trkpt><trkpt lat="45.673931364298575" lon="8.895151384653934"><ele>266.6666666666667</ele><time>2026-04-25T14:24:04Z</time></trkpt><trkpt lat="45.6737546427167" lon="8.895220852775582"><ele>267.3333333333333</ele><time>2026-04-25T14:24:05Z</time></trkpt><trkpt lat="45.67359675820406" lon="8.895265902761409"><ele>268.0</ele><time>2026-04-25T14:24:06Z</time></trkpt><trkpt lat="45.673474809087246" lon="8.89529562862493"><ele>267.0</ele><time>2026-04-25T14:24:07Z</time></trkpt><trkpt lat="45.67336158481436" lon="8.895329579950674"><ele>266.0</ele><time>2026-04-25T14:24:08Z</time></trkpt><trkpt lat="45.673263665287664" lon="8.895331051803991"><ele>265.0</ele><time>2026-04-25T14:24:09Z</time></trkpt><trkpt lat="45.673169940120125" lon="8.895289314268352"><ele>264.0</ele><time>2026-04-25T14:24:10Z</time></trkpt><trkpt lat="45.67307697582157" lon="8.89528811418511"><ele>263.0</ele><time>2026-04-25T14:24:11Z</time></trkpt><trkpt lat="45.67297245790202" lon="8.895381120535815"><ele>263.0</ele><time>2026-04-25T14:24:12Z</time></trkpt><trkpt lat="45.67283324789115" lon="8.895501356764235"><ele>263.0</ele><time>2026-04-25T14:24:13Z</time></trkpt><trkpt lat="45.672634240844005" lon="8.89557684333935"><ele>263.0</ele><time>2026-04-25T14:24:14Z</time></trkpt><trkpt lat="45.67240350588672" lon="8.895642046749488"><ele>263.5</ele><time>2026-04-25T14:24:15Z</time></trkpt><trkpt lat="45.672144910232" lon="8.89571666291567"><ele>264.0</ele><time>2026-04-25T14:24:16Z</time></trkpt><trkpt lat="45.67190755734997" lon="8.895782973273905"><ele>264.3333333333333</ele><time>2026-04-25T14:24:17Z</time></trkpt><trkpt lat="45.67169977361812" lon="8.895845665089361"><ele>264.66666666666663</ele><time>2026-04-25T14:24:18Z</time></trkpt><trkpt lat="45.67151209542195" lon="8.895902958136444"><ele>265.0</ele><time>2026-04-25T14:24:19Z</time></trkpt><trkpt lat="45.67133539380352" lon="8.895962585141099"><ele>265.0</ele><time>2026-04-25T14:24:20Z</time></trkpt><trkpt lat="45.67116326187155" lon="8.896011550975564"><ele>265.0</ele><time>2026-04-25T14:24:21Z</time></trkpt><trkpt lat="45.67101259421409" lon="8.896046430504889"><ele>265.0</ele><time>2026-04-25T14:24:22Z</time></trkpt><trkpt lat="45.670829517217584" lon="8.896097383562987"><ele>265.0</ele><time>2026-04-25T14:24:23Z</time></trkpt><trkpt lat="45.67062169201813" lon="8.896150233630502"><ele>265.0</ele><time>2026-04-25T14:24:24Z</time></trkpt><trkpt lat="45.67041702315779" lon="8.896209498432015"><ele>265.0</ele><time>2026-04-25T14:24:25Z</time></trkpt><trkpt lat="45.67020240050214" lon="8.89623949485034"><ele>265.0</ele><time>2026-04-25T14:24:26Z</time></trkpt><trkpt lat="45.66999238178834" lon="8.8962710408845"><ele>265.0</ele><time>2026-04-25T14:24:27Z</time></trkpt><trkpt lat="45.6698068621569" lon="8.896300272307503"><ele>265.0</ele><time>2026-04-25T14:24:28Z</time></trkpt><trkpt lat="45.66963561998726" lon="8.896323425540194"><ele>265.0</ele><time>2026-04-25T14:24:29Z</time></trkpt><trkpt lat="45.66948337274928" lon="8.896348895731299"><ele>265.0</ele><time>2026-04-25T14:24:30Z</time></trkpt><trkpt lat="45.66934930861185" lon="8.896365080200304"><ele>265.0</ele><time>2026-04-25T14:24:31Z</time></trkpt><trkpt lat="45.66923991739785" lon="8.896375964863429"><ele>265.0</ele><time>2026-04-25T14:24:32Z</time></trkpt><trkpt lat="45.669156734907425" lon="8.896371460569709"><ele>264.99999999999994</ele><time>2026-04-25T14:24:33Z</time></trkpt><trkpt lat="45.6690932144356" lon="8.896348979971853"><ele>265.0</ele><time>2026-04-25T14:24:34Z</time></trkpt><trkpt lat="45.669029988371825" lon="8.896309915181005"><ele>265.0</ele><time>2026-04-25T14:24:35Z</time></trkpt><trkpt lat="45.66897119342553" lon="8.89627480179249"><ele>265.0</ele><time>2026-04-25T14:24:36Z</time></trkpt><trkpt lat="45.66890602801875" lon="8.896284712861753"><ele>265.0</ele><time>2026-04-25T14:24:37Z</time></trkpt><trkpt lat="45.668833522175674" lon="8.896349363659297"><ele>264.99999999999994</ele><time>2026-04-25T14:24:38Z</time></trkpt><trkpt lat="45.66876109698351" lon="8.896418664002253"><ele>265.0</ele><time>2026-04-25T14:24:39Z</time></trkpt><trkpt lat="45.66867850263698" lon="8.896443305321638"><ele>264.6</ele><time>2026-04-25T14:24:40Z</time></trkpt><trkpt lat="45.66858183355536" lon="8.896446072727343"><ele>264.2</ele><time>2026-04-25T14:24:41Z</time></trkpt><trkpt lat="45.668480592997135" lon="8.89644304788485"><ele>263.8</ele><time>2026-04-25T14:24:42Z</time></trkpt><trkpt lat="45.66838128382148" lon="8.896435869044334"><ele>263.4</ele><time>2026-04-25T14:24:43Z</time></trkpt><trkpt lat="45.66827673889281" lon="8.896453815516113"><ele>263.0</ele><time>2026-04-25T14:24:44Z</time></trkpt><trkpt lat="45.668173709997575" lon="8.896472448174427"><ele>263.0</ele><time>2026-04-25T14:24:45Z</time></trkpt><trkpt lat="45.66807795101616" lon="8.896486643578498"><ele>263.0</ele><time>2026-04-25T14:24:46Z</time></trkpt><trkpt lat="45.66797305404673" lon="8.896502588408206"><ele>263.0</ele><time>2026-04-25T14:24:47Z</time></trkpt><trkpt lat="45.66786344307295" lon="8.896513183670473"><ele>263.0</ele><time>2026-04-25T14:24:48Z</time></trkpt><trkpt lat="45.66774748349754" lon="8.896527353969942"><ele>263.0</ele><time>2026-04-25T14:24:49Z</time></trkpt><trkpt lat="45.667630510982335" lon="8.896537650596597"><ele>262.4</ele><time>2026-04-25T14:24:50Z</time></trkpt><trkpt lat="45.667518997725296" lon="8.89655005778768"><ele>261.8</ele><time>2026-04-25T14:24:51Z</time></trkpt><trkpt lat="45.667414886646355" lon="8.896563311499738"><ele>261.2</ele><time>2026-04-25T14:24:52Z</time></trkpt><trkpt lat="45.667313139312746" lon="8.896577286166776"><ele>260.6</ele><time>2026-04-25T14:24:53Z</time></trkpt><trkpt lat="45.667213763889436" lon="8.896593803974719"><ele>260.0</ele><time>2026-04-25T14:24:54Z</time></trkpt><trkpt lat="45.667118857999526" lon="8.89660886476385"><ele>260.0</ele><time>2026-04-25T14:24:55Z</time></trkpt><trkpt lat="45.66703890787941" lon="8.89662572750851"><ele>260.0</ele><time>2026-04-25T14:24:56Z</time></trkpt><trkpt lat="45.666970808680006" lon="8.896613411726369"><ele>260.0</ele><time>2026-04-25T14:24:57Z</time></trkpt><trkpt lat="45.666848789613695" lon="8.89662829207923"><ele>260.0</ele><time>2026-04-25T14:24:59Z</time></trkpt><trkpt lat="45.66673917373185" lon="8.896640350601325"><ele>260.0</ele><time>2026-04-25T14:25:01Z</time></trkpt><trkpt lat="45.66665854768436" lon="8.896649194447784"><ele>260.5</ele><time>2026-04-25T14:25:03Z</time></trkpt><trkpt lat="45.66657318718032" lon="8.896680764065314"><ele>261.0</ele><time>2026-04-25T14:25:05.999Z</time></trkpt><trkpt lat="45.6664841761525" lon="8.896666330723866"><ele>261.5</ele><time>2026-04-25T14:25:16.999Z</time></trkpt><trkpt lat="45.66636434475889" lon="8.896680559065636"><ele>262.0</ele><time>2026-04-25T14:25:17.999Z</time></trkpt><trkpt lat="45.666199134543305" lon="8.896700611785535"><ele>262.0</ele><time>2026-04-25T14:25:18.999Z</time></trkpt><trkpt lat="45.6660251140431" lon="8.896719220124329"><ele>262.0</ele><time>2026-04-25T14:25:19.999Z</time></trkpt><trkpt lat="45.665852149220335" lon="8.89674147772478"><ele>262.0</ele><time>2026-04-25T14:25:20.999Z</time></trkpt><trkpt lat="45.66569731532028" lon="8.896757592708122"><ele>262.0</ele><time>2026-04-25T14:25:21.999Z</time></trkpt><trkpt lat="45.66556734251493" lon="8.896772943263569"><ele>262.0</ele><time>2026-04-25T14:25:22.999Z</time></trkpt><trkpt lat="45.66545033545394" lon="8.896787070047207"><ele>262.0</ele><time>2026-04-25T14:25:23.999Z</time></trkpt><trkpt lat="45.66534229796434" lon="8.896794695520718"><ele>262.0</ele><time>2026-04-25T14:25:24.999Z</time></trkpt><trkpt lat="45.66522929932859" lon="8.89680577148779"><ele>261.75</ele><time>2026-04-25T14:25:25.999Z</time></trkpt><trkpt lat="45.66510607136472" lon="8.896822620232133"><ele>261.5</ele><time>2026-04-25T14:25:26.999Z</time></trkpt><trkpt lat="45.6649771677849" lon="8.896837232551615"><ele>261.25</ele><time>2026-04-25T14:25:27.999Z</time></trkpt><trkpt lat="45.66484395452512" lon="8.896849744805177"><ele>261.0</ele><time>2026-04-25T14:25:28.999Z</time></trkpt><trkpt lat="45.664706159098664" lon="8.896859839978601"><ele>261.0</ele><time>2026-04-25T14:25:29.999Z</time></trkpt><trkpt lat="45.66456895268541" lon="8.89687176650638"><ele>261.0</ele><time>2026-04-25T14:25:30.999Z</time></trkpt><trkpt lat="45.664434757391035" lon="8.896881808534978"><ele>261.0</ele><time>2026-04-25T14:25:31.999Z</time></trkpt><trkpt lat="45.66429243152323" lon="8.89690194428977"><ele>261.0</ele><time>2026-04-25T14:25:32.999Z</time></trkpt><trkpt lat="45.664142032680566" lon="8.896926529302192"><ele>260.8</ele><time>2026-04-25T14:25:33.999Z</time></trkpt><trkpt lat="45.66399911695681" lon="8.896950587609114"><ele>260.6</ele><time>2026-04-25T14:25:34.999Z</time></trkpt><trkpt lat="45.66387606001929" lon="8.896972938781605"><ele>260.4</ele><time>2026-04-25T14:25:35.999Z</time></trkpt><trkpt lat="45.66379023963926" lon="8.896992217905193"><ele>260.2</ele><time>2026-04-25T14:25:36.999Z</time></trkpt><trkpt lat="45.66370778419601" lon="8.897007651199948"><ele>260.0</ele><time>2026-04-25T14:25:37.999Z</time></trkpt><trkpt lat="45.66363638901823" lon="8.897018231598947"><ele>259.8</ele><time>2026-04-25T14:25:38.999Z</time></trkpt><trkpt lat="45.663569729409865" lon="8.897009632682433"><ele>259.6</ele><time>2026-04-25T14:25:39.999Z</time></trkpt><trkpt lat="45.66349113624308" lon="8.896987930729727"><ele>259.4</ele><time>2026-04-25T14:25:40.999Z</time></trkpt><trkpt lat="45.66339602368211" lon="8.89698682910311"><ele>259.2</ele><time>2026-04-25T14:25:41.999Z</time></trkpt><trkpt lat="45.66325011122037" lon="8.89702200712274"><ele>259.0</ele><time>2026-04-25T14:25:42.999Z</time></trkpt><trkpt lat="45.66305434975532" lon="8.89706632026831"><ele>259.0</ele><time>2026-04-25T14:25:43.999Z</time></trkpt><trkpt lat="45.66281235650872" lon="8.897114686313296"><ele>259.0</ele><time>2026-04-25T14:25:44.999Z</time></trkpt><trkpt lat="45.66255763912251" lon="8.897158078331653"><ele>259.0</ele><time>2026-04-25T14:25:45.999Z</time></trkpt><trkpt lat="45.66228817685481" lon="8.897218980077175"><ele>259.0</ele><time>2026-04-25T14:25:46.999Z</time></trkpt><trkpt lat="45.66200212264277" lon="8.89728212131503"><ele>258.0</ele><time>2026-04-25T14:25:47.999Z</time></trkpt><trkpt lat="45.66171570680295" lon="8.897340297700774"><ele>257.0</ele><time>2026-04-25T14:25:48.999Z</time></trkpt><trkpt lat="45.66142571337227" lon="8.897397027708715"><ele>257.0</ele><time>2026-04-25T14:25:49.999Z</time></trkpt><trkpt lat="45.661155990549446" lon="8.897447750647782"><ele>257.0</ele><time>2026-04-25T14:25:50.999Z</time></trkpt><trkpt lat="45.66090900795647" lon="8.897491945108055"><ele>257.0</ele><time>2026-04-25T14:25:51.999Z</time></trkpt><trkpt lat="45.66065030724824" lon="8.897539636628087"><ele>257.0</ele><time>2026-04-25T14:25:52.999Z</time></trkpt><trkpt lat="45.66039457679406" lon="8.897587296593096"><ele>257.5</ele><time>2026-04-25T14:25:53.999Z</time></trkpt><trkpt lat="45.660142404712246" lon="8.897638491697192"><ele>258.0</ele><time>2026-04-25T14:25:54.999Z</time></trkpt><trkpt lat="45.659883596935956" lon="8.897688310555196"><ele>258.0</ele><time>2026-04-25T14:25:55.999Z</time></trkpt><trkpt lat="45.659601066454904" lon="8.897742322543518"><ele>258.0</ele><time>2026-04-25T14:25:56.999Z</time></trkpt><trkpt lat="45.65929602052054" lon="8.897804443122652"><ele>256.5</ele><time>2026-04-25T14:25:57.999Z</time></trkpt><trkpt lat="45.65898922124166" lon="8.897860444986366"><ele>255.0</ele><time>2026-04-25T14:25:58.999Z</time></trkpt><trkpt lat="45.65871573701382" lon="8.897913454769942"><ele>255.5</ele><time>2026-04-25T14:25:59.999Z</time></trkpt><trkpt lat="45.65846453182746" lon="8.897959948788387"><ele>256.0</ele><time>2026-04-25T14:26:00.999Z</time></trkpt><trkpt lat="45.658231197267966" lon="8.89800471274136"><ele>256.0</ele><time>2026-04-25T14:26:01.999Z</time></trkpt><trkpt lat="45.65800677048849" lon="8.898046288918692"><ele>256.0</ele><time>2026-04-25T14:26:02.999Z</time></trkpt><trkpt lat="45.657789718559336" lon="8.898088062345241"><ele>256.0</ele><time>2026-04-25T14:26:03.999Z</time></trkpt><trkpt lat="45.65756605398015" lon="8.898127756027026"><ele>256.3333333333333</ele><time>2026-04-25T14:26:04.999Z</time></trkpt><trkpt lat="45.6573577392766" lon="8.898169434254486"><ele>256.6666666666667</ele><time>2026-04-25T14:26:05.999Z</time></trkpt><trkpt lat="45.6571681722321" lon="8.89820661477426"><ele>257.0</ele><time>2026-04-25T14:26:07Z</time></trkpt><trkpt lat="45.65699507266984" lon="8.89824002310318"><ele>257.0</ele><time>2026-04-25T14:26:08Z</time></trkpt><trkpt lat="45.65684503986309" lon="8.898265697885764"><ele>257.0</ele><time>2026-04-25T14:26:09Z</time></trkpt><trkpt lat="45.656710728910625" lon="8.898285145609503"><ele>257.0</ele><time>2026-04-25T14:26:10Z</time></trkpt><trkpt lat="45.65659591696843" lon="8.898296832910589"><ele>257.0</ele><time>2026-04-25T14:26:11Z</time></trkpt><trkpt lat="45.656490744480685" lon="8.898282185386353"><ele>257.0</ele><time>2026-04-25T14:26:12Z</time></trkpt><trkpt lat="45.65638141855082" lon="8.898253313170061"><ele>257.0</ele><time>2026-04-25T14:26:13Z</time></trkpt><trkpt lat="45.6562700069136" lon="8.898245335598608"><ele>257.0</ele><time>2026-04-25T14:26:14Z</time></trkpt><trkpt lat="45.65614697401929" lon="8.898421978516776"><ele>257.0</ele><time>2026-04-25T14:26:15Z</time></trkpt><trkpt lat="45.65598184092842" lon="8.898563785814767"><ele>256.0</ele><time>2026-04-25T14:26:16Z</time></trkpt><trkpt lat="45.65576760919977" lon="8.898703002729496"><ele>255.0</ele><time>2026-04-25T14:26:17Z</time></trkpt><trkpt lat="45.655543953221226" lon="8.898855435741861"><ele>255.0</ele><time>2026-04-25T14:26:18Z</time></trkpt><trkpt lat="45.6553195327853" lon="8.899016769554098"><ele>255.0</ele><time>2026-04-25T14:26:19Z</time></trkpt><trkpt lat="45.65511723395269" lon="8.8991660098613"><ele>254.33333333333331</ele><time>2026-04-25T14:26:20Z</time></trkpt><trkpt lat="45.654934744405246" lon="8.899300894014319"><ele>253.66666666666666</ele><time>2026-04-25T14:26:21Z</time></trkpt><trkpt lat="45.65475949724255" lon="8.899425657953946"><ele>253.0</ele><time>2026-04-25T14:26:22Z</time></trkpt><trkpt lat="45.65457973533715" lon="8.899550646266633"><ele>253.66666666666666</ele><time>2026-04-25T14:26:23Z</time></trkpt><trkpt lat="45.65439572560593" lon="8.89968113667229"><ele>254.33333333333331</ele><time>2026-04-25T14:26:24Z</time></trkpt><trkpt lat="45.65421269901988" lon="8.899815077123415"><ele>255.0</ele><time>2026-04-25T14:26:25Z</time></trkpt><trkpt lat="45.654023726791074" lon="8.899943868545252"><ele>255.0</ele><time>2026-04-25T14:26:26Z</time></trkpt><trkpt lat="45.65385355064296" lon="8.90007783365957"><ele>255.0</ele><time>2026-04-25T14:26:27Z</time></trkpt><trkpt lat="45.65368333156733" lon="8.900211174626827"><ele>255.0</ele><time>2026-04-25T14:26:28Z</time></trkpt><trkpt lat="45.65352216817078" lon="8.900363650793231"><ele>253.66666666666669</ele><time>2026-04-25T14:26:29Z</time></trkpt><trkpt lat="45.653379494672905" lon="8.900545646377479"><ele>252.33333333333334</ele><time>2026-04-25T14:26:30Z</time></trkpt><trkpt lat="45.65325101290545" lon="8.900745670745808"><ele>251.0</ele><time>2026-04-25T14:26:31Z</time></trkpt><trkpt lat="45.653132241914996" lon="8.900963531200793"><ele>251.0</ele><time>2026-04-25T14:26:32Z</time></trkpt><trkpt lat="45.65302539762722" lon="8.901194637100387"><ele>251.0</ele><time>2026-04-25T14:26:33Z</time></trkpt><trkpt lat="45.652928052595236" lon="8.90144895900965"><ele>251.0</ele><time>2026-04-25T14:26:34Z</time></trkpt><trkpt lat="45.652839771303164" lon="8.901731918602986"><ele>251.5</ele><time>2026-04-25T14:26:35Z</time></trkpt><trkpt lat="45.65276439690714" lon="8.90204402259758"><ele>252.0</ele><time>2026-04-25T14:26:36Z</time></trkpt><trkpt lat="45.65267246289029" lon="8.902367148602156"><ele>251.5</ele><time>2026-04-25T14:26:37Z</time></trkpt><trkpt lat="45.65257363569705" lon="8.902741966135528"><ele>251.0</ele><time>2026-04-25T14:26:38Z</time></trkpt><trkpt lat="45.65246880755796" lon="8.903138679038925"><ele>251.0</ele><time>2026-04-25T14:26:39Z</time></trkpt><trkpt lat="45.6523723324922" lon="8.903532395211334"><ele>251.0</ele><time>2026-04-25T14:26:40Z</time></trkpt><trkpt lat="45.65226484216698" lon="8.903918716013315"><ele>250.0</ele><time>2026-04-25T14:26:41Z</time></trkpt><trkpt lat="45.6521631555182" lon="8.90431137519986"><ele>249.0</ele><time>2026-04-25T14:26:42Z</time></trkpt><trkpt lat="45.65206215656367" lon="8.904695405445661"><ele>249.0</ele><time>2026-04-25T14:26:43Z</time></trkpt><trkpt lat="45.65196458332817" lon="8.90506840010873"><ele>249.0</ele><time>2026-04-25T14:26:44Z</time></trkpt><trkpt lat="45.65186229238173" lon="8.905451044731366"><ele>250.5</ele><time>2026-04-25T14:26:45Z</time></trkpt><trkpt lat="45.651755337986756" lon="8.905865349086351"><ele>252.0</ele><time>2026-04-25T14:26:46Z</time></trkpt><trkpt lat="45.651645294553596" lon="8.906282510265807"><ele>252.0</ele><time>2026-04-25T14:26:47Z</time></trkpt><trkpt lat="45.65153978929679" lon="8.906672548444995"><ele>252.0</ele><time>2026-04-25T14:26:48Z</time></trkpt><trkpt lat="45.65144242496573" lon="8.907028645593554"><ele>252.0</ele><time>2026-04-25T14:26:49Z</time></trkpt><trkpt lat="45.65134542083441" lon="8.907358096186828"><ele>252.0</ele><time>2026-04-25T14:26:50Z</time></trkpt><trkpt lat="45.651239612304934" lon="8.907656794136287"><ele>251.66666666666669</ele><time>2026-04-25T14:26:51Z</time></trkpt><trkpt lat="45.65111330718913" lon="8.907905531877027"><ele>251.33333333333334</ele><time>2026-04-25T14:26:52Z</time></trkpt><trkpt lat="45.650971336923604" lon="8.908123423113054"><ele>251.0</ele><time>2026-04-25T14:26:53Z</time></trkpt><trkpt lat="45.65079855996504" lon="8.908323373754497"><ele>251.66666666666669</ele><time>2026-04-25T14:26:54Z</time></trkpt><trkpt lat="45.65062004481451" lon="8.90850815411023"><ele>252.33333333333331</ele><time>2026-04-25T14:26:55Z</time></trkpt><trkpt lat="45.6504388545495" lon="8.908632987258219"><ele>253.0</ele><time>2026-04-25T14:26:56Z</time></trkpt><trkpt lat="45.6502405216947" lon="8.908733917897258"><ele>251.33333333333331</ele><time>2026-04-25T14:26:57Z</time></trkpt><trkpt lat="45.65002170202919" lon="8.908848626377276"><ele>249.66666666666669</ele><time>2026-04-25T14:26:58Z</time></trkpt><trkpt lat="45.649831257609605" lon="8.908952782180497"><ele>248.0</ele><time>2026-04-25T14:26:59Z</time></trkpt><trkpt lat="45.649647667561965" lon="8.909056984248025"><ele>248.0</ele><time>2026-04-25T14:27:00Z</time></trkpt><trkpt lat="45.64947614344702" lon="8.9091476778184"><ele>248.0</ele><time>2026-04-25T14:27:01Z</time></trkpt><trkpt lat="45.649311577426516" lon="8.909229057571277"><ele>248.0</ele><time>2026-04-25T14:27:02Z</time></trkpt><trkpt lat="45.64915237443485" lon="8.90929002638344"><ele>248.5</ele><time>2026-04-25T14:27:03Z</time></trkpt><trkpt lat="45.64900276594403" lon="8.90933478520262"><ele>249.0</ele><time>2026-04-25T14:27:04Z</time></trkpt><trkpt lat="45.64888787126345" lon="8.909456992952942"><ele>249.5</ele><time>2026-04-25T14:27:05Z</time></trkpt><trkpt lat="45.64878794255165" lon="8.909510889813836"><ele>250.0</ele><time>2026-04-25T14:27:06Z</time></trkpt><trkpt lat="45.648704531622286" lon="8.909546565159014"><ele>249.66666666666666</ele><time>2026-04-25T14:27:07Z</time></trkpt><trkpt lat="45.64856219301038" lon="8.909513840552165"><ele>249.33333333333331</ele><time>2026-04-25T14:27:09Z</time></trkpt><trkpt lat="45.648487343587284" lon="8.909502839867203"><ele>249.0</ele><time>2026-04-25T14:27:10Z</time></trkpt><trkpt lat="45.6484223541992" lon="8.909569930764283"><ele>248.66666666666669</ele><time>2026-04-25T14:27:11Z</time></trkpt><trkpt lat="45.648388102425635" lon="8.909669489781807"><ele>248.33333333333334</ele><time>2026-04-25T14:27:12Z</time></trkpt><trkpt lat="45.64834421670601" lon="8.909747123191451"><ele>248.0</ele><time>2026-04-25T14:27:13Z</time></trkpt><trkpt lat="45.64827668582725" lon="8.90980495546541"><ele>248.0</ele><time>2026-04-25T14:27:14Z</time></trkpt><trkpt lat="45.64818761301066" lon="8.909845475834873"><ele>248.0</ele><time>2026-04-25T14:27:15Z</time></trkpt><trkpt lat="45.64808703423178" lon="8.909897880502193"><ele>248.0</ele><time>2026-04-25T14:27:16Z</time></trkpt><trkpt lat="45.64798117620281" lon="8.909951840045553"><ele>248.0</ele><time>2026-04-25T14:27:17Z</time></trkpt><trkpt lat="45.64787382106213" lon="8.910013904667547"><ele>248.0</ele><time>2026-04-25T14:27:18Z</time></trkpt><trkpt lat="45.64775955591421" lon="8.910079479738084"><ele>247.33333333333334</ele><time>2026-04-25T14:27:19Z</time></trkpt><trkpt lat="45.64763647502808" lon="8.910143581356971"><ele>246.66666666666669</ele><time>2026-04-25T14:27:20Z</time></trkpt><trkpt lat="45.647482180047255" lon="8.910229570811195"><ele>246.0</ele><time>2026-04-25T14:27:21Z</time></trkpt><trkpt lat="45.64730659374426" lon="8.910328332878166"><ele>246.0</ele><time>2026-04-25T14:27:21.999Z</time></trkpt><trkpt lat="45.64713413628956" lon="8.91042451254798"><ele>246.0</ele><time>2026-04-25T14:27:22.999Z</time></trkpt><trkpt lat="45.64695778195053" lon="8.910521046206128"><ele>246.0</ele><time>2026-04-25T14:27:23.999Z</time></trkpt><trkpt lat="45.64678892875113" lon="8.910598822674556"><ele>246.25</ele><time>2026-04-25T14:27:24.999Z</time></trkpt><trkpt lat="45.64664183550506" lon="8.910665122066016"><ele>246.5</ele><time>2026-04-25T14:27:25.999Z</time></trkpt><trkpt lat="45.64650810731335" lon="8.91073517031705"><ele>246.75</ele><time>2026-04-25T14:27:26.999Z</time></trkpt><trkpt lat="45.646387779467304" lon="8.91080438801396"><ele>247.0</ele><time>2026-04-25T14:27:27.999Z</time></trkpt><trkpt lat="45.64627045462346" lon="8.91087219094603"><ele>247.2</ele><time>2026-04-25T14:27:28.999Z</time></trkpt><trkpt lat="45.646163682322026" lon="8.910927621007081"><ele>247.39999999999998</ele><time>2026-04-25T14:27:29.999Z</time></trkpt><trkpt lat="45.64606372666558" lon="8.910968760591594"><ele>247.60000000000002</ele><time>2026-04-25T14:27:30.999Z</time></trkpt><trkpt lat="45.64596723846898" lon="8.910991429738582"><ele>247.8</ele><time>2026-04-25T14:27:31.999Z</time></trkpt><trkpt lat="45.6458795994794" lon="8.910988225783099"><ele>248.0</ele><time>2026-04-25T14:27:32.999Z</time></trkpt><trkpt lat="45.645789658537424" lon="8.910986080314277"><ele>248.0</ele><time>2026-04-25T14:27:33.999Z</time></trkpt><trkpt lat="45.64570769889778" lon="8.911040460543823"><ele>248.0</ele><time>2026-04-25T14:27:34.999Z</time></trkpt><trkpt lat="45.64562424604894" lon="8.911145281877328"><ele>248.0</ele><time>2026-04-25T14:27:35.999Z</time></trkpt><trkpt lat="45.64552166546602" lon="8.911214383254023"><ele>248.0</ele><time>2026-04-25T14:27:36.999Z</time></trkpt><trkpt lat="45.6453867228767" lon="8.911249411392129"><ele>247.33333333333334</ele><time>2026-04-25T14:27:37.999Z</time></trkpt><trkpt lat="45.64522890249556" lon="8.9112633060744"><ele>246.66666666666669</ele><time>2026-04-25T14:27:38.999Z</time></trkpt><trkpt lat="45.64506257952509" lon="8.911258906687836"><ele>246.0</ele><time>2026-04-25T14:27:39.999Z</time></trkpt><trkpt lat="45.64489553949792" lon="8.911238268434925"><ele>246.0</ele><time>2026-04-25T14:27:40.999Z</time></trkpt><trkpt lat="45.64472598212112" lon="8.911192416440844"><ele>246.0</ele><time>2026-04-25T14:27:41.999Z</time></trkpt><trkpt lat="45.644560787385174" lon="8.911127292826523"><ele>246.0</ele><time>2026-04-25T14:27:42.999Z</time></trkpt><trkpt lat="45.644389655417946" lon="8.91103880555052"><ele>246.0</ele><time>2026-04-25T14:27:43.999Z</time></trkpt><trkpt lat="45.64419140489545" lon="8.91092201030838"><ele>246.0</ele><time>2026-04-25T14:27:44.999Z</time></trkpt><trkpt lat="45.64396350433317" lon="8.91075940348521"><ele>246.0</ele><time>2026-04-25T14:27:45.999Z</time></trkpt><trkpt lat="45.64371044485376" lon="8.91061812962624"><ele>246.0</ele><time>2026-04-25T14:27:46.999Z</time></trkpt><trkpt lat="45.643470274591124" lon="8.910458782661243"><ele>244.5</ele><time>2026-04-25T14:27:47.999Z</time></trkpt><trkpt lat="45.64320838092459" lon="8.910289163793184"><ele>243.0</ele><time>2026-04-25T14:27:48.999Z</time></trkpt><trkpt lat="45.642944421068485" lon="8.910124878992516"><ele>244.5</ele><time>2026-04-25T14:27:49.999Z</time></trkpt><trkpt lat="45.64267685442929" lon="8.909961848218378"><ele>246.0</ele><time>2026-04-25T14:27:50.999Z</time></trkpt><trkpt lat="45.6423922075876" lon="8.909789709902693"><ele>246.0</ele><time>2026-04-25T14:27:51.999Z</time></trkpt><trkpt lat="45.642129554476995" lon="8.90962938488518"><ele>246.0</ele><time>2026-04-25T14:27:52.999Z</time></trkpt><trkpt lat="45.64188984181538" lon="8.909480978688947"><ele>245.0</ele><time>2026-04-25T14:27:53.999Z</time></trkpt><trkpt lat="45.64165816022063" lon="8.909337443885917"><ele>244.0</ele><time>2026-04-25T14:27:54.999Z</time></trkpt><trkpt lat="45.641424933741575" lon="8.909189896282813"><ele>244.0</ele><time>2026-04-25T14:27:55.999Z</time></trkpt><trkpt lat="45.641186271650604" lon="8.909042432659387"><ele>244.0</ele><time>2026-04-25T14:27:56.999Z</time></trkpt><trkpt lat="45.64093286067932" lon="8.908893541466773"><ele>242.5</ele><time>2026-04-25T14:27:57.999Z</time></trkpt><trkpt lat="45.64065817462356" lon="8.908734825202403"><ele>241.0</ele><time>2026-04-25T14:27:58.999Z</time></trkpt><trkpt lat="45.64040268306997" lon="8.90858276272683"><ele>241.0</ele><time>2026-04-25T14:27:59.999Z</time></trkpt><trkpt lat="45.640172673954226" lon="8.90844409006747"><ele>241.0</ele><time>2026-04-25T14:28:00.999Z</time></trkpt><trkpt lat="45.639955963492156" lon="8.908317708099936"><ele>241.0</ele><time>2026-04-25T14:28:01.999Z</time></trkpt><trkpt lat="45.6397476723969" lon="8.908192061887249"><ele>241.0</ele><time>2026-04-25T14:28:02.999Z</time></trkpt><trkpt lat="45.63954754629769" lon="8.908059845232756"><ele>241.0</ele><time>2026-04-25T14:28:03.999Z</time></trkpt><trkpt lat="45.6393613744652" lon="8.907934295126033"><ele>241.66666666666666</ele><time>2026-04-25T14:28:04.999Z</time></trkpt><trkpt lat="45.63918441254075" lon="8.907818198059935"><ele>242.33333333333331</ele><time>2026-04-25T14:28:05.999Z</time></trkpt><trkpt lat="45.639023559226416" lon="8.907720006200245"><ele>243.0</ele><time>2026-04-25T14:28:06.999Z</time></trkpt><trkpt lat="45.638873760231164" lon="8.907642298430101"><ele>243.0</ele><time>2026-04-25T14:28:07.999Z</time></trkpt><trkpt lat="45.63872855788432" lon="8.907585725761422"><ele>243.0</ele><time>2026-04-25T14:28:08.999Z</time></trkpt><trkpt lat="45.638606492574716" lon="8.907545310116882"><ele>243.0</ele><time>2026-04-25T14:28:09.999Z</time></trkpt><trkpt lat="45.63851063489092" lon="8.907506550374881"><ele>243.0</ele><time>2026-04-25T14:28:10.999Z</time></trkpt><trkpt lat="45.63841772387276" lon="8.907445267547486"><ele>242.5</ele><time>2026-04-25T14:28:11.999Z</time></trkpt><trkpt lat="45.6383253374119" lon="8.907336468914666"><ele>242.0</ele><time>2026-04-25T14:28:13Z</time></trkpt><trkpt lat="45.638219549664136" lon="8.90723036783435"><ele>241.5</ele><time>2026-04-25T14:28:14Z</time></trkpt><trkpt lat="45.63810000857594" lon="8.907178079530325"><ele>241.0</ele><time>2026-04-25T14:28:15Z</time></trkpt><trkpt lat="45.63799536995856" lon="8.9071140350842"><ele>240.99999999999997</ele><time>2026-04-25T14:28:16Z</time></trkpt><trkpt lat="45.637930726231225" lon="8.906995211132484"><ele>241.0</ele><time>2026-04-25T14:28:17Z</time></trkpt><trkpt lat="45.63788265335229" lon="8.906864924339631"><ele>241.0</ele><time>2026-04-25T14:28:18Z</time></trkpt><trkpt lat="45.63782532304849" lon="8.906774972333265"><ele>241.0</ele><time>2026-04-25T14:28:19Z</time></trkpt><trkpt lat="45.63775449700568" lon="8.906734451307774"><ele>240.99999999999997</ele><time>2026-04-25T14:28:20Z</time></trkpt><trkpt lat="45.6376799372843" lon="8.90674447360451"><ele>241.0</ele><time>2026-04-25T14:28:21Z</time></trkpt><trkpt lat="45.637615245301475" lon="8.906799823158458"><ele>241.4</ele><time>2026-04-25T14:28:22Z</time></trkpt><trkpt lat="45.63755723359133" lon="8.906886411161194"><ele>241.8</ele><time>2026-04-25T14:28:23Z</time></trkpt><trkpt lat="45.63748989027997" lon="8.906960543449186"><ele>242.20000000000002</ele><time>2026-04-25T14:28:24Z</time></trkpt><trkpt lat="45.63740192042459" lon="8.907004242317617"><ele>242.60000000000002</ele><time>2026-04-25T14:28:25Z</time></trkpt><trkpt lat="45.637288306481395" lon="8.9070338433156"><ele>243.0</ele><time>2026-04-25T14:28:26Z</time></trkpt><trkpt lat="45.63716640167765" lon="8.907058625085073"><ele>243.0</ele><time>2026-04-25T14:28:27Z</time></trkpt><trkpt lat="45.63703892330352" lon="8.907087776994612"><ele>243.0</ele><time>2026-04-25T14:28:28Z</time></trkpt><trkpt lat="45.63691614511726" lon="8.907120339478325"><ele>243.0</ele><time>2026-04-25T14:28:29Z</time></trkpt><trkpt lat="45.63679589245443" lon="8.90715238650695"><ele>243.0</ele><time>2026-04-25T14:28:30Z</time></trkpt><trkpt lat="45.63667982741145" lon="8.90718570049226"><ele>242.75</ele><time>2026-04-25T14:28:31Z</time></trkpt><trkpt lat="45.63656220546147" lon="8.907221871250847"><ele>242.5</ele><time>2026-04-25T14:28:32Z</time></trkpt><trkpt lat="45.63642807453797" lon="8.907268921877845"><ele>242.25</ele><time>2026-04-25T14:28:33Z</time></trkpt><trkpt lat="45.63626547479906" lon="8.907302912925328"><ele>242.0</ele><time>2026-04-25T14:28:34Z</time></trkpt><trkpt lat="45.63608552084739" lon="8.907377527527714"><ele>242.0</ele><time>2026-04-25T14:28:35Z</time></trkpt><trkpt lat="45.63592041489137" lon="8.907481163117353"><ele>242.0</ele><time>2026-04-25T14:28:36Z</time></trkpt><trkpt lat="45.635767835036454" lon="8.907561042263383"><ele>242.0</ele><time>2026-04-25T14:28:37Z</time></trkpt><trkpt lat="45.63563467365427" lon="8.907647115610576"><ele>242.33333333333334</ele><time>2026-04-25T14:28:38Z</time></trkpt><trkpt lat="45.63548792921901" lon="8.907711904155487"><ele>242.66666666666669</ele><time>2026-04-25T14:28:39Z</time></trkpt><trkpt lat="45.63533471784606" lon="8.907802493960734"><ele>243.0</ele><time>2026-04-25T14:28:40Z</time></trkpt><trkpt lat="45.63516775530199" lon="8.907902014726458"><ele>242.0</ele><time>2026-04-25T14:28:41Z</time></trkpt><trkpt lat="45.63497956116486" lon="8.908014375977293"><ele>241.0</ele><time>2026-04-25T14:28:42Z</time></trkpt><trkpt lat="45.6347655757771" lon="8.908143180709843"><ele>240.0</ele><time>2026-04-25T14:28:43Z</time></trkpt><trkpt lat="45.634519040115116" lon="8.908289618275376"><ele>239.5</ele><time>2026-04-25T14:28:44Z</time></trkpt><trkpt lat="45.63426446516417" lon="8.908440745313763"><ele>239.0</ele><time>2026-04-25T14:28:45Z</time></trkpt><trkpt lat="45.63402810123419" lon="8.908580872709196"><ele>239.0</ele><time>2026-04-25T14:28:46Z</time></trkpt><trkpt lat="45.63382084059417" lon="8.908715247567406"><ele>239.0</ele><time>2026-04-25T14:28:47Z</time></trkpt><trkpt lat="45.63362046273537" lon="8.908826768439688"><ele>239.0</ele><time>2026-04-25T14:28:48Z</time></trkpt><trkpt lat="45.633433356607355" lon="8.908936647370345"><ele>238.66666666666669</ele><time>2026-04-25T14:28:49Z</time></trkpt><trkpt lat="45.63326726331664" lon="8.909031617580725"><ele>238.33333333333331</ele><time>2026-04-25T14:28:50Z</time></trkpt><trkpt lat="45.63312194708298" lon="8.909113363749212"><ele>238.0</ele><time>2026-04-25T14:28:51Z</time></trkpt><trkpt lat="45.63298913085521" lon="8.909190235232522"><ele>238.0</ele><time>2026-04-25T14:28:52Z</time></trkpt><trkpt lat="45.63286417001022" lon="8.909259463220366"><ele>238.0</ele><time>2026-04-25T14:28:53Z</time></trkpt><trkpt lat="45.63275043650058" lon="8.909322033475377"><ele>238.0</ele><time>2026-04-25T14:28:54Z</time></trkpt><trkpt lat="45.632659002259864" lon="8.909363661547093"><ele>238.0</ele><time>2026-04-25T14:28:55Z</time></trkpt><trkpt lat="45.632568012916956" lon="8.90937591925328"><ele>238.0</ele><time>2026-04-25T14:28:56Z</time></trkpt><trkpt lat="45.63248079455472" lon="8.909354684108736"><ele>238.5</ele><time>2026-04-25T14:28:57Z</time></trkpt><trkpt lat="45.632396745095434" lon="8.909376025300284"><ele>239.0</ele><time>2026-04-25T14:28:58Z</time></trkpt><trkpt lat="45.632312004771784" lon="8.909471838755593"><ele>239.5</ele><time>2026-04-25T14:28:59Z</time></trkpt><trkpt lat="45.632228457755986" lon="8.909616697036894"><ele>240.0</ele><time>2026-04-25T14:28:59.999Z</time></trkpt><trkpt lat="45.63212802299572" lon="8.90973765412206"><ele>240.0</ele><time>2026-04-25T14:29:00.999Z</time></trkpt><trkpt lat="45.63201656902014" lon="8.909794997862347"><ele>240.0</ele><time>2026-04-25T14:29:01.999Z</time></trkpt><trkpt lat="45.63190327790042" lon="8.909885910274312"><ele>240.0</ele><time>2026-04-25T14:29:02.999Z</time></trkpt><trkpt lat="45.63177469955442" lon="8.909939959320926"><ele>240.0</ele><time>2026-04-25T14:29:03.999Z</time></trkpt><trkpt lat="45.63161655316102" lon="8.910034657955483"><ele>240.0</ele><time>2026-04-25T14:29:04.999Z</time></trkpt><trkpt lat="45.631420259368426" lon="8.910152199416956"><ele>240.0</ele><time>2026-04-25T14:29:05.999Z</time></trkpt><trkpt lat="45.631222438484066" lon="8.910299907647353"><ele>240.0</ele><time>2026-04-25T14:29:06.999Z</time></trkpt><trkpt lat="45.631038878077646" lon="8.910401171032742"><ele>237.66666666666669</ele><time>2026-04-25T14:29:07.999Z</time></trkpt><trkpt lat="45.63087655969135" lon="8.91049899659839"><ele>235.33333333333334</ele><time>2026-04-25T14:29:08.999Z</time></trkpt><trkpt lat="45.630731653980106" lon="8.910589284929873"><ele>233.0</ele><time>2026-04-25T14:29:09.999Z</time></trkpt><trkpt lat="45.630587228290224" lon="8.910670770168474"><ele>233.0</ele><time>2026-04-25T14:29:10.999Z</time></trkpt><trkpt lat="45.63044188027481" lon="8.910757272231386"><ele>233.0</ele><time>2026-04-25T14:29:11.999Z</time></trkpt><trkpt lat="45.63028869382069" lon="8.910854098737179"><ele>233.0</ele><time>2026-04-25T14:29:12.999Z</time></trkpt><trkpt lat="45.63013398151286" lon="8.910952368288315"><ele>233.5</ele><time>2026-04-25T14:29:13.999Z</time></trkpt><trkpt lat="45.62998890595331" lon="8.911039609116004"><ele>234.0</ele><time>2026-04-25T14:29:14.999Z</time></trkpt><trkpt lat="45.62985622785448" lon="8.911116495453332"><ele>234.5</ele><time>2026-04-25T14:29:15.999Z</time></trkpt><trkpt lat="45.62973749564552" lon="8.911187055616253"><ele>235.0</ele><time>2026-04-25T14:29:16.999Z</time></trkpt><trkpt lat="45.62963169722549" lon="8.911246517964102"><ele>235.0</ele><time>2026-04-25T14:29:17.999Z</time></trkpt><trkpt lat="45.62953608423404" lon="8.911294873702825"><ele>235.0</ele><time>2026-04-25T14:29:18.999Z</time></trkpt><trkpt lat="45.62944754880811" lon="8.911334437188343"><ele>235.0</ele><time>2026-04-25T14:29:19.999Z</time></trkpt><trkpt lat="45.62936977008" lon="8.911366787773778"><ele>235.0</ele><time>2026-04-25T14:29:20.999Z</time></trkpt><trkpt lat="45.62930547272234" lon="8.91138947185838"><ele>235.0</ele><time>2026-04-25T14:29:21.999Z</time></trkpt><trkpt lat="45.62919100970121" lon="8.911379875572292"><ele>234.49999999999997</ele><time>2026-04-25T14:29:23.999Z</time></trkpt><trkpt lat="45.62912814738884" lon="8.911345849680071"><ele>234.0</ele><time>2026-04-25T14:29:24.999Z</time></trkpt><trkpt lat="45.62905738033954" lon="8.911320684457797"><ele>233.5</ele><time>2026-04-25T14:29:25.999Z</time></trkpt><trkpt lat="45.62897801318192" lon="8.911340563717419"><ele>233.0</ele><time>2026-04-25T14:29:26.999Z</time></trkpt><trkpt lat="45.62890234679934" lon="8.911427758500576"><ele>232.49999999999997</ele><time>2026-04-25T14:29:27.999Z</time></trkpt><trkpt lat="45.628821948878766" lon="8.911573027254047"><ele>232.0</ele><time>2026-04-25T14:29:28.999Z</time></trkpt><trkpt lat="45.62872849392279" lon="8.911728201074096"><ele>232.66666666666666</ele><time>2026-04-25T14:29:29.999Z</time></trkpt><trkpt lat="45.62860469781159" lon="8.911860814646445"><ele>233.33333333333331</ele><time>2026-04-25T14:29:30.999Z</time></trkpt><trkpt lat="45.62849467649862" lon="8.911950326067847"><ele>234.0</ele><time>2026-04-25T14:29:31.999Z</time></trkpt><trkpt lat="45.628333568244074" lon="8.91202126275371"><ele>234.0</ele><time>2026-04-25T14:29:32.999Z</time></trkpt><trkpt lat="45.628143396836776" lon="8.912142224804791"><ele>234.0</ele><time>2026-04-25T14:29:33.999Z</time></trkpt><trkpt lat="45.627917759357835" lon="8.91228756303604"><ele>232.5</ele><time>2026-04-25T14:29:34.999Z</time></trkpt><trkpt lat="45.62767138878049" lon="8.91247036034219"><ele>231.0</ele><time>2026-04-25T14:29:35.999Z</time></trkpt><trkpt lat="45.627440532895704" lon="8.91262785365545"><ele>231.0</ele><time>2026-04-25T14:29:36.999Z</time></trkpt><trkpt lat="45.62720859286743" lon="8.91279632404429"><ele>231.0</ele><time>2026-04-25T14:29:37.999Z</time></trkpt><trkpt lat="45.62698559396089" lon="8.91296081164169"><ele>229.5</ele><time>2026-04-25T14:29:38.999Z</time></trkpt><trkpt lat="45.62673902285713" lon="8.913149086703918"><ele>228.0</ele><time>2026-04-25T14:29:39.999Z</time></trkpt><trkpt lat="45.62651510117616" lon="8.91331195406777"><ele>227.66666666666669</ele><time>2026-04-25T14:29:40.999Z</time></trkpt><trkpt lat="45.62630364500486" lon="8.913460797967804"><ele>227.33333333333334</ele><time>2026-04-25T14:29:41.999Z</time></trkpt><trkpt lat="45.62612558682339" lon="8.91358589270807"><ele>227.0</ele><time>2026-04-25T14:29:42.999Z</time></trkpt><trkpt lat="45.62597070356134" lon="8.913695817781988"><ele>227.0</ele><time>2026-04-25T14:29:43.999Z</time></trkpt><trkpt lat="45.62582175454521" lon="8.913799683117825"><ele>227.0</ele><time>2026-04-25T14:29:44.999Z</time></trkpt><trkpt lat="45.6256819480439" lon="8.913890382255099"><ele>227.0</ele><time>2026-04-25T14:29:45.999Z</time></trkpt><trkpt lat="45.62553452291395" lon="8.913976873474569"><ele>227.0</ele><time>2026-04-25T14:29:46.999Z</time></trkpt><trkpt lat="45.62537055148637" lon="8.914041783732793"><ele>227.0</ele><time>2026-04-25T14:29:47.999Z</time></trkpt><trkpt lat="45.62519914481833" lon="8.914091057364919"><ele>227.0</ele><time>2026-04-25T14:29:48.999Z</time></trkpt><trkpt lat="45.625040106433524" lon="8.914149992279569"><ele>226.66666666666669</ele><time>2026-04-25T14:29:49.999Z</time></trkpt><trkpt lat="45.624886123004806" lon="8.914199308186664"><ele>226.33333333333331</ele><time>2026-04-25T14:29:50.999Z</time></trkpt><trkpt lat="45.6247354198603" lon="8.914237673952039"><ele>226.0</ele><time>2026-04-25T14:29:51.999Z</time></trkpt><trkpt lat="45.624576547713964" lon="8.914282223291485"><ele>226.25</ele><time>2026-04-25T14:29:52.999Z</time></trkpt><trkpt lat="45.62442216167234" lon="8.914312569452695"><ele>226.5</ele><time>2026-04-25T14:29:53.999Z</time></trkpt><trkpt lat="45.62427417971767" lon="8.914287613001095"><ele>226.75</ele><time>2026-04-25T14:29:54.999Z</time></trkpt><trkpt lat="45.62413286597597" lon="8.914261447183407"><ele>227.0</ele><time>2026-04-25T14:29:55.999Z</time></trkpt><trkpt lat="45.62399900864598" lon="8.914214584958787"><ele>227.0</ele><time>2026-04-25T14:29:56.999Z</time></trkpt><trkpt lat="45.62387434038914" lon="8.914147344212667"><ele>227.0</ele><time>2026-04-25T14:29:57.999Z</time></trkpt><trkpt lat="45.623760565495324" lon="8.914056775970174"><ele>227.0</ele><time>2026-04-25T14:29:58.999Z</time></trkpt><trkpt lat="45.62366192880336" lon="8.913938412104434"><ele>227.0</ele><time>2026-04-25T14:29:59.999Z</time></trkpt><trkpt lat="45.623543268599875" lon="8.913780055203016"><ele>226.0</ele><time>2026-04-25T14:30:00.999Z</time></trkpt><trkpt lat="45.62339058956049" lon="8.913568701741381"><ele>225.0</ele><time>2026-04-25T14:30:01.999Z</time></trkpt><trkpt lat="45.623218975883255" lon="8.913329268474603"><ele>225.0</ele><time>2026-04-25T14:30:02.999Z</time></trkpt><trkpt lat="45.62302388358864" lon="8.913079991182217"><ele>225.0</ele><time>2026-04-25T14:30:03.999Z</time></trkpt><trkpt lat="45.62281988687662" lon="8.912789731070635"><ele>224.0</ele><time>2026-04-25T14:30:04.999Z</time></trkpt><trkpt lat="45.62261094449654" lon="8.912488589403678"><ele>223.0</ele><time>2026-04-25T14:30:05.999Z</time></trkpt><trkpt lat="45.62243046022153" lon="8.912241489494557"><ele>223.0</ele><time>2026-04-25T14:30:06.999Z</time></trkpt><trkpt lat="45.62226234976589" lon="8.912012931688132"><ele>223.0</ele><time>2026-04-25T14:30:07.999Z</time></trkpt><trkpt lat="45.62211082134736" lon="8.911795246624614"><ele>223.0</ele><time>2026-04-25T14:30:08.999Z</time></trkpt><trkpt lat="45.62197039163014" lon="8.91157713236123"><ele>223.33333333333331</ele><time>2026-04-25T14:30:09.999Z</time></trkpt><trkpt lat="45.62183636753612" lon="8.911394192992054"><ele>223.66666666666669</ele><time>2026-04-25T14:30:10.999Z</time></trkpt><trkpt lat="45.621707189370795" lon="8.911223766038182"><ele>224.0</ele><time>2026-04-25T14:30:11.999Z</time></trkpt><trkpt lat="45.62158718841626" lon="8.911061717727423"><ele>224.0</ele><time>2026-04-25T14:30:12.999Z</time></trkpt><trkpt lat="45.621507609638726" lon="8.910938595897505"><ele>223.99999999999997</ele><time>2026-04-25T14:30:13.999Z</time></trkpt><trkpt lat="45.621443924819104" lon="8.910817274814091"><ele>223.99999999999997</ele><time>2026-04-25T14:30:14.999Z</time></trkpt><trkpt lat="45.62140397441124" lon="8.91069450328623"><ele>224.0</ele><time>2026-04-25T14:30:15.999Z</time></trkpt><trkpt lat="45.62136602114943" lon="8.91057456268896"><ele>224.0</ele><time>2026-04-25T14:30:16.999Z</time></trkpt><trkpt lat="45.621315649836546" lon="8.910475235462954"><ele>224.0</ele><time>2026-04-25T14:30:17.999Z</time></trkpt><trkpt lat="45.62123349478392" lon="8.910422325064097"><ele>223.99999999999997</ele><time>2026-04-25T14:30:19Z</time></trkpt><trkpt lat="45.62115227111056" lon="8.91040125180225"><ele>223.99999999999997</ele><time>2026-04-25T14:30:20Z</time></trkpt><trkpt lat="45.62105300814215" lon="8.91049659205539"><ele>224.0</ele><time>2026-04-25T14:30:21Z</time></trkpt><trkpt lat="45.62101207160569" lon="8.91066160044198"><ele>224.0</ele><time>2026-04-25T14:30:22Z</time></trkpt><trkpt lat="45.62098321121296" lon="8.910854636489285"><ele>223.33333333333334</ele><time>2026-04-25T14:30:23Z</time></trkpt><trkpt lat="45.62094666906104" lon="8.911060857345355"><ele>222.66666666666669</ele><time>2026-04-25T14:30:24Z</time></trkpt><trkpt lat="45.6208507573538" lon="8.911269292742507"><ele>222.0</ele><time>2026-04-25T14:30:25Z</time></trkpt><trkpt lat="45.620705852469804" lon="8.911445632475205"><ele>222.0</ele><time>2026-04-25T14:30:26Z</time></trkpt><trkpt lat="45.62057725125757" lon="8.911658228854563"><ele>222.0</ele><time>2026-04-25T14:30:27Z</time></trkpt><trkpt lat="45.6204639248625" lon="8.91184722203449"><ele>222.0</ele><time>2026-04-25T14:30:28Z</time></trkpt><trkpt lat="45.62036522843076" lon="8.912014968309471"><ele>222.0</ele><time>2026-04-25T14:30:29Z</time></trkpt><trkpt lat="45.62029532354454" lon="8.91219290475748"><ele>222.0</ele><time>2026-04-25T14:30:30Z</time></trkpt><trkpt lat="45.620217781950736" lon="8.91235403559415"><ele>222.0</ele><time>2026-04-25T14:30:31Z</time></trkpt><trkpt lat="45.6201509482609" lon="8.912539306750789"><ele>222.0</ele><time>2026-04-25T14:30:32Z</time></trkpt><trkpt lat="45.620090903139776" lon="8.912723119853288"><ele>222.25</ele><time>2026-04-25T14:30:33Z</time></trkpt><trkpt lat="45.62004162653595" lon="8.91290178461672"><ele>222.5</ele><time>2026-04-25T14:30:34Z</time></trkpt><trkpt lat="45.62000393902776" lon="8.913069270303286"><ele>222.75</ele><time>2026-04-25T14:30:35Z</time></trkpt><trkpt lat="45.619957945773095" lon="8.913234176407224"><ele>223.0</ele><time>2026-04-25T14:30:36Z</time></trkpt><trkpt lat="45.619945151492985" lon="8.913430727919463"><ele>223.0</ele><time>2026-04-25T14:30:37Z</time></trkpt><trkpt lat="45.61992364220731" lon="8.913616657423079"><ele>223.0</ele><time>2026-04-25T14:30:38Z</time></trkpt><trkpt lat="45.61991288237334" lon="8.913793455028202"><ele>223.0</ele><time>2026-04-25T14:30:39Z</time></trkpt><trkpt lat="45.6199083862399" lon="8.91396910072996"><ele>223.0</ele><time>2026-04-25T14:30:40Z</time></trkpt><trkpt lat="45.61991169903164" lon="8.9141556035159"><ele>222.75</ele><time>2026-04-25T14:30:41Z</time></trkpt><trkpt lat="45.61992353886363" lon="8.914334277577094"><ele>222.5</ele><time>2026-04-25T14:30:42Z</time></trkpt><trkpt lat="45.61992048117669" lon="8.914512191841006"><ele>222.25</ele><time>2026-04-25T14:30:43Z</time></trkpt><trkpt lat="45.619937162197175" lon="8.914710304666299"><ele>222.0</ele><time>2026-04-25T14:30:44Z</time></trkpt><trkpt lat="45.619969181172976" lon="8.914920757085351"><ele>222.0</ele><time>2026-04-25T14:30:45Z</time></trkpt><trkpt lat="45.619985088524" lon="8.915119509602514"><ele>222.0</ele><time>2026-04-25T14:30:46Z</time></trkpt><trkpt lat="45.61999991213846" lon="8.915308335500551"><ele>222.0</ele><time>2026-04-25T14:30:47Z</time></trkpt><trkpt lat="45.62001722126951" lon="8.915518007994844"><ele>222.0</ele><time>2026-04-25T14:30:48Z</time></trkpt><trkpt lat="45.620038331083755" lon="8.915798448675021"><ele>224.5</ele><time>2026-04-25T14:30:49Z</time></trkpt><trkpt lat="45.620052541698826" lon="8.916116278699615"><ele>227.0</ele><time>2026-04-25T14:30:50Z</time></trkpt><trkpt lat="45.62009847361283" lon="8.916492410502446"><ele>228.5</ele><time>2026-04-25T14:30:51Z</time></trkpt><trkpt lat="45.620121731881774" lon="8.916862371310447"><ele>230.0</ele><time>2026-04-25T14:30:52Z</time></trkpt><trkpt lat="45.620145548511914" lon="8.91723865807294"><ele>231.5</ele><time>2026-04-25T14:30:53Z</time></trkpt><trkpt lat="45.620180505029765" lon="8.917652543815757"><ele>233.0</ele><time>2026-04-25T14:30:54Z</time></trkpt><trkpt lat="45.620215629400114" lon="8.918077211428338"><ele>233.0</ele><time>2026-04-25T14:30:55Z</time></trkpt><trkpt lat="45.620252544444064" lon="8.918499430682916"><ele>233.0</ele><time>2026-04-25T14:30:56Z</time></trkpt><trkpt lat="45.62028796612265" lon="8.918933703886058"><ele>232.5</ele><time>2026-04-25T14:30:57Z</time></trkpt><trkpt lat="45.62032058399164" lon="8.919359631575343"><ele>232.0</ele><time>2026-04-25T14:30:58Z</time></trkpt><trkpt lat="45.620351839779744" lon="8.919746839134735"><ele>231.5</ele><time>2026-04-25T14:30:59Z</time></trkpt><trkpt lat="45.620379748280584" lon="8.920104042902835"><ele>231.0</ele><time>2026-04-25T14:31:00Z</time></trkpt><trkpt lat="45.62040470178643" lon="8.92045220675312"><ele>231.0</ele><time>2026-04-25T14:31:01Z</time></trkpt><trkpt lat="45.620429088998364" lon="8.920775191277533"><ele>231.0</ele><time>2026-04-25T14:31:02Z</time></trkpt><trkpt lat="45.620455126618225" lon="8.921103098102764"><ele>231.66666666666669</ele><time>2026-04-25T14:31:03Z</time></trkpt><trkpt lat="45.62048186096817" lon="8.921411600393549"><ele>232.33333333333334</ele><time>2026-04-25T14:31:04Z</time></trkpt><trkpt lat="45.62050523835913" lon="8.921704465155"><ele>233.0</ele><time>2026-04-25T14:31:05Z</time></trkpt><trkpt lat="45.6205262398537" lon="8.921977359909858"><ele>233.0</ele><time>2026-04-25T14:31:06Z</time></trkpt><trkpt lat="45.62055369461119" lon="8.922245728146462"><ele>233.0</ele><time>2026-04-25T14:31:07Z</time></trkpt><trkpt lat="45.62059613918269" lon="8.922524032229886"><ele>233.0</ele><time>2026-04-25T14:31:08Z</time></trkpt><trkpt lat="45.62066275041605" lon="8.922803459543571"><ele>232.66666666666669</ele><time>2026-04-25T14:31:09Z</time></trkpt><trkpt lat="45.62074189502295" lon="8.923071024772543"><ele>232.33333333333331</ele><time>2026-04-25T14:31:10Z</time></trkpt><trkpt lat="45.620827698102424" lon="8.923296610121168"><ele>232.0</ele><time>2026-04-25T14:31:11Z</time></trkpt><trkpt lat="45.62089707044896" lon="8.923488817825909"><ele>232.0</ele><time>2026-04-25T14:31:12Z</time></trkpt><trkpt lat="45.620946305313566" lon="8.923659308782486"><ele>232.0</ele><time>2026-04-25T14:31:12.999Z</time></trkpt><trkpt lat="45.62097837523937" lon="8.923821490284201"><ele>232.0</ele><time>2026-04-25T14:31:13.999Z</time></trkpt><trkpt lat="45.62098021220073" lon="8.923975909466874"><ele>232.0</ele><time>2026-04-25T14:31:14.999Z</time></trkpt><trkpt lat="45.62099050460005" lon="8.924109812523211"><ele>232.0</ele><time>2026-04-25T14:31:15.999Z</time></trkpt><trkpt lat="45.62104351997317" lon="8.924215551988137"><ele>232.5</ele><time>2026-04-25T14:31:16.999Z</time></trkpt><trkpt lat="45.62115220326626" lon="8.924266891058878"><ele>233.0</ele><time>2026-04-25T14:31:17.999Z</time></trkpt><trkpt lat="45.621278541719796" lon="8.924273132811177"><ele>233.5</ele><time>2026-04-25T14:31:18.999Z</time></trkpt><trkpt lat="45.62140141245015" lon="8.924293789217428"><ele>234.0</ele><time>2026-04-25T14:31:19.999Z</time></trkpt><trkpt lat="45.621497797338336" lon="8.924388708109502"><ele>234.0</ele><time>2026-04-25T14:31:20.999Z</time></trkpt><trkpt lat="45.62155169408451" lon="8.924573695980365"><ele>234.0</ele><time>2026-04-25T14:31:21.999Z</time></trkpt><trkpt lat="45.62163590007071" lon="8.924771715745509"><ele>234.0</ele><time>2026-04-25T14:31:22.999Z</time></trkpt><trkpt lat="45.62171447854156" lon="8.924994794406835"><ele>234.33333333333331</ele><time>2026-04-25T14:31:23.999Z</time></trkpt><trkpt lat="45.62177693766279" lon="8.925225121470707"><ele>234.66666666666666</ele><time>2026-04-25T14:31:24.999Z</time></trkpt><trkpt lat="45.6218143062659" lon="8.925468717074676"><ele>235.0</ele><time>2026-04-25T14:31:25.999Z</time></trkpt><trkpt lat="45.6218426528805" lon="8.925736899722338"><ele>233.0</ele><time>2026-04-25T14:31:26.999Z</time></trkpt><trkpt lat="45.621838460616765" lon="8.92602298137821"><ele>231.0</ele><time>2026-04-25T14:31:27.999Z</time></trkpt><trkpt lat="45.62181167397205" lon="8.926297611866039"><ele>229.0</ele><time>2026-04-25T14:31:28.999Z</time></trkpt><trkpt lat="45.62175720664042" lon="8.92656835917205"><ele>230.0</ele><time>2026-04-25T14:31:29.999Z</time></trkpt><trkpt lat="45.62167679296393" lon="8.926838148447896"><ele>231.0</ele><time>2026-04-25T14:31:30.999Z</time></trkpt><trkpt lat="45.62157990628261" lon="8.927080536382253"><ele>232.0</ele><time>2026-04-25T14:31:31.999Z</time></trkpt><trkpt lat="45.62146015784656" lon="8.927295961362658"><ele>232.0</ele><time>2026-04-25T14:31:32.999Z</time></trkpt><trkpt lat="45.62131444890109" lon="8.927490891376305"><ele>232.0</ele><time>2026-04-25T14:31:33.999Z</time></trkpt><trkpt lat="45.621152421880446" lon="8.927661669918765"><ele>232.0</ele><time>2026-04-25T14:31:34.999Z</time></trkpt><trkpt lat="45.62096892132004" lon="8.92781969830428"><ele>232.5</ele><time>2026-04-25T14:31:35.999Z</time></trkpt><trkpt lat="45.620751433815954" lon="8.927936496456038"><ele>233.0</ele><time>2026-04-25T14:31:36.999Z</time></trkpt><trkpt lat="45.62052729794487" lon="8.928061050576996"><ele>233.0</ele><time>2026-04-25T14:31:37.999Z</time></trkpt><trkpt lat="45.62033210549909" lon="8.928178419942336"><ele>233.0</ele><time>2026-04-25T14:31:38.999Z</time></trkpt><trkpt lat="45.62013043802181" lon="8.928301336242697"><ele>233.0</ele><time>2026-04-25T14:31:39.999Z</time></trkpt><trkpt lat="45.61986759475292" lon="8.928493967071452"><ele>232.66666666666669</ele><time>2026-04-25T14:31:40.999Z</time></trkpt><trkpt lat="45.61971047181914" lon="8.928657383106565"><ele>232.33333333333331</ele><time>2026-04-25T14:31:41.999Z</time></trkpt><trkpt lat="45.61953304860204" lon="8.928787736306665"><ele>232.0</ele><time>2026-04-25T14:31:42.999Z</time></trkpt><trkpt lat="45.619407696162604" lon="8.929023728923916"><ele>234.0</ele><time>2026-04-25T14:31:43.999Z</time></trkpt><trkpt lat="45.619071703177305" lon="8.92967582354156"><ele>234.0</ele><time>2026-04-25T14:31:46.999Z</time></trkpt><trkpt lat="45.61900283736484" lon="8.92992643745784"><ele>234.0</ele><time>2026-04-25T14:31:47.999Z</time></trkpt><trkpt lat="45.61893511198498" lon="8.93019341829423"><ele>234.0</ele><time>2026-04-25T14:31:48.999Z</time></trkpt><trkpt lat="45.61886815157669" lon="8.930456741369095"><ele>234.0</ele><time>2026-04-25T14:31:49.999Z</time></trkpt><trkpt lat="45.618796672897936" lon="8.930736069994872"><ele>234.0</ele><time>2026-04-25T14:31:50.999Z</time></trkpt><trkpt lat="45.61869780438728" lon="8.931023053515428"><ele>234.0</ele><time>2026-04-25T14:31:51.999Z</time></trkpt><trkpt lat="45.61860871783885" lon="8.931295432348566"><ele>235.0</ele><time>2026-04-25T14:31:52.999Z</time></trkpt><trkpt lat="45.61851170501481" lon="8.931559704984897"><ele>236.0</ele><time>2026-04-25T14:31:53.999Z</time></trkpt><trkpt lat="45.618396361744914" lon="8.931820564600104"><ele>237.0</ele><time>2026-04-25T14:31:54.999Z</time></trkpt><trkpt lat="45.618267394026105" lon="8.932089797615367"><ele>238.0</ele><time>2026-04-25T14:31:55.999Z</time></trkpt><trkpt lat="45.61811001480944" lon="8.932322500025952"><ele>239.0</ele><time>2026-04-25T14:31:56.999Z</time></trkpt><trkpt lat="45.61794772000697" lon="8.932531380556744"><ele>240.0</ele><time>2026-04-25T14:31:57.999Z</time></trkpt><trkpt lat="45.61778380640402" lon="8.932702283053978"><ele>237.33333333333331</ele><time>2026-04-25T14:31:58.999Z</time></trkpt><trkpt lat="45.6176344192444" lon="8.932866049976214"><ele>234.66666666666666</ele><time>2026-04-25T14:31:59.999Z</time></trkpt><trkpt lat="45.61749848830661" lon="8.933014753804766"><ele>232.0</ele><time>2026-04-25T14:32:00.999Z</time></trkpt><trkpt lat="45.617369990354184" lon="8.933155326215564"><ele>232.0</ele><time>2026-04-25T14:32:01.999Z</time></trkpt><trkpt lat="45.61727822713519" lon="8.933283421179114"><ele>232.0</ele><time>2026-04-25T14:32:02.999Z</time></trkpt><trkpt lat="45.61718584112263" lon="8.93337490810101"><ele>232.0</ele><time>2026-04-25T14:32:03.999Z</time></trkpt><trkpt lat="45.61710191839779" lon="8.93344189977041"><ele>232.0</ele><time>2026-04-25T14:32:04.999Z</time></trkpt><trkpt lat="45.617007781728994" lon="8.933485507814174"><ele>232.0</ele><time>2026-04-25T14:32:05.999Z</time></trkpt><trkpt lat="45.61689653510458" lon="8.933518317046273"><ele>230.25</ele><time>2026-04-25T14:32:06.999Z</time></trkpt><trkpt lat="45.6168026490519" lon="8.933580969680092"><ele>228.5</ele><time>2026-04-25T14:32:07.999Z</time></trkpt><trkpt lat="45.61672536793607" lon="8.933707782149767"><ele>226.75</ele><time>2026-04-25T14:32:08.999Z</time></trkpt><trkpt lat="45.616673965078974" lon="8.933880992580445"><ele>225.0</ele><time>2026-04-25T14:32:09.999Z</time></trkpt><trkpt lat="45.616606768749925" lon="8.934049649060896"><ele>225.0</ele><time>2026-04-25T14:32:10.999Z</time></trkpt><trkpt lat="45.61649744651191" lon="8.934193016602558"><ele>225.0</ele><time>2026-04-25T14:32:11.999Z</time></trkpt><trkpt lat="45.61637499092618" lon="8.934336727750283"><ele>225.0</ele><time>2026-04-25T14:32:12.999Z</time></trkpt><trkpt lat="45.61626665874333" lon="8.934477606887945"><ele>225.0</ele><time>2026-04-25T14:32:13.999Z</time></trkpt><trkpt lat="45.61617523778057" lon="8.934603524874014"><ele>225.0</ele><time>2026-04-25T14:32:14.999Z</time></trkpt><trkpt lat="45.61608520941157" lon="8.934728496342876"><ele>225.0</ele><time>2026-04-25T14:32:15.999Z</time></trkpt><trkpt lat="45.61599663247879" lon="8.934850411221783"><ele>225.0</ele><time>2026-04-25T14:32:16.999Z</time></trkpt><trkpt lat="45.61591518959778" lon="8.934964316462562"><ele>224.6</ele><time>2026-04-25T14:32:17.999Z</time></trkpt><trkpt lat="45.615843737588804" lon="8.935066844799818"><ele>224.2</ele><time>2026-04-25T14:32:18.999Z</time></trkpt><trkpt lat="45.61577330359214" lon="8.935165110891175"><ele>223.8</ele><time>2026-04-25T14:32:19.999Z</time></trkpt><trkpt lat="45.61570635618138" lon="8.935256073779312"><ele>223.4</ele><time>2026-04-25T14:32:20.999Z</time></trkpt><trkpt lat="45.61563384100448" lon="8.935352906129344"><ele>223.0</ele><time>2026-04-25T14:32:21.999Z</time></trkpt><trkpt lat="45.615567884177004" lon="8.935444717357955"><ele>223.0</ele><time>2026-04-25T14:32:22.999Z</time></trkpt><trkpt lat="45.61551429275773" lon="8.935516364622272"><ele>223.0</ele><time>2026-04-25T14:32:23.999Z</time></trkpt><trkpt lat="45.61545964964603" lon="8.93556152478348"><ele>223.0</ele><time>2026-04-25T14:32:24.999Z</time></trkpt><trkpt lat="45.615350219153534" lon="8.935592604900183"><ele>223.0</ele><time>2026-04-25T14:32:26.999Z</time></trkpt><trkpt lat="45.61526309699852" lon="8.93568330072119"><ele>223.0</ele><time>2026-04-25T14:32:28.999Z</time></trkpt><trkpt lat="45.615243769199346" lon="8.935843646369134"><ele>223.2</ele><time>2026-04-25T14:32:30.999Z</time></trkpt><trkpt lat="45.61518297501153" lon="8.935880595474789"><ele>223.4</ele><time>2026-04-25T14:32:31.999Z</time></trkpt><trkpt lat="45.615094857944975" lon="8.935956104342612"><ele>223.59999999999997</ele><time>2026-04-25T14:32:33.999Z</time></trkpt><trkpt lat="45.61501045900636" lon="8.93602034624629"><ele>223.79999999999998</ele><time>2026-04-25T14:32:35.999Z</time></trkpt><trkpt lat="45.614928527995914" lon="8.936086282765714"><ele>224.0</ele><time>2026-04-25T14:32:37.999Z</time></trkpt><trkpt lat="45.614817720064366" lon="8.936193914150545"><ele>224.25</ele><time>2026-04-25T14:32:39.999Z</time></trkpt><trkpt lat="45.61469832189334" lon="8.936299773847923"><ele>224.5</ele><time>2026-04-25T14:32:40.999Z</time></trkpt><trkpt lat="45.61456348193935" lon="8.9364141167159"><ele>224.75</ele><time>2026-04-25T14:32:41.999Z</time></trkpt><trkpt lat="45.614446762919016" lon="8.936519090433405"><ele>225.0</ele><time>2026-04-25T14:32:42.999Z</time></trkpt><trkpt lat="45.61434657383655" lon="8.936603137787195"><ele>225.25</ele><time>2026-04-25T14:32:43.999Z</time></trkpt><trkpt lat="45.61424280032969" lon="8.936691408267738"><ele>225.5</ele><time>2026-04-25T14:32:44.999Z</time></trkpt><trkpt lat="45.61412999925871" lon="8.936780966079601"><ele>225.75</ele><time>2026-04-25T14:32:45.999Z</time></trkpt><trkpt lat="45.61401389827527" lon="8.936863470727756"><ele>226.0</ele><time>2026-04-25T14:32:46.999Z</time></trkpt><trkpt lat="45.613888341869945" lon="8.936940062063409"><ele>226.66666666666666</ele><time>2026-04-25T14:32:47.999Z</time></trkpt><trkpt lat="45.613734434181964" lon="8.937006485787634"><ele>227.33333333333331</ele><time>2026-04-25T14:32:48.999Z</time></trkpt><trkpt lat="45.61353651843606" lon="8.937074366238095"><ele>228.0</ele><time>2026-04-25T14:32:49.999Z</time></trkpt><trkpt lat="45.61333637274741" lon="8.937137199102194"><ele>225.5</ele><time>2026-04-25T14:32:50.999Z</time></trkpt><trkpt lat="45.61310383556538" lon="8.937210176540558"><ele>223.0</ele><time>2026-04-25T14:32:51.999Z</time></trkpt><trkpt lat="45.61285886187407" lon="8.937293802907295"><ele>222.5</ele><time>2026-04-25T14:32:52.999Z</time></trkpt><trkpt lat="45.6126075771825" lon="8.937373481383847"><ele>222.0</ele><time>2026-04-25T14:32:53.999Z</time></trkpt><trkpt lat="45.612370544943076" lon="8.93743964176894"><ele>222.0</ele><time>2026-04-25T14:32:54.999Z</time></trkpt><trkpt lat="45.612149637803675" lon="8.937469184923549"><ele>222.0</ele><time>2026-04-25T14:32:55.999Z</time></trkpt><trkpt lat="45.61196919539656" lon="8.937526586854005"><ele>222.0</ele><time>2026-04-25T14:32:56.999Z</time></trkpt><trkpt lat="45.611817906357736" lon="8.937561209496923"><ele>222.0</ele><time>2026-04-25T14:32:57.999Z</time></trkpt><trkpt lat="45.611679895949244" lon="8.937580822577418"><ele>222.0</ele><time>2026-04-25T14:32:58.999Z</time></trkpt><trkpt lat="45.61154226213894" lon="8.93762259681641"><ele>222.0</ele><time>2026-04-25T14:32:59.999Z</time></trkpt><trkpt lat="45.61142749635847" lon="8.937668693561665"><ele>222.0</ele><time>2026-04-25T14:33:00.999Z</time></trkpt><trkpt lat="45.61132685532687" lon="8.937662050980368"><ele>222.0</ele><time>2026-04-25T14:33:01.999Z</time></trkpt><trkpt lat="45.611260063428006" lon="8.937644275472307"><ele>222.0</ele><time>2026-04-25T14:33:02.999Z</time></trkpt><trkpt lat="45.611172055174386" lon="8.937639917509742"><ele>222.0</ele><time>2026-04-25T14:33:04.999Z</time></trkpt><trkpt lat="45.61110178023026" lon="8.937573957606066"><ele>222.0</ele><time>2026-04-25T14:33:05.999Z</time></trkpt><trkpt lat="45.61098036684986" lon="8.937451434357758"><ele>222.0</ele><time>2026-04-25T14:33:07.999Z</time></trkpt><trkpt lat="45.61092493772695" lon="8.937287102071938"><ele>222.0</ele><time>2026-04-25T14:33:08.999Z</time></trkpt><trkpt lat="45.610862782583624" lon="8.937121218717268"><ele>222.0</ele><time>2026-04-25T14:33:09.999Z</time></trkpt><trkpt lat="45.610850777754884" lon="8.93693571136069"><ele>222.0</ele><time>2026-04-25T14:33:10.999Z</time></trkpt><trkpt lat="45.61082819730935" lon="8.936749648236884"><ele>222.0</ele><time>2026-04-25T14:33:11.999Z</time></trkpt><trkpt lat="45.610799166544375" lon="8.936547723951547"><ele>222.0</ele><time>2026-04-25T14:33:12.999Z</time></trkpt><trkpt lat="45.61078194087179" lon="8.936369406718615"><ele>222.0</ele><time>2026-04-25T14:33:13.999Z</time></trkpt><trkpt lat="45.61076872654164" lon="8.936217935569813"><ele>222.0</ele><time>2026-04-25T14:33:14.999Z</time></trkpt><trkpt lat="45.61075530911957" lon="8.936060891895352"><ele>222.0</ele><time>2026-04-25T14:33:15.999Z</time></trkpt><trkpt lat="45.61073349179332" lon="8.935920574767584"><ele>222.0</ele><time>2026-04-25T14:33:16.999Z</time></trkpt><trkpt lat="45.61071811878676" lon="8.93578788069069"><ele>222.2</ele><time>2026-04-25T14:33:17.999Z</time></trkpt><trkpt lat="45.61070336875443" lon="8.935663794579275"><ele>222.39999999999998</ele><time>2026-04-25T14:33:18.999Z</time></trkpt><trkpt lat="45.61068608169102" lon="8.935524505180426"><ele>222.60000000000002</ele><time>2026-04-25T14:33:19.999Z</time></trkpt><trkpt lat="45.610668696352086" lon="8.935375586211123"><ele>222.8</ele><time>2026-04-25T14:33:20.999Z</time></trkpt><trkpt lat="45.610652839787726" lon="8.935233888839518"><ele>223.0</ele><time>2026-04-25T14:33:21.999Z</time></trkpt><trkpt lat="45.61063416422166" lon="8.935087921434436"><ele>223.2</ele><time>2026-04-25T14:33:22.999Z</time></trkpt><trkpt lat="45.61062003657634" lon="8.934941008331569"><ele>223.4</ele><time>2026-04-25T14:33:23.999Z</time></trkpt><trkpt lat="45.610604504575925" lon="8.934814897561038"><ele>223.59999999999997</ele><time>2026-04-25T14:33:24.999Z</time></trkpt><trkpt lat="45.610586764998224" lon="8.934662929862363"><ele>223.79999999999998</ele><time>2026-04-25T14:33:25.999Z</time></trkpt><trkpt lat="45.61056776648956" lon="8.934513972365833"><ele>224.0</ele><time>2026-04-25T14:33:26.999Z</time></trkpt><trkpt lat="45.61055065598421" lon="8.934361095312786"><ele>224.0</ele><time>2026-04-25T14:33:27.999Z</time></trkpt><trkpt lat="45.61053445516043" lon="8.934207619305221"><ele>223.99999999999997</ele><time>2026-04-25T14:33:28.999Z</time></trkpt><trkpt lat="45.61051737016927" lon="8.934056402411668"><ele>223.99999999999997</ele><time>2026-04-25T14:33:29.999Z</time></trkpt><trkpt lat="45.610503147031835" lon="8.933903463007569"><ele>224.0</ele><time>2026-04-25T14:33:30.999Z</time></trkpt><trkpt lat="45.61048367945173" lon="8.933753706030956"><ele>224.0</ele><time>2026-04-25T14:33:31.999Z</time></trkpt><trkpt lat="45.61046536691842" lon="8.933606415014816"><ele>224.0</ele><time>2026-04-25T14:33:32.999Z</time></trkpt><trkpt lat="45.61044778017732" lon="8.93345673412679"><ele>223.99999999999997</ele><time>2026-04-25T14:33:33.999Z</time></trkpt><trkpt lat="45.61044009973681" lon="8.933327991294798"><ele>223.99999999999997</ele><time>2026-04-25T14:33:34.999Z</time></trkpt><trkpt lat="45.6104455208536" lon="8.933228270084038"><ele>224.0</ele><time>2026-04-25T14:33:35.999Z</time></trkpt><trkpt lat="45.61046173542914" lon="8.933099112225218"><ele>224.0</ele><time>2026-04-25T14:33:37.999Z</time></trkpt><trkpt lat="45.61050155866245" lon="8.932901568285956"><ele>223.79999999999998</ele><time>2026-04-25T14:33:39.999Z</time></trkpt><trkpt lat="45.610510067218335" lon="8.932767917649969"><ele>223.59999999999997</ele><time>2026-04-25T14:33:40.999Z</time></trkpt><trkpt lat="45.610477315989684" lon="8.932636460822268"><ele>223.4</ele><time>2026-04-25T14:33:41.999Z</time></trkpt><trkpt lat="45.61041490745615" lon="8.932533059481003"><ele>223.2</ele><time>2026-04-25T14:33:42.999Z</time></trkpt><trkpt lat="45.61034694768154" lon="8.932451157285175"><ele>223.0</ele><time>2026-04-25T14:33:43.999Z</time></trkpt><trkpt lat="45.61029444341301" lon="8.932344372245698"><ele>221.5</ele><time>2026-04-25T14:33:44.999Z</time></trkpt><trkpt lat="45.61026457053524" lon="8.932204595462688"><ele>220.0</ele><time>2026-04-25T14:33:45.999Z</time></trkpt><trkpt lat="45.61024851853407" lon="8.932039873543372"><ele>218.5</ele><time>2026-04-25T14:33:46.999Z</time></trkpt><trkpt lat="45.61023924976425" lon="8.931860872591656"><ele>217.0</ele><time>2026-04-25T14:33:47.999Z</time></trkpt><trkpt lat="45.610218872396125" lon="8.931688372817419"><ele>216.5</ele><time>2026-04-25T14:33:48.999Z</time></trkpt><trkpt lat="45.61019901614594" lon="8.931505601215893"><ele>216.0</ele><time>2026-04-25T14:33:49.999Z</time></trkpt><trkpt lat="45.610168619420776" lon="8.931289552062653"><ele>215.5</ele><time>2026-04-25T14:33:50.999Z</time></trkpt><trkpt lat="45.61014081066239" lon="8.93108190396756"><ele>215.0</ele><time>2026-04-25T14:33:51.999Z</time></trkpt><trkpt lat="45.610111189980785" lon="8.930861677823149"><ele>214.0</ele><time>2026-04-25T14:33:52.999Z</time></trkpt><trkpt lat="45.61007747296824" lon="8.93062874585516"><ele>213.0</ele><time>2026-04-25T14:33:53.999Z</time></trkpt><trkpt lat="45.61004064219194" lon="8.930384400795944"><ele>212.0</ele><time>2026-04-25T14:33:54.999Z</time></trkpt><trkpt lat="45.61000718227403" lon="8.930125649208907"><ele>211.0</ele><time>2026-04-25T14:33:55.999Z</time></trkpt><trkpt lat="45.60996870918772" lon="8.929845867579198"><ele>210.0</ele><time>2026-04-25T14:33:56.999Z</time></trkpt><trkpt lat="45.60993440368989" lon="8.929572575416824"><ele>209.0</ele><time>2026-04-25T14:33:57.999Z</time></trkpt><trkpt lat="45.609897884105614" lon="8.929302169843988"><ele>208.66666666666669</ele><time>2026-04-25T14:33:58.999Z</time></trkpt><trkpt lat="45.609866013122684" lon="8.92905161673592"><ele>208.33333333333331</ele><time>2026-04-25T14:33:59.999Z</time></trkpt><trkpt lat="45.60984186294221" lon="8.928806586226385"><ele>208.0</ele><time>2026-04-25T14:34:00.999Z</time></trkpt><trkpt lat="45.60981747025295" lon="8.928571256456808"><ele>208.33333333333331</ele><time>2026-04-25T14:34:01.999Z</time></trkpt><trkpt lat="45.60978563817447" lon="8.928317146875507"><ele>208.66666666666669</ele><time>2026-04-25T14:34:02.999Z</time></trkpt><trkpt lat="45.609762376560255" lon="8.928067599456616"><ele>209.0</ele><time>2026-04-25T14:34:03.999Z</time></trkpt><trkpt lat="45.609743090698096" lon="8.927824771701093"><ele>209.0</ele><time>2026-04-25T14:34:04.999Z</time></trkpt><trkpt lat="45.609722854369465" lon="8.927593583201633"><ele>209.0</ele><time>2026-04-25T14:34:05.999Z</time></trkpt><trkpt lat="45.6097039201855" lon="8.927377039030535"><ele>209.0</ele><time>2026-04-25T14:34:06.999Z</time></trkpt><trkpt lat="45.60968532829322" lon="8.927183215473557"><ele>209.0</ele><time>2026-04-25T14:34:07.999Z</time></trkpt><trkpt lat="45.60966992015572" lon="8.927021165118223"><ele>209.0</ele><time>2026-04-25T14:34:08.999Z</time></trkpt><trkpt lat="45.60965625483299" lon="8.92687435323797"><ele>209.0</ele><time>2026-04-25T14:34:09.999Z</time></trkpt><trkpt lat="45.609642147407506" lon="8.926733152714144"><ele>209.0</ele><time>2026-04-25T14:34:10.999Z</time></trkpt><trkpt lat="45.609628591325766" lon="8.926604590390394"><ele>209.0</ele><time>2026-04-25T14:34:11.999Z</time></trkpt><trkpt lat="45.60961730341104" lon="8.926483236041955"><ele>208.83333333333334</ele><time>2026-04-25T14:34:12.999Z</time></trkpt><trkpt lat="45.60961414459869" lon="8.926363950480745"><ele>208.66666666666669</ele><time>2026-04-25T14:34:13.999Z</time></trkpt><trkpt lat="45.60961851167726" lon="8.92624935765458"><ele>208.5</ele><time>2026-04-25T14:34:14.999Z</time></trkpt><trkpt lat="45.60962826816749" lon="8.926134358327987"><ele>208.33333333333331</ele><time>2026-04-25T14:34:15.999Z</time></trkpt><trkpt lat="45.60962444156966" lon="8.926023168814458"><ele>208.16666666666666</ele><time>2026-04-25T14:34:16.999Z</time></trkpt><trkpt lat="45.60960680587973" lon="8.925928721259188"><ele>208.0</ele><time>2026-04-25T14:34:17.999Z</time></trkpt><trkpt lat="45.609551946220165" lon="8.925858018137234"><ele>208.0</ele><time>2026-04-25T14:34:18.999Z</time></trkpt><trkpt lat="45.60952952363851" lon="8.925773784183168"><ele>208.0</ele><time>2026-04-25T14:34:19.999Z</time></trkpt><trkpt lat="45.60939287291476" lon="8.925823184631293"><ele>208.0</ele><time>2026-04-25T14:34:20.999Z</time></trkpt><trkpt lat="45.609299381386236" lon="8.925881494122697"><ele>208.0</ele><time>2026-04-25T14:34:21.999Z</time></trkpt><trkpt lat="45.60920923220921" lon="8.925962376691666"><ele>208.0</ele><time>2026-04-25T14:34:22.999Z</time></trkpt><trkpt lat="45.60913048113255" lon="8.926053739303384"><ele>207.99999999999997</ele><time>2026-04-25T14:34:23.999Z</time></trkpt><trkpt lat="45.60906247965437" lon="8.926118126223747"><ele>208.0</ele><time>2026-04-25T14:34:24.999Z</time></trkpt><trkpt lat="45.6089923045809" lon="8.926173181495475"><ele>208.0</ele><time>2026-04-25T14:34:25.999Z</time></trkpt><trkpt lat="45.608919535601" lon="8.92622797104236"><ele>208.0</ele><time>2026-04-25T14:34:26.999Z</time></trkpt><trkpt lat="45.60885319164282" lon="8.926280322605034"><ele>207.99999999999997</ele><time>2026-04-25T14:34:27.999Z</time></trkpt><trkpt lat="45.608781732053046" lon="8.926343458028775"><ele>208.0</ele><time>2026-04-25T14:34:28.999Z</time></trkpt><trkpt lat="45.608708204406895" lon="8.926404995456425"><ele>207.83333333333331</ele><time>2026-04-25T14:34:29.999Z</time></trkpt><trkpt lat="45.60863349567006" lon="8.92647390499627"><ele>207.66666666666666</ele><time>2026-04-25T14:34:30.999Z</time></trkpt><trkpt lat="45.60856246011889" lon="8.92653997556306"><ele>207.5</ele><time>2026-04-25T14:34:31.999Z</time></trkpt><trkpt lat="45.60849375205211" lon="8.926595748493684"><ele>207.33333333333331</ele><time>2026-04-25T14:34:32.999Z</time></trkpt><trkpt lat="45.608429678852936" lon="8.926652005976795"><ele>207.16666666666666</ele><time>2026-04-25T14:34:33.999Z</time></trkpt><trkpt lat="45.60836737075948" lon="8.92670129237833"><ele>207.0</ele><time>2026-04-25T14:34:34.999Z</time></trkpt><trkpt lat="45.60830423134289" lon="8.92675143550894"><ele>207.33333333333334</ele><time>2026-04-25T14:34:35.999Z</time></trkpt><trkpt lat="45.60824206548189" lon="8.926802069989693"><ele>207.66666666666669</ele><time>2026-04-25T14:34:36.999Z</time></trkpt><trkpt lat="45.608179254690214" lon="8.926853797944759"><ele>208.0</ele><time>2026-04-25T14:34:37.999Z</time></trkpt><trkpt lat="45.608110438823445" lon="8.926915086245097"><ele>208.33333333333334</ele><time>2026-04-25T14:34:38.999Z</time></trkpt><trkpt lat="45.60803192081359" lon="8.92698226148748"><ele>208.66666666666669</ele><time>2026-04-25T14:34:40Z</time></trkpt><trkpt lat="45.60795627283579" lon="8.92704424581771"><ele>209.0</ele><time>2026-04-25T14:34:41Z</time></trkpt><trkpt lat="45.60789019078997" lon="8.927096831670056"><ele>209.00000000000003</ele><time>2026-04-25T14:34:42Z</time></trkpt><trkpt lat="45.607832054548396" lon="8.92714680080275"><ele>209.0</ele><time>2026-04-25T14:34:43Z</time></trkpt><trkpt lat="45.60777520808189" lon="8.927192414173968"><ele>209.0</ele><time>2026-04-25T14:34:44Z</time></trkpt><trkpt lat="45.60771344132909" lon="8.927246648330856"><ele>209.0</ele><time>2026-04-25T14:34:45Z</time></trkpt><trkpt lat="45.60764542050237" lon="8.927301799667696"><ele>209.00000000000003</ele><time>2026-04-25T14:34:46Z</time></trkpt><trkpt lat="45.60756972664104" lon="8.9273552641167"><ele>209.0</ele><time>2026-04-25T14:34:47Z</time></trkpt><trkpt lat="45.60750096694507" lon="8.927420320936054"><ele>208.83333333333334</ele><time>2026-04-25T14:34:48Z</time></trkpt><trkpt lat="45.60742889966568" lon="8.927486834241895"><ele>208.66666666666669</ele><time>2026-04-25T14:34:49Z</time></trkpt><trkpt lat="45.60735538399502" lon="8.92755125329101"><ele>208.5</ele><time>2026-04-25T14:34:50Z</time></trkpt><trkpt lat="45.607281600187235" lon="8.927615362153018"><ele>208.33333333333331</ele><time>2026-04-25T14:34:51Z</time></trkpt><trkpt lat="45.60720718992017" lon="8.927681335029318"><ele>208.16666666666666</ele><time>2026-04-25T14:34:52Z</time></trkpt><trkpt lat="45.60712404074912" lon="8.927753110862445"><ele>208.0</ele><time>2026-04-25T14:34:53Z</time></trkpt><trkpt lat="45.60703244029382" lon="8.92783138075289"><ele>208.0</ele><time>2026-04-25T14:34:54Z</time></trkpt><trkpt lat="45.60693086054481" lon="8.927914609934332"><ele>208.0</ele><time>2026-04-25T14:34:55Z</time></trkpt><trkpt lat="45.60683252113772" lon="8.928000452617987"><ele>208.0</ele><time>2026-04-25T14:34:56Z</time></trkpt><trkpt lat="45.606748227885376" lon="8.92807470970835"><ele>208.0</ele><time>2026-04-25T14:34:56.999Z</time></trkpt><trkpt lat="45.60667065258043" lon="8.928141602377954"><ele>208.0</ele><time>2026-04-25T14:34:57.999Z</time></trkpt><trkpt lat="45.60660449038702" lon="8.928199487341217"><ele>207.99999999999997</ele><time>2026-04-25T14:34:58.999Z</time></trkpt><trkpt lat="45.60654621429893" lon="8.928259082119414"><ele>208.0</ele><time>2026-04-25T14:34:59.999Z</time></trkpt><trkpt lat="45.60646672329172" lon="8.928320299005373"><ele>208.0</ele><time>2026-04-25T14:35:00.999Z</time></trkpt><trkpt lat="45.60638851990609" lon="8.928388875285453"><ele>208.0</ele><time>2026-04-25T14:35:01.999Z</time></trkpt><trkpt lat="45.60630115700685" lon="8.928454361454003"><ele>207.99999999999997</ele><time>2026-04-25T14:35:02.999Z</time></trkpt><trkpt lat="45.60622809095558" lon="8.92852573604683"><ele>208.0</ele><time>2026-04-25T14:35:03.999Z</time></trkpt><trkpt lat="45.606161678792965" lon="8.928583959503461"><ele>209.0</ele><time>2026-04-25T14:35:04.999Z</time></trkpt><trkpt lat="45.60610017468402" lon="8.92862941836637"><ele>208.0</ele><time>2026-04-25T14:35:05.999Z</time></trkpt><trkpt lat="45.606017809690236" lon="8.928707567047725"><ele>208.0</ele><time>2026-04-25T14:35:07.999Z</time></trkpt><trkpt lat="45.60594739331882" lon="8.928745080611884"><ele>208.0</ele><time>2026-04-25T14:35:11.999Z</time></trkpt></trkseg></trk></gpx>